<?xml version="1.0" encoding="UTF-8"?>
<gpx version="1.1" creator="https://www.www-youtrack-es.amenigma.com" xsi:schemaLocation="http://www.topografix.com/GPX/1/1 http://www.topografix.com/GPX/1/1/gpx.xsd http://www.garmin.com/xmlschemas/GpxExtensions/v3 http://www.garmin.com/xmlschemas/GpxExtensionsv3.xsd http://www.garmin.com/xmlschemas/TrackPointExtension/v1 http://www.garmin.com/xmlschemas/TrackPointExtensionv1.xsd" xmlns:gpxtpx="http://www.garmin.com/xmlschemas/TrackPointExtension/v1" xmlns:gpxx="http://www.garmin.com/xmlschemas/GpxExtensions/v3" xmlns:xsi="http://www.w3.org/2001/XMLSchema-instance">
  <metadata>
    <link href="https://www.www-youtrack-es.amenigma.com">
      <text>YouTrack.es</text>
    </link>
    <time>2026-09-01T04:15:16Z</time>
  </metadata>
  <trk>
    <src>https://www.www-youtrack-es.amenigma.com</src>
    <link href="https://www.www-youtrack-es.amenigma.com/ruta/8280-tour-mont-blanc-geographica">
      <text>YouTrack.es</text>
    </link>
    <trkseg>
      <trkpt lat="45.8736573" lon="6.7788265">
        <ele>1784.51</ele>
        <time>2019-09-03T07:08:10Z</time>
      </trkpt>
      <trkpt lat="45.7918240" lon="6.7348376">
        <ele>1962.90</ele>
        <time>2019-09-03T14:16:43Z</time>
      </trkpt>
      <trkpt lat="45.8736573" lon="6.7788265">
        <ele>1784.51</ele>
        <time>2019-09-03T07:08:11Z</time>
      </trkpt>
      <trkpt lat="45.8735728" lon="6.7788853">
        <ele>1794.00</ele>
        <time>2019-09-03T07:09:23Z</time>
      </trkpt>
      <trkpt lat="45.8734903" lon="6.7787861">
        <ele>1796.27</ele>
        <time>2019-09-03T07:12:33Z</time>
      </trkpt>
      <trkpt lat="45.8733934" lon="6.7787133">
        <ele>1795.92</ele>
        <time>2019-09-03T07:12:43Z</time>
      </trkpt>
      <trkpt lat="45.8733042" lon="6.7786618">
        <ele>1794.96</ele>
        <time>2019-09-03T07:12:53Z</time>
      </trkpt>
      <trkpt lat="45.8732658" lon="6.7785330">
        <ele>1793.33</ele>
        <time>2019-09-03T07:13:07Z</time>
      </trkpt>
      <trkpt lat="45.8732504" lon="6.7784050">
        <ele>1792.97</ele>
        <time>2019-09-03T07:13:17Z</time>
      </trkpt>
      <trkpt lat="45.8732062" lon="6.7782711">
        <ele>1791.97</ele>
        <time>2019-09-03T07:13:28Z</time>
      </trkpt>
      <trkpt lat="45.8731309" lon="6.7781800">
        <ele>1790.25</ele>
        <time>2019-09-03T07:13:38Z</time>
      </trkpt>
      <trkpt lat="45.8730474" lon="6.7780902">
        <ele>1788.97</ele>
        <time>2019-09-03T07:13:48Z</time>
      </trkpt>
      <trkpt lat="45.8730672" lon="6.7779637">
        <ele>1786.33</ele>
        <time>2019-09-03T07:14:00Z</time>
      </trkpt>
      <trkpt lat="45.8730566" lon="6.7778195">
        <ele>1785.03</ele>
        <time>2019-09-03T07:14:10Z</time>
      </trkpt>
      <trkpt lat="45.8729544" lon="6.7777667">
        <ele>1783.04</ele>
        <time>2019-09-03T07:14:20Z</time>
      </trkpt>
      <trkpt lat="45.8728759" lon="6.7776995">
        <ele>1781.27</ele>
        <time>2019-09-03T07:14:28Z</time>
      </trkpt>
      <trkpt lat="45.8727829" lon="6.7777038">
        <ele>1779.03</ele>
        <time>2019-09-03T07:14:42Z</time>
      </trkpt>
      <trkpt lat="45.8727024" lon="6.7776424">
        <ele>1777.24</ele>
        <time>2019-09-03T07:14:54Z</time>
      </trkpt>
      <trkpt lat="45.8726130" lon="6.7776016">
        <ele>1776.24</ele>
        <time>2019-09-03T07:15:06Z</time>
      </trkpt>
      <trkpt lat="45.8725171" lon="6.7776188">
        <ele>1772.25</ele>
        <time>2019-09-03T07:15:26Z</time>
      </trkpt>
      <trkpt lat="45.8724163" lon="6.7775768">
        <ele>1770.97</ele>
        <time>2019-09-03T07:15:40Z</time>
      </trkpt>
      <trkpt lat="45.8723207" lon="6.7775257">
        <ele>1770.01</ele>
        <time>2019-09-03T07:15:54Z</time>
      </trkpt>
      <trkpt lat="45.8722948" lon="6.7776502">
        <ele>1762.24</ele>
        <time>2019-09-03T07:17:06Z</time>
      </trkpt>
      <trkpt lat="45.8722573" lon="6.7777903">
        <ele>1761.24</ele>
        <time>2019-09-03T07:17:18Z</time>
      </trkpt>
      <trkpt lat="45.8722138" lon="6.7779174">
        <ele>1759.97</ele>
        <time>2019-09-03T07:17:26Z</time>
      </trkpt>
      <trkpt lat="45.8721580" lon="6.7780466">
        <ele>1759.16</ele>
        <time>2019-09-03T07:17:34Z</time>
      </trkpt>
      <trkpt lat="45.8720937" lon="6.7781655">
        <ele>1758.24</ele>
        <time>2019-09-03T07:17:42Z</time>
      </trkpt>
      <trkpt lat="45.8720564" lon="6.7783025">
        <ele>1756.97</ele>
        <time>2019-09-03T07:17:50Z</time>
      </trkpt>
      <trkpt lat="45.8720091" lon="6.7784474">
        <ele>1755.95</ele>
        <time>2019-09-03T07:18:00Z</time>
      </trkpt>
      <trkpt lat="45.8719826" lon="6.7785731">
        <ele>1755.94</ele>
        <time>2019-09-03T07:18:08Z</time>
      </trkpt>
      <trkpt lat="45.8719497" lon="6.7787086">
        <ele>1754.04</ele>
        <time>2019-09-03T07:18:16Z</time>
      </trkpt>
      <trkpt lat="45.8719191" lon="6.7788620">
        <ele>1753.94</ele>
        <time>2019-09-03T07:18:26Z</time>
      </trkpt>
      <trkpt lat="45.8718932" lon="6.7789954">
        <ele>1753.24</ele>
        <time>2019-09-03T07:18:34Z</time>
      </trkpt>
      <trkpt lat="45.8718695" lon="6.7791495">
        <ele>1752.94</ele>
        <time>2019-09-03T07:18:42Z</time>
      </trkpt>
      <trkpt lat="45.8718368" lon="6.7792808">
        <ele>1752.94</ele>
        <time>2019-09-03T07:18:50Z</time>
      </trkpt>
      <trkpt lat="45.8718051" lon="6.7794074">
        <ele>1752.24</ele>
        <time>2019-09-03T07:18:58Z</time>
      </trkpt>
      <trkpt lat="45.8717708" lon="6.7795352">
        <ele>1751.73</ele>
        <time>2019-09-03T07:19:06Z</time>
      </trkpt>
      <trkpt lat="45.8717398" lon="6.7796652">
        <ele>1751.94</ele>
        <time>2019-09-03T07:19:14Z</time>
      </trkpt>
      <trkpt lat="45.8717355" lon="6.7798056">
        <ele>1751.94</ele>
        <time>2019-09-03T07:19:22Z</time>
      </trkpt>
      <trkpt lat="45.8717217" lon="6.7799391">
        <ele>1752.93</ele>
        <time>2019-09-03T07:19:30Z</time>
      </trkpt>
      <trkpt lat="45.8717105" lon="6.7800689">
        <ele>1753.64</ele>
        <time>2019-09-03T07:19:38Z</time>
      </trkpt>
      <trkpt lat="45.8716880" lon="6.7802158">
        <ele>1753.94</ele>
        <time>2019-09-03T07:19:46Z</time>
      </trkpt>
      <trkpt lat="45.8716411" lon="6.7803514">
        <ele>1752.97</ele>
        <time>2019-09-03T07:19:54Z</time>
      </trkpt>
      <trkpt lat="45.8715712" lon="6.7804633">
        <ele>1752.03</ele>
        <time>2019-09-03T07:20:04Z</time>
      </trkpt>
      <trkpt lat="45.8715054" lon="6.7805801">
        <ele>1752.93</ele>
        <time>2019-09-03T07:20:14Z</time>
      </trkpt>
      <trkpt lat="45.8714457" lon="6.7806828">
        <ele>1752.94</ele>
        <time>2019-09-03T07:20:24Z</time>
      </trkpt>
      <trkpt lat="45.8713892" lon="6.7807906">
        <ele>1753.72</ele>
        <time>2019-09-03T07:20:34Z</time>
      </trkpt>
      <trkpt lat="45.8713244" lon="6.7808875">
        <ele>1753.24</ele>
        <time>2019-09-03T07:20:44Z</time>
      </trkpt>
      <trkpt lat="45.8712871" lon="6.7810143">
        <ele>1752.94</ele>
        <time>2019-09-03T07:20:52Z</time>
      </trkpt>
      <trkpt lat="45.8712429" lon="6.7811365">
        <ele>1752.94</ele>
        <time>2019-09-03T07:21:02Z</time>
      </trkpt>
      <trkpt lat="45.8712187" lon="6.7812930">
        <ele>1752.86</ele>
        <time>2019-09-03T07:21:12Z</time>
      </trkpt>
      <trkpt lat="45.8711747" lon="6.7814261">
        <ele>1752.24</ele>
        <time>2019-09-03T07:21:22Z</time>
      </trkpt>
      <trkpt lat="45.8711028" lon="6.7815106">
        <ele>1751.97</ele>
        <time>2019-09-03T07:21:32Z</time>
      </trkpt>
      <trkpt lat="45.8710324" lon="6.7816015">
        <ele>1751.94</ele>
        <time>2019-09-03T07:21:40Z</time>
      </trkpt>
      <trkpt lat="45.8709966" lon="6.7817379">
        <ele>1751.03</ele>
        <time>2019-09-03T07:21:48Z</time>
      </trkpt>
      <trkpt lat="45.8709655" lon="6.7818754">
        <ele>1751.86</ele>
        <time>2019-09-03T07:21:58Z</time>
      </trkpt>
      <trkpt lat="45.8708642" lon="6.7819083">
        <ele>1751.94</ele>
        <time>2019-09-03T07:22:08Z</time>
      </trkpt>
      <trkpt lat="45.8707589" lon="6.7819443">
        <ele>1749.95</ele>
        <time>2019-09-03T07:22:22Z</time>
      </trkpt>
      <trkpt lat="45.8706877" lon="6.7820322">
        <ele>1749.94</ele>
        <time>2019-09-03T07:22:30Z</time>
      </trkpt>
      <trkpt lat="45.8705981" lon="6.7821008">
        <ele>1748.25</ele>
        <time>2019-09-03T07:22:44Z</time>
      </trkpt>
      <trkpt lat="45.8704944" lon="6.7821020">
        <ele>1748.71</ele>
        <time>2019-09-03T07:22:54Z</time>
      </trkpt>
      <trkpt lat="45.8703982" lon="6.7821302">
        <ele>1751.80</ele>
        <time>2019-09-03T07:23:02Z</time>
      </trkpt>
      <trkpt lat="45.8703001" lon="6.7821816">
        <ele>1753.64</ele>
        <time>2019-09-03T07:23:14Z</time>
      </trkpt>
      <trkpt lat="45.8702130" lon="6.7822583">
        <ele>1754.21</ele>
        <time>2019-09-03T07:23:26Z</time>
      </trkpt>
      <trkpt lat="45.8701166" lon="6.7823243">
        <ele>1752.33</ele>
        <time>2019-09-03T07:23:36Z</time>
      </trkpt>
      <trkpt lat="45.8700237" lon="6.7823927">
        <ele>1752.64</ele>
        <time>2019-09-03T07:23:46Z</time>
      </trkpt>
      <trkpt lat="45.8699309" lon="6.7824595">
        <ele>1751.95</ele>
        <time>2019-09-03T07:23:54Z</time>
      </trkpt>
      <trkpt lat="45.8698409" lon="6.7825314">
        <ele>1752.92</ele>
        <time>2019-09-03T07:24:04Z</time>
      </trkpt>
      <trkpt lat="45.8698075" lon="6.7826580">
        <ele>1753.24</ele>
        <time>2019-09-03T07:24:20Z</time>
      </trkpt>
      <trkpt lat="45.8696908" lon="6.7826577">
        <ele>1753.84</ele>
        <time>2019-09-03T07:24:30Z</time>
      </trkpt>
      <trkpt lat="45.8696151" lon="6.7827531">
        <ele>1756.46</ele>
        <time>2019-09-03T07:24:40Z</time>
      </trkpt>
      <trkpt lat="45.8695547" lon="6.7828542">
        <ele>1756.31</ele>
        <time>2019-09-03T07:24:50Z</time>
      </trkpt>
      <trkpt lat="45.8694948" lon="6.7829850">
        <ele>1755.94</ele>
        <time>2019-09-03T07:25:00Z</time>
      </trkpt>
      <trkpt lat="45.8694324" lon="6.7831074">
        <ele>1756.86</ele>
        <time>2019-09-03T07:25:10Z</time>
      </trkpt>
      <trkpt lat="45.8694576" lon="6.7832597">
        <ele>1756.24</ele>
        <time>2019-09-03T07:25:20Z</time>
      </trkpt>
      <trkpt lat="45.8694746" lon="6.7834180">
        <ele>1754.97</ele>
        <time>2019-09-03T07:25:30Z</time>
      </trkpt>
      <trkpt lat="45.8693946" lon="6.7834911">
        <ele>1754.94</ele>
        <time>2019-09-03T07:25:42Z</time>
      </trkpt>
      <trkpt lat="45.8693072" lon="6.7835401">
        <ele>1756.91</ele>
        <time>2019-09-03T07:25:52Z</time>
      </trkpt>
      <trkpt lat="45.8692956" lon="6.7836743">
        <ele>1756.62</ele>
        <time>2019-09-03T07:26:10Z</time>
      </trkpt>
      <trkpt lat="45.8692265" lon="6.7837668">
        <ele>1757.64</ele>
        <time>2019-09-03T07:26:18Z</time>
      </trkpt>
      <trkpt lat="45.8691358" lon="6.7837734">
        <ele>1755.85</ele>
        <time>2019-09-03T07:26:30Z</time>
      </trkpt>
      <trkpt lat="45.8691185" lon="6.7839262">
        <ele>1753.63</ele>
        <time>2019-09-03T07:26:38Z</time>
      </trkpt>
      <trkpt lat="45.8690251" lon="6.7839331">
        <ele>1747.74</ele>
        <time>2019-09-03T07:27:02Z</time>
      </trkpt>
      <trkpt lat="45.8689325" lon="6.7839146">
        <ele>1750.58</ele>
        <time>2019-09-03T07:27:20Z</time>
      </trkpt>
      <trkpt lat="45.8688362" lon="6.7839319">
        <ele>1751.70</ele>
        <time>2019-09-03T07:27:28Z</time>
      </trkpt>
      <trkpt lat="45.8687149" lon="6.7839037">
        <ele>1760.56</ele>
        <time>2019-09-03T07:27:40Z</time>
      </trkpt>
      <trkpt lat="45.8686758" lon="6.7840289">
        <ele>1760.22</ele>
        <time>2019-09-03T07:27:48Z</time>
      </trkpt>
      <trkpt lat="45.8686877" lon="6.7841726">
        <ele>1760.31</ele>
        <time>2019-09-03T07:28:00Z</time>
      </trkpt>
      <trkpt lat="45.8686693" lon="6.7843269">
        <ele>1759.51</ele>
        <time>2019-09-03T07:28:10Z</time>
      </trkpt>
      <trkpt lat="45.8685812" lon="6.7844486">
        <ele>1760.89</ele>
        <time>2019-09-03T07:28:18Z</time>
      </trkpt>
      <trkpt lat="45.8684725" lon="6.7844268">
        <ele>1762.78</ele>
        <time>2019-09-03T07:28:28Z</time>
      </trkpt>
      <trkpt lat="45.8683637" lon="6.7844644">
        <ele>1765.61</ele>
        <time>2019-09-03T07:28:38Z</time>
      </trkpt>
      <trkpt lat="45.8682713" lon="6.7844793">
        <ele>1765.66</ele>
        <time>2019-09-03T07:28:44Z</time>
      </trkpt>
      <trkpt lat="45.8681809" lon="6.7845536">
        <ele>1766.07</ele>
        <time>2019-09-03T07:28:52Z</time>
      </trkpt>
      <trkpt lat="45.8680959" lon="6.7846037">
        <ele>1763.53</ele>
        <time>2019-09-03T07:29:20Z</time>
      </trkpt>
      <trkpt lat="45.8680076" lon="6.7846569">
        <ele>1760.96</ele>
        <time>2019-09-03T07:29:28Z</time>
      </trkpt>
      <trkpt lat="45.8679671" lon="6.7847761">
        <ele>1762.62</ele>
        <time>2019-09-03T07:29:34Z</time>
      </trkpt>
      <trkpt lat="45.8679366" lon="6.7849360">
        <ele>1758.62</ele>
        <time>2019-09-03T07:29:42Z</time>
      </trkpt>
      <trkpt lat="45.8679157" lon="6.7850800">
        <ele>1758.27</ele>
        <time>2019-09-03T07:29:50Z</time>
      </trkpt>
      <trkpt lat="45.8678194" lon="6.7851200">
        <ele>1760.12</ele>
        <time>2019-09-03T07:30:00Z</time>
      </trkpt>
      <trkpt lat="45.8677259" lon="6.7851085">
        <ele>1755.42</ele>
        <time>2019-09-03T07:30:14Z</time>
      </trkpt>
      <trkpt lat="45.8676449" lon="6.7850249">
        <ele>1756.14</ele>
        <time>2019-09-03T07:30:20Z</time>
      </trkpt>
      <trkpt lat="45.8675419" lon="6.7849982">
        <ele>1761.19</ele>
        <time>2019-09-03T07:30:28Z</time>
      </trkpt>
      <trkpt lat="45.8674389" lon="6.7850068">
        <ele>1764.25</ele>
        <time>2019-09-03T07:30:36Z</time>
      </trkpt>
      <trkpt lat="45.8673745" lon="6.7851171">
        <ele>1763.10</ele>
        <time>2019-09-03T07:30:42Z</time>
      </trkpt>
      <trkpt lat="45.8672640" lon="6.7851450">
        <ele>1765.28</ele>
        <time>2019-09-03T07:30:50Z</time>
      </trkpt>
      <trkpt lat="45.8671741" lon="6.7850944">
        <ele>1767.78</ele>
        <time>2019-09-03T07:30:58Z</time>
      </trkpt>
      <trkpt lat="45.8670681" lon="6.7851106">
        <ele>1766.27</ele>
        <time>2019-09-03T07:31:06Z</time>
      </trkpt>
      <trkpt lat="45.8670053" lon="6.7852103">
        <ele>1761.06</ele>
        <time>2019-09-03T07:31:18Z</time>
      </trkpt>
      <trkpt lat="45.8668988" lon="6.7852320">
        <ele>1761.66</ele>
        <time>2019-09-03T07:31:26Z</time>
      </trkpt>
      <trkpt lat="45.8667816" lon="6.7853074">
        <ele>1763.35</ele>
        <time>2019-09-03T07:31:34Z</time>
      </trkpt>
      <trkpt lat="45.8666868" lon="6.7852882">
        <ele>1760.99</ele>
        <time>2019-09-03T07:31:42Z</time>
      </trkpt>
      <trkpt lat="45.8665851" lon="6.7852593">
        <ele>1760.88</ele>
        <time>2019-09-03T07:31:48Z</time>
      </trkpt>
      <trkpt lat="45.8664896" lon="6.7852899">
        <ele>1757.04</ele>
        <time>2019-09-03T07:32:02Z</time>
      </trkpt>
      <trkpt lat="45.8663978" lon="6.7852571">
        <ele>1757.73</ele>
        <time>2019-09-03T07:32:08Z</time>
      </trkpt>
      <trkpt lat="45.8663115" lon="6.7852062">
        <ele>1760.17</ele>
        <time>2019-09-03T07:32:16Z</time>
      </trkpt>
      <trkpt lat="45.8662201" lon="6.7851886">
        <ele>1757.67</ele>
        <time>2019-09-03T07:32:34Z</time>
      </trkpt>
      <trkpt lat="45.8661375" lon="6.7852502">
        <ele>1758.21</ele>
        <time>2019-09-03T07:32:55Z</time>
      </trkpt>
      <trkpt lat="45.8660454" lon="6.7851919">
        <ele>1762.78</ele>
        <time>2019-09-03T07:33:57Z</time>
      </trkpt>
      <trkpt lat="45.8659447" lon="6.7852228">
        <ele>1765.90</ele>
        <time>2019-09-03T07:34:07Z</time>
      </trkpt>
      <trkpt lat="45.8658473" lon="6.7851970">
        <ele>1765.73</ele>
        <time>2019-09-03T07:34:19Z</time>
      </trkpt>
      <trkpt lat="45.8657595" lon="6.7852308">
        <ele>1765.65</ele>
        <time>2019-09-03T07:34:27Z</time>
      </trkpt>
      <trkpt lat="45.8657752" lon="6.7853929">
        <ele>1756.66</ele>
        <time>2019-09-03T07:34:38Z</time>
      </trkpt>
      <trkpt lat="45.8657861" lon="6.7855255">
        <ele>1754.86</ele>
        <time>2019-09-03T07:34:45Z</time>
      </trkpt>
      <trkpt lat="45.8657888" lon="6.7856670">
        <ele>1753.06</ele>
        <time>2019-09-03T07:34:52Z</time>
      </trkpt>
      <trkpt lat="45.8657636" lon="6.7858166">
        <ele>1753.96</ele>
        <time>2019-09-03T07:35:02Z</time>
      </trkpt>
      <trkpt lat="45.8656379" lon="6.7858347">
        <ele>1754.71</ele>
        <time>2019-09-03T07:35:36Z</time>
      </trkpt>
      <trkpt lat="45.8655634" lon="6.7859215">
        <ele>1754.03</ele>
        <time>2019-09-03T07:35:44Z</time>
      </trkpt>
      <trkpt lat="45.8655367" lon="6.7860462">
        <ele>1753.24</ele>
        <time>2019-09-03T07:35:52Z</time>
      </trkpt>
      <trkpt lat="45.8655281" lon="6.7862088">
        <ele>1752.94</ele>
        <time>2019-09-03T07:36:00Z</time>
      </trkpt>
      <trkpt lat="45.8655041" lon="6.7863520">
        <ele>1753.73</ele>
        <time>2019-09-03T07:36:12Z</time>
      </trkpt>
      <trkpt lat="45.8654117" lon="6.7863412">
        <ele>1758.51</ele>
        <time>2019-09-03T07:36:22Z</time>
      </trkpt>
      <trkpt lat="45.8653427" lon="6.7864391">
        <ele>1759.15</ele>
        <time>2019-09-03T07:36:34Z</time>
      </trkpt>
      <trkpt lat="45.8652586" lon="6.7865321">
        <ele>1758.88</ele>
        <time>2019-09-03T07:36:44Z</time>
      </trkpt>
      <trkpt lat="45.8652756" lon="6.7866711">
        <ele>1759.85</ele>
        <time>2019-09-03T07:36:52Z</time>
      </trkpt>
      <trkpt lat="45.8652941" lon="6.7868171">
        <ele>1760.94</ele>
        <time>2019-09-03T07:37:08Z</time>
      </trkpt>
      <trkpt lat="45.8653077" lon="6.7869558">
        <ele>1763.91</ele>
        <time>2019-09-03T07:37:24Z</time>
      </trkpt>
      <trkpt lat="45.8652390" lon="6.7870820">
        <ele>1763.94</ele>
        <time>2019-09-03T07:37:36Z</time>
      </trkpt>
      <trkpt lat="45.8651799" lon="6.7872226">
        <ele>1767.59</ele>
        <time>2019-09-03T07:38:09Z</time>
      </trkpt>
      <trkpt lat="45.8651243" lon="6.7873683">
        <ele>1769.15</ele>
        <time>2019-09-03T07:38:20Z</time>
      </trkpt>
      <trkpt lat="45.8650471" lon="6.7874705">
        <ele>1767.76</ele>
        <time>2019-09-03T07:38:28Z</time>
      </trkpt>
      <trkpt lat="45.8649805" lon="6.7875809">
        <ele>1766.25</ele>
        <time>2019-09-03T07:38:36Z</time>
      </trkpt>
      <trkpt lat="45.8648938" lon="6.7875440">
        <ele>1767.63</ele>
        <time>2019-09-03T07:38:48Z</time>
      </trkpt>
      <trkpt lat="45.8648213" lon="6.7874558">
        <ele>1770.58</ele>
        <time>2019-09-03T07:38:54Z</time>
      </trkpt>
      <trkpt lat="45.8647294" lon="6.7873878">
        <ele>1770.96</ele>
        <time>2019-09-03T07:39:02Z</time>
      </trkpt>
      <trkpt lat="45.8646573" lon="6.7872704">
        <ele>1772.83</ele>
        <time>2019-09-03T07:39:12Z</time>
      </trkpt>
      <trkpt lat="45.8645751" lon="6.7872014">
        <ele>1775.61</ele>
        <time>2019-09-03T07:39:24Z</time>
      </trkpt>
      <trkpt lat="45.8645136" lon="6.7871071">
        <ele>1777.64</ele>
        <time>2019-09-03T07:39:38Z</time>
      </trkpt>
      <trkpt lat="45.8644110" lon="6.7870504">
        <ele>1777.94</ele>
        <time>2019-09-03T07:39:50Z</time>
      </trkpt>
      <trkpt lat="45.8643116" lon="6.7870176">
        <ele>1779.63</ele>
        <time>2019-09-03T07:40:00Z</time>
      </trkpt>
      <trkpt lat="45.8642177" lon="6.7869455">
        <ele>1780.62</ele>
        <time>2019-09-03T07:40:10Z</time>
      </trkpt>
      <trkpt lat="45.8641420" lon="6.7868631">
        <ele>1780.92</ele>
        <time>2019-09-03T07:40:22Z</time>
      </trkpt>
      <trkpt lat="45.8641194" lon="6.7867228">
        <ele>1780.94</ele>
        <time>2019-09-03T07:40:38Z</time>
      </trkpt>
      <trkpt lat="45.8640510" lon="6.7866355">
        <ele>1780.65</ele>
        <time>2019-09-03T07:40:50Z</time>
      </trkpt>
      <trkpt lat="45.8639975" lon="6.7865033">
        <ele>1781.94</ele>
        <time>2019-09-03T07:41:08Z</time>
      </trkpt>
      <trkpt lat="45.8639490" lon="6.7863579">
        <ele>1782.03</ele>
        <time>2019-09-03T07:42:14Z</time>
      </trkpt>
      <trkpt lat="45.8639142" lon="6.7862089">
        <ele>1782.94</ele>
        <time>2019-09-03T07:42:58Z</time>
      </trkpt>
      <trkpt lat="45.8638142" lon="6.7861453">
        <ele>1781.54</ele>
        <time>2019-09-03T07:43:02Z</time>
      </trkpt>
      <trkpt lat="45.8637625" lon="6.7860387">
        <ele>1780.04</ele>
        <time>2019-09-03T07:43:10Z</time>
      </trkpt>
      <trkpt lat="45.8637690" lon="6.7858967">
        <ele>1775.90</ele>
        <time>2019-09-03T07:43:20Z</time>
      </trkpt>
      <trkpt lat="45.8638447" lon="6.7857754">
        <ele>1760.23</ele>
        <time>2019-09-03T07:44:02Z</time>
      </trkpt>
      <trkpt lat="45.8638945" lon="6.7856584">
        <ele>1753.97</ele>
        <time>2019-09-03T07:44:10Z</time>
      </trkpt>
      <trkpt lat="45.8639594" lon="6.7855613">
        <ele>1754.72</ele>
        <time>2019-09-03T07:44:20Z</time>
      </trkpt>
      <trkpt lat="45.8639414" lon="6.7854270">
        <ele>1752.98</ele>
        <time>2019-09-03T07:44:30Z</time>
      </trkpt>
      <trkpt lat="45.8639069" lon="6.7852889">
        <ele>1752.88</ele>
        <time>2019-09-03T07:44:40Z</time>
      </trkpt>
      <trkpt lat="45.8638597" lon="6.7851781">
        <ele>1749.01</ele>
        <time>2019-09-03T07:45:00Z</time>
      </trkpt>
      <trkpt lat="45.8637697" lon="6.7851057">
        <ele>1748.93</ele>
        <time>2019-09-03T07:45:12Z</time>
      </trkpt>
      <trkpt lat="45.8636873" lon="6.7850539">
        <ele>1747.95</ele>
        <time>2019-09-03T07:45:22Z</time>
      </trkpt>
      <trkpt lat="45.8636158" lon="6.7849576">
        <ele>1746.97</ele>
        <time>2019-09-03T07:45:44Z</time>
      </trkpt>
      <trkpt lat="45.8636489" lon="6.7848194">
        <ele>1741.22</ele>
        <time>2019-09-03T07:46:24Z</time>
      </trkpt>
      <trkpt lat="45.8636906" lon="6.7846892">
        <ele>1740.95</ele>
        <time>2019-09-03T07:46:36Z</time>
      </trkpt>
      <trkpt lat="45.8636876" lon="6.7845333">
        <ele>1738.06</ele>
        <time>2019-09-03T07:46:48Z</time>
      </trkpt>
      <trkpt lat="45.8636766" lon="6.7844030">
        <ele>1734.34</ele>
        <time>2019-09-03T07:46:58Z</time>
      </trkpt>
      <trkpt lat="45.8636505" lon="6.7842674">
        <ele>1733.03</ele>
        <time>2019-09-03T07:47:20Z</time>
      </trkpt>
      <trkpt lat="45.8636211" lon="6.7841451">
        <ele>1731.97</ele>
        <time>2019-09-03T07:47:32Z</time>
      </trkpt>
      <trkpt lat="45.8636002" lon="6.7839869">
        <ele>1726.76</ele>
        <time>2019-09-03T07:47:44Z</time>
      </trkpt>
      <trkpt lat="45.8635690" lon="6.7838439">
        <ele>1722.87</ele>
        <time>2019-09-03T07:47:54Z</time>
      </trkpt>
      <trkpt lat="45.8635767" lon="6.7837096">
        <ele>1727.24</ele>
        <time>2019-09-03T07:48:10Z</time>
      </trkpt>
      <trkpt lat="45.8635641" lon="6.7835573">
        <ele>1712.14</ele>
        <time>2019-09-03T07:48:26Z</time>
      </trkpt>
      <trkpt lat="45.8634549" lon="6.7835327">
        <ele>1712.45</ele>
        <time>2019-09-03T07:48:40Z</time>
      </trkpt>
      <trkpt lat="45.8633318" lon="6.7835068">
        <ele>1709.64</ele>
        <time>2019-09-03T07:48:48Z</time>
      </trkpt>
      <trkpt lat="45.8632380" lon="6.7835352">
        <ele>1709.71</ele>
        <time>2019-09-03T07:49:00Z</time>
      </trkpt>
      <trkpt lat="45.8631356" lon="6.7835162">
        <ele>1709.03</ele>
        <time>2019-09-03T07:49:16Z</time>
      </trkpt>
      <trkpt lat="45.8630459" lon="6.7834762">
        <ele>1718.88</ele>
        <time>2019-09-03T07:49:26Z</time>
      </trkpt>
      <trkpt lat="45.8629804" lon="6.7833832">
        <ele>1705.86</ele>
        <time>2019-09-03T07:50:12Z</time>
      </trkpt>
      <trkpt lat="45.8629746" lon="6.7832308">
        <ele>1695.41</ele>
        <time>2019-09-03T07:50:34Z</time>
      </trkpt>
      <trkpt lat="45.8629154" lon="6.7831159">
        <ele>1689.33</ele>
        <time>2019-09-03T07:51:36Z</time>
      </trkpt>
      <trkpt lat="45.8628204" lon="6.7830970">
        <ele>1684.43</ele>
        <time>2019-09-03T07:52:04Z</time>
      </trkpt>
      <trkpt lat="45.8627259" lon="6.7830444">
        <ele>1683.33</ele>
        <time>2019-09-03T07:52:24Z</time>
      </trkpt>
      <trkpt lat="45.8626392" lon="6.7829691">
        <ele>1684.19</ele>
        <time>2019-09-03T07:53:38Z</time>
      </trkpt>
      <trkpt lat="45.8625956" lon="6.7830914">
        <ele>1691.91</ele>
        <time>2019-09-03T07:54:00Z</time>
      </trkpt>
      <trkpt lat="45.8625101" lon="6.7830356">
        <ele>1694.85</ele>
        <time>2019-09-03T07:54:24Z</time>
      </trkpt>
      <trkpt lat="45.8624152" lon="6.7830143">
        <ele>1700.58</ele>
        <time>2019-09-03T07:54:42Z</time>
      </trkpt>
      <trkpt lat="45.8623244" lon="6.7830107">
        <ele>1705.52</ele>
        <time>2019-09-03T07:54:54Z</time>
      </trkpt>
      <trkpt lat="45.8622243" lon="6.7830320">
        <ele>1705.94</ele>
        <time>2019-09-03T07:55:18Z</time>
      </trkpt>
      <trkpt lat="45.8621862" lon="6.7828881">
        <ele>1710.64</ele>
        <time>2019-09-03T07:55:52Z</time>
      </trkpt>
      <trkpt lat="45.8620851" lon="6.7828590">
        <ele>1714.93</ele>
        <time>2019-09-03T07:56:24Z</time>
      </trkpt>
      <trkpt lat="45.8620231" lon="6.7829651">
        <ele>1718.61</ele>
        <time>2019-09-03T07:56:44Z</time>
      </trkpt>
      <trkpt lat="45.8619303" lon="6.7829944">
        <ele>1719.85</ele>
        <time>2019-09-03T07:57:00Z</time>
      </trkpt>
      <trkpt lat="45.8618296" lon="6.7829935">
        <ele>1724.64</ele>
        <time>2019-09-03T07:57:28Z</time>
      </trkpt>
      <trkpt lat="45.8617631" lon="6.7830875">
        <ele>1727.61</ele>
        <time>2019-09-03T07:57:52Z</time>
      </trkpt>
      <trkpt lat="45.8617000" lon="6.7831876">
        <ele>1732.63</ele>
        <time>2019-09-03T07:58:14Z</time>
      </trkpt>
      <trkpt lat="45.8616385" lon="6.7830770">
        <ele>1735.55</ele>
        <time>2019-09-03T07:58:32Z</time>
      </trkpt>
      <trkpt lat="45.8616273" lon="6.7829360">
        <ele>1742.87</ele>
        <time>2019-09-03T07:59:24Z</time>
      </trkpt>
      <trkpt lat="45.8616822" lon="6.7828182">
        <ele>1748.03</ele>
        <time>2019-09-03T07:59:38Z</time>
      </trkpt>
      <trkpt lat="45.8616014" lon="6.7827449">
        <ele>1752.63</ele>
        <time>2019-09-03T08:00:12Z</time>
      </trkpt>
      <trkpt lat="45.8615068" lon="6.7827406">
        <ele>1754.65</ele>
        <time>2019-09-03T08:00:32Z</time>
      </trkpt>
      <trkpt lat="45.8615210" lon="6.7826001">
        <ele>1756.15</ele>
        <time>2019-09-03T08:00:54Z</time>
      </trkpt>
      <trkpt lat="45.8614980" lon="6.7824729">
        <ele>1759.82</ele>
        <time>2019-09-03T08:01:06Z</time>
      </trkpt>
      <trkpt lat="45.8614324" lon="6.7823665">
        <ele>1764.94</ele>
        <time>2019-09-03T08:01:34Z</time>
      </trkpt>
      <trkpt lat="45.8614421" lon="6.7822346">
        <ele>1770.79</ele>
        <time>2019-09-03T08:04:20Z</time>
      </trkpt>
      <trkpt lat="45.8614121" lon="6.7820948">
        <ele>1771.64</ele>
        <time>2019-09-03T08:04:34Z</time>
      </trkpt>
      <trkpt lat="45.8613478" lon="6.7819954">
        <ele>1771.94</ele>
        <time>2019-09-03T08:04:48Z</time>
      </trkpt>
      <trkpt lat="45.8612823" lon="6.7819030">
        <ele>1771.64</ele>
        <time>2019-09-03T08:05:02Z</time>
      </trkpt>
      <trkpt lat="45.8612621" lon="6.7817742">
        <ele>1771.92</ele>
        <time>2019-09-03T08:05:14Z</time>
      </trkpt>
      <trkpt lat="45.8612180" lon="6.7816546">
        <ele>1774.61</ele>
        <time>2019-09-03T08:05:26Z</time>
      </trkpt>
      <trkpt lat="45.8611318" lon="6.7815778">
        <ele>1776.55</ele>
        <time>2019-09-03T08:05:46Z</time>
      </trkpt>
      <trkpt lat="45.8610310" lon="6.7815411">
        <ele>1776.94</ele>
        <time>2019-09-03T08:05:58Z</time>
      </trkpt>
      <trkpt lat="45.8609363" lon="6.7815176">
        <ele>1778.85</ele>
        <time>2019-09-03T08:06:12Z</time>
      </trkpt>
      <trkpt lat="45.8608350" lon="6.7815099">
        <ele>1780.91</ele>
        <time>2019-09-03T08:06:28Z</time>
      </trkpt>
      <trkpt lat="45.8607419" lon="6.7815050">
        <ele>1783.94</ele>
        <time>2019-09-03T08:06:46Z</time>
      </trkpt>
      <trkpt lat="45.8606630" lon="6.7814348">
        <ele>1785.91</ele>
        <time>2019-09-03T08:07:02Z</time>
      </trkpt>
      <trkpt lat="45.8605821" lon="6.7813680">
        <ele>1790.84</ele>
        <time>2019-09-03T08:07:20Z</time>
      </trkpt>
      <trkpt lat="45.8605246" lon="6.7812538">
        <ele>1794.63</ele>
        <time>2019-09-03T08:07:44Z</time>
      </trkpt>
      <trkpt lat="45.8604719" lon="6.7811457">
        <ele>1797.91</ele>
        <time>2019-09-03T08:08:00Z</time>
      </trkpt>
      <trkpt lat="45.8605282" lon="6.7810438">
        <ele>1799.85</ele>
        <time>2019-09-03T08:08:12Z</time>
      </trkpt>
      <trkpt lat="45.8604919" lon="6.7809117">
        <ele>1801.85</ele>
        <time>2019-09-03T08:08:28Z</time>
      </trkpt>
      <trkpt lat="45.8604319" lon="6.7808149">
        <ele>1804.85</ele>
        <time>2019-09-03T08:08:42Z</time>
      </trkpt>
      <trkpt lat="45.8603424" lon="6.7807651">
        <ele>1805.88</ele>
        <time>2019-09-03T08:08:56Z</time>
      </trkpt>
      <trkpt lat="45.8602511" lon="6.7807509">
        <ele>1808.61</ele>
        <time>2019-09-03T08:09:10Z</time>
      </trkpt>
      <trkpt lat="45.8601514" lon="6.7807596">
        <ele>1811.64</ele>
        <time>2019-09-03T08:09:26Z</time>
      </trkpt>
      <trkpt lat="45.8601251" lon="6.7806305">
        <ele>1818.61</ele>
        <time>2019-09-03T08:09:58Z</time>
      </trkpt>
      <trkpt lat="45.8600701" lon="6.7805127">
        <ele>1819.64</ele>
        <time>2019-09-03T08:10:14Z</time>
      </trkpt>
      <trkpt lat="45.8599879" lon="6.7804520">
        <ele>1821.91</ele>
        <time>2019-09-03T08:10:28Z</time>
      </trkpt>
      <trkpt lat="45.8599220" lon="6.7803521">
        <ele>1824.61</ele>
        <time>2019-09-03T08:10:44Z</time>
      </trkpt>
      <trkpt lat="45.8598301" lon="6.7802828">
        <ele>1826.85</ele>
        <time>2019-09-03T08:11:00Z</time>
      </trkpt>
      <trkpt lat="45.8597446" lon="6.7802119">
        <ele>1828.93</ele>
        <time>2019-09-03T08:11:16Z</time>
      </trkpt>
      <trkpt lat="45.8596478" lon="6.7801464">
        <ele>1830.91</ele>
        <time>2019-09-03T08:11:28Z</time>
      </trkpt>
      <trkpt lat="45.8595564" lon="6.7800659">
        <ele>1831.94</ele>
        <time>2019-09-03T08:11:42Z</time>
      </trkpt>
      <trkpt lat="45.8594608" lon="6.7800319">
        <ele>1833.64</ele>
        <time>2019-09-03T08:11:56Z</time>
      </trkpt>
      <trkpt lat="45.8593547" lon="6.7800048">
        <ele>1834.85</ele>
        <time>2019-09-03T08:12:08Z</time>
      </trkpt>
      <trkpt lat="45.8592611" lon="6.7799869">
        <ele>1835.64</ele>
        <time>2019-09-03T08:12:18Z</time>
      </trkpt>
      <trkpt lat="45.8591904" lon="6.7798969">
        <ele>1836.64</ele>
        <time>2019-09-03T08:12:32Z</time>
      </trkpt>
      <trkpt lat="45.8591631" lon="6.7797706">
        <ele>1837.92</ele>
        <time>2019-09-03T08:12:50Z</time>
      </trkpt>
      <trkpt lat="45.8590922" lon="6.7796771">
        <ele>1838.94</ele>
        <time>2019-09-03T08:13:06Z</time>
      </trkpt>
      <trkpt lat="45.8589943" lon="6.7796567">
        <ele>1841.82</ele>
        <time>2019-09-03T08:13:20Z</time>
      </trkpt>
      <trkpt lat="45.8589165" lon="6.7795863">
        <ele>1841.94</ele>
        <time>2019-09-03T08:13:34Z</time>
      </trkpt>
      <trkpt lat="45.8588302" lon="6.7795234">
        <ele>1842.94</ele>
        <time>2019-09-03T08:13:48Z</time>
      </trkpt>
      <trkpt lat="45.8588043" lon="6.7793825">
        <ele>1844.94</ele>
        <time>2019-09-03T08:14:04Z</time>
      </trkpt>
      <trkpt lat="45.8588238" lon="6.7792440">
        <ele>1846.85</ele>
        <time>2019-09-03T08:14:18Z</time>
      </trkpt>
      <trkpt lat="45.8587319" lon="6.7791641">
        <ele>1847.88</ele>
        <time>2019-09-03T08:14:32Z</time>
      </trkpt>
      <trkpt lat="45.8586368" lon="6.7791107">
        <ele>1849.64</ele>
        <time>2019-09-03T08:14:44Z</time>
      </trkpt>
      <trkpt lat="45.8585559" lon="6.7790515">
        <ele>1850.66</ele>
        <time>2019-09-03T08:14:58Z</time>
      </trkpt>
      <trkpt lat="45.8584940" lon="6.7789294">
        <ele>1852.72</ele>
        <time>2019-09-03T08:15:20Z</time>
      </trkpt>
      <trkpt lat="45.8584495" lon="6.7788163">
        <ele>1853.94</ele>
        <time>2019-09-03T08:15:38Z</time>
      </trkpt>
      <trkpt lat="45.8584043" lon="6.7787021">
        <ele>1856.85</ele>
        <time>2019-09-03T08:16:00Z</time>
      </trkpt>
      <trkpt lat="45.8583368" lon="6.7785947">
        <ele>1858.84</ele>
        <time>2019-09-03T08:16:18Z</time>
      </trkpt>
      <trkpt lat="45.8582751" lon="6.7784833">
        <ele>1860.91</ele>
        <time>2019-09-03T08:16:32Z</time>
      </trkpt>
      <trkpt lat="45.8582208" lon="6.7783696">
        <ele>1864.85</ele>
        <time>2019-09-03T08:16:52Z</time>
      </trkpt>
      <trkpt lat="45.8581371" lon="6.7783065">
        <ele>1868.63</ele>
        <time>2019-09-03T08:17:20Z</time>
      </trkpt>
      <trkpt lat="45.8580463" lon="6.7783160">
        <ele>1869.92</ele>
        <time>2019-09-03T08:17:36Z</time>
      </trkpt>
      <trkpt lat="45.8579555" lon="6.7782831">
        <ele>1872.64</ele>
        <time>2019-09-03T08:17:56Z</time>
      </trkpt>
      <trkpt lat="45.8578624" lon="6.7782529">
        <ele>1876.64</ele>
        <time>2019-09-03T08:18:26Z</time>
      </trkpt>
      <trkpt lat="45.8577630" lon="6.7782144">
        <ele>1884.83</ele>
        <time>2019-09-03T08:19:00Z</time>
      </trkpt>
      <trkpt lat="45.8576917" lon="6.7781165">
        <ele>1887.64</ele>
        <time>2019-09-03T08:19:24Z</time>
      </trkpt>
      <trkpt lat="45.8576791" lon="6.7779703">
        <ele>1890.63</ele>
        <time>2019-09-03T08:19:48Z</time>
      </trkpt>
      <trkpt lat="45.8576683" lon="6.7778416">
        <ele>1889.86</ele>
        <time>2019-09-03T08:20:02Z</time>
      </trkpt>
      <trkpt lat="45.8576367" lon="6.7777144">
        <ele>1891.93</ele>
        <time>2019-09-03T08:20:24Z</time>
      </trkpt>
      <trkpt lat="45.8575791" lon="6.7776093">
        <ele>1893.64</ele>
        <time>2019-09-03T08:20:44Z</time>
      </trkpt>
      <trkpt lat="45.8574999" lon="6.7775431">
        <ele>1902.02</ele>
        <time>2019-09-03T08:29:48Z</time>
      </trkpt>
      <trkpt lat="45.8574828" lon="6.7774077">
        <ele>1898.03</ele>
        <time>2019-09-03T08:30:26Z</time>
      </trkpt>
      <trkpt lat="45.8574036" lon="6.7773209">
        <ele>1897.92</ele>
        <time>2019-09-03T08:30:40Z</time>
      </trkpt>
      <trkpt lat="45.8573021" lon="6.7772812">
        <ele>1900.84</ele>
        <time>2019-09-03T08:30:56Z</time>
      </trkpt>
      <trkpt lat="45.8572331" lon="6.7771794">
        <ele>1902.93</ele>
        <time>2019-09-03T08:31:10Z</time>
      </trkpt>
      <trkpt lat="45.8571633" lon="6.7770875">
        <ele>1903.64</ele>
        <time>2019-09-03T08:31:22Z</time>
      </trkpt>
      <trkpt lat="45.8571036" lon="6.7769770">
        <ele>1903.94</ele>
        <time>2019-09-03T08:31:34Z</time>
      </trkpt>
      <trkpt lat="45.8570648" lon="6.7768380">
        <ele>1905.85</ele>
        <time>2019-09-03T08:31:44Z</time>
      </trkpt>
      <trkpt lat="45.8570177" lon="6.7767244">
        <ele>1907.84</ele>
        <time>2019-09-03T08:31:54Z</time>
      </trkpt>
      <trkpt lat="45.8569961" lon="6.7765979">
        <ele>1910.55</ele>
        <time>2019-09-03T08:32:06Z</time>
      </trkpt>
      <trkpt lat="45.8569164" lon="6.7765344">
        <ele>1912.84</ele>
        <time>2019-09-03T08:32:20Z</time>
      </trkpt>
      <trkpt lat="45.8568353" lon="6.7764515">
        <ele>1914.92</ele>
        <time>2019-09-03T08:32:38Z</time>
      </trkpt>
      <trkpt lat="45.8567561" lon="6.7763892">
        <ele>1915.92</ele>
        <time>2019-09-03T08:32:50Z</time>
      </trkpt>
      <trkpt lat="45.8566616" lon="6.7763222">
        <ele>1917.93</ele>
        <time>2019-09-03T08:33:04Z</time>
      </trkpt>
      <trkpt lat="45.8565952" lon="6.7762231">
        <ele>1920.91</ele>
        <time>2019-09-03T08:33:16Z</time>
      </trkpt>
      <trkpt lat="45.8565269" lon="6.7761318">
        <ele>1922.91</ele>
        <time>2019-09-03T08:33:26Z</time>
      </trkpt>
      <trkpt lat="45.8564580" lon="6.7760452">
        <ele>1924.63</ele>
        <time>2019-09-03T08:33:38Z</time>
      </trkpt>
      <trkpt lat="45.8563825" lon="6.7759592">
        <ele>1927.84</ele>
        <time>2019-09-03T08:33:52Z</time>
      </trkpt>
      <trkpt lat="45.8563337" lon="6.7758358">
        <ele>1928.92</ele>
        <time>2019-09-03T08:34:06Z</time>
      </trkpt>
      <trkpt lat="45.8562868" lon="6.7757155">
        <ele>1931.91</ele>
        <time>2019-09-03T08:34:22Z</time>
      </trkpt>
      <trkpt lat="45.8562433" lon="6.7755914">
        <ele>1933.91</ele>
        <time>2019-09-03T08:34:36Z</time>
      </trkpt>
      <trkpt lat="45.8561900" lon="6.7754785">
        <ele>1937.83</ele>
        <time>2019-09-03T08:34:52Z</time>
      </trkpt>
      <trkpt lat="45.8561291" lon="6.7753797">
        <ele>1940.85</ele>
        <time>2019-09-03T08:35:06Z</time>
      </trkpt>
      <trkpt lat="45.8560613" lon="6.7752926">
        <ele>1942.92</ele>
        <time>2019-09-03T08:35:24Z</time>
      </trkpt>
      <trkpt lat="45.8559993" lon="6.7751847">
        <ele>1945.83</ele>
        <time>2019-09-03T08:35:40Z</time>
      </trkpt>
      <trkpt lat="45.8559206" lon="6.7751072">
        <ele>1946.94</ele>
        <time>2019-09-03T08:35:56Z</time>
      </trkpt>
      <trkpt lat="45.8558446" lon="6.7750125">
        <ele>1948.91</ele>
        <time>2019-09-03T08:36:14Z</time>
      </trkpt>
      <trkpt lat="45.8557761" lon="6.7748966">
        <ele>1953.52</ele>
        <time>2019-09-03T08:36:30Z</time>
      </trkpt>
      <trkpt lat="45.8557073" lon="6.7747968">
        <ele>1955.85</ele>
        <time>2019-09-03T08:36:44Z</time>
      </trkpt>
      <trkpt lat="45.8556290" lon="6.7747173">
        <ele>1956.85</ele>
        <time>2019-09-03T08:37:00Z</time>
      </trkpt>
      <trkpt lat="45.8555544" lon="6.7746332">
        <ele>1966.58</ele>
        <time>2019-09-03T08:37:14Z</time>
      </trkpt>
      <trkpt lat="45.8554699" lon="6.7745662">
        <ele>1968.92</ele>
        <time>2019-09-03T08:37:35Z</time>
      </trkpt>
      <trkpt lat="45.8554165" lon="6.7744466">
        <ele>1969.83</ele>
        <time>2019-09-03T08:37:45Z</time>
      </trkpt>
      <trkpt lat="45.8553206" lon="6.7743825">
        <ele>1971.70</ele>
        <time>2019-09-03T08:38:05Z</time>
      </trkpt>
      <trkpt lat="45.8552404" lon="6.7743188">
        <ele>1973.61</ele>
        <time>2019-09-03T08:38:15Z</time>
      </trkpt>
      <trkpt lat="45.8551805" lon="6.7742024">
        <ele>1976.85</ele>
        <time>2019-09-03T08:38:39Z</time>
      </trkpt>
      <trkpt lat="45.8551115" lon="6.7741037">
        <ele>1977.85</ele>
        <time>2019-09-03T08:38:49Z</time>
      </trkpt>
      <trkpt lat="45.8550160" lon="6.7740563">
        <ele>1978.91</ele>
        <time>2019-09-03T08:39:01Z</time>
      </trkpt>
      <trkpt lat="45.8549504" lon="6.7739577">
        <ele>1980.85</ele>
        <time>2019-09-03T08:39:15Z</time>
      </trkpt>
      <trkpt lat="45.8548647" lon="6.7738700">
        <ele>1982.85</ele>
        <time>2019-09-03T08:39:27Z</time>
      </trkpt>
      <trkpt lat="45.8547646" lon="6.7738272">
        <ele>1984.91</ele>
        <time>2019-09-03T08:39:39Z</time>
      </trkpt>
      <trkpt lat="45.8546771" lon="6.7737548">
        <ele>1983.17</ele>
        <time>2019-09-03T08:39:51Z</time>
      </trkpt>
      <trkpt lat="45.8545860" lon="6.7737284">
        <ele>1988.82</ele>
        <time>2019-09-03T08:40:05Z</time>
      </trkpt>
      <trkpt lat="45.8544834" lon="6.7736990">
        <ele>1990.64</ele>
        <time>2019-09-03T08:40:19Z</time>
      </trkpt>
      <trkpt lat="45.8543875" lon="6.7736353">
        <ele>1990.94</ele>
        <time>2019-09-03T08:40:35Z</time>
      </trkpt>
      <trkpt lat="45.8543219" lon="6.7735246">
        <ele>1992.61</ele>
        <time>2019-09-03T08:40:47Z</time>
      </trkpt>
      <trkpt lat="45.8542399" lon="6.7734705">
        <ele>1994.64</ele>
        <time>2019-09-03T08:40:59Z</time>
      </trkpt>
      <trkpt lat="45.8541608" lon="6.7733924">
        <ele>1997.63</ele>
        <time>2019-09-03T08:41:13Z</time>
      </trkpt>
      <trkpt lat="45.8540639" lon="6.7733494">
        <ele>2000.82</ele>
        <time>2019-09-03T08:41:25Z</time>
      </trkpt>
      <trkpt lat="45.8539717" lon="6.7732838">
        <ele>2002.91</ele>
        <time>2019-09-03T08:41:39Z</time>
      </trkpt>
      <trkpt lat="45.8538842" lon="6.7732234">
        <ele>2004.61</ele>
        <time>2019-09-03T08:41:53Z</time>
      </trkpt>
      <trkpt lat="45.8537939" lon="6.7731916">
        <ele>2004.93</ele>
        <time>2019-09-03T08:42:05Z</time>
      </trkpt>
      <trkpt lat="45.8537122" lon="6.7731193">
        <ele>2007.12</ele>
        <time>2019-09-03T08:42:19Z</time>
      </trkpt>
      <trkpt lat="45.8536132" lon="6.7731006">
        <ele>2009.91</ele>
        <time>2019-09-03T08:42:33Z</time>
      </trkpt>
      <trkpt lat="45.8535208" lon="6.7730797">
        <ele>2011.92</ele>
        <time>2019-09-03T08:42:49Z</time>
      </trkpt>
      <trkpt lat="45.8534301" lon="6.7730157">
        <ele>2013.63</ele>
        <time>2019-09-03T08:43:03Z</time>
      </trkpt>
      <trkpt lat="45.8533459" lon="6.7729672">
        <ele>2016.85</ele>
        <time>2019-09-03T08:43:17Z</time>
      </trkpt>
      <trkpt lat="45.8532620" lon="6.7729191">
        <ele>2017.64</ele>
        <time>2019-09-03T08:43:29Z</time>
      </trkpt>
      <trkpt lat="45.8531864" lon="6.7728291">
        <ele>2018.92</ele>
        <time>2019-09-03T08:43:47Z</time>
      </trkpt>
      <trkpt lat="45.8531082" lon="6.7727506">
        <ele>2018.03</ele>
        <time>2019-09-03T08:44:01Z</time>
      </trkpt>
      <trkpt lat="45.8530343" lon="6.7726565">
        <ele>2019.85</ele>
        <time>2019-09-03T08:44:15Z</time>
      </trkpt>
      <trkpt lat="45.8529501" lon="6.7725845">
        <ele>2020.24</ele>
        <time>2019-09-03T08:44:29Z</time>
      </trkpt>
      <trkpt lat="45.8528668" lon="6.7725078">
        <ele>2022.91</ele>
        <time>2019-09-03T08:44:43Z</time>
      </trkpt>
      <trkpt lat="45.8527963" lon="6.7724052">
        <ele>2026.61</ele>
        <time>2019-09-03T08:45:01Z</time>
      </trkpt>
      <trkpt lat="45.8527271" lon="6.7723210">
        <ele>2028.93</ele>
        <time>2019-09-03T08:45:15Z</time>
      </trkpt>
      <trkpt lat="45.8526369" lon="6.7722556">
        <ele>2030.94</ele>
        <time>2019-09-03T08:45:29Z</time>
      </trkpt>
      <trkpt lat="45.8525382" lon="6.7722453">
        <ele>2034.82</ele>
        <time>2019-09-03T08:45:45Z</time>
      </trkpt>
      <trkpt lat="45.8524580" lon="6.7721869">
        <ele>2035.91</ele>
        <time>2019-09-03T08:45:57Z</time>
      </trkpt>
      <trkpt lat="45.8523676" lon="6.7721392">
        <ele>2037.93</ele>
        <time>2019-09-03T08:46:11Z</time>
      </trkpt>
      <trkpt lat="45.8522773" lon="6.7720771">
        <ele>2039.84</ele>
        <time>2019-09-03T08:46:25Z</time>
      </trkpt>
      <trkpt lat="45.8522088" lon="6.7719671">
        <ele>2040.92</ele>
        <time>2019-09-03T08:46:41Z</time>
      </trkpt>
      <trkpt lat="45.8521357" lon="6.7718904">
        <ele>2043.85</ele>
        <time>2019-09-03T08:46:57Z</time>
      </trkpt>
      <trkpt lat="45.8520835" lon="6.7717827">
        <ele>2046.84</ele>
        <time>2019-09-03T08:47:11Z</time>
      </trkpt>
      <trkpt lat="45.8519887" lon="6.7717542">
        <ele>2049.64</ele>
        <time>2019-09-03T08:47:29Z</time>
      </trkpt>
      <trkpt lat="45.8519032" lon="6.7716971">
        <ele>2051.94</ele>
        <time>2019-09-03T08:47:45Z</time>
      </trkpt>
      <trkpt lat="45.8518041" lon="6.7716570">
        <ele>2055.61</ele>
        <time>2019-09-03T08:48:03Z</time>
      </trkpt>
      <trkpt lat="45.8517284" lon="6.7715832">
        <ele>2058.93</ele>
        <time>2019-09-03T08:48:19Z</time>
      </trkpt>
      <trkpt lat="45.8516559" lon="6.7714934">
        <ele>2063.82</ele>
        <time>2019-09-03T08:48:45Z</time>
      </trkpt>
      <trkpt lat="45.8516217" lon="6.7713720">
        <ele>2068.54</ele>
        <time>2019-09-03T08:49:07Z</time>
      </trkpt>
      <trkpt lat="45.8515158" lon="6.7713612">
        <ele>2070.64</ele>
        <time>2019-09-03T08:49:41Z</time>
      </trkpt>
      <trkpt lat="45.8514265" lon="6.7713420">
        <ele>2074.63</ele>
        <time>2019-09-03T08:49:57Z</time>
      </trkpt>
      <trkpt lat="45.8513587" lon="6.7712529">
        <ele>2076.93</ele>
        <time>2019-09-03T08:50:13Z</time>
      </trkpt>
      <trkpt lat="45.8512921" lon="6.7711548">
        <ele>2079.84</ele>
        <time>2019-09-03T08:50:31Z</time>
      </trkpt>
      <trkpt lat="45.8512078" lon="6.7711013">
        <ele>2082.93</ele>
        <time>2019-09-03T08:50:43Z</time>
      </trkpt>
      <trkpt lat="45.8511407" lon="6.7709869">
        <ele>2084.94</ele>
        <time>2019-09-03T08:50:55Z</time>
      </trkpt>
      <trkpt lat="45.8510632" lon="6.7709005">
        <ele>2087.61</ele>
        <time>2019-09-03T08:51:09Z</time>
      </trkpt>
      <trkpt lat="45.8510032" lon="6.7707806">
        <ele>2089.91</ele>
        <time>2019-09-03T08:51:25Z</time>
      </trkpt>
      <trkpt lat="45.8509606" lon="6.7706459">
        <ele>2091.85</ele>
        <time>2019-09-03T08:51:41Z</time>
      </trkpt>
      <trkpt lat="45.8509342" lon="6.7705181">
        <ele>2094.63</ele>
        <time>2019-09-03T08:51:53Z</time>
      </trkpt>
      <trkpt lat="45.8508864" lon="6.7704015">
        <ele>2096.84</ele>
        <time>2019-09-03T08:52:07Z</time>
      </trkpt>
      <trkpt lat="45.8508149" lon="6.7703156">
        <ele>2098.93</ele>
        <time>2019-09-03T08:52:23Z</time>
      </trkpt>
      <trkpt lat="45.8507395" lon="6.7702378">
        <ele>2101.61</ele>
        <time>2019-09-03T08:52:39Z</time>
      </trkpt>
      <trkpt lat="45.8506901" lon="6.7701288">
        <ele>2102.91</ele>
        <time>2019-09-03T08:52:49Z</time>
      </trkpt>
      <trkpt lat="45.8506033" lon="6.7700623">
        <ele>2105.15</ele>
        <time>2019-09-03T08:53:05Z</time>
      </trkpt>
      <trkpt lat="45.8505121" lon="6.7700048">
        <ele>2107.85</ele>
        <time>2019-09-03T08:53:21Z</time>
      </trkpt>
      <trkpt lat="45.8504227" lon="6.7699788">
        <ele>2109.91</ele>
        <time>2019-09-03T08:53:35Z</time>
      </trkpt>
      <trkpt lat="45.8503277" lon="6.7700278">
        <ele>2117.00</ele>
        <time>2019-09-03T09:08:55Z</time>
      </trkpt>
      <trkpt lat="45.8502366" lon="6.7701102">
        <ele>2115.72</ele>
        <time>2019-09-03T09:09:07Z</time>
      </trkpt>
      <trkpt lat="45.8501815" lon="6.7702338">
        <ele>2113.06</ele>
        <time>2019-09-03T09:09:17Z</time>
      </trkpt>
      <trkpt lat="45.8501350" lon="6.7701110">
        <ele>2109.34</ele>
        <time>2019-09-03T09:09:37Z</time>
      </trkpt>
      <trkpt lat="45.8500630" lon="6.7701912">
        <ele>2106.33</ele>
        <time>2019-09-03T09:09:51Z</time>
      </trkpt>
      <trkpt lat="45.8499874" lon="6.7700954">
        <ele>2101.96</ele>
        <time>2019-09-03T09:10:17Z</time>
      </trkpt>
      <trkpt lat="45.8499596" lon="6.7699658">
        <ele>2097.37</ele>
        <time>2019-09-03T09:10:29Z</time>
      </trkpt>
      <trkpt lat="45.8500027" lon="6.7698479">
        <ele>2090.49</ele>
        <time>2019-09-03T09:10:41Z</time>
      </trkpt>
      <trkpt lat="45.8500763" lon="6.7697691">
        <ele>2088.70</ele>
        <time>2019-09-03T09:10:53Z</time>
      </trkpt>
      <trkpt lat="45.8501041" lon="6.7696293">
        <ele>2087.33</ele>
        <time>2019-09-03T09:11:01Z</time>
      </trkpt>
      <trkpt lat="45.8501098" lon="6.7694843">
        <ele>2088.85</ele>
        <time>2019-09-03T09:11:11Z</time>
      </trkpt>
      <trkpt lat="45.8500159" lon="6.7695223">
        <ele>2087.06</ele>
        <time>2019-09-03T09:11:23Z</time>
      </trkpt>
      <trkpt lat="45.8499330" lon="6.7695986">
        <ele>2084.34</ele>
        <time>2019-09-03T09:11:35Z</time>
      </trkpt>
      <trkpt lat="45.8498412" lon="6.7696108">
        <ele>2082.94</ele>
        <time>2019-09-03T09:11:49Z</time>
      </trkpt>
      <trkpt lat="45.8497611" lon="6.7696848">
        <ele>2081.95</ele>
        <time>2019-09-03T09:12:03Z</time>
      </trkpt>
      <trkpt lat="45.8497073" lon="6.7695782">
        <ele>2079.95</ele>
        <time>2019-09-03T09:12:17Z</time>
      </trkpt>
      <trkpt lat="45.8496673" lon="6.7694495">
        <ele>2075.04</ele>
        <time>2019-09-03T09:12:35Z</time>
      </trkpt>
      <trkpt lat="45.8496238" lon="6.7693333">
        <ele>2073.95</ele>
        <time>2019-09-03T09:12:45Z</time>
      </trkpt>
      <trkpt lat="45.8495593" lon="6.7694294">
        <ele>2071.27</ele>
        <time>2019-09-03T09:12:57Z</time>
      </trkpt>
      <trkpt lat="45.8494749" lon="6.7695187">
        <ele>2067.25</ele>
        <time>2019-09-03T09:13:13Z</time>
      </trkpt>
      <trkpt lat="45.8494279" lon="6.7694009">
        <ele>2064.04</ele>
        <time>2019-09-03T09:13:27Z</time>
      </trkpt>
      <trkpt lat="45.8493904" lon="6.7692746">
        <ele>2059.85</ele>
        <time>2019-09-03T09:13:41Z</time>
      </trkpt>
      <trkpt lat="45.8493012" lon="6.7692549">
        <ele>2058.27</ele>
        <time>2019-09-03T09:13:55Z</time>
      </trkpt>
      <trkpt lat="45.8493030" lon="6.7691245">
        <ele>2056.03</ele>
        <time>2019-09-03T09:14:09Z</time>
      </trkpt>
      <trkpt lat="45.8491957" lon="6.7691335">
        <ele>2051.43</ele>
        <time>2019-09-03T09:14:25Z</time>
      </trkpt>
      <trkpt lat="45.8491472" lon="6.7692451">
        <ele>2029.06</ele>
        <time>2019-09-03T09:15:01Z</time>
      </trkpt>
      <trkpt lat="45.8490631" lon="6.7691919">
        <ele>2024.97</ele>
        <time>2019-09-03T09:15:23Z</time>
      </trkpt>
      <trkpt lat="45.8490561" lon="6.7690624">
        <ele>2024.01</ele>
        <time>2019-09-03T09:15:35Z</time>
      </trkpt>
      <trkpt lat="45.8489588" lon="6.7690697">
        <ele>2018.27</ele>
        <time>2019-09-03T09:16:05Z</time>
      </trkpt>
      <trkpt lat="45.8489113" lon="6.7691936">
        <ele>2016.97</ele>
        <time>2019-09-03T09:16:15Z</time>
      </trkpt>
      <trkpt lat="45.8488770" lon="6.7690736">
        <ele>2009.46</ele>
        <time>2019-09-03T09:16:29Z</time>
      </trkpt>
      <trkpt lat="45.8488724" lon="6.7689291">
        <ele>2004.36</ele>
        <time>2019-09-03T09:16:41Z</time>
      </trkpt>
      <trkpt lat="45.8487811" lon="6.7689114">
        <ele>2001.97</ele>
        <time>2019-09-03T09:17:09Z</time>
      </trkpt>
      <trkpt lat="45.8487620" lon="6.7687669">
        <ele>2000.97</ele>
        <time>2019-09-03T09:17:21Z</time>
      </trkpt>
      <trkpt lat="45.8487935" lon="6.7686201">
        <ele>1998.25</ele>
        <time>2019-09-03T09:17:33Z</time>
      </trkpt>
      <trkpt lat="45.8487412" lon="6.7685123">
        <ele>1997.24</ele>
        <time>2019-09-03T09:17:45Z</time>
      </trkpt>
      <trkpt lat="45.8487070" lon="6.7683907">
        <ele>1995.97</ele>
        <time>2019-09-03T09:17:59Z</time>
      </trkpt>
      <trkpt lat="45.8486507" lon="6.7682720">
        <ele>1992.33</ele>
        <time>2019-09-03T09:18:17Z</time>
      </trkpt>
      <trkpt lat="45.8485963" lon="6.7681297">
        <ele>1986.34</ele>
        <time>2019-09-03T09:18:33Z</time>
      </trkpt>
      <trkpt lat="45.8485368" lon="6.7680151">
        <ele>1985.25</ele>
        <time>2019-09-03T09:18:41Z</time>
      </trkpt>
      <trkpt lat="45.8484600" lon="6.7679248">
        <ele>1983.76</ele>
        <time>2019-09-03T09:18:51Z</time>
      </trkpt>
      <trkpt lat="45.8484805" lon="6.7677897">
        <ele>1980.27</ele>
        <time>2019-09-03T09:19:05Z</time>
      </trkpt>
      <trkpt lat="45.8484255" lon="6.7676808">
        <ele>1974.03</ele>
        <time>2019-09-03T09:19:33Z</time>
      </trkpt>
      <trkpt lat="45.8483672" lon="6.7675604">
        <ele>1971.28</ele>
        <time>2019-09-03T09:19:45Z</time>
      </trkpt>
      <trkpt lat="45.8482893" lon="6.7676672">
        <ele>1967.04</ele>
        <time>2019-09-03T09:20:03Z</time>
      </trkpt>
      <trkpt lat="45.8482045" lon="6.7677169">
        <ele>1965.04</ele>
        <time>2019-09-03T09:20:15Z</time>
      </trkpt>
      <trkpt lat="45.8481671" lon="6.7678473">
        <ele>1963.03</ele>
        <time>2019-09-03T09:20:27Z</time>
      </trkpt>
      <trkpt lat="45.8481553" lon="6.7679778">
        <ele>1958.07</ele>
        <time>2019-09-03T09:20:41Z</time>
      </trkpt>
      <trkpt lat="45.8480829" lon="6.7680897">
        <ele>1955.06</ele>
        <time>2019-09-03T09:20:51Z</time>
      </trkpt>
      <trkpt lat="45.8479965" lon="6.7681443">
        <ele>1953.27</ele>
        <time>2019-09-03T09:21:01Z</time>
      </trkpt>
      <trkpt lat="45.8478999" lon="6.7681954">
        <ele>1951.97</ele>
        <time>2019-09-03T09:21:13Z</time>
      </trkpt>
      <trkpt lat="45.8478177" lon="6.7682591">
        <ele>1949.07</ele>
        <time>2019-09-03T09:21:23Z</time>
      </trkpt>
      <trkpt lat="45.8477435" lon="6.7683703">
        <ele>1945.27</ele>
        <time>2019-09-03T09:21:35Z</time>
      </trkpt>
      <trkpt lat="45.8476458" lon="6.7683977">
        <ele>1936.67</ele>
        <time>2019-09-03T09:21:49Z</time>
      </trkpt>
      <trkpt lat="45.8476958" lon="6.7682879">
        <ele>1926.01</ele>
        <time>2019-09-03T09:22:09Z</time>
      </trkpt>
      <trkpt lat="45.8476839" lon="6.7681588">
        <ele>1921.04</ele>
        <time>2019-09-03T09:22:25Z</time>
      </trkpt>
      <trkpt lat="45.8476580" lon="6.7680270">
        <ele>1920.18</ele>
        <time>2019-09-03T09:22:39Z</time>
      </trkpt>
      <trkpt lat="45.8476559" lon="6.7678940">
        <ele>1916.95</ele>
        <time>2019-09-03T09:22:53Z</time>
      </trkpt>
      <trkpt lat="45.8476303" lon="6.7677495">
        <ele>1915.03</ele>
        <time>2019-09-03T09:23:09Z</time>
      </trkpt>
      <trkpt lat="45.8475952" lon="6.7676266">
        <ele>1914.01</ele>
        <time>2019-09-03T09:23:21Z</time>
      </trkpt>
      <trkpt lat="45.8475399" lon="6.7675221">
        <ele>1911.95</ele>
        <time>2019-09-03T09:23:37Z</time>
      </trkpt>
      <trkpt lat="45.8475199" lon="6.7673958">
        <ele>1908.74</ele>
        <time>2019-09-03T09:23:53Z</time>
      </trkpt>
      <trkpt lat="45.8474688" lon="6.7672662">
        <ele>1906.24</ele>
        <time>2019-09-03T09:24:07Z</time>
      </trkpt>
      <trkpt lat="45.8473841" lon="6.7673578">
        <ele>1903.94</ele>
        <time>2019-09-03T09:24:27Z</time>
      </trkpt>
      <trkpt lat="45.8473190" lon="6.7674493">
        <ele>1901.25</ele>
        <time>2019-09-03T09:24:39Z</time>
      </trkpt>
      <trkpt lat="45.8472352" lon="6.7675250">
        <ele>1898.28</ele>
        <time>2019-09-03T09:24:49Z</time>
      </trkpt>
      <trkpt lat="45.8471474" lon="6.7675843">
        <ele>1892.29</ele>
        <time>2019-09-03T09:25:03Z</time>
      </trkpt>
      <trkpt lat="45.8471681" lon="6.7674412">
        <ele>1882.20</ele>
        <time>2019-09-03T09:25:19Z</time>
      </trkpt>
      <trkpt lat="45.8471402" lon="6.7673107">
        <ele>1878.06</ele>
        <time>2019-09-03T09:25:35Z</time>
      </trkpt>
      <trkpt lat="45.8470889" lon="6.7671925">
        <ele>1869.25</ele>
        <time>2019-09-03T09:26:01Z</time>
      </trkpt>
      <trkpt lat="45.8470460" lon="6.7670698">
        <ele>1867.95</ele>
        <time>2019-09-03T09:26:15Z</time>
      </trkpt>
      <trkpt lat="45.8469883" lon="6.7669588">
        <ele>1864.03</ele>
        <time>2019-09-03T09:26:31Z</time>
      </trkpt>
      <trkpt lat="45.8469467" lon="6.7668399">
        <ele>1863.03</ele>
        <time>2019-09-03T09:26:45Z</time>
      </trkpt>
      <trkpt lat="45.8469006" lon="6.7669560">
        <ele>1856.74</ele>
        <time>2019-09-03T09:27:15Z</time>
      </trkpt>
      <trkpt lat="45.8468534" lon="6.7670663">
        <ele>1853.97</ele>
        <time>2019-09-03T09:27:27Z</time>
      </trkpt>
      <trkpt lat="45.8467552" lon="6.7670935">
        <ele>1851.97</ele>
        <time>2019-09-03T09:27:41Z</time>
      </trkpt>
      <trkpt lat="45.8466562" lon="6.7671001">
        <ele>1848.95</ele>
        <time>2019-09-03T09:27:59Z</time>
      </trkpt>
      <trkpt lat="45.8465591" lon="6.7671121">
        <ele>1843.88</ele>
        <time>2019-09-03T09:28:13Z</time>
      </trkpt>
      <trkpt lat="45.8465263" lon="6.7669839">
        <ele>1837.89</ele>
        <time>2019-09-03T09:28:35Z</time>
      </trkpt>
      <trkpt lat="45.8464645" lon="6.7668708">
        <ele>1836.03</ele>
        <time>2019-09-03T09:28:53Z</time>
      </trkpt>
      <trkpt lat="45.8463740" lon="6.7668822">
        <ele>1831.39</ele>
        <time>2019-09-03T09:29:09Z</time>
      </trkpt>
      <trkpt lat="45.8462737" lon="6.7669337">
        <ele>1827.83</ele>
        <time>2019-09-03T09:29:23Z</time>
      </trkpt>
      <trkpt lat="45.8461783" lon="6.7669458">
        <ele>1823.14</ele>
        <time>2019-09-03T09:29:39Z</time>
      </trkpt>
      <trkpt lat="45.8461406" lon="6.7668118">
        <ele>1812.87</ele>
        <time>2019-09-03T09:30:05Z</time>
      </trkpt>
      <trkpt lat="45.8461530" lon="6.7666773">
        <ele>1807.99</ele>
        <time>2019-09-03T09:30:17Z</time>
      </trkpt>
      <trkpt lat="45.8461129" lon="6.7665581">
        <ele>1805.66</ele>
        <time>2019-09-03T09:30:31Z</time>
      </trkpt>
      <trkpt lat="45.8460194" lon="6.7665450">
        <ele>1800.95</ele>
        <time>2019-09-03T09:30:55Z</time>
      </trkpt>
      <trkpt lat="45.8459862" lon="6.7664243">
        <ele>1800.73</ele>
        <time>2019-09-03T09:31:09Z</time>
      </trkpt>
      <trkpt lat="45.8458938" lon="6.7663761">
        <ele>1797.97</ele>
        <time>2019-09-03T09:31:25Z</time>
      </trkpt>
      <trkpt lat="45.8457979" lon="6.7663594">
        <ele>1798.01</ele>
        <time>2019-09-03T09:31:39Z</time>
      </trkpt>
      <trkpt lat="45.8457154" lon="6.7662692">
        <ele>1796.03</ele>
        <time>2019-09-03T09:31:55Z</time>
      </trkpt>
      <trkpt lat="45.8456459" lon="6.7661795">
        <ele>1790.08</ele>
        <time>2019-09-03T09:32:13Z</time>
      </trkpt>
      <trkpt lat="45.8455579" lon="6.7661227">
        <ele>1786.24</ele>
        <time>2019-09-03T09:32:33Z</time>
      </trkpt>
      <trkpt lat="45.8454625" lon="6.7661111">
        <ele>1783.94</ele>
        <time>2019-09-03T09:32:49Z</time>
      </trkpt>
      <trkpt lat="45.8453935" lon="6.7660213">
        <ele>1780.34</ele>
        <time>2019-09-03T09:33:03Z</time>
      </trkpt>
      <trkpt lat="45.8453031" lon="6.7659408">
        <ele>1779.24</ele>
        <time>2019-09-03T09:33:17Z</time>
      </trkpt>
      <trkpt lat="45.8452346" lon="6.7658538">
        <ele>1775.27</ele>
        <time>2019-09-03T09:33:41Z</time>
      </trkpt>
      <trkpt lat="45.8451568" lon="6.7657697">
        <ele>1771.25</ele>
        <time>2019-09-03T09:34:05Z</time>
      </trkpt>
      <trkpt lat="45.8451110" lon="6.7656580">
        <ele>1769.25</ele>
        <time>2019-09-03T09:34:21Z</time>
      </trkpt>
      <trkpt lat="45.8450304" lon="6.7655957">
        <ele>1765.27</ele>
        <time>2019-09-03T09:34:41Z</time>
      </trkpt>
      <trkpt lat="45.8450012" lon="6.7654524">
        <ele>1762.24</ele>
        <time>2019-09-03T09:34:55Z</time>
      </trkpt>
      <trkpt lat="45.8449569" lon="6.7653300">
        <ele>1751.09</ele>
        <time>2019-09-03T09:35:17Z</time>
      </trkpt>
      <trkpt lat="45.8449066" lon="6.7652041">
        <ele>1745.54</ele>
        <time>2019-09-03T09:35:31Z</time>
      </trkpt>
      <trkpt lat="45.8448571" lon="6.7650822">
        <ele>1737.13</ele>
        <time>2019-09-03T09:35:47Z</time>
      </trkpt>
      <trkpt lat="45.8447689" lon="6.7650142">
        <ele>1736.97</ele>
        <time>2019-09-03T09:35:59Z</time>
      </trkpt>
      <trkpt lat="45.8446800" lon="6.7649539">
        <ele>1737.00</ele>
        <time>2019-09-03T09:36:15Z</time>
      </trkpt>
      <trkpt lat="45.8445911" lon="6.7648851">
        <ele>1733.98</ele>
        <time>2019-09-03T09:36:33Z</time>
      </trkpt>
      <trkpt lat="45.8444931" lon="6.7648323">
        <ele>1731.97</ele>
        <time>2019-09-03T09:36:45Z</time>
      </trkpt>
      <trkpt lat="45.8444027" lon="6.7647828">
        <ele>1727.98</ele>
        <time>2019-09-03T09:37:01Z</time>
      </trkpt>
      <trkpt lat="45.8443155" lon="6.7647318">
        <ele>1724.97</ele>
        <time>2019-09-03T09:37:15Z</time>
      </trkpt>
      <trkpt lat="45.8442306" lon="6.7646890">
        <ele>1714.10</ele>
        <time>2019-09-03T09:37:35Z</time>
      </trkpt>
      <trkpt lat="45.8441499" lon="6.7646180">
        <ele>1710.26</ele>
        <time>2019-09-03T09:37:55Z</time>
      </trkpt>
      <trkpt lat="45.8440560" lon="6.7645596">
        <ele>1706.36</ele>
        <time>2019-09-03T09:38:07Z</time>
      </trkpt>
      <trkpt lat="45.8439694" lon="6.7646080">
        <ele>1697.71</ele>
        <time>2019-09-03T09:38:27Z</time>
      </trkpt>
      <trkpt lat="45.8439683" lon="6.7647395">
        <ele>1693.99</ele>
        <time>2019-09-03T09:38:41Z</time>
      </trkpt>
      <trkpt lat="45.8438707" lon="6.7647216">
        <ele>1693.97</ele>
        <time>2019-09-03T09:38:53Z</time>
      </trkpt>
      <trkpt lat="45.8437772" lon="6.7647463">
        <ele>1686.19</ele>
        <time>2019-09-03T09:39:23Z</time>
      </trkpt>
      <trkpt lat="45.8437369" lon="6.7646198">
        <ele>1683.95</ele>
        <time>2019-09-03T09:39:37Z</time>
      </trkpt>
      <trkpt lat="45.8436552" lon="6.7645213">
        <ele>1681.05</ele>
        <time>2019-09-03T09:39:53Z</time>
      </trkpt>
      <trkpt lat="45.8435926" lon="6.7644254">
        <ele>1676.28</ele>
        <time>2019-09-03T09:40:07Z</time>
      </trkpt>
      <trkpt lat="45.8435086" lon="6.7643665">
        <ele>1675.91</ele>
        <time>2019-09-03T09:40:17Z</time>
      </trkpt>
      <trkpt lat="45.8434080" lon="6.7643474">
        <ele>1674.24</ele>
        <time>2019-09-03T09:40:29Z</time>
      </trkpt>
      <trkpt lat="45.8433162" lon="6.7643010">
        <ele>1671.98</ele>
        <time>2019-09-03T09:40:41Z</time>
      </trkpt>
      <trkpt lat="45.8432606" lon="6.7641722">
        <ele>1669.95</ele>
        <time>2019-09-03T09:40:55Z</time>
      </trkpt>
      <trkpt lat="45.8431940" lon="6.7640826">
        <ele>1667.04</ele>
        <time>2019-09-03T09:41:05Z</time>
      </trkpt>
      <trkpt lat="45.8431101" lon="6.7640158">
        <ele>1664.04</ele>
        <time>2019-09-03T09:41:17Z</time>
      </trkpt>
      <trkpt lat="45.8430070" lon="6.7639784">
        <ele>1661.95</ele>
        <time>2019-09-03T09:41:31Z</time>
      </trkpt>
      <trkpt lat="45.8429480" lon="6.7638795">
        <ele>1659.97</ele>
        <time>2019-09-03T09:41:45Z</time>
      </trkpt>
      <trkpt lat="45.8428582" lon="6.7637955">
        <ele>1657.03</ele>
        <time>2019-09-03T09:41:59Z</time>
      </trkpt>
      <trkpt lat="45.8427580" lon="6.7637583">
        <ele>1654.06</ele>
        <time>2019-09-03T09:42:15Z</time>
      </trkpt>
      <trkpt lat="45.8426723" lon="6.7637029">
        <ele>1653.03</ele>
        <time>2019-09-03T09:42:27Z</time>
      </trkpt>
      <trkpt lat="45.8425986" lon="6.7635997">
        <ele>1650.98</ele>
        <time>2019-09-03T09:42:41Z</time>
      </trkpt>
      <trkpt lat="45.8425047" lon="6.7635748">
        <ele>1648.97</ele>
        <time>2019-09-03T09:42:53Z</time>
      </trkpt>
      <trkpt lat="45.8424149" lon="6.7635078">
        <ele>1648.03</ele>
        <time>2019-09-03T09:43:03Z</time>
      </trkpt>
      <trkpt lat="45.8423268" lon="6.7634209">
        <ele>1645.04</ele>
        <time>2019-09-03T09:43:15Z</time>
      </trkpt>
      <trkpt lat="45.8422410" lon="6.7633582">
        <ele>1643.24</ele>
        <time>2019-09-03T09:43:25Z</time>
      </trkpt>
      <trkpt lat="45.8421672" lon="6.7632741">
        <ele>1640.98</ele>
        <time>2019-09-03T09:43:37Z</time>
      </trkpt>
      <trkpt lat="45.8421008" lon="6.7631766">
        <ele>1638.03</ele>
        <time>2019-09-03T09:43:51Z</time>
      </trkpt>
      <trkpt lat="45.8419970" lon="6.7631349">
        <ele>1636.03</ele>
        <time>2019-09-03T09:44:03Z</time>
      </trkpt>
      <trkpt lat="45.8419085" lon="6.7630947">
        <ele>1632.34</ele>
        <time>2019-09-03T09:44:15Z</time>
      </trkpt>
      <trkpt lat="45.8418247" lon="6.7630078">
        <ele>1629.03</ele>
        <time>2019-09-03T09:44:29Z</time>
      </trkpt>
      <trkpt lat="45.8417594" lon="6.7628932">
        <ele>1626.04</ele>
        <time>2019-09-03T09:44:43Z</time>
      </trkpt>
      <trkpt lat="45.8416666" lon="6.7628366">
        <ele>1623.06</ele>
        <time>2019-09-03T09:44:55Z</time>
      </trkpt>
      <trkpt lat="45.8416014" lon="6.7627283">
        <ele>1621.33</ele>
        <time>2019-09-03T09:45:05Z</time>
      </trkpt>
      <trkpt lat="45.8415349" lon="6.7626267">
        <ele>1620.03</ele>
        <time>2019-09-03T09:45:15Z</time>
      </trkpt>
      <trkpt lat="45.8414605" lon="6.7625531">
        <ele>1618.03</ele>
        <time>2019-09-03T09:45:27Z</time>
      </trkpt>
      <trkpt lat="45.8413959" lon="6.7624329">
        <ele>1614.06</ele>
        <time>2019-09-03T09:45:39Z</time>
      </trkpt>
      <trkpt lat="45.8413442" lon="6.7623111">
        <ele>1611.28</ele>
        <time>2019-09-03T09:45:49Z</time>
      </trkpt>
      <trkpt lat="45.8412725" lon="6.7621980">
        <ele>1609.25</ele>
        <time>2019-09-03T09:45:59Z</time>
      </trkpt>
      <trkpt lat="45.8412082" lon="6.7620830">
        <ele>1607.97</ele>
        <time>2019-09-03T09:46:09Z</time>
      </trkpt>
      <trkpt lat="45.8412098" lon="6.7619397">
        <ele>1606.97</ele>
        <time>2019-09-03T09:46:19Z</time>
      </trkpt>
      <trkpt lat="45.8412013" lon="6.7617934">
        <ele>1603.07</ele>
        <time>2019-09-03T09:46:31Z</time>
      </trkpt>
      <trkpt lat="45.8411497" lon="6.7616727">
        <ele>1600.25</ele>
        <time>2019-09-03T09:46:41Z</time>
      </trkpt>
      <trkpt lat="45.8411058" lon="6.7615565">
        <ele>1595.45</ele>
        <time>2019-09-03T09:46:51Z</time>
      </trkpt>
      <trkpt lat="45.8410836" lon="6.7614070">
        <ele>1593.04</ele>
        <time>2019-09-03T09:47:01Z</time>
      </trkpt>
      <trkpt lat="45.8410722" lon="6.7612691">
        <ele>1590.97</ele>
        <time>2019-09-03T09:47:11Z</time>
      </trkpt>
      <trkpt lat="45.8410434" lon="6.7611467">
        <ele>1590.03</ele>
        <time>2019-09-03T09:47:21Z</time>
      </trkpt>
      <trkpt lat="45.8410193" lon="6.7610186">
        <ele>1588.97</ele>
        <time>2019-09-03T09:47:31Z</time>
      </trkpt>
      <trkpt lat="45.8409861" lon="6.7608723">
        <ele>1586.97</ele>
        <time>2019-09-03T09:47:43Z</time>
      </trkpt>
      <trkpt lat="45.8409466" lon="6.7607371">
        <ele>1584.97</ele>
        <time>2019-09-03T09:47:53Z</time>
      </trkpt>
      <trkpt lat="45.8409028" lon="6.7606058">
        <ele>1582.97</ele>
        <time>2019-09-03T09:48:03Z</time>
      </trkpt>
      <trkpt lat="45.8408629" lon="6.7604792">
        <ele>1582.03</ele>
        <time>2019-09-03T09:48:13Z</time>
      </trkpt>
      <trkpt lat="45.8408265" lon="6.7603419">
        <ele>1580.97</ele>
        <time>2019-09-03T09:48:23Z</time>
      </trkpt>
      <trkpt lat="45.8407972" lon="6.7602011">
        <ele>1579.04</ele>
        <time>2019-09-03T09:48:31Z</time>
      </trkpt>
      <trkpt lat="45.8407380" lon="6.7600743">
        <ele>1577.03</ele>
        <time>2019-09-03T09:48:41Z</time>
      </trkpt>
      <trkpt lat="45.8406412" lon="6.7600802">
        <ele>1576.24</ele>
        <time>2019-09-03T09:48:51Z</time>
      </trkpt>
      <trkpt lat="45.8405504" lon="6.7600638">
        <ele>1575.94</ele>
        <time>2019-09-03T09:48:59Z</time>
      </trkpt>
      <trkpt lat="45.8404522" lon="6.7600775">
        <ele>1575.03</ele>
        <time>2019-09-03T09:49:09Z</time>
      </trkpt>
      <trkpt lat="45.8403478" lon="6.7600909">
        <ele>1573.95</ele>
        <time>2019-09-03T09:49:21Z</time>
      </trkpt>
      <trkpt lat="45.8402536" lon="6.7600846">
        <ele>1572.25</ele>
        <time>2019-09-03T09:49:29Z</time>
      </trkpt>
      <trkpt lat="45.8401455" lon="6.7600927">
        <ele>1571.03</ele>
        <time>2019-09-03T09:49:39Z</time>
      </trkpt>
      <trkpt lat="45.8400519" lon="6.7601083">
        <ele>1569.97</ele>
        <time>2019-09-03T09:49:47Z</time>
      </trkpt>
      <trkpt lat="45.8399574" lon="6.7601336">
        <ele>1569.03</ele>
        <time>2019-09-03T09:49:55Z</time>
      </trkpt>
      <trkpt lat="45.8398673" lon="6.7601616">
        <ele>1567.97</ele>
        <time>2019-09-03T09:50:03Z</time>
      </trkpt>
      <trkpt lat="45.8397725" lon="6.7602334">
        <ele>1567.73</ele>
        <time>2019-09-03T09:50:13Z</time>
      </trkpt>
      <trkpt lat="45.8396853" lon="6.7602787">
        <ele>1566.25</ele>
        <time>2019-09-03T09:50:21Z</time>
      </trkpt>
      <trkpt lat="45.8395931" lon="6.7602666">
        <ele>1565.94</ele>
        <time>2019-09-03T09:50:29Z</time>
      </trkpt>
      <trkpt lat="45.8395156" lon="6.7601998">
        <ele>1564.25</ele>
        <time>2019-09-03T09:50:37Z</time>
      </trkpt>
      <trkpt lat="45.8394225" lon="6.7601794">
        <ele>1563.96</ele>
        <time>2019-09-03T09:50:45Z</time>
      </trkpt>
      <trkpt lat="45.8393107" lon="6.7601986">
        <ele>1562.24</ele>
        <time>2019-09-03T09:50:55Z</time>
      </trkpt>
      <trkpt lat="45.8392154" lon="6.7602712">
        <ele>1561.24</ele>
        <time>2019-09-03T09:51:05Z</time>
      </trkpt>
      <trkpt lat="45.8391222" lon="6.7603079">
        <ele>1561.67</ele>
        <time>2019-09-03T09:52:57Z</time>
      </trkpt>
      <trkpt lat="45.8390417" lon="6.7603866">
        <ele>1562.03</ele>
        <time>2019-09-03T09:55:25Z</time>
      </trkpt>
      <trkpt lat="45.8389537" lon="6.7604176">
        <ele>1560.27</ele>
        <time>2019-09-03T09:55:33Z</time>
      </trkpt>
      <trkpt lat="45.8388580" lon="6.7603577">
        <ele>1558.97</ele>
        <time>2019-09-03T09:55:43Z</time>
      </trkpt>
      <trkpt lat="45.8387852" lon="6.7602718">
        <ele>1557.95</ele>
        <time>2019-09-03T09:55:53Z</time>
      </trkpt>
      <trkpt lat="45.8387016" lon="6.7602020">
        <ele>1557.73</ele>
        <time>2019-09-03T09:56:01Z</time>
      </trkpt>
      <trkpt lat="45.8386226" lon="6.7601299">
        <ele>1556.97</ele>
        <time>2019-09-03T09:56:09Z</time>
      </trkpt>
      <trkpt lat="45.8385449" lon="6.7600204">
        <ele>1556.24</ele>
        <time>2019-09-03T09:56:19Z</time>
      </trkpt>
      <trkpt lat="45.8384545" lon="6.7599255">
        <ele>1555.24</ele>
        <time>2019-09-03T09:56:29Z</time>
      </trkpt>
      <trkpt lat="45.8383631" lon="6.7598610">
        <ele>1552.98</ele>
        <time>2019-09-03T09:56:39Z</time>
      </trkpt>
      <trkpt lat="45.8382780" lon="6.7598039">
        <ele>1552.24</ele>
        <time>2019-09-03T09:56:47Z</time>
      </trkpt>
      <trkpt lat="45.8381834" lon="6.7597503">
        <ele>1551.94</ele>
        <time>2019-09-03T09:56:55Z</time>
      </trkpt>
      <trkpt lat="45.8381180" lon="6.7596503">
        <ele>1551.03</ele>
        <time>2019-09-03T09:57:05Z</time>
      </trkpt>
      <trkpt lat="45.8381411" lon="6.7595016">
        <ele>1549.95</ele>
        <time>2019-09-03T09:57:15Z</time>
      </trkpt>
      <trkpt lat="45.8381675" lon="6.7593514">
        <ele>1549.03</ele>
        <time>2019-09-03T09:57:25Z</time>
      </trkpt>
      <trkpt lat="45.8381525" lon="6.7591829">
        <ele>1547.97</ele>
        <time>2019-09-03T09:57:35Z</time>
      </trkpt>
      <trkpt lat="45.8381540" lon="6.7590253">
        <ele>1547.03</ele>
        <time>2019-09-03T09:57:43Z</time>
      </trkpt>
      <trkpt lat="45.8381885" lon="6.7588741">
        <ele>1548.62</ele>
        <time>2019-09-03T09:57:53Z</time>
      </trkpt>
      <trkpt lat="45.8381930" lon="6.7587312">
        <ele>1549.00</ele>
        <time>2019-09-03T09:58:03Z</time>
      </trkpt>
      <trkpt lat="45.8382422" lon="6.7586078">
        <ele>1548.94</ele>
        <time>2019-09-03T09:58:11Z</time>
      </trkpt>
      <trkpt lat="45.8383132" lon="6.7585003">
        <ele>1549.85</ele>
        <time>2019-09-03T09:58:19Z</time>
      </trkpt>
      <trkpt lat="45.8384001" lon="6.7584638">
        <ele>1550.00</ele>
        <time>2019-09-03T09:58:27Z</time>
      </trkpt>
      <trkpt lat="45.8384975" lon="6.7584187">
        <ele>1548.97</ele>
        <time>2019-09-03T09:58:35Z</time>
      </trkpt>
      <trkpt lat="45.8385853" lon="6.7583902">
        <ele>1550.63</ele>
        <time>2019-09-03T09:58:43Z</time>
      </trkpt>
      <trkpt lat="45.8386767" lon="6.7583170">
        <ele>1551.91</ele>
        <time>2019-09-03T09:58:51Z</time>
      </trkpt>
      <trkpt lat="45.8387586" lon="6.7582633">
        <ele>1551.94</ele>
        <time>2019-09-03T09:58:59Z</time>
      </trkpt>
      <trkpt lat="45.8388407" lon="6.7581790">
        <ele>1552.93</ele>
        <time>2019-09-03T09:59:07Z</time>
      </trkpt>
      <trkpt lat="45.8388709" lon="6.7580351">
        <ele>1552.03</ele>
        <time>2019-09-03T09:59:17Z</time>
      </trkpt>
      <trkpt lat="45.8388663" lon="6.7579054">
        <ele>1552.24</ele>
        <time>2019-09-03T09:59:29Z</time>
      </trkpt>
      <trkpt lat="45.8389120" lon="6.7577829">
        <ele>1551.95</ele>
        <time>2019-09-03T09:59:39Z</time>
      </trkpt>
      <trkpt lat="45.8389707" lon="6.7576818">
        <ele>1551.71</ele>
        <time>2019-09-03T09:59:47Z</time>
      </trkpt>
      <trkpt lat="45.8390387" lon="6.7575931">
        <ele>1551.96</ele>
        <time>2019-09-03T09:59:57Z</time>
      </trkpt>
      <trkpt lat="45.8391036" lon="6.7574836">
        <ele>1552.64</ele>
        <time>2019-09-03T10:00:11Z</time>
      </trkpt>
      <trkpt lat="45.8391787" lon="6.7573705">
        <ele>1553.93</ele>
        <time>2019-09-03T10:00:23Z</time>
      </trkpt>
      <trkpt lat="45.8391303" lon="6.7572579">
        <ele>1556.85</ele>
        <time>2019-09-03T10:00:49Z</time>
      </trkpt>
      <trkpt lat="45.8390336" lon="6.7572220">
        <ele>1558.93</ele>
        <time>2019-09-03T10:01:03Z</time>
      </trkpt>
      <trkpt lat="45.8389495" lon="6.7571691">
        <ele>1560.72</ele>
        <time>2019-09-03T10:01:17Z</time>
      </trkpt>
      <trkpt lat="45.8389607" lon="6.7570233">
        <ele>1565.63</ele>
        <time>2019-09-03T10:01:45Z</time>
      </trkpt>
      <trkpt lat="45.8390577" lon="6.7569760">
        <ele>1565.94</ele>
        <time>2019-09-03T10:01:59Z</time>
      </trkpt>
      <trkpt lat="45.8391248" lon="6.7568837">
        <ele>1568.64</ele>
        <time>2019-09-03T10:02:11Z</time>
      </trkpt>
      <trkpt lat="45.8392190" lon="6.7568339">
        <ele>1567.97</ele>
        <time>2019-09-03T10:02:25Z</time>
      </trkpt>
      <trkpt lat="45.8391333" lon="6.7567810">
        <ele>1569.91</ele>
        <time>2019-09-03T10:02:39Z</time>
      </trkpt>
      <trkpt lat="45.8390600" lon="6.7566924">
        <ele>1573.61</ele>
        <time>2019-09-03T10:02:53Z</time>
      </trkpt>
      <trkpt lat="45.8389705" lon="6.7566750">
        <ele>1575.93</ele>
        <time>2019-09-03T10:03:13Z</time>
      </trkpt>
      <trkpt lat="45.8390183" lon="6.7565649">
        <ele>1577.91</ele>
        <time>2019-09-03T10:03:27Z</time>
      </trkpt>
      <trkpt lat="45.8391171" lon="6.7565256">
        <ele>1578.92</ele>
        <time>2019-09-03T10:03:39Z</time>
      </trkpt>
      <trkpt lat="45.8391964" lon="6.7564561">
        <ele>1582.61</ele>
        <time>2019-09-03T10:03:53Z</time>
      </trkpt>
      <trkpt lat="45.8392947" lon="6.7564338">
        <ele>1584.91</ele>
        <time>2019-09-03T10:04:07Z</time>
      </trkpt>
      <trkpt lat="45.8393825" lon="6.7563498">
        <ele>1614.62</ele>
        <time>2019-09-03T10:04:21Z</time>
      </trkpt>
      <trkpt lat="45.8394756" lon="6.7563244">
        <ele>1593.12</ele>
        <time>2019-09-03T10:04:35Z</time>
      </trkpt>
      <trkpt lat="45.8395321" lon="6.7562231">
        <ele>1589.94</ele>
        <time>2019-09-03T10:04:53Z</time>
      </trkpt>
      <trkpt lat="45.8396175" lon="6.7561562">
        <ele>1592.91</ele>
        <time>2019-09-03T10:05:09Z</time>
      </trkpt>
      <trkpt lat="45.8396407" lon="6.7560289">
        <ele>1594.14</ele>
        <time>2019-09-03T10:05:27Z</time>
      </trkpt>
      <trkpt lat="45.8396648" lon="6.7558970">
        <ele>1597.82</ele>
        <time>2019-09-03T10:05:43Z</time>
      </trkpt>
      <trkpt lat="45.8395681" lon="6.7558730">
        <ele>1603.84</ele>
        <time>2019-09-03T10:06:11Z</time>
      </trkpt>
      <trkpt lat="45.8394764" lon="6.7559037">
        <ele>1607.84</ele>
        <time>2019-09-03T10:06:25Z</time>
      </trkpt>
      <trkpt lat="45.8393789" lon="6.7558998">
        <ele>1610.85</ele>
        <time>2019-09-03T10:06:43Z</time>
      </trkpt>
      <trkpt lat="45.8392939" lon="6.7558436">
        <ele>1611.94</ele>
        <time>2019-09-03T10:06:55Z</time>
      </trkpt>
      <trkpt lat="45.8392412" lon="6.7557363">
        <ele>1612.85</ele>
        <time>2019-09-03T10:07:07Z</time>
      </trkpt>
      <trkpt lat="45.8391328" lon="6.7557225">
        <ele>1614.55</ele>
        <time>2019-09-03T10:07:19Z</time>
      </trkpt>
      <trkpt lat="45.8390409" lon="6.7557039">
        <ele>1617.61</ele>
        <time>2019-09-03T10:07:29Z</time>
      </trkpt>
      <trkpt lat="45.8389391" lon="6.7556817">
        <ele>1618.85</ele>
        <time>2019-09-03T10:07:41Z</time>
      </trkpt>
      <trkpt lat="45.8388562" lon="6.7557411">
        <ele>1620.91</ele>
        <time>2019-09-03T10:07:55Z</time>
      </trkpt>
      <trkpt lat="45.8387560" lon="6.7557836">
        <ele>1621.94</ele>
        <time>2019-09-03T10:08:11Z</time>
      </trkpt>
      <trkpt lat="45.8386552" lon="6.7558043">
        <ele>1623.91</ele>
        <time>2019-09-03T10:08:25Z</time>
      </trkpt>
      <trkpt lat="45.8385754" lon="6.7557395">
        <ele>1625.84</ele>
        <time>2019-09-03T10:08:35Z</time>
      </trkpt>
      <trkpt lat="45.8384700" lon="6.7557204">
        <ele>1625.92</ele>
        <time>2019-09-03T10:08:47Z</time>
      </trkpt>
      <trkpt lat="45.8383727" lon="6.7556979">
        <ele>1625.94</ele>
        <time>2019-09-03T10:08:59Z</time>
      </trkpt>
      <trkpt lat="45.8382816" lon="6.7556708">
        <ele>1627.64</ele>
        <time>2019-09-03T10:09:09Z</time>
      </trkpt>
      <trkpt lat="45.8381810" lon="6.7556341">
        <ele>1628.91</ele>
        <time>2019-09-03T10:09:23Z</time>
      </trkpt>
      <trkpt lat="45.8380921" lon="6.7555984">
        <ele>1628.94</ele>
        <time>2019-09-03T10:09:35Z</time>
      </trkpt>
      <trkpt lat="45.8379940" lon="6.7555959">
        <ele>1633.63</ele>
        <time>2019-09-03T10:09:59Z</time>
      </trkpt>
      <trkpt lat="45.8378986" lon="6.7555565">
        <ele>1635.91</ele>
        <time>2019-09-03T10:10:11Z</time>
      </trkpt>
      <trkpt lat="45.8378076" lon="6.7555288">
        <ele>1636.93</ele>
        <time>2019-09-03T10:10:23Z</time>
      </trkpt>
      <trkpt lat="45.8377129" lon="6.7555010">
        <ele>1638.85</ele>
        <time>2019-09-03T10:10:35Z</time>
      </trkpt>
      <trkpt lat="45.8376209" lon="6.7554597">
        <ele>1642.61</ele>
        <time>2019-09-03T10:10:51Z</time>
      </trkpt>
      <trkpt lat="45.8375331" lon="6.7553941">
        <ele>1643.92</ele>
        <time>2019-09-03T10:11:07Z</time>
      </trkpt>
      <trkpt lat="45.8374404" lon="6.7554214">
        <ele>1644.64</ele>
        <time>2019-09-03T10:11:23Z</time>
      </trkpt>
      <trkpt lat="45.8373530" lon="6.7554767">
        <ele>1648.82</ele>
        <time>2019-09-03T10:11:51Z</time>
      </trkpt>
      <trkpt lat="45.8372539" lon="6.7554734">
        <ele>1652.63</ele>
        <time>2019-09-03T10:12:07Z</time>
      </trkpt>
      <trkpt lat="45.8371836" lon="6.7555651">
        <ele>1656.59</ele>
        <time>2019-09-03T10:12:27Z</time>
      </trkpt>
      <trkpt lat="45.8370874" lon="6.7555663">
        <ele>1662.23</ele>
        <time>2019-09-03T10:12:55Z</time>
      </trkpt>
      <trkpt lat="45.8369929" lon="6.7555785">
        <ele>1665.85</ele>
        <time>2019-09-03T10:13:11Z</time>
      </trkpt>
      <trkpt lat="45.8369073" lon="6.7555257">
        <ele>1668.92</ele>
        <time>2019-09-03T10:13:29Z</time>
      </trkpt>
      <trkpt lat="45.8368140" lon="6.7555383">
        <ele>1670.81</ele>
        <time>2019-09-03T10:13:53Z</time>
      </trkpt>
      <trkpt lat="45.8367368" lon="6.7554540">
        <ele>1676.61</ele>
        <time>2019-09-03T10:14:13Z</time>
      </trkpt>
      <trkpt lat="45.8369085" lon="6.7554595">
        <ele>1698.72</ele>
        <time>2019-09-03T10:14:29Z</time>
      </trkpt>
      <trkpt lat="45.8368167" lon="6.7554174">
        <ele>1703.94</ele>
        <time>2019-09-03T10:14:38Z</time>
      </trkpt>
      <trkpt lat="45.8367906" lon="6.7552918">
        <ele>1706.89</ele>
        <time>2019-09-03T10:15:16Z</time>
      </trkpt>
      <trkpt lat="45.8367213" lon="6.7551915">
        <ele>1709.77</ele>
        <time>2019-09-03T10:15:40Z</time>
      </trkpt>
      <trkpt lat="45.8366300" lon="6.7551711">
        <ele>1713.71</ele>
        <time>2019-09-03T10:16:10Z</time>
      </trkpt>
      <trkpt lat="45.8365437" lon="6.7552225">
        <ele>1718.76</ele>
        <time>2019-09-03T10:16:38Z</time>
      </trkpt>
      <trkpt lat="45.8364590" lon="6.7551747">
        <ele>1717.51</ele>
        <time>2019-09-03T10:16:54Z</time>
      </trkpt>
      <trkpt lat="45.8363574" lon="6.7551455">
        <ele>1721.03</ele>
        <time>2019-09-03T10:17:12Z</time>
      </trkpt>
      <trkpt lat="45.8363396" lon="6.7550164">
        <ele>1720.87</ele>
        <time>2019-09-03T10:17:34Z</time>
      </trkpt>
      <trkpt lat="45.8363460" lon="6.7548858">
        <ele>1722.15</ele>
        <time>2019-09-03T10:18:02Z</time>
      </trkpt>
      <trkpt lat="45.8362652" lon="6.7547992">
        <ele>1728.61</ele>
        <time>2019-09-03T10:18:32Z</time>
      </trkpt>
      <trkpt lat="45.8361887" lon="6.7547084">
        <ele>1727.93</ele>
        <time>2019-09-03T10:18:50Z</time>
      </trkpt>
      <trkpt lat="45.8361321" lon="6.7545977">
        <ele>1731.85</ele>
        <time>2019-09-03T10:19:06Z</time>
      </trkpt>
      <trkpt lat="45.8360464" lon="6.7545285">
        <ele>1730.25</ele>
        <time>2019-09-03T10:19:16Z</time>
      </trkpt>
      <trkpt lat="45.8360550" lon="6.7543867">
        <ele>1730.92</ele>
        <time>2019-09-03T10:19:24Z</time>
      </trkpt>
      <trkpt lat="45.8360737" lon="6.7542527">
        <ele>1729.95</ele>
        <time>2019-09-03T10:19:32Z</time>
      </trkpt>
      <trkpt lat="45.8360911" lon="6.7541212">
        <ele>1729.03</ele>
        <time>2019-09-03T10:19:40Z</time>
      </trkpt>
      <trkpt lat="45.8361266" lon="6.7540012">
        <ele>1728.88</ele>
        <time>2019-09-03T10:19:48Z</time>
      </trkpt>
      <trkpt lat="45.8361790" lon="6.7538939">
        <ele>1729.64</ele>
        <time>2019-09-03T10:19:56Z</time>
      </trkpt>
      <trkpt lat="45.8362225" lon="6.7537589">
        <ele>1730.64</ele>
        <time>2019-09-03T10:20:08Z</time>
      </trkpt>
      <trkpt lat="45.8362551" lon="6.7536378">
        <ele>1729.97</ele>
        <time>2019-09-03T10:20:16Z</time>
      </trkpt>
      <trkpt lat="45.8362956" lon="6.7534937">
        <ele>1729.16</ele>
        <time>2019-09-03T10:20:28Z</time>
      </trkpt>
      <trkpt lat="45.8363403" lon="6.7533527">
        <ele>1730.55</ele>
        <time>2019-09-03T10:20:38Z</time>
      </trkpt>
      <trkpt lat="45.8363517" lon="6.7532226">
        <ele>1731.91</ele>
        <time>2019-09-03T10:20:48Z</time>
      </trkpt>
      <trkpt lat="45.8363486" lon="6.7530840">
        <ele>1731.65</ele>
        <time>2019-09-03T10:20:58Z</time>
      </trkpt>
      <trkpt lat="45.8363938" lon="6.7529514">
        <ele>1731.24</ele>
        <time>2019-09-03T10:21:08Z</time>
      </trkpt>
      <trkpt lat="45.8364453" lon="6.7528096">
        <ele>1731.92</ele>
        <time>2019-09-03T10:21:18Z</time>
      </trkpt>
      <trkpt lat="45.8364691" lon="6.7526626">
        <ele>1731.94</ele>
        <time>2019-09-03T10:21:28Z</time>
      </trkpt>
      <trkpt lat="45.8364887" lon="6.7525358">
        <ele>1731.94</ele>
        <time>2019-09-03T10:21:36Z</time>
      </trkpt>
      <trkpt lat="45.8364486" lon="6.7524146">
        <ele>1732.01</ele>
        <time>2019-09-03T10:21:48Z</time>
      </trkpt>
      <trkpt lat="45.8363523" lon="6.7523875">
        <ele>1732.94</ele>
        <time>2019-09-03T10:21:58Z</time>
      </trkpt>
      <trkpt lat="45.8362586" lon="6.7523612">
        <ele>1733.93</ele>
        <time>2019-09-03T10:22:08Z</time>
      </trkpt>
      <trkpt lat="45.8361620" lon="6.7523226">
        <ele>1733.94</ele>
        <time>2019-09-03T10:22:18Z</time>
      </trkpt>
      <trkpt lat="45.8360648" lon="6.7522652">
        <ele>1734.17</ele>
        <time>2019-09-03T10:22:30Z</time>
      </trkpt>
      <trkpt lat="45.8359957" lon="6.7521687">
        <ele>1733.95</ele>
        <time>2019-09-03T10:22:42Z</time>
      </trkpt>
      <trkpt lat="45.8359182" lon="6.7520861">
        <ele>1738.62</ele>
        <time>2019-09-03T10:25:14Z</time>
      </trkpt>
      <trkpt lat="45.8358283" lon="6.7520104">
        <ele>1739.85</ele>
        <time>2019-09-03T10:25:22Z</time>
      </trkpt>
      <trkpt lat="45.8357495" lon="6.7519373">
        <ele>1740.72</ele>
        <time>2019-09-03T10:25:30Z</time>
      </trkpt>
      <trkpt lat="45.8356614" lon="6.7518536">
        <ele>1738.12</ele>
        <time>2019-09-03T10:25:40Z</time>
      </trkpt>
      <trkpt lat="45.8355949" lon="6.7517582">
        <ele>1735.98</ele>
        <time>2019-09-03T10:25:48Z</time>
      </trkpt>
      <trkpt lat="45.8355529" lon="6.7516227">
        <ele>1735.03</ele>
        <time>2019-09-03T10:26:02Z</time>
      </trkpt>
      <trkpt lat="45.8354949" lon="6.7514978">
        <ele>1734.94</ele>
        <time>2019-09-03T10:26:12Z</time>
      </trkpt>
      <trkpt lat="45.8354905" lon="6.7513408">
        <ele>1734.94</ele>
        <time>2019-09-03T10:26:22Z</time>
      </trkpt>
      <trkpt lat="45.8354849" lon="6.7511954">
        <ele>1734.01</ele>
        <time>2019-09-03T10:26:32Z</time>
      </trkpt>
      <trkpt lat="45.8354802" lon="6.7510407">
        <ele>1731.97</ele>
        <time>2019-09-03T10:26:42Z</time>
      </trkpt>
      <trkpt lat="45.8354959" lon="6.7508932">
        <ele>1730.03</ele>
        <time>2019-09-03T10:26:52Z</time>
      </trkpt>
      <trkpt lat="45.8354674" lon="6.7507406">
        <ele>1729.94</ele>
        <time>2019-09-03T10:27:02Z</time>
      </trkpt>
      <trkpt lat="45.8354800" lon="6.7505946">
        <ele>1729.03</ele>
        <time>2019-09-03T10:27:12Z</time>
      </trkpt>
      <trkpt lat="45.8355504" lon="6.7504857">
        <ele>1727.97</ele>
        <time>2019-09-03T10:27:22Z</time>
      </trkpt>
      <trkpt lat="45.8356348" lon="6.7503817">
        <ele>1726.97</ele>
        <time>2019-09-03T10:27:32Z</time>
      </trkpt>
      <trkpt lat="45.8357097" lon="6.7502815">
        <ele>1726.24</ele>
        <time>2019-09-03T10:27:42Z</time>
      </trkpt>
      <trkpt lat="45.8357784" lon="6.7501908">
        <ele>1724.97</ele>
        <time>2019-09-03T10:27:50Z</time>
      </trkpt>
      <trkpt lat="45.8358569" lon="6.7500875">
        <ele>1723.94</ele>
        <time>2019-09-03T10:28:00Z</time>
      </trkpt>
      <trkpt lat="45.8359158" lon="6.7499528">
        <ele>1723.41</ele>
        <time>2019-09-03T10:28:10Z</time>
      </trkpt>
      <trkpt lat="45.8359659" lon="6.7498277">
        <ele>1721.77</ele>
        <time>2019-09-03T10:28:18Z</time>
      </trkpt>
      <trkpt lat="45.8360103" lon="6.7496950">
        <ele>1720.68</ele>
        <time>2019-09-03T10:28:28Z</time>
      </trkpt>
      <trkpt lat="45.8360645" lon="6.7495792">
        <ele>1720.69</ele>
        <time>2019-09-03T10:28:48Z</time>
      </trkpt>
      <trkpt lat="45.8361418" lon="6.7494858">
        <ele>1719.70</ele>
        <time>2019-09-03T10:28:58Z</time>
      </trkpt>
      <trkpt lat="45.8362465" lon="6.7494386">
        <ele>1719.67</ele>
        <time>2019-09-03T10:29:08Z</time>
      </trkpt>
      <trkpt lat="45.8361674" lon="6.7493481">
        <ele>1722.45</ele>
        <time>2019-09-03T11:20:24Z</time>
      </trkpt>
      <trkpt lat="45.8360714" lon="6.7494847">
        <ele>1720.49</ele>
        <time>2019-09-03T11:20:36Z</time>
      </trkpt>
      <trkpt lat="45.8360427" lon="6.7496190">
        <ele>1716.35</ele>
        <time>2019-09-03T11:20:42Z</time>
      </trkpt>
      <trkpt lat="45.8360854" lon="6.7497509">
        <ele>1715.49</ele>
        <time>2019-09-03T11:21:29Z</time>
      </trkpt>
      <trkpt lat="45.8361081" lon="6.7496097">
        <ele>1717.66</ele>
        <time>2019-09-03T11:21:58Z</time>
      </trkpt>
      <trkpt lat="45.8361981" lon="6.7494492">
        <ele>1716.55</ele>
        <time>2019-09-03T11:22:02Z</time>
      </trkpt>
      <trkpt lat="45.8362679" lon="6.7493303">
        <ele>1715.75</ele>
        <time>2019-09-03T11:22:06Z</time>
      </trkpt>
      <trkpt lat="45.8361933" lon="6.7492404">
        <ele>1714.70</ele>
        <time>2019-09-03T11:24:03Z</time>
      </trkpt>
      <trkpt lat="45.8361822" lon="6.7491037">
        <ele>1714.67</ele>
        <time>2019-09-03T11:24:11Z</time>
      </trkpt>
      <trkpt lat="45.8361784" lon="6.7489595">
        <ele>1714.67</ele>
        <time>2019-09-03T11:24:21Z</time>
      </trkpt>
      <trkpt lat="45.8361296" lon="6.7488332">
        <ele>1714.46</ele>
        <time>2019-09-03T11:24:33Z</time>
      </trkpt>
      <trkpt lat="45.8360572" lon="6.7487526">
        <ele>1713.68</ele>
        <time>2019-09-03T11:24:41Z</time>
      </trkpt>
      <trkpt lat="45.8359877" lon="6.7486582">
        <ele>1711.70</ele>
        <time>2019-09-03T11:24:51Z</time>
      </trkpt>
      <trkpt lat="45.8358921" lon="6.7485836">
        <ele>1709.77</ele>
        <time>2019-09-03T11:25:01Z</time>
      </trkpt>
      <trkpt lat="45.8358134" lon="6.7484802">
        <ele>1708.70</ele>
        <time>2019-09-03T11:25:11Z</time>
      </trkpt>
      <trkpt lat="45.8357652" lon="6.7483686">
        <ele>1708.67</ele>
        <time>2019-09-03T11:25:19Z</time>
      </trkpt>
      <trkpt lat="45.8357025" lon="6.7482440">
        <ele>1707.68</ele>
        <time>2019-09-03T11:25:29Z</time>
      </trkpt>
      <trkpt lat="45.8356239" lon="6.7481487">
        <ele>1707.67</ele>
        <time>2019-09-03T11:25:37Z</time>
      </trkpt>
      <trkpt lat="45.8355250" lon="6.7481499">
        <ele>1706.70</ele>
        <time>2019-09-03T11:25:45Z</time>
      </trkpt>
      <trkpt lat="45.8354271" lon="6.7481188">
        <ele>1706.67</ele>
        <time>2019-09-03T11:25:53Z</time>
      </trkpt>
      <trkpt lat="45.8353530" lon="6.7480358">
        <ele>1705.76</ele>
        <time>2019-09-03T11:26:03Z</time>
      </trkpt>
      <trkpt lat="45.8352689" lon="6.7479524">
        <ele>1704.76</ele>
        <time>2019-09-03T11:26:11Z</time>
      </trkpt>
      <trkpt lat="45.8352024" lon="6.7478361">
        <ele>1702.98</ele>
        <time>2019-09-03T11:26:19Z</time>
      </trkpt>
      <trkpt lat="45.8351077" lon="6.7477788">
        <ele>1701.76</ele>
        <time>2019-09-03T11:26:29Z</time>
      </trkpt>
      <trkpt lat="45.8350274" lon="6.7476698">
        <ele>1700.76</ele>
        <time>2019-09-03T11:26:37Z</time>
      </trkpt>
      <trkpt lat="45.8350008" lon="6.7475324">
        <ele>1699.70</ele>
        <time>2019-09-03T11:26:45Z</time>
      </trkpt>
      <trkpt lat="45.8349525" lon="6.7474077">
        <ele>1699.67</ele>
        <time>2019-09-03T11:26:53Z</time>
      </trkpt>
      <trkpt lat="45.8348808" lon="6.7473137">
        <ele>1698.97</ele>
        <time>2019-09-03T11:27:01Z</time>
      </trkpt>
      <trkpt lat="45.8348314" lon="6.7471717">
        <ele>1697.97</ele>
        <time>2019-09-03T11:27:11Z</time>
      </trkpt>
      <trkpt lat="45.8347805" lon="6.7470602">
        <ele>1697.68</ele>
        <time>2019-09-03T11:27:17Z</time>
      </trkpt>
      <trkpt lat="45.8346961" lon="6.7469732">
        <ele>1696.70</ele>
        <time>2019-09-03T11:27:25Z</time>
      </trkpt>
      <trkpt lat="45.8346131" lon="6.7469039">
        <ele>1695.97</ele>
        <time>2019-09-03T11:27:33Z</time>
      </trkpt>
      <trkpt lat="45.8345322" lon="6.7468203">
        <ele>1694.97</ele>
        <time>2019-09-03T11:27:43Z</time>
      </trkpt>
      <trkpt lat="45.8344306" lon="6.7468079">
        <ele>1693.98</ele>
        <time>2019-09-03T11:27:51Z</time>
      </trkpt>
      <trkpt lat="45.8343448" lon="6.7467388">
        <ele>1691.80</ele>
        <time>2019-09-03T11:27:57Z</time>
      </trkpt>
      <trkpt lat="45.8342731" lon="6.7466558">
        <ele>1690.00</ele>
        <time>2019-09-03T11:28:03Z</time>
      </trkpt>
      <trkpt lat="45.8341856" lon="6.7465547">
        <ele>1687.98</ele>
        <time>2019-09-03T11:28:13Z</time>
      </trkpt>
      <trkpt lat="45.8340755" lon="6.7465228">
        <ele>1686.00</ele>
        <time>2019-09-03T11:28:21Z</time>
      </trkpt>
      <trkpt lat="45.8339854" lon="6.7464712">
        <ele>1684.70</ele>
        <time>2019-09-03T11:28:29Z</time>
      </trkpt>
      <trkpt lat="45.8339015" lon="6.7463730">
        <ele>1683.68</ele>
        <time>2019-09-03T11:28:37Z</time>
      </trkpt>
      <trkpt lat="45.8338343" lon="6.7462853">
        <ele>1682.76</ele>
        <time>2019-09-03T11:28:43Z</time>
      </trkpt>
      <trkpt lat="45.8337343" lon="6.7462044">
        <ele>1681.68</ele>
        <time>2019-09-03T11:28:51Z</time>
      </trkpt>
      <trkpt lat="45.8336397" lon="6.7461529">
        <ele>1681.67</ele>
        <time>2019-09-03T11:28:59Z</time>
      </trkpt>
      <trkpt lat="45.8335363" lon="6.7461145">
        <ele>1680.97</ele>
        <time>2019-09-03T11:29:07Z</time>
      </trkpt>
      <trkpt lat="45.8334294" lon="6.7460877">
        <ele>1680.76</ele>
        <time>2019-09-03T11:29:15Z</time>
      </trkpt>
      <trkpt lat="45.8333382" lon="6.7460893">
        <ele>1680.67</ele>
        <time>2019-09-03T11:29:23Z</time>
      </trkpt>
      <trkpt lat="45.8332352" lon="6.7460835">
        <ele>1680.67</ele>
        <time>2019-09-03T11:29:31Z</time>
      </trkpt>
      <trkpt lat="45.8331424" lon="6.7460878">
        <ele>1679.68</ele>
        <time>2019-09-03T11:29:39Z</time>
      </trkpt>
      <trkpt lat="45.8330292" lon="6.7460809">
        <ele>1678.68</ele>
        <time>2019-09-03T11:29:47Z</time>
      </trkpt>
      <trkpt lat="45.8329225" lon="6.7460289">
        <ele>1678.67</ele>
        <time>2019-09-03T11:29:55Z</time>
      </trkpt>
      <trkpt lat="45.8328296" lon="6.7460024">
        <ele>1677.97</ele>
        <time>2019-09-03T11:30:05Z</time>
      </trkpt>
      <trkpt lat="45.8327396" lon="6.7460532">
        <ele>1676.07</ele>
        <time>2019-09-03T11:30:13Z</time>
      </trkpt>
      <trkpt lat="45.8326502" lon="6.7460324">
        <ele>1674.98</ele>
        <time>2019-09-03T11:30:19Z</time>
      </trkpt>
      <trkpt lat="45.8325595" lon="6.7459985">
        <ele>1674.68</ele>
        <time>2019-09-03T11:30:25Z</time>
      </trkpt>
      <trkpt lat="45.8324503" lon="6.7459806">
        <ele>1671.62</ele>
        <time>2019-09-03T11:30:37Z</time>
      </trkpt>
      <trkpt lat="45.8323508" lon="6.7459548">
        <ele>1671.67</ele>
        <time>2019-09-03T11:30:45Z</time>
      </trkpt>
      <trkpt lat="45.8322361" lon="6.7459217">
        <ele>1670.97</ele>
        <time>2019-09-03T11:30:53Z</time>
      </trkpt>
      <trkpt lat="45.8321365" lon="6.7458779">
        <ele>1669.70</ele>
        <time>2019-09-03T11:31:01Z</time>
      </trkpt>
      <trkpt lat="45.8320464" lon="6.7458670">
        <ele>1668.70</ele>
        <time>2019-09-03T11:31:09Z</time>
      </trkpt>
      <trkpt lat="45.8319424" lon="6.7458687">
        <ele>1667.76</ele>
        <time>2019-09-03T11:31:17Z</time>
      </trkpt>
      <trkpt lat="45.8318374" lon="6.7458408">
        <ele>1667.67</ele>
        <time>2019-09-03T11:31:25Z</time>
      </trkpt>
      <trkpt lat="45.8317235" lon="6.7458355">
        <ele>1665.70</ele>
        <time>2019-09-03T11:31:35Z</time>
      </trkpt>
      <trkpt lat="45.8316205" lon="6.7457771">
        <ele>1663.68</ele>
        <time>2019-09-03T11:31:45Z</time>
      </trkpt>
      <trkpt lat="45.8315267" lon="6.7457465">
        <ele>1662.76</ele>
        <time>2019-09-03T11:31:53Z</time>
      </trkpt>
      <trkpt lat="45.8314344" lon="6.7457126">
        <ele>1661.70</ele>
        <time>2019-09-03T11:32:01Z</time>
      </trkpt>
      <trkpt lat="45.8313441" lon="6.7457082">
        <ele>1659.01</ele>
        <time>2019-09-03T11:32:09Z</time>
      </trkpt>
      <trkpt lat="45.8312425" lon="6.7456810">
        <ele>1657.68</ele>
        <time>2019-09-03T11:32:19Z</time>
      </trkpt>
      <trkpt lat="45.8311509" lon="6.7456072">
        <ele>1655.77</ele>
        <time>2019-09-03T11:32:27Z</time>
      </trkpt>
      <trkpt lat="45.8310447" lon="6.7455609">
        <ele>1654.70</ele>
        <time>2019-09-03T11:32:35Z</time>
      </trkpt>
      <trkpt lat="45.8309334" lon="6.7455151">
        <ele>1652.77</ele>
        <time>2019-09-03T11:32:45Z</time>
      </trkpt>
      <trkpt lat="45.8308537" lon="6.7454160">
        <ele>1652.67</ele>
        <time>2019-09-03T11:32:53Z</time>
      </trkpt>
      <trkpt lat="45.8307954" lon="6.7453028">
        <ele>1652.67</ele>
        <time>2019-09-03T11:33:03Z</time>
      </trkpt>
      <trkpt lat="45.8307425" lon="6.7451970">
        <ele>1652.67</ele>
        <time>2019-09-03T11:33:11Z</time>
      </trkpt>
      <trkpt lat="45.8306757" lon="6.7451088">
        <ele>1651.97</ele>
        <time>2019-09-03T11:33:19Z</time>
      </trkpt>
      <trkpt lat="45.8305993" lon="6.7450161">
        <ele>1649.79</ele>
        <time>2019-09-03T11:33:29Z</time>
      </trkpt>
      <trkpt lat="45.8305325" lon="6.7448864">
        <ele>1648.76</ele>
        <time>2019-09-03T11:33:39Z</time>
      </trkpt>
      <trkpt lat="45.8304540" lon="6.7448218">
        <ele>1645.12</ele>
        <time>2019-09-03T11:33:49Z</time>
      </trkpt>
      <trkpt lat="45.8303763" lon="6.7447476">
        <ele>1642.80</ele>
        <time>2019-09-03T11:33:55Z</time>
      </trkpt>
      <trkpt lat="45.8302749" lon="6.7447291">
        <ele>1640.77</ele>
        <time>2019-09-03T11:34:03Z</time>
      </trkpt>
      <trkpt lat="45.8301800" lon="6.7446953">
        <ele>1637.01</ele>
        <time>2019-09-03T11:34:13Z</time>
      </trkpt>
      <trkpt lat="45.8301010" lon="6.7445874">
        <ele>1635.00</ele>
        <time>2019-09-03T11:34:21Z</time>
      </trkpt>
      <trkpt lat="45.8300270" lon="6.7445110">
        <ele>1633.01</ele>
        <time>2019-09-03T11:34:27Z</time>
      </trkpt>
      <trkpt lat="45.8299324" lon="6.7444776">
        <ele>1631.77</ele>
        <time>2019-09-03T11:34:33Z</time>
      </trkpt>
      <trkpt lat="45.8298742" lon="6.7443654">
        <ele>1628.99</ele>
        <time>2019-09-03T11:34:43Z</time>
      </trkpt>
      <trkpt lat="45.8298022" lon="6.7442633">
        <ele>1628.68</ele>
        <time>2019-09-03T11:34:51Z</time>
      </trkpt>
      <trkpt lat="45.8297344" lon="6.7441733">
        <ele>1627.97</ele>
        <time>2019-09-03T11:34:59Z</time>
      </trkpt>
      <trkpt lat="45.8296377" lon="6.7441154">
        <ele>1624.99</ele>
        <time>2019-09-03T11:35:09Z</time>
      </trkpt>
      <trkpt lat="45.8295679" lon="6.7440244">
        <ele>1623.06</ele>
        <time>2019-09-03T11:35:19Z</time>
      </trkpt>
      <trkpt lat="45.8294690" lon="6.7439809">
        <ele>1615.40</ele>
        <time>2019-09-03T11:35:35Z</time>
      </trkpt>
      <trkpt lat="45.8293708" lon="6.7439701">
        <ele>1613.78</ele>
        <time>2019-09-03T11:35:41Z</time>
      </trkpt>
      <trkpt lat="45.8292616" lon="6.7439238">
        <ele>1611.03</ele>
        <time>2019-09-03T11:35:49Z</time>
      </trkpt>
      <trkpt lat="45.8291716" lon="6.7438504">
        <ele>1608.78</ele>
        <time>2019-09-03T11:35:57Z</time>
      </trkpt>
      <trkpt lat="45.8292192" lon="6.7437176">
        <ele>1604.80</ele>
        <time>2019-09-03T11:36:07Z</time>
      </trkpt>
      <trkpt lat="45.8293175" lon="6.7437301">
        <ele>1602.77</ele>
        <time>2019-09-03T11:36:17Z</time>
      </trkpt>
      <trkpt lat="45.8293775" lon="6.7436339">
        <ele>1602.46</ele>
        <time>2019-09-03T11:36:27Z</time>
      </trkpt>
      <trkpt lat="45.8294449" lon="6.7435051">
        <ele>1601.97</ele>
        <time>2019-09-03T11:36:35Z</time>
      </trkpt>
      <trkpt lat="45.8295342" lon="6.7434761">
        <ele>1600.28</ele>
        <time>2019-09-03T11:36:41Z</time>
      </trkpt>
      <trkpt lat="45.8294496" lon="6.7433984">
        <ele>1591.35</ele>
        <time>2019-09-03T11:39:13Z</time>
      </trkpt>
      <trkpt lat="45.8294528" lon="6.7432579">
        <ele>1588.10</ele>
        <time>2019-09-03T11:39:25Z</time>
      </trkpt>
      <trkpt lat="45.8294267" lon="6.7431325">
        <ele>1587.60</ele>
        <time>2019-09-03T11:39:37Z</time>
      </trkpt>
      <trkpt lat="45.8293237" lon="6.7430805">
        <ele>1583.16</ele>
        <time>2019-09-03T11:39:51Z</time>
      </trkpt>
      <trkpt lat="45.8292686" lon="6.7429617">
        <ele>1578.26</ele>
        <time>2019-09-03T11:39:59Z</time>
      </trkpt>
      <trkpt lat="45.8293516" lon="6.7428789">
        <ele>1577.91</ele>
        <time>2019-09-03T11:40:07Z</time>
      </trkpt>
      <trkpt lat="45.8293335" lon="6.7427434">
        <ele>1575.49</ele>
        <time>2019-09-03T11:40:17Z</time>
      </trkpt>
      <trkpt lat="45.8292420" lon="6.7426916">
        <ele>1568.07</ele>
        <time>2019-09-03T11:40:27Z</time>
      </trkpt>
      <trkpt lat="45.8291528" lon="6.7427394">
        <ele>1567.48</ele>
        <time>2019-09-03T11:40:37Z</time>
      </trkpt>
      <trkpt lat="45.8290729" lon="6.7428373">
        <ele>1568.39</ele>
        <time>2019-09-03T11:40:45Z</time>
      </trkpt>
      <trkpt lat="45.8289798" lon="6.7428865">
        <ele>1565.44</ele>
        <time>2019-09-03T11:41:05Z</time>
      </trkpt>
      <trkpt lat="45.8288867" lon="6.7429630">
        <ele>1566.55</ele>
        <time>2019-09-03T11:41:19Z</time>
      </trkpt>
      <trkpt lat="45.8287883" lon="6.7429983">
        <ele>1566.25</ele>
        <time>2019-09-03T11:41:29Z</time>
      </trkpt>
      <trkpt lat="45.8287317" lon="6.7428866">
        <ele>1567.45</ele>
        <time>2019-09-03T11:41:41Z</time>
      </trkpt>
      <trkpt lat="45.8286979" lon="6.7427461">
        <ele>1568.66</ele>
        <time>2019-09-03T11:41:53Z</time>
      </trkpt>
      <trkpt lat="45.8287106" lon="6.7426137">
        <ele>1569.58</ele>
        <time>2019-09-03T11:42:03Z</time>
      </trkpt>
      <trkpt lat="45.8287019" lon="6.7424741">
        <ele>1568.76</ele>
        <time>2019-09-03T11:42:15Z</time>
      </trkpt>
      <trkpt lat="45.8285888" lon="6.7424625">
        <ele>1566.05</ele>
        <time>2019-09-03T11:42:27Z</time>
      </trkpt>
      <trkpt lat="45.8284967" lon="6.7424321">
        <ele>1564.48</ele>
        <time>2019-09-03T11:42:35Z</time>
      </trkpt>
      <trkpt lat="45.8284537" lon="6.7422889">
        <ele>1562.01</ele>
        <time>2019-09-03T11:42:43Z</time>
      </trkpt>
      <trkpt lat="45.8283704" lon="6.7422307">
        <ele>1560.98</ele>
        <time>2019-09-03T11:42:51Z</time>
      </trkpt>
      <trkpt lat="45.8282768" lon="6.7422830">
        <ele>1558.00</ele>
        <time>2019-09-03T11:43:01Z</time>
      </trkpt>
      <trkpt lat="45.8281732" lon="6.7422590">
        <ele>1556.91</ele>
        <time>2019-09-03T11:43:11Z</time>
      </trkpt>
      <trkpt lat="45.8280768" lon="6.7422126">
        <ele>1557.46</ele>
        <time>2019-09-03T11:43:21Z</time>
      </trkpt>
      <trkpt lat="45.8279828" lon="6.7422174">
        <ele>1558.66</ele>
        <time>2019-09-03T11:43:31Z</time>
      </trkpt>
      <trkpt lat="45.8279025" lon="6.7421338">
        <ele>1565.93</ele>
        <time>2019-09-03T11:43:45Z</time>
      </trkpt>
      <trkpt lat="45.8278220" lon="6.7420603">
        <ele>1560.08</ele>
        <time>2019-09-03T11:43:55Z</time>
      </trkpt>
      <trkpt lat="45.8277512" lon="6.7419538">
        <ele>1555.67</ele>
        <time>2019-09-03T11:44:19Z</time>
      </trkpt>
      <trkpt lat="45.8276844" lon="6.7418352">
        <ele>1554.76</ele>
        <time>2019-09-03T11:44:31Z</time>
      </trkpt>
      <trkpt lat="45.8276528" lon="6.7416793">
        <ele>1555.37</ele>
        <time>2019-09-03T11:44:41Z</time>
      </trkpt>
      <trkpt lat="45.8276191" lon="6.7415421">
        <ele>1556.37</ele>
        <time>2019-09-03T11:44:49Z</time>
      </trkpt>
      <trkpt lat="45.8275486" lon="6.7414311">
        <ele>1555.00</ele>
        <time>2019-09-03T11:44:57Z</time>
      </trkpt>
      <trkpt lat="45.8274641" lon="6.7413336">
        <ele>1553.68</ele>
        <time>2019-09-03T11:45:05Z</time>
      </trkpt>
      <trkpt lat="45.8273750" lon="6.7412837">
        <ele>1552.76</ele>
        <time>2019-09-03T11:45:13Z</time>
      </trkpt>
      <trkpt lat="45.8272958" lon="6.7412105">
        <ele>1546.39</ele>
        <time>2019-09-03T11:45:27Z</time>
      </trkpt>
      <trkpt lat="45.8272447" lon="6.7410858">
        <ele>1543.83</ele>
        <time>2019-09-03T11:45:39Z</time>
      </trkpt>
      <trkpt lat="45.8271802" lon="6.7409911">
        <ele>1539.15</ele>
        <time>2019-09-03T11:45:53Z</time>
      </trkpt>
      <trkpt lat="45.8270905" lon="6.7410136">
        <ele>1533.74</ele>
        <time>2019-09-03T11:46:05Z</time>
      </trkpt>
      <trkpt lat="45.8270062" lon="6.7410683">
        <ele>1531.87</ele>
        <time>2019-09-03T11:46:17Z</time>
      </trkpt>
      <trkpt lat="45.8269323" lon="6.7411561">
        <ele>1529.84</ele>
        <time>2019-09-03T11:46:25Z</time>
      </trkpt>
      <trkpt lat="45.8268430" lon="6.7411342">
        <ele>1550.13</ele>
        <time>2019-09-03T11:46:35Z</time>
      </trkpt>
      <trkpt lat="45.8267456" lon="6.7412084">
        <ele>1531.71</ele>
        <time>2019-09-03T11:46:45Z</time>
      </trkpt>
      <trkpt lat="45.8266541" lon="6.7412836">
        <ele>1531.36</ele>
        <time>2019-09-03T11:46:55Z</time>
      </trkpt>
      <trkpt lat="45.8265794" lon="6.7413609">
        <ele>1524.62</ele>
        <time>2019-09-03T11:47:05Z</time>
      </trkpt>
      <trkpt lat="45.8264977" lon="6.7414174">
        <ele>1523.10</ele>
        <time>2019-09-03T11:47:15Z</time>
      </trkpt>
      <trkpt lat="45.8263909" lon="6.7414533">
        <ele>1517.33</ele>
        <time>2019-09-03T11:47:25Z</time>
      </trkpt>
      <trkpt lat="45.8262933" lon="6.7414506">
        <ele>1516.02</ele>
        <time>2019-09-03T11:47:39Z</time>
      </trkpt>
      <trkpt lat="45.8261770" lon="6.7414363">
        <ele>1513.89</ele>
        <time>2019-09-03T11:47:49Z</time>
      </trkpt>
      <trkpt lat="45.8260869" lon="6.7413816">
        <ele>1512.55</ele>
        <time>2019-09-03T11:47:59Z</time>
      </trkpt>
      <trkpt lat="45.8259929" lon="6.7413321">
        <ele>1507.93</ele>
        <time>2019-09-03T11:48:09Z</time>
      </trkpt>
      <trkpt lat="45.8259328" lon="6.7412309">
        <ele>1504.04</ele>
        <time>2019-09-03T11:48:17Z</time>
      </trkpt>
      <trkpt lat="45.8258287" lon="6.7412295">
        <ele>1505.62</ele>
        <time>2019-09-03T11:48:27Z</time>
      </trkpt>
      <trkpt lat="45.8257383" lon="6.7411850">
        <ele>1503.94</ele>
        <time>2019-09-03T11:48:33Z</time>
      </trkpt>
      <trkpt lat="45.8256488" lon="6.7410891">
        <ele>1502.68</ele>
        <time>2019-09-03T11:48:43Z</time>
      </trkpt>
      <trkpt lat="45.8255772" lon="6.7409751">
        <ele>1501.20</ele>
        <time>2019-09-03T11:48:59Z</time>
      </trkpt>
      <trkpt lat="45.8255011" lon="6.7408760">
        <ele>1495.36</ele>
        <time>2019-09-03T11:49:09Z</time>
      </trkpt>
      <trkpt lat="45.8254290" lon="6.7407889">
        <ele>1490.87</ele>
        <time>2019-09-03T11:49:19Z</time>
      </trkpt>
      <trkpt lat="45.8255212" lon="6.7408487">
        <ele>1486.80</ele>
        <time>2019-09-03T11:49:33Z</time>
      </trkpt>
      <trkpt lat="45.8256009" lon="6.7407585">
        <ele>1486.38</ele>
        <time>2019-09-03T11:49:45Z</time>
      </trkpt>
      <trkpt lat="45.8255130" lon="6.7407252">
        <ele>1485.41</ele>
        <time>2019-09-03T11:53:55Z</time>
      </trkpt>
      <trkpt lat="45.8254331" lon="6.7406142">
        <ele>1481.99</ele>
        <time>2019-09-03T11:54:05Z</time>
      </trkpt>
      <trkpt lat="45.8253231" lon="6.7406451">
        <ele>1479.69</ele>
        <time>2019-09-03T11:54:15Z</time>
      </trkpt>
      <trkpt lat="45.8252403" lon="6.7407275">
        <ele>1477.77</ele>
        <time>2019-09-03T11:54:23Z</time>
      </trkpt>
      <trkpt lat="45.8252066" lon="6.7408496">
        <ele>1477.67</ele>
        <time>2019-09-03T11:54:31Z</time>
      </trkpt>
      <trkpt lat="45.8251955" lon="6.7409967">
        <ele>1477.67</ele>
        <time>2019-09-03T11:54:39Z</time>
      </trkpt>
      <trkpt lat="45.8252199" lon="6.7411302">
        <ele>1476.68</ele>
        <time>2019-09-03T11:54:47Z</time>
      </trkpt>
      <trkpt lat="45.8252140" lon="6.7412683">
        <ele>1475.76</ele>
        <time>2019-09-03T11:54:55Z</time>
      </trkpt>
      <trkpt lat="45.8252672" lon="6.7413977">
        <ele>1475.67</ele>
        <time>2019-09-03T11:55:03Z</time>
      </trkpt>
      <trkpt lat="45.8253183" lon="6.7415107">
        <ele>1474.70</ele>
        <time>2019-09-03T11:55:11Z</time>
      </trkpt>
      <trkpt lat="45.8253581" lon="6.7416329">
        <ele>1473.70</ele>
        <time>2019-09-03T11:55:19Z</time>
      </trkpt>
      <trkpt lat="45.8253648" lon="6.7417882">
        <ele>1472.00</ele>
        <time>2019-09-03T11:55:29Z</time>
      </trkpt>
      <trkpt lat="45.8254178" lon="6.7419218">
        <ele>1470.97</ele>
        <time>2019-09-03T11:55:39Z</time>
      </trkpt>
      <trkpt lat="45.8254401" lon="6.7420614">
        <ele>1468.77</ele>
        <time>2019-09-03T11:55:49Z</time>
      </trkpt>
      <trkpt lat="45.8254090" lon="6.7422062">
        <ele>1467.68</ele>
        <time>2019-09-03T11:55:59Z</time>
      </trkpt>
      <trkpt lat="45.8253837" lon="6.7423382">
        <ele>1466.97</ele>
        <time>2019-09-03T11:56:09Z</time>
      </trkpt>
      <trkpt lat="45.8253664" lon="6.7424972">
        <ele>1465.76</ele>
        <time>2019-09-03T11:56:19Z</time>
      </trkpt>
      <trkpt lat="45.8253527" lon="6.7426582">
        <ele>1465.67</ele>
        <time>2019-09-03T11:56:29Z</time>
      </trkpt>
      <trkpt lat="45.8253234" lon="6.7428015">
        <ele>1464.97</ele>
        <time>2019-09-03T11:56:37Z</time>
      </trkpt>
      <trkpt lat="45.8252361" lon="6.7428596">
        <ele>1462.71</ele>
        <time>2019-09-03T11:56:47Z</time>
      </trkpt>
      <trkpt lat="45.8251739" lon="6.7429779">
        <ele>1461.68</ele>
        <time>2019-09-03T11:56:57Z</time>
      </trkpt>
      <trkpt lat="45.8251428" lon="6.7431021">
        <ele>1460.68</ele>
        <time>2019-09-03T11:57:09Z</time>
      </trkpt>
      <trkpt lat="45.8250915" lon="6.7432380">
        <ele>1458.98</ele>
        <time>2019-09-03T11:57:17Z</time>
      </trkpt>
      <trkpt lat="45.8250424" lon="6.7433801">
        <ele>1458.68</ele>
        <time>2019-09-03T11:57:25Z</time>
      </trkpt>
      <trkpt lat="45.8250028" lon="6.7435135">
        <ele>1457.47</ele>
        <time>2019-09-03T11:57:33Z</time>
      </trkpt>
      <trkpt lat="45.8249582" lon="6.7436665">
        <ele>1455.07</ele>
        <time>2019-09-03T11:57:41Z</time>
      </trkpt>
      <trkpt lat="45.8249132" lon="6.7437827">
        <ele>1453.70</ele>
        <time>2019-09-03T11:57:49Z</time>
      </trkpt>
      <trkpt lat="45.8248229" lon="6.7438389">
        <ele>1451.00</ele>
        <time>2019-09-03T11:57:59Z</time>
      </trkpt>
      <trkpt lat="45.8247312" lon="6.7437782">
        <ele>1449.68</ele>
        <time>2019-09-03T11:58:09Z</time>
      </trkpt>
      <trkpt lat="45.8246237" lon="6.7437448">
        <ele>1448.97</ele>
        <time>2019-09-03T11:58:21Z</time>
      </trkpt>
      <trkpt lat="45.8245489" lon="6.7436550">
        <ele>1447.77</ele>
        <time>2019-09-03T11:58:29Z</time>
      </trkpt>
      <trkpt lat="45.8244770" lon="6.7435713">
        <ele>1446.68</ele>
        <time>2019-09-03T11:58:37Z</time>
      </trkpt>
      <trkpt lat="45.8243746" lon="6.7435624">
        <ele>1448.09</ele>
        <time>2019-09-03T11:58:49Z</time>
      </trkpt>
      <trkpt lat="45.8243061" lon="6.7434602">
        <ele>1440.82</ele>
        <time>2019-09-03T11:59:01Z</time>
      </trkpt>
      <trkpt lat="45.8242230" lon="6.7433694">
        <ele>1437.79</ele>
        <time>2019-09-03T11:59:11Z</time>
      </trkpt>
      <trkpt lat="45.8242588" lon="6.7432500">
        <ele>1435.79</ele>
        <time>2019-09-03T11:59:19Z</time>
      </trkpt>
      <trkpt lat="45.8241980" lon="6.7431197">
        <ele>1432.07</ele>
        <time>2019-09-03T11:59:29Z</time>
      </trkpt>
      <trkpt lat="45.8241558" lon="6.7429970">
        <ele>1429.79</ele>
        <time>2019-09-03T11:59:37Z</time>
      </trkpt>
      <trkpt lat="45.8240968" lon="6.7428774">
        <ele>1426.10</ele>
        <time>2019-09-03T11:59:45Z</time>
      </trkpt>
      <trkpt lat="45.8240344" lon="6.7427426">
        <ele>1424.00</ele>
        <time>2019-09-03T11:59:53Z</time>
      </trkpt>
      <trkpt lat="45.8239818" lon="6.7426278">
        <ele>1421.07</ele>
        <time>2019-09-03T12:00:01Z</time>
      </trkpt>
      <trkpt lat="45.8239473" lon="6.7425064">
        <ele>1417.79</ele>
        <time>2019-09-03T12:00:13Z</time>
      </trkpt>
      <trkpt lat="45.8239142" lon="6.7423772">
        <ele>1415.70</ele>
        <time>2019-09-03T12:00:23Z</time>
      </trkpt>
      <trkpt lat="45.8238243" lon="6.7422949">
        <ele>1412.79</ele>
        <time>2019-09-03T12:00:33Z</time>
      </trkpt>
      <trkpt lat="45.8237732" lon="6.7421806">
        <ele>1410.00</ele>
        <time>2019-09-03T12:00:43Z</time>
      </trkpt>
      <trkpt lat="45.8237259" lon="6.7420702">
        <ele>1407.09</ele>
        <time>2019-09-03T12:00:53Z</time>
      </trkpt>
      <trkpt lat="45.8236695" lon="6.7419435">
        <ele>1404.01</ele>
        <time>2019-09-03T12:01:03Z</time>
      </trkpt>
      <trkpt lat="45.8236338" lon="6.7417989">
        <ele>1399.10</ele>
        <time>2019-09-03T12:01:13Z</time>
      </trkpt>
      <trkpt lat="45.8236113" lon="6.7416608">
        <ele>1396.77</ele>
        <time>2019-09-03T12:01:25Z</time>
      </trkpt>
      <trkpt lat="45.8236054" lon="6.7415093">
        <ele>1394.70</ele>
        <time>2019-09-03T12:01:37Z</time>
      </trkpt>
      <trkpt lat="45.8235424" lon="6.7414088">
        <ele>1392.07</ele>
        <time>2019-09-03T12:01:45Z</time>
      </trkpt>
      <trkpt lat="45.8235161" lon="6.7412597">
        <ele>1389.07</ele>
        <time>2019-09-03T12:01:55Z</time>
      </trkpt>
      <trkpt lat="45.8235184" lon="6.7411068">
        <ele>1387.76</ele>
        <time>2019-09-03T12:02:07Z</time>
      </trkpt>
      <trkpt lat="45.8235373" lon="6.7409757">
        <ele>1385.01</ele>
        <time>2019-09-03T12:02:15Z</time>
      </trkpt>
      <trkpt lat="45.8235742" lon="6.7408346">
        <ele>1382.00</ele>
        <time>2019-09-03T12:02:25Z</time>
      </trkpt>
      <trkpt lat="45.8235140" lon="6.7407164">
        <ele>1378.10</ele>
        <time>2019-09-03T12:02:33Z</time>
      </trkpt>
      <trkpt lat="45.8234318" lon="6.7406201">
        <ele>1375.10</ele>
        <time>2019-09-03T12:02:39Z</time>
      </trkpt>
      <trkpt lat="45.8233746" lon="6.7405109">
        <ele>1373.08</ele>
        <time>2019-09-03T12:02:45Z</time>
      </trkpt>
      <trkpt lat="45.8233243" lon="6.7403968">
        <ele>1372.68</ele>
        <time>2019-09-03T12:02:53Z</time>
      </trkpt>
      <trkpt lat="45.8232995" lon="6.7402704">
        <ele>1370.00</ele>
        <time>2019-09-03T12:03:05Z</time>
      </trkpt>
      <trkpt lat="45.8233020" lon="6.7401387">
        <ele>1367.77</ele>
        <time>2019-09-03T12:03:17Z</time>
      </trkpt>
      <trkpt lat="45.8232459" lon="6.7400334">
        <ele>1422.89</ele>
        <time>2019-09-03T12:03:23Z</time>
      </trkpt>
      <trkpt lat="45.8231725" lon="6.7399181">
        <ele>1378.31</ele>
        <time>2019-09-03T12:03:29Z</time>
      </trkpt>
      <trkpt lat="45.8230941" lon="6.7398124">
        <ele>1368.42</ele>
        <time>2019-09-03T12:03:35Z</time>
      </trkpt>
      <trkpt lat="45.8230379" lon="6.7396873">
        <ele>1364.78</ele>
        <time>2019-09-03T12:03:49Z</time>
      </trkpt>
      <trkpt lat="45.8230153" lon="6.7395551">
        <ele>1363.68</ele>
        <time>2019-09-03T12:03:59Z</time>
      </trkpt>
      <trkpt lat="45.8229802" lon="6.7394129">
        <ele>1362.76</ele>
        <time>2019-09-03T12:04:09Z</time>
      </trkpt>
      <trkpt lat="45.8229419" lon="6.7392791">
        <ele>1348.07</ele>
        <time>2019-09-03T12:05:21Z</time>
      </trkpt>
      <trkpt lat="45.8228919" lon="6.7391511">
        <ele>1345.68</ele>
        <time>2019-09-03T12:05:35Z</time>
      </trkpt>
      <trkpt lat="45.8228720" lon="6.7389893">
        <ele>1344.79</ele>
        <time>2019-09-03T12:05:45Z</time>
      </trkpt>
      <trkpt lat="45.8228068" lon="6.7388568">
        <ele>1344.67</ele>
        <time>2019-09-03T12:05:53Z</time>
      </trkpt>
      <trkpt lat="45.8227784" lon="6.7387241">
        <ele>1343.76</ele>
        <time>2019-09-03T12:06:01Z</time>
      </trkpt>
      <trkpt lat="45.8227509" lon="6.7386004">
        <ele>1343.67</ele>
        <time>2019-09-03T12:06:09Z</time>
      </trkpt>
      <trkpt lat="45.8227181" lon="6.7384525">
        <ele>1341.77</ele>
        <time>2019-09-03T12:06:19Z</time>
      </trkpt>
      <trkpt lat="45.8226653" lon="6.7383351">
        <ele>1340.97</ele>
        <time>2019-09-03T12:06:27Z</time>
      </trkpt>
      <trkpt lat="45.8225872" lon="6.7382275">
        <ele>1339.70</ele>
        <time>2019-09-03T12:06:35Z</time>
      </trkpt>
      <trkpt lat="45.8225214" lon="6.7381226">
        <ele>1338.00</ele>
        <time>2019-09-03T12:06:43Z</time>
      </trkpt>
      <trkpt lat="45.8224440" lon="6.7380513">
        <ele>1337.68</ele>
        <time>2019-09-03T12:06:51Z</time>
      </trkpt>
      <trkpt lat="45.8223616" lon="6.7379285">
        <ele>1337.67</ele>
        <time>2019-09-03T12:07:01Z</time>
      </trkpt>
      <trkpt lat="45.8222991" lon="6.7378166">
        <ele>1336.68</ele>
        <time>2019-09-03T12:07:09Z</time>
      </trkpt>
      <trkpt lat="45.8222385" lon="6.7376855">
        <ele>1337.65</ele>
        <time>2019-09-03T12:07:17Z</time>
      </trkpt>
      <trkpt lat="45.8221671" lon="6.7375681">
        <ele>1337.67</ele>
        <time>2019-09-03T12:07:25Z</time>
      </trkpt>
      <trkpt lat="45.8220859" lon="6.7374943">
        <ele>1337.67</ele>
        <time>2019-09-03T12:07:33Z</time>
      </trkpt>
      <trkpt lat="45.8220024" lon="6.7374155">
        <ele>1336.70</ele>
        <time>2019-09-03T12:07:41Z</time>
      </trkpt>
      <trkpt lat="45.8219553" lon="6.7372936">
        <ele>1336.88</ele>
        <time>2019-09-03T12:07:49Z</time>
      </trkpt>
      <trkpt lat="45.8219091" lon="6.7371712">
        <ele>1337.67</ele>
        <time>2019-09-03T12:07:59Z</time>
      </trkpt>
      <trkpt lat="45.8218659" lon="6.7370391">
        <ele>1336.68</ele>
        <time>2019-09-03T12:08:09Z</time>
      </trkpt>
      <trkpt lat="45.8218674" lon="6.7368961">
        <ele>1336.97</ele>
        <time>2019-09-03T12:08:19Z</time>
      </trkpt>
      <trkpt lat="45.8218055" lon="6.7367801">
        <ele>1337.59</ele>
        <time>2019-09-03T12:08:27Z</time>
      </trkpt>
      <trkpt lat="45.8217283" lon="6.7366822">
        <ele>1336.68</ele>
        <time>2019-09-03T12:08:35Z</time>
      </trkpt>
      <trkpt lat="45.8216384" lon="6.7365953">
        <ele>1338.35</ele>
        <time>2019-09-03T12:08:43Z</time>
      </trkpt>
      <trkpt lat="45.8215397" lon="6.7365702">
        <ele>1338.67</ele>
        <time>2019-09-03T12:08:51Z</time>
      </trkpt>
      <trkpt lat="45.8214526" lon="6.7365308">
        <ele>1339.65</ele>
        <time>2019-09-03T12:08:59Z</time>
      </trkpt>
      <trkpt lat="45.8213545" lon="6.7364627">
        <ele>1341.37</ele>
        <time>2019-09-03T12:09:09Z</time>
      </trkpt>
      <trkpt lat="45.8212871" lon="6.7363696">
        <ele>1342.58</ele>
        <time>2019-09-03T12:09:17Z</time>
      </trkpt>
      <trkpt lat="45.8212081" lon="6.7362989">
        <ele>1344.37</ele>
        <time>2019-09-03T12:09:25Z</time>
      </trkpt>
      <trkpt lat="45.8211157" lon="6.7362860">
        <ele>1345.58</ele>
        <time>2019-09-03T12:09:37Z</time>
      </trkpt>
      <trkpt lat="45.8210193" lon="6.7362531">
        <ele>1347.67</ele>
        <time>2019-09-03T12:09:49Z</time>
      </trkpt>
      <trkpt lat="45.8209107" lon="6.7362604">
        <ele>1347.67</ele>
        <time>2019-09-03T12:09:59Z</time>
      </trkpt>
      <trkpt lat="45.8208210" lon="6.7362795">
        <ele>1348.67</ele>
        <time>2019-09-03T12:10:09Z</time>
      </trkpt>
      <trkpt lat="45.8207116" lon="6.7362802">
        <ele>1351.34</ele>
        <time>2019-09-03T12:10:19Z</time>
      </trkpt>
      <trkpt lat="45.8206128" lon="6.7363223">
        <ele>1352.67</ele>
        <time>2019-09-03T12:10:33Z</time>
      </trkpt>
      <trkpt lat="45.8205379" lon="6.7364165">
        <ele>1353.44</ele>
        <time>2019-09-03T12:10:47Z</time>
      </trkpt>
      <trkpt lat="45.8204695" lon="6.7365254">
        <ele>1353.67</ele>
        <time>2019-09-03T12:10:59Z</time>
      </trkpt>
      <trkpt lat="45.8204150" lon="6.7366536">
        <ele>1354.58</ele>
        <time>2019-09-03T12:11:11Z</time>
      </trkpt>
      <trkpt lat="45.8203188" lon="6.7367092">
        <ele>1356.64</ele>
        <time>2019-09-03T12:11:23Z</time>
      </trkpt>
      <trkpt lat="45.8202473" lon="6.7367897">
        <ele>1356.67</ele>
        <time>2019-09-03T12:11:33Z</time>
      </trkpt>
      <trkpt lat="45.8201595" lon="6.7368177">
        <ele>1358.37</ele>
        <time>2019-09-03T12:11:43Z</time>
      </trkpt>
      <trkpt lat="45.8200849" lon="6.7368995">
        <ele>1358.67</ele>
        <time>2019-09-03T12:11:53Z</time>
      </trkpt>
      <trkpt lat="45.8199727" lon="6.7369195">
        <ele>1361.34</ele>
        <time>2019-09-03T12:12:03Z</time>
      </trkpt>
      <trkpt lat="45.8198781" lon="6.7369744">
        <ele>1364.34</ele>
        <time>2019-09-03T12:12:15Z</time>
      </trkpt>
      <trkpt lat="45.8197941" lon="6.7370497">
        <ele>1365.65</ele>
        <time>2019-09-03T12:12:25Z</time>
      </trkpt>
      <trkpt lat="45.8196901" lon="6.7370526">
        <ele>1366.37</ele>
        <time>2019-09-03T12:12:39Z</time>
      </trkpt>
      <trkpt lat="45.8196214" lon="6.7371605">
        <ele>1368.37</ele>
        <time>2019-09-03T12:12:53Z</time>
      </trkpt>
      <trkpt lat="45.8197068" lon="6.7372445">
        <ele>1369.67</ele>
        <time>2019-09-03T12:13:07Z</time>
      </trkpt>
      <trkpt lat="45.8198057" lon="6.7372783">
        <ele>1371.29</ele>
        <time>2019-09-03T12:13:21Z</time>
      </trkpt>
      <trkpt lat="45.8199123" lon="6.7372802">
        <ele>1373.67</ele>
        <time>2019-09-03T12:13:35Z</time>
      </trkpt>
      <trkpt lat="45.8200021" lon="6.7373243">
        <ele>1376.56</ele>
        <time>2019-09-03T12:13:47Z</time>
      </trkpt>
      <trkpt lat="45.8201046" lon="6.7373686">
        <ele>1381.25</ele>
        <time>2019-09-03T12:13:57Z</time>
      </trkpt>
      <trkpt lat="45.8201959" lon="6.7373756">
        <ele>1383.56</ele>
        <time>2019-09-03T12:14:07Z</time>
      </trkpt>
      <trkpt lat="45.8201083" lon="6.7374143">
        <ele>1384.65</ele>
        <time>2019-09-03T12:14:29Z</time>
      </trkpt>
      <trkpt lat="45.8200202" lon="6.7374674">
        <ele>1387.36</ele>
        <time>2019-09-03T12:14:39Z</time>
      </trkpt>
      <trkpt lat="45.8199257" lon="6.7374808">
        <ele>1388.58</ele>
        <time>2019-09-03T12:14:51Z</time>
      </trkpt>
      <trkpt lat="45.8198345" lon="6.7375530">
        <ele>1391.34</ele>
        <time>2019-09-03T12:15:03Z</time>
      </trkpt>
      <trkpt lat="45.8197471" lon="6.7375989">
        <ele>1392.65</ele>
        <time>2019-09-03T12:15:13Z</time>
      </trkpt>
      <trkpt lat="45.8196456" lon="6.7376340">
        <ele>1393.65</ele>
        <time>2019-09-03T12:15:27Z</time>
      </trkpt>
      <trkpt lat="45.8195497" lon="6.7376194">
        <ele>1396.35</ele>
        <time>2019-09-03T12:15:41Z</time>
      </trkpt>
      <trkpt lat="45.8194549" lon="6.7376014">
        <ele>1398.37</ele>
        <time>2019-09-03T12:15:51Z</time>
      </trkpt>
      <trkpt lat="45.8193537" lon="6.7375645">
        <ele>1399.58</ele>
        <time>2019-09-03T12:16:01Z</time>
      </trkpt>
      <trkpt lat="45.8192608" lon="6.7375286">
        <ele>1402.58</ele>
        <time>2019-09-03T12:16:13Z</time>
      </trkpt>
      <trkpt lat="45.8191582" lon="6.7374932">
        <ele>1404.59</ele>
        <time>2019-09-03T12:16:25Z</time>
      </trkpt>
      <trkpt lat="45.8190635" lon="6.7374275">
        <ele>1406.66</ele>
        <time>2019-09-03T12:16:37Z</time>
      </trkpt>
      <trkpt lat="45.8189626" lon="6.7373927">
        <ele>1409.64</ele>
        <time>2019-09-03T12:16:53Z</time>
      </trkpt>
      <trkpt lat="45.8188753" lon="6.7373272">
        <ele>1410.65</ele>
        <time>2019-09-03T12:17:07Z</time>
      </trkpt>
      <trkpt lat="45.8187877" lon="6.7372826">
        <ele>1412.37</ele>
        <time>2019-09-03T12:17:17Z</time>
      </trkpt>
      <trkpt lat="45.8186797" lon="6.7372588">
        <ele>1414.64</ele>
        <time>2019-09-03T12:17:27Z</time>
      </trkpt>
      <trkpt lat="45.8185843" lon="6.7372350">
        <ele>1417.36</ele>
        <time>2019-09-03T12:17:37Z</time>
      </trkpt>
      <trkpt lat="45.8185036" lon="6.7371403">
        <ele>1421.64</ele>
        <time>2019-09-03T12:17:51Z</time>
      </trkpt>
      <trkpt lat="45.8184171" lon="6.7370800">
        <ele>1422.67</ele>
        <time>2019-09-03T12:18:01Z</time>
      </trkpt>
      <trkpt lat="45.8183279" lon="6.7370521">
        <ele>1423.67</ele>
        <time>2019-09-03T12:18:11Z</time>
      </trkpt>
      <trkpt lat="45.8182509" lon="6.7369356">
        <ele>1425.37</ele>
        <time>2019-09-03T12:18:25Z</time>
      </trkpt>
      <trkpt lat="45.8182003" lon="6.7368259">
        <ele>1427.34</ele>
        <time>2019-09-03T12:18:33Z</time>
      </trkpt>
      <trkpt lat="45.8181090" lon="6.7367531">
        <ele>1428.65</ele>
        <time>2019-09-03T12:18:43Z</time>
      </trkpt>
      <trkpt lat="45.8180092" lon="6.7367510">
        <ele>1430.58</ele>
        <time>2019-09-03T12:18:55Z</time>
      </trkpt>
      <trkpt lat="45.8179318" lon="6.7366818">
        <ele>1432.54</ele>
        <time>2019-09-03T12:19:09Z</time>
      </trkpt>
      <trkpt lat="45.8178467" lon="6.7366209">
        <ele>1435.28</ele>
        <time>2019-09-03T12:19:21Z</time>
      </trkpt>
      <trkpt lat="45.8177638" lon="6.7365516">
        <ele>1440.34</ele>
        <time>2019-09-03T12:19:37Z</time>
      </trkpt>
      <trkpt lat="45.8176654" lon="6.7364917">
        <ele>1443.58</ele>
        <time>2019-09-03T12:19:51Z</time>
      </trkpt>
      <trkpt lat="45.8176033" lon="6.7365921">
        <ele>1444.68</ele>
        <time>2019-09-03T12:20:09Z</time>
      </trkpt>
      <trkpt lat="45.8175120" lon="6.7365403">
        <ele>1450.90</ele>
        <time>2019-09-03T12:23:43Z</time>
      </trkpt>
      <trkpt lat="45.8174570" lon="6.7366681">
        <ele>1450.47</ele>
        <time>2019-09-03T12:24:09Z</time>
      </trkpt>
      <trkpt lat="45.8174190" lon="6.7367906">
        <ele>1450.74</ele>
        <time>2019-09-03T12:24:19Z</time>
      </trkpt>
      <trkpt lat="45.8173471" lon="6.7368990">
        <ele>1450.61</ele>
        <time>2019-09-03T12:24:27Z</time>
      </trkpt>
      <trkpt lat="45.8173188" lon="6.7370338">
        <ele>1452.58</ele>
        <time>2019-09-03T12:24:43Z</time>
      </trkpt>
      <trkpt lat="45.8172836" lon="6.7371634">
        <ele>1453.58</ele>
        <time>2019-09-03T12:24:51Z</time>
      </trkpt>
      <trkpt lat="45.8172369" lon="6.7372905">
        <ele>1453.65</ele>
        <time>2019-09-03T12:25:01Z</time>
      </trkpt>
      <trkpt lat="45.8171922" lon="6.7374204">
        <ele>1454.65</ele>
        <time>2019-09-03T12:25:09Z</time>
      </trkpt>
      <trkpt lat="45.8171461" lon="6.7375559">
        <ele>1453.76</ele>
        <time>2019-09-03T12:25:17Z</time>
      </trkpt>
      <trkpt lat="45.8171097" lon="6.7376768">
        <ele>1453.97</ele>
        <time>2019-09-03T12:25:25Z</time>
      </trkpt>
      <trkpt lat="45.8170914" lon="6.7378298">
        <ele>1456.64</ele>
        <time>2019-09-03T12:25:37Z</time>
      </trkpt>
      <trkpt lat="45.8170645" lon="6.7379759">
        <ele>1458.35</ele>
        <time>2019-09-03T12:25:47Z</time>
      </trkpt>
      <trkpt lat="45.8170475" lon="6.7381191">
        <ele>1459.29</ele>
        <time>2019-09-03T12:25:55Z</time>
      </trkpt>
      <trkpt lat="45.8170641" lon="6.7382684">
        <ele>1460.38</ele>
        <time>2019-09-03T12:26:07Z</time>
      </trkpt>
      <trkpt lat="45.8170539" lon="6.7384050">
        <ele>1462.26</ele>
        <time>2019-09-03T12:26:19Z</time>
      </trkpt>
      <trkpt lat="45.8170695" lon="6.7385452">
        <ele>1464.67</ele>
        <time>2019-09-03T12:26:35Z</time>
      </trkpt>
      <trkpt lat="45.8169829" lon="6.7386349">
        <ele>1464.67</ele>
        <time>2019-09-03T12:26:47Z</time>
      </trkpt>
      <trkpt lat="45.8169567" lon="6.7387853">
        <ele>1467.28</ele>
        <time>2019-09-03T12:26:59Z</time>
      </trkpt>
      <trkpt lat="45.8169620" lon="6.7389208">
        <ele>1469.35</ele>
        <time>2019-09-03T12:27:09Z</time>
      </trkpt>
      <trkpt lat="45.8169463" lon="6.7390690">
        <ele>1470.37</ele>
        <time>2019-09-03T12:27:21Z</time>
      </trkpt>
      <trkpt lat="45.8168537" lon="6.7391416">
        <ele>1468.77</ele>
        <time>2019-09-03T12:27:33Z</time>
      </trkpt>
      <trkpt lat="45.8167703" lon="6.7392071">
        <ele>1467.68</ele>
        <time>2019-09-03T12:27:45Z</time>
      </trkpt>
      <trkpt lat="45.8166835" lon="6.7392781">
        <ele>1466.70</ele>
        <time>2019-09-03T12:27:59Z</time>
      </trkpt>
      <trkpt lat="45.8166533" lon="6.7394196">
        <ele>1468.56</ele>
        <time>2019-09-03T12:28:09Z</time>
      </trkpt>
      <trkpt lat="45.8166161" lon="6.7395389">
        <ele>1470.37</ele>
        <time>2019-09-03T12:28:19Z</time>
      </trkpt>
      <trkpt lat="45.8165868" lon="6.7396709">
        <ele>1472.37</ele>
        <time>2019-09-03T12:28:33Z</time>
      </trkpt>
      <trkpt lat="45.8165892" lon="6.7398354">
        <ele>1472.67</ele>
        <time>2019-09-03T12:28:41Z</time>
      </trkpt>
      <trkpt lat="45.8165921" lon="6.7399766">
        <ele>1472.67</ele>
        <time>2019-09-03T12:28:49Z</time>
      </trkpt>
      <trkpt lat="45.8166135" lon="6.7401252">
        <ele>1473.58</ele>
        <time>2019-09-03T12:28:59Z</time>
      </trkpt>
      <trkpt lat="45.8166047" lon="6.7402672">
        <ele>1475.58</ele>
        <time>2019-09-03T12:29:11Z</time>
      </trkpt>
      <trkpt lat="45.8165823" lon="6.7403962">
        <ele>1478.28</ele>
        <time>2019-09-03T12:29:21Z</time>
      </trkpt>
      <trkpt lat="45.8165152" lon="6.7405228">
        <ele>1480.64</ele>
        <time>2019-09-03T12:29:33Z</time>
      </trkpt>
      <trkpt lat="45.8164492" lon="6.7406317">
        <ele>1481.58</ele>
        <time>2019-09-03T12:29:41Z</time>
      </trkpt>
      <trkpt lat="45.8164113" lon="6.7407677">
        <ele>1482.37</ele>
        <time>2019-09-03T12:29:51Z</time>
      </trkpt>
      <trkpt lat="45.8163893" lon="6.7409125">
        <ele>1482.67</ele>
        <time>2019-09-03T12:29:59Z</time>
      </trkpt>
      <trkpt lat="45.8164038" lon="6.7410563">
        <ele>1483.58</ele>
        <time>2019-09-03T12:30:07Z</time>
      </trkpt>
      <trkpt lat="45.8164162" lon="6.7411916">
        <ele>1485.58</ele>
        <time>2019-09-03T12:30:15Z</time>
      </trkpt>
      <trkpt lat="45.8164031" lon="6.7413548">
        <ele>1486.37</ele>
        <time>2019-09-03T12:30:23Z</time>
      </trkpt>
      <trkpt lat="45.8163905" lon="6.7414976">
        <ele>1487.65</ele>
        <time>2019-09-03T12:30:35Z</time>
      </trkpt>
      <trkpt lat="45.8163530" lon="6.7416429">
        <ele>1489.37</ele>
        <time>2019-09-03T12:30:49Z</time>
      </trkpt>
      <trkpt lat="45.8163471" lon="6.7417860">
        <ele>1489.46</ele>
        <time>2019-09-03T12:30:59Z</time>
      </trkpt>
      <trkpt lat="45.8163034" lon="6.7419139">
        <ele>1492.36</ele>
        <time>2019-09-03T12:31:09Z</time>
      </trkpt>
      <trkpt lat="45.8162634" lon="6.7420315">
        <ele>1494.58</ele>
        <time>2019-09-03T12:31:19Z</time>
      </trkpt>
      <trkpt lat="45.8162547" lon="6.7421691">
        <ele>1495.67</ele>
        <time>2019-09-03T12:31:31Z</time>
      </trkpt>
      <trkpt lat="45.8162157" lon="6.7422884">
        <ele>1496.38</ele>
        <time>2019-09-03T12:31:41Z</time>
      </trkpt>
      <trkpt lat="45.8161819" lon="6.7424296">
        <ele>1492.51</ele>
        <time>2019-09-03T12:31:53Z</time>
      </trkpt>
      <trkpt lat="45.8161978" lon="6.7425811">
        <ele>1497.58</ele>
        <time>2019-09-03T12:32:05Z</time>
      </trkpt>
      <trkpt lat="45.8162055" lon="6.7427329">
        <ele>1498.58</ele>
        <time>2019-09-03T12:32:17Z</time>
      </trkpt>
      <trkpt lat="45.8162787" lon="6.7428245">
        <ele>1498.67</ele>
        <time>2019-09-03T12:32:33Z</time>
      </trkpt>
      <trkpt lat="45.8162836" lon="6.7429634">
        <ele>1500.58</ele>
        <time>2019-09-03T12:32:47Z</time>
      </trkpt>
      <trkpt lat="45.8162381" lon="6.7430799">
        <ele>1503.64</ele>
        <time>2019-09-03T12:32:59Z</time>
      </trkpt>
      <trkpt lat="45.8162956" lon="6.7431847">
        <ele>1507.55</ele>
        <time>2019-09-03T12:33:13Z</time>
      </trkpt>
      <trkpt lat="45.8162768" lon="6.7433295">
        <ele>1511.55</ele>
        <time>2019-09-03T12:33:27Z</time>
      </trkpt>
      <trkpt lat="45.8162513" lon="6.7434701">
        <ele>1515.28</ele>
        <time>2019-09-03T12:33:43Z</time>
      </trkpt>
      <trkpt lat="45.8162260" lon="6.7436179">
        <ele>1518.34</ele>
        <time>2019-09-03T12:33:57Z</time>
      </trkpt>
      <trkpt lat="45.8162244" lon="6.7437504">
        <ele>1520.62</ele>
        <time>2019-09-03T12:34:09Z</time>
      </trkpt>
      <trkpt lat="45.8161591" lon="6.7438510">
        <ele>1521.37</ele>
        <time>2019-09-03T12:34:19Z</time>
      </trkpt>
      <trkpt lat="45.8160770" lon="6.7439094">
        <ele>1520.67</ele>
        <time>2019-09-03T12:34:31Z</time>
      </trkpt>
      <trkpt lat="45.8159964" lon="6.7438516">
        <ele>1521.58</ele>
        <time>2019-09-03T12:34:45Z</time>
      </trkpt>
      <trkpt lat="45.8158859" lon="6.7438376">
        <ele>1521.67</ele>
        <time>2019-09-03T12:34:59Z</time>
      </trkpt>
      <trkpt lat="45.8157863" lon="6.7438742">
        <ele>1522.65</ele>
        <time>2019-09-03T12:35:11Z</time>
      </trkpt>
      <trkpt lat="45.8156746" lon="6.7439206">
        <ele>1522.67</ele>
        <time>2019-09-03T12:35:23Z</time>
      </trkpt>
      <trkpt lat="45.8156095" lon="6.7440180">
        <ele>1522.67</ele>
        <time>2019-09-03T12:35:31Z</time>
      </trkpt>
      <trkpt lat="45.8155438" lon="6.7441183">
        <ele>1520.70</ele>
        <time>2019-09-03T12:35:41Z</time>
      </trkpt>
      <trkpt lat="45.8154925" lon="6.7442384">
        <ele>1518.97</ele>
        <time>2019-09-03T12:35:53Z</time>
      </trkpt>
      <trkpt lat="45.8154305" lon="6.7443483">
        <ele>1518.67</ele>
        <time>2019-09-03T12:36:03Z</time>
      </trkpt>
      <trkpt lat="45.8153861" lon="6.7444714">
        <ele>1518.67</ele>
        <time>2019-09-03T12:36:13Z</time>
      </trkpt>
      <trkpt lat="45.8153297" lon="6.7445883">
        <ele>1520.58</ele>
        <time>2019-09-03T12:36:23Z</time>
      </trkpt>
      <trkpt lat="45.8152837" lon="6.7447113">
        <ele>1519.76</ele>
        <time>2019-09-03T12:36:33Z</time>
      </trkpt>
      <trkpt lat="45.8152404" lon="6.7448561">
        <ele>1520.65</ele>
        <time>2019-09-03T12:36:43Z</time>
      </trkpt>
      <trkpt lat="45.8151811" lon="6.7449850">
        <ele>1520.67</ele>
        <time>2019-09-03T12:36:53Z</time>
      </trkpt>
      <trkpt lat="45.8151622" lon="6.7451118">
        <ele>1520.65</ele>
        <time>2019-09-03T12:37:03Z</time>
      </trkpt>
      <trkpt lat="45.8151109" lon="6.7452253">
        <ele>1519.79</ele>
        <time>2019-09-03T12:37:15Z</time>
      </trkpt>
      <trkpt lat="45.8150168" lon="6.7452358">
        <ele>1520.86</ele>
        <time>2019-09-03T12:37:25Z</time>
      </trkpt>
      <trkpt lat="45.8149352" lon="6.7452917">
        <ele>1520.68</ele>
        <time>2019-09-03T12:37:33Z</time>
      </trkpt>
      <trkpt lat="45.8148611" lon="6.7453692">
        <ele>1520.70</ele>
        <time>2019-09-03T12:37:43Z</time>
      </trkpt>
      <trkpt lat="45.8147693" lon="6.7454079">
        <ele>1521.58</ele>
        <time>2019-09-03T12:37:57Z</time>
      </trkpt>
      <trkpt lat="45.8146787" lon="6.7453753">
        <ele>1525.27</ele>
        <time>2019-09-03T12:38:07Z</time>
      </trkpt>
      <trkpt lat="45.8145875" lon="6.7454248">
        <ele>1525.67</ele>
        <time>2019-09-03T12:38:17Z</time>
      </trkpt>
      <trkpt lat="45.8145010" lon="6.7454934">
        <ele>1525.67</ele>
        <time>2019-09-03T12:38:27Z</time>
      </trkpt>
      <trkpt lat="45.8144353" lon="6.7455981">
        <ele>1524.68</ele>
        <time>2019-09-03T12:38:37Z</time>
      </trkpt>
      <trkpt lat="45.8143484" lon="6.7456500">
        <ele>1524.97</ele>
        <time>2019-09-03T12:38:53Z</time>
      </trkpt>
      <trkpt lat="45.8142543" lon="6.7456772">
        <ele>1526.65</ele>
        <time>2019-09-03T12:39:21Z</time>
      </trkpt>
      <trkpt lat="45.8142150" lon="6.7455484">
        <ele>1528.58</ele>
        <time>2019-09-03T12:39:37Z</time>
      </trkpt>
      <trkpt lat="45.8141638" lon="6.7454382">
        <ele>1530.37</ele>
        <time>2019-09-03T12:39:47Z</time>
      </trkpt>
      <trkpt lat="45.8141501" lon="6.7453106">
        <ele>1532.58</ele>
        <time>2019-09-03T12:39:57Z</time>
      </trkpt>
      <trkpt lat="45.8141511" lon="6.7451656">
        <ele>1533.67</ele>
        <time>2019-09-03T12:40:11Z</time>
      </trkpt>
      <trkpt lat="45.8141584" lon="6.7450281">
        <ele>1535.37</ele>
        <time>2019-09-03T12:40:21Z</time>
      </trkpt>
      <trkpt lat="45.8141856" lon="6.7448876">
        <ele>1537.58</ele>
        <time>2019-09-03T12:40:33Z</time>
      </trkpt>
      <trkpt lat="45.8141649" lon="6.7447505">
        <ele>1538.67</ele>
        <time>2019-09-03T12:40:45Z</time>
      </trkpt>
      <trkpt lat="45.8141287" lon="6.7446157">
        <ele>1542.26</ele>
        <time>2019-09-03T12:40:59Z</time>
      </trkpt>
      <trkpt lat="45.8140324" lon="6.7445842">
        <ele>1542.67</ele>
        <time>2019-09-03T12:41:09Z</time>
      </trkpt>
      <trkpt lat="45.8139366" lon="6.7445646">
        <ele>1546.55</ele>
        <time>2019-09-03T12:41:21Z</time>
      </trkpt>
      <trkpt lat="45.8138376" lon="6.7445443">
        <ele>1547.67</ele>
        <time>2019-09-03T12:41:33Z</time>
      </trkpt>
      <trkpt lat="45.8137453" lon="6.7445594">
        <ele>1550.37</ele>
        <time>2019-09-03T12:41:47Z</time>
      </trkpt>
      <trkpt lat="45.8136567" lon="6.7445301">
        <ele>1549.68</ele>
        <time>2019-09-03T12:41:55Z</time>
      </trkpt>
      <trkpt lat="45.8135383" lon="6.7445287">
        <ele>1550.73</ele>
        <time>2019-09-03T12:43:59Z</time>
      </trkpt>
      <trkpt lat="45.8135270" lon="6.7443865">
        <ele>1549.86</ele>
        <time>2019-09-03T12:44:21Z</time>
      </trkpt>
      <trkpt lat="45.8135687" lon="6.7442484">
        <ele>1547.71</ele>
        <time>2019-09-03T12:44:29Z</time>
      </trkpt>
      <trkpt lat="45.8135636" lon="6.7441067">
        <ele>1547.74</ele>
        <time>2019-09-03T12:44:37Z</time>
      </trkpt>
      <trkpt lat="45.8135407" lon="6.7439723">
        <ele>1547.67</ele>
        <time>2019-09-03T12:44:45Z</time>
      </trkpt>
      <trkpt lat="45.8135076" lon="6.7438370">
        <ele>1546.97</ele>
        <time>2019-09-03T12:44:55Z</time>
      </trkpt>
      <trkpt lat="45.8135017" lon="6.7437049">
        <ele>1544.97</ele>
        <time>2019-09-03T12:45:11Z</time>
      </trkpt>
      <trkpt lat="45.8134952" lon="6.7435600">
        <ele>1543.76</ele>
        <time>2019-09-03T12:45:25Z</time>
      </trkpt>
      <trkpt lat="45.8134700" lon="6.7434122">
        <ele>1542.70</ele>
        <time>2019-09-03T12:45:35Z</time>
      </trkpt>
      <trkpt lat="45.8134931" lon="6.7432748">
        <ele>1540.75</ele>
        <time>2019-09-03T12:45:47Z</time>
      </trkpt>
      <trkpt lat="45.8134294" lon="6.7431522">
        <ele>1540.67</ele>
        <time>2019-09-03T12:45:57Z</time>
      </trkpt>
      <trkpt lat="45.8133888" lon="6.7430203">
        <ele>1539.70</ele>
        <time>2019-09-03T12:46:07Z</time>
      </trkpt>
      <trkpt lat="45.8133404" lon="6.7429089">
        <ele>1538.08</ele>
        <time>2019-09-03T12:46:15Z</time>
      </trkpt>
      <trkpt lat="45.8132622" lon="6.7428383">
        <ele>1535.08</ele>
        <time>2019-09-03T12:46:23Z</time>
      </trkpt>
      <trkpt lat="45.8132134" lon="6.7427298">
        <ele>1531.80</ele>
        <time>2019-09-03T12:46:33Z</time>
      </trkpt>
      <trkpt lat="45.8131572" lon="6.7426100">
        <ele>1531.61</ele>
        <time>2019-09-03T12:46:49Z</time>
      </trkpt>
      <trkpt lat="45.8131188" lon="6.7424808">
        <ele>1531.65</ele>
        <time>2019-09-03T12:47:01Z</time>
      </trkpt>
      <trkpt lat="45.8130301" lon="6.7424046">
        <ele>1530.59</ele>
        <time>2019-09-03T12:47:15Z</time>
      </trkpt>
      <trkpt lat="45.8130447" lon="6.7422670">
        <ele>1531.65</ele>
        <time>2019-09-03T12:47:29Z</time>
      </trkpt>
      <trkpt lat="45.8130277" lon="6.7421196">
        <ele>1535.33</ele>
        <time>2019-09-03T12:47:37Z</time>
      </trkpt>
      <trkpt lat="45.8130102" lon="6.7419913">
        <ele>1534.68</ele>
        <time>2019-09-03T12:47:45Z</time>
      </trkpt>
      <trkpt lat="45.8129906" lon="6.7418629">
        <ele>1532.89</ele>
        <time>2019-09-03T12:47:59Z</time>
      </trkpt>
      <trkpt lat="45.8130604" lon="6.7417797">
        <ele>1531.89</ele>
        <time>2019-09-03T12:48:07Z</time>
      </trkpt>
      <trkpt lat="45.8131039" lon="6.7416376">
        <ele>1532.88</ele>
        <time>2019-09-03T12:48:17Z</time>
      </trkpt>
      <trkpt lat="45.8131732" lon="6.7415540">
        <ele>1533.58</ele>
        <time>2019-09-03T12:48:27Z</time>
      </trkpt>
      <trkpt lat="45.8132508" lon="6.7414633">
        <ele>1531.98</ele>
        <time>2019-09-03T12:48:35Z</time>
      </trkpt>
      <trkpt lat="45.8132971" lon="6.7413315">
        <ele>1530.70</ele>
        <time>2019-09-03T12:48:43Z</time>
      </trkpt>
      <trkpt lat="45.8133286" lon="6.7412027">
        <ele>1528.77</ele>
        <time>2019-09-03T12:48:51Z</time>
      </trkpt>
      <trkpt lat="45.8133799" lon="6.7410849">
        <ele>1528.67</ele>
        <time>2019-09-03T12:48:59Z</time>
      </trkpt>
      <trkpt lat="45.8134066" lon="6.7409402">
        <ele>1526.45</ele>
        <time>2019-09-03T12:49:19Z</time>
      </trkpt>
      <trkpt lat="45.8133683" lon="6.7408183">
        <ele>1523.61</ele>
        <time>2019-09-03T12:50:03Z</time>
      </trkpt>
      <trkpt lat="45.8134116" lon="6.7406944">
        <ele>1517.94</ele>
        <time>2019-09-03T12:50:29Z</time>
      </trkpt>
      <trkpt lat="45.8133784" lon="6.7405600">
        <ele>1514.08</ele>
        <time>2019-09-03T12:50:37Z</time>
      </trkpt>
      <trkpt lat="45.8134319" lon="6.7404227">
        <ele>1512.65</ele>
        <time>2019-09-03T12:51:11Z</time>
      </trkpt>
      <trkpt lat="45.8134327" lon="6.7402593">
        <ele>1510.84</ele>
        <time>2019-09-03T12:51:23Z</time>
      </trkpt>
      <trkpt lat="45.8134245" lon="6.7401199">
        <ele>1508.70</ele>
        <time>2019-09-03T12:51:33Z</time>
      </trkpt>
      <trkpt lat="45.8134050" lon="6.7399872">
        <ele>1505.79</ele>
        <time>2019-09-03T12:51:43Z</time>
      </trkpt>
      <trkpt lat="45.8133984" lon="6.7398561">
        <ele>1504.68</ele>
        <time>2019-09-03T12:51:53Z</time>
      </trkpt>
      <trkpt lat="45.8133963" lon="6.7397225">
        <ele>1504.67</ele>
        <time>2019-09-03T12:52:01Z</time>
      </trkpt>
      <trkpt lat="45.8133882" lon="6.7395637">
        <ele>1504.66</ele>
        <time>2019-09-03T12:52:13Z</time>
      </trkpt>
      <trkpt lat="45.8133518" lon="6.7394360">
        <ele>1504.67</ele>
        <time>2019-09-03T12:52:21Z</time>
      </trkpt>
      <trkpt lat="45.8133021" lon="6.7393079">
        <ele>1502.98</ele>
        <time>2019-09-03T12:52:31Z</time>
      </trkpt>
      <trkpt lat="45.8132600" lon="6.7391753">
        <ele>1501.77</ele>
        <time>2019-09-03T12:52:41Z</time>
      </trkpt>
      <trkpt lat="45.8131954" lon="6.7390763">
        <ele>1501.67</ele>
        <time>2019-09-03T12:52:51Z</time>
      </trkpt>
      <trkpt lat="45.8131240" lon="6.7389884">
        <ele>1503.66</ele>
        <time>2019-09-03T12:53:01Z</time>
      </trkpt>
      <trkpt lat="45.8130254" lon="6.7389744">
        <ele>1503.59</ele>
        <time>2019-09-03T12:53:11Z</time>
      </trkpt>
      <trkpt lat="45.8129205" lon="6.7389421">
        <ele>1504.37</ele>
        <time>2019-09-03T12:53:21Z</time>
      </trkpt>
      <trkpt lat="45.8128157" lon="6.7389646">
        <ele>1504.59</ele>
        <time>2019-09-03T12:53:31Z</time>
      </trkpt>
      <trkpt lat="45.8127278" lon="6.7389356">
        <ele>1506.37</ele>
        <time>2019-09-03T12:53:41Z</time>
      </trkpt>
      <trkpt lat="45.8126331" lon="6.7389476">
        <ele>1506.67</ele>
        <time>2019-09-03T12:53:51Z</time>
      </trkpt>
      <trkpt lat="45.8125488" lon="6.7388919">
        <ele>1508.91</ele>
        <time>2019-09-03T12:54:01Z</time>
      </trkpt>
      <trkpt lat="45.8124692" lon="6.7387915">
        <ele>1508.67</ele>
        <time>2019-09-03T12:54:15Z</time>
      </trkpt>
      <trkpt lat="45.8124108" lon="6.7386907">
        <ele>1506.30</ele>
        <time>2019-09-03T12:54:25Z</time>
      </trkpt>
      <trkpt lat="45.8123401" lon="6.7385810">
        <ele>1504.00</ele>
        <time>2019-09-03T12:54:37Z</time>
      </trkpt>
      <trkpt lat="45.8122791" lon="6.7384674">
        <ele>1502.76</ele>
        <time>2019-09-03T12:54:47Z</time>
      </trkpt>
      <trkpt lat="45.8122428" lon="6.7383320">
        <ele>1503.64</ele>
        <time>2019-09-03T12:55:03Z</time>
      </trkpt>
      <trkpt lat="45.8122261" lon="6.7382029">
        <ele>1504.86</ele>
        <time>2019-09-03T12:55:15Z</time>
      </trkpt>
      <trkpt lat="45.8121765" lon="6.7380904">
        <ele>1506.37</ele>
        <time>2019-09-03T12:55:31Z</time>
      </trkpt>
      <trkpt lat="45.8121209" lon="6.7379538">
        <ele>1507.67</ele>
        <time>2019-09-03T12:55:43Z</time>
      </trkpt>
      <trkpt lat="45.8120318" lon="6.7378619">
        <ele>1509.28</ele>
        <time>2019-09-03T12:55:55Z</time>
      </trkpt>
      <trkpt lat="45.8119418" lon="6.7378015">
        <ele>1508.68</ele>
        <time>2019-09-03T12:56:05Z</time>
      </trkpt>
      <trkpt lat="45.8118507" lon="6.7377268">
        <ele>1509.37</ele>
        <time>2019-09-03T12:56:17Z</time>
      </trkpt>
      <trkpt lat="45.8117709" lon="6.7376320">
        <ele>1511.97</ele>
        <time>2019-09-03T12:56:33Z</time>
      </trkpt>
      <trkpt lat="45.8117128" lon="6.7375302">
        <ele>1509.75</ele>
        <time>2019-09-03T12:56:45Z</time>
      </trkpt>
      <trkpt lat="45.8116547" lon="6.7374289">
        <ele>1511.09</ele>
        <time>2019-09-03T12:56:55Z</time>
      </trkpt>
      <trkpt lat="45.8115853" lon="6.7373183">
        <ele>1511.67</ele>
        <time>2019-09-03T12:57:05Z</time>
      </trkpt>
      <trkpt lat="45.8115450" lon="6.7371875">
        <ele>1513.58</ele>
        <time>2019-09-03T12:57:17Z</time>
      </trkpt>
      <trkpt lat="45.8115249" lon="6.7370540">
        <ele>1514.67</ele>
        <time>2019-09-03T12:57:27Z</time>
      </trkpt>
      <trkpt lat="45.8114789" lon="6.7369153">
        <ele>1515.60</ele>
        <time>2019-09-03T12:57:37Z</time>
      </trkpt>
      <trkpt lat="45.8114018" lon="6.7368370">
        <ele>1516.67</ele>
        <time>2019-09-03T12:57:47Z</time>
      </trkpt>
      <trkpt lat="45.8113165" lon="6.7367931">
        <ele>1518.56</ele>
        <time>2019-09-03T12:57:57Z</time>
      </trkpt>
      <trkpt lat="45.8112285" lon="6.7367576">
        <ele>1518.65</ele>
        <time>2019-09-03T12:58:05Z</time>
      </trkpt>
      <trkpt lat="45.8111321" lon="6.7367222">
        <ele>1519.65</ele>
        <time>2019-09-03T12:58:15Z</time>
      </trkpt>
      <trkpt lat="45.8110411" lon="6.7366938">
        <ele>1520.65</ele>
        <time>2019-09-03T12:58:27Z</time>
      </trkpt>
      <trkpt lat="45.8109485" lon="6.7365999">
        <ele>1522.58</ele>
        <time>2019-09-03T12:58:39Z</time>
      </trkpt>
      <trkpt lat="45.8108896" lon="6.7364875">
        <ele>1521.70</ele>
        <time>2019-09-03T12:58:49Z</time>
      </trkpt>
      <trkpt lat="45.8108101" lon="6.7364087">
        <ele>1521.76</ele>
        <time>2019-09-03T12:58:57Z</time>
      </trkpt>
      <trkpt lat="45.8107018" lon="6.7363418">
        <ele>1520.97</ele>
        <time>2019-09-03T12:59:05Z</time>
      </trkpt>
      <trkpt lat="45.8106118" lon="6.7363359">
        <ele>1522.37</ele>
        <time>2019-09-03T12:59:13Z</time>
      </trkpt>
      <trkpt lat="45.8105048" lon="6.7363074">
        <ele>1524.37</ele>
        <time>2019-09-03T12:59:27Z</time>
      </trkpt>
      <trkpt lat="45.8104174" lon="6.7362734">
        <ele>1525.65</ele>
        <time>2019-09-03T12:59:39Z</time>
      </trkpt>
      <trkpt lat="45.8103218" lon="6.7362876">
        <ele>1525.67</ele>
        <time>2019-09-03T12:59:51Z</time>
      </trkpt>
      <trkpt lat="45.8102196" lon="6.7362986">
        <ele>1526.56</ele>
        <time>2019-09-03T13:00:03Z</time>
      </trkpt>
      <trkpt lat="45.8101161" lon="6.7362670">
        <ele>1528.67</ele>
        <time>2019-09-03T13:00:17Z</time>
      </trkpt>
      <trkpt lat="45.8100202" lon="6.7362216">
        <ele>1530.56</ele>
        <time>2019-09-03T13:00:27Z</time>
      </trkpt>
      <trkpt lat="45.8099199" lon="6.7361969">
        <ele>1530.40</ele>
        <time>2019-09-03T13:00:37Z</time>
      </trkpt>
      <trkpt lat="45.8098296" lon="6.7361663">
        <ele>1531.67</ele>
        <time>2019-09-03T13:00:49Z</time>
      </trkpt>
      <trkpt lat="45.8097276" lon="6.7361406">
        <ele>1534.62</ele>
        <time>2019-09-03T13:01:01Z</time>
      </trkpt>
      <trkpt lat="45.8096360" lon="6.7361317">
        <ele>1534.76</ele>
        <time>2019-09-03T13:01:13Z</time>
      </trkpt>
      <trkpt lat="45.8095603" lon="6.7360619">
        <ele>1534.67</ele>
        <time>2019-09-03T13:01:21Z</time>
      </trkpt>
      <trkpt lat="45.8094851" lon="6.7359738">
        <ele>1535.58</ele>
        <time>2019-09-03T13:01:29Z</time>
      </trkpt>
      <trkpt lat="45.8093977" lon="6.7359051">
        <ele>1536.65</ele>
        <time>2019-09-03T13:01:41Z</time>
      </trkpt>
      <trkpt lat="45.8093070" lon="6.7358709">
        <ele>1537.58</ele>
        <time>2019-09-03T13:01:51Z</time>
      </trkpt>
      <trkpt lat="45.8092174" lon="6.7357980">
        <ele>1537.67</ele>
        <time>2019-09-03T13:02:01Z</time>
      </trkpt>
      <trkpt lat="45.8091276" lon="6.7357458">
        <ele>1539.56</ele>
        <time>2019-09-03T13:02:11Z</time>
      </trkpt>
      <trkpt lat="45.8090172" lon="6.7357481">
        <ele>1541.37</ele>
        <time>2019-09-03T13:02:25Z</time>
      </trkpt>
      <trkpt lat="45.8089195" lon="6.7357167">
        <ele>1542.67</ele>
        <time>2019-09-03T13:02:35Z</time>
      </trkpt>
      <trkpt lat="45.8088149" lon="6.7356682">
        <ele>1543.67</ele>
        <time>2019-09-03T13:02:45Z</time>
      </trkpt>
      <trkpt lat="45.8087273" lon="6.7356378">
        <ele>1543.67</ele>
        <time>2019-09-03T13:02:53Z</time>
      </trkpt>
      <trkpt lat="45.8086226" lon="6.7356015">
        <ele>1544.67</ele>
        <time>2019-09-03T13:03:03Z</time>
      </trkpt>
      <trkpt lat="45.8085181" lon="6.7355553">
        <ele>1544.67</ele>
        <time>2019-09-03T13:03:15Z</time>
      </trkpt>
      <trkpt lat="45.8084439" lon="6.7356391">
        <ele>1544.65</ele>
        <time>2019-09-03T13:03:25Z</time>
      </trkpt>
      <trkpt lat="45.8083484" lon="6.7356588">
        <ele>1543.06</ele>
        <time>2019-09-03T13:03:33Z</time>
      </trkpt>
      <trkpt lat="45.8082373" lon="6.7356791">
        <ele>1541.70</ele>
        <time>2019-09-03T13:03:41Z</time>
      </trkpt>
      <trkpt lat="45.8081368" lon="6.7356608">
        <ele>1540.70</ele>
        <time>2019-09-03T13:03:49Z</time>
      </trkpt>
      <trkpt lat="45.8080397" lon="6.7356391">
        <ele>1540.67</ele>
        <time>2019-09-03T13:03:59Z</time>
      </trkpt>
      <trkpt lat="45.8079540" lon="6.7356996">
        <ele>1539.70</ele>
        <time>2019-09-03T13:04:07Z</time>
      </trkpt>
      <trkpt lat="45.8078576" lon="6.7357484">
        <ele>1540.16</ele>
        <time>2019-09-03T13:04:17Z</time>
      </trkpt>
      <trkpt lat="45.8077669" lon="6.7357767">
        <ele>1541.58</ele>
        <time>2019-09-03T13:04:27Z</time>
      </trkpt>
      <trkpt lat="45.8076745" lon="6.7357641">
        <ele>1543.67</ele>
        <time>2019-09-03T13:04:41Z</time>
      </trkpt>
      <trkpt lat="45.8075819" lon="6.7357163">
        <ele>1546.58</ele>
        <time>2019-09-03T13:04:57Z</time>
      </trkpt>
      <trkpt lat="45.8075009" lon="6.7357723">
        <ele>1550.28</ele>
        <time>2019-09-03T13:05:13Z</time>
      </trkpt>
      <trkpt lat="45.8074083" lon="6.7357171">
        <ele>1553.67</ele>
        <time>2019-09-03T13:05:29Z</time>
      </trkpt>
      <trkpt lat="45.8073148" lon="6.7357030">
        <ele>1554.58</ele>
        <time>2019-09-03T13:05:39Z</time>
      </trkpt>
      <trkpt lat="45.8072144" lon="6.7356631">
        <ele>1557.64</ele>
        <time>2019-09-03T13:05:51Z</time>
      </trkpt>
      <trkpt lat="45.8071161" lon="6.7357211">
        <ele>1560.66</ele>
        <time>2019-09-03T13:06:05Z</time>
      </trkpt>
      <trkpt lat="45.8070297" lon="6.7356799">
        <ele>1565.25</ele>
        <time>2019-09-03T13:06:17Z</time>
      </trkpt>
      <trkpt lat="45.8069367" lon="6.7356649">
        <ele>1566.58</ele>
        <time>2019-09-03T13:06:33Z</time>
      </trkpt>
      <trkpt lat="45.8068436" lon="6.7357032">
        <ele>1576.27</ele>
        <time>2019-09-03T13:07:03Z</time>
      </trkpt>
      <trkpt lat="45.8067395" lon="6.7357402">
        <ele>1577.65</ele>
        <time>2019-09-03T13:07:15Z</time>
      </trkpt>
      <trkpt lat="45.8066430" lon="6.7357440">
        <ele>1578.37</ele>
        <time>2019-09-03T13:07:31Z</time>
      </trkpt>
      <trkpt lat="45.8065467" lon="6.7357456">
        <ele>1578.67</ele>
        <time>2019-09-03T13:07:45Z</time>
      </trkpt>
      <trkpt lat="45.8064526" lon="6.7357995">
        <ele>1578.70</ele>
        <time>2019-09-03T13:07:55Z</time>
      </trkpt>
      <trkpt lat="45.8063569" lon="6.7358470">
        <ele>1582.34</ele>
        <time>2019-09-03T13:08:11Z</time>
      </trkpt>
      <trkpt lat="45.8062685" lon="6.7358116">
        <ele>1584.35</ele>
        <time>2019-09-03T13:08:27Z</time>
      </trkpt>
      <trkpt lat="45.8061766" lon="6.7357863">
        <ele>1586.35</ele>
        <time>2019-09-03T13:08:45Z</time>
      </trkpt>
      <trkpt lat="45.8061826" lon="6.7359246">
        <ele>1587.67</ele>
        <time>2019-09-03T13:09:01Z</time>
      </trkpt>
      <trkpt lat="45.8060773" lon="6.7359543">
        <ele>1590.74</ele>
        <time>2019-09-03T13:09:25Z</time>
      </trkpt>
      <trkpt lat="45.8060103" lon="6.7360534">
        <ele>1590.68</ele>
        <time>2019-09-03T13:09:35Z</time>
      </trkpt>
      <trkpt lat="45.8059411" lon="6.7361380">
        <ele>1590.67</ele>
        <time>2019-09-03T13:09:47Z</time>
      </trkpt>
      <trkpt lat="45.8058955" lon="6.7362557">
        <ele>1593.34</ele>
        <time>2019-09-03T13:10:01Z</time>
      </trkpt>
      <trkpt lat="45.8058220" lon="6.7363487">
        <ele>1596.58</ele>
        <time>2019-09-03T13:10:19Z</time>
      </trkpt>
      <trkpt lat="45.8057652" lon="6.7364777">
        <ele>1597.37</ele>
        <time>2019-09-03T13:10:35Z</time>
      </trkpt>
      <trkpt lat="45.8057076" lon="6.7365909">
        <ele>1600.57</ele>
        <time>2019-09-03T13:10:47Z</time>
      </trkpt>
      <trkpt lat="45.8056624" lon="6.7367147">
        <ele>1599.68</ele>
        <time>2019-09-03T13:10:59Z</time>
      </trkpt>
      <trkpt lat="45.8056424" lon="6.7368444">
        <ele>1601.37</ele>
        <time>2019-09-03T13:11:11Z</time>
      </trkpt>
      <trkpt lat="45.8056229" lon="6.7369741">
        <ele>1602.37</ele>
        <time>2019-09-03T13:11:21Z</time>
      </trkpt>
      <trkpt lat="45.8055613" lon="6.7370860">
        <ele>1602.67</ele>
        <time>2019-09-03T13:11:33Z</time>
      </trkpt>
      <trkpt lat="45.8054751" lon="6.7371673">
        <ele>1603.65</ele>
        <time>2019-09-03T13:11:45Z</time>
      </trkpt>
      <trkpt lat="45.8054155" lon="6.7372707">
        <ele>1605.37</ele>
        <time>2019-09-03T13:12:05Z</time>
      </trkpt>
      <trkpt lat="45.8053514" lon="6.7373744">
        <ele>1608.58</ele>
        <time>2019-09-03T13:12:19Z</time>
      </trkpt>
      <trkpt lat="45.8052654" lon="6.7374332">
        <ele>1613.28</ele>
        <time>2019-09-03T13:12:37Z</time>
      </trkpt>
      <trkpt lat="45.8051775" lon="6.7374667">
        <ele>1618.28</ele>
        <time>2019-09-03T13:12:57Z</time>
      </trkpt>
      <trkpt lat="45.8050819" lon="6.7374770">
        <ele>1622.34</ele>
        <time>2019-09-03T13:13:19Z</time>
      </trkpt>
      <trkpt lat="45.8049884" lon="6.7374451">
        <ele>1625.37</ele>
        <time>2019-09-03T13:13:39Z</time>
      </trkpt>
      <trkpt lat="45.8049155" lon="6.7373389">
        <ele>1628.34</ele>
        <time>2019-09-03T13:13:51Z</time>
      </trkpt>
      <trkpt lat="45.8048353" lon="6.7372778">
        <ele>1627.59</ele>
        <time>2019-09-03T13:14:37Z</time>
      </trkpt>
      <trkpt lat="45.8047508" lon="6.7372284">
        <ele>1639.57</ele>
        <time>2019-09-03T13:17:37Z</time>
      </trkpt>
      <trkpt lat="45.8046615" lon="6.7372888">
        <ele>1641.56</ele>
        <time>2019-09-03T13:17:59Z</time>
      </trkpt>
      <trkpt lat="45.8045659" lon="6.7373383">
        <ele>1643.35</ele>
        <time>2019-09-03T13:18:17Z</time>
      </trkpt>
      <trkpt lat="45.8044738" lon="6.7373449">
        <ele>1651.67</ele>
        <time>2019-09-03T13:18:57Z</time>
      </trkpt>
      <trkpt lat="45.8043886" lon="6.7374147">
        <ele>1649.70</ele>
        <time>2019-09-03T13:19:07Z</time>
      </trkpt>
      <trkpt lat="45.8042993" lon="6.7374588">
        <ele>1652.26</ele>
        <time>2019-09-03T13:19:27Z</time>
      </trkpt>
      <trkpt lat="45.8043065" lon="6.7376049">
        <ele>1654.74</ele>
        <time>2019-09-03T13:19:51Z</time>
      </trkpt>
      <trkpt lat="45.8043362" lon="6.7377277">
        <ele>1655.37</ele>
        <time>2019-09-03T13:20:03Z</time>
      </trkpt>
      <trkpt lat="45.8042400" lon="6.7376751">
        <ele>1658.66</ele>
        <time>2019-09-03T13:20:17Z</time>
      </trkpt>
      <trkpt lat="45.8041787" lon="6.7375782">
        <ele>1659.67</ele>
        <time>2019-09-03T13:20:29Z</time>
      </trkpt>
      <trkpt lat="45.8040975" lon="6.7374999">
        <ele>1661.58</ele>
        <time>2019-09-03T13:20:43Z</time>
      </trkpt>
      <trkpt lat="45.8040179" lon="6.7374212">
        <ele>1664.35</ele>
        <time>2019-09-03T13:20:57Z</time>
      </trkpt>
      <trkpt lat="45.8039428" lon="6.7373227">
        <ele>1669.35</ele>
        <time>2019-09-03T13:21:17Z</time>
      </trkpt>
      <trkpt lat="45.8038589" lon="6.7372516">
        <ele>1673.43</ele>
        <time>2019-09-03T13:21:33Z</time>
      </trkpt>
      <trkpt lat="45.8038558" lon="6.7373844">
        <ele>1675.67</ele>
        <time>2019-09-03T13:21:55Z</time>
      </trkpt>
      <trkpt lat="45.8037990" lon="6.7374885">
        <ele>1677.67</ele>
        <time>2019-09-03T13:22:21Z</time>
      </trkpt>
      <trkpt lat="45.8037192" lon="6.7374150">
        <ele>1679.67</ele>
        <time>2019-09-03T13:22:37Z</time>
      </trkpt>
      <trkpt lat="45.8036180" lon="6.7374054">
        <ele>1679.97</ele>
        <time>2019-09-03T13:22:51Z</time>
      </trkpt>
      <trkpt lat="45.8035237" lon="6.7373727">
        <ele>1683.57</ele>
        <time>2019-09-03T13:23:07Z</time>
      </trkpt>
      <trkpt lat="45.8034280" lon="6.7373745">
        <ele>1685.35</ele>
        <time>2019-09-03T13:23:21Z</time>
      </trkpt>
      <trkpt lat="45.8033555" lon="6.7374767">
        <ele>1688.34</ele>
        <time>2019-09-03T13:23:37Z</time>
      </trkpt>
      <trkpt lat="45.8032647" lon="6.7374699">
        <ele>1689.65</ele>
        <time>2019-09-03T13:23:51Z</time>
      </trkpt>
      <trkpt lat="45.8032496" lon="6.7376081">
        <ele>1691.67</ele>
        <time>2019-09-03T13:24:15Z</time>
      </trkpt>
      <trkpt lat="45.8033323" lon="6.7376903">
        <ele>1693.65</ele>
        <time>2019-09-03T13:24:29Z</time>
      </trkpt>
      <trkpt lat="45.8033898" lon="6.7378056">
        <ele>1694.67</ele>
        <time>2019-09-03T13:24:43Z</time>
      </trkpt>
      <trkpt lat="45.8033824" lon="6.7379356">
        <ele>1698.37</ele>
        <time>2019-09-03T13:25:03Z</time>
      </trkpt>
      <trkpt lat="45.8032876" lon="6.7378931">
        <ele>1702.55</ele>
        <time>2019-09-03T13:25:21Z</time>
      </trkpt>
      <trkpt lat="45.8031885" lon="6.7378665">
        <ele>1705.67</ele>
        <time>2019-09-03T13:25:39Z</time>
      </trkpt>
      <trkpt lat="45.8030999" lon="6.7377941">
        <ele>1709.35</ele>
        <time>2019-09-03T13:25:57Z</time>
      </trkpt>
      <trkpt lat="45.8030131" lon="6.7377557">
        <ele>1712.37</ele>
        <time>2019-09-03T13:26:13Z</time>
      </trkpt>
      <trkpt lat="45.8029334" lon="6.7376750">
        <ele>1713.58</ele>
        <time>2019-09-03T13:26:27Z</time>
      </trkpt>
      <trkpt lat="45.8028327" lon="6.7376707">
        <ele>1714.37</ele>
        <time>2019-09-03T13:26:41Z</time>
      </trkpt>
      <trkpt lat="45.8027389" lon="6.7375978">
        <ele>1714.65</ele>
        <time>2019-09-03T13:26:57Z</time>
      </trkpt>
      <trkpt lat="45.8026455" lon="6.7375762">
        <ele>1716.37</ele>
        <time>2019-09-03T13:27:09Z</time>
      </trkpt>
      <trkpt lat="45.8025579" lon="6.7375122">
        <ele>1718.60</ele>
        <time>2019-09-03T13:27:27Z</time>
      </trkpt>
      <trkpt lat="45.8024652" lon="6.7374761">
        <ele>1722.58</ele>
        <time>2019-09-03T13:27:43Z</time>
      </trkpt>
      <trkpt lat="45.8023938" lon="6.7373789">
        <ele>1722.67</ele>
        <time>2019-09-03T13:27:55Z</time>
      </trkpt>
      <trkpt lat="45.8023053" lon="6.7373477">
        <ele>1725.37</ele>
        <time>2019-09-03T13:28:07Z</time>
      </trkpt>
      <trkpt lat="45.8022088" lon="6.7373098">
        <ele>1727.37</ele>
        <time>2019-09-03T13:28:21Z</time>
      </trkpt>
      <trkpt lat="45.8021483" lon="6.7372106">
        <ele>1728.97</ele>
        <time>2019-09-03T13:28:37Z</time>
      </trkpt>
      <trkpt lat="45.8020556" lon="6.7371898">
        <ele>1732.96</ele>
        <time>2019-09-03T13:29:53Z</time>
      </trkpt>
      <trkpt lat="45.8019577" lon="6.7371689">
        <ele>1731.70</ele>
        <time>2019-09-03T13:30:03Z</time>
      </trkpt>
      <trkpt lat="45.8018802" lon="6.7372475">
        <ele>1736.57</ele>
        <time>2019-09-03T13:30:27Z</time>
      </trkpt>
      <trkpt lat="45.8019270" lon="6.7373766">
        <ele>1737.64</ele>
        <time>2019-09-03T13:30:41Z</time>
      </trkpt>
      <trkpt lat="45.8019633" lon="6.7375048">
        <ele>1738.37</ele>
        <time>2019-09-03T13:30:55Z</time>
      </trkpt>
      <trkpt lat="45.8019334" lon="6.7376388">
        <ele>1738.67</ele>
        <time>2019-09-03T13:31:07Z</time>
      </trkpt>
      <trkpt lat="45.8019712" lon="6.7377622">
        <ele>1738.70</ele>
        <time>2019-09-03T13:31:21Z</time>
      </trkpt>
      <trkpt lat="45.8020057" lon="6.7379048">
        <ele>1739.88</ele>
        <time>2019-09-03T13:31:37Z</time>
      </trkpt>
      <trkpt lat="45.8020563" lon="6.7380120">
        <ele>1740.58</ele>
        <time>2019-09-03T13:31:47Z</time>
      </trkpt>
      <trkpt lat="45.8021033" lon="6.7381333">
        <ele>1740.67</ele>
        <time>2019-09-03T13:31:57Z</time>
      </trkpt>
      <trkpt lat="45.8021319" lon="6.7382584">
        <ele>1741.65</ele>
        <time>2019-09-03T13:32:09Z</time>
      </trkpt>
      <trkpt lat="45.8021709" lon="6.7383813">
        <ele>1743.66</ele>
        <time>2019-09-03T13:32:19Z</time>
      </trkpt>
      <trkpt lat="45.8022184" lon="6.7384954">
        <ele>1745.65</ele>
        <time>2019-09-03T13:32:33Z</time>
      </trkpt>
      <trkpt lat="45.8022778" lon="6.7386158">
        <ele>1747.35</ele>
        <time>2019-09-03T13:32:45Z</time>
      </trkpt>
      <trkpt lat="45.8023334" lon="6.7387313">
        <ele>1748.37</ele>
        <time>2019-09-03T13:32:57Z</time>
      </trkpt>
      <trkpt lat="45.8023461" lon="6.7388607">
        <ele>1750.66</ele>
        <time>2019-09-03T13:33:09Z</time>
      </trkpt>
      <trkpt lat="45.8023437" lon="6.7390056">
        <ele>1752.64</ele>
        <time>2019-09-03T13:33:21Z</time>
      </trkpt>
      <trkpt lat="45.8023887" lon="6.7391331">
        <ele>1752.67</ele>
        <time>2019-09-03T13:33:33Z</time>
      </trkpt>
      <trkpt lat="45.8023977" lon="6.7392622">
        <ele>1755.98</ele>
        <time>2019-09-03T13:33:47Z</time>
      </trkpt>
      <trkpt lat="45.8024058" lon="6.7394071">
        <ele>1756.67</ele>
        <time>2019-09-03T13:33:59Z</time>
      </trkpt>
      <trkpt lat="45.8024313" lon="6.7395323">
        <ele>1757.65</ele>
        <time>2019-09-03T13:34:13Z</time>
      </trkpt>
      <trkpt lat="45.8024528" lon="6.7396695">
        <ele>1757.88</ele>
        <time>2019-09-03T13:34:27Z</time>
      </trkpt>
      <trkpt lat="45.8024473" lon="6.7398152">
        <ele>1759.37</ele>
        <time>2019-09-03T13:34:39Z</time>
      </trkpt>
      <trkpt lat="45.8024491" lon="6.7399465">
        <ele>1761.37</ele>
        <time>2019-09-03T13:34:51Z</time>
      </trkpt>
      <trkpt lat="45.8024753" lon="6.7400713">
        <ele>1762.65</ele>
        <time>2019-09-03T13:35:03Z</time>
      </trkpt>
      <trkpt lat="45.8024026" lon="6.7399949">
        <ele>1764.37</ele>
        <time>2019-09-03T13:35:45Z</time>
      </trkpt>
      <trkpt lat="45.8023404" lon="6.7398992">
        <ele>1766.39</ele>
        <time>2019-09-03T13:35:57Z</time>
      </trkpt>
      <trkpt lat="45.8022748" lon="6.7397830">
        <ele>1764.81</ele>
        <time>2019-09-03T13:36:11Z</time>
      </trkpt>
      <trkpt lat="45.8021925" lon="6.7397121">
        <ele>1771.36</ele>
        <time>2019-09-03T13:36:25Z</time>
      </trkpt>
      <trkpt lat="45.8021087" lon="6.7396274">
        <ele>1773.64</ele>
        <time>2019-09-03T13:36:39Z</time>
      </trkpt>
      <trkpt lat="45.8020309" lon="6.7395333">
        <ele>1774.67</ele>
        <time>2019-09-03T13:36:53Z</time>
      </trkpt>
      <trkpt lat="45.8019484" lon="6.7394728">
        <ele>1776.58</ele>
        <time>2019-09-03T13:37:03Z</time>
      </trkpt>
      <trkpt lat="45.8018413" lon="6.7394342">
        <ele>1776.67</ele>
        <time>2019-09-03T13:37:15Z</time>
      </trkpt>
      <trkpt lat="45.8017506" lon="6.7393766">
        <ele>1777.67</ele>
        <time>2019-09-03T13:37:27Z</time>
      </trkpt>
      <trkpt lat="45.8016571" lon="6.7393779">
        <ele>1779.64</ele>
        <time>2019-09-03T13:37:39Z</time>
      </trkpt>
      <trkpt lat="45.8015633" lon="6.7393536">
        <ele>1781.94</ele>
        <time>2019-09-03T13:37:53Z</time>
      </trkpt>
      <trkpt lat="45.8014647" lon="6.7393004">
        <ele>1782.88</ele>
        <time>2019-09-03T13:38:05Z</time>
      </trkpt>
      <trkpt lat="45.8013773" lon="6.7392620">
        <ele>1783.67</ele>
        <time>2019-09-03T13:38:19Z</time>
      </trkpt>
      <trkpt lat="45.8012883" lon="6.7392205">
        <ele>1783.59</ele>
        <time>2019-09-03T13:38:33Z</time>
      </trkpt>
      <trkpt lat="45.8011936" lon="6.7391985">
        <ele>1782.70</ele>
        <time>2019-09-03T13:38:45Z</time>
      </trkpt>
      <trkpt lat="45.8010953" lon="6.7391939">
        <ele>1784.58</ele>
        <time>2019-09-03T13:38:57Z</time>
      </trkpt>
      <trkpt lat="45.8010951" lon="6.7393319">
        <ele>1787.90</ele>
        <time>2019-09-03T13:39:31Z</time>
      </trkpt>
      <trkpt lat="45.8011614" lon="6.7394283">
        <ele>1788.61</ele>
        <time>2019-09-03T13:39:45Z</time>
      </trkpt>
      <trkpt lat="45.8012089" lon="6.7395504">
        <ele>1789.59</ele>
        <time>2019-09-03T13:39:59Z</time>
      </trkpt>
      <trkpt lat="45.8012399" lon="6.7396769">
        <ele>1790.75</ele>
        <time>2019-09-03T13:40:13Z</time>
      </trkpt>
      <trkpt lat="45.8012950" lon="6.7397792">
        <ele>1791.37</ele>
        <time>2019-09-03T13:40:25Z</time>
      </trkpt>
      <trkpt lat="45.8013493" lon="6.7399084">
        <ele>1793.35</ele>
        <time>2019-09-03T13:40:37Z</time>
      </trkpt>
      <trkpt lat="45.8014104" lon="6.7400136">
        <ele>1795.58</ele>
        <time>2019-09-03T13:40:49Z</time>
      </trkpt>
      <trkpt lat="45.8014582" lon="6.7401445">
        <ele>1796.65</ele>
        <time>2019-09-03T13:41:01Z</time>
      </trkpt>
      <trkpt lat="45.8015178" lon="6.7402437">
        <ele>1797.67</ele>
        <time>2019-09-03T13:41:11Z</time>
      </trkpt>
      <trkpt lat="45.8014268" lon="6.7402501">
        <ele>1800.44</ele>
        <time>2019-09-03T13:41:33Z</time>
      </trkpt>
      <trkpt lat="45.8013260" lon="6.7402265">
        <ele>1801.65</ele>
        <time>2019-09-03T13:41:47Z</time>
      </trkpt>
      <trkpt lat="45.8012414" lon="6.7401801">
        <ele>1802.67</ele>
        <time>2019-09-03T13:42:01Z</time>
      </trkpt>
      <trkpt lat="45.8011510" lon="6.7400965">
        <ele>1805.35</ele>
        <time>2019-09-03T13:42:15Z</time>
      </trkpt>
      <trkpt lat="45.8010468" lon="6.7400762">
        <ele>1807.65</ele>
        <time>2019-09-03T13:42:27Z</time>
      </trkpt>
      <trkpt lat="45.8009495" lon="6.7400602">
        <ele>1809.28</ele>
        <time>2019-09-03T13:42:43Z</time>
      </trkpt>
      <trkpt lat="45.8008528" lon="6.7400256">
        <ele>1811.61</ele>
        <time>2019-09-03T13:42:59Z</time>
      </trkpt>
      <trkpt lat="45.8007558" lon="6.7399950">
        <ele>1814.35</ele>
        <time>2019-09-03T13:43:13Z</time>
      </trkpt>
      <trkpt lat="45.8006655" lon="6.7399350">
        <ele>1815.67</ele>
        <time>2019-09-03T13:43:27Z</time>
      </trkpt>
      <trkpt lat="45.8005859" lon="6.7398456">
        <ele>1819.34</ele>
        <time>2019-09-03T13:43:45Z</time>
      </trkpt>
      <trkpt lat="45.8005222" lon="6.7397259">
        <ele>1822.35</ele>
        <time>2019-09-03T13:44:01Z</time>
      </trkpt>
      <trkpt lat="45.8005200" lon="6.7395846">
        <ele>1822.67</ele>
        <time>2019-09-03T13:44:13Z</time>
      </trkpt>
      <trkpt lat="45.8005177" lon="6.7394481">
        <ele>1824.37</ele>
        <time>2019-09-03T13:44:25Z</time>
      </trkpt>
      <trkpt lat="45.8004654" lon="6.7393393">
        <ele>1828.17</ele>
        <time>2019-09-03T13:44:37Z</time>
      </trkpt>
      <trkpt lat="45.8004408" lon="6.7391962">
        <ele>1828.67</ele>
        <time>2019-09-03T13:44:47Z</time>
      </trkpt>
      <trkpt lat="45.8004213" lon="6.7390436">
        <ele>1828.67</ele>
        <time>2019-09-03T13:44:59Z</time>
      </trkpt>
      <trkpt lat="45.8003920" lon="6.7389185">
        <ele>1828.97</ele>
        <time>2019-09-03T13:45:11Z</time>
      </trkpt>
      <trkpt lat="45.8003997" lon="6.7387859">
        <ele>1832.06</ele>
        <time>2019-09-03T13:45:21Z</time>
      </trkpt>
      <trkpt lat="45.8003641" lon="6.7386502">
        <ele>1833.67</ele>
        <time>2019-09-03T13:45:33Z</time>
      </trkpt>
      <trkpt lat="45.8002935" lon="6.7385292">
        <ele>1829.91</ele>
        <time>2019-09-03T13:45:41Z</time>
      </trkpt>
      <trkpt lat="45.8002477" lon="6.7384081">
        <ele>1828.83</ele>
        <time>2019-09-03T13:45:49Z</time>
      </trkpt>
      <trkpt lat="45.8002334" lon="6.7382752">
        <ele>1828.67</ele>
        <time>2019-09-03T13:45:59Z</time>
      </trkpt>
      <trkpt lat="45.8001567" lon="6.7381783">
        <ele>1826.98</ele>
        <time>2019-09-03T13:46:09Z</time>
      </trkpt>
      <trkpt lat="45.8000619" lon="6.7380998">
        <ele>1829.34</ele>
        <time>2019-09-03T13:46:21Z</time>
      </trkpt>
      <trkpt lat="45.7999702" lon="6.7380472">
        <ele>1829.61</ele>
        <time>2019-09-03T13:46:29Z</time>
      </trkpt>
      <trkpt lat="45.7998700" lon="6.7380463">
        <ele>1829.95</ele>
        <time>2019-09-03T13:46:39Z</time>
      </trkpt>
      <trkpt lat="45.7997684" lon="6.7380279">
        <ele>1830.67</ele>
        <time>2019-09-03T13:46:49Z</time>
      </trkpt>
      <trkpt lat="45.7996732" lon="6.7380406">
        <ele>1831.67</ele>
        <time>2019-09-03T13:46:59Z</time>
      </trkpt>
      <trkpt lat="45.7995730" lon="6.7380460">
        <ele>1832.65</ele>
        <time>2019-09-03T13:47:11Z</time>
      </trkpt>
      <trkpt lat="45.7994784" lon="6.7380500">
        <ele>1832.65</ele>
        <time>2019-09-03T13:48:27Z</time>
      </trkpt>
      <trkpt lat="45.7993780" lon="6.7380270">
        <ele>1833.44</ele>
        <time>2019-09-03T13:48:37Z</time>
      </trkpt>
      <trkpt lat="45.7992788" lon="6.7380558">
        <ele>1834.58</ele>
        <time>2019-09-03T13:48:47Z</time>
      </trkpt>
      <trkpt lat="45.7991821" lon="6.7380914">
        <ele>1834.76</ele>
        <time>2019-09-03T13:48:57Z</time>
      </trkpt>
      <trkpt lat="45.7990927" lon="6.7381166">
        <ele>1835.61</ele>
        <time>2019-09-03T13:49:07Z</time>
      </trkpt>
      <trkpt lat="45.7989897" lon="6.7381318">
        <ele>1837.58</ele>
        <time>2019-09-03T13:49:21Z</time>
      </trkpt>
      <trkpt lat="45.7988946" lon="6.7380964">
        <ele>1838.60</ele>
        <time>2019-09-03T13:49:33Z</time>
      </trkpt>
      <trkpt lat="45.7987920" lon="6.7380729">
        <ele>1839.67</ele>
        <time>2019-09-03T13:49:45Z</time>
      </trkpt>
      <trkpt lat="45.7986984" lon="6.7380788">
        <ele>1840.97</ele>
        <time>2019-09-03T13:49:59Z</time>
      </trkpt>
      <trkpt lat="45.7985958" lon="6.7380643">
        <ele>1840.67</ele>
        <time>2019-09-03T13:50:11Z</time>
      </trkpt>
      <trkpt lat="45.7985024" lon="6.7380353">
        <ele>1841.67</ele>
        <time>2019-09-03T13:50:21Z</time>
      </trkpt>
      <trkpt lat="45.7984127" lon="6.7380534">
        <ele>1842.46</ele>
        <time>2019-09-03T13:50:31Z</time>
      </trkpt>
      <trkpt lat="45.7983075" lon="6.7380882">
        <ele>1843.67</ele>
        <time>2019-09-03T13:50:43Z</time>
      </trkpt>
      <trkpt lat="45.7982193" lon="6.7381303">
        <ele>1844.67</ele>
        <time>2019-09-03T13:50:55Z</time>
      </trkpt>
      <trkpt lat="45.7981160" lon="6.7381364">
        <ele>1844.67</ele>
        <time>2019-09-03T13:51:13Z</time>
      </trkpt>
      <trkpt lat="45.7980372" lon="6.7381992">
        <ele>1846.37</ele>
        <time>2019-09-03T13:51:23Z</time>
      </trkpt>
      <trkpt lat="45.7979506" lon="6.7382930">
        <ele>1847.74</ele>
        <time>2019-09-03T13:54:23Z</time>
      </trkpt>
      <trkpt lat="45.7978664" lon="6.7383402">
        <ele>1848.67</ele>
        <time>2019-09-03T13:54:35Z</time>
      </trkpt>
      <trkpt lat="45.7977784" lon="6.7383115">
        <ele>1848.04</ele>
        <time>2019-09-03T13:54:47Z</time>
      </trkpt>
      <trkpt lat="45.7976974" lon="6.7384006">
        <ele>1851.63</ele>
        <time>2019-09-03T13:55:07Z</time>
      </trkpt>
      <trkpt lat="45.7976114" lon="6.7384528">
        <ele>1851.61</ele>
        <time>2019-09-03T13:55:17Z</time>
      </trkpt>
      <trkpt lat="45.7975120" lon="6.7385104">
        <ele>1851.67</ele>
        <time>2019-09-03T13:55:27Z</time>
      </trkpt>
      <trkpt lat="45.7974202" lon="6.7385470">
        <ele>1852.65</ele>
        <time>2019-09-03T13:55:37Z</time>
      </trkpt>
      <trkpt lat="45.7974667" lon="6.7386691">
        <ele>1854.65</ele>
        <time>2019-09-03T13:55:53Z</time>
      </trkpt>
      <trkpt lat="45.7975588" lon="6.7387194">
        <ele>1855.60</ele>
        <time>2019-09-03T13:56:05Z</time>
      </trkpt>
      <trkpt lat="45.7976571" lon="6.7387516">
        <ele>1855.67</ele>
        <time>2019-09-03T13:56:17Z</time>
      </trkpt>
      <trkpt lat="45.7977560" lon="6.7387442">
        <ele>1856.58</ele>
        <time>2019-09-03T13:56:29Z</time>
      </trkpt>
      <trkpt lat="45.7978553" lon="6.7387284">
        <ele>1855.76</ele>
        <time>2019-09-03T13:56:39Z</time>
      </trkpt>
      <trkpt lat="45.7979453" lon="6.7387615">
        <ele>1858.28</ele>
        <time>2019-09-03T13:56:49Z</time>
      </trkpt>
      <trkpt lat="45.7980372" lon="6.7386896">
        <ele>1859.58</ele>
        <time>2019-09-03T13:57:01Z</time>
      </trkpt>
      <trkpt lat="45.7981385" lon="6.7386622">
        <ele>1860.60</ele>
        <time>2019-09-03T13:57:13Z</time>
      </trkpt>
      <trkpt lat="45.7982285" lon="6.7386706">
        <ele>1860.67</ele>
        <time>2019-09-03T13:57:23Z</time>
      </trkpt>
      <trkpt lat="45.7983437" lon="6.7386795">
        <ele>1863.58</ele>
        <time>2019-09-03T13:57:49Z</time>
      </trkpt>
      <trkpt lat="45.7984343" lon="6.7387068">
        <ele>1865.64</ele>
        <time>2019-09-03T13:57:59Z</time>
      </trkpt>
      <trkpt lat="45.7983476" lon="6.7387618">
        <ele>1867.58</ele>
        <time>2019-09-03T13:58:27Z</time>
      </trkpt>
      <trkpt lat="45.7982541" lon="6.7388115">
        <ele>1869.43</ele>
        <time>2019-09-03T13:58:39Z</time>
      </trkpt>
      <trkpt lat="45.7981595" lon="6.7388737">
        <ele>1870.65</ele>
        <time>2019-09-03T13:58:51Z</time>
      </trkpt>
      <trkpt lat="45.7981065" lon="6.7389951">
        <ele>1871.67</ele>
        <time>2019-09-03T13:59:03Z</time>
      </trkpt>
      <trkpt lat="45.7980288" lon="6.7390808">
        <ele>1872.67</ele>
        <time>2019-09-03T13:59:15Z</time>
      </trkpt>
      <trkpt lat="45.7980488" lon="6.7392143">
        <ele>1871.97</ele>
        <time>2019-09-03T14:00:13Z</time>
      </trkpt>
      <trkpt lat="45.7980608" lon="6.7393686">
        <ele>1876.36</ele>
        <time>2019-09-03T14:00:27Z</time>
      </trkpt>
      <trkpt lat="45.7980140" lon="6.7394863">
        <ele>1877.67</ele>
        <time>2019-09-03T14:00:37Z</time>
      </trkpt>
      <trkpt lat="45.7979412" lon="6.7396038">
        <ele>1876.76</ele>
        <time>2019-09-03T14:00:47Z</time>
      </trkpt>
      <trkpt lat="45.7978460" lon="6.7396417">
        <ele>1877.95</ele>
        <time>2019-09-03T14:00:59Z</time>
      </trkpt>
      <trkpt lat="45.7977515" lon="6.7395949">
        <ele>1877.67</ele>
        <time>2019-09-03T14:01:11Z</time>
      </trkpt>
      <trkpt lat="45.7976497" lon="6.7395820">
        <ele>1880.58</ele>
        <time>2019-09-03T14:01:23Z</time>
      </trkpt>
      <trkpt lat="45.7975583" lon="6.7395954">
        <ele>1881.37</ele>
        <time>2019-09-03T14:01:33Z</time>
      </trkpt>
      <trkpt lat="45.7974587" lon="6.7395819">
        <ele>1882.64</ele>
        <time>2019-09-03T14:01:43Z</time>
      </trkpt>
      <trkpt lat="45.7973627" lon="6.7396043">
        <ele>1883.65</ele>
        <time>2019-09-03T14:01:53Z</time>
      </trkpt>
      <trkpt lat="45.7972715" lon="6.7396012">
        <ele>1885.37</ele>
        <time>2019-09-03T14:02:05Z</time>
      </trkpt>
      <trkpt lat="45.7971893" lon="6.7395189">
        <ele>1886.67</ele>
        <time>2019-09-03T14:02:19Z</time>
      </trkpt>
      <trkpt lat="45.7971020" lon="6.7394421">
        <ele>1887.67</ele>
        <time>2019-09-03T14:02:31Z</time>
      </trkpt>
      <trkpt lat="45.7970267" lon="6.7393586">
        <ele>1890.28</ele>
        <time>2019-09-03T14:02:43Z</time>
      </trkpt>
      <trkpt lat="45.7969391" lon="6.7392872">
        <ele>1893.34</ele>
        <time>2019-09-03T14:02:55Z</time>
      </trkpt>
      <trkpt lat="45.7968598" lon="6.7392250">
        <ele>1894.65</ele>
        <time>2019-09-03T14:03:11Z</time>
      </trkpt>
      <trkpt lat="45.7967718" lon="6.7391756">
        <ele>1896.65</ele>
        <time>2019-09-03T14:03:23Z</time>
      </trkpt>
      <trkpt lat="45.7966913" lon="6.7390996">
        <ele>1899.35</ele>
        <time>2019-09-03T14:03:35Z</time>
      </trkpt>
      <trkpt lat="45.7966085" lon="6.7390246">
        <ele>1899.74</ele>
        <time>2019-09-03T14:03:47Z</time>
      </trkpt>
      <trkpt lat="45.7965367" lon="6.7389197">
        <ele>1899.67</ele>
        <time>2019-09-03T14:03:59Z</time>
      </trkpt>
      <trkpt lat="45.7964620" lon="6.7388427">
        <ele>1900.65</ele>
        <time>2019-09-03T14:04:09Z</time>
      </trkpt>
      <trkpt lat="45.7963833" lon="6.7387795">
        <ele>1901.69</ele>
        <time>2019-09-03T14:04:23Z</time>
      </trkpt>
      <trkpt lat="45.7963157" lon="6.7386880">
        <ele>1903.67</ele>
        <time>2019-09-03T14:04:37Z</time>
      </trkpt>
      <trkpt lat="45.7962561" lon="6.7385670">
        <ele>1903.97</ele>
        <time>2019-09-03T14:04:49Z</time>
      </trkpt>
      <trkpt lat="45.7961801" lon="6.7384952">
        <ele>1904.67</ele>
        <time>2019-09-03T14:04:59Z</time>
      </trkpt>
      <trkpt lat="45.7961186" lon="6.7383718">
        <ele>1907.56</ele>
        <time>2019-09-03T14:05:13Z</time>
      </trkpt>
      <trkpt lat="45.7960298" lon="6.7382951">
        <ele>1912.36</ele>
        <time>2019-09-03T14:05:27Z</time>
      </trkpt>
      <trkpt lat="45.7959350" lon="6.7382247">
        <ele>1912.90</ele>
        <time>2019-09-03T14:05:41Z</time>
      </trkpt>
      <trkpt lat="45.7958601" lon="6.7381415">
        <ele>1914.58</ele>
        <time>2019-09-03T14:05:53Z</time>
      </trkpt>
      <trkpt lat="45.7957855" lon="6.7380474">
        <ele>1916.58</ele>
        <time>2019-09-03T14:06:05Z</time>
      </trkpt>
      <trkpt lat="45.7957054" lon="6.7379634">
        <ele>1918.56</ele>
        <time>2019-09-03T14:06:17Z</time>
      </trkpt>
      <trkpt lat="45.7956185" lon="6.7379169">
        <ele>1919.67</ele>
        <time>2019-09-03T14:06:29Z</time>
      </trkpt>
      <trkpt lat="45.7955269" lon="6.7378880">
        <ele>1920.58</ele>
        <time>2019-09-03T14:06:45Z</time>
      </trkpt>
      <trkpt lat="45.7954628" lon="6.7377769">
        <ele>1923.28</ele>
        <time>2019-09-03T14:06:59Z</time>
      </trkpt>
      <trkpt lat="45.7953758" lon="6.7377057">
        <ele>1924.37</ele>
        <time>2019-09-03T14:07:15Z</time>
      </trkpt>
      <trkpt lat="45.7952862" lon="6.7376474">
        <ele>1925.65</ele>
        <time>2019-09-03T14:07:27Z</time>
      </trkpt>
      <trkpt lat="45.7952123" lon="6.7375720">
        <ele>1926.65</ele>
        <time>2019-09-03T14:07:39Z</time>
      </trkpt>
      <trkpt lat="45.7951248" lon="6.7375304">
        <ele>1928.66</ele>
        <time>2019-09-03T14:07:53Z</time>
      </trkpt>
      <trkpt lat="45.7950544" lon="6.7374373">
        <ele>1931.67</ele>
        <time>2019-09-03T14:08:11Z</time>
      </trkpt>
      <trkpt lat="45.7949533" lon="6.7374225">
        <ele>1934.28</ele>
        <time>2019-09-03T14:08:25Z</time>
      </trkpt>
      <trkpt lat="45.7948643" lon="6.7374036">
        <ele>1934.40</ele>
        <time>2019-09-03T14:08:37Z</time>
      </trkpt>
      <trkpt lat="45.7947681" lon="6.7373973">
        <ele>1934.95</ele>
        <time>2019-09-03T14:08:49Z</time>
      </trkpt>
      <trkpt lat="45.7946771" lon="6.7373438">
        <ele>1935.65</ele>
        <time>2019-09-03T14:09:03Z</time>
      </trkpt>
      <trkpt lat="45.7945949" lon="6.7372857">
        <ele>1938.35</ele>
        <time>2019-09-03T14:09:15Z</time>
      </trkpt>
      <trkpt lat="45.7945148" lon="6.7372102">
        <ele>1939.58</ele>
        <time>2019-09-03T14:09:29Z</time>
      </trkpt>
      <trkpt lat="45.7944527" lon="6.7371159">
        <ele>1940.65</ele>
        <time>2019-09-03T14:09:45Z</time>
      </trkpt>
      <trkpt lat="45.7943499" lon="6.7371329">
        <ele>1940.67</ele>
        <time>2019-09-03T14:09:57Z</time>
      </trkpt>
      <trkpt lat="45.7942526" lon="6.7371223">
        <ele>1940.67</ele>
        <time>2019-09-03T14:10:09Z</time>
      </trkpt>
      <trkpt lat="45.7941618" lon="6.7371542">
        <ele>1941.58</ele>
        <time>2019-09-03T14:10:23Z</time>
      </trkpt>
      <trkpt lat="45.7940555" lon="6.7371590">
        <ele>1942.37</ele>
        <time>2019-09-03T14:10:37Z</time>
      </trkpt>
      <trkpt lat="45.7939667" lon="6.7371363">
        <ele>1943.67</ele>
        <time>2019-09-03T14:10:49Z</time>
      </trkpt>
      <trkpt lat="45.7938768" lon="6.7370882">
        <ele>1944.67</ele>
        <time>2019-09-03T14:10:59Z</time>
      </trkpt>
      <trkpt lat="45.7937791" lon="6.7370315">
        <ele>1947.34</ele>
        <time>2019-09-03T14:11:11Z</time>
      </trkpt>
      <trkpt lat="45.7936828" lon="6.7369836">
        <ele>1947.67</ele>
        <time>2019-09-03T14:11:25Z</time>
      </trkpt>
      <trkpt lat="45.7935891" lon="6.7369564">
        <ele>1949.35</ele>
        <time>2019-09-03T14:11:37Z</time>
      </trkpt>
      <trkpt lat="45.7935044" lon="6.7368824">
        <ele>1949.67</ele>
        <time>2019-09-03T14:11:47Z</time>
      </trkpt>
      <trkpt lat="45.7934171" lon="6.7368147">
        <ele>1950.59</ele>
        <time>2019-09-03T14:11:59Z</time>
      </trkpt>
      <trkpt lat="45.7933145" lon="6.7368162">
        <ele>1951.58</ele>
        <time>2019-09-03T14:12:11Z</time>
      </trkpt>
      <trkpt lat="45.7932209" lon="6.7367476">
        <ele>1951.66</ele>
        <time>2019-09-03T14:12:23Z</time>
      </trkpt>
      <trkpt lat="45.7931415" lon="6.7366801">
        <ele>1952.67</ele>
        <time>2019-09-03T14:12:35Z</time>
      </trkpt>
      <trkpt lat="45.7930493" lon="6.7366168">
        <ele>1952.67</ele>
        <time>2019-09-03T14:12:47Z</time>
      </trkpt>
      <trkpt lat="45.7929482" lon="6.7365715">
        <ele>1954.37</ele>
        <time>2019-09-03T14:12:59Z</time>
      </trkpt>
      <trkpt lat="45.7928690" lon="6.7365022">
        <ele>1954.67</ele>
        <time>2019-09-03T14:13:09Z</time>
      </trkpt>
      <trkpt lat="45.7927812" lon="6.7364423">
        <ele>1954.67</ele>
        <time>2019-09-03T14:13:21Z</time>
      </trkpt>
      <trkpt lat="45.7926905" lon="6.7363742">
        <ele>1955.67</ele>
        <time>2019-09-03T14:13:35Z</time>
      </trkpt>
      <trkpt lat="45.7926027" lon="6.7363160">
        <ele>1956.67</ele>
        <time>2019-09-03T14:13:45Z</time>
      </trkpt>
      <trkpt lat="45.7925535" lon="6.7361998">
        <ele>1956.67</ele>
        <time>2019-09-03T14:13:55Z</time>
      </trkpt>
      <trkpt lat="45.7924982" lon="6.7360837">
        <ele>1955.68</ele>
        <time>2019-09-03T14:14:07Z</time>
      </trkpt>
      <trkpt lat="45.7924192" lon="6.7360168">
        <ele>1955.74</ele>
        <time>2019-09-03T14:14:17Z</time>
      </trkpt>
      <trkpt lat="45.7923429" lon="6.7359225">
        <ele>1955.67</ele>
        <time>2019-09-03T14:14:27Z</time>
      </trkpt>
      <trkpt lat="45.7922824" lon="6.7358018">
        <ele>1955.61</ele>
        <time>2019-09-03T14:14:37Z</time>
      </trkpt>
      <trkpt lat="45.7922418" lon="6.7356626">
        <ele>1954.68</ele>
        <time>2019-09-03T14:14:49Z</time>
      </trkpt>
      <trkpt lat="45.7921563" lon="6.7355744">
        <ele>1954.67</ele>
        <time>2019-09-03T14:14:59Z</time>
      </trkpt>
      <trkpt lat="45.7920720" lon="6.7355263">
        <ele>1955.58</ele>
        <time>2019-09-03T14:15:07Z</time>
      </trkpt>
      <trkpt lat="45.7919814" lon="6.7354490">
        <ele>1955.67</ele>
        <time>2019-09-03T14:15:15Z</time>
      </trkpt>
      <trkpt lat="45.7919107" lon="6.7353592">
        <ele>1957.64</ele>
        <time>2019-09-03T14:15:25Z</time>
      </trkpt>
      <trkpt lat="45.7918414" lon="6.7352637">
        <ele>1961.34</ele>
        <time>2019-09-03T14:15:37Z</time>
      </trkpt>
      <trkpt lat="45.7918238" lon="6.7351215">
        <ele>1961.67</ele>
        <time>2019-09-03T14:15:47Z</time>
      </trkpt>
      <trkpt lat="45.7917797" lon="6.7349742">
        <ele>1961.67</ele>
        <time>2019-09-03T14:15:57Z</time>
      </trkpt>
      <trkpt lat="45.7918240" lon="6.7348376">
        <ele>1962.90</ele>
        <time>2019-09-03T14:16:11Z</time>
      </trkpt>
      <trkpt lat="45.7918523" lon="6.7350792">
        <ele>1961.67</ele>
        <time>2019-09-04T05:55:20Z</time>
      </trkpt>
      <trkpt lat="45.7219885" lon="6.7174078">
        <ele>2444.56</ele>
        <time>2019-09-04T13:10:41Z</time>
      </trkpt>
      <trkpt lat="45.7219885" lon="6.7174078">
        <ele>2444.56</ele>
        <time>2019-09-04T13:10:41Z</time>
      </trkpt>
      <trkpt lat="45.7918523" lon="6.7350792">
        <ele>1961.67</ele>
        <time>2019-09-04T05:55:20Z</time>
      </trkpt>
      <trkpt lat="45.7918334" lon="6.7349156">
        <ele>1963.21</ele>
        <time>2019-09-04T05:55:25Z</time>
      </trkpt>
      <trkpt lat="45.7917264" lon="6.7348867">
        <ele>1959.15</ele>
        <time>2019-09-04T05:55:43Z</time>
      </trkpt>
      <trkpt lat="45.7916465" lon="6.7349883">
        <ele>1959.42</ele>
        <time>2019-09-04T05:56:01Z</time>
      </trkpt>
      <trkpt lat="45.7915545" lon="6.7350395">
        <ele>1962.01</ele>
        <time>2019-09-04T05:56:21Z</time>
      </trkpt>
      <trkpt lat="45.7915033" lon="6.7351603">
        <ele>1964.47</ele>
        <time>2019-09-04T05:56:29Z</time>
      </trkpt>
      <trkpt lat="45.7915313" lon="6.7352932">
        <ele>1971.76</ele>
        <time>2019-09-04T05:56:45Z</time>
      </trkpt>
      <trkpt lat="45.7914896" lon="6.7354217">
        <ele>1970.57</ele>
        <time>2019-09-04T05:57:05Z</time>
      </trkpt>
      <trkpt lat="45.7915182" lon="6.7355572">
        <ele>1974.29</ele>
        <time>2019-09-04T05:57:25Z</time>
      </trkpt>
      <trkpt lat="45.7914445" lon="6.7356320">
        <ele>1971.08</ele>
        <time>2019-09-04T05:57:41Z</time>
      </trkpt>
      <trkpt lat="45.7914282" lon="6.7357729">
        <ele>1978.41</ele>
        <time>2019-09-04T05:58:03Z</time>
      </trkpt>
      <trkpt lat="45.7914628" lon="6.7359039">
        <ele>1976.99</ele>
        <time>2019-09-04T05:58:13Z</time>
      </trkpt>
      <trkpt lat="45.7914126" lon="6.7360229">
        <ele>1979.40</ele>
        <time>2019-09-04T05:58:31Z</time>
      </trkpt>
      <trkpt lat="45.7914298" lon="6.7361611">
        <ele>1976.26</ele>
        <time>2019-09-04T05:58:49Z</time>
      </trkpt>
      <trkpt lat="45.7914702" lon="6.7362950">
        <ele>1974.32</ele>
        <time>2019-09-04T05:58:59Z</time>
      </trkpt>
      <trkpt lat="45.7914725" lon="6.7364580">
        <ele>1978.35</ele>
        <time>2019-09-04T05:59:29Z</time>
      </trkpt>
      <trkpt lat="45.7914956" lon="6.7365853">
        <ele>1973.89</ele>
        <time>2019-09-04T05:59:39Z</time>
      </trkpt>
      <trkpt lat="45.7914761" lon="6.7367385">
        <ele>1982.94</ele>
        <time>2019-09-04T05:59:51Z</time>
      </trkpt>
      <trkpt lat="45.7914751" lon="6.7368801">
        <ele>1987.54</ele>
        <time>2019-09-04T06:00:03Z</time>
      </trkpt>
      <trkpt lat="45.7914397" lon="6.7370025">
        <ele>1987.42</ele>
        <time>2019-09-04T06:00:11Z</time>
      </trkpt>
      <trkpt lat="45.7913843" lon="6.7371093">
        <ele>1991.38</ele>
        <time>2019-09-04T06:00:23Z</time>
      </trkpt>
      <trkpt lat="45.7912860" lon="6.7370941">
        <ele>1987.53</ele>
        <time>2019-09-04T06:00:35Z</time>
      </trkpt>
      <trkpt lat="45.7912006" lon="6.7371679">
        <ele>1985.76</ele>
        <time>2019-09-04T06:00:47Z</time>
      </trkpt>
      <trkpt lat="45.7911770" lon="6.7373130">
        <ele>1988.60</ele>
        <time>2019-09-04T06:00:57Z</time>
      </trkpt>
      <trkpt lat="45.7911525" lon="6.7374703">
        <ele>1989.44</ele>
        <time>2019-09-04T06:01:11Z</time>
      </trkpt>
      <trkpt lat="45.7911383" lon="6.7376320">
        <ele>1986.61</ele>
        <time>2019-09-04T06:01:21Z</time>
      </trkpt>
      <trkpt lat="45.7911229" lon="6.7377731">
        <ele>1987.81</ele>
        <time>2019-09-04T06:01:31Z</time>
      </trkpt>
      <trkpt lat="45.7910728" lon="6.7379046">
        <ele>1986.33</ele>
        <time>2019-09-04T06:01:43Z</time>
      </trkpt>
      <trkpt lat="45.7911162" lon="6.7380636">
        <ele>1980.36</ele>
        <time>2019-09-04T06:01:51Z</time>
      </trkpt>
      <trkpt lat="45.7911337" lon="6.7381969">
        <ele>1982.07</ele>
        <time>2019-09-04T06:01:57Z</time>
      </trkpt>
      <trkpt lat="45.7910316" lon="6.7381769">
        <ele>1985.07</ele>
        <time>2019-09-04T06:02:05Z</time>
      </trkpt>
      <trkpt lat="45.7909457" lon="6.7382620">
        <ele>1989.77</ele>
        <time>2019-09-04T06:02:13Z</time>
      </trkpt>
      <trkpt lat="45.7909470" lon="6.7384081">
        <ele>1987.14</ele>
        <time>2019-09-04T06:02:31Z</time>
      </trkpt>
      <trkpt lat="45.7908757" lon="6.7384881">
        <ele>1995.61</ele>
        <time>2019-09-04T06:02:51Z</time>
      </trkpt>
      <trkpt lat="45.7908052" lon="6.7386059">
        <ele>1998.32</ele>
        <time>2019-09-04T06:03:13Z</time>
      </trkpt>
      <trkpt lat="45.7908521" lon="6.7387173">
        <ele>1999.88</ele>
        <time>2019-09-04T06:03:55Z</time>
      </trkpt>
      <trkpt lat="45.7909349" lon="6.7387876">
        <ele>1997.99</ele>
        <time>2019-09-04T06:04:13Z</time>
      </trkpt>
      <trkpt lat="45.7909914" lon="6.7388914">
        <ele>2001.30</ele>
        <time>2019-09-04T06:04:33Z</time>
      </trkpt>
      <trkpt lat="45.7910244" lon="6.7390401">
        <ele>1998.92</ele>
        <time>2019-09-04T06:05:03Z</time>
      </trkpt>
      <trkpt lat="45.7909456" lon="6.7391318">
        <ele>2010.54</ele>
        <time>2019-09-04T06:05:31Z</time>
      </trkpt>
      <trkpt lat="45.7910018" lon="6.7392422">
        <ele>2011.93</ele>
        <time>2019-09-04T06:05:49Z</time>
      </trkpt>
      <trkpt lat="45.7910808" lon="6.7393196">
        <ele>2018.06</ele>
        <time>2019-09-04T06:06:13Z</time>
      </trkpt>
      <trkpt lat="45.7909768" lon="6.7393007">
        <ele>2033.48</ele>
        <time>2019-09-04T06:06:45Z</time>
      </trkpt>
      <trkpt lat="45.7909175" lon="6.7394003">
        <ele>2031.94</ele>
        <time>2019-09-04T06:07:09Z</time>
      </trkpt>
      <trkpt lat="45.7908450" lon="6.7394855">
        <ele>2030.20</ele>
        <time>2019-09-04T06:07:19Z</time>
      </trkpt>
      <trkpt lat="45.7908224" lon="6.7396448">
        <ele>2005.21</ele>
        <time>2019-09-04T06:07:29Z</time>
      </trkpt>
      <trkpt lat="45.7908324" lon="6.7397788">
        <ele>2021.65</ele>
        <time>2019-09-04T06:07:39Z</time>
      </trkpt>
      <trkpt lat="45.7908323" lon="6.7399113">
        <ele>2028.96</ele>
        <time>2019-09-04T06:07:51Z</time>
      </trkpt>
      <trkpt lat="45.7908381" lon="6.7400468">
        <ele>2031.57</ele>
        <time>2019-09-04T06:07:59Z</time>
      </trkpt>
      <trkpt lat="45.7908185" lon="6.7401808">
        <ele>2033.45</ele>
        <time>2019-09-04T06:08:11Z</time>
      </trkpt>
      <trkpt lat="45.7907921" lon="6.7403262">
        <ele>2032.56</ele>
        <time>2019-09-04T06:08:25Z</time>
      </trkpt>
      <trkpt lat="45.7908164" lon="6.7404622">
        <ele>2037.05</ele>
        <time>2019-09-04T06:08:35Z</time>
      </trkpt>
      <trkpt lat="45.7907945" lon="6.7406161">
        <ele>2038.51</ele>
        <time>2019-09-04T06:09:07Z</time>
      </trkpt>
      <trkpt lat="45.7908095" lon="6.7407727">
        <ele>2038.26</ele>
        <time>2019-09-04T06:09:29Z</time>
      </trkpt>
      <trkpt lat="45.7907698" lon="6.7408997">
        <ele>2039.35</ele>
        <time>2019-09-04T06:09:37Z</time>
      </trkpt>
      <trkpt lat="45.7908164" lon="6.7410245">
        <ele>2043.17</ele>
        <time>2019-09-04T06:09:53Z</time>
      </trkpt>
      <trkpt lat="45.7908019" lon="6.7411794">
        <ele>2042.43</ele>
        <time>2019-09-04T06:10:03Z</time>
      </trkpt>
      <trkpt lat="45.7907383" lon="6.7412756">
        <ele>2033.53</ele>
        <time>2019-09-04T06:10:33Z</time>
      </trkpt>
      <trkpt lat="45.7907294" lon="6.7414244">
        <ele>2056.28</ele>
        <time>2019-09-04T06:11:31Z</time>
      </trkpt>
      <trkpt lat="45.7907267" lon="6.7415590">
        <ele>2049.40</ele>
        <time>2019-09-04T06:11:51Z</time>
      </trkpt>
      <trkpt lat="45.7907756" lon="6.7417020">
        <ele>2045.56</ele>
        <time>2019-09-04T06:11:59Z</time>
      </trkpt>
      <trkpt lat="45.7907462" lon="6.7418573">
        <ele>2044.66</ele>
        <time>2019-09-04T06:12:11Z</time>
      </trkpt>
      <trkpt lat="45.7907530" lon="6.7420284">
        <ele>2045.88</ele>
        <time>2019-09-04T06:12:25Z</time>
      </trkpt>
      <trkpt lat="45.7907776" lon="6.7421542">
        <ele>2049.80</ele>
        <time>2019-09-04T06:12:39Z</time>
      </trkpt>
      <trkpt lat="45.7907884" lon="6.7423020">
        <ele>2051.80</ele>
        <time>2019-09-04T06:12:49Z</time>
      </trkpt>
      <trkpt lat="45.7907273" lon="6.7424049">
        <ele>2044.00</ele>
        <time>2019-09-04T06:14:18Z</time>
      </trkpt>
      <trkpt lat="45.7906691" lon="6.7425174">
        <ele>2047.42</ele>
        <time>2019-09-04T06:14:46Z</time>
      </trkpt>
      <trkpt lat="45.7906318" lon="6.7426434">
        <ele>2046.14</ele>
        <time>2019-09-04T06:15:04Z</time>
      </trkpt>
      <trkpt lat="45.7906097" lon="6.7427708">
        <ele>2048.30</ele>
        <time>2019-09-04T06:15:36Z</time>
      </trkpt>
      <trkpt lat="45.7906359" lon="6.7429059">
        <ele>2044.39</ele>
        <time>2019-09-04T06:15:52Z</time>
      </trkpt>
      <trkpt lat="45.7906752" lon="6.7430370">
        <ele>2047.25</ele>
        <time>2019-09-04T06:16:00Z</time>
      </trkpt>
      <trkpt lat="45.7906900" lon="6.7431998">
        <ele>2043.72</ele>
        <time>2019-09-04T06:16:10Z</time>
      </trkpt>
      <trkpt lat="45.7907354" lon="6.7433150">
        <ele>2045.81</ele>
        <time>2019-09-04T06:16:28Z</time>
      </trkpt>
      <trkpt lat="45.7907391" lon="6.7434505">
        <ele>2046.96</ele>
        <time>2019-09-04T06:16:58Z</time>
      </trkpt>
      <trkpt lat="45.7906483" lon="6.7434741">
        <ele>2048.67</ele>
        <time>2019-09-04T06:18:12Z</time>
      </trkpt>
      <trkpt lat="45.7907210" lon="6.7435708">
        <ele>2049.37</ele>
        <time>2019-09-04T06:21:07Z</time>
      </trkpt>
      <trkpt lat="45.7906634" lon="6.7439355">
        <ele>2045.94</ele>
        <time>2019-09-04T06:21:18Z</time>
      </trkpt>
      <trkpt lat="45.7906465" lon="6.7440644">
        <ele>2039.84</ele>
        <time>2019-09-04T06:21:31Z</time>
      </trkpt>
      <trkpt lat="45.7906849" lon="6.7442070">
        <ele>2039.48</ele>
        <time>2019-09-04T06:21:39Z</time>
      </trkpt>
      <trkpt lat="45.7907052" lon="6.7443404">
        <ele>2044.18</ele>
        <time>2019-09-04T06:21:47Z</time>
      </trkpt>
      <trkpt lat="45.7907026" lon="6.7445126">
        <ele>2045.27</ele>
        <time>2019-09-04T06:21:59Z</time>
      </trkpt>
      <trkpt lat="45.7906609" lon="6.7446278">
        <ele>2047.62</ele>
        <time>2019-09-04T06:22:24Z</time>
      </trkpt>
      <trkpt lat="45.7907034" lon="6.7447679">
        <ele>2047.27</ele>
        <time>2019-09-04T06:22:32Z</time>
      </trkpt>
      <trkpt lat="45.7907674" lon="6.7448713">
        <ele>2050.20</ele>
        <time>2019-09-04T06:22:42Z</time>
      </trkpt>
      <trkpt lat="45.7907109" lon="6.7449845">
        <ele>2046.84</ele>
        <time>2019-09-04T06:22:54Z</time>
      </trkpt>
      <trkpt lat="45.7907359" lon="6.7451321">
        <ele>2048.63</ele>
        <time>2019-09-04T06:23:04Z</time>
      </trkpt>
      <trkpt lat="45.7907257" lon="6.7452705">
        <ele>2051.57</ele>
        <time>2019-09-04T06:23:14Z</time>
      </trkpt>
      <trkpt lat="45.7907339" lon="6.7454213">
        <ele>2057.37</ele>
        <time>2019-09-04T06:23:26Z</time>
      </trkpt>
      <trkpt lat="45.7907330" lon="6.7455588">
        <ele>2058.15</ele>
        <time>2019-09-04T06:23:36Z</time>
      </trkpt>
      <trkpt lat="45.7907192" lon="6.7456962">
        <ele>2050.52</ele>
        <time>2019-09-04T06:24:02Z</time>
      </trkpt>
      <trkpt lat="45.7906493" lon="6.7457876">
        <ele>2050.25</ele>
        <time>2019-09-04T06:24:10Z</time>
      </trkpt>
      <trkpt lat="45.7906472" lon="6.7459380">
        <ele>2051.85</ele>
        <time>2019-09-04T06:24:16Z</time>
      </trkpt>
      <trkpt lat="45.7905343" lon="6.7459577">
        <ele>2049.79</ele>
        <time>2019-09-04T06:24:28Z</time>
      </trkpt>
      <trkpt lat="45.7904378" lon="6.7459218">
        <ele>2043.77</ele>
        <time>2019-09-04T06:24:42Z</time>
      </trkpt>
      <trkpt lat="45.7903305" lon="6.7459231">
        <ele>2037.89</ele>
        <time>2019-09-04T06:25:06Z</time>
      </trkpt>
      <trkpt lat="45.7902754" lon="6.7457805">
        <ele>2034.61</ele>
        <time>2019-09-04T06:25:12Z</time>
      </trkpt>
      <trkpt lat="45.7903566" lon="6.7457127">
        <ele>2034.42</ele>
        <time>2019-09-04T06:27:37Z</time>
      </trkpt>
      <trkpt lat="45.7904345" lon="6.7458293">
        <ele>2033.27</ele>
        <time>2019-09-04T06:31:26Z</time>
      </trkpt>
      <trkpt lat="45.7905276" lon="6.7458572">
        <ele>2034.90</ele>
        <time>2019-09-04T06:31:54Z</time>
      </trkpt>
      <trkpt lat="45.7906160" lon="6.7457991">
        <ele>2041.79</ele>
        <time>2019-09-04T06:32:22Z</time>
      </trkpt>
      <trkpt lat="45.7906764" lon="6.7457001">
        <ele>2046.65</ele>
        <time>2019-09-04T06:32:42Z</time>
      </trkpt>
      <trkpt lat="45.7907083" lon="6.7455751">
        <ele>2049.18</ele>
        <time>2019-09-04T06:32:54Z</time>
      </trkpt>
      <trkpt lat="45.7906895" lon="6.7454210">
        <ele>2052.37</ele>
        <time>2019-09-04T06:33:23Z</time>
      </trkpt>
      <trkpt lat="45.7906907" lon="6.7452630">
        <ele>2051.95</ele>
        <time>2019-09-04T06:33:34Z</time>
      </trkpt>
      <trkpt lat="45.7907148" lon="6.7451294">
        <ele>2054.93</ele>
        <time>2019-09-04T06:33:45Z</time>
      </trkpt>
      <trkpt lat="45.7907016" lon="6.7449673">
        <ele>2054.68</ele>
        <time>2019-09-04T06:34:03Z</time>
      </trkpt>
      <trkpt lat="45.7906914" lon="6.7448289">
        <ele>2053.36</ele>
        <time>2019-09-04T06:34:15Z</time>
      </trkpt>
      <trkpt lat="45.7907145" lon="6.7446855">
        <ele>2052.30</ele>
        <time>2019-09-04T06:34:35Z</time>
      </trkpt>
      <trkpt lat="45.7907559" lon="6.7445684">
        <ele>2050.15</ele>
        <time>2019-09-04T06:34:49Z</time>
      </trkpt>
      <trkpt lat="45.7906825" lon="6.7444705">
        <ele>2047.92</ele>
        <time>2019-09-04T06:34:59Z</time>
      </trkpt>
      <trkpt lat="45.7906872" lon="6.7443201">
        <ele>2048.68</ele>
        <time>2019-09-04T06:35:09Z</time>
      </trkpt>
      <trkpt lat="45.7907177" lon="6.7441734">
        <ele>2046.28</ele>
        <time>2019-09-04T06:35:23Z</time>
      </trkpt>
      <trkpt lat="45.7906362" lon="6.7440865">
        <ele>2044.20</ele>
        <time>2019-09-04T06:35:31Z</time>
      </trkpt>
      <trkpt lat="45.7906090" lon="6.7439415">
        <ele>2043.00</ele>
        <time>2019-09-04T06:35:55Z</time>
      </trkpt>
      <trkpt lat="45.7906251" lon="6.7438052">
        <ele>2042.67</ele>
        <time>2019-09-04T06:36:09Z</time>
      </trkpt>
      <trkpt lat="45.7906025" lon="6.7436590">
        <ele>2044.80</ele>
        <time>2019-09-04T06:36:27Z</time>
      </trkpt>
      <trkpt lat="45.7905978" lon="6.7434950">
        <ele>2052.91</ele>
        <time>2019-09-04T06:36:34Z</time>
      </trkpt>
      <trkpt lat="45.7906379" lon="6.7433740">
        <ele>2055.29</ele>
        <time>2019-09-04T06:36:46Z</time>
      </trkpt>
      <trkpt lat="45.7906112" lon="6.7432292">
        <ele>2064.38</ele>
        <time>2019-09-04T06:37:21Z</time>
      </trkpt>
      <trkpt lat="45.7905902" lon="6.7430919">
        <ele>2071.80</ele>
        <time>2019-09-04T06:38:23Z</time>
      </trkpt>
      <trkpt lat="45.7905655" lon="6.7429464">
        <ele>2052.75</ele>
        <time>2019-09-04T06:38:53Z</time>
      </trkpt>
      <trkpt lat="45.7905752" lon="6.7427893">
        <ele>2049.67</ele>
        <time>2019-09-04T06:39:18Z</time>
      </trkpt>
      <trkpt lat="45.7905959" lon="6.7426535">
        <ele>2049.43</ele>
        <time>2019-09-04T06:39:26Z</time>
      </trkpt>
      <trkpt lat="45.7906661" lon="6.7425533">
        <ele>2047.91</ele>
        <time>2019-09-04T06:39:58Z</time>
      </trkpt>
      <trkpt lat="45.7906665" lon="6.7424111">
        <ele>2047.81</ele>
        <time>2019-09-04T06:40:08Z</time>
      </trkpt>
      <trkpt lat="45.7907401" lon="6.7423242">
        <ele>2045.98</ele>
        <time>2019-09-04T06:40:16Z</time>
      </trkpt>
      <trkpt lat="45.7907828" lon="6.7422042">
        <ele>2052.34</ele>
        <time>2019-09-04T06:40:52Z</time>
      </trkpt>
      <trkpt lat="45.7907183" lon="6.7422997">
        <ele>2058.56</ele>
        <time>2019-09-04T06:41:26Z</time>
      </trkpt>
      <trkpt lat="45.7907035" lon="6.7421717">
        <ele>2058.38</ele>
        <time>2019-09-04T06:42:56Z</time>
      </trkpt>
      <trkpt lat="45.7906768" lon="6.7420469">
        <ele>2058.98</ele>
        <time>2019-09-04T06:43:12Z</time>
      </trkpt>
      <trkpt lat="45.7906865" lon="6.7418985">
        <ele>2058.97</ele>
        <time>2019-09-04T06:43:20Z</time>
      </trkpt>
      <trkpt lat="45.7907052" lon="6.7417641">
        <ele>2056.31</ele>
        <time>2019-09-04T06:43:28Z</time>
      </trkpt>
      <trkpt lat="45.7907008" lon="6.7416313">
        <ele>2055.70</ele>
        <time>2019-09-04T06:43:36Z</time>
      </trkpt>
      <trkpt lat="45.7907216" lon="6.7414988">
        <ele>2056.86</ele>
        <time>2019-09-04T06:43:44Z</time>
      </trkpt>
      <trkpt lat="45.7907640" lon="6.7413787">
        <ele>2058.98</ele>
        <time>2019-09-04T06:43:52Z</time>
      </trkpt>
      <trkpt lat="45.7907427" lon="6.7412083">
        <ele>2056.42</ele>
        <time>2019-09-04T06:44:00Z</time>
      </trkpt>
      <trkpt lat="45.7907925" lon="6.7410716">
        <ele>2052.72</ele>
        <time>2019-09-04T06:44:08Z</time>
      </trkpt>
      <trkpt lat="45.7908268" lon="6.7409199">
        <ele>2055.57</ele>
        <time>2019-09-04T06:44:18Z</time>
      </trkpt>
      <trkpt lat="45.7908077" lon="6.7407708">
        <ele>2056.67</ele>
        <time>2019-09-04T06:44:26Z</time>
      </trkpt>
      <trkpt lat="45.7907749" lon="6.7406266">
        <ele>2055.12</ele>
        <time>2019-09-04T06:44:40Z</time>
      </trkpt>
      <trkpt lat="45.7907777" lon="6.7404925">
        <ele>2050.45</ele>
        <time>2019-09-04T06:44:52Z</time>
      </trkpt>
      <trkpt lat="45.7908183" lon="6.7403590">
        <ele>2051.65</ele>
        <time>2019-09-04T06:45:02Z</time>
      </trkpt>
      <trkpt lat="45.7908248" lon="6.7402288">
        <ele>2052.40</ele>
        <time>2019-09-04T06:45:14Z</time>
      </trkpt>
      <trkpt lat="45.7908810" lon="6.7400888">
        <ele>2048.53</ele>
        <time>2019-09-04T06:45:36Z</time>
      </trkpt>
      <trkpt lat="45.7908016" lon="6.7399961">
        <ele>2047.06</ele>
        <time>2019-09-04T06:45:42Z</time>
      </trkpt>
      <trkpt lat="45.7908108" lon="6.7398508">
        <ele>2047.29</ele>
        <time>2019-09-04T06:45:52Z</time>
      </trkpt>
      <trkpt lat="45.7907949" lon="6.7397160">
        <ele>2041.37</ele>
        <time>2019-09-04T06:46:02Z</time>
      </trkpt>
      <trkpt lat="45.7907970" lon="6.7395464">
        <ele>2043.56</ele>
        <time>2019-09-04T06:46:14Z</time>
      </trkpt>
      <trkpt lat="45.7908334" lon="6.7394225">
        <ele>2043.00</ele>
        <time>2019-09-04T06:46:22Z</time>
      </trkpt>
      <trkpt lat="45.7909107" lon="6.7393365">
        <ele>2044.64</ele>
        <time>2019-09-04T06:46:34Z</time>
      </trkpt>
      <trkpt lat="45.7909794" lon="6.7392408">
        <ele>2044.25</ele>
        <time>2019-09-04T06:46:52Z</time>
      </trkpt>
      <trkpt lat="45.7910676" lon="6.7392771">
        <ele>2044.55</ele>
        <time>2019-09-04T06:47:24Z</time>
      </trkpt>
      <trkpt lat="45.7909739" lon="6.7392823">
        <ele>2042.16</ele>
        <time>2019-09-04T06:47:52Z</time>
      </trkpt>
      <trkpt lat="45.7909539" lon="6.7391406">
        <ele>2042.68</ele>
        <time>2019-09-04T06:48:10Z</time>
      </trkpt>
      <trkpt lat="45.7908921" lon="6.7390288">
        <ele>2040.66</ele>
        <time>2019-09-04T06:48:24Z</time>
      </trkpt>
      <trkpt lat="45.7908968" lon="6.7388937">
        <ele>2035.37</ele>
        <time>2019-09-04T06:48:44Z</time>
      </trkpt>
      <trkpt lat="45.7909078" lon="6.7387591">
        <ele>2025.65</ele>
        <time>2019-09-04T06:49:28Z</time>
      </trkpt>
      <trkpt lat="45.7908294" lon="6.7386857">
        <ele>2016.70</ele>
        <time>2019-09-04T06:49:56Z</time>
      </trkpt>
      <trkpt lat="45.7907307" lon="6.7386802">
        <ele>2013.62</ele>
        <time>2019-09-04T06:50:16Z</time>
      </trkpt>
      <trkpt lat="45.7906762" lon="6.7385720">
        <ele>2013.87</ele>
        <time>2019-09-04T06:50:28Z</time>
      </trkpt>
      <trkpt lat="45.7906014" lon="6.7384786">
        <ele>2010.39</ele>
        <time>2019-09-04T06:50:38Z</time>
      </trkpt>
      <trkpt lat="45.7905848" lon="6.7383455">
        <ele>2008.46</ele>
        <time>2019-09-04T06:50:52Z</time>
      </trkpt>
      <trkpt lat="45.7905832" lon="6.7381986">
        <ele>2007.90</ele>
        <time>2019-09-04T06:51:04Z</time>
      </trkpt>
      <trkpt lat="45.7905846" lon="6.7380424">
        <ele>2006.97</ele>
        <time>2019-09-04T06:51:14Z</time>
      </trkpt>
      <trkpt lat="45.7905710" lon="6.7378926">
        <ele>2008.88</ele>
        <time>2019-09-04T06:51:24Z</time>
      </trkpt>
      <trkpt lat="45.7905648" lon="6.7380220">
        <ele>2011.99</ele>
        <time>2019-09-04T06:54:26Z</time>
      </trkpt>
      <trkpt lat="45.7905822" lon="6.7381694">
        <ele>2008.74</ele>
        <time>2019-09-04T06:54:42Z</time>
      </trkpt>
      <trkpt lat="45.7905869" lon="6.7383140">
        <ele>2008.38</ele>
        <time>2019-09-04T06:54:52Z</time>
      </trkpt>
      <trkpt lat="45.7905762" lon="6.7384423">
        <ele>2011.49</ele>
        <time>2019-09-04T06:55:02Z</time>
      </trkpt>
      <trkpt lat="45.7906517" lon="6.7385535">
        <ele>2009.01</ele>
        <time>2019-09-04T06:55:10Z</time>
      </trkpt>
      <trkpt lat="45.7907429" lon="6.7385465">
        <ele>2006.71</ele>
        <time>2019-09-04T06:55:20Z</time>
      </trkpt>
      <trkpt lat="45.7908275" lon="6.7385940">
        <ele>2006.86</ele>
        <time>2019-09-04T06:55:30Z</time>
      </trkpt>
      <trkpt lat="45.7908953" lon="6.7384856">
        <ele>2004.05</ele>
        <time>2019-09-04T06:55:42Z</time>
      </trkpt>
      <trkpt lat="45.7909002" lon="6.7383402">
        <ele>2002.99</ele>
        <time>2019-09-04T06:56:00Z</time>
      </trkpt>
      <trkpt lat="45.7909249" lon="6.7382086">
        <ele>2000.68</ele>
        <time>2019-09-04T06:56:16Z</time>
      </trkpt>
      <trkpt lat="45.7910230" lon="6.7381628">
        <ele>1997.10</ele>
        <time>2019-09-04T06:56:24Z</time>
      </trkpt>
      <trkpt lat="45.7910728" lon="6.7380446">
        <ele>1994.44</ele>
        <time>2019-09-04T06:56:34Z</time>
      </trkpt>
      <trkpt lat="45.7910639" lon="6.7379021">
        <ele>1992.05</ele>
        <time>2019-09-04T06:56:44Z</time>
      </trkpt>
      <trkpt lat="45.7910890" lon="6.7377580">
        <ele>1993.66</ele>
        <time>2019-09-04T06:56:54Z</time>
      </trkpt>
      <trkpt lat="45.7910970" lon="6.7376061">
        <ele>1994.86</ele>
        <time>2019-09-04T06:57:04Z</time>
      </trkpt>
      <trkpt lat="45.7911253" lon="6.7374697">
        <ele>1993.68</ele>
        <time>2019-09-04T06:57:14Z</time>
      </trkpt>
      <trkpt lat="45.7911656" lon="6.7373288">
        <ele>1991.00</ele>
        <time>2019-09-04T06:57:24Z</time>
      </trkpt>
      <trkpt lat="45.7911994" lon="6.7372021">
        <ele>1990.76</ele>
        <time>2019-09-04T06:57:32Z</time>
      </trkpt>
      <trkpt lat="45.7912585" lon="6.7370887">
        <ele>1992.31</ele>
        <time>2019-09-04T06:57:42Z</time>
      </trkpt>
      <trkpt lat="45.7913549" lon="6.7370761">
        <ele>1992.70</ele>
        <time>2019-09-04T06:57:52Z</time>
      </trkpt>
      <trkpt lat="45.7914347" lon="6.7369976">
        <ele>1992.67</ele>
        <time>2019-09-04T06:58:02Z</time>
      </trkpt>
      <trkpt lat="45.7914769" lon="6.7368655">
        <ele>1992.67</ele>
        <time>2019-09-04T06:58:14Z</time>
      </trkpt>
      <trkpt lat="45.7914653" lon="6.7367363">
        <ele>1991.76</ele>
        <time>2019-09-04T06:58:22Z</time>
      </trkpt>
      <trkpt lat="45.7914748" lon="6.7365992">
        <ele>1991.40</ele>
        <time>2019-09-04T06:58:30Z</time>
      </trkpt>
      <trkpt lat="45.7914769" lon="6.7364437">
        <ele>1989.98</ele>
        <time>2019-09-04T06:58:40Z</time>
      </trkpt>
      <trkpt lat="45.7914649" lon="6.7363007">
        <ele>1989.80</ele>
        <time>2019-09-04T06:58:48Z</time>
      </trkpt>
      <trkpt lat="45.7914424" lon="6.7361628">
        <ele>1988.41</ele>
        <time>2019-09-04T06:58:56Z</time>
      </trkpt>
      <trkpt lat="45.7914489" lon="6.7360114">
        <ele>1986.30</ele>
        <time>2019-09-04T06:59:06Z</time>
      </trkpt>
      <trkpt lat="45.7914692" lon="6.7358796">
        <ele>1985.95</ele>
        <time>2019-09-04T06:59:16Z</time>
      </trkpt>
      <trkpt lat="45.7915014" lon="6.7357563">
        <ele>1984.79</ele>
        <time>2019-09-04T06:59:24Z</time>
      </trkpt>
      <trkpt lat="45.7914679" lon="6.7356321">
        <ele>1982.52</ele>
        <time>2019-09-04T06:59:32Z</time>
      </trkpt>
      <trkpt lat="45.7915208" lon="6.7355252">
        <ele>1984.05</ele>
        <time>2019-09-04T06:59:46Z</time>
      </trkpt>
      <trkpt lat="45.7915238" lon="6.7353806">
        <ele>1980.80</ele>
        <time>2019-09-04T06:59:56Z</time>
      </trkpt>
      <trkpt lat="45.7915506" lon="6.7352515">
        <ele>1979.97</ele>
        <time>2019-09-04T07:00:06Z</time>
      </trkpt>
      <trkpt lat="45.7915561" lon="6.7351043">
        <ele>1978.75</ele>
        <time>2019-09-04T07:00:16Z</time>
      </trkpt>
      <trkpt lat="45.7916347" lon="6.7349959">
        <ele>1974.95</ele>
        <time>2019-09-04T07:00:26Z</time>
      </trkpt>
      <trkpt lat="45.7917172" lon="6.7349334">
        <ele>1971.37</ele>
        <time>2019-09-04T07:00:36Z</time>
      </trkpt>
      <trkpt lat="45.7918037" lon="6.7348455">
        <ele>1969.77</ele>
        <time>2019-09-04T07:00:46Z</time>
      </trkpt>
      <trkpt lat="45.7916471" lon="6.7348756">
        <ele>1964.67</ele>
        <time>2019-09-04T07:01:23Z</time>
      </trkpt>
      <trkpt lat="45.7917297" lon="6.7347958">
        <ele>1962.24</ele>
        <time>2019-09-04T07:03:02Z</time>
      </trkpt>
      <trkpt lat="45.7918137" lon="6.7347312">
        <ele>1965.31</ele>
        <time>2019-09-04T07:03:08Z</time>
      </trkpt>
      <trkpt lat="45.7919081" lon="6.7347124">
        <ele>1975.43</ele>
        <time>2019-09-04T07:03:43Z</time>
      </trkpt>
      <trkpt lat="45.7917934" lon="6.7347768">
        <ele>1977.90</ele>
        <time>2019-09-04T07:03:56Z</time>
      </trkpt>
      <trkpt lat="45.7918879" lon="6.7347782">
        <ele>1966.11</ele>
        <time>2019-09-04T07:09:09Z</time>
      </trkpt>
      <trkpt lat="45.7918024" lon="6.7348444">
        <ele>1968.37</ele>
        <time>2019-09-04T07:17:49Z</time>
      </trkpt>
      <trkpt lat="45.7917028" lon="6.7348573">
        <ele>1975.32</ele>
        <time>2019-09-04T07:18:01Z</time>
      </trkpt>
      <trkpt lat="45.7916257" lon="6.7347464">
        <ele>1967.80</ele>
        <time>2019-09-04T07:18:17Z</time>
      </trkpt>
      <trkpt lat="45.7915383" lon="6.7347119">
        <ele>1967.59</ele>
        <time>2019-09-04T07:18:27Z</time>
      </trkpt>
      <trkpt lat="45.7914639" lon="6.7346065">
        <ele>1966.65</ele>
        <time>2019-09-04T07:18:45Z</time>
      </trkpt>
      <trkpt lat="45.7913946" lon="6.7345048">
        <ele>1965.67</ele>
        <time>2019-09-04T07:19:03Z</time>
      </trkpt>
      <trkpt lat="45.7913234" lon="6.7344195">
        <ele>1964.75</ele>
        <time>2019-09-04T07:19:17Z</time>
      </trkpt>
      <trkpt lat="45.7912812" lon="6.7342816">
        <ele>1960.98</ele>
        <time>2019-09-04T07:19:43Z</time>
      </trkpt>
      <trkpt lat="45.7912037" lon="6.7342063">
        <ele>1956.62</ele>
        <time>2019-09-04T07:19:51Z</time>
      </trkpt>
      <trkpt lat="45.7911079" lon="6.7341555">
        <ele>1953.71</ele>
        <time>2019-09-04T07:20:07Z</time>
      </trkpt>
      <trkpt lat="45.7910167" lon="6.7340918">
        <ele>1954.36</ele>
        <time>2019-09-04T07:20:19Z</time>
      </trkpt>
      <trkpt lat="45.7909476" lon="6.7339916">
        <ele>1950.71</ele>
        <time>2019-09-04T07:21:19Z</time>
      </trkpt>
      <trkpt lat="45.7908755" lon="6.7338723">
        <ele>1952.74</ele>
        <time>2019-09-04T07:21:33Z</time>
      </trkpt>
      <trkpt lat="45.7907977" lon="6.7338059">
        <ele>1950.98</ele>
        <time>2019-09-04T07:21:43Z</time>
      </trkpt>
      <trkpt lat="45.7907837" lon="6.7336723">
        <ele>1948.70</ele>
        <time>2019-09-04T07:21:59Z</time>
      </trkpt>
      <trkpt lat="45.7907037" lon="6.7335790">
        <ele>1947.75</ele>
        <time>2019-09-04T07:22:11Z</time>
      </trkpt>
      <trkpt lat="45.7906565" lon="6.7334491">
        <ele>1947.67</ele>
        <time>2019-09-04T07:22:21Z</time>
      </trkpt>
      <trkpt lat="45.7905996" lon="6.7333172">
        <ele>1946.68</ele>
        <time>2019-09-04T07:22:31Z</time>
      </trkpt>
      <trkpt lat="45.7905855" lon="6.7331892">
        <ele>1944.00</ele>
        <time>2019-09-04T07:22:55Z</time>
      </trkpt>
      <trkpt lat="45.7905063" lon="6.7331002">
        <ele>1941.06</ele>
        <time>2019-09-04T07:23:09Z</time>
      </trkpt>
      <trkpt lat="45.7904571" lon="6.7329786">
        <ele>1939.97</ele>
        <time>2019-09-04T07:23:25Z</time>
      </trkpt>
      <trkpt lat="45.7903639" lon="6.7329085">
        <ele>1940.58</ele>
        <time>2019-09-04T07:23:37Z</time>
      </trkpt>
      <trkpt lat="45.7902959" lon="6.7328118">
        <ele>1939.35</ele>
        <time>2019-09-04T07:23:47Z</time>
      </trkpt>
      <trkpt lat="45.7902206" lon="6.7327171">
        <ele>1935.65</ele>
        <time>2019-09-04T07:23:59Z</time>
      </trkpt>
      <trkpt lat="45.7901587" lon="6.7326212">
        <ele>1931.33</ele>
        <time>2019-09-04T07:24:09Z</time>
      </trkpt>
      <trkpt lat="45.7900813" lon="6.7325390">
        <ele>1926.59</ele>
        <time>2019-09-04T07:24:19Z</time>
      </trkpt>
      <trkpt lat="45.7900529" lon="6.7323965">
        <ele>1922.01</ele>
        <time>2019-09-04T07:24:31Z</time>
      </trkpt>
      <trkpt lat="45.7899906" lon="6.7322893">
        <ele>1921.66</ele>
        <time>2019-09-04T07:24:39Z</time>
      </trkpt>
      <trkpt lat="45.7899238" lon="6.7321565">
        <ele>1919.39</ele>
        <time>2019-09-04T07:24:51Z</time>
      </trkpt>
      <trkpt lat="45.7898551" lon="6.7320674">
        <ele>1919.59</ele>
        <time>2019-09-04T07:25:01Z</time>
      </trkpt>
      <trkpt lat="45.7897699" lon="6.7319771">
        <ele>1921.64</ele>
        <time>2019-09-04T07:25:11Z</time>
      </trkpt>
      <trkpt lat="45.7896798" lon="6.7318893">
        <ele>1922.67</ele>
        <time>2019-09-04T07:25:21Z</time>
      </trkpt>
      <trkpt lat="45.7895991" lon="6.7317886">
        <ele>1924.58</ele>
        <time>2019-09-04T07:25:31Z</time>
      </trkpt>
      <trkpt lat="45.7895076" lon="6.7316978">
        <ele>1924.67</ele>
        <time>2019-09-04T07:25:43Z</time>
      </trkpt>
      <trkpt lat="45.7894045" lon="6.7316398">
        <ele>1925.65</ele>
        <time>2019-09-04T07:25:53Z</time>
      </trkpt>
      <trkpt lat="45.7893280" lon="6.7315620">
        <ele>1924.68</ele>
        <time>2019-09-04T07:26:03Z</time>
      </trkpt>
      <trkpt lat="45.7892603" lon="6.7314733">
        <ele>1924.67</ele>
        <time>2019-09-04T07:26:11Z</time>
      </trkpt>
      <trkpt lat="45.7891818" lon="6.7313724">
        <ele>1925.58</ele>
        <time>2019-09-04T07:26:21Z</time>
      </trkpt>
      <trkpt lat="45.7891317" lon="6.7312537">
        <ele>1924.75</ele>
        <time>2019-09-04T07:26:35Z</time>
      </trkpt>
      <trkpt lat="45.7890484" lon="6.7311691">
        <ele>1925.37</ele>
        <time>2019-09-04T07:26:43Z</time>
      </trkpt>
      <trkpt lat="45.7889648" lon="6.7310848">
        <ele>1923.98</ele>
        <time>2019-09-04T07:26:53Z</time>
      </trkpt>
      <trkpt lat="45.7888873" lon="6.7309914">
        <ele>1923.67</ele>
        <time>2019-09-04T07:27:05Z</time>
      </trkpt>
      <trkpt lat="45.7888029" lon="6.7309108">
        <ele>1921.01</ele>
        <time>2019-09-04T07:27:17Z</time>
      </trkpt>
      <trkpt lat="45.7886977" lon="6.7309072">
        <ele>1923.08</ele>
        <time>2019-09-04T07:27:31Z</time>
      </trkpt>
      <trkpt lat="45.7885909" lon="6.7309558">
        <ele>1919.71</ele>
        <time>2019-09-04T07:27:41Z</time>
      </trkpt>
      <trkpt lat="45.7885006" lon="6.7309417">
        <ele>1918.88</ele>
        <time>2019-09-04T07:27:55Z</time>
      </trkpt>
      <trkpt lat="45.7884108" lon="6.7308901">
        <ele>1909.78</ele>
        <time>2019-09-04T07:28:25Z</time>
      </trkpt>
      <trkpt lat="45.7883562" lon="6.7307778">
        <ele>1909.04</ele>
        <time>2019-09-04T07:28:39Z</time>
      </trkpt>
      <trkpt lat="45.7882573" lon="6.7307470">
        <ele>1908.66</ele>
        <time>2019-09-04T07:28:51Z</time>
      </trkpt>
      <trkpt lat="45.7881912" lon="6.7306284">
        <ele>1906.91</ele>
        <time>2019-09-04T07:29:07Z</time>
      </trkpt>
      <trkpt lat="45.7881419" lon="6.7305101">
        <ele>1906.59</ele>
        <time>2019-09-04T07:29:19Z</time>
      </trkpt>
      <trkpt lat="45.7880963" lon="6.7303905">
        <ele>1905.76</ele>
        <time>2019-09-04T07:29:29Z</time>
      </trkpt>
      <trkpt lat="45.7880045" lon="6.7303079">
        <ele>1904.70</ele>
        <time>2019-09-04T07:29:39Z</time>
      </trkpt>
      <trkpt lat="45.7879073" lon="6.7302928">
        <ele>1903.68</ele>
        <time>2019-09-04T07:29:47Z</time>
      </trkpt>
      <trkpt lat="45.7878094" lon="6.7302826">
        <ele>1900.71</ele>
        <time>2019-09-04T07:30:01Z</time>
      </trkpt>
      <trkpt lat="45.7877288" lon="6.7303566">
        <ele>1896.85</ele>
        <time>2019-09-04T07:30:17Z</time>
      </trkpt>
      <trkpt lat="45.7876391" lon="6.7303142">
        <ele>1895.40</ele>
        <time>2019-09-04T07:30:29Z</time>
      </trkpt>
      <trkpt lat="45.7875528" lon="6.7302676">
        <ele>1894.70</ele>
        <time>2019-09-04T07:30:39Z</time>
      </trkpt>
      <trkpt lat="45.7874606" lon="6.7302471">
        <ele>1891.79</ele>
        <time>2019-09-04T07:30:53Z</time>
      </trkpt>
      <trkpt lat="45.7873702" lon="6.7302807">
        <ele>1887.07</ele>
        <time>2019-09-04T07:31:09Z</time>
      </trkpt>
      <trkpt lat="45.7872706" lon="6.7302298">
        <ele>1884.79</ele>
        <time>2019-09-04T07:31:21Z</time>
      </trkpt>
      <trkpt lat="45.7871818" lon="6.7301925">
        <ele>1883.68</ele>
        <time>2019-09-04T07:31:31Z</time>
      </trkpt>
      <trkpt lat="45.7870917" lon="6.7301610">
        <ele>1880.70</ele>
        <time>2019-09-04T07:31:47Z</time>
      </trkpt>
      <trkpt lat="45.7869948" lon="6.7301542">
        <ele>1877.70</ele>
        <time>2019-09-04T07:32:01Z</time>
      </trkpt>
      <trkpt lat="45.7869081" lon="6.7300926">
        <ele>1873.78</ele>
        <time>2019-09-04T07:32:19Z</time>
      </trkpt>
      <trkpt lat="45.7868188" lon="6.7301288">
        <ele>1869.88</ele>
        <time>2019-09-04T07:32:33Z</time>
      </trkpt>
      <trkpt lat="45.7868376" lon="6.7299987">
        <ele>1865.76</ele>
        <time>2019-09-04T07:32:55Z</time>
      </trkpt>
      <trkpt lat="45.7867327" lon="6.7299883">
        <ele>1861.98</ele>
        <time>2019-09-04T07:33:11Z</time>
      </trkpt>
      <trkpt lat="45.7866338" lon="6.7299545">
        <ele>1859.70</ele>
        <time>2019-09-04T07:33:25Z</time>
      </trkpt>
      <trkpt lat="45.7865486" lon="6.7299067">
        <ele>1857.47</ele>
        <time>2019-09-04T07:33:47Z</time>
      </trkpt>
      <trkpt lat="45.7864544" lon="6.7298865">
        <ele>1854.98</ele>
        <time>2019-09-04T07:34:01Z</time>
      </trkpt>
      <trkpt lat="45.7863950" lon="6.7297714">
        <ele>1852.76</ele>
        <time>2019-09-04T07:34:17Z</time>
      </trkpt>
      <trkpt lat="45.7863681" lon="6.7296323">
        <ele>1850.79</ele>
        <time>2019-09-04T07:34:29Z</time>
      </trkpt>
      <trkpt lat="45.7863831" lon="6.7294967">
        <ele>1849.70</ele>
        <time>2019-09-04T07:34:37Z</time>
      </trkpt>
      <trkpt lat="45.7863839" lon="6.7293653">
        <ele>1848.70</ele>
        <time>2019-09-04T07:34:49Z</time>
      </trkpt>
      <trkpt lat="45.7863421" lon="6.7292219">
        <ele>1846.77</ele>
        <time>2019-09-04T07:34:59Z</time>
      </trkpt>
      <trkpt lat="45.7863268" lon="6.7290936">
        <ele>1844.77</ele>
        <time>2019-09-04T07:35:07Z</time>
      </trkpt>
      <trkpt lat="45.7862714" lon="6.7289707">
        <ele>1841.10</ele>
        <time>2019-09-04T07:35:15Z</time>
      </trkpt>
      <trkpt lat="45.7861790" lon="6.7288887">
        <ele>1838.77</ele>
        <time>2019-09-04T07:35:25Z</time>
      </trkpt>
      <trkpt lat="45.7861018" lon="6.7287972">
        <ele>1835.77</ele>
        <time>2019-09-04T07:35:37Z</time>
      </trkpt>
      <trkpt lat="45.7860606" lon="6.7286799">
        <ele>1833.70</ele>
        <time>2019-09-04T07:35:51Z</time>
      </trkpt>
      <trkpt lat="45.7859683" lon="6.7286751">
        <ele>1818.27</ele>
        <time>2019-09-04T07:36:25Z</time>
      </trkpt>
      <trkpt lat="45.7858597" lon="6.7286255">
        <ele>1843.74</ele>
        <time>2019-09-04T07:36:34Z</time>
      </trkpt>
      <trkpt lat="45.7859330" lon="6.7285353">
        <ele>1830.95</ele>
        <time>2019-09-04T07:36:42Z</time>
      </trkpt>
      <trkpt lat="45.7858265" lon="6.7285231">
        <ele>1824.61</ele>
        <time>2019-09-04T07:36:48Z</time>
      </trkpt>
      <trkpt lat="45.7857266" lon="6.7285290">
        <ele>1817.26</ele>
        <time>2019-09-04T07:37:02Z</time>
      </trkpt>
      <trkpt lat="45.7856623" lon="6.7284326">
        <ele>1809.01</ele>
        <time>2019-09-04T07:37:20Z</time>
      </trkpt>
      <trkpt lat="45.7855786" lon="6.7283741">
        <ele>1804.69</ele>
        <time>2019-09-04T07:37:42Z</time>
      </trkpt>
      <trkpt lat="45.7855584" lon="6.7282333">
        <ele>1798.98</ele>
        <time>2019-09-04T07:38:08Z</time>
      </trkpt>
      <trkpt lat="45.7854648" lon="6.7281666">
        <ele>1795.70</ele>
        <time>2019-09-04T07:38:30Z</time>
      </trkpt>
      <trkpt lat="45.7853766" lon="6.7282159">
        <ele>1794.00</ele>
        <time>2019-09-04T07:38:42Z</time>
      </trkpt>
      <trkpt lat="45.7852896" lon="6.7281421">
        <ele>1789.71</ele>
        <time>2019-09-04T07:39:12Z</time>
      </trkpt>
      <trkpt lat="45.7851911" lon="6.7281493">
        <ele>1781.29</ele>
        <time>2019-09-04T07:39:26Z</time>
      </trkpt>
      <trkpt lat="45.7851012" lon="6.7281371">
        <ele>1777.78</ele>
        <time>2019-09-04T07:39:36Z</time>
      </trkpt>
      <trkpt lat="45.7850605" lon="6.7280089">
        <ele>1774.74</ele>
        <time>2019-09-04T07:39:48Z</time>
      </trkpt>
      <trkpt lat="45.7850511" lon="6.7281437">
        <ele>1768.78</ele>
        <time>2019-09-04T07:40:00Z</time>
      </trkpt>
      <trkpt lat="45.7849479" lon="6.7281673">
        <ele>1767.39</ele>
        <time>2019-09-04T07:40:22Z</time>
      </trkpt>
      <trkpt lat="45.7848506" lon="6.7281607">
        <ele>1756.92</ele>
        <time>2019-09-04T07:41:12Z</time>
      </trkpt>
      <trkpt lat="45.7847562" lon="6.7281043">
        <ele>1745.53</ele>
        <time>2019-09-04T07:41:30Z</time>
      </trkpt>
      <trkpt lat="45.7846799" lon="6.7280147">
        <ele>1742.81</ele>
        <time>2019-09-04T07:41:44Z</time>
      </trkpt>
      <trkpt lat="45.7846340" lon="6.7278729">
        <ele>1735.55</ele>
        <time>2019-09-04T07:42:42Z</time>
      </trkpt>
      <trkpt lat="45.7845472" lon="6.7278003">
        <ele>1736.34</ele>
        <time>2019-09-04T07:42:50Z</time>
      </trkpt>
      <trkpt lat="45.7844723" lon="6.7278817">
        <ele>1730.15</ele>
        <time>2019-09-04T07:43:12Z</time>
      </trkpt>
      <trkpt lat="45.7843871" lon="6.7278401">
        <ele>1729.68</ele>
        <time>2019-09-04T07:43:20Z</time>
      </trkpt>
      <trkpt lat="45.7844832" lon="6.7277962">
        <ele>1726.56</ele>
        <time>2019-09-04T07:43:36Z</time>
      </trkpt>
      <trkpt lat="45.7844847" lon="6.7276650">
        <ele>1724.15</ele>
        <time>2019-09-04T07:43:50Z</time>
      </trkpt>
      <trkpt lat="45.7844014" lon="6.7277167">
        <ele>1721.71</ele>
        <time>2019-09-04T07:44:00Z</time>
      </trkpt>
      <trkpt lat="45.7843224" lon="6.7277843">
        <ele>1719.01</ele>
        <time>2019-09-04T07:44:10Z</time>
      </trkpt>
      <trkpt lat="45.7842225" lon="6.7277814">
        <ele>1717.68</ele>
        <time>2019-09-04T07:44:22Z</time>
      </trkpt>
      <trkpt lat="45.7842450" lon="6.7276396">
        <ele>1714.70</ele>
        <time>2019-09-04T07:44:48Z</time>
      </trkpt>
      <trkpt lat="45.7841810" lon="6.7275444">
        <ele>1709.06</ele>
        <time>2019-09-04T07:45:12Z</time>
      </trkpt>
      <trkpt lat="45.7841397" lon="6.7274172">
        <ele>1705.97</ele>
        <time>2019-09-04T07:45:36Z</time>
      </trkpt>
      <trkpt lat="45.7840470" lon="6.7274518">
        <ele>1701.77</ele>
        <time>2019-09-04T07:46:00Z</time>
      </trkpt>
      <trkpt lat="45.7840625" lon="6.7273030">
        <ele>1696.71</ele>
        <time>2019-09-04T07:46:16Z</time>
      </trkpt>
      <trkpt lat="45.7841135" lon="6.7271658">
        <ele>1694.68</ele>
        <time>2019-09-04T07:46:30Z</time>
      </trkpt>
      <trkpt lat="45.7840974" lon="6.7270266">
        <ele>1690.99</ele>
        <time>2019-09-04T07:46:44Z</time>
      </trkpt>
      <trkpt lat="45.7841015" lon="6.7268882">
        <ele>1685.98</ele>
        <time>2019-09-04T07:47:10Z</time>
      </trkpt>
      <trkpt lat="45.7841250" lon="6.7267505">
        <ele>1681.77</ele>
        <time>2019-09-04T07:47:32Z</time>
      </trkpt>
      <trkpt lat="45.7841436" lon="6.7266212">
        <ele>1679.98</ele>
        <time>2019-09-04T07:47:44Z</time>
      </trkpt>
      <trkpt lat="45.7841717" lon="6.7264888">
        <ele>1676.70</ele>
        <time>2019-09-04T07:48:00Z</time>
      </trkpt>
      <trkpt lat="45.7840836" lon="6.7264271">
        <ele>1674.06</ele>
        <time>2019-09-04T07:48:16Z</time>
      </trkpt>
      <trkpt lat="45.7840536" lon="6.7262980">
        <ele>1669.86</ele>
        <time>2019-09-04T07:48:28Z</time>
      </trkpt>
      <trkpt lat="45.7840367" lon="6.7261589">
        <ele>1665.77</ele>
        <time>2019-09-04T07:48:42Z</time>
      </trkpt>
      <trkpt lat="45.7840581" lon="6.7260241">
        <ele>1661.77</ele>
        <time>2019-09-04T07:48:56Z</time>
      </trkpt>
      <trkpt lat="45.7841199" lon="6.7259252">
        <ele>1658.67</ele>
        <time>2019-09-04T07:50:12Z</time>
      </trkpt>
      <trkpt lat="45.7841307" lon="6.7257877">
        <ele>1645.31</ele>
        <time>2019-09-04T07:51:14Z</time>
      </trkpt>
      <trkpt lat="45.7842146" lon="6.7257344">
        <ele>1643.09</ele>
        <time>2019-09-04T07:51:26Z</time>
      </trkpt>
      <trkpt lat="45.7841335" lon="6.7256553">
        <ele>1635.48</ele>
        <time>2019-09-04T07:51:42Z</time>
      </trkpt>
      <trkpt lat="45.7840422" lon="6.7256597">
        <ele>1634.27</ele>
        <time>2019-09-04T07:52:08Z</time>
      </trkpt>
      <trkpt lat="45.7839446" lon="6.7256242">
        <ele>1626.98</ele>
        <time>2019-09-04T07:52:36Z</time>
      </trkpt>
      <trkpt lat="45.7838643" lon="6.7255485">
        <ele>1623.70</ele>
        <time>2019-09-04T07:52:58Z</time>
      </trkpt>
      <trkpt lat="45.7837639" lon="6.7255697">
        <ele>1621.68</ele>
        <time>2019-09-04T07:53:12Z</time>
      </trkpt>
      <trkpt lat="45.7836691" lon="6.7255379">
        <ele>1613.31</ele>
        <time>2019-09-04T07:53:36Z</time>
      </trkpt>
      <trkpt lat="45.7835684" lon="6.7255112">
        <ele>1608.80</ele>
        <time>2019-09-04T07:54:00Z</time>
      </trkpt>
      <trkpt lat="45.7835187" lon="6.7256267">
        <ele>1603.26</ele>
        <time>2019-09-04T07:54:12Z</time>
      </trkpt>
      <trkpt lat="45.7834422" lon="6.7255524">
        <ele>1635.97</ele>
        <time>2019-09-04T07:54:32Z</time>
      </trkpt>
      <trkpt lat="45.7833606" lon="6.7254803">
        <ele>1603.56</ele>
        <time>2019-09-04T07:54:54Z</time>
      </trkpt>
      <trkpt lat="45.7832717" lon="6.7255202">
        <ele>1600.19</ele>
        <time>2019-09-04T07:55:08Z</time>
      </trkpt>
      <trkpt lat="45.7831720" lon="6.7254952">
        <ele>1593.21</ele>
        <time>2019-09-04T07:55:16Z</time>
      </trkpt>
      <trkpt lat="45.7831035" lon="6.7253945">
        <ele>1589.78</ele>
        <time>2019-09-04T07:55:32Z</time>
      </trkpt>
      <trkpt lat="45.7830099" lon="6.7253603">
        <ele>1588.06</ele>
        <time>2019-09-04T07:55:42Z</time>
      </trkpt>
      <trkpt lat="45.7829210" lon="6.7252866">
        <ele>1587.59</ele>
        <time>2019-09-04T07:55:58Z</time>
      </trkpt>
      <trkpt lat="45.7828219" lon="6.7252773">
        <ele>1589.14</ele>
        <time>2019-09-04T07:56:10Z</time>
      </trkpt>
      <trkpt lat="45.7827997" lon="6.7251507">
        <ele>1587.00</ele>
        <time>2019-09-04T07:56:22Z</time>
      </trkpt>
      <trkpt lat="45.7828540" lon="6.7250466">
        <ele>1583.00</ele>
        <time>2019-09-04T07:56:58Z</time>
      </trkpt>
      <trkpt lat="45.7827743" lon="6.7249339">
        <ele>1580.02</ele>
        <time>2019-09-04T07:57:12Z</time>
      </trkpt>
      <trkpt lat="45.7827192" lon="6.7248219">
        <ele>1576.16</ele>
        <time>2019-09-04T07:57:34Z</time>
      </trkpt>
      <trkpt lat="45.7826380" lon="6.7247586">
        <ele>1571.31</ele>
        <time>2019-09-04T07:57:44Z</time>
      </trkpt>
      <trkpt lat="45.7825376" lon="6.7247261">
        <ele>1571.76</ele>
        <time>2019-09-04T07:57:54Z</time>
      </trkpt>
      <trkpt lat="45.7824426" lon="6.7246647">
        <ele>1568.62</ele>
        <time>2019-09-04T07:58:06Z</time>
      </trkpt>
      <trkpt lat="45.7823507" lon="6.7245934">
        <ele>1569.58</ele>
        <time>2019-09-04T07:58:20Z</time>
      </trkpt>
      <trkpt lat="45.7822745" lon="6.7245188">
        <ele>1569.38</ele>
        <time>2019-09-04T07:58:34Z</time>
      </trkpt>
      <trkpt lat="45.7821775" lon="6.7244832">
        <ele>1569.69</ele>
        <time>2019-09-04T07:58:48Z</time>
      </trkpt>
      <trkpt lat="45.7820986" lon="6.7244080">
        <ele>1567.79</ele>
        <time>2019-09-04T07:59:02Z</time>
      </trkpt>
      <trkpt lat="45.7820095" lon="6.7243577">
        <ele>1566.67</ele>
        <time>2019-09-04T07:59:14Z</time>
      </trkpt>
      <trkpt lat="45.7819247" lon="6.7243001">
        <ele>1565.70</ele>
        <time>2019-09-04T07:59:24Z</time>
      </trkpt>
      <trkpt lat="45.7818263" lon="6.7242516">
        <ele>1563.67</ele>
        <time>2019-09-04T07:59:42Z</time>
      </trkpt>
      <trkpt lat="45.7817907" lon="6.7241165">
        <ele>1561.76</ele>
        <time>2019-09-04T07:59:58Z</time>
      </trkpt>
      <trkpt lat="45.7817699" lon="6.7239882">
        <ele>1559.70</ele>
        <time>2019-09-04T08:00:14Z</time>
      </trkpt>
      <trkpt lat="45.7817140" lon="6.7238754">
        <ele>1557.76</ele>
        <time>2019-09-04T08:00:38Z</time>
      </trkpt>
      <trkpt lat="45.7816128" lon="6.7238465">
        <ele>1555.00</ele>
        <time>2019-09-04T08:00:56Z</time>
      </trkpt>
      <trkpt lat="45.7815232" lon="6.7237572">
        <ele>1553.98</ele>
        <time>2019-09-04T08:01:02Z</time>
      </trkpt>
      <trkpt lat="45.7815020" lon="6.7236292">
        <ele>1548.70</ele>
        <time>2019-09-04T08:01:40Z</time>
      </trkpt>
      <trkpt lat="45.7813949" lon="6.7236172">
        <ele>1546.70</ele>
        <time>2019-09-04T08:01:56Z</time>
      </trkpt>
      <trkpt lat="45.7812952" lon="6.7235690">
        <ele>1541.70</ele>
        <time>2019-09-04T08:02:12Z</time>
      </trkpt>
      <trkpt lat="45.7812034" lon="6.7236252">
        <ele>1543.98</ele>
        <time>2019-09-04T08:02:28Z</time>
      </trkpt>
      <trkpt lat="45.7811252" lon="6.7235564">
        <ele>1542.97</ele>
        <time>2019-09-04T08:02:38Z</time>
      </trkpt>
      <trkpt lat="45.7810331" lon="6.7235062">
        <ele>1540.91</ele>
        <time>2019-09-04T08:02:48Z</time>
      </trkpt>
      <trkpt lat="45.7809303" lon="6.7235072">
        <ele>1537.07</ele>
        <time>2019-09-04T08:03:00Z</time>
      </trkpt>
      <trkpt lat="45.7808461" lon="6.7235647">
        <ele>1532.75</ele>
        <time>2019-09-04T08:03:10Z</time>
      </trkpt>
      <trkpt lat="45.7807772" lon="6.7236586">
        <ele>1523.69</ele>
        <time>2019-09-04T08:03:46Z</time>
      </trkpt>
      <trkpt lat="45.7807191" lon="6.7235518">
        <ele>1517.09</ele>
        <time>2019-09-04T08:04:16Z</time>
      </trkpt>
      <trkpt lat="45.7806316" lon="6.7234789">
        <ele>1509.99</ele>
        <time>2019-09-04T08:04:32Z</time>
      </trkpt>
      <trkpt lat="45.7805561" lon="6.7233966">
        <ele>1500.57</ele>
        <time>2019-09-04T08:04:50Z</time>
      </trkpt>
      <trkpt lat="45.7804722" lon="6.7233374">
        <ele>1502.58</ele>
        <time>2019-09-04T08:05:12Z</time>
      </trkpt>
      <trkpt lat="45.7804416" lon="6.7232016">
        <ele>1499.00</ele>
        <time>2019-09-04T08:05:26Z</time>
      </trkpt>
      <trkpt lat="45.7804304" lon="6.7230560">
        <ele>1496.77</ele>
        <time>2019-09-04T08:05:46Z</time>
      </trkpt>
      <trkpt lat="45.7804780" lon="6.7229216">
        <ele>1498.27</ele>
        <time>2019-09-04T08:05:56Z</time>
      </trkpt>
      <trkpt lat="45.7803792" lon="6.7228724">
        <ele>1492.68</ele>
        <time>2019-09-04T08:06:26Z</time>
      </trkpt>
      <trkpt lat="45.7802934" lon="6.7228045">
        <ele>1488.71</ele>
        <time>2019-09-04T08:06:42Z</time>
      </trkpt>
      <trkpt lat="45.7803021" lon="6.7226624">
        <ele>1486.97</ele>
        <time>2019-09-04T08:06:56Z</time>
      </trkpt>
      <trkpt lat="45.7802875" lon="6.7225342">
        <ele>1482.77</ele>
        <time>2019-09-04T08:07:14Z</time>
      </trkpt>
      <trkpt lat="45.7802718" lon="6.7224063">
        <ele>1477.68</ele>
        <time>2019-09-04T08:07:44Z</time>
      </trkpt>
      <trkpt lat="45.7802077" lon="6.7223142">
        <ele>1477.67</ele>
        <time>2019-09-04T08:08:36Z</time>
      </trkpt>
      <trkpt lat="45.7800986" lon="6.7222662">
        <ele>1478.59</ele>
        <time>2019-09-04T08:08:56Z</time>
      </trkpt>
      <trkpt lat="45.7799936" lon="6.7222498">
        <ele>1477.68</ele>
        <time>2019-09-04T08:09:08Z</time>
      </trkpt>
      <trkpt lat="45.7799056" lon="6.7222021">
        <ele>1477.88</ele>
        <time>2019-09-04T08:09:18Z</time>
      </trkpt>
      <trkpt lat="45.7798399" lon="6.7221036">
        <ele>1481.35</ele>
        <time>2019-09-04T08:09:32Z</time>
      </trkpt>
      <trkpt lat="45.7797831" lon="6.7219805">
        <ele>1483.65</ele>
        <time>2019-09-04T08:09:50Z</time>
      </trkpt>
      <trkpt lat="45.7797120" lon="6.7218627">
        <ele>1482.78</ele>
        <time>2019-09-04T08:10:02Z</time>
      </trkpt>
      <trkpt lat="45.7796390" lon="6.7217788">
        <ele>1483.67</ele>
        <time>2019-09-04T08:10:12Z</time>
      </trkpt>
      <trkpt lat="45.7795947" lon="6.7216385">
        <ele>1483.06</ele>
        <time>2019-09-04T08:10:24Z</time>
      </trkpt>
      <trkpt lat="45.7795733" lon="6.7215070">
        <ele>1481.61</ele>
        <time>2019-09-04T08:10:34Z</time>
      </trkpt>
      <trkpt lat="45.7795635" lon="6.7213634">
        <ele>1481.46</ele>
        <time>2019-09-04T08:10:42Z</time>
      </trkpt>
      <trkpt lat="45.7795302" lon="6.7212289">
        <ele>1482.37</ele>
        <time>2019-09-04T08:10:52Z</time>
      </trkpt>
      <trkpt lat="45.7794928" lon="6.7211113">
        <ele>1484.67</ele>
        <time>2019-09-04T08:11:02Z</time>
      </trkpt>
      <trkpt lat="45.7794372" lon="6.7210070">
        <ele>1485.67</ele>
        <time>2019-09-04T08:11:12Z</time>
      </trkpt>
      <trkpt lat="45.7793801" lon="6.7208977">
        <ele>1485.88</ele>
        <time>2019-09-04T08:11:22Z</time>
      </trkpt>
      <trkpt lat="45.7793084" lon="6.7207975">
        <ele>1482.71</ele>
        <time>2019-09-04T08:11:32Z</time>
      </trkpt>
      <trkpt lat="45.7792533" lon="6.7206731">
        <ele>1481.77</ele>
        <time>2019-09-04T08:11:44Z</time>
      </trkpt>
      <trkpt lat="45.7792798" lon="6.7205451">
        <ele>1481.95</ele>
        <time>2019-09-04T08:11:58Z</time>
      </trkpt>
      <trkpt lat="45.7793127" lon="6.7203945">
        <ele>1480.91</ele>
        <time>2019-09-04T08:12:08Z</time>
      </trkpt>
      <trkpt lat="45.7793517" lon="6.7202510">
        <ele>1479.97</ele>
        <time>2019-09-04T08:12:18Z</time>
      </trkpt>
      <trkpt lat="45.7793946" lon="6.7201070">
        <ele>1478.76</ele>
        <time>2019-09-04T08:12:28Z</time>
      </trkpt>
      <trkpt lat="45.7794102" lon="6.7199793">
        <ele>1477.00</ele>
        <time>2019-09-04T08:12:38Z</time>
      </trkpt>
      <trkpt lat="45.7794750" lon="6.7198885">
        <ele>1475.68</ele>
        <time>2019-09-04T08:12:50Z</time>
      </trkpt>
      <trkpt lat="45.7795667" lon="6.7198431">
        <ele>1475.67</ele>
        <time>2019-09-04T08:13:04Z</time>
      </trkpt>
      <trkpt lat="45.7796585" lon="6.7198032">
        <ele>1474.68</ele>
        <time>2019-09-04T08:13:14Z</time>
      </trkpt>
      <trkpt lat="45.7797576" lon="6.7197410">
        <ele>1473.76</ele>
        <time>2019-09-04T08:13:24Z</time>
      </trkpt>
      <trkpt lat="45.7798366" lon="6.7196396">
        <ele>1472.68</ele>
        <time>2019-09-04T08:13:34Z</time>
      </trkpt>
      <trkpt lat="45.7798979" lon="6.7195329">
        <ele>1471.97</ele>
        <time>2019-09-04T08:13:42Z</time>
      </trkpt>
      <trkpt lat="45.7799369" lon="6.7193883">
        <ele>1470.97</ele>
        <time>2019-09-04T08:13:54Z</time>
      </trkpt>
      <trkpt lat="45.7799306" lon="6.7192456">
        <ele>1470.67</ele>
        <time>2019-09-04T08:14:06Z</time>
      </trkpt>
      <trkpt lat="45.7798496" lon="6.7191760">
        <ele>1469.68</ele>
        <time>2019-09-04T08:14:16Z</time>
      </trkpt>
      <trkpt lat="45.7797649" lon="6.7191030">
        <ele>1468.70</ele>
        <time>2019-09-04T08:14:26Z</time>
      </trkpt>
      <trkpt lat="45.7796725" lon="6.7190300">
        <ele>1468.67</ele>
        <time>2019-09-04T08:14:36Z</time>
      </trkpt>
      <trkpt lat="45.7795902" lon="6.7189752">
        <ele>1467.76</ele>
        <time>2019-09-04T08:14:44Z</time>
      </trkpt>
      <trkpt lat="45.7795087" lon="6.7188978">
        <ele>1467.67</ele>
        <time>2019-09-04T08:14:52Z</time>
      </trkpt>
      <trkpt lat="45.7794115" lon="6.7188208">
        <ele>1466.68</ele>
        <time>2019-09-04T08:15:02Z</time>
      </trkpt>
      <trkpt lat="45.7793331" lon="6.7187443">
        <ele>1465.76</ele>
        <time>2019-09-04T08:15:12Z</time>
      </trkpt>
      <trkpt lat="45.7792762" lon="6.7186145">
        <ele>1463.07</ele>
        <time>2019-09-04T08:15:22Z</time>
      </trkpt>
      <trkpt lat="45.7792207" lon="6.7184985">
        <ele>1460.77</ele>
        <time>2019-09-04T08:15:32Z</time>
      </trkpt>
      <trkpt lat="45.7791399" lon="6.7184091">
        <ele>1458.79</ele>
        <time>2019-09-04T08:15:40Z</time>
      </trkpt>
      <trkpt lat="45.7790888" lon="6.7182967">
        <ele>1455.86</ele>
        <time>2019-09-04T08:15:48Z</time>
      </trkpt>
      <trkpt lat="45.7790964" lon="6.7181498">
        <ele>1452.04</ele>
        <time>2019-09-04T08:15:56Z</time>
      </trkpt>
      <trkpt lat="45.7791171" lon="6.7180076">
        <ele>1449.77</ele>
        <time>2019-09-04T08:16:06Z</time>
      </trkpt>
      <trkpt lat="45.7791029" lon="6.7178617">
        <ele>1448.76</ele>
        <time>2019-09-04T08:16:16Z</time>
      </trkpt>
      <trkpt lat="45.7790736" lon="6.7177273">
        <ele>1445.79</ele>
        <time>2019-09-04T08:16:26Z</time>
      </trkpt>
      <trkpt lat="45.7790725" lon="6.7175808">
        <ele>1443.71</ele>
        <time>2019-09-04T08:16:40Z</time>
      </trkpt>
      <trkpt lat="45.7790709" lon="6.7174478">
        <ele>1442.47</ele>
        <time>2019-09-04T08:16:48Z</time>
      </trkpt>
      <trkpt lat="45.7790520" lon="6.7172961">
        <ele>1439.98</ele>
        <time>2019-09-04T08:16:58Z</time>
      </trkpt>
      <trkpt lat="45.7790379" lon="6.7171520">
        <ele>1438.76</ele>
        <time>2019-09-04T08:17:08Z</time>
      </trkpt>
      <trkpt lat="45.7789544" lon="6.7170717">
        <ele>1436.68</ele>
        <time>2019-09-04T08:17:18Z</time>
      </trkpt>
      <trkpt lat="45.7788975" lon="6.7169604">
        <ele>1434.98</ele>
        <time>2019-09-04T08:17:28Z</time>
      </trkpt>
      <trkpt lat="45.7788842" lon="6.7168322">
        <ele>1434.68</ele>
        <time>2019-09-04T08:17:36Z</time>
      </trkpt>
      <trkpt lat="45.7788750" lon="6.7166928">
        <ele>1433.68</ele>
        <time>2019-09-04T08:17:46Z</time>
      </trkpt>
      <trkpt lat="45.7787885" lon="6.7166347">
        <ele>1432.76</ele>
        <time>2019-09-04T08:19:10Z</time>
      </trkpt>
      <trkpt lat="45.7787019" lon="6.7165696">
        <ele>1430.00</ele>
        <time>2019-09-04T08:19:20Z</time>
      </trkpt>
      <trkpt lat="45.7786194" lon="6.7164883">
        <ele>1428.62</ele>
        <time>2019-09-04T08:19:32Z</time>
      </trkpt>
      <trkpt lat="45.7786798" lon="6.7163925">
        <ele>1426.67</ele>
        <time>2019-09-04T08:20:00Z</time>
      </trkpt>
      <trkpt lat="45.7786473" lon="6.7162657">
        <ele>1430.34</ele>
        <time>2019-09-04T08:20:12Z</time>
      </trkpt>
      <trkpt lat="45.7786280" lon="6.7161353">
        <ele>1429.67</ele>
        <time>2019-09-04T08:20:32Z</time>
      </trkpt>
      <trkpt lat="45.7785711" lon="6.7160352">
        <ele>1429.88</ele>
        <time>2019-09-04T08:20:44Z</time>
      </trkpt>
      <trkpt lat="45.7785094" lon="6.7159353">
        <ele>1430.67</ele>
        <time>2019-09-04T08:20:56Z</time>
      </trkpt>
      <trkpt lat="45.7784665" lon="6.7158106">
        <ele>1429.88</ele>
        <time>2019-09-04T08:21:08Z</time>
      </trkpt>
      <trkpt lat="45.7784701" lon="6.7156701">
        <ele>1430.59</ele>
        <time>2019-09-04T08:21:22Z</time>
      </trkpt>
      <trkpt lat="45.7783904" lon="6.7155823">
        <ele>1432.37</ele>
        <time>2019-09-04T08:21:34Z</time>
      </trkpt>
      <trkpt lat="45.7783612" lon="6.7154515">
        <ele>1433.58</ele>
        <time>2019-09-04T08:21:48Z</time>
      </trkpt>
      <trkpt lat="45.7782894" lon="6.7153646">
        <ele>1437.34</ele>
        <time>2019-09-04T08:22:28Z</time>
      </trkpt>
      <trkpt lat="45.7782773" lon="6.7152245">
        <ele>1441.55</ele>
        <time>2019-09-04T08:22:46Z</time>
      </trkpt>
      <trkpt lat="45.7782669" lon="6.7150864">
        <ele>1443.67</ele>
        <time>2019-09-04T08:23:00Z</time>
      </trkpt>
      <trkpt lat="45.7782877" lon="6.7149573">
        <ele>1441.85</ele>
        <time>2019-09-04T08:23:14Z</time>
      </trkpt>
      <trkpt lat="45.7782891" lon="6.7148055">
        <ele>1440.76</ele>
        <time>2019-09-04T08:23:28Z</time>
      </trkpt>
      <trkpt lat="45.7782998" lon="6.7146631">
        <ele>1442.58</ele>
        <time>2019-09-04T08:23:40Z</time>
      </trkpt>
      <trkpt lat="45.7782300" lon="6.7145531">
        <ele>1456.13</ele>
        <time>2019-09-04T08:27:02Z</time>
      </trkpt>
      <trkpt lat="45.7781856" lon="6.7144359">
        <ele>1460.34</ele>
        <time>2019-09-04T08:27:16Z</time>
      </trkpt>
      <trkpt lat="45.7781520" lon="6.7143155">
        <ele>1461.67</ele>
        <time>2019-09-04T08:27:32Z</time>
      </trkpt>
      <trkpt lat="45.7780611" lon="6.7142731">
        <ele>1461.88</ele>
        <time>2019-09-04T08:27:44Z</time>
      </trkpt>
      <trkpt lat="45.7779684" lon="6.7142295">
        <ele>1461.67</ele>
        <time>2019-09-04T08:27:56Z</time>
      </trkpt>
      <trkpt lat="45.7778682" lon="6.7142007">
        <ele>1462.67</ele>
        <time>2019-09-04T08:28:08Z</time>
      </trkpt>
      <trkpt lat="45.7777754" lon="6.7142421">
        <ele>1464.58</ele>
        <time>2019-09-04T08:28:22Z</time>
      </trkpt>
      <trkpt lat="45.7776826" lon="6.7143044">
        <ele>1463.68</ele>
        <time>2019-09-04T08:28:36Z</time>
      </trkpt>
      <trkpt lat="45.7775970" lon="6.7143440">
        <ele>1464.65</ele>
        <time>2019-09-04T08:28:50Z</time>
      </trkpt>
      <trkpt lat="45.7775053" lon="6.7143556">
        <ele>1465.58</ele>
        <time>2019-09-04T08:29:00Z</time>
      </trkpt>
      <trkpt lat="45.7774150" lon="6.7143454">
        <ele>1465.67</ele>
        <time>2019-09-04T08:29:14Z</time>
      </trkpt>
      <trkpt lat="45.7773248" lon="6.7143318">
        <ele>1463.97</ele>
        <time>2019-09-04T08:29:30Z</time>
      </trkpt>
      <trkpt lat="45.7772334" lon="6.7144033">
        <ele>1464.44</ele>
        <time>2019-09-04T08:29:46Z</time>
      </trkpt>
      <trkpt lat="45.7771544" lon="6.7144746">
        <ele>1465.65</ele>
        <time>2019-09-04T08:29:58Z</time>
      </trkpt>
      <trkpt lat="45.7770703" lon="6.7145410">
        <ele>1467.37</ele>
        <time>2019-09-04T08:30:12Z</time>
      </trkpt>
      <trkpt lat="45.7769764" lon="6.7145969">
        <ele>1468.67</ele>
        <time>2019-09-04T08:30:24Z</time>
      </trkpt>
      <trkpt lat="45.7768937" lon="6.7146487">
        <ele>1471.55</ele>
        <time>2019-09-04T08:30:34Z</time>
      </trkpt>
      <trkpt lat="45.7768116" lon="6.7147224">
        <ele>1472.67</ele>
        <time>2019-09-04T08:30:46Z</time>
      </trkpt>
      <trkpt lat="45.7767198" lon="6.7147880">
        <ele>1474.35</ele>
        <time>2019-09-04T08:31:02Z</time>
      </trkpt>
      <trkpt lat="45.7766163" lon="6.7147709">
        <ele>1473.97</ele>
        <time>2019-09-04T08:31:24Z</time>
      </trkpt>
      <trkpt lat="45.7765263" lon="6.7148024">
        <ele>1474.88</ele>
        <time>2019-09-04T08:31:40Z</time>
      </trkpt>
      <trkpt lat="45.7764257" lon="6.7148203">
        <ele>1476.44</ele>
        <time>2019-09-04T08:31:52Z</time>
      </trkpt>
      <trkpt lat="45.7763261" lon="6.7148474">
        <ele>1476.67</ele>
        <time>2019-09-04T08:32:04Z</time>
      </trkpt>
      <trkpt lat="45.7762265" lon="6.7148786">
        <ele>1475.76</ele>
        <time>2019-09-04T08:32:16Z</time>
      </trkpt>
      <trkpt lat="45.7761247" lon="6.7149218">
        <ele>1477.65</ele>
        <time>2019-09-04T08:32:28Z</time>
      </trkpt>
      <trkpt lat="45.7760334" lon="6.7149845">
        <ele>1477.67</ele>
        <time>2019-09-04T08:32:40Z</time>
      </trkpt>
      <trkpt lat="45.7759518" lon="6.7150407">
        <ele>1477.62</ele>
        <time>2019-09-04T08:32:52Z</time>
      </trkpt>
      <trkpt lat="45.7758496" lon="6.7150635">
        <ele>1479.37</ele>
        <time>2019-09-04T08:33:06Z</time>
      </trkpt>
      <trkpt lat="45.7757487" lon="6.7151075">
        <ele>1481.58</ele>
        <time>2019-09-04T08:33:26Z</time>
      </trkpt>
      <trkpt lat="45.7756833" lon="6.7152246">
        <ele>1483.37</ele>
        <time>2019-09-04T08:33:38Z</time>
      </trkpt>
      <trkpt lat="45.7756141" lon="6.7153395">
        <ele>1486.55</ele>
        <time>2019-09-04T08:33:50Z</time>
      </trkpt>
      <trkpt lat="45.7755386" lon="6.7154353">
        <ele>1487.59</ele>
        <time>2019-09-04T08:34:02Z</time>
      </trkpt>
      <trkpt lat="45.7754590" lon="6.7155065">
        <ele>1489.58</ele>
        <time>2019-09-04T08:34:14Z</time>
      </trkpt>
      <trkpt lat="45.7753801" lon="6.7155941">
        <ele>1491.75</ele>
        <time>2019-09-04T08:34:28Z</time>
      </trkpt>
      <trkpt lat="45.7753112" lon="6.7156842">
        <ele>1494.43</ele>
        <time>2019-09-04T08:34:44Z</time>
      </trkpt>
      <trkpt lat="45.7752137" lon="6.7157034">
        <ele>1496.58</ele>
        <time>2019-09-04T08:35:00Z</time>
      </trkpt>
      <trkpt lat="45.7751150" lon="6.7157420">
        <ele>1501.28</ele>
        <time>2019-09-04T08:35:14Z</time>
      </trkpt>
      <trkpt lat="45.7750218" lon="6.7157776">
        <ele>1502.37</ele>
        <time>2019-09-04T08:35:28Z</time>
      </trkpt>
      <trkpt lat="45.7749326" lon="6.7157252">
        <ele>1503.73</ele>
        <time>2019-09-04T08:35:44Z</time>
      </trkpt>
      <trkpt lat="45.7748464" lon="6.7156697">
        <ele>1506.58</ele>
        <time>2019-09-04T08:35:56Z</time>
      </trkpt>
      <trkpt lat="45.7747556" lon="6.7156785">
        <ele>1508.65</ele>
        <time>2019-09-04T08:36:10Z</time>
      </trkpt>
      <trkpt lat="45.7746615" lon="6.7156959">
        <ele>1509.67</ele>
        <time>2019-09-04T08:36:22Z</time>
      </trkpt>
      <trkpt lat="45.7745590" lon="6.7157109">
        <ele>1510.65</ele>
        <time>2019-09-04T08:36:36Z</time>
      </trkpt>
      <trkpt lat="45.7744572" lon="6.7156997">
        <ele>1512.37</ele>
        <time>2019-09-04T08:36:48Z</time>
      </trkpt>
      <trkpt lat="45.7743645" lon="6.7157293">
        <ele>1514.58</ele>
        <time>2019-09-04T08:37:00Z</time>
      </trkpt>
      <trkpt lat="45.7742736" lon="6.7157996">
        <ele>1515.67</ele>
        <time>2019-09-04T08:37:12Z</time>
      </trkpt>
      <trkpt lat="45.7741828" lon="6.7158664">
        <ele>1516.37</ele>
        <time>2019-09-04T08:37:22Z</time>
      </trkpt>
      <trkpt lat="45.7740815" lon="6.7158858">
        <ele>1517.58</ele>
        <time>2019-09-04T08:37:32Z</time>
      </trkpt>
      <trkpt lat="45.7739754" lon="6.7158877">
        <ele>1518.67</ele>
        <time>2019-09-04T08:37:42Z</time>
      </trkpt>
      <trkpt lat="45.7738768" lon="6.7159032">
        <ele>1519.37</ele>
        <time>2019-09-04T08:37:52Z</time>
      </trkpt>
      <trkpt lat="45.7737780" lon="6.7159001">
        <ele>1518.76</ele>
        <time>2019-09-04T08:38:04Z</time>
      </trkpt>
      <trkpt lat="45.7736845" lon="6.7159129">
        <ele>1519.67</ele>
        <time>2019-09-04T08:38:14Z</time>
      </trkpt>
      <trkpt lat="45.7735873" lon="6.7159266">
        <ele>1519.67</ele>
        <time>2019-09-04T08:38:26Z</time>
      </trkpt>
      <trkpt lat="45.7734991" lon="6.7158639">
        <ele>1520.67</ele>
        <time>2019-09-04T08:38:38Z</time>
      </trkpt>
      <trkpt lat="45.7733960" lon="6.7158315">
        <ele>1521.58</ele>
        <time>2019-09-04T08:38:50Z</time>
      </trkpt>
      <trkpt lat="45.7733061" lon="6.7158175">
        <ele>1522.67</ele>
        <time>2019-09-04T08:39:02Z</time>
      </trkpt>
      <trkpt lat="45.7732205" lon="6.7157744">
        <ele>1523.65</ele>
        <time>2019-09-04T08:39:10Z</time>
      </trkpt>
      <trkpt lat="45.7731259" lon="6.7157387">
        <ele>1523.67</ele>
        <time>2019-09-04T08:39:18Z</time>
      </trkpt>
      <trkpt lat="45.7730330" lon="6.7157150">
        <ele>1524.67</ele>
        <time>2019-09-04T08:39:26Z</time>
      </trkpt>
      <trkpt lat="45.7729301" lon="6.7156975">
        <ele>1525.65</ele>
        <time>2019-09-04T08:39:36Z</time>
      </trkpt>
      <trkpt lat="45.7728412" lon="6.7156683">
        <ele>1525.61</ele>
        <time>2019-09-04T08:39:46Z</time>
      </trkpt>
      <trkpt lat="45.7727373" lon="6.7156730">
        <ele>1525.69</ele>
        <time>2019-09-04T08:39:56Z</time>
      </trkpt>
      <trkpt lat="45.7726313" lon="6.7156895">
        <ele>1525.67</ele>
        <time>2019-09-04T08:40:06Z</time>
      </trkpt>
      <trkpt lat="45.7725237" lon="6.7157114">
        <ele>1526.67</ele>
        <time>2019-09-04T08:40:16Z</time>
      </trkpt>
      <trkpt lat="45.7724227" lon="6.7157208">
        <ele>1526.59</ele>
        <time>2019-09-04T08:40:24Z</time>
      </trkpt>
      <trkpt lat="45.7723309" lon="6.7157293">
        <ele>1526.59</ele>
        <time>2019-09-04T08:40:32Z</time>
      </trkpt>
      <trkpt lat="45.7722399" lon="6.7157607">
        <ele>1525.76</ele>
        <time>2019-09-04T08:40:40Z</time>
      </trkpt>
      <trkpt lat="45.7721489" lon="6.7157781">
        <ele>1526.37</ele>
        <time>2019-09-04T08:40:48Z</time>
      </trkpt>
      <trkpt lat="45.7720415" lon="6.7157735">
        <ele>1526.67</ele>
        <time>2019-09-04T08:40:58Z</time>
      </trkpt>
      <trkpt lat="45.7719497" lon="6.7157439">
        <ele>1527.58</ele>
        <time>2019-09-04T08:41:06Z</time>
      </trkpt>
      <trkpt lat="45.7718565" lon="6.7157322">
        <ele>1528.67</ele>
        <time>2019-09-04T08:41:14Z</time>
      </trkpt>
      <trkpt lat="45.7717515" lon="6.7156944">
        <ele>1528.95</ele>
        <time>2019-09-04T08:41:24Z</time>
      </trkpt>
      <trkpt lat="45.7716488" lon="6.7156472">
        <ele>1529.60</ele>
        <time>2019-09-04T08:41:34Z</time>
      </trkpt>
      <trkpt lat="45.7715556" lon="6.7155616">
        <ele>1531.35</ele>
        <time>2019-09-04T08:41:44Z</time>
      </trkpt>
      <trkpt lat="45.7714875" lon="6.7154720">
        <ele>1530.70</ele>
        <time>2019-09-04T08:41:54Z</time>
      </trkpt>
      <trkpt lat="45.7714009" lon="6.7154209">
        <ele>1530.74</ele>
        <time>2019-09-04T08:42:04Z</time>
      </trkpt>
      <trkpt lat="45.7713104" lon="6.7154002">
        <ele>1531.39</ele>
        <time>2019-09-04T08:42:12Z</time>
      </trkpt>
      <trkpt lat="45.7712056" lon="6.7153605">
        <ele>1531.59</ele>
        <time>2019-09-04T08:42:22Z</time>
      </trkpt>
      <trkpt lat="45.7711094" lon="6.7153515">
        <ele>1531.67</ele>
        <time>2019-09-04T08:42:30Z</time>
      </trkpt>
      <trkpt lat="45.7710154" lon="6.7153394">
        <ele>1530.76</ele>
        <time>2019-09-04T08:42:38Z</time>
      </trkpt>
      <trkpt lat="45.7709223" lon="6.7153206">
        <ele>1530.67</ele>
        <time>2019-09-04T08:42:46Z</time>
      </trkpt>
      <trkpt lat="45.7708167" lon="6.7152935">
        <ele>1530.67</ele>
        <time>2019-09-04T08:42:56Z</time>
      </trkpt>
      <trkpt lat="45.7707011" lon="6.7152740">
        <ele>1530.67</ele>
        <time>2019-09-04T08:43:06Z</time>
      </trkpt>
      <trkpt lat="45.7706133" lon="6.7152292">
        <ele>1530.67</ele>
        <time>2019-09-04T08:43:14Z</time>
      </trkpt>
      <trkpt lat="45.7705227" lon="6.7151823">
        <ele>1532.37</ele>
        <time>2019-09-04T08:43:22Z</time>
      </trkpt>
      <trkpt lat="45.7704229" lon="6.7151137">
        <ele>1530.98</ele>
        <time>2019-09-04T08:43:32Z</time>
      </trkpt>
      <trkpt lat="45.7703330" lon="6.7150393">
        <ele>1531.58</ele>
        <time>2019-09-04T08:43:42Z</time>
      </trkpt>
      <trkpt lat="45.7702560" lon="6.7149639">
        <ele>1530.70</ele>
        <time>2019-09-04T08:43:50Z</time>
      </trkpt>
      <trkpt lat="45.7701635" lon="6.7148903">
        <ele>1531.44</ele>
        <time>2019-09-04T08:43:58Z</time>
      </trkpt>
      <trkpt lat="45.7700697" lon="6.7148184">
        <ele>1531.67</ele>
        <time>2019-09-04T08:44:08Z</time>
      </trkpt>
      <trkpt lat="45.7699786" lon="6.7147584">
        <ele>1532.58</ele>
        <time>2019-09-04T08:44:16Z</time>
      </trkpt>
      <trkpt lat="45.7698761" lon="6.7147357">
        <ele>1532.67</ele>
        <time>2019-09-04T08:44:24Z</time>
      </trkpt>
      <trkpt lat="45.7697785" lon="6.7147200">
        <ele>1532.67</ele>
        <time>2019-09-04T08:44:34Z</time>
      </trkpt>
      <trkpt lat="45.7696765" lon="6.7147068">
        <ele>1532.69</ele>
        <time>2019-09-04T08:44:44Z</time>
      </trkpt>
      <trkpt lat="45.7695847" lon="6.7146993">
        <ele>1532.40</ele>
        <time>2019-09-04T08:44:54Z</time>
      </trkpt>
      <trkpt lat="45.7694750" lon="6.7146828">
        <ele>1532.67</ele>
        <time>2019-09-04T08:45:04Z</time>
      </trkpt>
      <trkpt lat="45.7693723" lon="6.7146794">
        <ele>1533.58</ele>
        <time>2019-09-04T08:45:14Z</time>
      </trkpt>
      <trkpt lat="45.7692833" lon="6.7146574">
        <ele>1535.28</ele>
        <time>2019-09-04T08:45:22Z</time>
      </trkpt>
      <trkpt lat="45.7691953" lon="6.7146275">
        <ele>1534.97</ele>
        <time>2019-09-04T08:45:30Z</time>
      </trkpt>
      <trkpt lat="45.7691008" lon="6.7146050">
        <ele>1536.35</ele>
        <time>2019-09-04T08:45:40Z</time>
      </trkpt>
      <trkpt lat="45.7689994" lon="6.7145754">
        <ele>1537.65</ele>
        <time>2019-09-04T08:45:50Z</time>
      </trkpt>
      <trkpt lat="45.7689189" lon="6.7145114">
        <ele>1536.70</ele>
        <time>2019-09-04T08:45:58Z</time>
      </trkpt>
      <trkpt lat="45.7688242" lon="6.7144615">
        <ele>1536.67</ele>
        <time>2019-09-04T08:46:08Z</time>
      </trkpt>
      <trkpt lat="45.7687355" lon="6.7144340">
        <ele>1537.67</ele>
        <time>2019-09-04T08:46:16Z</time>
      </trkpt>
      <trkpt lat="45.7686341" lon="6.7143878">
        <ele>1539.37</ele>
        <time>2019-09-04T08:46:26Z</time>
      </trkpt>
      <trkpt lat="45.7685420" lon="6.7143387">
        <ele>1540.44</ele>
        <time>2019-09-04T08:46:36Z</time>
      </trkpt>
      <trkpt lat="45.7684572" lon="6.7142775">
        <ele>1540.67</ele>
        <time>2019-09-04T08:46:44Z</time>
      </trkpt>
      <trkpt lat="45.7683721" lon="6.7142293">
        <ele>1540.67</ele>
        <time>2019-09-04T08:46:52Z</time>
      </trkpt>
      <trkpt lat="45.7682760" lon="6.7141742">
        <ele>1540.67</ele>
        <time>2019-09-04T08:47:02Z</time>
      </trkpt>
      <trkpt lat="45.7681726" lon="6.7141383">
        <ele>1539.97</ele>
        <time>2019-09-04T08:47:12Z</time>
      </trkpt>
      <trkpt lat="45.7680850" lon="6.7140878">
        <ele>1540.67</ele>
        <time>2019-09-04T08:47:22Z</time>
      </trkpt>
      <trkpt lat="45.7679870" lon="6.7140355">
        <ele>1541.67</ele>
        <time>2019-09-04T08:47:32Z</time>
      </trkpt>
      <trkpt lat="45.7678778" lon="6.7139388">
        <ele>1546.57</ele>
        <time>2019-09-04T08:47:40Z</time>
      </trkpt>
      <trkpt lat="45.7677746" lon="6.7139063">
        <ele>1550.16</ele>
        <time>2019-09-04T08:47:48Z</time>
      </trkpt>
      <trkpt lat="45.7676854" lon="6.7138128">
        <ele>1553.40</ele>
        <time>2019-09-04T08:47:58Z</time>
      </trkpt>
      <trkpt lat="45.7675898" lon="6.7137552">
        <ele>1552.77</ele>
        <time>2019-09-04T08:48:09Z</time>
      </trkpt>
      <trkpt lat="45.7674809" lon="6.7136911">
        <ele>1553.67</ele>
        <time>2019-09-04T08:48:19Z</time>
      </trkpt>
      <trkpt lat="45.7674030" lon="6.7136116">
        <ele>1553.76</ele>
        <time>2019-09-04T08:48:27Z</time>
      </trkpt>
      <trkpt lat="45.7673167" lon="6.7135355">
        <ele>1552.00</ele>
        <time>2019-09-04T08:48:35Z</time>
      </trkpt>
      <trkpt lat="45.7672359" lon="6.7134555">
        <ele>1551.68</ele>
        <time>2019-09-04T08:48:43Z</time>
      </trkpt>
      <trkpt lat="45.7671504" lon="6.7133752">
        <ele>1550.77</ele>
        <time>2019-09-04T08:48:53Z</time>
      </trkpt>
      <trkpt lat="45.7670723" lon="6.7133090">
        <ele>1550.97</ele>
        <time>2019-09-04T08:49:01Z</time>
      </trkpt>
      <trkpt lat="45.7669928" lon="6.7132342">
        <ele>1549.77</ele>
        <time>2019-09-04T08:49:09Z</time>
      </trkpt>
      <trkpt lat="45.7669081" lon="6.7131492">
        <ele>1549.67</ele>
        <time>2019-09-04T08:49:19Z</time>
      </trkpt>
      <trkpt lat="45.7668231" lon="6.7130737">
        <ele>1549.67</ele>
        <time>2019-09-04T08:49:27Z</time>
      </trkpt>
      <trkpt lat="45.7667145" lon="6.7130248">
        <ele>1549.67</ele>
        <time>2019-09-04T08:49:35Z</time>
      </trkpt>
      <trkpt lat="45.7666157" lon="6.7129859">
        <ele>1549.67</ele>
        <time>2019-09-04T08:49:45Z</time>
      </trkpt>
      <trkpt lat="45.7665228" lon="6.7129473">
        <ele>1548.68</ele>
        <time>2019-09-04T08:49:55Z</time>
      </trkpt>
      <trkpt lat="45.7664279" lon="6.7129506">
        <ele>1547.27</ele>
        <time>2019-09-04T08:50:05Z</time>
      </trkpt>
      <trkpt lat="45.7663302" lon="6.7129160">
        <ele>1547.67</ele>
        <time>2019-09-04T08:50:15Z</time>
      </trkpt>
      <trkpt lat="45.7662242" lon="6.7128680">
        <ele>1548.65</ele>
        <time>2019-09-04T08:50:27Z</time>
      </trkpt>
      <trkpt lat="45.7661318" lon="6.7128342">
        <ele>1548.88</ele>
        <time>2019-09-04T08:50:37Z</time>
      </trkpt>
      <trkpt lat="45.7660252" lon="6.7128091">
        <ele>1550.35</ele>
        <time>2019-09-04T08:50:47Z</time>
      </trkpt>
      <trkpt lat="45.7659301" lon="6.7127634">
        <ele>1550.67</ele>
        <time>2019-09-04T08:50:59Z</time>
      </trkpt>
      <trkpt lat="45.7658254" lon="6.7127502">
        <ele>1551.73</ele>
        <time>2019-09-04T08:51:09Z</time>
      </trkpt>
      <trkpt lat="45.7657286" lon="6.7127105">
        <ele>1553.28</ele>
        <time>2019-09-04T08:51:17Z</time>
      </trkpt>
      <trkpt lat="45.7656275" lon="6.7126792">
        <ele>1555.64</ele>
        <time>2019-09-04T08:51:27Z</time>
      </trkpt>
      <trkpt lat="45.7655305" lon="6.7126644">
        <ele>1557.37</ele>
        <time>2019-09-04T08:51:37Z</time>
      </trkpt>
      <trkpt lat="45.7654369" lon="6.7126092">
        <ele>1559.34</ele>
        <time>2019-09-04T08:51:45Z</time>
      </trkpt>
      <trkpt lat="45.7653345" lon="6.7125602">
        <ele>1562.26</ele>
        <time>2019-09-04T08:51:55Z</time>
      </trkpt>
      <trkpt lat="45.7652359" lon="6.7125292">
        <ele>1565.34</ele>
        <time>2019-09-04T08:52:05Z</time>
      </trkpt>
      <trkpt lat="45.7651372" lon="6.7125129">
        <ele>1566.37</ele>
        <time>2019-09-04T08:52:17Z</time>
      </trkpt>
      <trkpt lat="45.7650462" lon="6.7125096">
        <ele>1566.67</ele>
        <time>2019-09-04T08:52:27Z</time>
      </trkpt>
      <trkpt lat="45.7649546" lon="6.7125021">
        <ele>1567.44</ele>
        <time>2019-09-04T08:52:37Z</time>
      </trkpt>
      <trkpt lat="45.7648440" lon="6.7124578">
        <ele>1567.67</ele>
        <time>2019-09-04T08:52:47Z</time>
      </trkpt>
      <trkpt lat="45.7647695" lon="6.7123746">
        <ele>1567.59</ele>
        <time>2019-09-04T08:52:57Z</time>
      </trkpt>
      <trkpt lat="45.7646811" lon="6.7123163">
        <ele>1567.38</ele>
        <time>2019-09-04T08:53:09Z</time>
      </trkpt>
      <trkpt lat="45.7645873" lon="6.7123003">
        <ele>1567.65</ele>
        <time>2019-09-04T08:53:17Z</time>
      </trkpt>
      <trkpt lat="45.7644850" lon="6.7122818">
        <ele>1567.69</ele>
        <time>2019-09-04T08:53:27Z</time>
      </trkpt>
      <trkpt lat="45.7643871" lon="6.7122738">
        <ele>1569.35</ele>
        <time>2019-09-04T08:53:35Z</time>
      </trkpt>
      <trkpt lat="45.7642857" lon="6.7122707">
        <ele>1570.66</ele>
        <time>2019-09-04T08:53:43Z</time>
      </trkpt>
      <trkpt lat="45.7641943" lon="6.7122424">
        <ele>1571.65</ele>
        <time>2019-09-04T08:53:53Z</time>
      </trkpt>
      <trkpt lat="45.7641068" lon="6.7121897">
        <ele>1572.44</ele>
        <time>2019-09-04T08:54:01Z</time>
      </trkpt>
      <trkpt lat="45.7640129" lon="6.7121611">
        <ele>1573.65</ele>
        <time>2019-09-04T08:54:11Z</time>
      </trkpt>
      <trkpt lat="45.7639146" lon="6.7121228">
        <ele>1573.67</ele>
        <time>2019-09-04T08:54:23Z</time>
      </trkpt>
      <trkpt lat="45.7638171" lon="6.7120719">
        <ele>1575.64</ele>
        <time>2019-09-04T08:54:35Z</time>
      </trkpt>
      <trkpt lat="45.7637251" lon="6.7120280">
        <ele>1576.67</ele>
        <time>2019-09-04T08:54:45Z</time>
      </trkpt>
      <trkpt lat="45.7636310" lon="6.7119796">
        <ele>1577.67</ele>
        <time>2019-09-04T08:54:55Z</time>
      </trkpt>
      <trkpt lat="45.7635347" lon="6.7119191">
        <ele>1578.58</ele>
        <time>2019-09-04T08:55:05Z</time>
      </trkpt>
      <trkpt lat="45.7634454" lon="6.7119003">
        <ele>1578.97</ele>
        <time>2019-09-04T08:55:15Z</time>
      </trkpt>
      <trkpt lat="45.7633434" lon="6.7118943">
        <ele>1579.67</ele>
        <time>2019-09-04T08:55:27Z</time>
      </trkpt>
      <trkpt lat="45.7632521" lon="6.7118665">
        <ele>1580.46</ele>
        <time>2019-09-04T08:55:37Z</time>
      </trkpt>
      <trkpt lat="45.7631505" lon="6.7118202">
        <ele>1581.44</ele>
        <time>2019-09-04T08:55:51Z</time>
      </trkpt>
      <trkpt lat="45.7630650" lon="6.7117669">
        <ele>1581.44</ele>
        <time>2019-09-04T08:55:59Z</time>
      </trkpt>
      <trkpt lat="45.7629703" lon="6.7117362">
        <ele>1582.37</ele>
        <time>2019-09-04T08:56:09Z</time>
      </trkpt>
      <trkpt lat="45.7628684" lon="6.7116797">
        <ele>1583.58</ele>
        <time>2019-09-04T08:56:19Z</time>
      </trkpt>
      <trkpt lat="45.7627754" lon="6.7116211">
        <ele>1586.34</ele>
        <time>2019-09-04T08:56:31Z</time>
      </trkpt>
      <trkpt lat="45.7626785" lon="6.7115531">
        <ele>1586.67</ele>
        <time>2019-09-04T08:56:43Z</time>
      </trkpt>
      <trkpt lat="45.7625835" lon="6.7115180">
        <ele>1588.56</ele>
        <time>2019-09-04T08:56:55Z</time>
      </trkpt>
      <trkpt lat="45.7624941" lon="6.7114628">
        <ele>1590.58</ele>
        <time>2019-09-04T08:57:07Z</time>
      </trkpt>
      <trkpt lat="45.7623949" lon="6.7114234">
        <ele>1590.67</ele>
        <time>2019-09-04T08:57:19Z</time>
      </trkpt>
      <trkpt lat="45.7623020" lon="6.7113965">
        <ele>1590.67</ele>
        <time>2019-09-04T08:57:29Z</time>
      </trkpt>
      <trkpt lat="45.7622029" lon="6.7113784">
        <ele>1590.69</ele>
        <time>2019-09-04T08:57:41Z</time>
      </trkpt>
      <trkpt lat="45.7621169" lon="6.7113300">
        <ele>1592.58</ele>
        <time>2019-09-04T08:57:51Z</time>
      </trkpt>
      <trkpt lat="45.7620149" lon="6.7113182">
        <ele>1592.88</ele>
        <time>2019-09-04T08:58:03Z</time>
      </trkpt>
      <trkpt lat="45.7619176" lon="6.7113298">
        <ele>1595.64</ele>
        <time>2019-09-04T08:58:17Z</time>
      </trkpt>
      <trkpt lat="45.7618187" lon="6.7113375">
        <ele>1597.58</ele>
        <time>2019-09-04T08:58:29Z</time>
      </trkpt>
      <trkpt lat="45.7617184" lon="6.7112885">
        <ele>1590.83</ele>
        <time>2019-09-04T08:58:41Z</time>
      </trkpt>
      <trkpt lat="45.7616106" lon="6.7113047">
        <ele>1600.24</ele>
        <time>2019-09-04T08:58:53Z</time>
      </trkpt>
      <trkpt lat="45.7615219" lon="6.7112817">
        <ele>1603.34</ele>
        <time>2019-09-04T08:59:05Z</time>
      </trkpt>
      <trkpt lat="45.7614213" lon="6.7112527">
        <ele>1604.76</ele>
        <time>2019-09-04T08:59:19Z</time>
      </trkpt>
      <trkpt lat="45.7613328" lon="6.7111723">
        <ele>1604.76</ele>
        <time>2019-09-04T08:59:31Z</time>
      </trkpt>
      <trkpt lat="45.7612463" lon="6.7111098">
        <ele>1606.58</ele>
        <time>2019-09-04T08:59:47Z</time>
      </trkpt>
      <trkpt lat="45.7611641" lon="6.7110164">
        <ele>1606.67</ele>
        <time>2019-09-04T08:59:59Z</time>
      </trkpt>
      <trkpt lat="45.7610666" lon="6.7110036">
        <ele>1608.64</ele>
        <time>2019-09-04T09:00:11Z</time>
      </trkpt>
      <trkpt lat="45.7609784" lon="6.7109639">
        <ele>1609.29</ele>
        <time>2019-09-04T09:00:21Z</time>
      </trkpt>
      <trkpt lat="45.7608802" lon="6.7109843">
        <ele>1609.30</ele>
        <time>2019-09-04T09:00:35Z</time>
      </trkpt>
      <trkpt lat="45.7607792" lon="6.7109844">
        <ele>1612.64</ele>
        <time>2019-09-04T09:00:47Z</time>
      </trkpt>
      <trkpt lat="45.7606794" lon="6.7110058">
        <ele>1614.58</ele>
        <time>2019-09-04T09:00:59Z</time>
      </trkpt>
      <trkpt lat="45.7605907" lon="6.7110365">
        <ele>1618.58</ele>
        <time>2019-09-04T09:01:13Z</time>
      </trkpt>
      <trkpt lat="45.7604882" lon="6.7110483">
        <ele>1621.25</ele>
        <time>2019-09-04T09:01:27Z</time>
      </trkpt>
      <trkpt lat="45.7603951" lon="6.7110224">
        <ele>1624.35</ele>
        <time>2019-09-04T09:01:41Z</time>
      </trkpt>
      <trkpt lat="45.7603020" lon="6.7110657">
        <ele>1627.26</ele>
        <time>2019-09-04T09:01:51Z</time>
      </trkpt>
      <trkpt lat="45.7602250" lon="6.7111493">
        <ele>1631.66</ele>
        <time>2019-09-04T09:02:09Z</time>
      </trkpt>
      <trkpt lat="45.7601454" lon="6.7112117">
        <ele>1633.66</ele>
        <time>2019-09-04T09:02:21Z</time>
      </trkpt>
      <trkpt lat="45.7600426" lon="6.7112178">
        <ele>1637.34</ele>
        <time>2019-09-04T09:02:37Z</time>
      </trkpt>
      <trkpt lat="45.7599549" lon="6.7111592">
        <ele>1640.05</ele>
        <time>2019-09-04T09:02:51Z</time>
      </trkpt>
      <trkpt lat="45.7598821" lon="6.7110834">
        <ele>1642.58</ele>
        <time>2019-09-04T09:03:07Z</time>
      </trkpt>
      <trkpt lat="45.7597950" lon="6.7110333">
        <ele>1644.64</ele>
        <time>2019-09-04T09:03:21Z</time>
      </trkpt>
      <trkpt lat="45.7596995" lon="6.7110123">
        <ele>1646.58</ele>
        <time>2019-09-04T09:03:35Z</time>
      </trkpt>
      <trkpt lat="45.7596189" lon="6.7109068">
        <ele>1648.64</ele>
        <time>2019-09-04T09:03:47Z</time>
      </trkpt>
      <trkpt lat="45.7595415" lon="6.7108166">
        <ele>1652.55</ele>
        <time>2019-09-04T09:04:01Z</time>
      </trkpt>
      <trkpt lat="45.7594805" lon="6.7107205">
        <ele>1654.37</ele>
        <time>2019-09-04T09:04:13Z</time>
      </trkpt>
      <trkpt lat="45.7593896" lon="6.7106779">
        <ele>1656.37</ele>
        <time>2019-09-04T09:04:25Z</time>
      </trkpt>
      <trkpt lat="45.7592992" lon="6.7106345">
        <ele>1659.58</ele>
        <time>2019-09-04T09:04:39Z</time>
      </trkpt>
      <trkpt lat="45.7592283" lon="6.7105506">
        <ele>1661.94</ele>
        <time>2019-09-04T09:04:53Z</time>
      </trkpt>
      <trkpt lat="45.7591411" lon="6.7104977">
        <ele>1664.36</ele>
        <time>2019-09-04T09:05:05Z</time>
      </trkpt>
      <trkpt lat="45.7590425" lon="6.7104602">
        <ele>1666.58</ele>
        <time>2019-09-04T09:05:19Z</time>
      </trkpt>
      <trkpt lat="45.7589526" lon="6.7104298">
        <ele>1668.58</ele>
        <time>2019-09-04T09:05:33Z</time>
      </trkpt>
      <trkpt lat="45.7588670" lon="6.7104839">
        <ele>1670.58</ele>
        <time>2019-09-04T09:05:45Z</time>
      </trkpt>
      <trkpt lat="45.7588255" lon="6.7106005">
        <ele>1671.67</ele>
        <time>2019-09-04T09:05:57Z</time>
      </trkpt>
      <trkpt lat="45.7587430" lon="6.7106857">
        <ele>1671.67</ele>
        <time>2019-09-04T09:06:09Z</time>
      </trkpt>
      <trkpt lat="45.7586545" lon="6.7107356">
        <ele>1671.67</ele>
        <time>2019-09-04T09:06:19Z</time>
      </trkpt>
      <trkpt lat="45.7585717" lon="6.7108148">
        <ele>1673.65</ele>
        <time>2019-09-04T09:06:31Z</time>
      </trkpt>
      <trkpt lat="45.7584813" lon="6.7108169">
        <ele>1676.35</ele>
        <time>2019-09-04T09:06:43Z</time>
      </trkpt>
      <trkpt lat="45.7583902" lon="6.7107653">
        <ele>1678.37</ele>
        <time>2019-09-04T09:06:57Z</time>
      </trkpt>
      <trkpt lat="45.7582947" lon="6.7107567">
        <ele>1680.88</ele>
        <time>2019-09-04T09:07:13Z</time>
      </trkpt>
      <trkpt lat="45.7581869" lon="6.7107620">
        <ele>1682.65</ele>
        <time>2019-09-04T09:07:27Z</time>
      </trkpt>
      <trkpt lat="45.7580964" lon="6.7107795">
        <ele>1684.64</ele>
        <time>2019-09-04T09:07:39Z</time>
      </trkpt>
      <trkpt lat="45.7580351" lon="6.7108751">
        <ele>1689.44</ele>
        <time>2019-09-04T09:07:53Z</time>
      </trkpt>
      <trkpt lat="45.7579945" lon="6.7110096">
        <ele>1692.58</ele>
        <time>2019-09-04T09:08:39Z</time>
      </trkpt>
      <trkpt lat="45.7579103" lon="6.7110582">
        <ele>1694.64</ele>
        <time>2019-09-04T09:08:49Z</time>
      </trkpt>
      <trkpt lat="45.7578069" lon="6.7110511">
        <ele>1695.58</ele>
        <time>2019-09-04T09:09:03Z</time>
      </trkpt>
      <trkpt lat="45.7577137" lon="6.7110156">
        <ele>1695.88</ele>
        <time>2019-09-04T09:09:15Z</time>
      </trkpt>
      <trkpt lat="45.7576250" lon="6.7109426">
        <ele>1697.37</ele>
        <time>2019-09-04T09:09:27Z</time>
      </trkpt>
      <trkpt lat="45.7575573" lon="6.7108394">
        <ele>1698.46</ele>
        <time>2019-09-04T09:09:41Z</time>
      </trkpt>
      <trkpt lat="45.7574641" lon="6.7107890">
        <ele>1707.37</ele>
        <time>2019-09-04T09:11:25Z</time>
      </trkpt>
      <trkpt lat="45.7574479" lon="6.7109234">
        <ele>1706.78</ele>
        <time>2019-09-04T09:16:14Z</time>
      </trkpt>
      <trkpt lat="45.7575418" lon="6.7110029">
        <ele>1704.49</ele>
        <time>2019-09-04T09:16:24Z</time>
      </trkpt>
      <trkpt lat="45.7575218" lon="6.7108647">
        <ele>1705.68</ele>
        <time>2019-09-04T09:36:58Z</time>
      </trkpt>
      <trkpt lat="45.7574708" lon="6.7107376">
        <ele>1702.37</ele>
        <time>2019-09-04T09:37:31Z</time>
      </trkpt>
      <trkpt lat="45.7573929" lon="6.7106720">
        <ele>1708.12</ele>
        <time>2019-09-04T09:39:19Z</time>
      </trkpt>
      <trkpt lat="45.7573053" lon="6.7106289">
        <ele>1707.40</ele>
        <time>2019-09-04T09:39:31Z</time>
      </trkpt>
      <trkpt lat="45.7572136" lon="6.7105898">
        <ele>1704.50</ele>
        <time>2019-09-04T09:39:45Z</time>
      </trkpt>
      <trkpt lat="45.7571355" lon="6.7105183">
        <ele>1705.58</ele>
        <time>2019-09-04T09:39:59Z</time>
      </trkpt>
      <trkpt lat="45.7570618" lon="6.7104315">
        <ele>1711.95</ele>
        <time>2019-09-04T09:40:13Z</time>
      </trkpt>
      <trkpt lat="45.7570052" lon="6.7103216">
        <ele>1712.75</ele>
        <time>2019-09-04T09:40:35Z</time>
      </trkpt>
      <trkpt lat="45.7569503" lon="6.7102166">
        <ele>1717.65</ele>
        <time>2019-09-04T09:41:15Z</time>
      </trkpt>
      <trkpt lat="45.7568568" lon="6.7102122">
        <ele>1717.69</ele>
        <time>2019-09-04T09:41:31Z</time>
      </trkpt>
      <trkpt lat="45.7568485" lon="6.7100695">
        <ele>1720.37</ele>
        <time>2019-09-04T09:41:57Z</time>
      </trkpt>
      <trkpt lat="45.7567899" lon="6.7099454">
        <ele>1723.86</ele>
        <time>2019-09-04T09:42:27Z</time>
      </trkpt>
      <trkpt lat="45.7567251" lon="6.7098398">
        <ele>1724.67</ele>
        <time>2019-09-04T09:42:49Z</time>
      </trkpt>
      <trkpt lat="45.7566550" lon="6.7097501">
        <ele>1725.67</ele>
        <time>2019-09-04T09:43:05Z</time>
      </trkpt>
      <trkpt lat="45.7566321" lon="6.7096123">
        <ele>1727.58</ele>
        <time>2019-09-04T09:43:23Z</time>
      </trkpt>
      <trkpt lat="45.7565760" lon="6.7095035">
        <ele>1731.37</ele>
        <time>2019-09-04T09:43:41Z</time>
      </trkpt>
      <trkpt lat="45.7565714" lon="6.7093577">
        <ele>1736.26</ele>
        <time>2019-09-04T09:43:59Z</time>
      </trkpt>
      <trkpt lat="45.7565093" lon="6.7092624">
        <ele>1737.67</ele>
        <time>2019-09-04T09:44:17Z</time>
      </trkpt>
      <trkpt lat="45.7564793" lon="6.7091402">
        <ele>1741.36</ele>
        <time>2019-09-04T09:44:35Z</time>
      </trkpt>
      <trkpt lat="45.7564213" lon="6.7090339">
        <ele>1743.65</ele>
        <time>2019-09-04T09:44:53Z</time>
      </trkpt>
      <trkpt lat="45.7563537" lon="6.7089361">
        <ele>1746.65</ele>
        <time>2019-09-04T09:45:13Z</time>
      </trkpt>
      <trkpt lat="45.7563007" lon="6.7088287">
        <ele>1748.39</ele>
        <time>2019-09-04T09:45:29Z</time>
      </trkpt>
      <trkpt lat="45.7562482" lon="6.7087210">
        <ele>1748.68</ele>
        <time>2019-09-04T09:45:43Z</time>
      </trkpt>
      <trkpt lat="45.7561608" lon="6.7086448">
        <ele>1750.66</ele>
        <time>2019-09-04T09:45:57Z</time>
      </trkpt>
      <trkpt lat="45.7560802" lon="6.7085438">
        <ele>1750.66</ele>
        <time>2019-09-04T09:46:09Z</time>
      </trkpt>
      <trkpt lat="45.7560069" lon="6.7084639">
        <ele>1750.74</ele>
        <time>2019-09-04T09:46:17Z</time>
      </trkpt>
      <trkpt lat="45.7559268" lon="6.7083718">
        <ele>1751.67</ele>
        <time>2019-09-04T09:46:27Z</time>
      </trkpt>
      <trkpt lat="45.7558473" lon="6.7082908">
        <ele>1750.68</ele>
        <time>2019-09-04T09:46:37Z</time>
      </trkpt>
      <trkpt lat="45.7557552" lon="6.7082124">
        <ele>1751.67</ele>
        <time>2019-09-04T09:46:49Z</time>
      </trkpt>
      <trkpt lat="45.7556777" lon="6.7081349">
        <ele>1754.34</ele>
        <time>2019-09-04T09:46:59Z</time>
      </trkpt>
      <trkpt lat="45.7555884" lon="6.7081039">
        <ele>1755.67</ele>
        <time>2019-09-04T09:47:13Z</time>
      </trkpt>
      <trkpt lat="45.7555194" lon="6.7082002">
        <ele>1756.67</ele>
        <time>2019-09-04T09:47:29Z</time>
      </trkpt>
      <trkpt lat="45.7554255" lon="6.7082467">
        <ele>1758.65</ele>
        <time>2019-09-04T09:47:43Z</time>
      </trkpt>
      <trkpt lat="45.7553314" lon="6.7082160">
        <ele>1761.64</ele>
        <time>2019-09-04T09:47:57Z</time>
      </trkpt>
      <trkpt lat="45.7552287" lon="6.7082044">
        <ele>1765.65</ele>
        <time>2019-09-04T09:48:15Z</time>
      </trkpt>
      <trkpt lat="45.7551519" lon="6.7081058">
        <ele>1764.68</ele>
        <time>2019-09-04T09:48:25Z</time>
      </trkpt>
      <trkpt lat="45.7550532" lon="6.7080741">
        <ele>1764.67</ele>
        <time>2019-09-04T09:48:39Z</time>
      </trkpt>
      <trkpt lat="45.7549692" lon="6.7080274">
        <ele>1766.37</ele>
        <time>2019-09-04T09:48:51Z</time>
      </trkpt>
      <trkpt lat="45.7549027" lon="6.7079397">
        <ele>1768.85</ele>
        <time>2019-09-04T09:49:03Z</time>
      </trkpt>
      <trkpt lat="45.7548166" lon="6.7078921">
        <ele>1769.39</ele>
        <time>2019-09-04T09:49:19Z</time>
      </trkpt>
      <trkpt lat="45.7547285" lon="6.7078624">
        <ele>1768.68</ele>
        <time>2019-09-04T09:49:33Z</time>
      </trkpt>
      <trkpt lat="45.7546276" lon="6.7078322">
        <ele>1768.95</ele>
        <time>2019-09-04T09:49:45Z</time>
      </trkpt>
      <trkpt lat="45.7545391" lon="6.7078640">
        <ele>1770.67</ele>
        <time>2019-09-04T09:49:59Z</time>
      </trkpt>
      <trkpt lat="45.7544492" lon="6.7079463">
        <ele>1772.67</ele>
        <time>2019-09-04T09:50:13Z</time>
      </trkpt>
      <trkpt lat="45.7543724" lon="6.7080509">
        <ele>1773.59</ele>
        <time>2019-09-04T09:50:25Z</time>
      </trkpt>
      <trkpt lat="45.7542906" lon="6.7081259">
        <ele>1772.76</ele>
        <time>2019-09-04T09:50:35Z</time>
      </trkpt>
      <trkpt lat="45.7542010" lon="6.7082018">
        <ele>1771.68</ele>
        <time>2019-09-04T09:50:45Z</time>
      </trkpt>
      <trkpt lat="45.7540962" lon="6.7082469">
        <ele>1773.58</ele>
        <time>2019-09-04T09:50:57Z</time>
      </trkpt>
      <trkpt lat="45.7540280" lon="6.7083480">
        <ele>1775.40</ele>
        <time>2019-09-04T09:51:11Z</time>
      </trkpt>
      <trkpt lat="45.7539465" lon="6.7084105">
        <ele>1778.05</ele>
        <time>2019-09-04T09:51:25Z</time>
      </trkpt>
      <trkpt lat="45.7538925" lon="6.7085236">
        <ele>1780.28</ele>
        <time>2019-09-04T09:51:43Z</time>
      </trkpt>
      <trkpt lat="45.7538209" lon="6.7086305">
        <ele>1787.32</ele>
        <time>2019-09-04T09:52:01Z</time>
      </trkpt>
      <trkpt lat="45.7537503" lon="6.7087337">
        <ele>1788.67</ele>
        <time>2019-09-04T09:52:17Z</time>
      </trkpt>
      <trkpt lat="45.7536579" lon="6.7087517">
        <ele>1790.37</ele>
        <time>2019-09-04T09:52:35Z</time>
      </trkpt>
      <trkpt lat="45.7535677" lon="6.7087713">
        <ele>1792.59</ele>
        <time>2019-09-04T09:52:59Z</time>
      </trkpt>
      <trkpt lat="45.7535568" lon="6.7089112">
        <ele>1797.87</ele>
        <time>2019-09-04T09:53:17Z</time>
      </trkpt>
      <trkpt lat="45.7534862" lon="6.7090087">
        <ele>1797.66</ele>
        <time>2019-09-04T09:53:31Z</time>
      </trkpt>
      <trkpt lat="45.7533927" lon="6.7090278">
        <ele>1800.37</ele>
        <time>2019-09-04T09:53:51Z</time>
      </trkpt>
      <trkpt lat="45.7533204" lon="6.7091096">
        <ele>1800.95</ele>
        <time>2019-09-04T09:54:11Z</time>
      </trkpt>
      <trkpt lat="45.7532290" lon="6.7090474">
        <ele>1802.91</ele>
        <time>2019-09-04T09:54:29Z</time>
      </trkpt>
      <trkpt lat="45.7531615" lon="6.7091477">
        <ele>1808.26</ele>
        <time>2019-09-04T09:54:49Z</time>
      </trkpt>
      <trkpt lat="45.7532112" lon="6.7092604">
        <ele>1826.32</ele>
        <time>2019-09-04T09:55:09Z</time>
      </trkpt>
      <trkpt lat="45.7531234" lon="6.7093009">
        <ele>1829.84</ele>
        <time>2019-09-04T09:55:33Z</time>
      </trkpt>
      <trkpt lat="45.7530343" lon="6.7093390">
        <ele>1835.56</ele>
        <time>2019-09-04T09:55:57Z</time>
      </trkpt>
      <trkpt lat="45.7529732" lon="6.7094339">
        <ele>1843.66</ele>
        <time>2019-09-04T09:56:15Z</time>
      </trkpt>
      <trkpt lat="45.7528772" lon="6.7094192">
        <ele>1841.63</ele>
        <time>2019-09-04T09:56:47Z</time>
      </trkpt>
      <trkpt lat="45.7527805" lon="6.7094244">
        <ele>1840.46</ele>
        <time>2019-09-04T09:57:19Z</time>
      </trkpt>
      <trkpt lat="45.7526903" lon="6.7093915">
        <ele>1849.37</ele>
        <time>2019-09-04T09:57:53Z</time>
      </trkpt>
      <trkpt lat="45.7526020" lon="6.7094304">
        <ele>1847.94</ele>
        <time>2019-09-04T09:58:27Z</time>
      </trkpt>
      <trkpt lat="45.7524968" lon="6.7093763">
        <ele>1848.27</ele>
        <time>2019-09-04T09:58:43Z</time>
      </trkpt>
      <trkpt lat="45.7524755" lon="6.7092443">
        <ele>1857.14</ele>
        <time>2019-09-04T09:58:55Z</time>
      </trkpt>
      <trkpt lat="45.7524152" lon="6.7093420">
        <ele>1854.68</ele>
        <time>2019-09-04T09:59:17Z</time>
      </trkpt>
      <trkpt lat="45.7523198" lon="6.7093417">
        <ele>1859.37</ele>
        <time>2019-09-04T09:59:39Z</time>
      </trkpt>
      <trkpt lat="45.7522271" lon="6.7093884">
        <ele>1861.66</ele>
        <time>2019-09-04T10:00:03Z</time>
      </trkpt>
      <trkpt lat="45.7521481" lon="6.7094518">
        <ele>1864.76</ele>
        <time>2019-09-04T10:00:21Z</time>
      </trkpt>
      <trkpt lat="45.7520658" lon="6.7095371">
        <ele>1863.88</ele>
        <time>2019-09-04T10:00:43Z</time>
      </trkpt>
      <trkpt lat="45.7519632" lon="6.7095574">
        <ele>1863.85</ele>
        <time>2019-09-04T10:01:03Z</time>
      </trkpt>
      <trkpt lat="45.7518683" lon="6.7095282">
        <ele>1868.84</ele>
        <time>2019-09-04T10:01:23Z</time>
      </trkpt>
      <trkpt lat="45.7517713" lon="6.7095651">
        <ele>1879.91</ele>
        <time>2019-09-04T10:02:07Z</time>
      </trkpt>
      <trkpt lat="45.7516807" lon="6.7095553">
        <ele>1888.80</ele>
        <time>2019-09-04T10:02:29Z</time>
      </trkpt>
      <trkpt lat="45.7515808" lon="6.7095985">
        <ele>1885.32</ele>
        <time>2019-09-04T10:02:47Z</time>
      </trkpt>
      <trkpt lat="45.7515216" lon="6.7097035">
        <ele>1884.60</ele>
        <time>2019-09-04T10:03:09Z</time>
      </trkpt>
      <trkpt lat="45.7514468" lon="6.7097758">
        <ele>1887.67</ele>
        <time>2019-09-04T10:03:31Z</time>
      </trkpt>
      <trkpt lat="45.7513495" lon="6.7097544">
        <ele>1884.80</ele>
        <time>2019-09-04T10:03:39Z</time>
      </trkpt>
      <trkpt lat="45.7512546" lon="6.7097801">
        <ele>1884.17</ele>
        <time>2019-09-04T10:03:51Z</time>
      </trkpt>
      <trkpt lat="45.7511581" lon="6.7098345">
        <ele>1885.18</ele>
        <time>2019-09-04T10:04:05Z</time>
      </trkpt>
      <trkpt lat="45.7511089" lon="6.7099626">
        <ele>1894.59</ele>
        <time>2019-09-04T10:06:57Z</time>
      </trkpt>
      <trkpt lat="45.7510255" lon="6.7100580">
        <ele>1896.37</ele>
        <time>2019-09-04T10:07:07Z</time>
      </trkpt>
      <trkpt lat="45.7509409" lon="6.7101471">
        <ele>1896.61</ele>
        <time>2019-09-04T10:07:17Z</time>
      </trkpt>
      <trkpt lat="45.7508634" lon="6.7102235">
        <ele>1896.67</ele>
        <time>2019-09-04T10:07:27Z</time>
      </trkpt>
      <trkpt lat="45.7507640" lon="6.7102474">
        <ele>1896.63</ele>
        <time>2019-09-04T10:07:35Z</time>
      </trkpt>
      <trkpt lat="45.7506645" lon="6.7102748">
        <ele>1896.67</ele>
        <time>2019-09-04T10:07:45Z</time>
      </trkpt>
      <trkpt lat="45.7505596" lon="6.7103389">
        <ele>1896.97</ele>
        <time>2019-09-04T10:07:55Z</time>
      </trkpt>
      <trkpt lat="45.7504564" lon="6.7104137">
        <ele>1896.68</ele>
        <time>2019-09-04T10:08:03Z</time>
      </trkpt>
      <trkpt lat="45.7503794" lon="6.7104889">
        <ele>1895.06</ele>
        <time>2019-09-04T10:08:09Z</time>
      </trkpt>
      <trkpt lat="45.7503428" lon="6.7106217">
        <ele>1896.37</ele>
        <time>2019-09-04T10:08:21Z</time>
      </trkpt>
      <trkpt lat="45.7503111" lon="6.7107456">
        <ele>1895.68</ele>
        <time>2019-09-04T10:08:29Z</time>
      </trkpt>
      <trkpt lat="45.7502464" lon="6.7108365">
        <ele>1894.68</ele>
        <time>2019-09-04T10:08:37Z</time>
      </trkpt>
      <trkpt lat="45.7501521" lon="6.7109143">
        <ele>1892.07</ele>
        <time>2019-09-04T10:08:47Z</time>
      </trkpt>
      <trkpt lat="45.7500989" lon="6.7110358">
        <ele>1890.68</ele>
        <time>2019-09-04T10:08:59Z</time>
      </trkpt>
      <trkpt lat="45.7500586" lon="6.7111787">
        <ele>1892.35</ele>
        <time>2019-09-04T10:09:09Z</time>
      </trkpt>
      <trkpt lat="45.7500451" lon="6.7113141">
        <ele>1893.65</ele>
        <time>2019-09-04T10:09:19Z</time>
      </trkpt>
      <trkpt lat="45.7499986" lon="6.7114335">
        <ele>1892.87</ele>
        <time>2019-09-04T10:09:27Z</time>
      </trkpt>
      <trkpt lat="45.7499356" lon="6.7115286">
        <ele>1893.44</ele>
        <time>2019-09-04T10:09:37Z</time>
      </trkpt>
      <trkpt lat="45.7498989" lon="6.7116470">
        <ele>1895.44</ele>
        <time>2019-09-04T10:09:47Z</time>
      </trkpt>
      <trkpt lat="45.7498356" lon="6.7117671">
        <ele>1896.74</ele>
        <time>2019-09-04T10:09:59Z</time>
      </trkpt>
      <trkpt lat="45.7497753" lon="6.7118848">
        <ele>1899.14</ele>
        <time>2019-09-04T10:10:11Z</time>
      </trkpt>
      <trkpt lat="45.7497493" lon="6.7120186">
        <ele>1899.25</ele>
        <time>2019-09-04T10:10:21Z</time>
      </trkpt>
      <trkpt lat="45.7496873" lon="6.7121398">
        <ele>1902.23</ele>
        <time>2019-09-04T10:10:37Z</time>
      </trkpt>
      <trkpt lat="45.7496075" lon="6.7122091">
        <ele>1902.53</ele>
        <time>2019-09-04T10:10:47Z</time>
      </trkpt>
      <trkpt lat="45.7495201" lon="6.7123016">
        <ele>1903.46</ele>
        <time>2019-09-04T10:10:55Z</time>
      </trkpt>
      <trkpt lat="45.7494653" lon="6.7124056">
        <ele>1904.52</ele>
        <time>2019-09-04T10:11:03Z</time>
      </trkpt>
      <trkpt lat="45.7494339" lon="6.7125296">
        <ele>1904.32</ele>
        <time>2019-09-04T10:11:11Z</time>
      </trkpt>
      <trkpt lat="45.7493922" lon="6.7126543">
        <ele>1903.54</ele>
        <time>2019-09-04T10:11:19Z</time>
      </trkpt>
      <trkpt lat="45.7493554" lon="6.7127884">
        <ele>1904.80</ele>
        <time>2019-09-04T10:11:31Z</time>
      </trkpt>
      <trkpt lat="45.7493186" lon="6.7129186">
        <ele>1904.53</ele>
        <time>2019-09-04T10:11:39Z</time>
      </trkpt>
      <trkpt lat="45.7492708" lon="6.7130428">
        <ele>1905.52</ele>
        <time>2019-09-04T10:11:51Z</time>
      </trkpt>
      <trkpt lat="45.7492381" lon="6.7131693">
        <ele>1904.83</ele>
        <time>2019-09-04T10:11:59Z</time>
      </trkpt>
      <trkpt lat="45.7491766" lon="6.7132841">
        <ele>1905.53</ele>
        <time>2019-09-04T10:12:09Z</time>
      </trkpt>
      <trkpt lat="45.7490985" lon="6.7133846">
        <ele>1905.53</ele>
        <time>2019-09-04T10:12:19Z</time>
      </trkpt>
      <trkpt lat="45.7490278" lon="6.7134890">
        <ele>1905.53</ele>
        <time>2019-09-04T10:12:29Z</time>
      </trkpt>
      <trkpt lat="45.7489591" lon="6.7136041">
        <ele>1907.46</ele>
        <time>2019-09-04T10:12:41Z</time>
      </trkpt>
      <trkpt lat="45.7489165" lon="6.7137213">
        <ele>1908.52</ele>
        <time>2019-09-04T10:12:51Z</time>
      </trkpt>
      <trkpt lat="45.7488628" lon="6.7138397">
        <ele>1908.62</ele>
        <time>2019-09-04T10:13:01Z</time>
      </trkpt>
      <trkpt lat="45.7487782" lon="6.7139263">
        <ele>1910.52</ele>
        <time>2019-09-04T10:13:11Z</time>
      </trkpt>
      <trkpt lat="45.7487081" lon="6.7140455">
        <ele>1911.50</ele>
        <time>2019-09-04T10:13:21Z</time>
      </trkpt>
      <trkpt lat="45.7486400" lon="6.7141561">
        <ele>1911.54</ele>
        <time>2019-09-04T10:13:31Z</time>
      </trkpt>
      <trkpt lat="45.7485572" lon="6.7142220">
        <ele>1912.24</ele>
        <time>2019-09-04T10:13:43Z</time>
      </trkpt>
      <trkpt lat="45.7484507" lon="6.7142508">
        <ele>1913.52</ele>
        <time>2019-09-04T10:13:53Z</time>
      </trkpt>
      <trkpt lat="45.7483581" lon="6.7142753">
        <ele>1912.54</ele>
        <time>2019-09-04T10:14:01Z</time>
      </trkpt>
      <trkpt lat="45.7482665" lon="6.7142933">
        <ele>1913.59</ele>
        <time>2019-09-04T10:14:11Z</time>
      </trkpt>
      <trkpt lat="45.7481583" lon="6.7143031">
        <ele>1913.53</ele>
        <time>2019-09-04T10:14:21Z</time>
      </trkpt>
      <trkpt lat="45.7480686" lon="6.7143342">
        <ele>1913.53</ele>
        <time>2019-09-04T10:14:31Z</time>
      </trkpt>
      <trkpt lat="45.7479612" lon="6.7143734">
        <ele>1911.77</ele>
        <time>2019-09-04T10:14:41Z</time>
      </trkpt>
      <trkpt lat="45.7478880" lon="6.7144662">
        <ele>1910.62</ele>
        <time>2019-09-04T10:14:49Z</time>
      </trkpt>
      <trkpt lat="45.7477878" lon="6.7144998">
        <ele>1910.53</ele>
        <time>2019-09-04T10:15:01Z</time>
      </trkpt>
      <trkpt lat="45.7477077" lon="6.7145626">
        <ele>1910.53</ele>
        <time>2019-09-04T10:15:13Z</time>
      </trkpt>
      <trkpt lat="45.7476188" lon="6.7146195">
        <ele>1908.92</ele>
        <time>2019-09-04T10:15:25Z</time>
      </trkpt>
      <trkpt lat="45.7475490" lon="6.7147426">
        <ele>1910.52</ele>
        <time>2019-09-04T10:15:37Z</time>
      </trkpt>
      <trkpt lat="45.7475658" lon="6.7148788">
        <ele>1910.53</ele>
        <time>2019-09-04T10:15:47Z</time>
      </trkpt>
      <trkpt lat="45.7476645" lon="6.7149292">
        <ele>1914.20</ele>
        <time>2019-09-04T10:16:03Z</time>
      </trkpt>
      <trkpt lat="45.7476659" lon="6.7150747">
        <ele>1916.80</ele>
        <time>2019-09-04T10:16:31Z</time>
      </trkpt>
      <trkpt lat="45.7475616" lon="6.7150620">
        <ele>1916.44</ele>
        <time>2019-09-04T10:16:45Z</time>
      </trkpt>
      <trkpt lat="45.7474714" lon="6.7151463">
        <ele>1915.53</ele>
        <time>2019-09-04T10:16:59Z</time>
      </trkpt>
      <trkpt lat="45.7473736" lon="6.7151947">
        <ele>1916.53</ele>
        <time>2019-09-04T10:17:11Z</time>
      </trkpt>
      <trkpt lat="45.7472701" lon="6.7152000">
        <ele>1917.50</ele>
        <time>2019-09-04T10:17:23Z</time>
      </trkpt>
      <trkpt lat="45.7472110" lon="6.7153060">
        <ele>1918.44</ele>
        <time>2019-09-04T10:17:35Z</time>
      </trkpt>
      <trkpt lat="45.7471266" lon="6.7153780">
        <ele>1919.24</ele>
        <time>2019-09-04T10:17:47Z</time>
      </trkpt>
      <trkpt lat="45.7470901" lon="6.7155034">
        <ele>1919.83</ele>
        <time>2019-09-04T10:17:59Z</time>
      </trkpt>
      <trkpt lat="45.7470798" lon="6.7156448">
        <ele>1921.41</ele>
        <time>2019-09-04T10:18:19Z</time>
      </trkpt>
      <trkpt lat="45.7470251" lon="6.7157684">
        <ele>1920.50</ele>
        <time>2019-09-04T10:18:31Z</time>
      </trkpt>
      <trkpt lat="45.7469706" lon="6.7158809">
        <ele>1923.44</ele>
        <time>2019-09-04T10:18:45Z</time>
      </trkpt>
      <trkpt lat="45.7469787" lon="6.7160105">
        <ele>1924.80</ele>
        <time>2019-09-04T10:18:57Z</time>
      </trkpt>
      <trkpt lat="45.7469166" lon="6.7161088">
        <ele>1926.14</ele>
        <time>2019-09-04T10:19:11Z</time>
      </trkpt>
      <trkpt lat="45.7468918" lon="6.7162508">
        <ele>1926.53</ele>
        <time>2019-09-04T10:19:27Z</time>
      </trkpt>
      <trkpt lat="45.7468510" lon="6.7163755">
        <ele>1926.53</ele>
        <time>2019-09-04T10:19:37Z</time>
      </trkpt>
      <trkpt lat="45.7468500" lon="6.7165257">
        <ele>1930.43</ele>
        <time>2019-09-04T10:19:53Z</time>
      </trkpt>
      <trkpt lat="45.7468246" lon="6.7166610">
        <ele>1931.50</ele>
        <time>2019-09-04T10:20:05Z</time>
      </trkpt>
      <trkpt lat="45.7467792" lon="6.7167872">
        <ele>1933.23</ele>
        <time>2019-09-04T10:20:19Z</time>
      </trkpt>
      <trkpt lat="45.7467039" lon="6.7168835">
        <ele>1934.50</ele>
        <time>2019-09-04T10:20:31Z</time>
      </trkpt>
      <trkpt lat="45.7466386" lon="6.7169906">
        <ele>1937.16</ele>
        <time>2019-09-04T10:20:45Z</time>
      </trkpt>
      <trkpt lat="45.7466163" lon="6.7171317">
        <ele>1941.20</ele>
        <time>2019-09-04T10:21:01Z</time>
      </trkpt>
      <trkpt lat="45.7465540" lon="6.7172486">
        <ele>1941.55</ele>
        <time>2019-09-04T10:21:15Z</time>
      </trkpt>
      <trkpt lat="45.7464795" lon="6.7173449">
        <ele>1945.43</ele>
        <time>2019-09-04T10:21:33Z</time>
      </trkpt>
      <trkpt lat="45.7464848" lon="6.7174780">
        <ele>1949.11</ele>
        <time>2019-09-04T10:21:45Z</time>
      </trkpt>
      <trkpt lat="45.7464723" lon="6.7176214">
        <ele>1951.50</ele>
        <time>2019-09-04T10:22:01Z</time>
      </trkpt>
      <trkpt lat="45.7465200" lon="6.7177554">
        <ele>1954.20</ele>
        <time>2019-09-04T10:22:13Z</time>
      </trkpt>
      <trkpt lat="45.7465912" lon="6.7178605">
        <ele>1955.53</ele>
        <time>2019-09-04T10:22:25Z</time>
      </trkpt>
      <trkpt lat="45.7465964" lon="6.7180010">
        <ele>1958.44</ele>
        <time>2019-09-04T10:22:37Z</time>
      </trkpt>
      <trkpt lat="45.7466086" lon="6.7181445">
        <ele>1960.50</ele>
        <time>2019-09-04T10:22:51Z</time>
      </trkpt>
      <trkpt lat="45.7465346" lon="6.7180605">
        <ele>1963.44</ele>
        <time>2019-09-04T10:23:17Z</time>
      </trkpt>
      <trkpt lat="45.7464672" lon="6.7179636">
        <ele>1964.50</ele>
        <time>2019-09-04T10:23:27Z</time>
      </trkpt>
      <trkpt lat="45.7463772" lon="6.7179058">
        <ele>1965.44</ele>
        <time>2019-09-04T10:23:41Z</time>
      </trkpt>
      <trkpt lat="45.7463207" lon="6.7177944">
        <ele>1965.80</ele>
        <time>2019-09-04T10:23:57Z</time>
      </trkpt>
      <trkpt lat="45.7462521" lon="6.7176883">
        <ele>1966.29</ele>
        <time>2019-09-04T10:24:09Z</time>
      </trkpt>
      <trkpt lat="45.7461605" lon="6.7176286">
        <ele>1966.53</ele>
        <time>2019-09-04T10:24:25Z</time>
      </trkpt>
      <trkpt lat="45.7460816" lon="6.7175639">
        <ele>1967.23</ele>
        <time>2019-09-04T10:24:41Z</time>
      </trkpt>
      <trkpt lat="45.7460162" lon="6.7174692">
        <ele>1968.23</ele>
        <time>2019-09-04T10:24:59Z</time>
      </trkpt>
      <trkpt lat="45.7459458" lon="6.7173849">
        <ele>1970.47</ele>
        <time>2019-09-04T10:25:19Z</time>
      </trkpt>
      <trkpt lat="45.7458761" lon="6.7172984">
        <ele>1971.40</ele>
        <time>2019-09-04T10:25:33Z</time>
      </trkpt>
      <trkpt lat="45.7457964" lon="6.7172357">
        <ele>1972.27</ele>
        <time>2019-09-04T10:25:47Z</time>
      </trkpt>
      <trkpt lat="45.7457007" lon="6.7171961">
        <ele>1977.20</ele>
        <time>2019-09-04T10:26:11Z</time>
      </trkpt>
      <trkpt lat="45.7456120" lon="6.7171226">
        <ele>1983.22</ele>
        <time>2019-09-04T10:26:33Z</time>
      </trkpt>
      <trkpt lat="45.7455186" lon="6.7171231">
        <ele>1986.42</ele>
        <time>2019-09-04T10:26:55Z</time>
      </trkpt>
      <trkpt lat="45.7454310" lon="6.7170673">
        <ele>1990.44</ele>
        <time>2019-09-04T10:27:23Z</time>
      </trkpt>
      <trkpt lat="45.7453426" lon="6.7170428">
        <ele>1994.62</ele>
        <time>2019-09-04T10:27:45Z</time>
      </trkpt>
      <trkpt lat="45.7452596" lon="6.7171012">
        <ele>2001.44</ele>
        <time>2019-09-04T10:28:15Z</time>
      </trkpt>
      <trkpt lat="45.7451899" lon="6.7169925">
        <ele>2005.41</ele>
        <time>2019-09-04T10:28:35Z</time>
      </trkpt>
      <trkpt lat="45.7451556" lon="6.7168724">
        <ele>2012.41</ele>
        <time>2019-09-04T10:28:59Z</time>
      </trkpt>
      <trkpt lat="45.7451389" lon="6.7167427">
        <ele>2018.73</ele>
        <time>2019-09-04T10:29:27Z</time>
      </trkpt>
      <trkpt lat="45.7450563" lon="6.7166590">
        <ele>2019.47</ele>
        <time>2019-09-04T10:29:43Z</time>
      </trkpt>
      <trkpt lat="45.7449675" lon="6.7166868">
        <ele>2022.22</ele>
        <time>2019-09-04T10:30:01Z</time>
      </trkpt>
      <trkpt lat="45.7449091" lon="6.7165733">
        <ele>2026.50</ele>
        <time>2019-09-04T10:30:27Z</time>
      </trkpt>
      <trkpt lat="45.7448188" lon="6.7165286">
        <ele>2028.53</ele>
        <time>2019-09-04T10:30:47Z</time>
      </trkpt>
      <trkpt lat="45.7447875" lon="6.7163905">
        <ele>2030.23</ele>
        <time>2019-09-04T10:31:01Z</time>
      </trkpt>
      <trkpt lat="45.7447653" lon="6.7162582">
        <ele>2031.50</ele>
        <time>2019-09-04T10:31:17Z</time>
      </trkpt>
      <trkpt lat="45.7446978" lon="6.7161495">
        <ele>2038.53</ele>
        <time>2019-09-04T10:33:37Z</time>
      </trkpt>
      <trkpt lat="45.7446111" lon="6.7160852">
        <ele>2039.74</ele>
        <time>2019-09-04T10:33:49Z</time>
      </trkpt>
      <trkpt lat="45.7445138" lon="6.7160717">
        <ele>2041.52</ele>
        <time>2019-09-04T10:34:05Z</time>
      </trkpt>
      <trkpt lat="45.7444244" lon="6.7160391">
        <ele>2043.23</ele>
        <time>2019-09-04T10:34:19Z</time>
      </trkpt>
      <trkpt lat="45.7443287" lon="6.7159982">
        <ele>2045.44</ele>
        <time>2019-09-04T10:34:35Z</time>
      </trkpt>
      <trkpt lat="45.7442295" lon="6.7159920">
        <ele>2046.53</ele>
        <time>2019-09-04T10:34:51Z</time>
      </trkpt>
      <trkpt lat="45.7441416" lon="6.7159577">
        <ele>2052.22</ele>
        <time>2019-09-04T10:35:11Z</time>
      </trkpt>
      <trkpt lat="45.7440527" lon="6.7159167">
        <ele>2052.53</ele>
        <time>2019-09-04T10:35:25Z</time>
      </trkpt>
      <trkpt lat="45.7439933" lon="6.7158136">
        <ele>2055.43</ele>
        <time>2019-09-04T10:35:43Z</time>
      </trkpt>
      <trkpt lat="45.7439135" lon="6.7157464">
        <ele>2057.44</ele>
        <time>2019-09-04T10:35:57Z</time>
      </trkpt>
      <trkpt lat="45.7438192" lon="6.7157047">
        <ele>2059.44</ele>
        <time>2019-09-04T10:36:11Z</time>
      </trkpt>
      <trkpt lat="45.7437294" lon="6.7156821">
        <ele>2061.14</ele>
        <time>2019-09-04T10:36:25Z</time>
      </trkpt>
      <trkpt lat="45.7436367" lon="6.7156399">
        <ele>2063.50</ele>
        <time>2019-09-04T10:36:41Z</time>
      </trkpt>
      <trkpt lat="45.7435501" lon="6.7155919">
        <ele>2064.50</ele>
        <time>2019-09-04T10:36:53Z</time>
      </trkpt>
      <trkpt lat="45.7434491" lon="6.7155598">
        <ele>2065.47</ele>
        <time>2019-09-04T10:37:05Z</time>
      </trkpt>
      <trkpt lat="45.7433571" lon="6.7155406">
        <ele>2065.53</ele>
        <time>2019-09-04T10:37:15Z</time>
      </trkpt>
      <trkpt lat="45.7432593" lon="6.7155189">
        <ele>2065.53</ele>
        <time>2019-09-04T10:37:25Z</time>
      </trkpt>
      <trkpt lat="45.7431694" lon="6.7155240">
        <ele>2065.59</ele>
        <time>2019-09-04T10:37:35Z</time>
      </trkpt>
      <trkpt lat="45.7430621" lon="6.7154924">
        <ele>2065.55</ele>
        <time>2019-09-04T10:37:47Z</time>
      </trkpt>
      <trkpt lat="45.7429743" lon="6.7154613">
        <ele>2060.64</ele>
        <time>2019-09-04T10:37:59Z</time>
      </trkpt>
      <trkpt lat="45.7428943" lon="6.7153958">
        <ele>2064.53</ele>
        <time>2019-09-04T10:38:13Z</time>
      </trkpt>
      <trkpt lat="45.7427930" lon="6.7153578">
        <ele>2066.52</ele>
        <time>2019-09-04T10:38:25Z</time>
      </trkpt>
      <trkpt lat="45.7427098" lon="6.7152850">
        <ele>2066.53</ele>
        <time>2019-09-04T10:38:35Z</time>
      </trkpt>
      <trkpt lat="45.7426727" lon="6.7151526">
        <ele>2067.52</ele>
        <time>2019-09-04T10:38:47Z</time>
      </trkpt>
      <trkpt lat="45.7426129" lon="6.7150525">
        <ele>2068.44</ele>
        <time>2019-09-04T10:38:59Z</time>
      </trkpt>
      <trkpt lat="45.7425372" lon="6.7149758">
        <ele>2070.52</ele>
        <time>2019-09-04T10:39:11Z</time>
      </trkpt>
      <trkpt lat="45.7424597" lon="6.7148729">
        <ele>2072.41</ele>
        <time>2019-09-04T10:39:23Z</time>
      </trkpt>
      <trkpt lat="45.7423738" lon="6.7147950">
        <ele>2072.53</ele>
        <time>2019-09-04T10:39:35Z</time>
      </trkpt>
      <trkpt lat="45.7422910" lon="6.7147276">
        <ele>2072.10</ele>
        <time>2019-09-04T10:39:49Z</time>
      </trkpt>
      <trkpt lat="45.7422139" lon="6.7146533">
        <ele>2072.53</ele>
        <time>2019-09-04T10:40:01Z</time>
      </trkpt>
      <trkpt lat="45.7421244" lon="6.7145966">
        <ele>2071.53</ele>
        <time>2019-09-04T10:40:13Z</time>
      </trkpt>
      <trkpt lat="45.7420267" lon="6.7145549">
        <ele>2071.13</ele>
        <time>2019-09-04T10:40:25Z</time>
      </trkpt>
      <trkpt lat="45.7419362" lon="6.7144890">
        <ele>2072.23</ele>
        <time>2019-09-04T10:40:37Z</time>
      </trkpt>
      <trkpt lat="45.7418531" lon="6.7144200">
        <ele>2076.39</ele>
        <time>2019-09-04T10:40:51Z</time>
      </trkpt>
      <trkpt lat="45.7417777" lon="6.7143342">
        <ele>2075.33</ele>
        <time>2019-09-04T10:41:03Z</time>
      </trkpt>
      <trkpt lat="45.7417041" lon="6.7142576">
        <ele>2076.51</ele>
        <time>2019-09-04T10:41:13Z</time>
      </trkpt>
      <trkpt lat="45.7416384" lon="6.7141596">
        <ele>2077.53</ele>
        <time>2019-09-04T10:41:23Z</time>
      </trkpt>
      <trkpt lat="45.7415590" lon="6.7140889">
        <ele>2076.33</ele>
        <time>2019-09-04T10:41:33Z</time>
      </trkpt>
      <trkpt lat="45.7414763" lon="6.7140331">
        <ele>2076.26</ele>
        <time>2019-09-04T10:41:43Z</time>
      </trkpt>
      <trkpt lat="45.7413928" lon="6.7139577">
        <ele>2076.50</ele>
        <time>2019-09-04T10:41:55Z</time>
      </trkpt>
      <trkpt lat="45.7413050" lon="6.7138973">
        <ele>2076.53</ele>
        <time>2019-09-04T10:42:07Z</time>
      </trkpt>
      <trkpt lat="45.7412179" lon="6.7138595">
        <ele>2076.74</ele>
        <time>2019-09-04T10:42:17Z</time>
      </trkpt>
      <trkpt lat="45.7411296" lon="6.7137973">
        <ele>2078.44</ele>
        <time>2019-09-04T10:42:31Z</time>
      </trkpt>
      <trkpt lat="45.7410305" lon="6.7137919">
        <ele>2079.50</ele>
        <time>2019-09-04T10:42:45Z</time>
      </trkpt>
      <trkpt lat="45.7409401" lon="6.7137461">
        <ele>2081.50</ele>
        <time>2019-09-04T10:42:59Z</time>
      </trkpt>
      <trkpt lat="45.7408526" lon="6.7136768">
        <ele>2083.50</ele>
        <time>2019-09-04T10:43:13Z</time>
      </trkpt>
      <trkpt lat="45.7407653" lon="6.7136164">
        <ele>2085.44</ele>
        <time>2019-09-04T10:43:27Z</time>
      </trkpt>
      <trkpt lat="45.7406693" lon="6.7136211">
        <ele>2087.01</ele>
        <time>2019-09-04T10:43:41Z</time>
      </trkpt>
      <trkpt lat="45.7405854" lon="6.7135538">
        <ele>2090.50</ele>
        <time>2019-09-04T10:43:59Z</time>
      </trkpt>
      <trkpt lat="45.7405496" lon="6.7134260">
        <ele>2091.53</ele>
        <time>2019-09-04T10:44:11Z</time>
      </trkpt>
      <trkpt lat="45.7405305" lon="6.7132855">
        <ele>2093.23</ele>
        <time>2019-09-04T10:44:23Z</time>
      </trkpt>
      <trkpt lat="45.7404668" lon="6.7131545">
        <ele>2101.58</ele>
        <time>2019-09-04T10:58:31Z</time>
      </trkpt>
      <trkpt lat="45.7403810" lon="6.7131132">
        <ele>2101.56</ele>
        <time>2019-09-04T10:58:45Z</time>
      </trkpt>
      <trkpt lat="45.7403007" lon="6.7130497">
        <ele>2099.54</ele>
        <time>2019-09-04T10:58:59Z</time>
      </trkpt>
      <trkpt lat="45.7402134" lon="6.7129752">
        <ele>2097.56</ele>
        <time>2019-09-04T10:59:13Z</time>
      </trkpt>
      <trkpt lat="45.7401183" lon="6.7129536">
        <ele>2096.53</ele>
        <time>2019-09-04T10:59:27Z</time>
      </trkpt>
      <trkpt lat="45.7400346" lon="6.7128967">
        <ele>2096.53</ele>
        <time>2019-09-04T10:59:41Z</time>
      </trkpt>
      <trkpt lat="45.7399580" lon="6.7128200">
        <ele>2097.53</ele>
        <time>2019-09-04T10:59:55Z</time>
      </trkpt>
      <trkpt lat="45.7398905" lon="6.7127224">
        <ele>2098.74</ele>
        <time>2019-09-04T11:00:09Z</time>
      </trkpt>
      <trkpt lat="45.7398407" lon="6.7126143">
        <ele>2099.80</ele>
        <time>2019-09-04T11:00:29Z</time>
      </trkpt>
      <trkpt lat="45.7397429" lon="6.7125978">
        <ele>2100.23</ele>
        <time>2019-09-04T11:00:43Z</time>
      </trkpt>
      <trkpt lat="45.7396780" lon="6.7124962">
        <ele>2100.83</ele>
        <time>2019-09-04T11:00:57Z</time>
      </trkpt>
      <trkpt lat="45.7396140" lon="6.7123978">
        <ele>2101.52</ele>
        <time>2019-09-04T11:01:19Z</time>
      </trkpt>
      <trkpt lat="45.7395758" lon="6.7122672">
        <ele>2102.54</ele>
        <time>2019-09-04T11:01:41Z</time>
      </trkpt>
      <trkpt lat="45.7394764" lon="6.7122809">
        <ele>2104.53</ele>
        <time>2019-09-04T11:01:57Z</time>
      </trkpt>
      <trkpt lat="45.7394460" lon="6.7121556">
        <ele>2107.73</ele>
        <time>2019-09-04T11:02:13Z</time>
      </trkpt>
      <trkpt lat="45.7394331" lon="6.7120228">
        <ele>2111.44</ele>
        <time>2019-09-04T11:02:45Z</time>
      </trkpt>
      <trkpt lat="45.7394300" lon="6.7118849">
        <ele>2117.44</ele>
        <time>2019-09-04T11:03:19Z</time>
      </trkpt>
      <trkpt lat="45.7393653" lon="6.7117825">
        <ele>2120.52</ele>
        <time>2019-09-04T11:03:47Z</time>
      </trkpt>
      <trkpt lat="45.7392773" lon="6.7117364">
        <ele>2122.80</ele>
        <time>2019-09-04T11:04:05Z</time>
      </trkpt>
      <trkpt lat="45.7391996" lon="6.7116562">
        <ele>2126.41</ele>
        <time>2019-09-04T11:04:29Z</time>
      </trkpt>
      <trkpt lat="45.7391625" lon="6.7115164">
        <ele>2129.23</ele>
        <time>2019-09-04T11:04:45Z</time>
      </trkpt>
      <trkpt lat="45.7390923" lon="6.7114255">
        <ele>2130.53</ele>
        <time>2019-09-04T11:05:09Z</time>
      </trkpt>
      <trkpt lat="45.7390415" lon="6.7113105">
        <ele>2135.52</ele>
        <time>2019-09-04T11:05:27Z</time>
      </trkpt>
      <trkpt lat="45.7390137" lon="6.7111872">
        <ele>2137.29</ele>
        <time>2019-09-04T11:05:43Z</time>
      </trkpt>
      <trkpt lat="45.7389366" lon="6.7111191">
        <ele>2141.40</ele>
        <time>2019-09-04T11:06:01Z</time>
      </trkpt>
      <trkpt lat="45.7388721" lon="6.7110186">
        <ele>2144.50</ele>
        <time>2019-09-04T11:06:21Z</time>
      </trkpt>
      <trkpt lat="45.7388159" lon="6.7109044">
        <ele>2147.21</ele>
        <time>2019-09-04T11:06:43Z</time>
      </trkpt>
      <trkpt lat="45.7387464" lon="6.7107965">
        <ele>2149.23</ele>
        <time>2019-09-04T11:07:03Z</time>
      </trkpt>
      <trkpt lat="45.7386776" lon="6.7107133">
        <ele>2152.31</ele>
        <time>2019-09-04T11:07:27Z</time>
      </trkpt>
      <trkpt lat="45.7386612" lon="6.7105739">
        <ele>2157.82</ele>
        <time>2019-09-04T11:07:49Z</time>
      </trkpt>
      <trkpt lat="45.7385927" lon="6.7104745">
        <ele>2161.22</ele>
        <time>2019-09-04T11:08:11Z</time>
      </trkpt>
      <trkpt lat="45.7385612" lon="6.7103464">
        <ele>2163.50</ele>
        <time>2019-09-04T11:08:25Z</time>
      </trkpt>
      <trkpt lat="45.7385147" lon="6.7102319">
        <ele>2167.43</ele>
        <time>2019-09-04T11:08:41Z</time>
      </trkpt>
      <trkpt lat="45.7384377" lon="6.7101330">
        <ele>2169.44</ele>
        <time>2019-09-04T11:08:57Z</time>
      </trkpt>
      <trkpt lat="45.7383974" lon="6.7100132">
        <ele>2175.20</ele>
        <time>2019-09-04T11:09:25Z</time>
      </trkpt>
      <trkpt lat="45.7383477" lon="6.7098959">
        <ele>2181.14</ele>
        <time>2019-09-04T11:09:49Z</time>
      </trkpt>
      <trkpt lat="45.7382649" lon="6.7099496">
        <ele>2184.44</ele>
        <time>2019-09-04T11:10:09Z</time>
      </trkpt>
      <trkpt lat="45.7381710" lon="6.7099459">
        <ele>2185.82</ele>
        <time>2019-09-04T11:10:23Z</time>
      </trkpt>
      <trkpt lat="45.7381062" lon="6.7098367">
        <ele>2185.44</ele>
        <time>2019-09-04T11:10:49Z</time>
      </trkpt>
      <trkpt lat="45.7380537" lon="6.7097313">
        <ele>2189.20</ele>
        <time>2019-09-04T11:11:05Z</time>
      </trkpt>
      <trkpt lat="45.7379963" lon="6.7096245">
        <ele>2192.61</ele>
        <time>2019-09-04T11:11:43Z</time>
      </trkpt>
      <trkpt lat="45.7379722" lon="6.7094913">
        <ele>2197.52</ele>
        <time>2019-09-04T11:12:17Z</time>
      </trkpt>
      <trkpt lat="45.7378856" lon="6.7094439">
        <ele>2201.20</ele>
        <time>2019-09-04T11:12:43Z</time>
      </trkpt>
      <trkpt lat="45.7378865" lon="6.7093104">
        <ele>2203.52</ele>
        <time>2019-09-04T11:13:13Z</time>
      </trkpt>
      <trkpt lat="45.7378005" lon="6.7093520">
        <ele>2205.51</ele>
        <time>2019-09-04T11:13:29Z</time>
      </trkpt>
      <trkpt lat="45.7377928" lon="6.7092233">
        <ele>2207.53</ele>
        <time>2019-09-04T11:13:47Z</time>
      </trkpt>
      <trkpt lat="45.7376980" lon="6.7091930">
        <ele>2214.22</ele>
        <time>2019-09-04T11:14:21Z</time>
      </trkpt>
      <trkpt lat="45.7376164" lon="6.7091228">
        <ele>2216.38</ele>
        <time>2019-09-04T11:14:43Z</time>
      </trkpt>
      <trkpt lat="45.7376090" lon="6.7089792">
        <ele>2219.24</ele>
        <time>2019-09-04T11:15:01Z</time>
      </trkpt>
      <trkpt lat="45.7375667" lon="6.7088621">
        <ele>2220.23</ele>
        <time>2019-09-04T11:15:17Z</time>
      </trkpt>
      <trkpt lat="45.7374838" lon="6.7088040">
        <ele>2222.50</ele>
        <time>2019-09-04T11:15:29Z</time>
      </trkpt>
      <trkpt lat="45.7374088" lon="6.7087227">
        <ele>2225.53</ele>
        <time>2019-09-04T11:15:49Z</time>
      </trkpt>
      <trkpt lat="45.7374808" lon="6.7086310">
        <ele>2226.53</ele>
        <time>2019-09-04T11:16:13Z</time>
      </trkpt>
      <trkpt lat="45.7375639" lon="6.7085537">
        <ele>2227.53</ele>
        <time>2019-09-04T11:16:27Z</time>
      </trkpt>
      <trkpt lat="45.7376414" lon="6.7084420">
        <ele>2229.23</ele>
        <time>2019-09-04T11:16:41Z</time>
      </trkpt>
      <trkpt lat="45.7377251" lon="6.7083931">
        <ele>2230.53</ele>
        <time>2019-09-04T11:16:57Z</time>
      </trkpt>
      <trkpt lat="45.7377832" lon="6.7082858">
        <ele>2232.53</ele>
        <time>2019-09-04T11:17:13Z</time>
      </trkpt>
      <trkpt lat="45.7378724" lon="6.7082411">
        <ele>2233.44</ele>
        <time>2019-09-04T11:17:31Z</time>
      </trkpt>
      <trkpt lat="45.7378577" lon="6.7081126">
        <ele>2237.90</ele>
        <time>2019-09-04T11:17:53Z</time>
      </trkpt>
      <trkpt lat="45.7377680" lon="6.7080435">
        <ele>2241.10</ele>
        <time>2019-09-04T11:18:11Z</time>
      </trkpt>
      <trkpt lat="45.7376814" lon="6.7079714">
        <ele>2245.20</ele>
        <time>2019-09-04T11:18:29Z</time>
      </trkpt>
      <trkpt lat="45.7375883" lon="6.7079281">
        <ele>2246.52</ele>
        <time>2019-09-04T11:18:51Z</time>
      </trkpt>
      <trkpt lat="45.7374933" lon="6.7078947">
        <ele>2248.50</ele>
        <time>2019-09-04T11:19:07Z</time>
      </trkpt>
      <trkpt lat="45.7374144" lon="6.7078119">
        <ele>2248.59</ele>
        <time>2019-09-04T11:19:25Z</time>
      </trkpt>
      <trkpt lat="45.7373257" lon="6.7077667">
        <ele>2249.71</ele>
        <time>2019-09-04T11:19:41Z</time>
      </trkpt>
      <trkpt lat="45.7372406" lon="6.7077074">
        <ele>2253.14</ele>
        <time>2019-09-04T11:19:59Z</time>
      </trkpt>
      <trkpt lat="45.7371451" lon="6.7076615">
        <ele>2255.52</ele>
        <time>2019-09-04T11:20:13Z</time>
      </trkpt>
      <trkpt lat="45.7370426" lon="6.7076725">
        <ele>2257.42</ele>
        <time>2019-09-04T11:20:31Z</time>
      </trkpt>
      <trkpt lat="45.7369495" lon="6.7076893">
        <ele>2260.44</ele>
        <time>2019-09-04T11:20:47Z</time>
      </trkpt>
      <trkpt lat="45.7368427" lon="6.7077142">
        <ele>2262.74</ele>
        <time>2019-09-04T11:21:01Z</time>
      </trkpt>
      <trkpt lat="45.7367489" lon="6.7077202">
        <ele>2265.22</ele>
        <time>2019-09-04T11:21:13Z</time>
      </trkpt>
      <trkpt lat="45.7366429" lon="6.7077418">
        <ele>2268.23</ele>
        <time>2019-09-04T11:21:29Z</time>
      </trkpt>
      <trkpt lat="45.7365515" lon="6.7076823">
        <ele>2271.44</ele>
        <time>2019-09-04T11:21:49Z</time>
      </trkpt>
      <trkpt lat="45.7364663" lon="6.7076388">
        <ele>2275.22</ele>
        <time>2019-09-04T11:22:15Z</time>
      </trkpt>
      <trkpt lat="45.7363737" lon="6.7076011">
        <ele>2276.53</ele>
        <time>2019-09-04T11:22:31Z</time>
      </trkpt>
      <trkpt lat="45.7362879" lon="6.7075389">
        <ele>2278.30</ele>
        <time>2019-09-04T11:22:49Z</time>
      </trkpt>
      <trkpt lat="45.7362157" lon="6.7074601">
        <ele>2281.52</ele>
        <time>2019-09-04T11:23:09Z</time>
      </trkpt>
      <trkpt lat="45.7361308" lon="6.7074164">
        <ele>2286.14</ele>
        <time>2019-09-04T11:23:31Z</time>
      </trkpt>
      <trkpt lat="45.7360440" lon="6.7073693">
        <ele>2292.11</ele>
        <time>2019-09-04T11:23:53Z</time>
      </trkpt>
      <trkpt lat="45.7359890" lon="6.7072564">
        <ele>2297.50</ele>
        <time>2019-09-04T11:24:21Z</time>
      </trkpt>
      <trkpt lat="45.7359120" lon="6.7071770">
        <ele>2302.20</ele>
        <time>2019-09-04T11:24:39Z</time>
      </trkpt>
      <trkpt lat="45.7358362" lon="6.7070913">
        <ele>2303.50</ele>
        <time>2019-09-04T11:25:01Z</time>
      </trkpt>
      <trkpt lat="45.7357589" lon="6.7070066">
        <ele>2305.52</ele>
        <time>2019-09-04T11:25:21Z</time>
      </trkpt>
      <trkpt lat="45.7356888" lon="6.7069105">
        <ele>2306.89</ele>
        <time>2019-09-04T11:25:41Z</time>
      </trkpt>
      <trkpt lat="45.7355992" lon="6.7068735">
        <ele>2308.52</ele>
        <time>2019-09-04T11:25:59Z</time>
      </trkpt>
      <trkpt lat="45.7355139" lon="6.7068129">
        <ele>2312.43</ele>
        <time>2019-09-04T11:26:17Z</time>
      </trkpt>
      <trkpt lat="45.7354225" lon="6.7067800">
        <ele>2317.19</ele>
        <time>2019-09-04T11:26:33Z</time>
      </trkpt>
      <trkpt lat="45.7353238" lon="6.7067564">
        <ele>2318.53</ele>
        <time>2019-09-04T11:26:51Z</time>
      </trkpt>
      <trkpt lat="45.7352330" lon="6.7067463">
        <ele>2324.18</ele>
        <time>2019-09-04T11:28:15Z</time>
      </trkpt>
      <trkpt lat="45.7351407" lon="6.7066715">
        <ele>2325.74</ele>
        <time>2019-09-04T11:28:29Z</time>
      </trkpt>
      <trkpt lat="45.7350486" lon="6.7066274">
        <ele>2326.50</ele>
        <time>2019-09-04T11:28:41Z</time>
      </trkpt>
      <trkpt lat="45.7350273" lon="6.7064970">
        <ele>2327.53</ele>
        <time>2019-09-04T11:28:59Z</time>
      </trkpt>
      <trkpt lat="45.7349718" lon="6.7063844">
        <ele>2328.44</ele>
        <time>2019-09-04T11:29:11Z</time>
      </trkpt>
      <trkpt lat="45.7349349" lon="6.7062477">
        <ele>2328.59</ele>
        <time>2019-09-04T11:29:21Z</time>
      </trkpt>
      <trkpt lat="45.7348616" lon="6.7061730">
        <ele>2327.62</ele>
        <time>2019-09-04T11:44:38Z</time>
      </trkpt>
      <trkpt lat="45.7349362" lon="6.7062707">
        <ele>2326.77</ele>
        <time>2019-09-04T12:19:30Z</time>
      </trkpt>
      <trkpt lat="45.7349485" lon="6.7064103">
        <ele>2324.93</ele>
        <time>2019-09-04T12:19:42Z</time>
      </trkpt>
      <trkpt lat="45.7349987" lon="6.7065199">
        <ele>2323.47</ele>
        <time>2019-09-04T12:19:56Z</time>
      </trkpt>
      <trkpt lat="45.7349992" lon="6.7066669">
        <ele>2322.84</ele>
        <time>2019-09-04T12:20:08Z</time>
      </trkpt>
      <trkpt lat="45.7349454" lon="6.7067775">
        <ele>2321.54</ele>
        <time>2019-09-04T12:20:20Z</time>
      </trkpt>
      <trkpt lat="45.7348672" lon="6.7068737">
        <ele>2321.53</ele>
        <time>2019-09-04T12:20:30Z</time>
      </trkpt>
      <trkpt lat="45.7347839" lon="6.7069679">
        <ele>2321.53</ele>
        <time>2019-09-04T12:20:42Z</time>
      </trkpt>
      <trkpt lat="45.7347205" lon="6.7070824">
        <ele>2322.50</ele>
        <time>2019-09-04T12:20:54Z</time>
      </trkpt>
      <trkpt lat="45.7346488" lon="6.7071602">
        <ele>2321.47</ele>
        <time>2019-09-04T12:21:04Z</time>
      </trkpt>
      <trkpt lat="45.7345717" lon="6.7072267">
        <ele>2320.53</ele>
        <time>2019-09-04T12:21:14Z</time>
      </trkpt>
      <trkpt lat="45.7345115" lon="6.7073413">
        <ele>2320.53</ele>
        <time>2019-09-04T12:21:28Z</time>
      </trkpt>
      <trkpt lat="45.7344533" lon="6.7074452">
        <ele>2317.92</ele>
        <time>2019-09-04T12:21:40Z</time>
      </trkpt>
      <trkpt lat="45.7344155" lon="6.7075654">
        <ele>2317.59</ele>
        <time>2019-09-04T12:21:50Z</time>
      </trkpt>
      <trkpt lat="45.7343715" lon="6.7076974">
        <ele>2315.57</ele>
        <time>2019-09-04T12:22:02Z</time>
      </trkpt>
      <trkpt lat="45.7343218" lon="6.7078127">
        <ele>2314.53</ele>
        <time>2019-09-04T12:22:12Z</time>
      </trkpt>
      <trkpt lat="45.7342733" lon="6.7079334">
        <ele>2317.20</ele>
        <time>2019-09-04T12:22:22Z</time>
      </trkpt>
      <trkpt lat="45.7342001" lon="6.7080163">
        <ele>2317.77</ele>
        <time>2019-09-04T12:22:34Z</time>
      </trkpt>
      <trkpt lat="45.7341164" lon="6.7080713">
        <ele>2323.49</ele>
        <time>2019-09-04T12:22:54Z</time>
      </trkpt>
      <trkpt lat="45.7340599" lon="6.7081952">
        <ele>2324.53</ele>
        <time>2019-09-04T12:23:12Z</time>
      </trkpt>
      <trkpt lat="45.7340232" lon="6.7083343">
        <ele>2325.22</ele>
        <time>2019-09-04T12:23:24Z</time>
      </trkpt>
      <trkpt lat="45.7339312" lon="6.7084063">
        <ele>2324.56</ele>
        <time>2019-09-04T12:23:34Z</time>
      </trkpt>
      <trkpt lat="45.7338438" lon="6.7084645">
        <ele>2324.53</ele>
        <time>2019-09-04T12:23:44Z</time>
      </trkpt>
      <trkpt lat="45.7337513" lon="6.7085178">
        <ele>2327.52</ele>
        <time>2019-09-04T12:24:02Z</time>
      </trkpt>
      <trkpt lat="45.7336650" lon="6.7085668">
        <ele>2333.50</ele>
        <time>2019-09-04T12:24:26Z</time>
      </trkpt>
      <trkpt lat="45.7335793" lon="6.7086111">
        <ele>2334.32</ele>
        <time>2019-09-04T12:24:38Z</time>
      </trkpt>
      <trkpt lat="45.7334891" lon="6.7086348">
        <ele>2337.50</ele>
        <time>2019-09-04T12:24:58Z</time>
      </trkpt>
      <trkpt lat="45.7334002" lon="6.7087028">
        <ele>2339.44</ele>
        <time>2019-09-04T12:25:12Z</time>
      </trkpt>
      <trkpt lat="45.7333111" lon="6.7087345">
        <ele>2342.59</ele>
        <time>2019-09-04T12:25:34Z</time>
      </trkpt>
      <trkpt lat="45.7332140" lon="6.7087304">
        <ele>2345.11</ele>
        <time>2019-09-04T12:26:08Z</time>
      </trkpt>
      <trkpt lat="45.7331164" lon="6.7086707">
        <ele>2342.36</ele>
        <time>2019-09-04T12:26:16Z</time>
      </trkpt>
      <trkpt lat="45.7330290" lon="6.7086310">
        <ele>2340.56</ele>
        <time>2019-09-04T12:26:26Z</time>
      </trkpt>
      <trkpt lat="45.7329479" lon="6.7085519">
        <ele>2340.49</ele>
        <time>2019-09-04T12:26:36Z</time>
      </trkpt>
      <trkpt lat="45.7328564" lon="6.7085260">
        <ele>2341.43</ele>
        <time>2019-09-04T12:26:50Z</time>
      </trkpt>
      <trkpt lat="45.7327635" lon="6.7085349">
        <ele>2347.17</ele>
        <time>2019-09-04T12:27:04Z</time>
      </trkpt>
      <trkpt lat="45.7326808" lon="6.7084780">
        <ele>2352.19</ele>
        <time>2019-09-04T12:27:22Z</time>
      </trkpt>
      <trkpt lat="45.7325925" lon="6.7084153">
        <ele>2355.24</ele>
        <time>2019-09-04T12:27:36Z</time>
      </trkpt>
      <trkpt lat="45.7325057" lon="6.7083710">
        <ele>2355.55</ele>
        <time>2019-09-04T12:27:46Z</time>
      </trkpt>
      <trkpt lat="45.7324142" lon="6.7083394">
        <ele>2356.57</ele>
        <time>2019-09-04T12:28:04Z</time>
      </trkpt>
      <trkpt lat="45.7323172" lon="6.7083630">
        <ele>2358.41</ele>
        <time>2019-09-04T12:28:26Z</time>
      </trkpt>
      <trkpt lat="45.7322161" lon="6.7083980">
        <ele>2360.50</ele>
        <time>2019-09-04T12:28:40Z</time>
      </trkpt>
      <trkpt lat="45.7321227" lon="6.7083355">
        <ele>2360.96</ele>
        <time>2019-09-04T12:28:52Z</time>
      </trkpt>
      <trkpt lat="45.7320284" lon="6.7083592">
        <ele>2366.37</ele>
        <time>2019-09-04T12:29:12Z</time>
      </trkpt>
      <trkpt lat="45.7319286" lon="6.7083836">
        <ele>2367.52</ele>
        <time>2019-09-04T12:29:24Z</time>
      </trkpt>
      <trkpt lat="45.7318173" lon="6.7083915">
        <ele>2366.64</ele>
        <time>2019-09-04T12:29:34Z</time>
      </trkpt>
      <trkpt lat="45.7317222" lon="6.7084099">
        <ele>2367.51</ele>
        <time>2019-09-04T12:29:44Z</time>
      </trkpt>
      <trkpt lat="45.7316190" lon="6.7084290">
        <ele>2371.28</ele>
        <time>2019-09-04T12:29:58Z</time>
      </trkpt>
      <trkpt lat="45.7315288" lon="6.7083999">
        <ele>2372.93</ele>
        <time>2019-09-04T12:30:14Z</time>
      </trkpt>
      <trkpt lat="45.7314399" lon="6.7083583">
        <ele>2375.44</ele>
        <time>2019-09-04T12:30:26Z</time>
      </trkpt>
      <trkpt lat="45.7313584" lon="6.7084161">
        <ele>2376.23</ele>
        <time>2019-09-04T12:30:44Z</time>
      </trkpt>
      <trkpt lat="45.7312664" lon="6.7084573">
        <ele>2380.50</ele>
        <time>2019-09-04T12:31:04Z</time>
      </trkpt>
      <trkpt lat="45.7311748" lon="6.7084956">
        <ele>2382.44</ele>
        <time>2019-09-04T12:31:14Z</time>
      </trkpt>
      <trkpt lat="45.7310771" lon="6.7085036">
        <ele>2382.80</ele>
        <time>2019-09-04T12:31:24Z</time>
      </trkpt>
      <trkpt lat="45.7309808" lon="6.7084982">
        <ele>2383.50</ele>
        <time>2019-09-04T12:31:34Z</time>
      </trkpt>
      <trkpt lat="45.7308945" lon="6.7085384">
        <ele>2384.23</ele>
        <time>2019-09-04T12:31:44Z</time>
      </trkpt>
      <trkpt lat="45.7308473" lon="6.7086548">
        <ele>2387.13</ele>
        <time>2019-09-04T12:32:06Z</time>
      </trkpt>
      <trkpt lat="45.7308097" lon="6.7087840">
        <ele>2388.54</ele>
        <time>2019-09-04T12:32:22Z</time>
      </trkpt>
      <trkpt lat="45.7307707" lon="6.7089103">
        <ele>2392.20</ele>
        <time>2019-09-04T12:32:48Z</time>
      </trkpt>
      <trkpt lat="45.7307104" lon="6.7090063">
        <ele>2392.53</ele>
        <time>2019-09-04T12:33:00Z</time>
      </trkpt>
      <trkpt lat="45.7306446" lon="6.7090962">
        <ele>2396.92</ele>
        <time>2019-09-04T12:33:18Z</time>
      </trkpt>
      <trkpt lat="45.7305537" lon="6.7091266">
        <ele>2397.53</ele>
        <time>2019-09-04T12:33:30Z</time>
      </trkpt>
      <trkpt lat="45.7304827" lon="6.7090235">
        <ele>2398.23</ele>
        <time>2019-09-04T12:33:44Z</time>
      </trkpt>
      <trkpt lat="45.7303934" lon="6.7090678">
        <ele>2399.46</ele>
        <time>2019-09-04T12:33:58Z</time>
      </trkpt>
      <trkpt lat="45.7303112" lon="6.7091492">
        <ele>2399.53</ele>
        <time>2019-09-04T12:34:08Z</time>
      </trkpt>
      <trkpt lat="45.7302278" lon="6.7092061">
        <ele>2400.21</ele>
        <time>2019-09-04T12:34:16Z</time>
      </trkpt>
      <trkpt lat="45.7301461" lon="6.7092671">
        <ele>2399.82</ele>
        <time>2019-09-04T12:34:26Z</time>
      </trkpt>
      <trkpt lat="45.7300941" lon="6.7093759">
        <ele>2399.53</ele>
        <time>2019-09-04T12:34:40Z</time>
      </trkpt>
      <trkpt lat="45.7300037" lon="6.7093959">
        <ele>2399.47</ele>
        <time>2019-09-04T12:34:50Z</time>
      </trkpt>
      <trkpt lat="45.7299132" lon="6.7094210">
        <ele>2403.43</ele>
        <time>2019-09-04T12:35:06Z</time>
      </trkpt>
      <trkpt lat="45.7298421" lon="6.7095161">
        <ele>2403.53</ele>
        <time>2019-09-04T12:35:16Z</time>
      </trkpt>
      <trkpt lat="45.7297854" lon="6.7096448">
        <ele>2404.23</ele>
        <time>2019-09-04T12:35:26Z</time>
      </trkpt>
      <trkpt lat="45.7297061" lon="6.7097596">
        <ele>2405.50</ele>
        <time>2019-09-04T12:35:36Z</time>
      </trkpt>
      <trkpt lat="45.7296157" lon="6.7098206">
        <ele>2407.44</ele>
        <time>2019-09-04T12:35:50Z</time>
      </trkpt>
      <trkpt lat="45.7295740" lon="6.7099490">
        <ele>2407.53</ele>
        <time>2019-09-04T12:36:04Z</time>
      </trkpt>
      <trkpt lat="45.7295765" lon="6.7100945">
        <ele>2407.53</ele>
        <time>2019-09-04T12:36:16Z</time>
      </trkpt>
      <trkpt lat="45.7295098" lon="6.7102034">
        <ele>2407.53</ele>
        <time>2019-09-04T12:36:34Z</time>
      </trkpt>
      <trkpt lat="45.7294203" lon="6.7102584">
        <ele>2409.29</ele>
        <time>2019-09-04T12:36:48Z</time>
      </trkpt>
      <trkpt lat="45.7293292" lon="6.7102672">
        <ele>2409.80</ele>
        <time>2019-09-04T12:36:58Z</time>
      </trkpt>
      <trkpt lat="45.7292323" lon="6.7102766">
        <ele>2411.50</ele>
        <time>2019-09-04T12:37:10Z</time>
      </trkpt>
      <trkpt lat="45.7291403" lon="6.7102712">
        <ele>2412.44</ele>
        <time>2019-09-04T12:37:22Z</time>
      </trkpt>
      <trkpt lat="45.7290327" lon="6.7102593">
        <ele>2412.53</ele>
        <time>2019-09-04T12:37:32Z</time>
      </trkpt>
      <trkpt lat="45.7289310" lon="6.7102248">
        <ele>2413.52</ele>
        <time>2019-09-04T12:37:42Z</time>
      </trkpt>
      <trkpt lat="45.7288422" lon="6.7101933">
        <ele>2414.31</ele>
        <time>2019-09-04T12:37:54Z</time>
      </trkpt>
      <trkpt lat="45.7287641" lon="6.7102778">
        <ele>2413.54</ele>
        <time>2019-09-04T12:38:04Z</time>
      </trkpt>
      <trkpt lat="45.7286619" lon="6.7102872">
        <ele>2411.56</ele>
        <time>2019-09-04T12:38:16Z</time>
      </trkpt>
      <trkpt lat="45.7285649" lon="6.7102767">
        <ele>2409.86</ele>
        <time>2019-09-04T12:41:19Z</time>
      </trkpt>
      <trkpt lat="45.7284732" lon="6.7102573">
        <ele>2407.57</ele>
        <time>2019-09-04T12:41:27Z</time>
      </trkpt>
      <trkpt lat="45.7283722" lon="6.7102427">
        <ele>2407.53</ele>
        <time>2019-09-04T12:41:41Z</time>
      </trkpt>
      <trkpt lat="45.7282771" lon="6.7103022">
        <ele>2406.62</ele>
        <time>2019-09-04T12:41:51Z</time>
      </trkpt>
      <trkpt lat="45.7281712" lon="6.7103434">
        <ele>2405.56</ele>
        <time>2019-09-04T12:42:01Z</time>
      </trkpt>
      <trkpt lat="45.7280757" lon="6.7103469">
        <ele>2403.62</ele>
        <time>2019-09-04T12:42:13Z</time>
      </trkpt>
      <trkpt lat="45.7280420" lon="6.7104706">
        <ele>2404.44</ele>
        <time>2019-09-04T12:42:27Z</time>
      </trkpt>
      <trkpt lat="45.7280108" lon="6.7106109">
        <ele>2407.50</ele>
        <time>2019-09-04T12:42:41Z</time>
      </trkpt>
      <trkpt lat="45.7280231" lon="6.7107405">
        <ele>2407.53</ele>
        <time>2019-09-04T12:42:59Z</time>
      </trkpt>
      <trkpt lat="45.7279726" lon="6.7108498">
        <ele>2413.50</ele>
        <time>2019-09-04T12:43:15Z</time>
      </trkpt>
      <trkpt lat="45.7278876" lon="6.7108975">
        <ele>2410.57</ele>
        <time>2019-09-04T12:43:25Z</time>
      </trkpt>
      <trkpt lat="45.7277967" lon="6.7109369">
        <ele>2411.53</ele>
        <time>2019-09-04T12:43:37Z</time>
      </trkpt>
      <trkpt lat="45.7277107" lon="6.7109787">
        <ele>2411.53</ele>
        <time>2019-09-04T12:43:49Z</time>
      </trkpt>
      <trkpt lat="45.7276067" lon="6.7110101">
        <ele>2410.60</ele>
        <time>2019-09-04T12:44:01Z</time>
      </trkpt>
      <trkpt lat="45.7275455" lon="6.7111262">
        <ele>2411.44</ele>
        <time>2019-09-04T12:44:15Z</time>
      </trkpt>
      <trkpt lat="45.7274651" lon="6.7111856">
        <ele>2414.22</ele>
        <time>2019-09-04T12:44:33Z</time>
      </trkpt>
      <trkpt lat="45.7273735" lon="6.7112306">
        <ele>2415.23</ele>
        <time>2019-09-04T12:44:47Z</time>
      </trkpt>
      <trkpt lat="45.7272715" lon="6.7112667">
        <ele>2415.53</ele>
        <time>2019-09-04T12:44:59Z</time>
      </trkpt>
      <trkpt lat="45.7271733" lon="6.7112960">
        <ele>2414.53</ele>
        <time>2019-09-04T12:45:11Z</time>
      </trkpt>
      <trkpt lat="45.7270668" lon="6.7113109">
        <ele>2413.83</ele>
        <time>2019-09-04T12:45:21Z</time>
      </trkpt>
      <trkpt lat="45.7270062" lon="6.7114189">
        <ele>2414.50</ele>
        <time>2019-09-04T12:45:39Z</time>
      </trkpt>
      <trkpt lat="45.7269331" lon="6.7115065">
        <ele>2416.29</ele>
        <time>2019-09-04T12:45:55Z</time>
      </trkpt>
      <trkpt lat="45.7269167" lon="6.7116555">
        <ele>2418.44</ele>
        <time>2019-09-04T12:46:17Z</time>
      </trkpt>
      <trkpt lat="45.7268687" lon="6.7117773">
        <ele>2418.80</ele>
        <time>2019-09-04T12:46:29Z</time>
      </trkpt>
      <trkpt lat="45.7268103" lon="6.7119083">
        <ele>2418.53</ele>
        <time>2019-09-04T12:46:41Z</time>
      </trkpt>
      <trkpt lat="45.7267368" lon="6.7119969">
        <ele>2417.83</ele>
        <time>2019-09-04T12:46:51Z</time>
      </trkpt>
      <trkpt lat="45.7267126" lon="6.7121380">
        <ele>2419.50</ele>
        <time>2019-09-04T12:47:05Z</time>
      </trkpt>
      <trkpt lat="45.7266877" lon="6.7122629">
        <ele>2421.23</ele>
        <time>2019-09-04T12:47:19Z</time>
      </trkpt>
      <trkpt lat="45.7266740" lon="6.7123947">
        <ele>2422.52</ele>
        <time>2019-09-04T12:47:33Z</time>
      </trkpt>
      <trkpt lat="45.7266130" lon="6.7125171">
        <ele>2423.53</ele>
        <time>2019-09-04T12:47:47Z</time>
      </trkpt>
      <trkpt lat="45.7265329" lon="6.7125860">
        <ele>2424.53</ele>
        <time>2019-09-04T12:48:01Z</time>
      </trkpt>
      <trkpt lat="45.7264897" lon="6.7127014">
        <ele>2427.50</ele>
        <time>2019-09-04T12:48:17Z</time>
      </trkpt>
      <trkpt lat="45.7264600" lon="6.7128302">
        <ele>2428.50</ele>
        <time>2019-09-04T12:48:31Z</time>
      </trkpt>
      <trkpt lat="45.7263727" lon="6.7129104">
        <ele>2425.54</ele>
        <time>2019-09-04T12:48:53Z</time>
      </trkpt>
      <trkpt lat="45.7262807" lon="6.7129519">
        <ele>2425.24</ele>
        <time>2019-09-04T12:49:05Z</time>
      </trkpt>
      <trkpt lat="45.7261963" lon="6.7130213">
        <ele>2425.53</ele>
        <time>2019-09-04T12:49:21Z</time>
      </trkpt>
      <trkpt lat="45.7260976" lon="6.7130450">
        <ele>2428.22</ele>
        <time>2019-09-04T12:49:39Z</time>
      </trkpt>
      <trkpt lat="45.7260213" lon="6.7131283">
        <ele>2427.53</ele>
        <time>2019-09-04T12:49:53Z</time>
      </trkpt>
      <trkpt lat="45.7259688" lon="6.7132384">
        <ele>2428.53</ele>
        <time>2019-09-04T12:50:07Z</time>
      </trkpt>
      <trkpt lat="45.7259160" lon="6.7133494">
        <ele>2434.16</ele>
        <time>2019-09-04T12:50:41Z</time>
      </trkpt>
      <trkpt lat="45.7258462" lon="6.7134471">
        <ele>2434.56</ele>
        <time>2019-09-04T12:50:57Z</time>
      </trkpt>
      <trkpt lat="45.7257475" lon="6.7134562">
        <ele>2431.83</ele>
        <time>2019-09-04T12:51:15Z</time>
      </trkpt>
      <trkpt lat="45.7256582" lon="6.7134895">
        <ele>2430.83</ele>
        <time>2019-09-04T12:51:29Z</time>
      </trkpt>
      <trkpt lat="45.7255795" lon="6.7135532">
        <ele>2430.53</ele>
        <time>2019-09-04T12:51:41Z</time>
      </trkpt>
      <trkpt lat="45.7254839" lon="6.7135726">
        <ele>2429.54</ele>
        <time>2019-09-04T12:51:53Z</time>
      </trkpt>
      <trkpt lat="45.7253944" lon="6.7136051">
        <ele>2429.51</ele>
        <time>2019-09-04T12:52:05Z</time>
      </trkpt>
      <trkpt lat="45.7253207" lon="6.7136946">
        <ele>2428.62</ele>
        <time>2019-09-04T12:52:17Z</time>
      </trkpt>
      <trkpt lat="45.7253482" lon="6.7138293">
        <ele>2428.75</ele>
        <time>2019-09-04T12:52:31Z</time>
      </trkpt>
      <trkpt lat="45.7253340" lon="6.7139631">
        <ele>2428.53</ele>
        <time>2019-09-04T12:52:45Z</time>
      </trkpt>
      <trkpt lat="45.7253149" lon="6.7141027">
        <ele>2429.53</ele>
        <time>2019-09-04T12:53:01Z</time>
      </trkpt>
      <trkpt lat="45.7252797" lon="6.7142217">
        <ele>2431.52</ele>
        <time>2019-09-04T12:53:17Z</time>
      </trkpt>
      <trkpt lat="45.7252259" lon="6.7143288">
        <ele>2429.65</ele>
        <time>2019-09-04T12:53:27Z</time>
      </trkpt>
      <trkpt lat="45.7251642" lon="6.7144493">
        <ele>2429.82</ele>
        <time>2019-09-04T12:53:39Z</time>
      </trkpt>
      <trkpt lat="45.7251278" lon="6.7145718">
        <ele>2429.47</ele>
        <time>2019-09-04T12:53:49Z</time>
      </trkpt>
      <trkpt lat="45.7251212" lon="6.7147012">
        <ele>2430.47</ele>
        <time>2019-09-04T12:54:01Z</time>
      </trkpt>
      <trkpt lat="45.7251433" lon="6.7148330">
        <ele>2430.56</ele>
        <time>2019-09-04T12:54:13Z</time>
      </trkpt>
      <trkpt lat="45.7251818" lon="6.7149691">
        <ele>2431.55</ele>
        <time>2019-09-04T12:54:27Z</time>
      </trkpt>
      <trkpt lat="45.7252283" lon="6.7150961">
        <ele>2432.29</ele>
        <time>2019-09-04T12:54:41Z</time>
      </trkpt>
      <trkpt lat="45.7252602" lon="6.7152204">
        <ele>2434.44</ele>
        <time>2019-09-04T12:55:01Z</time>
      </trkpt>
      <trkpt lat="45.7253019" lon="6.7153423">
        <ele>2438.21</ele>
        <time>2019-09-04T12:55:23Z</time>
      </trkpt>
      <trkpt lat="45.7253238" lon="6.7154834">
        <ele>2441.44</ele>
        <time>2019-09-04T12:55:43Z</time>
      </trkpt>
      <trkpt lat="45.7253608" lon="6.7156062">
        <ele>2444.44</ele>
        <time>2019-09-04T12:56:03Z</time>
      </trkpt>
      <trkpt lat="45.7253816" lon="6.7157350">
        <ele>2450.44</ele>
        <time>2019-09-04T12:56:31Z</time>
      </trkpt>
      <trkpt lat="45.7253619" lon="6.7158624">
        <ele>2453.22</ele>
        <time>2019-09-04T12:56:47Z</time>
      </trkpt>
      <trkpt lat="45.7254206" lon="6.7159626">
        <ele>2459.41</ele>
        <time>2019-09-04T12:57:19Z</time>
      </trkpt>
      <trkpt lat="45.7254604" lon="6.7160809">
        <ele>2461.50</ele>
        <time>2019-09-04T12:57:45Z</time>
      </trkpt>
      <trkpt lat="45.7253859" lon="6.7161695">
        <ele>2459.56</ele>
        <time>2019-09-04T12:58:11Z</time>
      </trkpt>
      <trkpt lat="45.7252931" lon="6.7161567">
        <ele>2459.24</ele>
        <time>2019-09-04T12:58:35Z</time>
      </trkpt>
      <trkpt lat="45.7251975" lon="6.7162026">
        <ele>2470.34</ele>
        <time>2019-09-04T12:59:11Z</time>
      </trkpt>
      <trkpt lat="45.7251723" lon="6.7163288">
        <ele>2474.50</ele>
        <time>2019-09-04T12:59:33Z</time>
      </trkpt>
      <trkpt lat="45.7251099" lon="6.7164280">
        <ele>2475.52</ele>
        <time>2019-09-04T12:59:47Z</time>
      </trkpt>
      <trkpt lat="45.7250482" lon="6.7165252">
        <ele>2477.44</ele>
        <time>2019-09-04T13:00:01Z</time>
      </trkpt>
      <trkpt lat="45.7250038" lon="6.7166472">
        <ele>2477.53</ele>
        <time>2019-09-04T13:00:17Z</time>
      </trkpt>
      <trkpt lat="45.7249110" lon="6.7167036">
        <ele>2479.44</ele>
        <time>2019-09-04T13:00:31Z</time>
      </trkpt>
      <trkpt lat="45.7248164" lon="6.7167055">
        <ele>2480.46</ele>
        <time>2019-09-04T13:00:47Z</time>
      </trkpt>
      <trkpt lat="45.7247254" lon="6.7167351">
        <ele>2481.53</ele>
        <time>2019-09-04T13:01:01Z</time>
      </trkpt>
      <trkpt lat="45.7246314" lon="6.7167658">
        <ele>2483.50</ele>
        <time>2019-09-04T13:01:19Z</time>
      </trkpt>
      <trkpt lat="45.7245420" lon="6.7168055">
        <ele>2486.20</ele>
        <time>2019-09-04T13:01:37Z</time>
      </trkpt>
      <trkpt lat="45.7244499" lon="6.7168445">
        <ele>2486.53</ele>
        <time>2019-09-04T13:04:31Z</time>
      </trkpt>
      <trkpt lat="45.7243788" lon="6.7169313">
        <ele>2487.53</ele>
        <time>2019-09-04T13:04:47Z</time>
      </trkpt>
      <trkpt lat="45.7242909" lon="6.7169830">
        <ele>2486.83</ele>
        <time>2019-09-04T13:05:01Z</time>
      </trkpt>
      <trkpt lat="45.7242033" lon="6.7170272">
        <ele>2484.83</ele>
        <time>2019-09-04T13:05:15Z</time>
      </trkpt>
      <trkpt lat="45.7241292" lon="6.7171053">
        <ele>2483.62</ele>
        <time>2019-09-04T13:05:27Z</time>
      </trkpt>
      <trkpt lat="45.7240549" lon="6.7171802">
        <ele>2481.86</ele>
        <time>2019-09-04T13:05:37Z</time>
      </trkpt>
      <trkpt lat="45.7239562" lon="6.7171771">
        <ele>2479.63</ele>
        <time>2019-09-04T13:05:49Z</time>
      </trkpt>
      <trkpt lat="45.7238646" lon="6.7171771">
        <ele>2477.63</ele>
        <time>2019-09-04T13:05:59Z</time>
      </trkpt>
      <trkpt lat="45.7237643" lon="6.7171468">
        <ele>2476.54</ele>
        <time>2019-09-04T13:06:09Z</time>
      </trkpt>
      <trkpt lat="45.7236588" lon="6.7171062">
        <ele>2474.56</ele>
        <time>2019-09-04T13:06:19Z</time>
      </trkpt>
      <trkpt lat="45.7235596" lon="6.7170711">
        <ele>2473.56</ele>
        <time>2019-09-04T13:06:29Z</time>
      </trkpt>
      <trkpt lat="45.7234642" lon="6.7170677">
        <ele>2471.35</ele>
        <time>2019-09-04T13:06:41Z</time>
      </trkpt>
      <trkpt lat="45.7233597" lon="6.7170707">
        <ele>2470.54</ele>
        <time>2019-09-04T13:06:53Z</time>
      </trkpt>
      <trkpt lat="45.7232573" lon="6.7171034">
        <ele>2469.27</ele>
        <time>2019-09-04T13:07:03Z</time>
      </trkpt>
      <trkpt lat="45.7231523" lon="6.7171199">
        <ele>2467.63</ele>
        <time>2019-09-04T13:07:13Z</time>
      </trkpt>
      <trkpt lat="45.7230575" lon="6.7171102">
        <ele>2465.62</ele>
        <time>2019-09-04T13:07:23Z</time>
      </trkpt>
      <trkpt lat="45.7229673" lon="6.7171149">
        <ele>2464.54</ele>
        <time>2019-09-04T13:07:33Z</time>
      </trkpt>
      <trkpt lat="45.7228703" lon="6.7171508">
        <ele>2462.57</ele>
        <time>2019-09-04T13:07:45Z</time>
      </trkpt>
      <trkpt lat="45.7227756" lon="6.7171542">
        <ele>2457.38</ele>
        <time>2019-09-04T13:07:59Z</time>
      </trkpt>
      <trkpt lat="45.7226763" lon="6.7172111">
        <ele>2455.96</ele>
        <time>2019-09-04T13:08:09Z</time>
      </trkpt>
      <trkpt lat="45.7225814" lon="6.7172179">
        <ele>2453.87</ele>
        <time>2019-09-04T13:08:19Z</time>
      </trkpt>
      <trkpt lat="45.7224935" lon="6.7173130">
        <ele>2453.73</ele>
        <time>2019-09-04T13:08:29Z</time>
      </trkpt>
      <trkpt lat="45.7224090" lon="6.7173661">
        <ele>2452.60</ele>
        <time>2019-09-04T13:08:39Z</time>
      </trkpt>
      <trkpt lat="45.7223219" lon="6.7174337">
        <ele>2452.53</ele>
        <time>2019-09-04T13:08:49Z</time>
      </trkpt>
      <trkpt lat="45.7222385" lon="6.7175198">
        <ele>2450.84</ele>
        <time>2019-09-04T13:08:59Z</time>
      </trkpt>
      <trkpt lat="45.7221517" lon="6.7175659">
        <ele>2449.62</ele>
        <time>2019-09-04T13:09:09Z</time>
      </trkpt>
      <trkpt lat="45.7220590" lon="6.7175046">
        <ele>2448.48</ele>
        <time>2019-09-04T13:09:23Z</time>
      </trkpt>
      <trkpt lat="45.7219885" lon="6.7174078">
        <ele>2444.56</ele>
        <time>2019-09-04T13:09:41Z</time>
      </trkpt>
      <trkpt lat="45.7122398" lon="6.7083825">
        <ele>2536.53</ele>
        <time>2019-09-04T14:14:23Z</time>
      </trkpt>
      <trkpt lat="45.7122398" lon="6.7083825">
        <ele>2536.53</ele>
        <time>2019-09-04T14:14:23Z</time>
      </trkpt>
      <trkpt lat="45.7220589" lon="6.7173197">
        <ele>2437.77</ele>
        <time>2019-09-04T14:36:29Z</time>
      </trkpt>
      <trkpt lat="45.7122398" lon="6.7083825">
        <ele>2536.53</ele>
        <time>2019-09-04T14:14:23Z</time>
      </trkpt>
      <trkpt lat="45.7123217" lon="6.7084521">
        <ele>2536.74</ele>
        <time>2019-09-04T14:14:42Z</time>
      </trkpt>
      <trkpt lat="45.7123829" lon="6.7085492">
        <ele>2534.65</ele>
        <time>2019-09-04T14:14:56Z</time>
      </trkpt>
      <trkpt lat="45.7124659" lon="6.7086498">
        <ele>2532.63</ele>
        <time>2019-09-04T14:15:04Z</time>
      </trkpt>
      <trkpt lat="45.7125664" lon="6.7087509">
        <ele>2530.63</ele>
        <time>2019-09-04T14:15:12Z</time>
      </trkpt>
      <trkpt lat="45.7126463" lon="6.7088169">
        <ele>2528.49</ele>
        <time>2019-09-04T14:15:24Z</time>
      </trkpt>
      <trkpt lat="45.7127527" lon="6.7089051">
        <ele>2528.32</ele>
        <time>2019-09-04T14:15:30Z</time>
      </trkpt>
      <trkpt lat="45.7128394" lon="6.7089651">
        <ele>2526.69</ele>
        <time>2019-09-04T14:15:34Z</time>
      </trkpt>
      <trkpt lat="45.7129289" lon="6.7090396">
        <ele>2524.24</ele>
        <time>2019-09-04T14:15:38Z</time>
      </trkpt>
      <trkpt lat="45.7130463" lon="6.7091161">
        <ele>2522.89</ele>
        <time>2019-09-04T14:15:42Z</time>
      </trkpt>
      <trkpt lat="45.7131583" lon="6.7091972">
        <ele>2520.25</ele>
        <time>2019-09-04T14:15:46Z</time>
      </trkpt>
      <trkpt lat="45.7132621" lon="6.7092379">
        <ele>2518.90</ele>
        <time>2019-09-04T14:15:50Z</time>
      </trkpt>
      <trkpt lat="45.7133553" lon="6.7092876">
        <ele>2519.16</ele>
        <time>2019-09-04T14:15:56Z</time>
      </trkpt>
      <trkpt lat="45.7134571" lon="6.7093753">
        <ele>2521.39</ele>
        <time>2019-09-04T14:16:06Z</time>
      </trkpt>
      <trkpt lat="45.7135409" lon="6.7094776">
        <ele>2524.32</ele>
        <time>2019-09-04T14:16:12Z</time>
      </trkpt>
      <trkpt lat="45.7136153" lon="6.7095980">
        <ele>2524.83</ele>
        <time>2019-09-04T14:16:22Z</time>
      </trkpt>
      <trkpt lat="45.7136952" lon="6.7096935">
        <ele>2523.61</ele>
        <time>2019-09-04T14:16:30Z</time>
      </trkpt>
      <trkpt lat="45.7137754" lon="6.7097557">
        <ele>2522.56</ele>
        <time>2019-09-04T14:16:36Z</time>
      </trkpt>
      <trkpt lat="45.7138713" lon="6.7098622">
        <ele>2522.90</ele>
        <time>2019-09-04T14:16:46Z</time>
      </trkpt>
      <trkpt lat="45.7139778" lon="6.7098972">
        <ele>2520.94</ele>
        <time>2019-09-04T14:16:54Z</time>
      </trkpt>
      <trkpt lat="45.7140602" lon="6.7100031">
        <ele>2522.52</ele>
        <time>2019-09-04T14:17:02Z</time>
      </trkpt>
      <trkpt lat="45.7141649" lon="6.7100166">
        <ele>2520.63</ele>
        <time>2019-09-04T14:17:10Z</time>
      </trkpt>
      <trkpt lat="45.7142538" lon="6.7100899">
        <ele>2519.99</ele>
        <time>2019-09-04T14:17:16Z</time>
      </trkpt>
      <trkpt lat="45.7143104" lon="6.7102044">
        <ele>2523.37</ele>
        <time>2019-09-04T14:17:22Z</time>
      </trkpt>
      <trkpt lat="45.7144152" lon="6.7102901">
        <ele>2522.89</ele>
        <time>2019-09-04T14:17:30Z</time>
      </trkpt>
      <trkpt lat="45.7144687" lon="6.7104268">
        <ele>2519.74</ele>
        <time>2019-09-04T14:17:38Z</time>
      </trkpt>
      <trkpt lat="45.7144280" lon="6.7105423">
        <ele>2518.66</ele>
        <time>2019-09-04T14:17:48Z</time>
      </trkpt>
      <trkpt lat="45.7143240" lon="6.7105893">
        <ele>2516.19</ele>
        <time>2019-09-04T14:17:56Z</time>
      </trkpt>
      <trkpt lat="45.7142223" lon="6.7106136">
        <ele>2515.88</ele>
        <time>2019-09-04T14:18:08Z</time>
      </trkpt>
      <trkpt lat="45.7143286" lon="6.7106210">
        <ele>2511.97</ele>
        <time>2019-09-04T14:18:37Z</time>
      </trkpt>
      <trkpt lat="45.7144531" lon="6.7106157">
        <ele>2515.34</ele>
        <time>2019-09-04T14:18:45Z</time>
      </trkpt>
      <trkpt lat="45.7145542" lon="6.7106348">
        <ele>2512.72</ele>
        <time>2019-09-04T14:18:54Z</time>
      </trkpt>
      <trkpt lat="45.7146744" lon="6.7106507">
        <ele>2513.71</ele>
        <time>2019-09-04T14:19:04Z</time>
      </trkpt>
      <trkpt lat="45.7147705" lon="6.7106643">
        <ele>2511.08</ele>
        <time>2019-09-04T14:19:10Z</time>
      </trkpt>
      <trkpt lat="45.7148611" lon="6.7106940">
        <ele>2508.91</ele>
        <time>2019-09-04T14:19:18Z</time>
      </trkpt>
      <trkpt lat="45.7149572" lon="6.7107114">
        <ele>2507.13</ele>
        <time>2019-09-04T14:19:26Z</time>
      </trkpt>
      <trkpt lat="45.7150656" lon="6.7107769">
        <ele>2507.03</ele>
        <time>2019-09-04T14:19:34Z</time>
      </trkpt>
      <trkpt lat="45.7151525" lon="6.7108477">
        <ele>2511.28</ele>
        <time>2019-09-04T14:19:40Z</time>
      </trkpt>
      <trkpt lat="45.7152494" lon="6.7108155">
        <ele>2507.40</ele>
        <time>2019-09-04T14:19:48Z</time>
      </trkpt>
      <trkpt lat="45.7153436" lon="6.7109114">
        <ele>2504.30</ele>
        <time>2019-09-04T14:19:58Z</time>
      </trkpt>
      <trkpt lat="45.7154239" lon="6.7109766">
        <ele>2502.84</ele>
        <time>2019-09-04T14:20:06Z</time>
      </trkpt>
      <trkpt lat="45.7155011" lon="6.7110463">
        <ele>2498.98</ele>
        <time>2019-09-04T14:20:12Z</time>
      </trkpt>
      <trkpt lat="45.7156083" lon="6.7111127">
        <ele>2494.79</ele>
        <time>2019-09-04T14:20:24Z</time>
      </trkpt>
      <trkpt lat="45.7156992" lon="6.7111488">
        <ele>2493.00</ele>
        <time>2019-09-04T14:20:32Z</time>
      </trkpt>
      <trkpt lat="45.7157722" lon="6.7112273">
        <ele>2491.09</ele>
        <time>2019-09-04T14:20:40Z</time>
      </trkpt>
      <trkpt lat="45.7158516" lon="6.7112941">
        <ele>2489.43</ele>
        <time>2019-09-04T14:20:46Z</time>
      </trkpt>
      <trkpt lat="45.7159507" lon="6.7113580">
        <ele>2487.45</ele>
        <time>2019-09-04T14:20:54Z</time>
      </trkpt>
      <trkpt lat="45.7160456" lon="6.7114609">
        <ele>2486.48</ele>
        <time>2019-09-04T14:21:02Z</time>
      </trkpt>
      <trkpt lat="45.7161357" lon="6.7115468">
        <ele>2487.44</ele>
        <time>2019-09-04T14:21:12Z</time>
      </trkpt>
      <trkpt lat="45.7162229" lon="6.7116668">
        <ele>2485.95</ele>
        <time>2019-09-04T14:21:24Z</time>
      </trkpt>
      <trkpt lat="45.7163418" lon="6.7117576">
        <ele>2484.59</ele>
        <time>2019-09-04T14:21:32Z</time>
      </trkpt>
      <trkpt lat="45.7164423" lon="6.7118260">
        <ele>2482.44</ele>
        <time>2019-09-04T14:21:38Z</time>
      </trkpt>
      <trkpt lat="45.7165398" lon="6.7118351">
        <ele>2481.77</ele>
        <time>2019-09-04T14:21:44Z</time>
      </trkpt>
      <trkpt lat="45.7166572" lon="6.7118641">
        <ele>2482.60</ele>
        <time>2019-09-04T14:21:58Z</time>
      </trkpt>
      <trkpt lat="45.7167306" lon="6.7119779">
        <ele>2482.53</ele>
        <time>2019-09-04T14:22:04Z</time>
      </trkpt>
      <trkpt lat="45.7167860" lon="6.7121241">
        <ele>2484.63</ele>
        <time>2019-09-04T14:22:10Z</time>
      </trkpt>
      <trkpt lat="45.7167899" lon="6.7122727">
        <ele>2485.78</ele>
        <time>2019-09-04T14:22:16Z</time>
      </trkpt>
      <trkpt lat="45.7168545" lon="6.7124048">
        <ele>2480.98</ele>
        <time>2019-09-04T14:22:26Z</time>
      </trkpt>
      <trkpt lat="45.7169086" lon="6.7125364">
        <ele>2484.24</ele>
        <time>2019-09-04T14:22:34Z</time>
      </trkpt>
      <trkpt lat="45.7169570" lon="6.7126882">
        <ele>2477.18</ele>
        <time>2019-09-04T14:22:40Z</time>
      </trkpt>
      <trkpt lat="45.7170132" lon="6.7128166">
        <ele>2479.14</ele>
        <time>2019-09-04T14:22:48Z</time>
      </trkpt>
      <trkpt lat="45.7170708" lon="6.7129171">
        <ele>2479.29</ele>
        <time>2019-09-04T14:22:52Z</time>
      </trkpt>
      <trkpt lat="45.7172054" lon="6.7130735">
        <ele>2485.19</ele>
        <time>2019-09-04T14:23:00Z</time>
      </trkpt>
      <trkpt lat="45.7172772" lon="6.7132088">
        <ele>2486.83</ele>
        <time>2019-09-04T14:23:04Z</time>
      </trkpt>
      <trkpt lat="45.7173313" lon="6.7133409">
        <ele>2485.86</ele>
        <time>2019-09-04T14:23:08Z</time>
      </trkpt>
      <trkpt lat="45.7174189" lon="6.7134021">
        <ele>2482.09</ele>
        <time>2019-09-04T14:23:34Z</time>
      </trkpt>
      <trkpt lat="45.7175055" lon="6.7134433">
        <ele>2480.18</ele>
        <time>2019-09-04T14:23:44Z</time>
      </trkpt>
      <trkpt lat="45.7175994" lon="6.7134744">
        <ele>2479.06</ele>
        <time>2019-09-04T14:23:58Z</time>
      </trkpt>
      <trkpt lat="45.7177027" lon="6.7135677">
        <ele>2477.25</ele>
        <time>2019-09-04T14:24:08Z</time>
      </trkpt>
      <trkpt lat="45.7177749" lon="6.7136665">
        <ele>2474.73</ele>
        <time>2019-09-04T14:24:14Z</time>
      </trkpt>
      <trkpt lat="45.7178474" lon="6.7137783">
        <ele>2473.08</ele>
        <time>2019-09-04T14:24:22Z</time>
      </trkpt>
      <trkpt lat="45.7179611" lon="6.7138540">
        <ele>2469.87</ele>
        <time>2019-09-04T14:24:34Z</time>
      </trkpt>
      <trkpt lat="45.7180363" lon="6.7139656">
        <ele>2469.77</ele>
        <time>2019-09-04T14:24:38Z</time>
      </trkpt>
      <trkpt lat="45.7181057" lon="6.7140604">
        <ele>2468.63</ele>
        <time>2019-09-04T14:24:44Z</time>
      </trkpt>
      <trkpt lat="45.7181576" lon="6.7142200">
        <ele>2464.89</ele>
        <time>2019-09-04T14:24:52Z</time>
      </trkpt>
      <trkpt lat="45.7182269" lon="6.7143294">
        <ele>2462.15</ele>
        <time>2019-09-04T14:25:02Z</time>
      </trkpt>
      <trkpt lat="45.7182990" lon="6.7144084">
        <ele>2460.85</ele>
        <time>2019-09-04T14:25:10Z</time>
      </trkpt>
      <trkpt lat="45.7181975" lon="6.7144430">
        <ele>2454.97</ele>
        <time>2019-09-04T14:25:18Z</time>
      </trkpt>
      <trkpt lat="45.7181072" lon="6.7143854">
        <ele>2452.96</ele>
        <time>2019-09-04T14:25:22Z</time>
      </trkpt>
      <trkpt lat="45.7180152" lon="6.7143950">
        <ele>2448.20</ele>
        <time>2019-09-04T14:25:30Z</time>
      </trkpt>
      <trkpt lat="45.7181053" lon="6.7144850">
        <ele>2446.52</ele>
        <time>2019-09-04T14:25:44Z</time>
      </trkpt>
      <trkpt lat="45.7181934" lon="6.7145216">
        <ele>2444.71</ele>
        <time>2019-09-04T14:25:52Z</time>
      </trkpt>
      <trkpt lat="45.7182899" lon="6.7145663">
        <ele>2441.59</ele>
        <time>2019-09-04T14:26:00Z</time>
      </trkpt>
      <trkpt lat="45.7183900" lon="6.7145766">
        <ele>2441.98</ele>
        <time>2019-09-04T14:26:10Z</time>
      </trkpt>
      <trkpt lat="45.7184781" lon="6.7146200">
        <ele>2441.36</ele>
        <time>2019-09-04T14:26:14Z</time>
      </trkpt>
      <trkpt lat="45.7185724" lon="6.7146688">
        <ele>2440.34</ele>
        <time>2019-09-04T14:26:20Z</time>
      </trkpt>
      <trkpt lat="45.7186574" lon="6.7147239">
        <ele>2436.95</ele>
        <time>2019-09-04T14:26:28Z</time>
      </trkpt>
      <trkpt lat="45.7187670" lon="6.7148103">
        <ele>2437.57</ele>
        <time>2019-09-04T14:26:36Z</time>
      </trkpt>
      <trkpt lat="45.7188681" lon="6.7148830">
        <ele>2432.94</ele>
        <time>2019-09-04T14:26:42Z</time>
      </trkpt>
      <trkpt lat="45.7189566" lon="6.7148520">
        <ele>2428.76</ele>
        <time>2019-09-04T14:26:54Z</time>
      </trkpt>
      <trkpt lat="45.7190517" lon="6.7149005">
        <ele>2425.46</ele>
        <time>2019-09-04T14:27:00Z</time>
      </trkpt>
      <trkpt lat="45.7191522" lon="6.7149858">
        <ele>2422.61</ele>
        <time>2019-09-04T14:27:06Z</time>
      </trkpt>
      <trkpt lat="45.7192562" lon="6.7150166">
        <ele>2421.61</ele>
        <time>2019-09-04T14:27:16Z</time>
      </trkpt>
      <trkpt lat="45.7193663" lon="6.7150021">
        <ele>2415.06</ele>
        <time>2019-09-04T14:27:26Z</time>
      </trkpt>
      <trkpt lat="45.7194630" lon="6.7149658">
        <ele>2413.12</ele>
        <time>2019-09-04T14:27:34Z</time>
      </trkpt>
      <trkpt lat="45.7195645" lon="6.7149388">
        <ele>2410.54</ele>
        <time>2019-09-04T14:27:40Z</time>
      </trkpt>
      <trkpt lat="45.7196744" lon="6.7148800">
        <ele>2411.29</ele>
        <time>2019-09-04T14:27:46Z</time>
      </trkpt>
      <trkpt lat="45.7197621" lon="6.7148125">
        <ele>2409.55</ele>
        <time>2019-09-04T14:27:54Z</time>
      </trkpt>
      <trkpt lat="45.7198214" lon="6.7147150">
        <ele>2406.95</ele>
        <time>2019-09-04T14:28:00Z</time>
      </trkpt>
      <trkpt lat="45.7199379" lon="6.7146648">
        <ele>2405.40</ele>
        <time>2019-09-04T14:28:08Z</time>
      </trkpt>
      <trkpt lat="45.7200617" lon="6.7146043">
        <ele>2401.24</ele>
        <time>2019-09-04T14:28:16Z</time>
      </trkpt>
      <trkpt lat="45.7201549" lon="6.7145911">
        <ele>2405.93</ele>
        <time>2019-09-04T14:28:22Z</time>
      </trkpt>
      <trkpt lat="45.7202460" lon="6.7145224">
        <ele>2405.16</ele>
        <time>2019-09-04T14:28:30Z</time>
      </trkpt>
      <trkpt lat="45.7203490" lon="6.7145106">
        <ele>2407.26</ele>
        <time>2019-09-04T14:28:36Z</time>
      </trkpt>
      <trkpt lat="45.7204345" lon="6.7145762">
        <ele>2406.81</ele>
        <time>2019-09-04T14:28:48Z</time>
      </trkpt>
      <trkpt lat="45.7205358" lon="6.7145507">
        <ele>2408.08</ele>
        <time>2019-09-04T14:28:56Z</time>
      </trkpt>
      <trkpt lat="45.7206139" lon="6.7146537">
        <ele>2407.38</ele>
        <time>2019-09-04T14:29:08Z</time>
      </trkpt>
      <trkpt lat="45.7206997" lon="6.7147215">
        <ele>2411.06</ele>
        <time>2019-09-04T14:29:18Z</time>
      </trkpt>
      <trkpt lat="45.7207550" lon="6.7148332">
        <ele>2411.18</ele>
        <time>2019-09-04T14:29:24Z</time>
      </trkpt>
      <trkpt lat="45.7207961" lon="6.7149921">
        <ele>2414.13</ele>
        <time>2019-09-04T14:29:32Z</time>
      </trkpt>
      <trkpt lat="45.7208549" lon="6.7150905">
        <ele>2415.16</ele>
        <time>2019-09-04T14:29:38Z</time>
      </trkpt>
      <trkpt lat="45.7209194" lon="6.7151815">
        <ele>2416.44</ele>
        <time>2019-09-04T14:29:46Z</time>
      </trkpt>
      <trkpt lat="45.7209753" lon="6.7152827">
        <ele>2417.63</ele>
        <time>2019-09-04T14:29:56Z</time>
      </trkpt>
      <trkpt lat="45.7210556" lon="6.7153799">
        <ele>2419.48</ele>
        <time>2019-09-04T14:30:04Z</time>
      </trkpt>
      <trkpt lat="45.7211279" lon="6.7154939">
        <ele>2419.28</ele>
        <time>2019-09-04T14:30:12Z</time>
      </trkpt>
      <trkpt lat="45.7212197" lon="6.7155306">
        <ele>2420.88</ele>
        <time>2019-09-04T14:30:24Z</time>
      </trkpt>
      <trkpt lat="45.7212967" lon="6.7156193">
        <ele>2419.44</ele>
        <time>2019-09-04T14:30:28Z</time>
      </trkpt>
      <trkpt lat="45.7214008" lon="6.7156691">
        <ele>2422.03</ele>
        <time>2019-09-04T14:30:38Z</time>
      </trkpt>
      <trkpt lat="45.7214862" lon="6.7157280">
        <ele>2423.52</ele>
        <time>2019-09-04T14:30:46Z</time>
      </trkpt>
      <trkpt lat="45.7215987" lon="6.7157476">
        <ele>2421.49</ele>
        <time>2019-09-04T14:30:56Z</time>
      </trkpt>
      <trkpt lat="45.7216813" lon="6.7158200">
        <ele>2420.83</ele>
        <time>2019-09-04T14:31:06Z</time>
      </trkpt>
      <trkpt lat="45.7217620" lon="6.7159039">
        <ele>2425.59</ele>
        <time>2019-09-04T14:31:16Z</time>
      </trkpt>
      <trkpt lat="45.7218659" lon="6.7159679">
        <ele>2425.21</ele>
        <time>2019-09-04T14:31:26Z</time>
      </trkpt>
      <trkpt lat="45.7219436" lon="6.7160545">
        <ele>2423.90</ele>
        <time>2019-09-04T14:31:34Z</time>
      </trkpt>
      <trkpt lat="45.7220246" lon="6.7161599">
        <ele>2425.43</ele>
        <time>2019-09-04T14:31:44Z</time>
      </trkpt>
      <trkpt lat="45.7220800" lon="6.7162891">
        <ele>2426.52</ele>
        <time>2019-09-04T14:31:54Z</time>
      </trkpt>
      <trkpt lat="45.7220927" lon="6.7164239">
        <ele>2433.17</ele>
        <time>2019-09-04T14:32:06Z</time>
      </trkpt>
      <trkpt lat="45.7221105" lon="6.7165753">
        <ele>2431.75</ele>
        <time>2019-09-04T14:32:16Z</time>
      </trkpt>
      <trkpt lat="45.7220947" lon="6.7167260">
        <ele>2435.98</ele>
        <time>2019-09-04T14:32:28Z</time>
      </trkpt>
      <trkpt lat="45.7220796" lon="6.7168537">
        <ele>2436.53</ele>
        <time>2019-09-04T14:32:36Z</time>
      </trkpt>
      <trkpt lat="45.7220645" lon="6.7170047">
        <ele>2437.43</ele>
        <time>2019-09-04T14:32:48Z</time>
      </trkpt>
      <trkpt lat="45.7219875" lon="6.7171158">
        <ele>2437.82</ele>
        <time>2019-09-04T14:32:56Z</time>
      </trkpt>
      <trkpt lat="45.7218999" lon="6.7172282">
        <ele>2438.65</ele>
        <time>2019-09-04T14:33:08Z</time>
      </trkpt>
      <trkpt lat="45.7219043" lon="6.7173748">
        <ele>2437.49</ele>
        <time>2019-09-04T14:33:16Z</time>
      </trkpt>
      <trkpt lat="45.7219971" lon="6.7174226">
        <ele>2441.06</ele>
        <time>2019-09-04T14:33:30Z</time>
      </trkpt>
      <trkpt lat="45.7220589" lon="6.7173197">
        <ele>2437.77</ele>
        <time>2019-09-04T14:33:42Z</time>
      </trkpt>
      <trkpt lat="45.7314338" lon="6.7237121">
        <ele>2660.53</ele>
        <time>2019-09-05T06:32:48Z</time>
      </trkpt>
      <trkpt lat="45.7670417" lon="6.8374877">
        <ele>2187.71</ele>
        <time>2019-09-05T13:06:33Z</time>
      </trkpt>
      <trkpt lat="45.7314338" lon="6.7237121">
        <ele>2660.53</ele>
        <time>2019-09-05T06:32:51Z</time>
      </trkpt>
      <trkpt lat="45.7315486" lon="6.7236863">
        <ele>2661.50</ele>
        <time>2019-09-05T06:33:14Z</time>
      </trkpt>
      <trkpt lat="45.7316360" lon="6.7236367">
        <ele>2663.50</ele>
        <time>2019-09-05T06:33:48Z</time>
      </trkpt>
      <trkpt lat="45.7317365" lon="6.7236213">
        <ele>2661.92</ele>
        <time>2019-09-05T06:33:58Z</time>
      </trkpt>
      <trkpt lat="45.7318201" lon="6.7235475">
        <ele>2661.41</ele>
        <time>2019-09-05T06:34:26Z</time>
      </trkpt>
      <trkpt lat="45.7319103" lon="6.7235303">
        <ele>2661.66</ele>
        <time>2019-09-05T06:34:36Z</time>
      </trkpt>
      <trkpt lat="45.7319757" lon="6.7234232">
        <ele>2668.44</ele>
        <time>2019-09-05T06:34:46Z</time>
      </trkpt>
      <trkpt lat="45.7320855" lon="6.7234142">
        <ele>2666.50</ele>
        <time>2019-09-05T06:34:56Z</time>
      </trkpt>
      <trkpt lat="45.7321485" lon="6.7232910">
        <ele>2674.77</ele>
        <time>2019-09-05T06:35:18Z</time>
      </trkpt>
      <trkpt lat="45.7322435" lon="6.7232056">
        <ele>2676.27</ele>
        <time>2019-09-05T06:35:26Z</time>
      </trkpt>
      <trkpt lat="45.7322870" lon="6.7230727">
        <ele>2676.61</ele>
        <time>2019-09-05T06:35:36Z</time>
      </trkpt>
      <trkpt lat="45.7323468" lon="6.7229734">
        <ele>2677.23</ele>
        <time>2019-09-05T06:35:46Z</time>
      </trkpt>
      <trkpt lat="45.7324310" lon="6.7228776">
        <ele>2675.54</ele>
        <time>2019-09-05T06:35:58Z</time>
      </trkpt>
      <trkpt lat="45.7325243" lon="6.7228541">
        <ele>2676.23</ele>
        <time>2019-09-05T06:36:08Z</time>
      </trkpt>
      <trkpt lat="45.7326331" lon="6.7228220">
        <ele>2676.32</ele>
        <time>2019-09-05T06:36:18Z</time>
      </trkpt>
      <trkpt lat="45.7326693" lon="6.7226968">
        <ele>2677.50</ele>
        <time>2019-09-05T06:36:28Z</time>
      </trkpt>
      <trkpt lat="45.7327575" lon="6.7227890">
        <ele>2678.52</ele>
        <time>2019-09-05T06:36:40Z</time>
      </trkpt>
      <trkpt lat="45.7328665" lon="6.7228157">
        <ele>2682.16</ele>
        <time>2019-09-05T06:36:52Z</time>
      </trkpt>
      <trkpt lat="45.7329632" lon="6.7228070">
        <ele>2683.85</ele>
        <time>2019-09-05T06:37:00Z</time>
      </trkpt>
      <trkpt lat="45.7330542" lon="6.7228052">
        <ele>2686.64</ele>
        <time>2019-09-05T06:37:08Z</time>
      </trkpt>
      <trkpt lat="45.7331285" lon="6.7228956">
        <ele>2687.36</ele>
        <time>2019-09-05T06:37:18Z</time>
      </trkpt>
      <trkpt lat="45.7332080" lon="6.7229920">
        <ele>2691.48</ele>
        <time>2019-09-05T06:37:26Z</time>
      </trkpt>
      <trkpt lat="45.7332908" lon="6.7230634">
        <ele>2695.47</ele>
        <time>2019-09-05T06:37:36Z</time>
      </trkpt>
      <trkpt lat="45.7333850" lon="6.7231014">
        <ele>2695.57</ele>
        <time>2019-09-05T06:37:50Z</time>
      </trkpt>
      <trkpt lat="45.7334386" lon="6.7232147">
        <ele>2697.50</ele>
        <time>2019-09-05T06:38:06Z</time>
      </trkpt>
      <trkpt lat="45.7335233" lon="6.7232774">
        <ele>2699.50</ele>
        <time>2019-09-05T06:38:18Z</time>
      </trkpt>
      <trkpt lat="45.7336121" lon="6.7233485">
        <ele>2701.50</ele>
        <time>2019-09-05T06:38:30Z</time>
      </trkpt>
      <trkpt lat="45.7336989" lon="6.7234014">
        <ele>2703.29</ele>
        <time>2019-09-05T06:38:42Z</time>
      </trkpt>
      <trkpt lat="45.7337885" lon="6.7234448">
        <ele>2704.44</ele>
        <time>2019-09-05T06:38:52Z</time>
      </trkpt>
      <trkpt lat="45.7338873" lon="6.7234679">
        <ele>2706.50</ele>
        <time>2019-09-05T06:39:24Z</time>
      </trkpt>
      <trkpt lat="45.7339321" lon="6.7235913">
        <ele>2703.93</ele>
        <time>2019-09-05T06:40:27Z</time>
      </trkpt>
      <trkpt lat="45.7340252" lon="6.7236611">
        <ele>2705.65</ele>
        <time>2019-09-05T06:40:35Z</time>
      </trkpt>
      <trkpt lat="45.7341001" lon="6.7237561">
        <ele>2707.53</ele>
        <time>2019-09-05T06:40:53Z</time>
      </trkpt>
      <trkpt lat="45.7341422" lon="6.7238741">
        <ele>2711.33</ele>
        <time>2019-09-05T06:41:03Z</time>
      </trkpt>
      <trkpt lat="45.7341780" lon="6.7239990">
        <ele>2711.45</ele>
        <time>2019-09-05T06:41:13Z</time>
      </trkpt>
      <trkpt lat="45.7342579" lon="6.7240916">
        <ele>2715.22</ele>
        <time>2019-09-05T06:41:27Z</time>
      </trkpt>
      <trkpt lat="45.7342953" lon="6.7242236">
        <ele>2715.53</ele>
        <time>2019-09-05T06:41:37Z</time>
      </trkpt>
      <trkpt lat="45.7343581" lon="6.7243282">
        <ele>2714.83</ele>
        <time>2019-09-05T06:41:45Z</time>
      </trkpt>
      <trkpt lat="45.7344199" lon="6.7244446">
        <ele>2714.53</ele>
        <time>2019-09-05T06:41:53Z</time>
      </trkpt>
      <trkpt lat="45.7344925" lon="6.7245507">
        <ele>2716.20</ele>
        <time>2019-09-05T06:42:01Z</time>
      </trkpt>
      <trkpt lat="45.7345755" lon="6.7246413">
        <ele>2716.53</ele>
        <time>2019-09-05T06:42:09Z</time>
      </trkpt>
      <trkpt lat="45.7346530" lon="6.7247185">
        <ele>2716.53</ele>
        <time>2019-09-05T06:42:17Z</time>
      </trkpt>
      <trkpt lat="45.7347334" lon="6.7248169">
        <ele>2717.53</ele>
        <time>2019-09-05T06:42:27Z</time>
      </trkpt>
      <trkpt lat="45.7348244" lon="6.7248907">
        <ele>2718.52</ele>
        <time>2019-09-05T06:42:37Z</time>
      </trkpt>
      <trkpt lat="45.7349131" lon="6.7249740">
        <ele>2720.23</ele>
        <time>2019-09-05T06:42:49Z</time>
      </trkpt>
      <trkpt lat="45.7349654" lon="6.7250878">
        <ele>2720.24</ele>
        <time>2019-09-05T06:42:59Z</time>
      </trkpt>
      <trkpt lat="45.7350184" lon="6.7252121">
        <ele>2721.52</ele>
        <time>2019-09-05T06:43:11Z</time>
      </trkpt>
      <trkpt lat="45.7350525" lon="6.7253388">
        <ele>2722.44</ele>
        <time>2019-09-05T06:43:21Z</time>
      </trkpt>
      <trkpt lat="45.7350830" lon="6.7254761">
        <ele>2725.23</ele>
        <time>2019-09-05T06:43:37Z</time>
      </trkpt>
      <trkpt lat="45.7351364" lon="6.7255891">
        <ele>2727.44</ele>
        <time>2019-09-05T06:43:49Z</time>
      </trkpt>
      <trkpt lat="45.7352217" lon="6.7256843">
        <ele>2731.43</ele>
        <time>2019-09-05T06:44:03Z</time>
      </trkpt>
      <trkpt lat="45.7352964" lon="6.7257646">
        <ele>2732.53</ele>
        <time>2019-09-05T06:44:13Z</time>
      </trkpt>
      <trkpt lat="45.7353696" lon="6.7258620">
        <ele>2735.20</ele>
        <time>2019-09-05T06:44:27Z</time>
      </trkpt>
      <trkpt lat="45.7354246" lon="6.7259659">
        <ele>2737.23</ele>
        <time>2019-09-05T06:44:39Z</time>
      </trkpt>
      <trkpt lat="45.7355031" lon="6.7260661">
        <ele>2741.14</ele>
        <time>2019-09-05T06:44:51Z</time>
      </trkpt>
      <trkpt lat="45.7355747" lon="6.7261534">
        <ele>2754.53</ele>
        <time>2019-09-05T06:49:51Z</time>
      </trkpt>
      <trkpt lat="45.7355156" lon="6.7260184">
        <ele>2754.53</ele>
        <time>2019-09-05T06:50:03Z</time>
      </trkpt>
      <trkpt lat="45.7354324" lon="6.7259457">
        <ele>2750.64</ele>
        <time>2019-09-05T06:50:19Z</time>
      </trkpt>
      <trkpt lat="45.7353374" lon="6.7258576">
        <ele>2751.23</ele>
        <time>2019-09-05T06:50:29Z</time>
      </trkpt>
      <trkpt lat="45.7352629" lon="6.7257727">
        <ele>2749.68</ele>
        <time>2019-09-05T06:50:33Z</time>
      </trkpt>
      <trkpt lat="45.7352181" lon="6.7256581">
        <ele>2742.85</ele>
        <time>2019-09-05T06:50:53Z</time>
      </trkpt>
      <trkpt lat="45.7351465" lon="6.7255603">
        <ele>2740.04</ele>
        <time>2019-09-05T06:50:57Z</time>
      </trkpt>
      <trkpt lat="45.7350767" lon="6.7254501">
        <ele>2736.85</ele>
        <time>2019-09-05T06:51:01Z</time>
      </trkpt>
      <trkpt lat="45.7350472" lon="6.7253266">
        <ele>2735.16</ele>
        <time>2019-09-05T06:51:05Z</time>
      </trkpt>
      <trkpt lat="45.7349732" lon="6.7251517">
        <ele>2731.26</ele>
        <time>2019-09-05T06:51:11Z</time>
      </trkpt>
      <trkpt lat="45.7348974" lon="6.7249958">
        <ele>2728.57</ele>
        <time>2019-09-05T06:51:15Z</time>
      </trkpt>
      <trkpt lat="45.7348177" lon="6.7248187">
        <ele>2728.32</ele>
        <time>2019-09-05T06:51:19Z</time>
      </trkpt>
      <trkpt lat="45.7347262" lon="6.7247026">
        <ele>2724.59</ele>
        <time>2019-09-05T06:51:23Z</time>
      </trkpt>
      <trkpt lat="45.7346304" lon="6.7245849">
        <ele>2721.53</ele>
        <time>2019-09-05T06:51:27Z</time>
      </trkpt>
      <trkpt lat="45.7345247" lon="6.7244555">
        <ele>2719.92</ele>
        <time>2019-09-05T06:51:31Z</time>
      </trkpt>
      <trkpt lat="45.7344295" lon="6.7243217">
        <ele>2717.05</ele>
        <time>2019-09-05T06:51:35Z</time>
      </trkpt>
      <trkpt lat="45.7343472" lon="6.7241663">
        <ele>2716.58</ele>
        <time>2019-09-05T06:51:39Z</time>
      </trkpt>
      <trkpt lat="45.7342734" lon="6.7240169">
        <ele>2714.93</ele>
        <time>2019-09-05T06:51:43Z</time>
      </trkpt>
      <trkpt lat="45.7341617" lon="6.7239076">
        <ele>2714.78</ele>
        <time>2019-09-05T06:51:47Z</time>
      </trkpt>
      <trkpt lat="45.7340853" lon="6.7237953">
        <ele>2713.64</ele>
        <time>2019-09-05T06:51:51Z</time>
      </trkpt>
      <trkpt lat="45.7340080" lon="6.7236943">
        <ele>2709.90</ele>
        <time>2019-09-05T06:51:55Z</time>
      </trkpt>
      <trkpt lat="45.7339105" lon="6.7235937">
        <ele>2712.68</ele>
        <time>2019-09-05T06:52:01Z</time>
      </trkpt>
      <trkpt lat="45.7338172" lon="6.7234851">
        <ele>2709.53</ele>
        <time>2019-09-05T06:52:05Z</time>
      </trkpt>
      <trkpt lat="45.7337031" lon="6.7234130">
        <ele>2707.50</ele>
        <time>2019-09-05T06:52:09Z</time>
      </trkpt>
      <trkpt lat="45.7336025" lon="6.7233092">
        <ele>2705.01</ele>
        <time>2019-09-05T06:52:13Z</time>
      </trkpt>
      <trkpt lat="45.7335049" lon="6.7231990">
        <ele>2703.66</ele>
        <time>2019-09-05T06:52:17Z</time>
      </trkpt>
      <trkpt lat="45.7334090" lon="6.7231550">
        <ele>2701.23</ele>
        <time>2019-09-05T06:52:21Z</time>
      </trkpt>
      <trkpt lat="45.7333173" lon="6.7230979">
        <ele>2699.89</ele>
        <time>2019-09-05T06:52:25Z</time>
      </trkpt>
      <trkpt lat="45.7332397" lon="6.7230161">
        <ele>2702.53</ele>
        <time>2019-09-05T06:52:35Z</time>
      </trkpt>
      <trkpt lat="45.7331755" lon="6.7231184">
        <ele>2695.40</ele>
        <time>2019-09-05T06:52:45Z</time>
      </trkpt>
      <trkpt lat="45.7331367" lon="6.7229778">
        <ele>2691.03</ele>
        <time>2019-09-05T06:52:55Z</time>
      </trkpt>
      <trkpt lat="45.7330671" lon="6.7228561">
        <ele>2692.76</ele>
        <time>2019-09-05T06:53:03Z</time>
      </trkpt>
      <trkpt lat="45.7329887" lon="6.7227698">
        <ele>2699.40</ele>
        <time>2019-09-05T06:53:11Z</time>
      </trkpt>
      <trkpt lat="45.7329033" lon="6.7228611">
        <ele>2697.70</ele>
        <time>2019-09-05T06:53:21Z</time>
      </trkpt>
      <trkpt lat="45.7327860" lon="6.7228644">
        <ele>2693.80</ele>
        <time>2019-09-05T06:53:29Z</time>
      </trkpt>
      <trkpt lat="45.7327059" lon="6.7227992">
        <ele>2695.34</ele>
        <time>2019-09-05T06:53:35Z</time>
      </trkpt>
      <trkpt lat="45.7326130" lon="6.7228489">
        <ele>2697.53</ele>
        <time>2019-09-05T06:53:43Z</time>
      </trkpt>
      <trkpt lat="45.7324873" lon="6.7228761">
        <ele>2695.08</ele>
        <time>2019-09-05T06:53:51Z</time>
      </trkpt>
      <trkpt lat="45.7323703" lon="6.7229088">
        <ele>2691.17</ele>
        <time>2019-09-05T06:53:59Z</time>
      </trkpt>
      <trkpt lat="45.7323030" lon="6.7230650">
        <ele>2686.85</ele>
        <time>2019-09-05T06:54:05Z</time>
      </trkpt>
      <trkpt lat="45.7322330" lon="6.7231847">
        <ele>2683.39</ele>
        <time>2019-09-05T06:54:11Z</time>
      </trkpt>
      <trkpt lat="45.7321368" lon="6.7232421">
        <ele>2681.58</ele>
        <time>2019-09-05T06:54:17Z</time>
      </trkpt>
      <trkpt lat="45.7320587" lon="6.7233235">
        <ele>2680.19</ele>
        <time>2019-09-05T06:54:25Z</time>
      </trkpt>
      <trkpt lat="45.7319657" lon="6.7233743">
        <ele>2675.28</ele>
        <time>2019-09-05T06:54:35Z</time>
      </trkpt>
      <trkpt lat="45.7318682" lon="6.7233576">
        <ele>2675.07</ele>
        <time>2019-09-05T06:54:43Z</time>
      </trkpt>
      <trkpt lat="45.7318660" lon="6.7235013">
        <ele>2678.78</ele>
        <time>2019-09-05T06:54:51Z</time>
      </trkpt>
      <trkpt lat="45.7319347" lon="6.7235849">
        <ele>2673.17</ele>
        <time>2019-09-05T06:55:01Z</time>
      </trkpt>
      <trkpt lat="45.7318334" lon="6.7236759">
        <ele>2664.79</ele>
        <time>2019-09-05T06:55:17Z</time>
      </trkpt>
      <trkpt lat="45.7317505" lon="6.7235653">
        <ele>2664.37</ele>
        <time>2019-09-05T06:55:29Z</time>
      </trkpt>
      <trkpt lat="45.7316825" lon="6.7236987">
        <ele>2663.84</ele>
        <time>2019-09-05T06:55:41Z</time>
      </trkpt>
      <trkpt lat="45.7315770" lon="6.7236713">
        <ele>2661.39</ele>
        <time>2019-09-05T06:55:51Z</time>
      </trkpt>
      <trkpt lat="45.7314850" lon="6.7236891">
        <ele>2660.24</ele>
        <time>2019-09-05T06:56:07Z</time>
      </trkpt>
      <trkpt lat="45.7313754" lon="6.7236697">
        <ele>2663.25</ele>
        <time>2019-09-05T06:56:13Z</time>
      </trkpt>
      <trkpt lat="45.7313348" lon="6.7238015">
        <ele>2661.47</ele>
        <time>2019-09-05T06:59:19Z</time>
      </trkpt>
      <trkpt lat="45.7313253" lon="6.7239449">
        <ele>2659.62</ele>
        <time>2019-09-05T06:59:29Z</time>
      </trkpt>
      <trkpt lat="45.7313034" lon="6.7240967">
        <ele>2660.53</ele>
        <time>2019-09-05T06:59:39Z</time>
      </trkpt>
      <trkpt lat="45.7312576" lon="6.7242190">
        <ele>2660.15</ele>
        <time>2019-09-05T06:59:53Z</time>
      </trkpt>
      <trkpt lat="45.7312137" lon="6.7243440">
        <ele>2659.54</ele>
        <time>2019-09-05T07:00:05Z</time>
      </trkpt>
      <trkpt lat="45.7311811" lon="6.7244876">
        <ele>2657.63</ele>
        <time>2019-09-05T07:00:13Z</time>
      </trkpt>
      <trkpt lat="45.7311691" lon="6.7246233">
        <ele>2656.74</ele>
        <time>2019-09-05T07:00:23Z</time>
      </trkpt>
      <trkpt lat="45.7311745" lon="6.7247595">
        <ele>2656.53</ele>
        <time>2019-09-05T07:00:31Z</time>
      </trkpt>
      <trkpt lat="45.7311651" lon="6.7248934">
        <ele>2655.62</ele>
        <time>2019-09-05T07:00:43Z</time>
      </trkpt>
      <trkpt lat="45.7311115" lon="6.7250054">
        <ele>2652.93</ele>
        <time>2019-09-05T07:00:53Z</time>
      </trkpt>
      <trkpt lat="45.7310781" lon="6.7251403">
        <ele>2650.84</ele>
        <time>2019-09-05T07:01:03Z</time>
      </trkpt>
      <trkpt lat="45.7310586" lon="6.7252740">
        <ele>2650.53</ele>
        <time>2019-09-05T07:01:13Z</time>
      </trkpt>
      <trkpt lat="45.7309592" lon="6.7253379">
        <ele>2643.82</ele>
        <time>2019-09-05T07:01:23Z</time>
      </trkpt>
      <trkpt lat="45.7309023" lon="6.7254378">
        <ele>2642.01</ele>
        <time>2019-09-05T07:01:31Z</time>
      </trkpt>
      <trkpt lat="45.7308599" lon="6.7255715">
        <ele>2637.13</ele>
        <time>2019-09-05T07:01:39Z</time>
      </trkpt>
      <trkpt lat="45.7308280" lon="6.7256986">
        <ele>2627.03</ele>
        <time>2019-09-05T07:01:49Z</time>
      </trkpt>
      <trkpt lat="45.7307492" lon="6.7257908">
        <ele>2624.70</ele>
        <time>2019-09-05T07:01:57Z</time>
      </trkpt>
      <trkpt lat="45.7308126" lon="6.7259019">
        <ele>2621.95</ele>
        <time>2019-09-05T07:02:05Z</time>
      </trkpt>
      <trkpt lat="45.7307795" lon="6.7260304">
        <ele>2618.83</ele>
        <time>2019-09-05T07:02:19Z</time>
      </trkpt>
      <trkpt lat="45.7306940" lon="6.7261173">
        <ele>2614.26</ele>
        <time>2019-09-05T07:02:27Z</time>
      </trkpt>
      <trkpt lat="45.7306516" lon="6.7262384">
        <ele>2612.77</ele>
        <time>2019-09-05T07:02:35Z</time>
      </trkpt>
      <trkpt lat="45.7306506" lon="6.7263874">
        <ele>2610.52</ele>
        <time>2019-09-05T07:02:45Z</time>
      </trkpt>
      <trkpt lat="45.7305762" lon="6.7264673">
        <ele>2603.15</ele>
        <time>2019-09-05T07:03:01Z</time>
      </trkpt>
      <trkpt lat="45.7304841" lon="6.7265447">
        <ele>2593.18</ele>
        <time>2019-09-05T07:03:19Z</time>
      </trkpt>
      <trkpt lat="45.7304939" lon="6.7266797">
        <ele>2591.83</ele>
        <time>2019-09-05T07:04:29Z</time>
      </trkpt>
      <trkpt lat="45.7304714" lon="6.7268175">
        <ele>2591.53</ele>
        <time>2019-09-05T07:04:39Z</time>
      </trkpt>
      <trkpt lat="45.7305462" lon="6.7269298">
        <ele>2589.22</ele>
        <time>2019-09-05T07:04:47Z</time>
      </trkpt>
      <trkpt lat="45.7304908" lon="6.7270399">
        <ele>2580.53</ele>
        <time>2019-09-05T07:04:57Z</time>
      </trkpt>
      <trkpt lat="45.7304637" lon="6.7271711">
        <ele>2575.96</ele>
        <time>2019-09-05T07:05:07Z</time>
      </trkpt>
      <trkpt lat="45.7303719" lon="6.7272759">
        <ele>2571.85</ele>
        <time>2019-09-05T07:05:17Z</time>
      </trkpt>
      <trkpt lat="45.7302886" lon="6.7273745">
        <ele>2567.30</ele>
        <time>2019-09-05T07:05:31Z</time>
      </trkpt>
      <trkpt lat="45.7303024" lon="6.7275254">
        <ele>2562.65</ele>
        <time>2019-09-05T07:05:43Z</time>
      </trkpt>
      <trkpt lat="45.7303700" lon="6.7276457">
        <ele>2557.82</ele>
        <time>2019-09-05T07:05:55Z</time>
      </trkpt>
      <trkpt lat="45.7304021" lon="6.7277717">
        <ele>2554.83</ele>
        <time>2019-09-05T07:06:03Z</time>
      </trkpt>
      <trkpt lat="45.7304685" lon="6.7278724">
        <ele>2551.89</ele>
        <time>2019-09-05T07:06:15Z</time>
      </trkpt>
      <trkpt lat="45.7304104" lon="6.7279799">
        <ele>2541.11</ele>
        <time>2019-09-05T07:06:33Z</time>
      </trkpt>
      <trkpt lat="45.7303323" lon="6.7280716">
        <ele>2540.54</ele>
        <time>2019-09-05T07:06:45Z</time>
      </trkpt>
      <trkpt lat="45.7302640" lon="6.7281722">
        <ele>2535.47</ele>
        <time>2019-09-05T07:06:55Z</time>
      </trkpt>
      <trkpt lat="45.7301652" lon="6.7282152">
        <ele>2535.24</ele>
        <time>2019-09-05T07:07:03Z</time>
      </trkpt>
      <trkpt lat="45.7301175" lon="6.7283367">
        <ele>2531.06</ele>
        <time>2019-09-05T07:07:09Z</time>
      </trkpt>
      <trkpt lat="45.7301061" lon="6.7284874">
        <ele>2523.40</ele>
        <time>2019-09-05T07:07:17Z</time>
      </trkpt>
      <trkpt lat="45.7300646" lon="6.7286251">
        <ele>2520.81</ele>
        <time>2019-09-05T07:07:27Z</time>
      </trkpt>
      <trkpt lat="45.7300232" lon="6.7287633">
        <ele>2520.90</ele>
        <time>2019-09-05T07:07:33Z</time>
      </trkpt>
      <trkpt lat="45.7299216" lon="6.7288403">
        <ele>2517.90</ele>
        <time>2019-09-05T07:07:43Z</time>
      </trkpt>
      <trkpt lat="45.7298170" lon="6.7288364">
        <ele>2513.66</ele>
        <time>2019-09-05T07:07:53Z</time>
      </trkpt>
      <trkpt lat="45.7298136" lon="6.7289729">
        <ele>2508.60</ele>
        <time>2019-09-05T07:08:15Z</time>
      </trkpt>
      <trkpt lat="45.7298157" lon="6.7291078">
        <ele>2503.06</ele>
        <time>2019-09-05T07:08:27Z</time>
      </trkpt>
      <trkpt lat="45.7297596" lon="6.7292195">
        <ele>2497.19</ele>
        <time>2019-09-05T07:08:39Z</time>
      </trkpt>
      <trkpt lat="45.7296848" lon="6.7293046">
        <ele>2489.74</ele>
        <time>2019-09-05T07:08:51Z</time>
      </trkpt>
      <trkpt lat="45.7295739" lon="6.7292773">
        <ele>2486.95</ele>
        <time>2019-09-05T07:08:57Z</time>
      </trkpt>
      <trkpt lat="45.7294608" lon="6.7293518">
        <ele>2479.58</ele>
        <time>2019-09-05T07:09:09Z</time>
      </trkpt>
      <trkpt lat="45.7293761" lon="6.7294087">
        <ele>2473.97</ele>
        <time>2019-09-05T07:09:17Z</time>
      </trkpt>
      <trkpt lat="45.7292854" lon="6.7294955">
        <ele>2470.67</ele>
        <time>2019-09-05T07:09:27Z</time>
      </trkpt>
      <trkpt lat="45.7292504" lon="6.7296576">
        <ele>2466.15</ele>
        <time>2019-09-05T07:09:37Z</time>
      </trkpt>
      <trkpt lat="45.7291482" lon="6.7297076">
        <ele>2456.38</ele>
        <time>2019-09-05T07:09:47Z</time>
      </trkpt>
      <trkpt lat="45.7290905" lon="6.7298554">
        <ele>2458.45</ele>
        <time>2019-09-05T07:09:55Z</time>
      </trkpt>
      <trkpt lat="45.7290843" lon="6.7300171">
        <ele>2454.22</ele>
        <time>2019-09-05T07:10:01Z</time>
      </trkpt>
      <trkpt lat="45.7290639" lon="6.7301620">
        <ele>2451.08</ele>
        <time>2019-09-05T07:10:11Z</time>
      </trkpt>
      <trkpt lat="45.7290329" lon="6.7302981">
        <ele>2445.41</ele>
        <time>2019-09-05T07:10:27Z</time>
      </trkpt>
      <trkpt lat="45.7289935" lon="6.7304215">
        <ele>2443.35</ele>
        <time>2019-09-05T07:10:41Z</time>
      </trkpt>
      <trkpt lat="45.7289205" lon="6.7305094">
        <ele>2440.82</ele>
        <time>2019-09-05T07:10:49Z</time>
      </trkpt>
      <trkpt lat="45.7288809" lon="6.7306466">
        <ele>2440.26</ele>
        <time>2019-09-05T07:10:57Z</time>
      </trkpt>
      <trkpt lat="45.7288362" lon="6.7307780">
        <ele>2435.60</ele>
        <time>2019-09-05T07:11:09Z</time>
      </trkpt>
      <trkpt lat="45.7288772" lon="6.7308970">
        <ele>2436.17</ele>
        <time>2019-09-05T07:11:19Z</time>
      </trkpt>
      <trkpt lat="45.7289638" lon="6.7309698">
        <ele>2435.64</ele>
        <time>2019-09-05T07:11:29Z</time>
      </trkpt>
      <trkpt lat="45.7289904" lon="6.7311086">
        <ele>2436.82</ele>
        <time>2019-09-05T07:11:41Z</time>
      </trkpt>
      <trkpt lat="45.7289751" lon="6.7312572">
        <ele>2435.83</ele>
        <time>2019-09-05T07:11:49Z</time>
      </trkpt>
      <trkpt lat="45.7289315" lon="6.7313793">
        <ele>2432.68</ele>
        <time>2019-09-05T07:12:01Z</time>
      </trkpt>
      <trkpt lat="45.7289276" lon="6.7315218">
        <ele>2432.83</ele>
        <time>2019-09-05T07:12:17Z</time>
      </trkpt>
      <trkpt lat="45.7288878" lon="6.7316442">
        <ele>2432.32</ele>
        <time>2019-09-05T07:12:25Z</time>
      </trkpt>
      <trkpt lat="45.7288118" lon="6.7317553">
        <ele>2430.86</ele>
        <time>2019-09-05T07:12:35Z</time>
      </trkpt>
      <trkpt lat="45.7288272" lon="6.7318988">
        <ele>2430.53</ele>
        <time>2019-09-05T07:12:43Z</time>
      </trkpt>
      <trkpt lat="45.7287940" lon="6.7320203">
        <ele>2428.57</ele>
        <time>2019-09-05T07:12:51Z</time>
      </trkpt>
      <trkpt lat="45.7288878" lon="6.7320960">
        <ele>2436.56</ele>
        <time>2019-09-05T07:16:38Z</time>
      </trkpt>
      <trkpt lat="45.7288033" lon="6.7320410">
        <ele>2428.83</ele>
        <time>2019-09-05T07:17:55Z</time>
      </trkpt>
      <trkpt lat="45.7288766" lon="6.7321461">
        <ele>2426.03</ele>
        <time>2019-09-05T07:18:11Z</time>
      </trkpt>
      <trkpt lat="45.7289058" lon="6.7322691">
        <ele>2422.73</ele>
        <time>2019-09-05T07:18:19Z</time>
      </trkpt>
      <trkpt lat="45.7288661" lon="6.7323848">
        <ele>2414.17</ele>
        <time>2019-09-05T07:18:29Z</time>
      </trkpt>
      <trkpt lat="45.7288868" lon="6.7325199">
        <ele>2411.63</ele>
        <time>2019-09-05T07:18:37Z</time>
      </trkpt>
      <trkpt lat="45.7289356" lon="6.7326485">
        <ele>2413.56</ele>
        <time>2019-09-05T07:18:45Z</time>
      </trkpt>
      <trkpt lat="45.7289704" lon="6.7327690">
        <ele>2414.13</ele>
        <time>2019-09-05T07:18:53Z</time>
      </trkpt>
      <trkpt lat="45.7290401" lon="6.7328531">
        <ele>2406.03</ele>
        <time>2019-09-05T07:19:01Z</time>
      </trkpt>
      <trkpt lat="45.7291048" lon="6.7329842">
        <ele>2408.75</ele>
        <time>2019-09-05T07:19:11Z</time>
      </trkpt>
      <trkpt lat="45.7290814" lon="6.7331101">
        <ele>2400.11</ele>
        <time>2019-09-05T07:19:19Z</time>
      </trkpt>
      <trkpt lat="45.7291177" lon="6.7332681">
        <ele>2404.45</ele>
        <time>2019-09-05T07:19:29Z</time>
      </trkpt>
      <trkpt lat="45.7291653" lon="6.7333784">
        <ele>2402.09</ele>
        <time>2019-09-05T07:19:35Z</time>
      </trkpt>
      <trkpt lat="45.7292055" lon="6.7335034">
        <ele>2394.31</ele>
        <time>2019-09-05T07:19:45Z</time>
      </trkpt>
      <trkpt lat="45.7292757" lon="6.7335994">
        <ele>2395.97</ele>
        <time>2019-09-05T07:19:53Z</time>
      </trkpt>
      <trkpt lat="45.7293075" lon="6.7337214">
        <ele>2389.96</ele>
        <time>2019-09-05T07:19:59Z</time>
      </trkpt>
      <trkpt lat="45.7293486" lon="6.7338580">
        <ele>2395.07</ele>
        <time>2019-09-05T07:20:07Z</time>
      </trkpt>
      <trkpt lat="45.7293507" lon="6.7339940">
        <ele>2393.09</ele>
        <time>2019-09-05T07:20:15Z</time>
      </trkpt>
      <trkpt lat="45.7294278" lon="6.7341015">
        <ele>2390.88</ele>
        <time>2019-09-05T07:20:25Z</time>
      </trkpt>
      <trkpt lat="45.7294792" lon="6.7342228">
        <ele>2388.94</ele>
        <time>2019-09-05T07:20:37Z</time>
      </trkpt>
      <trkpt lat="45.7295399" lon="6.7343286">
        <ele>2388.45</ele>
        <time>2019-09-05T07:20:53Z</time>
      </trkpt>
      <trkpt lat="45.7296133" lon="6.7344947">
        <ele>2386.92</ele>
        <time>2019-09-05T07:20:59Z</time>
      </trkpt>
      <trkpt lat="45.7296579" lon="6.7346439">
        <ele>2384.96</ele>
        <time>2019-09-05T07:21:03Z</time>
      </trkpt>
      <trkpt lat="45.7297004" lon="6.7348175">
        <ele>2380.65</ele>
        <time>2019-09-05T07:21:07Z</time>
      </trkpt>
      <trkpt lat="45.7297300" lon="6.7349607">
        <ele>2377.60</ele>
        <time>2019-09-05T07:21:11Z</time>
      </trkpt>
      <trkpt lat="45.7297786" lon="6.7350888">
        <ele>2376.63</ele>
        <time>2019-09-05T07:21:15Z</time>
      </trkpt>
      <trkpt lat="45.7298240" lon="6.7352028">
        <ele>2374.02</ele>
        <time>2019-09-05T07:21:19Z</time>
      </trkpt>
      <trkpt lat="45.7299010" lon="6.7353026">
        <ele>2385.23</ele>
        <time>2019-09-05T07:21:54Z</time>
      </trkpt>
      <trkpt lat="45.7299776" lon="6.7354067">
        <ele>2385.50</ele>
        <time>2019-09-05T07:21:58Z</time>
      </trkpt>
      <trkpt lat="45.7300129" lon="6.7355373">
        <ele>2387.64</ele>
        <time>2019-09-05T07:22:37Z</time>
      </trkpt>
      <trkpt lat="45.7300663" lon="6.7356553">
        <ele>2384.16</ele>
        <time>2019-09-05T07:22:51Z</time>
      </trkpt>
      <trkpt lat="45.7300813" lon="6.7357929">
        <ele>2380.47</ele>
        <time>2019-09-05T07:23:09Z</time>
      </trkpt>
      <trkpt lat="45.7300264" lon="6.7358976">
        <ele>2377.05</ele>
        <time>2019-09-05T07:23:25Z</time>
      </trkpt>
      <trkpt lat="45.7299891" lon="6.7360253">
        <ele>2372.37</ele>
        <time>2019-09-05T07:23:39Z</time>
      </trkpt>
      <trkpt lat="45.7300009" lon="6.7361590">
        <ele>2367.12</ele>
        <time>2019-09-05T07:23:51Z</time>
      </trkpt>
      <trkpt lat="45.7300385" lon="6.7362849">
        <ele>2358.13</ele>
        <time>2019-09-05T07:24:05Z</time>
      </trkpt>
      <trkpt lat="45.7300388" lon="6.7364375">
        <ele>2354.69</ele>
        <time>2019-09-05T07:24:21Z</time>
      </trkpt>
      <trkpt lat="45.7300432" lon="6.7365705">
        <ele>2351.87</ele>
        <time>2019-09-05T07:24:29Z</time>
      </trkpt>
      <trkpt lat="45.7299870" lon="6.7366778">
        <ele>2353.32</ele>
        <time>2019-09-05T07:25:54Z</time>
      </trkpt>
      <trkpt lat="45.7299418" lon="6.7368036">
        <ele>2343.93</ele>
        <time>2019-09-05T07:26:25Z</time>
      </trkpt>
      <trkpt lat="45.7298883" lon="6.7369174">
        <ele>2333.24</ele>
        <time>2019-09-05T07:26:59Z</time>
      </trkpt>
      <trkpt lat="45.7298108" lon="6.7369985">
        <ele>2329.03</ele>
        <time>2019-09-05T07:27:15Z</time>
      </trkpt>
      <trkpt lat="45.7297675" lon="6.7371142">
        <ele>2320.68</ele>
        <time>2019-09-05T07:27:35Z</time>
      </trkpt>
      <trkpt lat="45.7296782" lon="6.7371773">
        <ele>2319.42</ele>
        <time>2019-09-05T07:27:47Z</time>
      </trkpt>
      <trkpt lat="45.7296776" lon="6.7373187">
        <ele>2312.95</ele>
        <time>2019-09-05T07:27:59Z</time>
      </trkpt>
      <trkpt lat="45.7296016" lon="6.7374280">
        <ele>2310.71</ele>
        <time>2019-09-05T07:28:09Z</time>
      </trkpt>
      <trkpt lat="45.7295685" lon="6.7375636">
        <ele>2308.35</ele>
        <time>2019-09-05T07:28:17Z</time>
      </trkpt>
      <trkpt lat="45.7296135" lon="6.7376962">
        <ele>2304.59</ele>
        <time>2019-09-05T07:28:29Z</time>
      </trkpt>
      <trkpt lat="45.7296263" lon="6.7378282">
        <ele>2299.39</ele>
        <time>2019-09-05T07:28:49Z</time>
      </trkpt>
      <trkpt lat="45.7297127" lon="6.7378823">
        <ele>2293.89</ele>
        <time>2019-09-05T07:29:09Z</time>
      </trkpt>
      <trkpt lat="45.7297551" lon="6.7380089">
        <ele>2291.62</ele>
        <time>2019-09-05T07:29:29Z</time>
      </trkpt>
      <trkpt lat="45.7297464" lon="6.7381455">
        <ele>2289.56</ele>
        <time>2019-09-05T07:29:47Z</time>
      </trkpt>
      <trkpt lat="45.7298268" lon="6.7382507">
        <ele>2286.63</ele>
        <time>2019-09-05T07:29:57Z</time>
      </trkpt>
      <trkpt lat="45.7299116" lon="6.7383114">
        <ele>2285.62</ele>
        <time>2019-09-05T07:30:09Z</time>
      </trkpt>
      <trkpt lat="45.7300137" lon="6.7383269">
        <ele>2284.63</ele>
        <time>2019-09-05T07:30:29Z</time>
      </trkpt>
      <trkpt lat="45.7300923" lon="6.7384044">
        <ele>2280.95</ele>
        <time>2019-09-05T07:30:39Z</time>
      </trkpt>
      <trkpt lat="45.7301034" lon="6.7385327">
        <ele>2274.44</ele>
        <time>2019-09-05T07:30:49Z</time>
      </trkpt>
      <trkpt lat="45.7301626" lon="6.7386419">
        <ele>2263.60</ele>
        <time>2019-09-05T07:31:11Z</time>
      </trkpt>
      <trkpt lat="45.7301406" lon="6.7387991">
        <ele>2262.75</ele>
        <time>2019-09-05T07:31:19Z</time>
      </trkpt>
      <trkpt lat="45.7302253" lon="6.7387506">
        <ele>2260.57</ele>
        <time>2019-09-05T07:31:29Z</time>
      </trkpt>
      <trkpt lat="45.7303157" lon="6.7387500">
        <ele>2260.86</ele>
        <time>2019-09-05T07:31:43Z</time>
      </trkpt>
      <trkpt lat="45.7304161" lon="6.7386848">
        <ele>2260.90</ele>
        <time>2019-09-05T07:32:16Z</time>
      </trkpt>
      <trkpt lat="45.7305026" lon="6.7386458">
        <ele>2257.04</ele>
        <time>2019-09-05T07:32:24Z</time>
      </trkpt>
      <trkpt lat="45.7305364" lon="6.7388206">
        <ele>2257.90</ele>
        <time>2019-09-05T07:33:07Z</time>
      </trkpt>
      <trkpt lat="45.7305984" lon="6.7389250">
        <ele>2250.92</ele>
        <time>2019-09-05T07:33:37Z</time>
      </trkpt>
      <trkpt lat="45.7306651" lon="6.7388058">
        <ele>2250.62</ele>
        <time>2019-09-05T07:33:45Z</time>
      </trkpt>
      <trkpt lat="45.7307276" lon="6.7386671">
        <ele>2250.51</ele>
        <time>2019-09-05T07:33:53Z</time>
      </trkpt>
      <trkpt lat="45.7308384" lon="6.7386561">
        <ele>2252.52</ele>
        <time>2019-09-05T07:34:03Z</time>
      </trkpt>
      <trkpt lat="45.7309443" lon="6.7386933">
        <ele>2254.01</ele>
        <time>2019-09-05T07:34:13Z</time>
      </trkpt>
      <trkpt lat="45.7310266" lon="6.7387490">
        <ele>2257.19</ele>
        <time>2019-09-05T07:34:21Z</time>
      </trkpt>
      <trkpt lat="45.7311038" lon="6.7388338">
        <ele>2256.83</ele>
        <time>2019-09-05T07:34:29Z</time>
      </trkpt>
      <trkpt lat="45.7311702" lon="6.7389659">
        <ele>2255.56</ele>
        <time>2019-09-05T07:34:37Z</time>
      </trkpt>
      <trkpt lat="45.7312608" lon="6.7390592">
        <ele>2255.32</ele>
        <time>2019-09-05T07:34:45Z</time>
      </trkpt>
      <trkpt lat="45.7313680" lon="6.7390345">
        <ele>2255.53</ele>
        <time>2019-09-05T07:34:53Z</time>
      </trkpt>
      <trkpt lat="45.7314663" lon="6.7389678">
        <ele>2255.24</ele>
        <time>2019-09-05T07:35:01Z</time>
      </trkpt>
      <trkpt lat="45.7315539" lon="6.7390467">
        <ele>2255.51</ele>
        <time>2019-09-05T07:35:11Z</time>
      </trkpt>
      <trkpt lat="45.7316347" lon="6.7391036">
        <ele>2256.44</ele>
        <time>2019-09-05T07:35:19Z</time>
      </trkpt>
      <trkpt lat="45.7317204" lon="6.7392044">
        <ele>2256.26</ele>
        <time>2019-09-05T07:35:27Z</time>
      </trkpt>
      <trkpt lat="45.7318017" lon="6.7392865">
        <ele>2256.53</ele>
        <time>2019-09-05T07:35:35Z</time>
      </trkpt>
      <trkpt lat="45.7319008" lon="6.7393213">
        <ele>2255.62</ele>
        <time>2019-09-05T07:35:43Z</time>
      </trkpt>
      <trkpt lat="45.7319868" lon="6.7394264">
        <ele>2255.53</ele>
        <time>2019-09-05T07:35:51Z</time>
      </trkpt>
      <trkpt lat="45.7320571" lon="6.7395319">
        <ele>2256.50</ele>
        <time>2019-09-05T07:35:59Z</time>
      </trkpt>
      <trkpt lat="45.7320972" lon="6.7396485">
        <ele>2257.23</ele>
        <time>2019-09-05T07:36:07Z</time>
      </trkpt>
      <trkpt lat="45.7321734" lon="6.7397478">
        <ele>2263.17</ele>
        <time>2019-09-05T07:36:19Z</time>
      </trkpt>
      <trkpt lat="45.7321962" lon="6.7398937">
        <ele>2260.43</ele>
        <time>2019-09-05T07:36:33Z</time>
      </trkpt>
      <trkpt lat="45.7321755" lon="6.7400360">
        <ele>2258.11</ele>
        <time>2019-09-05T07:36:43Z</time>
      </trkpt>
      <trkpt lat="45.7322094" lon="6.7401742">
        <ele>2252.00</ele>
        <time>2019-09-05T07:36:57Z</time>
      </trkpt>
      <trkpt lat="45.7321737" lon="6.7403084">
        <ele>2249.97</ele>
        <time>2019-09-05T07:37:09Z</time>
      </trkpt>
      <trkpt lat="45.7321675" lon="6.7404419">
        <ele>2246.45</ele>
        <time>2019-09-05T07:37:17Z</time>
      </trkpt>
      <trkpt lat="45.7321816" lon="6.7405768">
        <ele>2241.96</ele>
        <time>2019-09-05T07:37:31Z</time>
      </trkpt>
      <trkpt lat="45.7322506" lon="6.7406827">
        <ele>2241.21</ele>
        <time>2019-09-05T07:37:41Z</time>
      </trkpt>
      <trkpt lat="45.7323118" lon="6.7407853">
        <ele>2241.49</ele>
        <time>2019-09-05T07:37:51Z</time>
      </trkpt>
      <trkpt lat="45.7324098" lon="6.7407768">
        <ele>2235.10</ele>
        <time>2019-09-05T07:38:09Z</time>
      </trkpt>
      <trkpt lat="45.7324725" lon="6.7406763">
        <ele>2228.35</ele>
        <time>2019-09-05T07:38:29Z</time>
      </trkpt>
      <trkpt lat="45.7325698" lon="6.7406740">
        <ele>2226.62</ele>
        <time>2019-09-05T07:38:47Z</time>
      </trkpt>
      <trkpt lat="45.7326674" lon="6.7406335">
        <ele>2223.53</ele>
        <time>2019-09-05T07:39:03Z</time>
      </trkpt>
      <trkpt lat="45.7327561" lon="6.7407203">
        <ele>2220.63</ele>
        <time>2019-09-05T07:39:15Z</time>
      </trkpt>
      <trkpt lat="45.7328387" lon="6.7407790">
        <ele>2217.81</ele>
        <time>2019-09-05T07:39:27Z</time>
      </trkpt>
      <trkpt lat="45.7329342" lon="6.7407487">
        <ele>2205.32</ele>
        <time>2019-09-05T07:39:57Z</time>
      </trkpt>
      <trkpt lat="45.7329976" lon="6.7406394">
        <ele>2206.53</ele>
        <time>2019-09-05T07:40:07Z</time>
      </trkpt>
      <trkpt lat="45.7330940" lon="6.7406697">
        <ele>2205.62</ele>
        <time>2019-09-05T07:40:19Z</time>
      </trkpt>
      <trkpt lat="45.7331850" lon="6.7407012">
        <ele>2205.51</ele>
        <time>2019-09-05T07:40:33Z</time>
      </trkpt>
      <trkpt lat="45.7332797" lon="6.7407225">
        <ele>2203.53</ele>
        <time>2019-09-05T07:40:47Z</time>
      </trkpt>
      <trkpt lat="45.7333737" lon="6.7407048">
        <ele>2202.56</ele>
        <time>2019-09-05T07:40:57Z</time>
      </trkpt>
      <trkpt lat="45.7334707" lon="6.7407572">
        <ele>2200.83</ele>
        <time>2019-09-05T07:41:11Z</time>
      </trkpt>
      <trkpt lat="45.7335646" lon="6.7407837">
        <ele>2200.47</ele>
        <time>2019-09-05T07:41:25Z</time>
      </trkpt>
      <trkpt lat="45.7336622" lon="6.7408174">
        <ele>2199.53</ele>
        <time>2019-09-05T07:41:41Z</time>
      </trkpt>
      <trkpt lat="45.7336736" lon="6.7409497">
        <ele>2192.83</ele>
        <time>2019-09-05T07:42:15Z</time>
      </trkpt>
      <trkpt lat="45.7336400" lon="6.7410694">
        <ele>2189.56</ele>
        <time>2019-09-05T07:42:37Z</time>
      </trkpt>
      <trkpt lat="45.7335803" lon="6.7411672">
        <ele>2182.27</ele>
        <time>2019-09-05T07:45:05Z</time>
      </trkpt>
      <trkpt lat="45.7335077" lon="6.7412452">
        <ele>2176.32</ele>
        <time>2019-09-05T07:45:23Z</time>
      </trkpt>
      <trkpt lat="45.7334666" lon="6.7413626">
        <ele>2171.32</ele>
        <time>2019-09-05T07:45:37Z</time>
      </trkpt>
      <trkpt lat="45.7334265" lon="6.7414996">
        <ele>2171.62</ele>
        <time>2019-09-05T07:45:53Z</time>
      </trkpt>
      <trkpt lat="45.7334271" lon="6.7416301">
        <ele>2169.62</ele>
        <time>2019-09-05T07:46:05Z</time>
      </trkpt>
      <trkpt lat="45.7333971" lon="6.7417606">
        <ele>2164.22</ele>
        <time>2019-09-05T07:46:19Z</time>
      </trkpt>
      <trkpt lat="45.7334060" lon="6.7418909">
        <ele>2165.78</ele>
        <time>2019-09-05T07:46:29Z</time>
      </trkpt>
      <trkpt lat="45.7333105" lon="6.7419327">
        <ele>2159.57</ele>
        <time>2019-09-05T07:46:43Z</time>
      </trkpt>
      <trkpt lat="45.7333041" lon="6.7420689">
        <ele>2157.24</ele>
        <time>2019-09-05T07:46:59Z</time>
      </trkpt>
      <trkpt lat="45.7333183" lon="6.7421979">
        <ele>2155.33</ele>
        <time>2019-09-05T07:47:13Z</time>
      </trkpt>
      <trkpt lat="45.7333237" lon="6.7423360">
        <ele>2149.01</ele>
        <time>2019-09-05T07:47:29Z</time>
      </trkpt>
      <trkpt lat="45.7332923" lon="6.7424709">
        <ele>2147.06</ele>
        <time>2019-09-05T07:47:43Z</time>
      </trkpt>
      <trkpt lat="45.7332747" lon="6.7426066">
        <ele>2141.97</ele>
        <time>2019-09-05T07:47:53Z</time>
      </trkpt>
      <trkpt lat="45.7332472" lon="6.7427310">
        <ele>2138.13</ele>
        <time>2019-09-05T07:48:03Z</time>
      </trkpt>
      <trkpt lat="45.7331705" lon="6.7428194">
        <ele>2138.68</ele>
        <time>2019-09-05T07:48:15Z</time>
      </trkpt>
      <trkpt lat="45.7331274" lon="6.7429431">
        <ele>2135.90</ele>
        <time>2019-09-05T07:48:27Z</time>
      </trkpt>
      <trkpt lat="45.7331086" lon="6.7430763">
        <ele>2132.60</ele>
        <time>2019-09-05T07:48:37Z</time>
      </trkpt>
      <trkpt lat="45.7331016" lon="6.7432170">
        <ele>2132.85</ele>
        <time>2019-09-05T07:48:49Z</time>
      </trkpt>
      <trkpt lat="45.7331044" lon="6.7433566">
        <ele>2128.96</ele>
        <time>2019-09-05T07:48:59Z</time>
      </trkpt>
      <trkpt lat="45.7330825" lon="6.7434920">
        <ele>2120.05</ele>
        <time>2019-09-05T07:49:13Z</time>
      </trkpt>
      <trkpt lat="45.7330060" lon="6.7435694">
        <ele>2114.15</ele>
        <time>2019-09-05T07:49:29Z</time>
      </trkpt>
      <trkpt lat="45.7330244" lon="6.7436978">
        <ele>2104.49</ele>
        <time>2019-09-05T07:55:13Z</time>
      </trkpt>
      <trkpt lat="45.7329882" lon="6.7438470">
        <ele>2108.30</ele>
        <time>2019-09-05T07:55:27Z</time>
      </trkpt>
      <trkpt lat="45.7329581" lon="6.7439772">
        <ele>2106.39</ele>
        <time>2019-09-05T07:55:35Z</time>
      </trkpt>
      <trkpt lat="45.7329454" lon="6.7441230">
        <ele>2106.67</ele>
        <time>2019-09-05T07:55:51Z</time>
      </trkpt>
      <trkpt lat="45.7329391" lon="6.7442549">
        <ele>2102.68</ele>
        <time>2019-09-05T07:56:01Z</time>
      </trkpt>
      <trkpt lat="45.7330183" lon="6.7443367">
        <ele>2093.00</ele>
        <time>2019-09-05T07:56:17Z</time>
      </trkpt>
      <trkpt lat="45.7329870" lon="6.7444905">
        <ele>2087.63</ele>
        <time>2019-09-05T07:56:29Z</time>
      </trkpt>
      <trkpt lat="45.7329510" lon="6.7446321">
        <ele>2087.51</ele>
        <time>2019-09-05T07:56:39Z</time>
      </trkpt>
      <trkpt lat="45.7329573" lon="6.7447861">
        <ele>2080.63</ele>
        <time>2019-09-05T07:56:51Z</time>
      </trkpt>
      <trkpt lat="45.7329269" lon="6.7449079">
        <ele>2080.74</ele>
        <time>2019-09-05T07:57:05Z</time>
      </trkpt>
      <trkpt lat="45.7329178" lon="6.7450377">
        <ele>2080.03</ele>
        <time>2019-09-05T07:57:17Z</time>
      </trkpt>
      <trkpt lat="45.7328936" lon="6.7451863">
        <ele>2073.25</ele>
        <time>2019-09-05T07:57:35Z</time>
      </trkpt>
      <trkpt lat="45.7328884" lon="6.7453279">
        <ele>2071.62</ele>
        <time>2019-09-05T07:57:45Z</time>
      </trkpt>
      <trkpt lat="45.7328725" lon="6.7454641">
        <ele>2071.45</ele>
        <time>2019-09-05T07:57:55Z</time>
      </trkpt>
      <trkpt lat="45.7328012" lon="6.7455604">
        <ele>2067.96</ele>
        <time>2019-09-05T07:58:05Z</time>
      </trkpt>
      <trkpt lat="45.7327205" lon="6.7456443">
        <ele>2066.83</ele>
        <time>2019-09-05T07:58:15Z</time>
      </trkpt>
      <trkpt lat="45.7326507" lon="6.7457587">
        <ele>2063.65</ele>
        <time>2019-09-05T07:58:27Z</time>
      </trkpt>
      <trkpt lat="45.7326097" lon="6.7459026">
        <ele>2059.84</ele>
        <time>2019-09-05T07:58:45Z</time>
      </trkpt>
      <trkpt lat="45.7325633" lon="6.7460370">
        <ele>2057.66</ele>
        <time>2019-09-05T07:58:51Z</time>
      </trkpt>
      <trkpt lat="45.7325238" lon="6.7461564">
        <ele>2055.63</ele>
        <time>2019-09-05T07:58:59Z</time>
      </trkpt>
      <trkpt lat="45.7325079" lon="6.7463092">
        <ele>2053.55</ele>
        <time>2019-09-05T07:59:09Z</time>
      </trkpt>
      <trkpt lat="45.7324609" lon="6.7464531">
        <ele>2050.92</ele>
        <time>2019-09-05T07:59:19Z</time>
      </trkpt>
      <trkpt lat="45.7324208" lon="6.7465810">
        <ele>2048.92</ele>
        <time>2019-09-05T07:59:27Z</time>
      </trkpt>
      <trkpt lat="45.7323848" lon="6.7467083">
        <ele>2046.63</ele>
        <time>2019-09-05T07:59:35Z</time>
      </trkpt>
      <trkpt lat="45.7323883" lon="6.7468394">
        <ele>2045.56</ele>
        <time>2019-09-05T07:59:43Z</time>
      </trkpt>
      <trkpt lat="45.7324040" lon="6.7469827">
        <ele>2043.84</ele>
        <time>2019-09-05T07:59:53Z</time>
      </trkpt>
      <trkpt lat="45.7324306" lon="6.7471076">
        <ele>2043.33</ele>
        <time>2019-09-05T08:00:03Z</time>
      </trkpt>
      <trkpt lat="45.7324055" lon="6.7472446">
        <ele>2040.84</ele>
        <time>2019-09-05T08:00:13Z</time>
      </trkpt>
      <trkpt lat="45.7324065" lon="6.7473760">
        <ele>2038.54</ele>
        <time>2019-09-05T08:00:23Z</time>
      </trkpt>
      <trkpt lat="45.7323800" lon="6.7475030">
        <ele>2035.22</ele>
        <time>2019-09-05T08:00:33Z</time>
      </trkpt>
      <trkpt lat="45.7323963" lon="6.7476527">
        <ele>2033.66</ele>
        <time>2019-09-05T08:00:43Z</time>
      </trkpt>
      <trkpt lat="45.7324047" lon="6.7478002">
        <ele>2027.02</ele>
        <time>2019-09-05T08:01:05Z</time>
      </trkpt>
      <trkpt lat="45.7323169" lon="6.7477200">
        <ele>2029.92</ele>
        <time>2019-09-05T08:02:32Z</time>
      </trkpt>
      <trkpt lat="45.7323144" lon="6.7478731">
        <ele>2028.85</ele>
        <time>2019-09-05T08:02:48Z</time>
      </trkpt>
      <trkpt lat="45.7323937" lon="6.7479439">
        <ele>2029.98</ele>
        <time>2019-09-05T08:03:02Z</time>
      </trkpt>
      <trkpt lat="45.7324167" lon="6.7480819">
        <ele>2020.73</ele>
        <time>2019-09-05T08:03:10Z</time>
      </trkpt>
      <trkpt lat="45.7324346" lon="6.7482228">
        <ele>2015.92</ele>
        <time>2019-09-05T08:03:24Z</time>
      </trkpt>
      <trkpt lat="45.7323909" lon="6.7483456">
        <ele>2006.68</ele>
        <time>2019-09-05T08:03:38Z</time>
      </trkpt>
      <trkpt lat="45.7323070" lon="6.7484000">
        <ele>2000.36</ele>
        <time>2019-09-05T08:03:46Z</time>
      </trkpt>
      <trkpt lat="45.7322128" lon="6.7483812">
        <ele>1999.89</ele>
        <time>2019-09-05T08:03:52Z</time>
      </trkpt>
      <trkpt lat="45.7321398" lon="6.7484913">
        <ele>1989.12</ele>
        <time>2019-09-05T08:04:02Z</time>
      </trkpt>
      <trkpt lat="45.7321188" lon="6.7486292">
        <ele>1989.80</ele>
        <time>2019-09-05T08:04:12Z</time>
      </trkpt>
      <trkpt lat="45.7320261" lon="6.7487026">
        <ele>1989.59</ele>
        <time>2019-09-05T08:04:22Z</time>
      </trkpt>
      <trkpt lat="45.7319517" lon="6.7487900">
        <ele>1988.87</ele>
        <time>2019-09-05T08:04:32Z</time>
      </trkpt>
      <trkpt lat="45.7318615" lon="6.7488005">
        <ele>1987.56</ele>
        <time>2019-09-05T08:04:40Z</time>
      </trkpt>
      <trkpt lat="45.7317513" lon="6.7488014">
        <ele>1987.24</ele>
        <time>2019-09-05T08:04:48Z</time>
      </trkpt>
      <trkpt lat="45.7316703" lon="6.7488679">
        <ele>1986.62</ele>
        <time>2019-09-05T08:04:56Z</time>
      </trkpt>
      <trkpt lat="45.7315921" lon="6.7489464">
        <ele>1985.56</ele>
        <time>2019-09-05T08:05:04Z</time>
      </trkpt>
      <trkpt lat="45.7315816" lon="6.7491068">
        <ele>1985.26</ele>
        <time>2019-09-05T08:05:12Z</time>
      </trkpt>
      <trkpt lat="45.7315013" lon="6.7492002">
        <ele>1984.53</ele>
        <time>2019-09-05T08:05:24Z</time>
      </trkpt>
      <trkpt lat="45.7313873" lon="6.7492251">
        <ele>1984.55</ele>
        <time>2019-09-05T08:05:32Z</time>
      </trkpt>
      <trkpt lat="45.7312776" lon="6.7492689">
        <ele>1982.86</ele>
        <time>2019-09-05T08:05:40Z</time>
      </trkpt>
      <trkpt lat="45.7312034" lon="6.7493428">
        <ele>1983.23</ele>
        <time>2019-09-05T08:05:48Z</time>
      </trkpt>
      <trkpt lat="45.7311619" lon="6.7494679">
        <ele>1980.71</ele>
        <time>2019-09-05T08:06:00Z</time>
      </trkpt>
      <trkpt lat="45.7311514" lon="6.7496022">
        <ele>1977.69</ele>
        <time>2019-09-05T08:06:08Z</time>
      </trkpt>
      <trkpt lat="45.7310777" lon="6.7496975">
        <ele>1974.45</ele>
        <time>2019-09-05T08:06:18Z</time>
      </trkpt>
      <trkpt lat="45.7310255" lon="6.7498262">
        <ele>1975.59</ele>
        <time>2019-09-05T08:06:28Z</time>
      </trkpt>
      <trkpt lat="45.7309744" lon="6.7499408">
        <ele>1976.33</ele>
        <time>2019-09-05T08:06:36Z</time>
      </trkpt>
      <trkpt lat="45.7309434" lon="6.7500880">
        <ele>1977.15</ele>
        <time>2019-09-05T08:06:46Z</time>
      </trkpt>
      <trkpt lat="45.7308728" lon="6.7501900">
        <ele>1978.01</ele>
        <time>2019-09-05T08:06:54Z</time>
      </trkpt>
      <trkpt lat="45.7307962" lon="6.7502791">
        <ele>1977.25</ele>
        <time>2019-09-05T08:07:02Z</time>
      </trkpt>
      <trkpt lat="45.7307630" lon="6.7504132">
        <ele>1978.01</ele>
        <time>2019-09-05T08:07:12Z</time>
      </trkpt>
      <trkpt lat="45.7306950" lon="6.7505427">
        <ele>1975.05</ele>
        <time>2019-09-05T08:07:22Z</time>
      </trkpt>
      <trkpt lat="45.7306308" lon="6.7506531">
        <ele>1975.72</ele>
        <time>2019-09-05T08:07:32Z</time>
      </trkpt>
      <trkpt lat="45.7305699" lon="6.7507607">
        <ele>1976.01</ele>
        <time>2019-09-05T08:07:42Z</time>
      </trkpt>
      <trkpt lat="45.7305176" lon="6.7508908">
        <ele>1976.02</ele>
        <time>2019-09-05T08:07:50Z</time>
      </trkpt>
      <trkpt lat="45.7304977" lon="6.7510258">
        <ele>1976.94</ele>
        <time>2019-09-05T08:07:58Z</time>
      </trkpt>
      <trkpt lat="45.7304964" lon="6.7511822">
        <ele>1975.19</ele>
        <time>2019-09-05T08:08:07Z</time>
      </trkpt>
      <trkpt lat="45.7304335" lon="6.7513250">
        <ele>1972.71</ele>
        <time>2019-09-05T08:08:16Z</time>
      </trkpt>
      <trkpt lat="45.7304059" lon="6.7514697">
        <ele>1975.40</ele>
        <time>2019-09-05T08:08:24Z</time>
      </trkpt>
      <trkpt lat="45.7303574" lon="6.7515844">
        <ele>1974.19</ele>
        <time>2019-09-05T08:08:33Z</time>
      </trkpt>
      <trkpt lat="45.7302809" lon="6.7517017">
        <ele>1971.11</ele>
        <time>2019-09-05T08:08:43Z</time>
      </trkpt>
      <trkpt lat="45.7302340" lon="6.7518395">
        <ele>1971.93</ele>
        <time>2019-09-05T08:08:51Z</time>
      </trkpt>
      <trkpt lat="45.7302319" lon="6.7519890">
        <ele>1971.02</ele>
        <time>2019-09-05T08:08:59Z</time>
      </trkpt>
      <trkpt lat="45.7301565" lon="6.7520949">
        <ele>1971.31</ele>
        <time>2019-09-05T08:09:07Z</time>
      </trkpt>
      <trkpt lat="45.7301139" lon="6.7522201">
        <ele>1972.71</ele>
        <time>2019-09-05T08:09:17Z</time>
      </trkpt>
      <trkpt lat="45.7300486" lon="6.7523244">
        <ele>1973.01</ele>
        <time>2019-09-05T08:09:27Z</time>
      </trkpt>
      <trkpt lat="45.7300088" lon="6.7524503">
        <ele>1974.22</ele>
        <time>2019-09-05T08:09:35Z</time>
      </trkpt>
      <trkpt lat="45.7299513" lon="6.7525914">
        <ele>1974.02</ele>
        <time>2019-09-05T08:09:45Z</time>
      </trkpt>
      <trkpt lat="45.7299081" lon="6.7527219">
        <ele>1973.32</ele>
        <time>2019-09-05T08:09:53Z</time>
      </trkpt>
      <trkpt lat="45.7298740" lon="6.7528835">
        <ele>1974.71</ele>
        <time>2019-09-05T08:10:03Z</time>
      </trkpt>
      <trkpt lat="45.7298837" lon="6.7530384">
        <ele>1974.04</ele>
        <time>2019-09-05T08:10:11Z</time>
      </trkpt>
      <trkpt lat="45.7298453" lon="6.7531695">
        <ele>1973.02</ele>
        <time>2019-09-05T08:10:21Z</time>
      </trkpt>
      <trkpt lat="45.7298183" lon="6.7533056">
        <ele>1974.01</ele>
        <time>2019-09-05T08:10:31Z</time>
      </trkpt>
      <trkpt lat="45.7297971" lon="6.7534325">
        <ele>1975.92</ele>
        <time>2019-09-05T08:10:39Z</time>
      </trkpt>
      <trkpt lat="45.7297530" lon="6.7535652">
        <ele>1976.01</ele>
        <time>2019-09-05T08:10:49Z</time>
      </trkpt>
      <trkpt lat="45.7297036" lon="6.7536921">
        <ele>1976.01</ele>
        <time>2019-09-05T08:11:01Z</time>
      </trkpt>
      <trkpt lat="45.7297292" lon="6.7538509">
        <ele>1977.01</ele>
        <time>2019-09-05T08:11:09Z</time>
      </trkpt>
      <trkpt lat="45.7297298" lon="6.7539895">
        <ele>1976.04</ele>
        <time>2019-09-05T08:11:17Z</time>
      </trkpt>
      <trkpt lat="45.7296865" lon="6.7541323">
        <ele>1975.04</ele>
        <time>2019-09-05T08:11:27Z</time>
      </trkpt>
      <trkpt lat="45.7296360" lon="6.7542418">
        <ele>1975.02</ele>
        <time>2019-09-05T08:11:35Z</time>
      </trkpt>
      <trkpt lat="45.7295754" lon="6.7543383">
        <ele>1975.02</ele>
        <time>2019-09-05T08:11:43Z</time>
      </trkpt>
      <trkpt lat="45.7295393" lon="6.7544881">
        <ele>1975.71</ele>
        <time>2019-09-05T08:11:53Z</time>
      </trkpt>
      <trkpt lat="45.7295650" lon="6.7546302">
        <ele>1976.01</ele>
        <time>2019-09-05T08:12:01Z</time>
      </trkpt>
      <trkpt lat="45.7295910" lon="6.7547650">
        <ele>1976.99</ele>
        <time>2019-09-05T08:12:09Z</time>
      </trkpt>
      <trkpt lat="45.7296225" lon="6.7548902">
        <ele>1977.92</ele>
        <time>2019-09-05T08:12:17Z</time>
      </trkpt>
      <trkpt lat="45.7296863" lon="6.7550174">
        <ele>1978.01</ele>
        <time>2019-09-05T08:12:27Z</time>
      </trkpt>
      <trkpt lat="45.7297511" lon="6.7551340">
        <ele>1978.94</ele>
        <time>2019-09-05T08:12:35Z</time>
      </trkpt>
      <trkpt lat="45.7298012" lon="6.7552550">
        <ele>1979.01</ele>
        <time>2019-09-05T08:12:43Z</time>
      </trkpt>
      <trkpt lat="45.7298301" lon="6.7553874">
        <ele>1979.02</ele>
        <time>2019-09-05T08:12:51Z</time>
      </trkpt>
      <trkpt lat="45.7298598" lon="6.7555419">
        <ele>1979.31</ele>
        <time>2019-09-05T08:13:01Z</time>
      </trkpt>
      <trkpt lat="45.7298239" lon="6.7556627">
        <ele>1979.04</ele>
        <time>2019-09-05T08:13:09Z</time>
      </trkpt>
      <trkpt lat="45.7297352" lon="6.7557578">
        <ele>1979.08</ele>
        <time>2019-09-05T08:13:19Z</time>
      </trkpt>
      <trkpt lat="45.7296869" lon="6.7558919">
        <ele>1979.02</ele>
        <time>2019-09-05T08:13:27Z</time>
      </trkpt>
      <trkpt lat="45.7296389" lon="6.7560082">
        <ele>1978.04</ele>
        <time>2019-09-05T08:13:37Z</time>
      </trkpt>
      <trkpt lat="45.7295797" lon="6.7561380">
        <ele>1977.11</ele>
        <time>2019-09-05T08:13:47Z</time>
      </trkpt>
      <trkpt lat="45.7295698" lon="6.7562851">
        <ele>1977.02</ele>
        <time>2019-09-05T08:13:55Z</time>
      </trkpt>
      <trkpt lat="45.7295740" lon="6.7564272">
        <ele>1976.10</ele>
        <time>2019-09-05T08:14:05Z</time>
      </trkpt>
      <trkpt lat="45.7294808" lon="6.7564040">
        <ele>1972.36</ele>
        <time>2019-09-05T08:14:25Z</time>
      </trkpt>
      <trkpt lat="45.7294385" lon="6.7565239">
        <ele>1972.22</ele>
        <time>2019-09-05T08:14:35Z</time>
      </trkpt>
      <trkpt lat="45.7293794" lon="6.7566373">
        <ele>1970.11</ele>
        <time>2019-09-05T08:14:47Z</time>
      </trkpt>
      <trkpt lat="45.7293036" lon="6.7567097">
        <ele>1966.35</ele>
        <time>2019-09-05T08:14:59Z</time>
      </trkpt>
      <trkpt lat="45.7292722" lon="6.7568432">
        <ele>1964.32</ele>
        <time>2019-09-05T08:15:11Z</time>
      </trkpt>
      <trkpt lat="45.7292524" lon="6.7569868">
        <ele>1961.35</ele>
        <time>2019-09-05T08:15:21Z</time>
      </trkpt>
      <trkpt lat="45.7292267" lon="6.7571227">
        <ele>1959.32</ele>
        <time>2019-09-05T08:15:33Z</time>
      </trkpt>
      <trkpt lat="45.7292403" lon="6.7572536">
        <ele>1956.33</ele>
        <time>2019-09-05T08:15:43Z</time>
      </trkpt>
      <trkpt lat="45.7292625" lon="6.7573874">
        <ele>1954.32</ele>
        <time>2019-09-05T08:15:53Z</time>
      </trkpt>
      <trkpt lat="45.7292669" lon="6.7575198">
        <ele>1951.32</ele>
        <time>2019-09-05T08:16:05Z</time>
      </trkpt>
      <trkpt lat="45.7292272" lon="6.7576367">
        <ele>1949.12</ele>
        <time>2019-09-05T08:16:13Z</time>
      </trkpt>
      <trkpt lat="45.7291910" lon="6.7577680">
        <ele>1948.02</ele>
        <time>2019-09-05T08:16:23Z</time>
      </trkpt>
      <trkpt lat="45.7291558" lon="6.7578926">
        <ele>1945.33</ele>
        <time>2019-09-05T08:16:33Z</time>
      </trkpt>
      <trkpt lat="45.7291207" lon="6.7580171">
        <ele>1943.41</ele>
        <time>2019-09-05T08:16:41Z</time>
      </trkpt>
      <trkpt lat="45.7291055" lon="6.7581710">
        <ele>1941.11</ele>
        <time>2019-09-05T08:16:51Z</time>
      </trkpt>
      <trkpt lat="45.7290849" lon="6.7583109">
        <ele>1939.34</ele>
        <time>2019-09-05T08:16:59Z</time>
      </trkpt>
      <trkpt lat="45.7290389" lon="6.7584533">
        <ele>1938.02</ele>
        <time>2019-09-05T08:17:09Z</time>
      </trkpt>
      <trkpt lat="45.7290195" lon="6.7585834">
        <ele>1935.43</ele>
        <time>2019-09-05T08:17:17Z</time>
      </trkpt>
      <trkpt lat="45.7290210" lon="6.7587513">
        <ele>1933.32</ele>
        <time>2019-09-05T08:17:29Z</time>
      </trkpt>
      <trkpt lat="45.7290288" lon="6.7588875">
        <ele>1933.02</ele>
        <time>2019-09-05T08:17:37Z</time>
      </trkpt>
      <trkpt lat="45.7290245" lon="6.7590354">
        <ele>1931.32</ele>
        <time>2019-09-05T08:17:47Z</time>
      </trkpt>
      <trkpt lat="45.7290366" lon="6.7591904">
        <ele>1930.11</ele>
        <time>2019-09-05T08:17:57Z</time>
      </trkpt>
      <trkpt lat="45.7290360" lon="6.7593419">
        <ele>1927.35</ele>
        <time>2019-09-05T08:18:07Z</time>
      </trkpt>
      <trkpt lat="45.7290652" lon="6.7594812">
        <ele>1924.41</ele>
        <time>2019-09-05T08:18:17Z</time>
      </trkpt>
      <trkpt lat="45.7290668" lon="6.7596226">
        <ele>1924.02</ele>
        <time>2019-09-05T08:18:27Z</time>
      </trkpt>
      <trkpt lat="45.7290685" lon="6.7597743">
        <ele>1921.13</ele>
        <time>2019-09-05T08:18:39Z</time>
      </trkpt>
      <trkpt lat="45.7290640" lon="6.7599413">
        <ele>1919.41</ele>
        <time>2019-09-05T08:18:47Z</time>
      </trkpt>
      <trkpt lat="45.7290332" lon="6.7600995">
        <ele>1917.32</ele>
        <time>2019-09-05T08:18:57Z</time>
      </trkpt>
      <trkpt lat="45.7290100" lon="6.7602385">
        <ele>1916.32</ele>
        <time>2019-09-05T08:19:07Z</time>
      </trkpt>
      <trkpt lat="45.7290071" lon="6.7603800">
        <ele>1915.25</ele>
        <time>2019-09-05T08:19:17Z</time>
      </trkpt>
      <trkpt lat="45.7289706" lon="6.7605154">
        <ele>1914.04</ele>
        <time>2019-09-05T08:19:27Z</time>
      </trkpt>
      <trkpt lat="45.7288905" lon="6.7606103">
        <ele>1911.34</ele>
        <time>2019-09-05T08:19:37Z</time>
      </trkpt>
      <trkpt lat="45.7288027" lon="6.7606684">
        <ele>1910.32</ele>
        <time>2019-09-05T08:19:45Z</time>
      </trkpt>
      <trkpt lat="45.7287013" lon="6.7606979">
        <ele>1908.05</ele>
        <time>2019-09-05T08:19:55Z</time>
      </trkpt>
      <trkpt lat="45.7286288" lon="6.7607899">
        <ele>1906.75</ele>
        <time>2019-09-05T08:20:03Z</time>
      </trkpt>
      <trkpt lat="45.7286584" lon="6.7609381">
        <ele>1905.32</ele>
        <time>2019-09-05T08:20:13Z</time>
      </trkpt>
      <trkpt lat="45.7287079" lon="6.7610662">
        <ele>1905.02</ele>
        <time>2019-09-05T08:20:23Z</time>
      </trkpt>
      <trkpt lat="45.7287705" lon="6.7611833">
        <ele>1905.02</ele>
        <time>2019-09-05T08:20:33Z</time>
      </trkpt>
      <trkpt lat="45.7288505" lon="6.7612742">
        <ele>1905.93</ele>
        <time>2019-09-05T08:20:43Z</time>
      </trkpt>
      <trkpt lat="45.7288835" lon="6.7614257">
        <ele>1905.02</ele>
        <time>2019-09-05T08:20:51Z</time>
      </trkpt>
      <trkpt lat="45.7288769" lon="6.7615741">
        <ele>1905.02</ele>
        <time>2019-09-05T08:20:59Z</time>
      </trkpt>
      <trkpt lat="45.7288402" lon="6.7617201">
        <ele>1905.02</ele>
        <time>2019-09-05T08:21:09Z</time>
      </trkpt>
      <trkpt lat="45.7287878" lon="6.7618343">
        <ele>1906.01</ele>
        <time>2019-09-05T08:21:17Z</time>
      </trkpt>
      <trkpt lat="45.7287397" lon="6.7619767">
        <ele>1905.10</ele>
        <time>2019-09-05T08:21:27Z</time>
      </trkpt>
      <trkpt lat="45.7287128" lon="6.7621029">
        <ele>1904.95</ele>
        <time>2019-09-05T08:21:35Z</time>
      </trkpt>
      <trkpt lat="45.7286990" lon="6.7622524">
        <ele>1903.81</ele>
        <time>2019-09-05T08:21:43Z</time>
      </trkpt>
      <trkpt lat="45.7287026" lon="6.7623996">
        <ele>1903.93</ele>
        <time>2019-09-05T08:21:51Z</time>
      </trkpt>
      <trkpt lat="45.7287069" lon="6.7625323">
        <ele>1903.02</ele>
        <time>2019-09-05T08:21:59Z</time>
      </trkpt>
      <trkpt lat="45.7287252" lon="6.7626752">
        <ele>1902.11</ele>
        <time>2019-09-05T08:22:07Z</time>
      </trkpt>
      <trkpt lat="45.7287585" lon="6.7628104">
        <ele>1902.72</ele>
        <time>2019-09-05T08:22:15Z</time>
      </trkpt>
      <trkpt lat="45.7287807" lon="6.7629631">
        <ele>1902.04</ele>
        <time>2019-09-05T08:22:23Z</time>
      </trkpt>
      <trkpt lat="45.7287894" lon="6.7631149">
        <ele>1902.02</ele>
        <time>2019-09-05T08:22:31Z</time>
      </trkpt>
      <trkpt lat="45.7288089" lon="6.7632689">
        <ele>1901.04</ele>
        <time>2019-09-05T08:22:41Z</time>
      </trkpt>
      <trkpt lat="45.7287078" lon="6.7632623">
        <ele>1899.81</ele>
        <time>2019-09-05T08:22:53Z</time>
      </trkpt>
      <trkpt lat="45.7286643" lon="6.7631317">
        <ele>1900.01</ele>
        <time>2019-09-05T08:23:03Z</time>
      </trkpt>
      <trkpt lat="45.7286354" lon="6.7630025">
        <ele>1898.32</ele>
        <time>2019-09-05T08:23:11Z</time>
      </trkpt>
      <trkpt lat="45.7285812" lon="6.7628891">
        <ele>1898.02</ele>
        <time>2019-09-05T08:23:19Z</time>
      </trkpt>
      <trkpt lat="45.7285039" lon="6.7627833">
        <ele>1898.02</ele>
        <time>2019-09-05T08:23:27Z</time>
      </trkpt>
      <trkpt lat="45.7284588" lon="6.7626677">
        <ele>1896.34</ele>
        <time>2019-09-05T08:23:35Z</time>
      </trkpt>
      <trkpt lat="45.7283919" lon="6.7625808">
        <ele>1895.04</ele>
        <time>2019-09-05T08:23:43Z</time>
      </trkpt>
      <trkpt lat="45.7283140" lon="6.7624712">
        <ele>1895.02</ele>
        <time>2019-09-05T08:23:51Z</time>
      </trkpt>
      <trkpt lat="45.7282404" lon="6.7623930">
        <ele>1894.10</ele>
        <time>2019-09-05T08:23:59Z</time>
      </trkpt>
      <trkpt lat="45.7281662" lon="6.7622647">
        <ele>1893.32</ele>
        <time>2019-09-05T08:24:09Z</time>
      </trkpt>
      <trkpt lat="45.7280895" lon="6.7621682">
        <ele>1892.32</ele>
        <time>2019-09-05T08:24:17Z</time>
      </trkpt>
      <trkpt lat="45.7280155" lon="6.7620403">
        <ele>1891.02</ele>
        <time>2019-09-05T08:24:27Z</time>
      </trkpt>
      <trkpt lat="45.7279568" lon="6.7619174">
        <ele>1890.02</ele>
        <time>2019-09-05T08:24:35Z</time>
      </trkpt>
      <trkpt lat="45.7278954" lon="6.7618094">
        <ele>1889.04</ele>
        <time>2019-09-05T08:24:43Z</time>
      </trkpt>
      <trkpt lat="45.7277988" lon="6.7617330">
        <ele>1889.02</ele>
        <time>2019-09-05T08:24:53Z</time>
      </trkpt>
      <trkpt lat="45.7277159" lon="6.7616739">
        <ele>1888.02</ele>
        <time>2019-09-05T08:25:01Z</time>
      </trkpt>
      <trkpt lat="45.7276394" lon="6.7617661">
        <ele>1886.13</ele>
        <time>2019-09-05T08:25:11Z</time>
      </trkpt>
      <trkpt lat="45.7276368" lon="6.7619008">
        <ele>1884.41</ele>
        <time>2019-09-05T08:25:19Z</time>
      </trkpt>
      <trkpt lat="45.7276953" lon="6.7620348">
        <ele>1884.02</ele>
        <time>2019-09-05T08:25:29Z</time>
      </trkpt>
      <trkpt lat="45.7277539" lon="6.7621648">
        <ele>1882.11</ele>
        <time>2019-09-05T08:25:39Z</time>
      </trkpt>
      <trkpt lat="45.7277694" lon="6.7623152">
        <ele>1881.08</ele>
        <time>2019-09-05T08:25:51Z</time>
      </trkpt>
      <trkpt lat="45.7277637" lon="6.7624570">
        <ele>1879.11</ele>
        <time>2019-09-05T08:26:01Z</time>
      </trkpt>
      <trkpt lat="45.7277294" lon="6.7626089">
        <ele>1875.11</ele>
        <time>2019-09-05T08:26:19Z</time>
      </trkpt>
      <trkpt lat="45.7277341" lon="6.7627399">
        <ele>1873.32</ele>
        <time>2019-09-05T08:26:29Z</time>
      </trkpt>
      <trkpt lat="45.7277156" lon="6.7628773">
        <ele>1870.35</ele>
        <time>2019-09-05T08:26:37Z</time>
      </trkpt>
      <trkpt lat="45.7276899" lon="6.7630508">
        <ele>1866.14</ele>
        <time>2019-09-05T08:26:53Z</time>
      </trkpt>
      <trkpt lat="45.7276518" lon="6.7631994">
        <ele>1863.34</ele>
        <time>2019-09-05T08:27:03Z</time>
      </trkpt>
      <trkpt lat="45.7276284" lon="6.7633392">
        <ele>1859.42</ele>
        <time>2019-09-05T08:27:15Z</time>
      </trkpt>
      <trkpt lat="45.7275716" lon="6.7634543">
        <ele>1855.44</ele>
        <time>2019-09-05T08:27:25Z</time>
      </trkpt>
      <trkpt lat="45.7275207" lon="6.7635727">
        <ele>1852.14</ele>
        <time>2019-09-05T08:27:35Z</time>
      </trkpt>
      <trkpt lat="45.7274935" lon="6.7637284">
        <ele>1844.77</ele>
        <time>2019-09-05T08:27:47Z</time>
      </trkpt>
      <trkpt lat="45.7274902" lon="6.7638859">
        <ele>1841.59</ele>
        <time>2019-09-05T08:27:57Z</time>
      </trkpt>
      <trkpt lat="45.7274943" lon="6.7640238">
        <ele>1839.92</ele>
        <time>2019-09-05T08:28:05Z</time>
      </trkpt>
      <trkpt lat="45.7274743" lon="6.7641758">
        <ele>1839.02</ele>
        <time>2019-09-05T08:28:15Z</time>
      </trkpt>
      <trkpt lat="45.7274675" lon="6.7643263">
        <ele>1838.04</ele>
        <time>2019-09-05T08:28:25Z</time>
      </trkpt>
      <trkpt lat="45.7274625" lon="6.7644678">
        <ele>1838.02</ele>
        <time>2019-09-05T08:28:33Z</time>
      </trkpt>
      <trkpt lat="45.7274739" lon="6.7646147">
        <ele>1837.04</ele>
        <time>2019-09-05T08:28:41Z</time>
      </trkpt>
      <trkpt lat="45.7274948" lon="6.7647528">
        <ele>1835.95</ele>
        <time>2019-09-05T08:28:51Z</time>
      </trkpt>
      <trkpt lat="45.7274409" lon="6.7648678">
        <ele>1836.02</ele>
        <time>2019-09-05T08:29:03Z</time>
      </trkpt>
      <trkpt lat="45.7273467" lon="6.7649136">
        <ele>1833.34</ele>
        <time>2019-09-05T08:29:15Z</time>
      </trkpt>
      <trkpt lat="45.7273158" lon="6.7650482">
        <ele>1832.11</ele>
        <time>2019-09-05T08:29:27Z</time>
      </trkpt>
      <trkpt lat="45.7273810" lon="6.7651597">
        <ele>1828.93</ele>
        <time>2019-09-05T08:29:37Z</time>
      </trkpt>
      <trkpt lat="45.7274751" lon="6.7652258">
        <ele>1828.38</ele>
        <time>2019-09-05T08:29:45Z</time>
      </trkpt>
      <trkpt lat="45.7275281" lon="6.7653324">
        <ele>1825.67</ele>
        <time>2019-09-05T08:29:55Z</time>
      </trkpt>
      <trkpt lat="45.7275589" lon="6.7654748">
        <ele>1823.83</ele>
        <time>2019-09-05T08:30:05Z</time>
      </trkpt>
      <trkpt lat="45.7276254" lon="6.7655891">
        <ele>1821.41</ele>
        <time>2019-09-05T08:30:13Z</time>
      </trkpt>
      <trkpt lat="45.7277131" lon="6.7656383">
        <ele>1821.02</ele>
        <time>2019-09-05T08:30:21Z</time>
      </trkpt>
      <trkpt lat="45.7278054" lon="6.7657132">
        <ele>1820.02</ele>
        <time>2019-09-05T08:30:31Z</time>
      </trkpt>
      <trkpt lat="45.7278298" lon="6.7658508">
        <ele>1818.26</ele>
        <time>2019-09-05T08:30:41Z</time>
      </trkpt>
      <trkpt lat="45.7278329" lon="6.7659897">
        <ele>1812.47</ele>
        <time>2019-09-05T08:30:51Z</time>
      </trkpt>
      <trkpt lat="45.7278982" lon="6.7661230">
        <ele>1809.21</ele>
        <time>2019-09-05T08:31:03Z</time>
      </trkpt>
      <trkpt lat="45.7279099" lon="6.7662688">
        <ele>1802.00</ele>
        <time>2019-09-05T08:31:13Z</time>
      </trkpt>
      <trkpt lat="45.7279347" lon="6.7664080">
        <ele>1801.40</ele>
        <time>2019-09-05T08:31:21Z</time>
      </trkpt>
      <trkpt lat="45.7279903" lon="6.7665245">
        <ele>1800.06</ele>
        <time>2019-09-05T08:31:29Z</time>
      </trkpt>
      <trkpt lat="45.7279340" lon="6.7666307">
        <ele>1798.74</ele>
        <time>2019-09-05T08:31:41Z</time>
      </trkpt>
      <trkpt lat="45.7278461" lon="6.7665937">
        <ele>1798.04</ele>
        <time>2019-09-05T08:31:51Z</time>
      </trkpt>
      <trkpt lat="45.7277430" lon="6.7665883">
        <ele>1796.13</ele>
        <time>2019-09-05T08:32:01Z</time>
      </trkpt>
      <trkpt lat="45.7276656" lon="6.7666696">
        <ele>1794.13</ele>
        <time>2019-09-05T08:32:11Z</time>
      </trkpt>
      <trkpt lat="45.7276213" lon="6.7667918">
        <ele>1793.04</ele>
        <time>2019-09-05T08:32:21Z</time>
      </trkpt>
      <trkpt lat="45.7275717" lon="6.7669031">
        <ele>1791.10</ele>
        <time>2019-09-05T08:32:43Z</time>
      </trkpt>
      <trkpt lat="45.7274875" lon="6.7668451">
        <ele>1790.02</ele>
        <time>2019-09-05T08:33:09Z</time>
      </trkpt>
      <trkpt lat="45.7275344" lon="6.7669562">
        <ele>1798.31</ele>
        <time>2019-09-05T08:57:43Z</time>
      </trkpt>
      <trkpt lat="45.7274876" lon="6.7670694">
        <ele>1794.29</ele>
        <time>2019-09-05T08:58:03Z</time>
      </trkpt>
      <trkpt lat="45.7274744" lon="6.7672089">
        <ele>1793.93</ele>
        <time>2019-09-05T08:58:13Z</time>
      </trkpt>
      <trkpt lat="45.7274278" lon="6.7673422">
        <ele>1794.03</ele>
        <time>2019-09-05T08:58:25Z</time>
      </trkpt>
      <trkpt lat="45.7274405" lon="6.7674789">
        <ele>1791.31</ele>
        <time>2019-09-05T08:59:05Z</time>
      </trkpt>
      <trkpt lat="45.7274874" lon="6.7676179">
        <ele>1789.62</ele>
        <time>2019-09-05T08:59:15Z</time>
      </trkpt>
      <trkpt lat="45.7274666" lon="6.7677609">
        <ele>1787.11</ele>
        <time>2019-09-05T08:59:27Z</time>
      </trkpt>
      <trkpt lat="45.7274399" lon="6.7679261">
        <ele>1785.32</ele>
        <time>2019-09-05T08:59:37Z</time>
      </trkpt>
      <trkpt lat="45.7274162" lon="6.7680611">
        <ele>1784.32</ele>
        <time>2019-09-05T08:59:45Z</time>
      </trkpt>
      <trkpt lat="45.7273769" lon="6.7681891">
        <ele>1782.13</ele>
        <time>2019-09-05T08:59:53Z</time>
      </trkpt>
      <trkpt lat="45.7273317" lon="6.7683260">
        <ele>1781.04</ele>
        <time>2019-09-05T09:00:01Z</time>
      </trkpt>
      <trkpt lat="45.7272952" lon="6.7684808">
        <ele>1780.32</ele>
        <time>2019-09-05T09:00:09Z</time>
      </trkpt>
      <trkpt lat="45.7272754" lon="6.7686349">
        <ele>1779.03</ele>
        <time>2019-09-05T09:00:17Z</time>
      </trkpt>
      <trkpt lat="45.7272330" lon="6.7687624">
        <ele>1778.11</ele>
        <time>2019-09-05T09:00:25Z</time>
      </trkpt>
      <trkpt lat="45.7272632" lon="6.7689201">
        <ele>1777.02</ele>
        <time>2019-09-05T09:00:35Z</time>
      </trkpt>
      <trkpt lat="45.7273267" lon="6.7690432">
        <ele>1776.02</ele>
        <time>2019-09-05T09:00:45Z</time>
      </trkpt>
      <trkpt lat="45.7274146" lon="6.7690954">
        <ele>1775.04</ele>
        <time>2019-09-05T09:00:53Z</time>
      </trkpt>
      <trkpt lat="45.7275039" lon="6.7691772">
        <ele>1774.32</ele>
        <time>2019-09-05T09:01:05Z</time>
      </trkpt>
      <trkpt lat="45.7275734" lon="6.7692642">
        <ele>1774.02</ele>
        <time>2019-09-05T09:01:15Z</time>
      </trkpt>
      <trkpt lat="45.7276603" lon="6.7693040">
        <ele>1774.71</ele>
        <time>2019-09-05T09:01:25Z</time>
      </trkpt>
      <trkpt lat="45.7277304" lon="6.7693896">
        <ele>1775.01</ele>
        <time>2019-09-05T09:01:35Z</time>
      </trkpt>
      <trkpt lat="45.7277985" lon="6.7694799">
        <ele>1775.71</ele>
        <time>2019-09-05T09:01:45Z</time>
      </trkpt>
      <trkpt lat="45.7278581" lon="6.7695776">
        <ele>1777.71</ele>
        <time>2019-09-05T09:01:55Z</time>
      </trkpt>
      <trkpt lat="45.7279316" lon="6.7696620">
        <ele>1778.29</ele>
        <time>2019-09-05T09:02:05Z</time>
      </trkpt>
      <trkpt lat="45.7280304" lon="6.7696531">
        <ele>1778.95</ele>
        <time>2019-09-05T09:02:15Z</time>
      </trkpt>
      <trkpt lat="45.7281320" lon="6.7696127">
        <ele>1780.01</ele>
        <time>2019-09-05T09:02:25Z</time>
      </trkpt>
      <trkpt lat="45.7282232" lon="6.7696416">
        <ele>1781.01</ele>
        <time>2019-09-05T09:02:37Z</time>
      </trkpt>
      <trkpt lat="45.7283068" lon="6.7697080">
        <ele>1780.29</ele>
        <time>2019-09-05T09:02:47Z</time>
      </trkpt>
      <trkpt lat="45.7283921" lon="6.7697898">
        <ele>1780.99</ele>
        <time>2019-09-05T09:02:59Z</time>
      </trkpt>
      <trkpt lat="45.7284881" lon="6.7698087">
        <ele>1781.02</ele>
        <time>2019-09-05T09:03:11Z</time>
      </trkpt>
      <trkpt lat="45.7285870" lon="6.7698342">
        <ele>1782.01</ele>
        <time>2019-09-05T09:03:21Z</time>
      </trkpt>
      <trkpt lat="45.7286768" lon="6.7698478">
        <ele>1782.02</ele>
        <time>2019-09-05T09:03:31Z</time>
      </trkpt>
      <trkpt lat="45.7287612" lon="6.7699222">
        <ele>1783.08</ele>
        <time>2019-09-05T09:03:41Z</time>
      </trkpt>
      <trkpt lat="45.7288480" lon="6.7700090">
        <ele>1784.92</ele>
        <time>2019-09-05T09:03:53Z</time>
      </trkpt>
      <trkpt lat="45.7289204" lon="6.7700995">
        <ele>1785.01</ele>
        <time>2019-09-05T09:04:03Z</time>
      </trkpt>
      <trkpt lat="45.7289795" lon="6.7701977">
        <ele>1786.71</ele>
        <time>2019-09-05T09:04:11Z</time>
      </trkpt>
      <trkpt lat="45.7290438" lon="6.7703022">
        <ele>1787.92</ele>
        <time>2019-09-05T09:04:21Z</time>
      </trkpt>
      <trkpt lat="45.7291174" lon="6.7704105">
        <ele>1788.99</ele>
        <time>2019-09-05T09:04:31Z</time>
      </trkpt>
      <trkpt lat="45.7291635" lon="6.7705229">
        <ele>1789.01</ele>
        <time>2019-09-05T09:04:39Z</time>
      </trkpt>
      <trkpt lat="45.7292409" lon="6.7706402">
        <ele>1790.01</ele>
        <time>2019-09-05T09:04:49Z</time>
      </trkpt>
      <trkpt lat="45.7293219" lon="6.7707233">
        <ele>1791.01</ele>
        <time>2019-09-05T09:04:59Z</time>
      </trkpt>
      <trkpt lat="45.7294042" lon="6.7707940">
        <ele>1792.01</ele>
        <time>2019-09-05T09:05:07Z</time>
      </trkpt>
      <trkpt lat="45.7294816" lon="6.7708914">
        <ele>1793.69</ele>
        <time>2019-09-05T09:05:17Z</time>
      </trkpt>
      <trkpt lat="45.7295721" lon="6.7709607">
        <ele>1794.01</ele>
        <time>2019-09-05T09:05:27Z</time>
      </trkpt>
      <trkpt lat="45.7296413" lon="6.7710720">
        <ele>1795.71</ele>
        <time>2019-09-05T09:05:37Z</time>
      </trkpt>
      <trkpt lat="45.7297005" lon="6.7711727">
        <ele>1796.22</ele>
        <time>2019-09-05T09:05:47Z</time>
      </trkpt>
      <trkpt lat="45.7297720" lon="6.7712823">
        <ele>1796.93</ele>
        <time>2019-09-05T09:05:57Z</time>
      </trkpt>
      <trkpt lat="45.7298745" lon="6.7713413">
        <ele>1797.01</ele>
        <time>2019-09-05T09:06:07Z</time>
      </trkpt>
      <trkpt lat="45.7299670" lon="6.7713927">
        <ele>1798.71</ele>
        <time>2019-09-05T09:06:17Z</time>
      </trkpt>
      <trkpt lat="45.7300173" lon="6.7715195">
        <ele>1799.92</ele>
        <time>2019-09-05T09:06:27Z</time>
      </trkpt>
      <trkpt lat="45.7300355" lon="6.7716485">
        <ele>1800.99</ele>
        <time>2019-09-05T09:06:35Z</time>
      </trkpt>
      <trkpt lat="45.7300341" lon="6.7717913">
        <ele>1801.01</ele>
        <time>2019-09-05T09:06:43Z</time>
      </trkpt>
      <trkpt lat="45.7300312" lon="6.7719314">
        <ele>1803.68</ele>
        <time>2019-09-05T09:06:53Z</time>
      </trkpt>
      <trkpt lat="45.7300397" lon="6.7720701">
        <ele>1805.62</ele>
        <time>2019-09-05T09:07:03Z</time>
      </trkpt>
      <trkpt lat="45.7300318" lon="6.7722039">
        <ele>1807.71</ele>
        <time>2019-09-05T09:07:13Z</time>
      </trkpt>
      <trkpt lat="45.7300416" lon="6.7723573">
        <ele>1809.01</ele>
        <time>2019-09-05T09:07:25Z</time>
      </trkpt>
      <trkpt lat="45.7300736" lon="6.7724958">
        <ele>1810.99</ele>
        <time>2019-09-05T09:07:35Z</time>
      </trkpt>
      <trkpt lat="45.7301451" lon="6.7726085">
        <ele>1810.04</ele>
        <time>2019-09-05T09:07:47Z</time>
      </trkpt>
      <trkpt lat="45.7302133" lon="6.7727144">
        <ele>1811.71</ele>
        <time>2019-09-05T09:07:57Z</time>
      </trkpt>
      <trkpt lat="45.7302669" lon="6.7728464">
        <ele>1811.99</ele>
        <time>2019-09-05T09:08:07Z</time>
      </trkpt>
      <trkpt lat="45.7303223" lon="6.7729499">
        <ele>1812.99</ele>
        <time>2019-09-05T09:08:17Z</time>
      </trkpt>
      <trkpt lat="45.7304006" lon="6.7730650">
        <ele>1813.99</ele>
        <time>2019-09-05T09:08:29Z</time>
      </trkpt>
      <trkpt lat="45.7304782" lon="6.7731654">
        <ele>1814.92</ele>
        <time>2019-09-05T09:08:39Z</time>
      </trkpt>
      <trkpt lat="45.7305451" lon="6.7732777">
        <ele>1815.73</ele>
        <time>2019-09-05T09:08:49Z</time>
      </trkpt>
      <trkpt lat="45.7306256" lon="6.7733376">
        <ele>1816.92</ele>
        <time>2019-09-05T09:08:59Z</time>
      </trkpt>
      <trkpt lat="45.7307232" lon="6.7733951">
        <ele>1816.95</ele>
        <time>2019-09-05T09:09:09Z</time>
      </trkpt>
      <trkpt lat="45.7307974" lon="6.7735018">
        <ele>1817.92</ele>
        <time>2019-09-05T09:09:19Z</time>
      </trkpt>
      <trkpt lat="45.7308638" lon="6.7736120">
        <ele>1819.99</ele>
        <time>2019-09-05T09:09:29Z</time>
      </trkpt>
      <trkpt lat="45.7309275" lon="6.7737215">
        <ele>1820.80</ele>
        <time>2019-09-05T09:09:37Z</time>
      </trkpt>
      <trkpt lat="45.7310002" lon="6.7738335">
        <ele>1821.01</ele>
        <time>2019-09-05T09:09:47Z</time>
      </trkpt>
      <trkpt lat="45.7310551" lon="6.7739381">
        <ele>1821.80</ele>
        <time>2019-09-05T09:09:55Z</time>
      </trkpt>
      <trkpt lat="45.7311202" lon="6.7740502">
        <ele>1822.01</ele>
        <time>2019-09-05T09:10:05Z</time>
      </trkpt>
      <trkpt lat="45.7311801" lon="6.7741713">
        <ele>1822.02</ele>
        <time>2019-09-05T09:10:15Z</time>
      </trkpt>
      <trkpt lat="45.7312422" lon="6.7742923">
        <ele>1823.99</ele>
        <time>2019-09-05T09:10:25Z</time>
      </trkpt>
      <trkpt lat="45.7313000" lon="6.7744058">
        <ele>1825.92</ele>
        <time>2019-09-05T09:10:35Z</time>
      </trkpt>
      <trkpt lat="45.7313512" lon="6.7745188">
        <ele>1826.92</ele>
        <time>2019-09-05T09:10:43Z</time>
      </trkpt>
      <trkpt lat="45.7314197" lon="6.7746434">
        <ele>1828.01</ele>
        <time>2019-09-05T09:10:53Z</time>
      </trkpt>
      <trkpt lat="45.7314960" lon="6.7747189">
        <ele>1829.69</ele>
        <time>2019-09-05T09:11:01Z</time>
      </trkpt>
      <trkpt lat="45.7316017" lon="6.7747740">
        <ele>1830.92</ele>
        <time>2019-09-05T09:11:11Z</time>
      </trkpt>
      <trkpt lat="45.7316948" lon="6.7747974">
        <ele>1832.01</ele>
        <time>2019-09-05T09:11:19Z</time>
      </trkpt>
      <trkpt lat="45.7317877" lon="6.7748573">
        <ele>1832.02</ele>
        <time>2019-09-05T09:11:29Z</time>
      </trkpt>
      <trkpt lat="45.7318832" lon="6.7748954">
        <ele>1832.93</ele>
        <time>2019-09-05T09:11:39Z</time>
      </trkpt>
      <trkpt lat="45.7319770" lon="6.7749589">
        <ele>1834.01</ele>
        <time>2019-09-05T09:11:49Z</time>
      </trkpt>
      <trkpt lat="45.7320702" lon="6.7750269">
        <ele>1835.01</ele>
        <time>2019-09-05T09:11:59Z</time>
      </trkpt>
      <trkpt lat="45.7321522" lon="6.7750936">
        <ele>1835.02</ele>
        <time>2019-09-05T09:12:09Z</time>
      </trkpt>
      <trkpt lat="45.7322193" lon="6.7751870">
        <ele>1836.01</ele>
        <time>2019-09-05T09:12:19Z</time>
      </trkpt>
      <trkpt lat="45.7322858" lon="6.7752885">
        <ele>1837.71</ele>
        <time>2019-09-05T09:12:29Z</time>
      </trkpt>
      <trkpt lat="45.7323585" lon="6.7753967">
        <ele>1839.71</ele>
        <time>2019-09-05T09:12:39Z</time>
      </trkpt>
      <trkpt lat="45.7324342" lon="6.7755085">
        <ele>1840.70</ele>
        <time>2019-09-05T09:12:49Z</time>
      </trkpt>
      <trkpt lat="45.7325000" lon="6.7756197">
        <ele>1841.01</ele>
        <time>2019-09-05T09:12:59Z</time>
      </trkpt>
      <trkpt lat="45.7325651" lon="6.7757212">
        <ele>1842.01</ele>
        <time>2019-09-05T09:13:09Z</time>
      </trkpt>
      <trkpt lat="45.7326098" lon="6.7758337">
        <ele>1844.69</ele>
        <time>2019-09-05T09:13:19Z</time>
      </trkpt>
      <trkpt lat="45.7326461" lon="6.7759541">
        <ele>1845.99</ele>
        <time>2019-09-05T09:13:27Z</time>
      </trkpt>
      <trkpt lat="45.7327035" lon="6.7760799">
        <ele>1847.71</ele>
        <time>2019-09-05T09:13:37Z</time>
      </trkpt>
      <trkpt lat="45.7327753" lon="6.7761671">
        <ele>1847.04</ele>
        <time>2019-09-05T09:13:45Z</time>
      </trkpt>
      <trkpt lat="45.7328565" lon="6.7762581">
        <ele>1848.90</ele>
        <time>2019-09-05T09:13:55Z</time>
      </trkpt>
      <trkpt lat="45.7329124" lon="6.7763638">
        <ele>1849.01</ele>
        <time>2019-09-05T09:14:03Z</time>
      </trkpt>
      <trkpt lat="45.7329728" lon="6.7764681">
        <ele>1849.99</ele>
        <time>2019-09-05T09:14:11Z</time>
      </trkpt>
      <trkpt lat="45.7330332" lon="6.7765715">
        <ele>1851.01</ele>
        <time>2019-09-05T09:14:19Z</time>
      </trkpt>
      <trkpt lat="45.7331152" lon="6.7766802">
        <ele>1851.99</ele>
        <time>2019-09-05T09:14:29Z</time>
      </trkpt>
      <trkpt lat="45.7332032" lon="6.7767560">
        <ele>1852.99</ele>
        <time>2019-09-05T09:14:39Z</time>
      </trkpt>
      <trkpt lat="45.7332830" lon="6.7768494">
        <ele>1853.71</ele>
        <time>2019-09-05T09:14:47Z</time>
      </trkpt>
      <trkpt lat="45.7333500" lon="6.7769751">
        <ele>1854.99</ele>
        <time>2019-09-05T09:14:57Z</time>
      </trkpt>
      <trkpt lat="45.7334154" lon="6.7770718">
        <ele>1855.08</ele>
        <time>2019-09-05T09:15:05Z</time>
      </trkpt>
      <trkpt lat="45.7334950" lon="6.7771455">
        <ele>1856.01</ele>
        <time>2019-09-05T09:15:13Z</time>
      </trkpt>
      <trkpt lat="45.7335756" lon="6.7772235">
        <ele>1856.01</ele>
        <time>2019-09-05T09:15:21Z</time>
      </trkpt>
      <trkpt lat="45.7336711" lon="6.7772231">
        <ele>1857.71</ele>
        <time>2019-09-05T09:15:29Z</time>
      </trkpt>
      <trkpt lat="45.7337643" lon="6.7772492">
        <ele>1857.72</ele>
        <time>2019-09-05T09:15:37Z</time>
      </trkpt>
      <trkpt lat="45.7338695" lon="6.7772915">
        <ele>1859.69</ele>
        <time>2019-09-05T09:15:47Z</time>
      </trkpt>
      <trkpt lat="45.7339675" lon="6.7773460">
        <ele>1859.02</ele>
        <time>2019-09-05T09:15:57Z</time>
      </trkpt>
      <trkpt lat="45.7340567" lon="6.7773741">
        <ele>1859.94</ele>
        <time>2019-09-05T09:16:07Z</time>
      </trkpt>
      <trkpt lat="45.7341679" lon="6.7774080">
        <ele>1860.99</ele>
        <time>2019-09-05T09:16:17Z</time>
      </trkpt>
      <trkpt lat="45.7342720" lon="6.7774233">
        <ele>1861.92</ele>
        <time>2019-09-05T09:16:27Z</time>
      </trkpt>
      <trkpt lat="45.7343741" lon="6.7774766">
        <ele>1862.99</ele>
        <time>2019-09-05T09:16:37Z</time>
      </trkpt>
      <trkpt lat="45.7344592" lon="6.7775702">
        <ele>1863.71</ele>
        <time>2019-09-05T09:16:47Z</time>
      </trkpt>
      <trkpt lat="45.7345401" lon="6.7776452">
        <ele>1864.01</ele>
        <time>2019-09-05T09:16:55Z</time>
      </trkpt>
      <trkpt lat="45.7346273" lon="6.7777071">
        <ele>1864.02</ele>
        <time>2019-09-05T09:17:03Z</time>
      </trkpt>
      <trkpt lat="45.7347104" lon="6.7777609">
        <ele>1864.02</ele>
        <time>2019-09-05T09:17:11Z</time>
      </trkpt>
      <trkpt lat="45.7348114" lon="6.7778369">
        <ele>1864.99</ele>
        <time>2019-09-05T09:17:21Z</time>
      </trkpt>
      <trkpt lat="45.7348911" lon="6.7779301">
        <ele>1865.99</ele>
        <time>2019-09-05T09:17:29Z</time>
      </trkpt>
      <trkpt lat="45.7349641" lon="6.7780377">
        <ele>1865.02</ele>
        <time>2019-09-05T09:17:39Z</time>
      </trkpt>
      <trkpt lat="45.7350379" lon="6.7781391">
        <ele>1865.02</ele>
        <time>2019-09-05T09:17:49Z</time>
      </trkpt>
      <trkpt lat="45.7350375" lon="6.7782853">
        <ele>1865.71</ele>
        <time>2019-09-05T09:17:59Z</time>
      </trkpt>
      <trkpt lat="45.7350529" lon="6.7784141">
        <ele>1866.01</ele>
        <time>2019-09-05T09:18:07Z</time>
      </trkpt>
      <trkpt lat="45.7351065" lon="6.7785211">
        <ele>1866.02</ele>
        <time>2019-09-05T09:18:19Z</time>
      </trkpt>
      <trkpt lat="45.7351469" lon="6.7786373">
        <ele>1865.02</ele>
        <time>2019-09-05T09:18:31Z</time>
      </trkpt>
      <trkpt lat="45.7352450" lon="6.7786220">
        <ele>1863.25</ele>
        <time>2019-09-05T09:18:45Z</time>
      </trkpt>
      <trkpt lat="45.7353249" lon="6.7785309">
        <ele>1864.31</ele>
        <time>2019-09-05T09:18:57Z</time>
      </trkpt>
      <trkpt lat="45.7354075" lon="6.7784273">
        <ele>1864.31</ele>
        <time>2019-09-05T09:19:07Z</time>
      </trkpt>
      <trkpt lat="45.7354854" lon="6.7783252">
        <ele>1864.93</ele>
        <time>2019-09-05T09:19:17Z</time>
      </trkpt>
      <trkpt lat="45.7355619" lon="6.7782458">
        <ele>1865.08</ele>
        <time>2019-09-05T09:19:27Z</time>
      </trkpt>
      <trkpt lat="45.7356615" lon="6.7781926">
        <ele>1865.02</ele>
        <time>2019-09-05T09:19:39Z</time>
      </trkpt>
      <trkpt lat="45.7357708" lon="6.7781936">
        <ele>1867.41</ele>
        <time>2019-09-05T09:19:51Z</time>
      </trkpt>
      <trkpt lat="45.7358581" lon="6.7782498">
        <ele>1868.00</ele>
        <time>2019-09-05T09:20:11Z</time>
      </trkpt>
      <trkpt lat="45.7359404" lon="6.7783227">
        <ele>1870.11</ele>
        <time>2019-09-05T09:20:21Z</time>
      </trkpt>
      <trkpt lat="45.7360456" lon="6.7783895">
        <ele>1870.93</ele>
        <time>2019-09-05T09:20:31Z</time>
      </trkpt>
      <trkpt lat="45.7361428" lon="6.7784653">
        <ele>1870.29</ele>
        <time>2019-09-05T09:20:41Z</time>
      </trkpt>
      <trkpt lat="45.7362296" lon="6.7785299">
        <ele>1870.08</ele>
        <time>2019-09-05T09:20:49Z</time>
      </trkpt>
      <trkpt lat="45.7363331" lon="6.7785790">
        <ele>1869.72</ele>
        <time>2019-09-05T09:20:59Z</time>
      </trkpt>
      <trkpt lat="45.7364363" lon="6.7786420">
        <ele>1869.02</ele>
        <time>2019-09-05T09:21:11Z</time>
      </trkpt>
      <trkpt lat="45.7365134" lon="6.7787339">
        <ele>1868.02</ele>
        <time>2019-09-05T09:21:19Z</time>
      </trkpt>
      <trkpt lat="45.7365850" lon="6.7788336">
        <ele>1865.56</ele>
        <time>2019-09-05T09:21:27Z</time>
      </trkpt>
      <trkpt lat="45.7366894" lon="6.7789088">
        <ele>1861.20</ele>
        <time>2019-09-05T09:21:35Z</time>
      </trkpt>
      <trkpt lat="45.7367802" lon="6.7789491">
        <ele>1861.08</ele>
        <time>2019-09-05T09:21:43Z</time>
      </trkpt>
      <trkpt lat="45.7368647" lon="6.7790362">
        <ele>1863.04</ele>
        <time>2019-09-05T09:22:01Z</time>
      </trkpt>
      <trkpt lat="45.7369499" lon="6.7791324">
        <ele>1863.24</ele>
        <time>2019-09-05T09:22:11Z</time>
      </trkpt>
      <trkpt lat="45.7370312" lon="6.7792026">
        <ele>1864.22</ele>
        <time>2019-09-05T09:22:25Z</time>
      </trkpt>
      <trkpt lat="45.7371302" lon="6.7792640">
        <ele>1865.01</ele>
        <time>2019-09-05T09:22:55Z</time>
      </trkpt>
      <trkpt lat="45.7370344" lon="6.7792144">
        <ele>1868.02</ele>
        <time>2019-09-05T09:45:21Z</time>
      </trkpt>
      <trkpt lat="45.7369447" lon="6.7791649">
        <ele>1866.34</ele>
        <time>2019-09-05T09:45:29Z</time>
      </trkpt>
      <trkpt lat="45.7368669" lon="6.7792296">
        <ele>1865.05</ele>
        <time>2019-09-05T09:45:39Z</time>
      </trkpt>
      <trkpt lat="45.7368200" lon="6.7793398">
        <ele>1863.11</ele>
        <time>2019-09-05T09:45:47Z</time>
      </trkpt>
      <trkpt lat="45.7367511" lon="6.7794655">
        <ele>1861.32</ele>
        <time>2019-09-05T09:45:57Z</time>
      </trkpt>
      <trkpt lat="45.7366806" lon="6.7795513">
        <ele>1860.04</ele>
        <time>2019-09-05T09:46:09Z</time>
      </trkpt>
      <trkpt lat="45.7365811" lon="6.7795716">
        <ele>1858.72</ele>
        <time>2019-09-05T09:46:25Z</time>
      </trkpt>
      <trkpt lat="45.7365080" lon="6.7794897">
        <ele>1858.10</ele>
        <time>2019-09-05T09:46:39Z</time>
      </trkpt>
      <trkpt lat="45.7364711" lon="6.7793678">
        <ele>1858.02</ele>
        <time>2019-09-05T09:46:47Z</time>
      </trkpt>
      <trkpt lat="45.7364320" lon="6.7792368">
        <ele>1860.00</ele>
        <time>2019-09-05T09:46:57Z</time>
      </trkpt>
      <trkpt lat="45.7363600" lon="6.7791486">
        <ele>1861.01</ele>
        <time>2019-09-05T09:47:09Z</time>
      </trkpt>
      <trkpt lat="45.7362615" lon="6.7791119">
        <ele>1862.94</ele>
        <time>2019-09-05T09:47:19Z</time>
      </trkpt>
      <trkpt lat="45.7361630" lon="6.7790729">
        <ele>1864.90</ele>
        <time>2019-09-05T09:47:31Z</time>
      </trkpt>
      <trkpt lat="45.7361384" lon="6.7792015">
        <ele>1867.62</ele>
        <time>2019-09-05T09:47:45Z</time>
      </trkpt>
      <trkpt lat="45.7361590" lon="6.7793369">
        <ele>1870.89</ele>
        <time>2019-09-05T09:47:57Z</time>
      </trkpt>
      <trkpt lat="45.7361678" lon="6.7794829">
        <ele>1871.99</ele>
        <time>2019-09-05T09:48:09Z</time>
      </trkpt>
      <trkpt lat="45.7360799" lon="6.7794393">
        <ele>1872.02</ele>
        <time>2019-09-05T09:48:21Z</time>
      </trkpt>
      <trkpt lat="45.7359874" lon="6.7793675">
        <ele>1873.01</ele>
        <time>2019-09-05T09:48:35Z</time>
      </trkpt>
      <trkpt lat="45.7358953" lon="6.7793633">
        <ele>1874.01</ele>
        <time>2019-09-05T09:48:47Z</time>
      </trkpt>
      <trkpt lat="45.7357940" lon="6.7793833">
        <ele>1875.70</ele>
        <time>2019-09-05T09:49:01Z</time>
      </trkpt>
      <trkpt lat="45.7357110" lon="6.7793234">
        <ele>1876.99</ele>
        <time>2019-09-05T09:49:09Z</time>
      </trkpt>
      <trkpt lat="45.7356109" lon="6.7793195">
        <ele>1878.71</ele>
        <time>2019-09-05T09:49:23Z</time>
      </trkpt>
      <trkpt lat="45.7355213" lon="6.7792882">
        <ele>1880.92</ele>
        <time>2019-09-05T09:49:35Z</time>
      </trkpt>
      <trkpt lat="45.7355763" lon="6.7793982">
        <ele>1887.70</ele>
        <time>2019-09-05T09:50:01Z</time>
      </trkpt>
      <trkpt lat="45.7356183" lon="6.7795152">
        <ele>1890.62</ele>
        <time>2019-09-05T09:50:13Z</time>
      </trkpt>
      <trkpt lat="45.7356517" lon="6.7796415">
        <ele>1892.92</ele>
        <time>2019-09-05T09:50:27Z</time>
      </trkpt>
      <trkpt lat="45.7357179" lon="6.7797516">
        <ele>1895.90</ele>
        <time>2019-09-05T09:50:39Z</time>
      </trkpt>
      <trkpt lat="45.7357360" lon="6.7798890">
        <ele>1898.01</ele>
        <time>2019-09-05T09:50:51Z</time>
      </trkpt>
      <trkpt lat="45.7357972" lon="6.7799872">
        <ele>1899.69</ele>
        <time>2019-09-05T09:51:01Z</time>
      </trkpt>
      <trkpt lat="45.7358712" lon="6.7800693">
        <ele>1900.71</ele>
        <time>2019-09-05T09:51:17Z</time>
      </trkpt>
      <trkpt lat="45.7359618" lon="6.7801074">
        <ele>1901.99</ele>
        <time>2019-09-05T09:51:25Z</time>
      </trkpt>
      <trkpt lat="45.7360156" lon="6.7802215">
        <ele>1902.92</ele>
        <time>2019-09-05T09:51:37Z</time>
      </trkpt>
      <trkpt lat="45.7360281" lon="6.7803625">
        <ele>1904.92</ele>
        <time>2019-09-05T09:51:49Z</time>
      </trkpt>
      <trkpt lat="45.7360582" lon="6.7805063">
        <ele>1906.01</ele>
        <time>2019-09-05T09:51:59Z</time>
      </trkpt>
      <trkpt lat="45.7361191" lon="6.7806256">
        <ele>1906.02</ele>
        <time>2019-09-05T09:52:11Z</time>
      </trkpt>
      <trkpt lat="45.7361976" lon="6.7807100">
        <ele>1908.69</ele>
        <time>2019-09-05T09:52:23Z</time>
      </trkpt>
      <trkpt lat="45.7362679" lon="6.7808085">
        <ele>1909.99</ele>
        <time>2019-09-05T09:52:35Z</time>
      </trkpt>
      <trkpt lat="45.7363220" lon="6.7809203">
        <ele>1910.99</ele>
        <time>2019-09-05T09:52:45Z</time>
      </trkpt>
      <trkpt lat="45.7363856" lon="6.7810321">
        <ele>1912.92</ele>
        <time>2019-09-05T09:52:57Z</time>
      </trkpt>
      <trkpt lat="45.7364581" lon="6.7811358">
        <ele>1913.74</ele>
        <time>2019-09-05T09:53:09Z</time>
      </trkpt>
      <trkpt lat="45.7365123" lon="6.7812399">
        <ele>1915.62</ele>
        <time>2019-09-05T09:53:19Z</time>
      </trkpt>
      <trkpt lat="45.7365881" lon="6.7813210">
        <ele>1918.70</ele>
        <time>2019-09-05T09:53:31Z</time>
      </trkpt>
      <trkpt lat="45.7366401" lon="6.7814408">
        <ele>1920.01</ele>
        <time>2019-09-05T09:53:43Z</time>
      </trkpt>
      <trkpt lat="45.7365556" lon="6.7814890">
        <ele>1921.71</ele>
        <time>2019-09-05T09:53:55Z</time>
      </trkpt>
      <trkpt lat="45.7364613" lon="6.7815009">
        <ele>1923.00</ele>
        <time>2019-09-05T09:54:07Z</time>
      </trkpt>
      <trkpt lat="45.7363539" lon="6.7814895">
        <ele>1922.81</ele>
        <time>2019-09-05T09:54:21Z</time>
      </trkpt>
      <trkpt lat="45.7362592" lon="6.7814623">
        <ele>1925.01</ele>
        <time>2019-09-05T09:54:33Z</time>
      </trkpt>
      <trkpt lat="45.7361610" lon="6.7814142">
        <ele>1926.78</ele>
        <time>2019-09-05T09:54:45Z</time>
      </trkpt>
      <trkpt lat="45.7360693" lon="6.7814145">
        <ele>1927.80</ele>
        <time>2019-09-05T09:54:55Z</time>
      </trkpt>
      <trkpt lat="45.7359743" lon="6.7814412">
        <ele>1929.01</ele>
        <time>2019-09-05T09:55:09Z</time>
      </trkpt>
      <trkpt lat="45.7358725" lon="6.7814123">
        <ele>1929.99</ele>
        <time>2019-09-05T09:55:21Z</time>
      </trkpt>
      <trkpt lat="45.7357709" lon="6.7814111">
        <ele>1930.02</ele>
        <time>2019-09-05T09:55:35Z</time>
      </trkpt>
      <trkpt lat="45.7356706" lon="6.7813962">
        <ele>1929.04</ele>
        <time>2019-09-05T09:55:49Z</time>
      </trkpt>
      <trkpt lat="45.7355694" lon="6.7813695">
        <ele>1929.71</ele>
        <time>2019-09-05T09:56:03Z</time>
      </trkpt>
      <trkpt lat="45.7354745" lon="6.7813508">
        <ele>1929.99</ele>
        <time>2019-09-05T09:56:15Z</time>
      </trkpt>
      <trkpt lat="45.7353719" lon="6.7813237">
        <ele>1930.74</ele>
        <time>2019-09-05T09:56:29Z</time>
      </trkpt>
      <trkpt lat="45.7352750" lon="6.7813015">
        <ele>1932.01</ele>
        <time>2019-09-05T09:56:41Z</time>
      </trkpt>
      <trkpt lat="45.7351743" lon="6.7813166">
        <ele>1933.22</ele>
        <time>2019-09-05T09:56:55Z</time>
      </trkpt>
      <trkpt lat="45.7350969" lon="6.7813854">
        <ele>1933.99</ele>
        <time>2019-09-05T09:57:11Z</time>
      </trkpt>
      <trkpt lat="45.7351853" lon="6.7814394">
        <ele>1941.68</ele>
        <time>2019-09-05T09:57:33Z</time>
      </trkpt>
      <trkpt lat="45.7352646" lon="6.7815130">
        <ele>1944.98</ele>
        <time>2019-09-05T09:57:47Z</time>
      </trkpt>
      <trkpt lat="45.7353641" lon="6.7815745">
        <ele>1948.62</ele>
        <time>2019-09-05T09:57:59Z</time>
      </trkpt>
      <trkpt lat="45.7354308" lon="6.7816657">
        <ele>1951.62</ele>
        <time>2019-09-05T09:58:09Z</time>
      </trkpt>
      <trkpt lat="45.7355081" lon="6.7817392">
        <ele>1954.89</ele>
        <time>2019-09-05T09:58:21Z</time>
      </trkpt>
      <trkpt lat="45.7356026" lon="6.7817881">
        <ele>1957.98</ele>
        <time>2019-09-05T09:58:35Z</time>
      </trkpt>
      <trkpt lat="45.7356789" lon="6.7818631">
        <ele>1959.92</ele>
        <time>2019-09-05T09:58:47Z</time>
      </trkpt>
      <trkpt lat="45.7357613" lon="6.7819251">
        <ele>1961.98</ele>
        <time>2019-09-05T09:58:59Z</time>
      </trkpt>
      <trkpt lat="45.7358212" lon="6.7820263">
        <ele>1963.99</ele>
        <time>2019-09-05T09:59:09Z</time>
      </trkpt>
      <trkpt lat="45.7358723" lon="6.7821364">
        <ele>1965.92</ele>
        <time>2019-09-05T09:59:19Z</time>
      </trkpt>
      <trkpt lat="45.7357734" lon="6.7821396">
        <ele>1970.77</ele>
        <time>2019-09-05T09:59:43Z</time>
      </trkpt>
      <trkpt lat="45.7356839" lon="6.7821012">
        <ele>1972.01</ele>
        <time>2019-09-05T09:59:55Z</time>
      </trkpt>
      <trkpt lat="45.7355896" lon="6.7820528">
        <ele>1973.99</ele>
        <time>2019-09-05T10:00:07Z</time>
      </trkpt>
      <trkpt lat="45.7355009" lon="6.7820804">
        <ele>1975.01</ele>
        <time>2019-09-05T10:00:17Z</time>
      </trkpt>
      <trkpt lat="45.7354078" lon="6.7820830">
        <ele>1974.80</ele>
        <time>2019-09-05T10:00:29Z</time>
      </trkpt>
      <trkpt lat="45.7353057" lon="6.7821212">
        <ele>1974.02</ele>
        <time>2019-09-05T10:00:41Z</time>
      </trkpt>
      <trkpt lat="45.7352156" lon="6.7821496">
        <ele>1974.02</ele>
        <time>2019-09-05T10:00:53Z</time>
      </trkpt>
      <trkpt lat="45.7351229" lon="6.7821534">
        <ele>1974.02</ele>
        <time>2019-09-05T10:01:05Z</time>
      </trkpt>
      <trkpt lat="45.7350205" lon="6.7821572">
        <ele>1974.99</ele>
        <time>2019-09-05T10:01:17Z</time>
      </trkpt>
      <trkpt lat="45.7349276" lon="6.7821304">
        <ele>1976.62</ele>
        <time>2019-09-05T10:01:27Z</time>
      </trkpt>
      <trkpt lat="45.7348364" lon="6.7820838">
        <ele>1978.62</ele>
        <time>2019-09-05T10:01:37Z</time>
      </trkpt>
      <trkpt lat="45.7347475" lon="6.7820390">
        <ele>1980.92</ele>
        <time>2019-09-05T10:01:49Z</time>
      </trkpt>
      <trkpt lat="45.7348227" lon="6.7821228">
        <ele>1983.68</ele>
        <time>2019-09-05T10:02:03Z</time>
      </trkpt>
      <trkpt lat="45.7347447" lon="6.7822065">
        <ele>1988.92</ele>
        <time>2019-09-05T10:02:25Z</time>
      </trkpt>
      <trkpt lat="45.7348055" lon="6.7823088">
        <ele>1993.68</ele>
        <time>2019-09-05T10:02:55Z</time>
      </trkpt>
      <trkpt lat="45.7347188" lon="6.7823897">
        <ele>1998.00</ele>
        <time>2019-09-05T10:03:19Z</time>
      </trkpt>
      <trkpt lat="45.7347523" lon="6.7825095">
        <ele>2000.71</ele>
        <time>2019-09-05T10:03:33Z</time>
      </trkpt>
      <trkpt lat="45.7348395" lon="6.7825453">
        <ele>2001.92</ele>
        <time>2019-09-05T10:03:43Z</time>
      </trkpt>
      <trkpt lat="45.7349294" lon="6.7825463">
        <ele>2004.96</ele>
        <time>2019-09-05T10:03:53Z</time>
      </trkpt>
      <trkpt lat="45.7350210" lon="6.7825441">
        <ele>2007.01</ele>
        <time>2019-09-05T10:04:05Z</time>
      </trkpt>
      <trkpt lat="45.7351239" lon="6.7825770">
        <ele>2010.68</ele>
        <time>2019-09-05T10:04:19Z</time>
      </trkpt>
      <trkpt lat="45.7350585" lon="6.7826753">
        <ele>2013.20</ele>
        <time>2019-09-05T10:04:47Z</time>
      </trkpt>
      <trkpt lat="45.7349606" lon="6.7827248">
        <ele>2014.01</ele>
        <time>2019-09-05T10:05:01Z</time>
      </trkpt>
      <trkpt lat="45.7348936" lon="6.7828159">
        <ele>2014.02</ele>
        <time>2019-09-05T10:05:11Z</time>
      </trkpt>
      <trkpt lat="45.7348038" lon="6.7828649">
        <ele>2014.93</ele>
        <time>2019-09-05T10:05:23Z</time>
      </trkpt>
      <trkpt lat="45.7348826" lon="6.7829366">
        <ele>2016.99</ele>
        <time>2019-09-05T10:05:41Z</time>
      </trkpt>
      <trkpt lat="45.7349740" lon="6.7829168">
        <ele>2021.36</ele>
        <time>2019-09-05T10:05:55Z</time>
      </trkpt>
      <trkpt lat="45.7350670" lon="6.7829101">
        <ele>2022.99</ele>
        <time>2019-09-05T10:06:09Z</time>
      </trkpt>
      <trkpt lat="45.7351593" lon="6.7829635">
        <ele>2023.71</ele>
        <time>2019-09-05T10:06:21Z</time>
      </trkpt>
      <trkpt lat="45.7352464" lon="6.7830126">
        <ele>2024.99</ele>
        <time>2019-09-05T10:06:33Z</time>
      </trkpt>
      <trkpt lat="45.7353301" lon="6.7830840">
        <ele>2026.71</ele>
        <time>2019-09-05T10:06:45Z</time>
      </trkpt>
      <trkpt lat="45.7353938" lon="6.7831807">
        <ele>2028.92</ele>
        <time>2019-09-05T10:06:57Z</time>
      </trkpt>
      <trkpt lat="45.7354707" lon="6.7832609">
        <ele>2031.01</ele>
        <time>2019-09-05T10:07:11Z</time>
      </trkpt>
      <trkpt lat="45.7355450" lon="6.7833563">
        <ele>2033.96</ele>
        <time>2019-09-05T10:07:25Z</time>
      </trkpt>
      <trkpt lat="45.7356086" lon="6.7834514">
        <ele>2035.01</ele>
        <time>2019-09-05T10:07:39Z</time>
      </trkpt>
      <trkpt lat="45.7356501" lon="6.7835853">
        <ele>2037.69</ele>
        <time>2019-09-05T10:07:51Z</time>
      </trkpt>
      <trkpt lat="45.7356904" lon="6.7837064">
        <ele>2038.92</ele>
        <time>2019-09-05T10:08:03Z</time>
      </trkpt>
      <trkpt lat="45.7357120" lon="6.7838323">
        <ele>2045.28</ele>
        <time>2019-09-05T10:09:36Z</time>
      </trkpt>
      <trkpt lat="45.7357541" lon="6.7839559">
        <ele>2046.98</ele>
        <time>2019-09-05T10:09:58Z</time>
      </trkpt>
      <trkpt lat="45.7357655" lon="6.7841062">
        <ele>2050.93</ele>
        <time>2019-09-05T10:10:22Z</time>
      </trkpt>
      <trkpt lat="45.7357543" lon="6.7842494">
        <ele>2052.70</ele>
        <time>2019-09-05T10:10:34Z</time>
      </trkpt>
      <trkpt lat="45.7358501" lon="6.7842901">
        <ele>2054.05</ele>
        <time>2019-09-05T10:10:46Z</time>
      </trkpt>
      <trkpt lat="45.7359138" lon="6.7843903">
        <ele>2055.44</ele>
        <time>2019-09-05T10:10:58Z</time>
      </trkpt>
      <trkpt lat="45.7360203" lon="6.7843869">
        <ele>2055.22</ele>
        <time>2019-09-05T10:11:11Z</time>
      </trkpt>
      <trkpt lat="45.7361145" lon="6.7844259">
        <ele>2058.71</ele>
        <time>2019-09-05T10:11:25Z</time>
      </trkpt>
      <trkpt lat="45.7362102" lon="6.7843997">
        <ele>2060.92</ele>
        <time>2019-09-05T10:11:37Z</time>
      </trkpt>
      <trkpt lat="45.7362525" lon="6.7845386">
        <ele>2061.93</ele>
        <time>2019-09-05T10:11:55Z</time>
      </trkpt>
      <trkpt lat="45.7363425" lon="6.7846089">
        <ele>2063.71</ele>
        <time>2019-09-05T10:12:09Z</time>
      </trkpt>
      <trkpt lat="45.7364426" lon="6.7846318">
        <ele>2064.01</ele>
        <time>2019-09-05T10:12:21Z</time>
      </trkpt>
      <trkpt lat="45.7365285" lon="6.7847050">
        <ele>2064.72</ele>
        <time>2019-09-05T10:12:33Z</time>
      </trkpt>
      <trkpt lat="45.7366177" lon="6.7846733">
        <ele>2066.90</ele>
        <time>2019-09-05T10:12:45Z</time>
      </trkpt>
      <trkpt lat="45.7367178" lon="6.7846860">
        <ele>2066.04</ele>
        <time>2019-09-05T10:12:57Z</time>
      </trkpt>
      <trkpt lat="45.7367993" lon="6.7847585">
        <ele>2067.01</ele>
        <time>2019-09-05T10:13:09Z</time>
      </trkpt>
      <trkpt lat="45.7368717" lon="6.7848520">
        <ele>2067.31</ele>
        <time>2019-09-05T10:13:23Z</time>
      </trkpt>
      <trkpt lat="45.7369685" lon="6.7848810">
        <ele>2068.99</ele>
        <time>2019-09-05T10:13:35Z</time>
      </trkpt>
      <trkpt lat="45.7370665" lon="6.7849115">
        <ele>2070.78</ele>
        <time>2019-09-05T10:13:47Z</time>
      </trkpt>
      <trkpt lat="45.7371499" lon="6.7849806">
        <ele>2070.80</ele>
        <time>2019-09-05T10:13:59Z</time>
      </trkpt>
      <trkpt lat="45.7372337" lon="6.7850480">
        <ele>2072.69</ele>
        <time>2019-09-05T10:14:11Z</time>
      </trkpt>
      <trkpt lat="45.7373298" lon="6.7850519">
        <ele>2072.74</ele>
        <time>2019-09-05T10:14:21Z</time>
      </trkpt>
      <trkpt lat="45.7374172" lon="6.7851000">
        <ele>2074.01</ele>
        <time>2019-09-05T10:14:33Z</time>
      </trkpt>
      <trkpt lat="45.7374996" lon="6.7851620">
        <ele>2075.71</ele>
        <time>2019-09-05T10:14:45Z</time>
      </trkpt>
      <trkpt lat="45.7375674" lon="6.7852594">
        <ele>2077.99</ele>
        <time>2019-09-05T10:14:57Z</time>
      </trkpt>
      <trkpt lat="45.7375780" lon="6.7853921">
        <ele>2079.99</ele>
        <time>2019-09-05T10:15:09Z</time>
      </trkpt>
      <trkpt lat="45.7376527" lon="6.7854748">
        <ele>2081.94</ele>
        <time>2019-09-05T10:15:25Z</time>
      </trkpt>
      <trkpt lat="45.7377275" lon="6.7855585">
        <ele>2085.62</ele>
        <time>2019-09-05T10:15:41Z</time>
      </trkpt>
      <trkpt lat="45.7377892" lon="6.7856744">
        <ele>2088.00</ele>
        <time>2019-09-05T10:15:55Z</time>
      </trkpt>
      <trkpt lat="45.7378848" lon="6.7857126">
        <ele>2089.01</ele>
        <time>2019-09-05T10:16:09Z</time>
      </trkpt>
      <trkpt lat="45.7379798" lon="6.7857590">
        <ele>2090.71</ele>
        <time>2019-09-05T10:16:21Z</time>
      </trkpt>
      <trkpt lat="45.7380686" lon="6.7858217">
        <ele>2091.99</ele>
        <time>2019-09-05T10:16:35Z</time>
      </trkpt>
      <trkpt lat="45.7381651" lon="6.7858555">
        <ele>2093.71</ele>
        <time>2019-09-05T10:16:49Z</time>
      </trkpt>
      <trkpt lat="45.7382533" lon="6.7859173">
        <ele>2095.98</ele>
        <time>2019-09-05T10:17:03Z</time>
      </trkpt>
      <trkpt lat="45.7383495" lon="6.7859775">
        <ele>2098.01</ele>
        <time>2019-09-05T10:17:15Z</time>
      </trkpt>
      <trkpt lat="45.7384462" lon="6.7860233">
        <ele>2099.71</ele>
        <time>2019-09-05T10:17:29Z</time>
      </trkpt>
      <trkpt lat="45.7385371" lon="6.7860880">
        <ele>2103.68</ele>
        <time>2019-09-05T10:17:43Z</time>
      </trkpt>
      <trkpt lat="45.7385236" lon="6.7862245">
        <ele>2105.01</ele>
        <time>2019-09-05T10:17:59Z</time>
      </trkpt>
      <trkpt lat="45.7385970" lon="6.7863015">
        <ele>2107.00</ele>
        <time>2019-09-05T10:18:13Z</time>
      </trkpt>
      <trkpt lat="45.7386919" lon="6.7863125">
        <ele>2110.71</ele>
        <time>2019-09-05T10:18:31Z</time>
      </trkpt>
      <trkpt lat="45.7387468" lon="6.7864162">
        <ele>2114.64</ele>
        <time>2019-09-05T10:18:47Z</time>
      </trkpt>
      <trkpt lat="45.7388161" lon="6.7865228">
        <ele>2117.99</ele>
        <time>2019-09-05T10:19:03Z</time>
      </trkpt>
      <trkpt lat="45.7388978" lon="6.7866114">
        <ele>2119.92</ele>
        <time>2019-09-05T10:19:17Z</time>
      </trkpt>
      <trkpt lat="45.7389912" lon="6.7866726">
        <ele>2121.99</ele>
        <time>2019-09-05T10:19:31Z</time>
      </trkpt>
      <trkpt lat="45.7390696" lon="6.7867627">
        <ele>2124.71</ele>
        <time>2019-09-05T10:19:45Z</time>
      </trkpt>
      <trkpt lat="45.7390823" lon="6.7869003">
        <ele>2126.08</ele>
        <time>2019-09-05T10:19:59Z</time>
      </trkpt>
      <trkpt lat="45.7390639" lon="6.7870384">
        <ele>2127.01</ele>
        <time>2019-09-05T10:20:11Z</time>
      </trkpt>
      <trkpt lat="45.7390634" lon="6.7871687">
        <ele>2129.01</ele>
        <time>2019-09-05T10:20:23Z</time>
      </trkpt>
      <trkpt lat="45.7390191" lon="6.7873088">
        <ele>2142.30</ele>
        <time>2019-09-05T10:21:21Z</time>
      </trkpt>
      <trkpt lat="45.7390772" lon="6.7874296">
        <ele>2142.02</ele>
        <time>2019-09-05T10:21:31Z</time>
      </trkpt>
      <trkpt lat="45.7391521" lon="6.7875249">
        <ele>2142.01</ele>
        <time>2019-09-05T10:21:41Z</time>
      </trkpt>
      <trkpt lat="45.7391873" lon="6.7876456">
        <ele>2142.93</ele>
        <time>2019-09-05T10:21:53Z</time>
      </trkpt>
      <trkpt lat="45.7392618" lon="6.7877484">
        <ele>2143.01</ele>
        <time>2019-09-05T10:22:05Z</time>
      </trkpt>
      <trkpt lat="45.7393012" lon="6.7878862">
        <ele>2141.32</ele>
        <time>2019-09-05T10:22:15Z</time>
      </trkpt>
      <trkpt lat="45.7393724" lon="6.7879649">
        <ele>2141.04</ele>
        <time>2019-09-05T10:22:23Z</time>
      </trkpt>
      <trkpt lat="45.7394287" lon="6.7880959">
        <ele>2140.32</ele>
        <time>2019-09-05T10:22:31Z</time>
      </trkpt>
      <trkpt lat="45.7394237" lon="6.7882399">
        <ele>2140.04</ele>
        <time>2019-09-05T10:22:39Z</time>
      </trkpt>
      <trkpt lat="45.7394096" lon="6.7883995">
        <ele>2140.02</ele>
        <time>2019-09-05T10:22:47Z</time>
      </trkpt>
      <trkpt lat="45.7394797" lon="6.7885071">
        <ele>2141.01</ele>
        <time>2019-09-05T10:22:59Z</time>
      </trkpt>
      <trkpt lat="45.7395168" lon="6.7886321">
        <ele>2141.01</ele>
        <time>2019-09-05T10:23:07Z</time>
      </trkpt>
      <trkpt lat="45.7395516" lon="6.7887518">
        <ele>2140.31</ele>
        <time>2019-09-05T10:23:15Z</time>
      </trkpt>
      <trkpt lat="45.7395811" lon="6.7888801">
        <ele>2139.04</ele>
        <time>2019-09-05T10:23:23Z</time>
      </trkpt>
      <trkpt lat="45.7396231" lon="6.7890033">
        <ele>2139.02</ele>
        <time>2019-09-05T10:23:31Z</time>
      </trkpt>
      <trkpt lat="45.7396283" lon="6.7891598">
        <ele>2138.02</ele>
        <time>2019-09-05T10:23:41Z</time>
      </trkpt>
      <trkpt lat="45.7396312" lon="6.7893006">
        <ele>2137.32</ele>
        <time>2019-09-05T10:23:49Z</time>
      </trkpt>
      <trkpt lat="45.7397017" lon="6.7894054">
        <ele>2137.93</ele>
        <time>2019-09-05T10:23:57Z</time>
      </trkpt>
      <trkpt lat="45.7397639" lon="6.7895190">
        <ele>2138.01</ele>
        <time>2019-09-05T10:24:05Z</time>
      </trkpt>
      <trkpt lat="45.7398549" lon="6.7894636">
        <ele>2137.25</ele>
        <time>2019-09-05T10:24:15Z</time>
      </trkpt>
      <trkpt lat="45.7399141" lon="6.7893410">
        <ele>2138.71</ele>
        <time>2019-09-05T10:24:25Z</time>
      </trkpt>
      <trkpt lat="45.7399921" lon="6.7892436">
        <ele>2136.39</ele>
        <time>2019-09-05T10:24:39Z</time>
      </trkpt>
      <trkpt lat="45.7400797" lon="6.7891894">
        <ele>2137.00</ele>
        <time>2019-09-05T10:24:51Z</time>
      </trkpt>
      <trkpt lat="45.7401769" lon="6.7891933">
        <ele>2137.93</ele>
        <time>2019-09-05T10:25:03Z</time>
      </trkpt>
      <trkpt lat="45.7402701" lon="6.7892150">
        <ele>2139.92</ele>
        <time>2019-09-05T10:25:15Z</time>
      </trkpt>
      <trkpt lat="45.7403632" lon="6.7891817">
        <ele>2143.00</ele>
        <time>2019-09-05T10:25:29Z</time>
      </trkpt>
      <trkpt lat="45.7404580" lon="6.7891601">
        <ele>2143.31</ele>
        <time>2019-09-05T10:25:45Z</time>
      </trkpt>
      <trkpt lat="45.7405475" lon="6.7892051">
        <ele>2147.60</ele>
        <time>2019-09-05T10:26:01Z</time>
      </trkpt>
      <trkpt lat="45.7405717" lon="6.7890759">
        <ele>2150.64</ele>
        <time>2019-09-05T10:26:13Z</time>
      </trkpt>
      <trkpt lat="45.7406608" lon="6.7890497">
        <ele>2154.01</ele>
        <time>2019-09-05T10:26:27Z</time>
      </trkpt>
      <trkpt lat="45.7407251" lon="6.7891618">
        <ele>2153.99</ele>
        <time>2019-09-05T10:26:41Z</time>
      </trkpt>
      <trkpt lat="45.7408023" lon="6.7892568">
        <ele>2154.99</ele>
        <time>2019-09-05T10:26:53Z</time>
      </trkpt>
      <trkpt lat="45.7408946" lon="6.7892722">
        <ele>2157.62</ele>
        <time>2019-09-05T10:27:03Z</time>
      </trkpt>
      <trkpt lat="45.7409946" lon="6.7893117">
        <ele>2157.02</ele>
        <time>2019-09-05T10:27:15Z</time>
      </trkpt>
      <trkpt lat="45.7410798" lon="6.7893877">
        <ele>2157.72</ele>
        <time>2019-09-05T10:27:27Z</time>
      </trkpt>
      <trkpt lat="45.7411348" lon="6.7895020">
        <ele>2159.71</ele>
        <time>2019-09-05T10:27:37Z</time>
      </trkpt>
      <trkpt lat="45.7412276" lon="6.7895547">
        <ele>2160.80</ele>
        <time>2019-09-05T10:27:49Z</time>
      </trkpt>
      <trkpt lat="45.7412991" lon="6.7896420">
        <ele>2161.01</ele>
        <time>2019-09-05T10:27:59Z</time>
      </trkpt>
      <trkpt lat="45.7413422" lon="6.7897769">
        <ele>2161.80</ele>
        <time>2019-09-05T10:28:11Z</time>
      </trkpt>
      <trkpt lat="45.7413986" lon="6.7898855">
        <ele>2163.92</ele>
        <time>2019-09-05T10:28:25Z</time>
      </trkpt>
      <trkpt lat="45.7414513" lon="6.7899956">
        <ele>2164.01</ele>
        <time>2019-09-05T10:28:37Z</time>
      </trkpt>
      <trkpt lat="45.7414618" lon="6.7901334">
        <ele>2165.71</ele>
        <time>2019-09-05T10:28:49Z</time>
      </trkpt>
      <trkpt lat="45.7414604" lon="6.7902757">
        <ele>2168.01</ele>
        <time>2019-09-05T10:29:03Z</time>
      </trkpt>
      <trkpt lat="45.7414698" lon="6.7904042">
        <ele>2168.99</ele>
        <time>2019-09-05T10:29:15Z</time>
      </trkpt>
      <trkpt lat="45.7414983" lon="6.7905366">
        <ele>2170.01</ele>
        <time>2019-09-05T10:29:29Z</time>
      </trkpt>
      <trkpt lat="45.7415350" lon="6.7906715">
        <ele>2171.71</ele>
        <time>2019-09-05T10:29:43Z</time>
      </trkpt>
      <trkpt lat="45.7415670" lon="6.7908133">
        <ele>2174.62</ele>
        <time>2019-09-05T10:29:59Z</time>
      </trkpt>
      <trkpt lat="45.7416061" lon="6.7909383">
        <ele>2176.99</ele>
        <time>2019-09-05T10:30:13Z</time>
      </trkpt>
      <trkpt lat="45.7416586" lon="6.7910456">
        <ele>2178.71</ele>
        <time>2019-09-05T10:30:27Z</time>
      </trkpt>
      <trkpt lat="45.7416772" lon="6.7911736">
        <ele>2179.92</ele>
        <time>2019-09-05T10:30:39Z</time>
      </trkpt>
      <trkpt lat="45.7417065" lon="6.7913007">
        <ele>2181.01</ele>
        <time>2019-09-05T10:30:55Z</time>
      </trkpt>
      <trkpt lat="45.7417860" lon="6.7913796">
        <ele>2181.10</ele>
        <time>2019-09-05T10:31:09Z</time>
      </trkpt>
      <trkpt lat="45.7418217" lon="6.7915122">
        <ele>2182.01</ele>
        <time>2019-09-05T10:31:21Z</time>
      </trkpt>
      <trkpt lat="45.7418579" lon="6.7916479">
        <ele>2183.92</ele>
        <time>2019-09-05T10:31:35Z</time>
      </trkpt>
      <trkpt lat="45.7418990" lon="6.7917699">
        <ele>2187.00</ele>
        <time>2019-09-05T10:31:49Z</time>
      </trkpt>
      <trkpt lat="45.7419878" lon="6.7917313">
        <ele>2187.72</ele>
        <time>2019-09-05T10:32:01Z</time>
      </trkpt>
      <trkpt lat="45.7419860" lon="6.7918789">
        <ele>2189.01</ele>
        <time>2019-09-05T10:32:13Z</time>
      </trkpt>
      <trkpt lat="45.7419706" lon="6.7920096">
        <ele>2190.01</ele>
        <time>2019-09-05T10:32:29Z</time>
      </trkpt>
      <trkpt lat="45.7419766" lon="6.7921502">
        <ele>2190.93</ele>
        <time>2019-09-05T10:32:45Z</time>
      </trkpt>
      <trkpt lat="45.7420102" lon="6.7922704">
        <ele>2192.80</ele>
        <time>2019-09-05T10:33:05Z</time>
      </trkpt>
      <trkpt lat="45.7420724" lon="6.7923779">
        <ele>2195.60</ele>
        <time>2019-09-05T10:33:21Z</time>
      </trkpt>
      <trkpt lat="45.7421623" lon="6.7924048">
        <ele>2200.83</ele>
        <time>2019-09-05T10:33:43Z</time>
      </trkpt>
      <trkpt lat="45.7422490" lon="6.7924626">
        <ele>2202.03</ele>
        <time>2019-09-05T10:34:01Z</time>
      </trkpt>
      <trkpt lat="45.7423311" lon="6.7925275">
        <ele>2204.92</ele>
        <time>2019-09-05T10:34:19Z</time>
      </trkpt>
      <trkpt lat="45.7424096" lon="6.7925913">
        <ele>2208.95</ele>
        <time>2019-09-05T10:34:37Z</time>
      </trkpt>
      <trkpt lat="45.7425047" lon="6.7926306">
        <ele>2214.92</ele>
        <time>2019-09-05T10:34:59Z</time>
      </trkpt>
      <trkpt lat="45.7425697" lon="6.7927464">
        <ele>2218.91</ele>
        <time>2019-09-05T10:35:15Z</time>
      </trkpt>
      <trkpt lat="45.7426195" lon="6.7928566">
        <ele>2220.08</ele>
        <time>2019-09-05T10:35:27Z</time>
      </trkpt>
      <trkpt lat="45.7427117" lon="6.7929131">
        <ele>2221.01</ele>
        <time>2019-09-05T10:35:43Z</time>
      </trkpt>
      <trkpt lat="45.7427923" lon="6.7929861">
        <ele>2219.10</ele>
        <time>2019-09-05T10:35:59Z</time>
      </trkpt>
      <trkpt lat="45.7428903" lon="6.7929526">
        <ele>2223.27</ele>
        <time>2019-09-05T10:36:15Z</time>
      </trkpt>
      <trkpt lat="45.7429821" lon="6.7929877">
        <ele>2224.95</ele>
        <time>2019-09-05T10:36:31Z</time>
      </trkpt>
      <trkpt lat="45.7430026" lon="6.7931176">
        <ele>2226.01</ele>
        <time>2019-09-05T10:36:43Z</time>
      </trkpt>
      <trkpt lat="45.7430446" lon="6.7932396">
        <ele>2225.10</ele>
        <time>2019-09-05T10:36:57Z</time>
      </trkpt>
      <trkpt lat="45.7431355" lon="6.7932755">
        <ele>2225.99</ele>
        <time>2019-09-05T10:37:13Z</time>
      </trkpt>
      <trkpt lat="45.7432235" lon="6.7933358">
        <ele>2224.04</ele>
        <time>2019-09-05T10:37:29Z</time>
      </trkpt>
      <trkpt lat="45.7433202" lon="6.7933788">
        <ele>2225.71</ele>
        <time>2019-09-05T10:37:43Z</time>
      </trkpt>
      <trkpt lat="45.7433758" lon="6.7932551">
        <ele>2227.99</ele>
        <time>2019-09-05T10:37:59Z</time>
      </trkpt>
      <trkpt lat="45.7434670" lon="6.7932303">
        <ele>2229.22</ele>
        <time>2019-09-05T10:38:17Z</time>
      </trkpt>
      <trkpt lat="45.7435214" lon="6.7931180">
        <ele>2233.89</ele>
        <time>2019-09-05T10:38:35Z</time>
      </trkpt>
      <trkpt lat="45.7435419" lon="6.7929856">
        <ele>2239.89</ele>
        <time>2019-09-05T10:38:51Z</time>
      </trkpt>
      <trkpt lat="45.7436350" lon="6.7929829">
        <ele>2240.99</ele>
        <time>2019-09-05T10:39:05Z</time>
      </trkpt>
      <trkpt lat="45.7437248" lon="6.7929595">
        <ele>2242.99</ele>
        <time>2019-09-05T10:39:17Z</time>
      </trkpt>
      <trkpt lat="45.7437946" lon="6.7928685">
        <ele>2245.92</ele>
        <time>2019-09-05T10:39:27Z</time>
      </trkpt>
      <trkpt lat="45.7438426" lon="6.7927450">
        <ele>2247.92</ele>
        <time>2019-09-05T10:39:37Z</time>
      </trkpt>
      <trkpt lat="45.7438805" lon="6.7926221">
        <ele>2249.99</ele>
        <time>2019-09-05T10:39:49Z</time>
      </trkpt>
      <trkpt lat="45.7439142" lon="6.7924814">
        <ele>2252.90</ele>
        <time>2019-09-05T10:40:03Z</time>
      </trkpt>
      <trkpt lat="45.7439368" lon="6.7923450">
        <ele>2254.01</ele>
        <time>2019-09-05T10:40:15Z</time>
      </trkpt>
      <trkpt lat="45.7439844" lon="6.7922298">
        <ele>2254.72</ele>
        <time>2019-09-05T10:40:27Z</time>
      </trkpt>
      <trkpt lat="45.7440647" lon="6.7921353">
        <ele>2255.92</ele>
        <time>2019-09-05T10:40:39Z</time>
      </trkpt>
      <trkpt lat="45.7441371" lon="6.7920556">
        <ele>2255.93</ele>
        <time>2019-09-05T10:40:51Z</time>
      </trkpt>
      <trkpt lat="45.7442164" lon="6.7919678">
        <ele>2258.01</ele>
        <time>2019-09-05T10:41:07Z</time>
      </trkpt>
      <trkpt lat="45.7442934" lon="6.7918868">
        <ele>2259.92</ele>
        <time>2019-09-05T10:41:21Z</time>
      </trkpt>
      <trkpt lat="45.7443849" lon="6.7918195">
        <ele>2262.90</ele>
        <time>2019-09-05T10:41:35Z</time>
      </trkpt>
      <trkpt lat="45.7444763" lon="6.7917782">
        <ele>2263.99</ele>
        <time>2019-09-05T10:41:49Z</time>
      </trkpt>
      <trkpt lat="45.7445723" lon="6.7917275">
        <ele>2266.92</ele>
        <time>2019-09-05T10:42:05Z</time>
      </trkpt>
      <trkpt lat="45.7446624" lon="6.7916868">
        <ele>2268.71</ele>
        <time>2019-09-05T10:42:17Z</time>
      </trkpt>
      <trkpt lat="45.7447471" lon="6.7916185">
        <ele>2270.92</ele>
        <time>2019-09-05T10:42:29Z</time>
      </trkpt>
      <trkpt lat="45.7448336" lon="6.7915516">
        <ele>2273.92</ele>
        <time>2019-09-05T10:42:45Z</time>
      </trkpt>
      <trkpt lat="45.7449314" lon="6.7915275">
        <ele>2275.99</ele>
        <time>2019-09-05T10:42:59Z</time>
      </trkpt>
      <trkpt lat="45.7450236" lon="6.7915108">
        <ele>2276.93</ele>
        <time>2019-09-05T10:43:09Z</time>
      </trkpt>
      <trkpt lat="45.7450976" lon="6.7914285">
        <ele>2277.72</ele>
        <time>2019-09-05T10:43:23Z</time>
      </trkpt>
      <trkpt lat="45.7451609" lon="6.7913330">
        <ele>2279.01</ele>
        <time>2019-09-05T10:43:37Z</time>
      </trkpt>
      <trkpt lat="45.7452658" lon="6.7913210">
        <ele>2280.92</ele>
        <time>2019-09-05T10:43:49Z</time>
      </trkpt>
      <trkpt lat="45.7453552" lon="6.7913565">
        <ele>2281.93</ele>
        <time>2019-09-05T10:44:01Z</time>
      </trkpt>
      <trkpt lat="45.7454485" lon="6.7913786">
        <ele>2286.68</ele>
        <time>2019-09-05T10:44:15Z</time>
      </trkpt>
      <trkpt lat="45.7455358" lon="6.7914141">
        <ele>2289.92</ele>
        <time>2019-09-05T10:44:31Z</time>
      </trkpt>
      <trkpt lat="45.7456338" lon="6.7914366">
        <ele>2291.92</ele>
        <time>2019-09-05T10:44:47Z</time>
      </trkpt>
      <trkpt lat="45.7457352" lon="6.7914696">
        <ele>2294.71</ele>
        <time>2019-09-05T10:45:03Z</time>
      </trkpt>
      <trkpt lat="45.7458314" lon="6.7915181">
        <ele>2296.99</ele>
        <time>2019-09-05T10:45:17Z</time>
      </trkpt>
      <trkpt lat="45.7458625" lon="6.7916418">
        <ele>2303.08</ele>
        <time>2019-09-05T10:46:20Z</time>
      </trkpt>
      <trkpt lat="45.7458887" lon="6.7917840">
        <ele>2302.01</ele>
        <time>2019-09-05T10:46:36Z</time>
      </trkpt>
      <trkpt lat="45.7459638" lon="6.7917109">
        <ele>2302.11</ele>
        <time>2019-09-05T10:50:18Z</time>
      </trkpt>
      <trkpt lat="45.7458859" lon="6.7917759">
        <ele>2299.05</ele>
        <time>2019-09-05T10:52:09Z</time>
      </trkpt>
      <trkpt lat="45.7459893" lon="6.7918202">
        <ele>2302.62</ele>
        <time>2019-09-05T10:52:41Z</time>
      </trkpt>
      <trkpt lat="45.7460282" lon="6.7919411">
        <ele>2306.70</ele>
        <time>2019-09-05T10:52:51Z</time>
      </trkpt>
      <trkpt lat="45.7460340" lon="6.7920851">
        <ele>2308.63</ele>
        <time>2019-09-05T10:53:05Z</time>
      </trkpt>
      <trkpt lat="45.7460281" lon="6.7922256">
        <ele>2310.73</ele>
        <time>2019-09-05T10:53:17Z</time>
      </trkpt>
      <trkpt lat="45.7460398" lon="6.7923694">
        <ele>2311.99</ele>
        <time>2019-09-05T10:53:33Z</time>
      </trkpt>
      <trkpt lat="45.7460617" lon="6.7924996">
        <ele>2312.74</ele>
        <time>2019-09-05T10:53:47Z</time>
      </trkpt>
      <trkpt lat="45.7460724" lon="6.7926489">
        <ele>2314.01</ele>
        <time>2019-09-05T10:54:05Z</time>
      </trkpt>
      <trkpt lat="45.7461250" lon="6.7927825">
        <ele>2316.62</ele>
        <time>2019-09-05T10:54:19Z</time>
      </trkpt>
      <trkpt lat="45.7461693" lon="6.7929052">
        <ele>2317.01</ele>
        <time>2019-09-05T10:54:31Z</time>
      </trkpt>
      <trkpt lat="45.7462142" lon="6.7930423">
        <ele>2318.71</ele>
        <time>2019-09-05T10:54:45Z</time>
      </trkpt>
      <trkpt lat="45.7462424" lon="6.7931839">
        <ele>2321.90</ele>
        <time>2019-09-05T10:54:57Z</time>
      </trkpt>
      <trkpt lat="45.7462595" lon="6.7933139">
        <ele>2323.99</ele>
        <time>2019-09-05T10:55:09Z</time>
      </trkpt>
      <trkpt lat="45.7462862" lon="6.7934403">
        <ele>2325.92</ele>
        <time>2019-09-05T10:55:23Z</time>
      </trkpt>
      <trkpt lat="45.7463393" lon="6.7935630">
        <ele>2328.01</ele>
        <time>2019-09-05T10:55:37Z</time>
      </trkpt>
      <trkpt lat="45.7463912" lon="6.7936878">
        <ele>2330.01</ele>
        <time>2019-09-05T10:55:51Z</time>
      </trkpt>
      <trkpt lat="45.7464654" lon="6.7937894">
        <ele>2331.92</ele>
        <time>2019-09-05T10:56:03Z</time>
      </trkpt>
      <trkpt lat="45.7465231" lon="6.7939089">
        <ele>2333.01</ele>
        <time>2019-09-05T10:56:15Z</time>
      </trkpt>
      <trkpt lat="45.7465654" lon="6.7940336">
        <ele>2336.60</ele>
        <time>2019-09-05T10:56:27Z</time>
      </trkpt>
      <trkpt lat="45.7466077" lon="6.7941578">
        <ele>2337.99</ele>
        <time>2019-09-05T10:56:41Z</time>
      </trkpt>
      <trkpt lat="45.7466409" lon="6.7942969">
        <ele>2340.01</ele>
        <time>2019-09-05T10:56:55Z</time>
      </trkpt>
      <trkpt lat="45.7466786" lon="6.7944317">
        <ele>2341.99</ele>
        <time>2019-09-05T10:57:07Z</time>
      </trkpt>
      <trkpt lat="45.7466974" lon="6.7945596">
        <ele>2344.01</ele>
        <time>2019-09-05T10:57:19Z</time>
      </trkpt>
      <trkpt lat="45.7467399" lon="6.7946876">
        <ele>2344.95</ele>
        <time>2019-09-05T10:57:33Z</time>
      </trkpt>
      <trkpt lat="45.7467764" lon="6.7948268">
        <ele>2347.00</ele>
        <time>2019-09-05T10:57:47Z</time>
      </trkpt>
      <trkpt lat="45.7468203" lon="6.7949487">
        <ele>2347.99</ele>
        <time>2019-09-05T10:57:59Z</time>
      </trkpt>
      <trkpt lat="45.7468402" lon="6.7950748">
        <ele>2349.99</ele>
        <time>2019-09-05T10:58:11Z</time>
      </trkpt>
      <trkpt lat="45.7468957" lon="6.7951853">
        <ele>2352.71</ele>
        <time>2019-09-05T10:58:23Z</time>
      </trkpt>
      <trkpt lat="45.7469544" lon="6.7952887">
        <ele>2354.92</ele>
        <time>2019-09-05T10:58:35Z</time>
      </trkpt>
      <trkpt lat="45.7470161" lon="6.7953870">
        <ele>2356.99</ele>
        <time>2019-09-05T10:58:47Z</time>
      </trkpt>
      <trkpt lat="45.7470675" lon="6.7954940">
        <ele>2357.71</ele>
        <time>2019-09-05T10:58:57Z</time>
      </trkpt>
      <trkpt lat="45.7471302" lon="6.7955989">
        <ele>2357.31</ele>
        <time>2019-09-05T10:59:09Z</time>
      </trkpt>
      <trkpt lat="45.7471908" lon="6.7957068">
        <ele>2358.92</ele>
        <time>2019-09-05T10:59:19Z</time>
      </trkpt>
      <trkpt lat="45.7472428" lon="6.7958184">
        <ele>2360.01</ele>
        <time>2019-09-05T10:59:29Z</time>
      </trkpt>
      <trkpt lat="45.7473100" lon="6.7959428">
        <ele>2361.92</ele>
        <time>2019-09-05T10:59:41Z</time>
      </trkpt>
      <trkpt lat="45.7473343" lon="6.7960679">
        <ele>2362.92</ele>
        <time>2019-09-05T10:59:51Z</time>
      </trkpt>
      <trkpt lat="45.7473554" lon="6.7961952">
        <ele>2365.70</ele>
        <time>2019-09-05T11:00:01Z</time>
      </trkpt>
      <trkpt lat="45.7473927" lon="6.7963273">
        <ele>2368.62</ele>
        <time>2019-09-05T11:00:13Z</time>
      </trkpt>
      <trkpt lat="45.7474334" lon="6.7964601">
        <ele>2369.93</ele>
        <time>2019-09-05T11:00:25Z</time>
      </trkpt>
      <trkpt lat="45.7474935" lon="6.7965796">
        <ele>2371.01</ele>
        <time>2019-09-05T11:00:37Z</time>
      </trkpt>
      <trkpt lat="45.7475452" lon="6.7966876">
        <ele>2370.80</ele>
        <time>2019-09-05T11:00:47Z</time>
      </trkpt>
      <trkpt lat="45.7476022" lon="6.7968126">
        <ele>2371.22</ele>
        <time>2019-09-05T11:00:59Z</time>
      </trkpt>
      <trkpt lat="45.7476414" lon="6.7969319">
        <ele>2372.01</ele>
        <time>2019-09-05T11:01:09Z</time>
      </trkpt>
      <trkpt lat="45.7476939" lon="6.7970406">
        <ele>2373.92</ele>
        <time>2019-09-05T11:01:19Z</time>
      </trkpt>
      <trkpt lat="45.7477574" lon="6.7971494">
        <ele>2376.69</ele>
        <time>2019-09-05T11:01:31Z</time>
      </trkpt>
      <trkpt lat="45.7478278" lon="6.7972621">
        <ele>2378.01</ele>
        <time>2019-09-05T11:01:43Z</time>
      </trkpt>
      <trkpt lat="45.7478887" lon="6.7973589">
        <ele>2379.71</ele>
        <time>2019-09-05T11:01:53Z</time>
      </trkpt>
      <trkpt lat="45.7479512" lon="6.7974777">
        <ele>2380.92</ele>
        <time>2019-09-05T11:02:05Z</time>
      </trkpt>
      <trkpt lat="45.7480294" lon="6.7975685">
        <ele>2382.01</ele>
        <time>2019-09-05T11:02:19Z</time>
      </trkpt>
      <trkpt lat="45.7481212" lon="6.7976147">
        <ele>2383.01</ele>
        <time>2019-09-05T11:02:33Z</time>
      </trkpt>
      <trkpt lat="45.7482029" lon="6.7976752">
        <ele>2384.99</ele>
        <time>2019-09-05T11:02:47Z</time>
      </trkpt>
      <trkpt lat="45.7482423" lon="6.7978042">
        <ele>2387.21</ele>
        <time>2019-09-05T11:03:01Z</time>
      </trkpt>
      <trkpt lat="45.7482861" lon="6.7979213">
        <ele>2389.71</ele>
        <time>2019-09-05T11:03:13Z</time>
      </trkpt>
      <trkpt lat="45.7483288" lon="6.7980356">
        <ele>2392.90</ele>
        <time>2019-09-05T11:03:25Z</time>
      </trkpt>
      <trkpt lat="45.7483843" lon="6.7981589">
        <ele>2395.92</ele>
        <time>2019-09-05T11:03:39Z</time>
      </trkpt>
      <trkpt lat="45.7484532" lon="6.7982665">
        <ele>2398.99</ele>
        <time>2019-09-05T11:03:55Z</time>
      </trkpt>
      <trkpt lat="45.7485067" lon="6.7983834">
        <ele>2402.92</ele>
        <time>2019-09-05T11:04:09Z</time>
      </trkpt>
      <trkpt lat="45.7485368" lon="6.7985281">
        <ele>2403.99</ele>
        <time>2019-09-05T11:04:23Z</time>
      </trkpt>
      <trkpt lat="45.7485512" lon="6.7986607">
        <ele>2405.71</ele>
        <time>2019-09-05T11:04:35Z</time>
      </trkpt>
      <trkpt lat="45.7485813" lon="6.7987889">
        <ele>2409.68</ele>
        <time>2019-09-05T11:04:47Z</time>
      </trkpt>
      <trkpt lat="45.7486034" lon="6.7989185">
        <ele>2411.92</ele>
        <time>2019-09-05T11:05:03Z</time>
      </trkpt>
      <trkpt lat="45.7486404" lon="6.7990488">
        <ele>2412.99</ele>
        <time>2019-09-05T11:05:13Z</time>
      </trkpt>
      <trkpt lat="45.7486579" lon="6.7991819">
        <ele>2413.93</ele>
        <time>2019-09-05T11:05:23Z</time>
      </trkpt>
      <trkpt lat="45.7486811" lon="6.7993134">
        <ele>2415.92</ele>
        <time>2019-09-05T11:05:33Z</time>
      </trkpt>
      <trkpt lat="45.7487264" lon="6.7994355">
        <ele>2422.01</ele>
        <time>2019-09-05T11:08:43Z</time>
      </trkpt>
      <trkpt lat="45.7487725" lon="6.7995668">
        <ele>2420.11</ele>
        <time>2019-09-05T11:08:55Z</time>
      </trkpt>
      <trkpt lat="45.7488443" lon="6.7996568">
        <ele>2421.92</ele>
        <time>2019-09-05T11:09:07Z</time>
      </trkpt>
      <trkpt lat="45.7488688" lon="6.7997815">
        <ele>2423.92</ele>
        <time>2019-09-05T11:09:21Z</time>
      </trkpt>
      <trkpt lat="45.7489040" lon="6.7999119">
        <ele>2425.03</ele>
        <time>2019-09-05T11:09:37Z</time>
      </trkpt>
      <trkpt lat="45.7489462" lon="6.8000298">
        <ele>2425.01</ele>
        <time>2019-09-05T11:09:49Z</time>
      </trkpt>
      <trkpt lat="45.7489869" lon="6.8001465">
        <ele>2425.01</ele>
        <time>2019-09-05T11:10:05Z</time>
      </trkpt>
      <trkpt lat="45.7490351" lon="6.8002761">
        <ele>2425.71</ele>
        <time>2019-09-05T11:10:17Z</time>
      </trkpt>
      <trkpt lat="45.7490840" lon="6.8004123">
        <ele>2427.01</ele>
        <time>2019-09-05T11:10:33Z</time>
      </trkpt>
      <trkpt lat="45.7491258" lon="6.8005421">
        <ele>2427.99</ele>
        <time>2019-09-05T11:10:45Z</time>
      </trkpt>
      <trkpt lat="45.7491629" lon="6.8006696">
        <ele>2430.71</ele>
        <time>2019-09-05T11:10:59Z</time>
      </trkpt>
      <trkpt lat="45.7492005" lon="6.8008133">
        <ele>2432.92</ele>
        <time>2019-09-05T11:11:13Z</time>
      </trkpt>
      <trkpt lat="45.7492459" lon="6.8009261">
        <ele>2435.92</ele>
        <time>2019-09-05T11:11:25Z</time>
      </trkpt>
      <trkpt lat="45.7492811" lon="6.8010582">
        <ele>2437.98</ele>
        <time>2019-09-05T11:11:39Z</time>
      </trkpt>
      <trkpt lat="45.7493365" lon="6.8011828">
        <ele>2439.92</ele>
        <time>2019-09-05T11:11:51Z</time>
      </trkpt>
      <trkpt lat="45.7493860" lon="6.8012997">
        <ele>2442.01</ele>
        <time>2019-09-05T11:12:03Z</time>
      </trkpt>
      <trkpt lat="45.7494288" lon="6.8014362">
        <ele>2443.01</ele>
        <time>2019-09-05T11:12:15Z</time>
      </trkpt>
      <trkpt lat="45.7494344" lon="6.8015719">
        <ele>2444.98</ele>
        <time>2019-09-05T11:12:27Z</time>
      </trkpt>
      <trkpt lat="45.7494446" lon="6.8017037">
        <ele>2446.69</ele>
        <time>2019-09-05T11:12:39Z</time>
      </trkpt>
      <trkpt lat="45.7494736" lon="6.8018446">
        <ele>2446.95</ele>
        <time>2019-09-05T11:12:53Z</time>
      </trkpt>
      <trkpt lat="45.7495325" lon="6.8019697">
        <ele>2447.71</ele>
        <time>2019-09-05T11:13:03Z</time>
      </trkpt>
      <trkpt lat="45.7495858" lon="6.8021029">
        <ele>2450.83</ele>
        <time>2019-09-05T11:13:15Z</time>
      </trkpt>
      <trkpt lat="45.7496007" lon="6.8022468">
        <ele>2453.01</ele>
        <time>2019-09-05T11:13:35Z</time>
      </trkpt>
      <trkpt lat="45.7496423" lon="6.8023624">
        <ele>2454.03</ele>
        <time>2019-09-05T11:13:47Z</time>
      </trkpt>
      <trkpt lat="45.7496867" lon="6.8024796">
        <ele>2455.01</ele>
        <time>2019-09-05T11:13:57Z</time>
      </trkpt>
      <trkpt lat="45.7497260" lon="6.8026068">
        <ele>2455.01</ele>
        <time>2019-09-05T11:14:07Z</time>
      </trkpt>
      <trkpt lat="45.7497595" lon="6.8027355">
        <ele>2456.01</ele>
        <time>2019-09-05T11:14:19Z</time>
      </trkpt>
      <trkpt lat="45.7498098" lon="6.8028528">
        <ele>2457.01</ele>
        <time>2019-09-05T11:14:31Z</time>
      </trkpt>
      <trkpt lat="45.7498505" lon="6.8029949">
        <ele>2459.01</ele>
        <time>2019-09-05T11:14:43Z</time>
      </trkpt>
      <trkpt lat="45.7498928" lon="6.8031144">
        <ele>2460.99</ele>
        <time>2019-09-05T11:14:55Z</time>
      </trkpt>
      <trkpt lat="45.7499410" lon="6.8032474">
        <ele>2462.69</ele>
        <time>2019-09-05T11:15:05Z</time>
      </trkpt>
      <trkpt lat="45.7500078" lon="6.8033425">
        <ele>2463.64</ele>
        <time>2019-09-05T11:15:17Z</time>
      </trkpt>
      <trkpt lat="45.7500583" lon="6.8034680">
        <ele>2466.61</ele>
        <time>2019-09-05T11:15:29Z</time>
      </trkpt>
      <trkpt lat="45.7500928" lon="6.8035876">
        <ele>2468.84</ele>
        <time>2019-09-05T11:15:39Z</time>
      </trkpt>
      <trkpt lat="45.7501456" lon="6.8037014">
        <ele>2469.91</ele>
        <time>2019-09-05T11:15:49Z</time>
      </trkpt>
      <trkpt lat="45.7502124" lon="6.8037975">
        <ele>2470.93</ele>
        <time>2019-09-05T11:15:59Z</time>
      </trkpt>
      <trkpt lat="45.7502684" lon="6.8039318">
        <ele>2472.85</ele>
        <time>2019-09-05T11:16:11Z</time>
      </trkpt>
      <trkpt lat="45.7503390" lon="6.8040350">
        <ele>2474.85</ele>
        <time>2019-09-05T11:16:21Z</time>
      </trkpt>
      <trkpt lat="45.7503868" lon="6.8041477">
        <ele>2475.93</ele>
        <time>2019-09-05T11:16:33Z</time>
      </trkpt>
      <trkpt lat="45.7504369" lon="6.8042594">
        <ele>2475.94</ele>
        <time>2019-09-05T11:16:43Z</time>
      </trkpt>
      <trkpt lat="45.7505056" lon="6.8043603">
        <ele>2476.64</ele>
        <time>2019-09-05T11:16:53Z</time>
      </trkpt>
      <trkpt lat="45.7505758" lon="6.8044651">
        <ele>2477.93</ele>
        <time>2019-09-05T11:17:03Z</time>
      </trkpt>
      <trkpt lat="45.7506410" lon="6.8045780">
        <ele>2477.94</ele>
        <time>2019-09-05T11:17:13Z</time>
      </trkpt>
      <trkpt lat="45.7507016" lon="6.8046935">
        <ele>2479.64</ele>
        <time>2019-09-05T11:17:23Z</time>
      </trkpt>
      <trkpt lat="45.7507337" lon="6.8048341">
        <ele>2481.82</ele>
        <time>2019-09-05T11:17:37Z</time>
      </trkpt>
      <trkpt lat="45.7507716" lon="6.8049704">
        <ele>2481.94</ele>
        <time>2019-09-05T11:17:49Z</time>
      </trkpt>
      <trkpt lat="45.7508009" lon="6.8050933">
        <ele>2483.63</ele>
        <time>2019-09-05T11:17:59Z</time>
      </trkpt>
      <trkpt lat="45.7508389" lon="6.8052181">
        <ele>2484.94</ele>
        <time>2019-09-05T11:18:11Z</time>
      </trkpt>
      <trkpt lat="45.7508803" lon="6.8053410">
        <ele>2486.91</ele>
        <time>2019-09-05T11:18:23Z</time>
      </trkpt>
      <trkpt lat="45.7509440" lon="6.8054487">
        <ele>2488.93</ele>
        <time>2019-09-05T11:18:33Z</time>
      </trkpt>
      <trkpt lat="45.7510121" lon="6.8055573">
        <ele>2489.94</ele>
        <time>2019-09-05T11:18:45Z</time>
      </trkpt>
      <trkpt lat="45.7510768" lon="6.8056626">
        <ele>2491.91</ele>
        <time>2019-09-05T11:18:57Z</time>
      </trkpt>
      <trkpt lat="45.7511452" lon="6.8057542">
        <ele>2491.94</ele>
        <time>2019-09-05T11:19:07Z</time>
      </trkpt>
      <trkpt lat="45.7512153" lon="6.8058693">
        <ele>2492.85</ele>
        <time>2019-09-05T11:19:19Z</time>
      </trkpt>
      <trkpt lat="45.7512630" lon="6.8060003">
        <ele>2495.93</ele>
        <time>2019-09-05T11:19:31Z</time>
      </trkpt>
      <trkpt lat="45.7513058" lon="6.8061218">
        <ele>2497.62</ele>
        <time>2019-09-05T11:19:43Z</time>
      </trkpt>
      <trkpt lat="45.7513769" lon="6.8062217">
        <ele>2497.94</ele>
        <time>2019-09-05T11:19:53Z</time>
      </trkpt>
      <trkpt lat="45.7514328" lon="6.8063360">
        <ele>2498.93</ele>
        <time>2019-09-05T11:20:07Z</time>
      </trkpt>
      <trkpt lat="45.7514633" lon="6.8064758">
        <ele>2500.85</ele>
        <time>2019-09-05T11:20:19Z</time>
      </trkpt>
      <trkpt lat="45.7514655" lon="6.8066253">
        <ele>2501.64</ele>
        <time>2019-09-05T11:20:31Z</time>
      </trkpt>
      <trkpt lat="45.7514680" lon="6.8067576">
        <ele>2503.63</ele>
        <time>2019-09-05T11:20:43Z</time>
      </trkpt>
      <trkpt lat="45.7514533" lon="6.8068948">
        <ele>2506.92</ele>
        <time>2019-09-05T11:21:27Z</time>
      </trkpt>
      <trkpt lat="45.7514107" lon="6.8070092">
        <ele>2509.85</ele>
        <time>2019-09-05T11:21:39Z</time>
      </trkpt>
      <trkpt lat="45.7513663" lon="6.8071300">
        <ele>2510.94</ele>
        <time>2019-09-05T11:21:51Z</time>
      </trkpt>
      <trkpt lat="45.7512879" lon="6.8072184">
        <ele>2512.91</ele>
        <time>2019-09-05T11:22:03Z</time>
      </trkpt>
      <trkpt lat="45.7513140" lon="6.8073464">
        <ele>2515.18</ele>
        <time>2019-09-05T11:26:45Z</time>
      </trkpt>
      <trkpt lat="45.7512570" lon="6.8074518">
        <ele>2512.07</ele>
        <time>2019-09-05T11:26:57Z</time>
      </trkpt>
      <trkpt lat="45.7512485" lon="6.8076027">
        <ele>2509.06</ele>
        <time>2019-09-05T11:27:09Z</time>
      </trkpt>
      <trkpt lat="45.7511578" lon="6.8076914">
        <ele>2506.25</ele>
        <time>2019-09-05T11:27:21Z</time>
      </trkpt>
      <trkpt lat="45.7510452" lon="6.8077433">
        <ele>2504.97</ele>
        <time>2019-09-05T11:27:29Z</time>
      </trkpt>
      <trkpt lat="45.7509452" lon="6.8077952">
        <ele>2507.25</ele>
        <time>2019-09-05T11:27:35Z</time>
      </trkpt>
      <trkpt lat="45.7509190" lon="6.8079389">
        <ele>2505.04</ele>
        <time>2019-09-05T11:27:45Z</time>
      </trkpt>
      <trkpt lat="45.7509277" lon="6.8080893">
        <ele>2504.86</ele>
        <time>2019-09-05T11:27:55Z</time>
      </trkpt>
      <trkpt lat="45.7509822" lon="6.8082300">
        <ele>2504.03</ele>
        <time>2019-09-05T11:28:05Z</time>
      </trkpt>
      <trkpt lat="45.7510350" lon="6.8083634">
        <ele>2502.03</ele>
        <time>2019-09-05T11:28:19Z</time>
      </trkpt>
      <trkpt lat="45.7510705" lon="6.8084856">
        <ele>2500.25</ele>
        <time>2019-09-05T11:28:29Z</time>
      </trkpt>
      <trkpt lat="45.7511087" lon="6.8086037">
        <ele>2499.03</ele>
        <time>2019-09-05T11:28:37Z</time>
      </trkpt>
      <trkpt lat="45.7511426" lon="6.8087357">
        <ele>2496.97</ele>
        <time>2019-09-05T11:28:47Z</time>
      </trkpt>
      <trkpt lat="45.7511520" lon="6.8088805">
        <ele>2495.24</ele>
        <time>2019-09-05T11:28:57Z</time>
      </trkpt>
      <trkpt lat="45.7511400" lon="6.8090159">
        <ele>2493.97</ele>
        <time>2019-09-05T11:29:07Z</time>
      </trkpt>
      <trkpt lat="45.7511587" lon="6.8091568">
        <ele>2492.04</ele>
        <time>2019-09-05T11:29:15Z</time>
      </trkpt>
      <trkpt lat="45.7512045" lon="6.8092818">
        <ele>2490.95</ele>
        <time>2019-09-05T11:29:23Z</time>
      </trkpt>
      <trkpt lat="45.7512382" lon="6.8094134">
        <ele>2490.03</ele>
        <time>2019-09-05T11:29:33Z</time>
      </trkpt>
      <trkpt lat="45.7512517" lon="6.8095556">
        <ele>2487.04</ele>
        <time>2019-09-05T11:29:43Z</time>
      </trkpt>
      <trkpt lat="45.7512926" lon="6.8096924">
        <ele>2485.94</ele>
        <time>2019-09-05T11:29:55Z</time>
      </trkpt>
      <trkpt lat="45.7513309" lon="6.8098185">
        <ele>2484.06</ele>
        <time>2019-09-05T11:30:05Z</time>
      </trkpt>
      <trkpt lat="45.7513847" lon="6.8099541">
        <ele>2482.26</ele>
        <time>2019-09-05T11:30:15Z</time>
      </trkpt>
      <trkpt lat="45.7514251" lon="6.8100800">
        <ele>2481.24</ele>
        <time>2019-09-05T11:30:23Z</time>
      </trkpt>
      <trkpt lat="45.7514724" lon="6.8102255">
        <ele>2479.04</ele>
        <time>2019-09-05T11:30:33Z</time>
      </trkpt>
      <trkpt lat="45.7515200" lon="6.8103613">
        <ele>2477.73</ele>
        <time>2019-09-05T11:30:43Z</time>
      </trkpt>
      <trkpt lat="45.7515091" lon="6.8104921">
        <ele>2476.03</ele>
        <time>2019-09-05T11:30:55Z</time>
      </trkpt>
      <trkpt lat="45.7515170" lon="6.8106264">
        <ele>2473.33</ele>
        <time>2019-09-05T11:31:07Z</time>
      </trkpt>
      <trkpt lat="45.7515646" lon="6.8107539">
        <ele>2471.04</ele>
        <time>2019-09-05T11:31:17Z</time>
      </trkpt>
      <trkpt lat="45.7515984" lon="6.8108997">
        <ele>2470.03</ele>
        <time>2019-09-05T11:31:27Z</time>
      </trkpt>
      <trkpt lat="45.7516014" lon="6.8110434">
        <ele>2467.33</ele>
        <time>2019-09-05T11:31:37Z</time>
      </trkpt>
      <trkpt lat="45.7516270" lon="6.8111704">
        <ele>2465.27</ele>
        <time>2019-09-05T11:31:49Z</time>
      </trkpt>
      <trkpt lat="45.7516358" lon="6.8113063">
        <ele>2463.97</ele>
        <time>2019-09-05T11:32:29Z</time>
      </trkpt>
      <trkpt lat="45.7516524" lon="6.8114353">
        <ele>2463.03</ele>
        <time>2019-09-05T11:32:47Z</time>
      </trkpt>
      <trkpt lat="45.7516725" lon="6.8115810">
        <ele>2459.28</ele>
        <time>2019-09-05T11:33:01Z</time>
      </trkpt>
      <trkpt lat="45.7516947" lon="6.8117170">
        <ele>2457.04</ele>
        <time>2019-09-05T11:33:15Z</time>
      </trkpt>
      <trkpt lat="45.7516409" lon="6.8118240">
        <ele>2450.16</ele>
        <time>2019-09-05T11:33:29Z</time>
      </trkpt>
      <trkpt lat="45.7515842" lon="6.8119337">
        <ele>2445.74</ele>
        <time>2019-09-05T11:34:05Z</time>
      </trkpt>
      <trkpt lat="45.7515292" lon="6.8120607">
        <ele>2445.33</ele>
        <time>2019-09-05T11:35:15Z</time>
      </trkpt>
      <trkpt lat="45.7515177" lon="6.8122106">
        <ele>2441.34</ele>
        <time>2019-09-05T11:35:27Z</time>
      </trkpt>
      <trkpt lat="45.7515312" lon="6.8123503">
        <ele>2438.07</ele>
        <time>2019-09-05T11:35:37Z</time>
      </trkpt>
      <trkpt lat="45.7515655" lon="6.8124822">
        <ele>2435.98</ele>
        <time>2019-09-05T11:35:45Z</time>
      </trkpt>
      <trkpt lat="45.7515825" lon="6.8126426">
        <ele>2433.07</ele>
        <time>2019-09-05T11:35:55Z</time>
      </trkpt>
      <trkpt lat="45.7515993" lon="6.8127846">
        <ele>2431.04</ele>
        <time>2019-09-05T11:36:03Z</time>
      </trkpt>
      <trkpt lat="45.7516211" lon="6.8129292">
        <ele>2429.97</ele>
        <time>2019-09-05T11:36:11Z</time>
      </trkpt>
      <trkpt lat="45.7516544" lon="6.8130773">
        <ele>2428.27</ele>
        <time>2019-09-05T11:36:21Z</time>
      </trkpt>
      <trkpt lat="45.7517078" lon="6.8132243">
        <ele>2427.94</ele>
        <time>2019-09-05T11:36:31Z</time>
      </trkpt>
      <trkpt lat="45.7517478" lon="6.8133508">
        <ele>2426.95</ele>
        <time>2019-09-05T11:36:39Z</time>
      </trkpt>
      <trkpt lat="45.7517514" lon="6.8134956">
        <ele>2424.98</ele>
        <time>2019-09-05T11:36:51Z</time>
      </trkpt>
      <trkpt lat="45.7517952" lon="6.8136169">
        <ele>2422.27</ele>
        <time>2019-09-05T11:37:03Z</time>
      </trkpt>
      <trkpt lat="45.7518455" lon="6.8137460">
        <ele>2420.27</ele>
        <time>2019-09-05T11:37:15Z</time>
      </trkpt>
      <trkpt lat="45.7518815" lon="6.8138681">
        <ele>2419.05</ele>
        <time>2019-09-05T11:37:23Z</time>
      </trkpt>
      <trkpt lat="45.7519143" lon="6.8140109">
        <ele>2416.04</ele>
        <time>2019-09-05T11:37:35Z</time>
      </trkpt>
      <trkpt lat="45.7519720" lon="6.8141145">
        <ele>2414.06</ele>
        <time>2019-09-05T11:37:45Z</time>
      </trkpt>
      <trkpt lat="45.7520159" lon="6.8142312">
        <ele>2412.03</ele>
        <time>2019-09-05T11:37:55Z</time>
      </trkpt>
      <trkpt lat="45.7520638" lon="6.8143666">
        <ele>2409.57</ele>
        <time>2019-09-05T11:38:05Z</time>
      </trkpt>
      <trkpt lat="45.7521307" lon="6.8144546">
        <ele>2406.58</ele>
        <time>2019-09-05T11:38:21Z</time>
      </trkpt>
      <trkpt lat="45.7521932" lon="6.8145648">
        <ele>2397.25</ele>
        <time>2019-09-05T11:39:43Z</time>
      </trkpt>
      <trkpt lat="45.7522600" lon="6.8146769">
        <ele>2400.61</ele>
        <time>2019-09-05T11:39:53Z</time>
      </trkpt>
      <trkpt lat="45.7523208" lon="6.8147736">
        <ele>2398.28</ele>
        <time>2019-09-05T11:40:03Z</time>
      </trkpt>
      <trkpt lat="45.7523883" lon="6.8148847">
        <ele>2397.23</ele>
        <time>2019-09-05T11:40:11Z</time>
      </trkpt>
      <trkpt lat="45.7524387" lon="6.8149920">
        <ele>2396.03</ele>
        <time>2019-09-05T11:40:19Z</time>
      </trkpt>
      <trkpt lat="45.7524685" lon="6.8151166">
        <ele>2394.04</ele>
        <time>2019-09-05T11:40:27Z</time>
      </trkpt>
      <trkpt lat="45.7525018" lon="6.8152598">
        <ele>2391.27</ele>
        <time>2019-09-05T11:40:37Z</time>
      </trkpt>
      <trkpt lat="45.7525447" lon="6.8153933">
        <ele>2388.13</ele>
        <time>2019-09-05T11:40:47Z</time>
      </trkpt>
      <trkpt lat="45.7525715" lon="6.8155317">
        <ele>2381.74</ele>
        <time>2019-09-05T11:40:57Z</time>
      </trkpt>
      <trkpt lat="45.7525726" lon="6.8156670">
        <ele>2374.44</ele>
        <time>2019-09-05T11:41:19Z</time>
      </trkpt>
      <trkpt lat="45.7524669" lon="6.8157275">
        <ele>2372.33</ele>
        <time>2019-09-05T11:41:35Z</time>
      </trkpt>
      <trkpt lat="45.7524406" lon="6.8158611">
        <ele>2371.03</ele>
        <time>2019-09-05T11:41:45Z</time>
      </trkpt>
      <trkpt lat="45.7524023" lon="6.8159855">
        <ele>2368.94</ele>
        <time>2019-09-05T11:41:53Z</time>
      </trkpt>
      <trkpt lat="45.7523748" lon="6.8161326">
        <ele>2369.43</ele>
        <time>2019-09-05T11:42:21Z</time>
      </trkpt>
      <trkpt lat="45.7524677" lon="6.8160958">
        <ele>2363.02</ele>
        <time>2019-09-05T12:06:47Z</time>
      </trkpt>
      <trkpt lat="45.7525497" lon="6.8161561">
        <ele>2359.95</ele>
        <time>2019-09-05T12:07:01Z</time>
      </trkpt>
      <trkpt lat="45.7526192" lon="6.8162472">
        <ele>2360.28</ele>
        <time>2019-09-05T12:15:05Z</time>
      </trkpt>
      <trkpt lat="45.7526580" lon="6.8163818">
        <ele>2356.64</ele>
        <time>2019-09-05T12:15:15Z</time>
      </trkpt>
      <trkpt lat="45.7526036" lon="6.8164965">
        <ele>2353.84</ele>
        <time>2019-09-05T12:15:25Z</time>
      </trkpt>
      <trkpt lat="45.7525724" lon="6.8166318">
        <ele>2352.03</ele>
        <time>2019-09-05T12:15:35Z</time>
      </trkpt>
      <trkpt lat="45.7525901" lon="6.8167609">
        <ele>2350.24</ele>
        <time>2019-09-05T12:15:49Z</time>
      </trkpt>
      <trkpt lat="45.7526226" lon="6.8169025">
        <ele>2346.33</ele>
        <time>2019-09-05T12:16:03Z</time>
      </trkpt>
      <trkpt lat="45.7526082" lon="6.8170591">
        <ele>2343.34</ele>
        <time>2019-09-05T12:16:11Z</time>
      </trkpt>
      <trkpt lat="45.7525775" lon="6.8171928">
        <ele>2341.27</ele>
        <time>2019-09-05T12:16:19Z</time>
      </trkpt>
      <trkpt lat="45.7526117" lon="6.8173344">
        <ele>2338.28</ele>
        <time>2019-09-05T12:16:33Z</time>
      </trkpt>
      <trkpt lat="45.7525886" lon="6.8174820">
        <ele>2336.04</ele>
        <time>2019-09-05T12:16:43Z</time>
      </trkpt>
      <trkpt lat="45.7525428" lon="6.8176122">
        <ele>2333.97</ele>
        <time>2019-09-05T12:16:53Z</time>
      </trkpt>
      <trkpt lat="45.7525804" lon="6.8177354">
        <ele>2332.97</ele>
        <time>2019-09-05T12:17:01Z</time>
      </trkpt>
      <trkpt lat="45.7526257" lon="6.8178774">
        <ele>2330.04</ele>
        <time>2019-09-05T12:17:13Z</time>
      </trkpt>
      <trkpt lat="45.7526359" lon="6.8180104">
        <ele>2328.33</ele>
        <time>2019-09-05T12:17:25Z</time>
      </trkpt>
      <trkpt lat="45.7527433" lon="6.8180817">
        <ele>2323.04</ele>
        <time>2019-09-05T12:17:49Z</time>
      </trkpt>
      <trkpt lat="45.7528305" lon="6.8181295">
        <ele>2321.27</ele>
        <time>2019-09-05T12:17:55Z</time>
      </trkpt>
      <trkpt lat="45.7529407" lon="6.8181893">
        <ele>2319.27</ele>
        <time>2019-09-05T12:18:03Z</time>
      </trkpt>
      <trkpt lat="45.7530275" lon="6.8182901">
        <ele>2318.24</ele>
        <time>2019-09-05T12:18:11Z</time>
      </trkpt>
      <trkpt lat="45.7531099" lon="6.8183446">
        <ele>2317.03</ele>
        <time>2019-09-05T12:18:19Z</time>
      </trkpt>
      <trkpt lat="45.7532018" lon="6.8182972">
        <ele>2315.04</ele>
        <time>2019-09-05T12:18:27Z</time>
      </trkpt>
      <trkpt lat="45.7532768" lon="6.8181977">
        <ele>2312.34</ele>
        <time>2019-09-05T12:18:35Z</time>
      </trkpt>
      <trkpt lat="45.7533584" lon="6.8181250">
        <ele>2309.07</ele>
        <time>2019-09-05T12:18:45Z</time>
      </trkpt>
      <trkpt lat="45.7534246" lon="6.8182370">
        <ele>2307.86</ele>
        <time>2019-09-05T12:19:15Z</time>
      </trkpt>
      <trkpt lat="45.7534783" lon="6.8183623">
        <ele>2306.97</ele>
        <time>2019-09-05T12:19:25Z</time>
      </trkpt>
      <trkpt lat="45.7535484" lon="6.8184440">
        <ele>2306.94</ele>
        <time>2019-09-05T12:19:33Z</time>
      </trkpt>
      <trkpt lat="45.7536306" lon="6.8185259">
        <ele>2306.94</ele>
        <time>2019-09-05T12:19:41Z</time>
      </trkpt>
      <trkpt lat="45.7537245" lon="6.8186301">
        <ele>2306.94</ele>
        <time>2019-09-05T12:19:49Z</time>
      </trkpt>
      <trkpt lat="45.7537914" lon="6.8187390">
        <ele>2306.73</ele>
        <time>2019-09-05T12:19:57Z</time>
      </trkpt>
      <trkpt lat="45.7538623" lon="6.8188665">
        <ele>2305.94</ele>
        <time>2019-09-05T12:20:07Z</time>
      </trkpt>
      <trkpt lat="45.7539377" lon="6.8189846">
        <ele>2305.24</ele>
        <time>2019-09-05T12:20:15Z</time>
      </trkpt>
      <trkpt lat="45.7540432" lon="6.8189553">
        <ele>2302.34</ele>
        <time>2019-09-05T12:20:25Z</time>
      </trkpt>
      <trkpt lat="45.7541325" lon="6.8189844">
        <ele>2300.95</ele>
        <time>2019-09-05T12:20:35Z</time>
      </trkpt>
      <trkpt lat="45.7541952" lon="6.8191111">
        <ele>2300.94</ele>
        <time>2019-09-05T12:20:45Z</time>
      </trkpt>
      <trkpt lat="45.7541746" lon="6.8192601">
        <ele>2299.94</ele>
        <time>2019-09-05T12:20:55Z</time>
      </trkpt>
      <trkpt lat="45.7542194" lon="6.8193940">
        <ele>2300.15</ele>
        <time>2019-09-05T12:21:05Z</time>
      </trkpt>
      <trkpt lat="45.7542949" lon="6.8195037">
        <ele>2299.94</ele>
        <time>2019-09-05T12:21:15Z</time>
      </trkpt>
      <trkpt lat="45.7543532" lon="6.8196266">
        <ele>2298.95</ele>
        <time>2019-09-05T12:21:25Z</time>
      </trkpt>
      <trkpt lat="45.7543886" lon="6.8197458">
        <ele>2298.94</ele>
        <time>2019-09-05T12:21:33Z</time>
      </trkpt>
      <trkpt lat="45.7543895" lon="6.8198994">
        <ele>2298.03</ele>
        <time>2019-09-05T12:21:43Z</time>
      </trkpt>
      <trkpt lat="45.7543890" lon="6.8200373">
        <ele>2296.95</ele>
        <time>2019-09-05T12:21:51Z</time>
      </trkpt>
      <trkpt lat="45.7543974" lon="6.8201753">
        <ele>2297.85</ele>
        <time>2019-09-05T12:21:59Z</time>
      </trkpt>
      <trkpt lat="45.7543935" lon="6.8203274">
        <ele>2297.94</ele>
        <time>2019-09-05T12:22:07Z</time>
      </trkpt>
      <trkpt lat="45.7543963" lon="6.8204688">
        <ele>2297.24</ele>
        <time>2019-09-05T12:22:15Z</time>
      </trkpt>
      <trkpt lat="45.7543841" lon="6.8206017">
        <ele>2296.03</ele>
        <time>2019-09-05T12:22:23Z</time>
      </trkpt>
      <trkpt lat="45.7543772" lon="6.8207524">
        <ele>2294.95</ele>
        <time>2019-09-05T12:22:33Z</time>
      </trkpt>
      <trkpt lat="45.7543987" lon="6.8208840">
        <ele>2294.03</ele>
        <time>2019-09-05T12:22:41Z</time>
      </trkpt>
      <trkpt lat="45.7544261" lon="6.8210311">
        <ele>2293.94</ele>
        <time>2019-09-05T12:22:49Z</time>
      </trkpt>
      <trkpt lat="45.7544066" lon="6.8211770">
        <ele>2293.73</ele>
        <time>2019-09-05T12:22:59Z</time>
      </trkpt>
      <trkpt lat="45.7544052" lon="6.8213241">
        <ele>2292.94</ele>
        <time>2019-09-05T12:23:09Z</time>
      </trkpt>
      <trkpt lat="45.7544235" lon="6.8214705">
        <ele>2293.64</ele>
        <time>2019-09-05T12:23:17Z</time>
      </trkpt>
      <trkpt lat="45.7544451" lon="6.8216197">
        <ele>2293.94</ele>
        <time>2019-09-05T12:23:25Z</time>
      </trkpt>
      <trkpt lat="45.7544511" lon="6.8217533">
        <ele>2294.92</ele>
        <time>2019-09-05T12:23:33Z</time>
      </trkpt>
      <trkpt lat="45.7544661" lon="6.8218885">
        <ele>2293.03</ele>
        <time>2019-09-05T12:23:43Z</time>
      </trkpt>
      <trkpt lat="45.7545087" lon="6.8220384">
        <ele>2292.94</ele>
        <time>2019-09-05T12:23:51Z</time>
      </trkpt>
      <trkpt lat="45.7545653" lon="6.8221424">
        <ele>2292.94</ele>
        <time>2019-09-05T12:24:01Z</time>
      </trkpt>
      <trkpt lat="45.7546151" lon="6.8222661">
        <ele>2292.88</ele>
        <time>2019-09-05T12:24:09Z</time>
      </trkpt>
      <trkpt lat="45.7546661" lon="6.8223907">
        <ele>2292.94</ele>
        <time>2019-09-05T12:24:17Z</time>
      </trkpt>
      <trkpt lat="45.7547408" lon="6.8224774">
        <ele>2292.24</ele>
        <time>2019-09-05T12:24:25Z</time>
      </trkpt>
      <trkpt lat="45.7548254" lon="6.8225603">
        <ele>2291.03</ele>
        <time>2019-09-05T12:24:37Z</time>
      </trkpt>
      <trkpt lat="45.7548878" lon="6.8226924">
        <ele>2290.94</ele>
        <time>2019-09-05T12:24:45Z</time>
      </trkpt>
      <trkpt lat="45.7549387" lon="6.8228218">
        <ele>2290.94</ele>
        <time>2019-09-05T12:24:51Z</time>
      </trkpt>
      <trkpt lat="45.7549893" lon="6.8229672">
        <ele>2290.24</ele>
        <time>2019-09-05T12:24:59Z</time>
      </trkpt>
      <trkpt lat="45.7550470" lon="6.8230837">
        <ele>2290.03</ele>
        <time>2019-09-05T12:25:09Z</time>
      </trkpt>
      <trkpt lat="45.7550880" lon="6.8231986">
        <ele>2290.02</ele>
        <time>2019-09-05T12:25:19Z</time>
      </trkpt>
      <trkpt lat="45.7551569" lon="6.8232913">
        <ele>2289.94</ele>
        <time>2019-09-05T12:25:27Z</time>
      </trkpt>
      <trkpt lat="45.7552338" lon="6.8234183">
        <ele>2289.94</ele>
        <time>2019-09-05T12:25:35Z</time>
      </trkpt>
      <trkpt lat="45.7552790" lon="6.8235503">
        <ele>2289.94</ele>
        <time>2019-09-05T12:25:43Z</time>
      </trkpt>
      <trkpt lat="45.7553377" lon="6.8236606">
        <ele>2289.94</ele>
        <time>2019-09-05T12:25:53Z</time>
      </trkpt>
      <trkpt lat="45.7553878" lon="6.8237891">
        <ele>2288.94</ele>
        <time>2019-09-05T12:26:05Z</time>
      </trkpt>
      <trkpt lat="45.7554209" lon="6.8239290">
        <ele>2288.96</ele>
        <time>2019-09-05T12:26:13Z</time>
      </trkpt>
      <trkpt lat="45.7554327" lon="6.8240653">
        <ele>2287.95</ele>
        <time>2019-09-05T12:26:21Z</time>
      </trkpt>
      <trkpt lat="45.7554543" lon="6.8242063">
        <ele>2286.03</ele>
        <time>2019-09-05T12:26:31Z</time>
      </trkpt>
      <trkpt lat="45.7554939" lon="6.8243454">
        <ele>2285.94</ele>
        <time>2019-09-05T12:26:39Z</time>
      </trkpt>
      <trkpt lat="45.7555620" lon="6.8244473">
        <ele>2285.86</ele>
        <time>2019-09-05T12:26:49Z</time>
      </trkpt>
      <trkpt lat="45.7556148" lon="6.8245560">
        <ele>2285.03</ele>
        <time>2019-09-05T12:26:57Z</time>
      </trkpt>
      <trkpt lat="45.7556557" lon="6.8246722">
        <ele>2283.03</ele>
        <time>2019-09-05T12:27:07Z</time>
      </trkpt>
      <trkpt lat="45.7556980" lon="6.8248127">
        <ele>2281.24</ele>
        <time>2019-09-05T12:27:17Z</time>
      </trkpt>
      <trkpt lat="45.7557348" lon="6.8249483">
        <ele>2280.25</ele>
        <time>2019-09-05T12:27:27Z</time>
      </trkpt>
      <trkpt lat="45.7557996" lon="6.8250388">
        <ele>2278.34</ele>
        <time>2019-09-05T12:27:33Z</time>
      </trkpt>
      <trkpt lat="45.7558694" lon="6.8251204">
        <ele>2275.57</ele>
        <time>2019-09-05T12:27:41Z</time>
      </trkpt>
      <trkpt lat="45.7559375" lon="6.8252054">
        <ele>2273.06</ele>
        <time>2019-09-05T12:27:51Z</time>
      </trkpt>
      <trkpt lat="45.7560010" lon="6.8253136">
        <ele>2271.33</ele>
        <time>2019-09-05T12:28:01Z</time>
      </trkpt>
      <trkpt lat="45.7560816" lon="6.8254097">
        <ele>2269.95</ele>
        <time>2019-09-05T12:28:09Z</time>
      </trkpt>
      <trkpt lat="45.7561364" lon="6.8255232">
        <ele>2268.95</ele>
        <time>2019-09-05T12:28:19Z</time>
      </trkpt>
      <trkpt lat="45.7561899" lon="6.8256391">
        <ele>2268.94</ele>
        <time>2019-09-05T12:28:27Z</time>
      </trkpt>
      <trkpt lat="45.7562555" lon="6.8257553">
        <ele>2268.03</ele>
        <time>2019-09-05T12:28:35Z</time>
      </trkpt>
      <trkpt lat="45.7563089" lon="6.8258987">
        <ele>2266.94</ele>
        <time>2019-09-05T12:28:45Z</time>
      </trkpt>
      <trkpt lat="45.7563607" lon="6.8260114">
        <ele>2265.97</ele>
        <time>2019-09-05T12:28:53Z</time>
      </trkpt>
      <trkpt lat="45.7564261" lon="6.8261097">
        <ele>2264.97</ele>
        <time>2019-09-05T12:29:05Z</time>
      </trkpt>
      <trkpt lat="45.7564979" lon="6.8262388">
        <ele>2264.92</ele>
        <time>2019-09-05T12:29:15Z</time>
      </trkpt>
      <trkpt lat="45.7565761" lon="6.8263223">
        <ele>2262.97</ele>
        <time>2019-09-05T12:29:25Z</time>
      </trkpt>
      <trkpt lat="45.7566638" lon="6.8264342">
        <ele>2262.03</ele>
        <time>2019-09-05T12:29:35Z</time>
      </trkpt>
      <trkpt lat="45.7567266" lon="6.8265477">
        <ele>2260.24</ele>
        <time>2019-09-05T12:29:45Z</time>
      </trkpt>
      <trkpt lat="45.7568119" lon="6.8266295">
        <ele>2258.28</ele>
        <time>2019-09-05T12:29:51Z</time>
      </trkpt>
      <trkpt lat="45.7568955" lon="6.8267360">
        <ele>2255.03</ele>
        <time>2019-09-05T12:30:07Z</time>
      </trkpt>
      <trkpt lat="45.7569834" lon="6.8267762">
        <ele>2252.25</ele>
        <time>2019-09-05T12:30:17Z</time>
      </trkpt>
      <trkpt lat="45.7570727" lon="6.8268586">
        <ele>2250.07</ele>
        <time>2019-09-05T12:30:23Z</time>
      </trkpt>
      <trkpt lat="45.7571672" lon="6.8269320">
        <ele>2248.04</ele>
        <time>2019-09-05T12:30:31Z</time>
      </trkpt>
      <trkpt lat="45.7572394" lon="6.8270374">
        <ele>2246.97</ele>
        <time>2019-09-05T12:30:41Z</time>
      </trkpt>
      <trkpt lat="45.7573048" lon="6.8271629">
        <ele>2243.25</ele>
        <time>2019-09-05T12:32:37Z</time>
      </trkpt>
      <trkpt lat="45.7573635" lon="6.8272946">
        <ele>2241.94</ele>
        <time>2019-09-05T12:32:49Z</time>
      </trkpt>
      <trkpt lat="45.7574226" lon="6.8273995">
        <ele>2242.79</ele>
        <time>2019-09-05T12:32:57Z</time>
      </trkpt>
      <trkpt lat="45.7574776" lon="6.8275239">
        <ele>2241.04</ele>
        <time>2019-09-05T12:33:05Z</time>
      </trkpt>
      <trkpt lat="45.7575447" lon="6.8276097">
        <ele>2238.34</ele>
        <time>2019-09-05T12:33:13Z</time>
      </trkpt>
      <trkpt lat="45.7576222" lon="6.8277056">
        <ele>2237.03</ele>
        <time>2019-09-05T12:33:23Z</time>
      </trkpt>
      <trkpt lat="45.7576745" lon="6.8278208">
        <ele>2234.28</ele>
        <time>2019-09-05T12:33:31Z</time>
      </trkpt>
      <trkpt lat="45.7577289" lon="6.8279639">
        <ele>2231.27</ele>
        <time>2019-09-05T12:33:41Z</time>
      </trkpt>
      <trkpt lat="45.7577855" lon="6.8280776">
        <ele>2230.03</ele>
        <time>2019-09-05T12:33:49Z</time>
      </trkpt>
      <trkpt lat="45.7578519" lon="6.8282010">
        <ele>2229.94</ele>
        <time>2019-09-05T12:33:57Z</time>
      </trkpt>
      <trkpt lat="45.7579211" lon="6.8283036">
        <ele>2229.94</ele>
        <time>2019-09-05T12:34:05Z</time>
      </trkpt>
      <trkpt lat="45.7579805" lon="6.8284378">
        <ele>2228.25</ele>
        <time>2019-09-05T12:34:15Z</time>
      </trkpt>
      <trkpt lat="45.7580415" lon="6.8285415">
        <ele>2227.04</ele>
        <time>2019-09-05T12:34:21Z</time>
      </trkpt>
      <trkpt lat="45.7581115" lon="6.8286623">
        <ele>2226.32</ele>
        <time>2019-09-05T12:34:29Z</time>
      </trkpt>
      <trkpt lat="45.7581929" lon="6.8287265">
        <ele>2224.33</ele>
        <time>2019-09-05T12:34:39Z</time>
      </trkpt>
      <trkpt lat="45.7582738" lon="6.8287934">
        <ele>2222.06</ele>
        <time>2019-09-05T12:34:47Z</time>
      </trkpt>
      <trkpt lat="45.7583146" lon="6.8289213">
        <ele>2221.24</ele>
        <time>2019-09-05T12:34:57Z</time>
      </trkpt>
      <trkpt lat="45.7583526" lon="6.8290426">
        <ele>2220.94</ele>
        <time>2019-09-05T12:35:05Z</time>
      </trkpt>
      <trkpt lat="45.7584230" lon="6.8291786">
        <ele>2220.64</ele>
        <time>2019-09-05T12:35:15Z</time>
      </trkpt>
      <trkpt lat="45.7584570" lon="6.8293036">
        <ele>2220.22</ele>
        <time>2019-09-05T12:35:25Z</time>
      </trkpt>
      <trkpt lat="45.7585191" lon="6.8294451">
        <ele>2218.04</ele>
        <time>2019-09-05T12:35:33Z</time>
      </trkpt>
      <trkpt lat="45.7585553" lon="6.8295841">
        <ele>2216.06</ele>
        <time>2019-09-05T12:35:41Z</time>
      </trkpt>
      <trkpt lat="45.7586131" lon="6.8296984">
        <ele>2213.06</ele>
        <time>2019-09-05T12:35:53Z</time>
      </trkpt>
      <trkpt lat="45.7586739" lon="6.8298263">
        <ele>2210.25</ele>
        <time>2019-09-05T12:36:03Z</time>
      </trkpt>
      <trkpt lat="45.7587027" lon="6.8299906">
        <ele>2207.36</ele>
        <time>2019-09-05T12:36:11Z</time>
      </trkpt>
      <trkpt lat="45.7587533" lon="6.8301121">
        <ele>2206.74</ele>
        <time>2019-09-05T12:36:17Z</time>
      </trkpt>
      <trkpt lat="45.7588128" lon="6.8302152">
        <ele>2205.06</ele>
        <time>2019-09-05T12:36:25Z</time>
      </trkpt>
      <trkpt lat="45.7588936" lon="6.8303131">
        <ele>2203.03</ele>
        <time>2019-09-05T12:36:35Z</time>
      </trkpt>
      <trkpt lat="45.7589708" lon="6.8304271">
        <ele>2201.95</ele>
        <time>2019-09-05T12:36:45Z</time>
      </trkpt>
      <trkpt lat="45.7590288" lon="6.8305554">
        <ele>2200.06</ele>
        <time>2019-09-05T12:36:53Z</time>
      </trkpt>
      <trkpt lat="45.7590939" lon="6.8306451">
        <ele>2198.97</ele>
        <time>2019-09-05T12:37:01Z</time>
      </trkpt>
      <trkpt lat="45.7591760" lon="6.8307067">
        <ele>2196.28</ele>
        <time>2019-09-05T12:37:09Z</time>
      </trkpt>
      <trkpt lat="45.7592381" lon="6.8308202">
        <ele>2194.54</ele>
        <time>2019-09-05T12:37:17Z</time>
      </trkpt>
      <trkpt lat="45.7593112" lon="6.8309305">
        <ele>2191.38</ele>
        <time>2019-09-05T12:37:23Z</time>
      </trkpt>
      <trkpt lat="45.7594292" lon="6.8309506">
        <ele>2189.55</ele>
        <time>2019-09-05T12:37:31Z</time>
      </trkpt>
      <trkpt lat="45.7595140" lon="6.8310166">
        <ele>2183.78</ele>
        <time>2019-09-05T12:37:39Z</time>
      </trkpt>
      <trkpt lat="45.7595718" lon="6.8311234">
        <ele>2179.89</ele>
        <time>2019-09-05T12:37:49Z</time>
      </trkpt>
      <trkpt lat="45.7595769" lon="6.8312528">
        <ele>2174.51</ele>
        <time>2019-09-05T12:37:57Z</time>
      </trkpt>
      <trkpt lat="45.7596824" lon="6.8312960">
        <ele>2168.66</ele>
        <time>2019-09-05T12:38:07Z</time>
      </trkpt>
      <trkpt lat="45.7597281" lon="6.8314238">
        <ele>2161.94</ele>
        <time>2019-09-05T12:38:15Z</time>
      </trkpt>
      <trkpt lat="45.7597646" lon="6.8315650">
        <ele>2156.38</ele>
        <time>2019-09-05T12:38:23Z</time>
      </trkpt>
      <trkpt lat="45.7597896" lon="6.8317016">
        <ele>2154.13</ele>
        <time>2019-09-05T12:38:31Z</time>
      </trkpt>
      <trkpt lat="45.7598462" lon="6.8318303">
        <ele>2149.35</ele>
        <time>2019-09-05T12:38:43Z</time>
      </trkpt>
      <trkpt lat="45.7599274" lon="6.8319318">
        <ele>2147.06</ele>
        <time>2019-09-05T12:38:53Z</time>
      </trkpt>
      <trkpt lat="45.7599946" lon="6.8320194">
        <ele>2144.34</ele>
        <time>2019-09-05T12:39:01Z</time>
      </trkpt>
      <trkpt lat="45.7600612" lon="6.8321102">
        <ele>2142.98</ele>
        <time>2019-09-05T12:39:07Z</time>
      </trkpt>
      <trkpt lat="45.7601351" lon="6.8322052">
        <ele>2141.04</ele>
        <time>2019-09-05T12:39:15Z</time>
      </trkpt>
      <trkpt lat="45.7601967" lon="6.8323346">
        <ele>2139.95</ele>
        <time>2019-09-05T12:39:25Z</time>
      </trkpt>
      <trkpt lat="45.7602607" lon="6.8324328">
        <ele>2138.97</ele>
        <time>2019-09-05T12:39:31Z</time>
      </trkpt>
      <trkpt lat="45.7603242" lon="6.8325383">
        <ele>2138.03</ele>
        <time>2019-09-05T12:39:39Z</time>
      </trkpt>
      <trkpt lat="45.7604001" lon="6.8326258">
        <ele>2136.27</ele>
        <time>2019-09-05T12:39:47Z</time>
      </trkpt>
      <trkpt lat="45.7604743" lon="6.8327247">
        <ele>2134.06</ele>
        <time>2019-09-05T12:39:55Z</time>
      </trkpt>
      <trkpt lat="45.7605481" lon="6.8328448">
        <ele>2132.25</ele>
        <time>2019-09-05T12:40:05Z</time>
      </trkpt>
      <trkpt lat="45.7606193" lon="6.8329783">
        <ele>2130.27</ele>
        <time>2019-09-05T12:40:13Z</time>
      </trkpt>
      <trkpt lat="45.7606548" lon="6.8331275">
        <ele>2128.27</ele>
        <time>2019-09-05T12:40:21Z</time>
      </trkpt>
      <trkpt lat="45.7607111" lon="6.8332317">
        <ele>2127.95</ele>
        <time>2019-09-05T12:40:27Z</time>
      </trkpt>
      <trkpt lat="45.7607780" lon="6.8333486">
        <ele>2127.94</ele>
        <time>2019-09-05T12:40:35Z</time>
      </trkpt>
      <trkpt lat="45.7608358" lon="6.8334561">
        <ele>2128.22</ele>
        <time>2019-09-05T12:40:43Z</time>
      </trkpt>
      <trkpt lat="45.7608910" lon="6.8335688">
        <ele>2126.06</ele>
        <time>2019-09-05T12:40:51Z</time>
      </trkpt>
      <trkpt lat="45.7609777" lon="6.8336716">
        <ele>2124.97</ele>
        <time>2019-09-05T12:40:59Z</time>
      </trkpt>
      <trkpt lat="45.7610671" lon="6.8337327">
        <ele>2123.97</ele>
        <time>2019-09-05T12:41:05Z</time>
      </trkpt>
      <trkpt lat="45.7611658" lon="6.8337893">
        <ele>2123.75</ele>
        <time>2019-09-05T12:41:13Z</time>
      </trkpt>
      <trkpt lat="45.7612525" lon="6.8338612">
        <ele>2124.64</ele>
        <time>2019-09-05T12:41:21Z</time>
      </trkpt>
      <trkpt lat="45.7613253" lon="6.8339608">
        <ele>2123.73</ele>
        <time>2019-09-05T12:41:31Z</time>
      </trkpt>
      <trkpt lat="45.7614060" lon="6.8340268">
        <ele>2124.70</ele>
        <time>2019-09-05T12:41:37Z</time>
      </trkpt>
      <trkpt lat="45.7614883" lon="6.8340867">
        <ele>2123.95</ele>
        <time>2019-09-05T12:41:45Z</time>
      </trkpt>
      <trkpt lat="45.7615652" lon="6.8341767">
        <ele>2123.94</ele>
        <time>2019-09-05T12:41:53Z</time>
      </trkpt>
      <trkpt lat="45.7616527" lon="6.8342531">
        <ele>2124.85</ele>
        <time>2019-09-05T12:42:03Z</time>
      </trkpt>
      <trkpt lat="45.7617498" lon="6.8342997">
        <ele>2124.03</ele>
        <time>2019-09-05T12:42:11Z</time>
      </trkpt>
      <trkpt lat="45.7618386" lon="6.8343675">
        <ele>2123.03</ele>
        <time>2019-09-05T12:42:19Z</time>
      </trkpt>
      <trkpt lat="45.7619247" lon="6.8344201">
        <ele>2122.18</ele>
        <time>2019-09-05T12:42:25Z</time>
      </trkpt>
      <trkpt lat="45.7620105" lon="6.8344968">
        <ele>2121.24</ele>
        <time>2019-09-05T12:42:33Z</time>
      </trkpt>
      <trkpt lat="45.7621004" lon="6.8345826">
        <ele>2120.24</ele>
        <time>2019-09-05T12:42:41Z</time>
      </trkpt>
      <trkpt lat="45.7621623" lon="6.8346812">
        <ele>2119.94</ele>
        <time>2019-09-05T12:42:49Z</time>
      </trkpt>
      <trkpt lat="45.7622255" lon="6.8347906">
        <ele>2120.85</ele>
        <time>2019-09-05T12:42:59Z</time>
      </trkpt>
      <trkpt lat="45.7622831" lon="6.8348977">
        <ele>2120.01</ele>
        <time>2019-09-05T12:43:07Z</time>
      </trkpt>
      <trkpt lat="45.7623499" lon="6.8349886">
        <ele>2119.24</ele>
        <time>2019-09-05T12:43:15Z</time>
      </trkpt>
      <trkpt lat="45.7624306" lon="6.8351033">
        <ele>2117.25</ele>
        <time>2019-09-05T12:43:25Z</time>
      </trkpt>
      <trkpt lat="45.7624878" lon="6.8352198">
        <ele>2116.24</ele>
        <time>2019-09-05T12:43:33Z</time>
      </trkpt>
      <trkpt lat="45.7625664" lon="6.8353297">
        <ele>2116.24</ele>
        <time>2019-09-05T12:43:41Z</time>
      </trkpt>
      <trkpt lat="45.7626431" lon="6.8354577">
        <ele>2115.95</ele>
        <time>2019-09-05T12:43:47Z</time>
      </trkpt>
      <trkpt lat="45.7627184" lon="6.8355797">
        <ele>2114.94</ele>
        <time>2019-09-05T12:43:57Z</time>
      </trkpt>
      <trkpt lat="45.7628137" lon="6.8356634">
        <ele>2114.94</ele>
        <time>2019-09-05T12:44:05Z</time>
      </trkpt>
      <trkpt lat="45.7629051" lon="6.8357137">
        <ele>2114.24</ele>
        <time>2019-09-05T12:44:13Z</time>
      </trkpt>
      <trkpt lat="45.7630082" lon="6.8357422">
        <ele>2112.06</ele>
        <time>2019-09-05T12:44:21Z</time>
      </trkpt>
      <trkpt lat="45.7630970" lon="6.8358031">
        <ele>2111.94</ele>
        <time>2019-09-05T12:44:29Z</time>
      </trkpt>
      <trkpt lat="45.7631824" lon="6.8359025">
        <ele>2111.92</ele>
        <time>2019-09-05T12:44:37Z</time>
      </trkpt>
      <trkpt lat="45.7632641" lon="6.8360112">
        <ele>2111.94</ele>
        <time>2019-09-05T12:44:45Z</time>
      </trkpt>
      <trkpt lat="45.7633355" lon="6.8361129">
        <ele>2111.88</ele>
        <time>2019-09-05T12:44:51Z</time>
      </trkpt>
      <trkpt lat="45.7634000" lon="6.8362211">
        <ele>2111.03</ele>
        <time>2019-09-05T12:45:01Z</time>
      </trkpt>
      <trkpt lat="45.7634935" lon="6.8363003">
        <ele>2108.27</ele>
        <time>2019-09-05T12:45:11Z</time>
      </trkpt>
      <trkpt lat="45.7636056" lon="6.8363349">
        <ele>2107.26</ele>
        <time>2019-09-05T12:45:19Z</time>
      </trkpt>
      <trkpt lat="45.7636899" lon="6.8363813">
        <ele>2106.95</ele>
        <time>2019-09-05T12:45:25Z</time>
      </trkpt>
      <trkpt lat="45.7637943" lon="6.8364343">
        <ele>2106.94</ele>
        <time>2019-09-05T12:45:35Z</time>
      </trkpt>
      <trkpt lat="45.7638999" lon="6.8364191">
        <ele>2106.94</ele>
        <time>2019-09-05T12:45:43Z</time>
      </trkpt>
      <trkpt lat="45.7639741" lon="6.8365115">
        <ele>2105.33</ele>
        <time>2019-09-05T12:45:51Z</time>
      </trkpt>
      <trkpt lat="45.7640698" lon="6.8365756">
        <ele>2105.92</ele>
        <time>2019-09-05T12:45:59Z</time>
      </trkpt>
      <trkpt lat="45.7641522" lon="6.8366463">
        <ele>2106.91</ele>
        <time>2019-09-05T12:46:05Z</time>
      </trkpt>
      <trkpt lat="45.7642285" lon="6.8367270">
        <ele>2106.94</ele>
        <time>2019-09-05T12:46:11Z</time>
      </trkpt>
      <trkpt lat="45.7643063" lon="6.8368099">
        <ele>2106.24</ele>
        <time>2019-09-05T12:46:19Z</time>
      </trkpt>
      <trkpt lat="45.7643688" lon="6.8369115">
        <ele>2106.94</ele>
        <time>2019-09-05T12:46:27Z</time>
      </trkpt>
      <trkpt lat="45.7644272" lon="6.8370183">
        <ele>2107.64</ele>
        <time>2019-09-05T12:46:33Z</time>
      </trkpt>
      <trkpt lat="45.7644916" lon="6.8371233">
        <ele>2107.73</ele>
        <time>2019-09-05T12:46:41Z</time>
      </trkpt>
      <trkpt lat="45.7645721" lon="6.8372043">
        <ele>2107.94</ele>
        <time>2019-09-05T12:46:47Z</time>
      </trkpt>
      <trkpt lat="45.7646228" lon="6.8373193">
        <ele>2107.73</ele>
        <time>2019-09-05T12:46:55Z</time>
      </trkpt>
      <trkpt lat="45.7646844" lon="6.8374236">
        <ele>2109.76</ele>
        <time>2019-09-05T12:47:03Z</time>
      </trkpt>
      <trkpt lat="45.7647656" lon="6.8375188">
        <ele>2110.66</ele>
        <time>2019-09-05T12:47:11Z</time>
      </trkpt>
      <trkpt lat="45.7648588" lon="6.8376221">
        <ele>2110.95</ele>
        <time>2019-09-05T12:47:21Z</time>
      </trkpt>
      <trkpt lat="45.7649280" lon="6.8377240">
        <ele>2110.88</ele>
        <time>2019-09-05T12:47:31Z</time>
      </trkpt>
      <trkpt lat="45.7649959" lon="6.8378152">
        <ele>2111.91</ele>
        <time>2019-09-05T12:47:39Z</time>
      </trkpt>
      <trkpt lat="45.7651003" lon="6.8378496">
        <ele>2110.97</ele>
        <time>2019-09-05T12:47:49Z</time>
      </trkpt>
      <trkpt lat="45.7651828" lon="6.8379065">
        <ele>2111.15</ele>
        <time>2019-09-05T12:47:57Z</time>
      </trkpt>
      <trkpt lat="45.7652440" lon="6.8380110">
        <ele>2116.49</ele>
        <time>2019-09-05T12:48:41Z</time>
      </trkpt>
      <trkpt lat="45.7653299" lon="6.8381031">
        <ele>2132.95</ele>
        <time>2019-09-05T12:51:57Z</time>
      </trkpt>
      <trkpt lat="45.7653950" lon="6.8382133">
        <ele>2131.31</ele>
        <time>2019-09-05T12:52:07Z</time>
      </trkpt>
      <trkpt lat="45.7654445" lon="6.8383244">
        <ele>2129.76</ele>
        <time>2019-09-05T12:52:15Z</time>
      </trkpt>
      <trkpt lat="45.7655237" lon="6.8384040">
        <ele>2130.58</ele>
        <time>2019-09-05T12:52:27Z</time>
      </trkpt>
      <trkpt lat="45.7656187" lon="6.8384566">
        <ele>2132.34</ele>
        <time>2019-09-05T12:52:37Z</time>
      </trkpt>
      <trkpt lat="45.7657209" lon="6.8384967">
        <ele>2132.94</ele>
        <time>2019-09-05T12:52:47Z</time>
      </trkpt>
      <trkpt lat="45.7658115" lon="6.8385218">
        <ele>2132.94</ele>
        <time>2019-09-05T12:52:55Z</time>
      </trkpt>
      <trkpt lat="45.7659059" lon="6.8385068">
        <ele>2133.85</ele>
        <time>2019-09-05T12:53:03Z</time>
      </trkpt>
      <trkpt lat="45.7659938" lon="6.8385629">
        <ele>2133.94</ele>
        <time>2019-09-05T12:53:13Z</time>
      </trkpt>
      <trkpt lat="45.7660650" lon="6.8386488">
        <ele>2135.55</ele>
        <time>2019-09-05T12:53:21Z</time>
      </trkpt>
      <trkpt lat="45.7661558" lon="6.8386764">
        <ele>2137.61</ele>
        <time>2019-09-05T12:53:33Z</time>
      </trkpt>
      <trkpt lat="45.7662443" lon="6.8386372">
        <ele>2140.84</ele>
        <time>2019-09-05T12:53:47Z</time>
      </trkpt>
      <trkpt lat="45.7663392" lon="6.8387040">
        <ele>2143.82</ele>
        <time>2019-09-05T12:53:59Z</time>
      </trkpt>
      <trkpt lat="45.7664235" lon="6.8387720">
        <ele>2143.01</ele>
        <time>2019-09-05T12:54:07Z</time>
      </trkpt>
      <trkpt lat="45.7665192" lon="6.8387379">
        <ele>2142.92</ele>
        <time>2019-09-05T12:54:17Z</time>
      </trkpt>
      <trkpt lat="45.7665860" lon="6.8386445">
        <ele>2141.95</ele>
        <time>2019-09-05T12:54:25Z</time>
      </trkpt>
      <trkpt lat="45.7665739" lon="6.8385034">
        <ele>2143.84</ele>
        <time>2019-09-05T12:54:35Z</time>
      </trkpt>
      <trkpt lat="45.7666584" lon="6.8383977">
        <ele>2146.91</ele>
        <time>2019-09-05T12:54:47Z</time>
      </trkpt>
      <trkpt lat="45.7667440" lon="6.8383478">
        <ele>2147.94</ele>
        <time>2019-09-05T12:54:57Z</time>
      </trkpt>
      <trkpt lat="45.7668327" lon="6.8382986">
        <ele>2148.85</ele>
        <time>2019-09-05T12:55:07Z</time>
      </trkpt>
      <trkpt lat="45.7667666" lon="6.8381768">
        <ele>2149.93</ele>
        <time>2019-09-05T12:55:23Z</time>
      </trkpt>
      <trkpt lat="45.7666800" lon="6.8381314">
        <ele>2148.94</ele>
        <time>2019-09-05T12:55:33Z</time>
      </trkpt>
      <trkpt lat="45.7665982" lon="6.8380584">
        <ele>2150.24</ele>
        <time>2019-09-05T12:55:51Z</time>
      </trkpt>
      <trkpt lat="45.7665399" lon="6.8379431">
        <ele>2151.85</ele>
        <time>2019-09-05T12:56:07Z</time>
      </trkpt>
      <trkpt lat="45.7665435" lon="6.8378095">
        <ele>2153.63</ele>
        <time>2019-09-05T12:56:23Z</time>
      </trkpt>
      <trkpt lat="45.7666385" lon="6.8377403">
        <ele>2156.84</ele>
        <time>2019-09-05T12:56:35Z</time>
      </trkpt>
      <trkpt lat="45.7667411" lon="6.8377422">
        <ele>2159.82</ele>
        <time>2019-09-05T12:56:45Z</time>
      </trkpt>
      <trkpt lat="45.7668325" lon="6.8378063">
        <ele>2160.23</ele>
        <time>2019-09-05T12:56:55Z</time>
      </trkpt>
      <trkpt lat="45.7669143" lon="6.8378798">
        <ele>2159.94</ele>
        <time>2019-09-05T12:57:05Z</time>
      </trkpt>
      <trkpt lat="45.7669982" lon="6.8379556">
        <ele>2161.94</ele>
        <time>2019-09-05T12:57:21Z</time>
      </trkpt>
      <trkpt lat="45.7671018" lon="6.8379582">
        <ele>2163.91</ele>
        <time>2019-09-05T12:57:35Z</time>
      </trkpt>
      <trkpt lat="45.7672017" lon="6.8379399">
        <ele>2163.92</ele>
        <time>2019-09-05T12:57:45Z</time>
      </trkpt>
      <trkpt lat="45.7672594" lon="6.8378376">
        <ele>2165.93</ele>
        <time>2019-09-05T12:57:57Z</time>
      </trkpt>
      <trkpt lat="45.7672174" lon="6.8377150">
        <ele>2181.65</ele>
        <time>2019-09-05T13:00:24Z</time>
      </trkpt>
      <trkpt lat="45.7671976" lon="6.8375785">
        <ele>2180.94</ele>
        <time>2019-09-05T13:00:38Z</time>
      </trkpt>
      <trkpt lat="45.7671910" lon="6.8374350">
        <ele>2180.30</ele>
        <time>2019-09-05T13:00:52Z</time>
      </trkpt>
      <trkpt lat="45.7672149" lon="6.8373094">
        <ele>2178.88</ele>
        <time>2019-09-05T13:01:04Z</time>
      </trkpt>
      <trkpt lat="45.7672079" lon="6.8371771">
        <ele>2179.91</ele>
        <time>2019-09-05T13:01:14Z</time>
      </trkpt>
      <trkpt lat="45.7671585" lon="6.8372866">
        <ele>2181.84</ele>
        <time>2019-09-05T13:01:24Z</time>
      </trkpt>
      <trkpt lat="45.7671207" lon="6.8374282">
        <ele>2182.93</ele>
        <time>2019-09-05T13:01:34Z</time>
      </trkpt>
      <trkpt lat="45.7671177" lon="6.8375638">
        <ele>2183.85</ele>
        <time>2019-09-05T13:01:44Z</time>
      </trkpt>
      <trkpt lat="45.7670417" lon="6.8374877">
        <ele>2187.71</ele>
        <time>2019-09-05T13:02:24Z</time>
      </trkpt>
      <trkpt lat="45.7670976" lon="6.8374113">
        <ele>2175.94</ele>
        <time>2019-09-06T05:25:22Z</time>
      </trkpt>
      <trkpt lat="45.7911386" lon="6.9730709">
        <ele>1225.85</ele>
        <time>2019-09-06T11:44:39Z</time>
      </trkpt>
      <trkpt lat="45.8088508" lon="6.9783126">
        <ele>1965.91</ele>
        <time>2019-09-06T14:27:58Z</time>
      </trkpt>
      <trkpt lat="45.7670976" lon="6.8374113">
        <ele>2175.94</ele>
        <time>2019-09-06T05:25:22Z</time>
      </trkpt>
      <trkpt lat="45.7671121" lon="6.8375516">
        <ele>2187.00</ele>
        <time>2019-09-06T05:26:58Z</time>
      </trkpt>
      <trkpt lat="45.7671272" lon="6.8374141">
        <ele>2192.71</ele>
        <time>2019-09-06T05:30:26Z</time>
      </trkpt>
      <trkpt lat="45.7671666" lon="6.8372726">
        <ele>2190.33</ele>
        <time>2019-09-06T05:30:36Z</time>
      </trkpt>
      <trkpt lat="45.7672264" lon="6.8373847">
        <ele>2189.73</ele>
        <time>2019-09-06T05:30:57Z</time>
      </trkpt>
      <trkpt lat="45.7672113" lon="6.8375404">
        <ele>2190.73</ele>
        <time>2019-09-06T05:31:09Z</time>
      </trkpt>
      <trkpt lat="45.7672052" lon="6.8376897">
        <ele>2189.03</ele>
        <time>2019-09-06T05:31:21Z</time>
      </trkpt>
      <trkpt lat="45.7672104" lon="6.8378433">
        <ele>2186.97</ele>
        <time>2019-09-06T05:31:33Z</time>
      </trkpt>
      <trkpt lat="45.7671880" lon="6.8379840">
        <ele>2184.95</ele>
        <time>2019-09-06T05:31:45Z</time>
      </trkpt>
      <trkpt lat="45.7670808" lon="6.8379864">
        <ele>2184.94</ele>
        <time>2019-09-06T05:31:57Z</time>
      </trkpt>
      <trkpt lat="45.7669878" lon="6.8379598">
        <ele>2184.94</ele>
        <time>2019-09-06T05:32:07Z</time>
      </trkpt>
      <trkpt lat="45.7668972" lon="6.8379226">
        <ele>2184.94</ele>
        <time>2019-09-06T05:32:17Z</time>
      </trkpt>
      <trkpt lat="45.7668014" lon="6.8378512">
        <ele>2185.86</ele>
        <time>2019-09-06T05:32:29Z</time>
      </trkpt>
      <trkpt lat="45.7667054" lon="6.8377910">
        <ele>2184.95</ele>
        <time>2019-09-06T05:32:39Z</time>
      </trkpt>
      <trkpt lat="45.7666037" lon="6.8377795">
        <ele>2175.84</ele>
        <time>2019-09-06T05:32:50Z</time>
      </trkpt>
      <trkpt lat="45.7665219" lon="6.8378438">
        <ele>2173.75</ele>
        <time>2019-09-06T05:32:58Z</time>
      </trkpt>
      <trkpt lat="45.7665262" lon="6.8379902">
        <ele>2166.98</ele>
        <time>2019-09-06T05:33:08Z</time>
      </trkpt>
      <trkpt lat="45.7665936" lon="6.8381111">
        <ele>2167.02</ele>
        <time>2019-09-06T05:33:20Z</time>
      </trkpt>
      <trkpt lat="45.7666750" lon="6.8381731">
        <ele>2165.95</ele>
        <time>2019-09-06T05:33:28Z</time>
      </trkpt>
      <trkpt lat="45.7667558" lon="6.8382680">
        <ele>2165.94</ele>
        <time>2019-09-06T05:33:40Z</time>
      </trkpt>
      <trkpt lat="45.7668009" lon="6.8383857">
        <ele>2164.06</ele>
        <time>2019-09-06T05:33:50Z</time>
      </trkpt>
      <trkpt lat="45.7667145" lon="6.8384591">
        <ele>2164.93</ele>
        <time>2019-09-06T05:34:00Z</time>
      </trkpt>
      <trkpt lat="45.7666127" lon="6.8384944">
        <ele>2164.94</ele>
        <time>2019-09-06T05:34:10Z</time>
      </trkpt>
      <trkpt lat="45.7665699" lon="6.8386084">
        <ele>2162.98</ele>
        <time>2019-09-06T05:34:20Z</time>
      </trkpt>
      <trkpt lat="45.7665491" lon="6.8387518">
        <ele>2160.97</ele>
        <time>2019-09-06T05:34:30Z</time>
      </trkpt>
      <trkpt lat="45.7664490" lon="6.8387944">
        <ele>2160.94</ele>
        <time>2019-09-06T05:34:38Z</time>
      </trkpt>
      <trkpt lat="45.7663611" lon="6.8388490">
        <ele>2160.03</ele>
        <time>2019-09-06T05:34:46Z</time>
      </trkpt>
      <trkpt lat="45.7663048" lon="6.8389538">
        <ele>2162.74</ele>
        <time>2019-09-06T05:34:54Z</time>
      </trkpt>
      <trkpt lat="45.7662754" lon="6.8390803">
        <ele>2158.47</ele>
        <time>2019-09-06T05:35:01Z</time>
      </trkpt>
      <trkpt lat="45.7662374" lon="6.8392088">
        <ele>2156.06</ele>
        <time>2019-09-06T05:35:09Z</time>
      </trkpt>
      <trkpt lat="45.7662028" lon="6.8393615">
        <ele>2154.03</ele>
        <time>2019-09-06T05:35:19Z</time>
      </trkpt>
      <trkpt lat="45.7661895" lon="6.8395150">
        <ele>2152.24</ele>
        <time>2019-09-06T05:35:29Z</time>
      </trkpt>
      <trkpt lat="45.7661750" lon="6.8396566">
        <ele>2150.25</ele>
        <time>2019-09-06T05:35:39Z</time>
      </trkpt>
      <trkpt lat="45.7661739" lon="6.8398053">
        <ele>2148.27</ele>
        <time>2019-09-06T05:35:49Z</time>
      </trkpt>
      <trkpt lat="45.7661580" lon="6.8399528">
        <ele>2146.04</ele>
        <time>2019-09-06T05:35:59Z</time>
      </trkpt>
      <trkpt lat="45.7661387" lon="6.8400864">
        <ele>2143.97</ele>
        <time>2019-09-06T05:36:09Z</time>
      </trkpt>
      <trkpt lat="45.7661149" lon="6.8402222">
        <ele>2142.25</ele>
        <time>2019-09-06T05:36:19Z</time>
      </trkpt>
      <trkpt lat="45.7661028" lon="6.8403512">
        <ele>2140.97</ele>
        <time>2019-09-06T05:36:27Z</time>
      </trkpt>
      <trkpt lat="45.7661064" lon="6.8404955">
        <ele>2139.03</ele>
        <time>2019-09-06T05:36:37Z</time>
      </trkpt>
      <trkpt lat="45.7660995" lon="6.8406345">
        <ele>2137.27</ele>
        <time>2019-09-06T05:36:45Z</time>
      </trkpt>
      <trkpt lat="45.7660701" lon="6.8407715">
        <ele>2136.95</ele>
        <time>2019-09-06T05:36:55Z</time>
      </trkpt>
      <trkpt lat="45.7660174" lon="6.8408796">
        <ele>2135.97</ele>
        <time>2019-09-06T05:37:05Z</time>
      </trkpt>
      <trkpt lat="45.7659762" lon="6.8410157">
        <ele>2133.97</ele>
        <time>2019-09-06T05:37:15Z</time>
      </trkpt>
      <trkpt lat="45.7659424" lon="6.8411602">
        <ele>2131.27</ele>
        <time>2019-09-06T05:37:25Z</time>
      </trkpt>
      <trkpt lat="45.7659873" lon="6.8412810">
        <ele>2128.19</ele>
        <time>2019-09-06T05:37:39Z</time>
      </trkpt>
      <trkpt lat="45.7660612" lon="6.8413704">
        <ele>2124.34</ele>
        <time>2019-09-06T05:37:59Z</time>
      </trkpt>
      <trkpt lat="45.7661338" lon="6.8414682">
        <ele>2131.72</ele>
        <time>2019-09-06T05:38:17Z</time>
      </trkpt>
      <trkpt lat="45.7662043" lon="6.8415754">
        <ele>2118.08</ele>
        <time>2019-09-06T05:38:31Z</time>
      </trkpt>
      <trkpt lat="45.7662705" lon="6.8416649">
        <ele>2114.37</ele>
        <time>2019-09-06T05:38:39Z</time>
      </trkpt>
      <trkpt lat="45.7663516" lon="6.8417778">
        <ele>2111.47</ele>
        <time>2019-09-06T05:38:51Z</time>
      </trkpt>
      <trkpt lat="45.7664370" lon="6.8418259">
        <ele>2103.34</ele>
        <time>2019-09-06T05:39:09Z</time>
      </trkpt>
      <trkpt lat="45.7664629" lon="6.8419667">
        <ele>2095.34</ele>
        <time>2019-09-06T05:39:23Z</time>
      </trkpt>
      <trkpt lat="45.7665404" lon="6.8420514">
        <ele>2093.05</ele>
        <time>2019-09-06T05:39:33Z</time>
      </trkpt>
      <trkpt lat="45.7666051" lon="6.8419571">
        <ele>2089.27</ele>
        <time>2019-09-06T05:39:45Z</time>
      </trkpt>
      <trkpt lat="45.7666911" lon="6.8418963">
        <ele>2090.66</ele>
        <time>2019-09-06T05:40:07Z</time>
      </trkpt>
      <trkpt lat="45.7667903" lon="6.8419704">
        <ele>2086.04</ele>
        <time>2019-09-06T05:40:19Z</time>
      </trkpt>
      <trkpt lat="45.7668804" lon="6.8420191">
        <ele>2082.04</ele>
        <time>2019-09-06T05:40:37Z</time>
      </trkpt>
      <trkpt lat="45.7669608" lon="6.8421162">
        <ele>2079.07</ele>
        <time>2019-09-06T05:41:05Z</time>
      </trkpt>
      <trkpt lat="45.7670411" lon="6.8420411">
        <ele>2073.25</ele>
        <time>2019-09-06T05:41:21Z</time>
      </trkpt>
      <trkpt lat="45.7670934" lon="6.8421523">
        <ele>2062.69</ele>
        <time>2019-09-06T05:41:33Z</time>
      </trkpt>
      <trkpt lat="45.7671842" lon="6.8421460">
        <ele>2059.44</ele>
        <time>2019-09-06T05:41:41Z</time>
      </trkpt>
      <trkpt lat="45.7672744" lon="6.8421440">
        <ele>2055.68</ele>
        <time>2019-09-06T05:41:57Z</time>
      </trkpt>
      <trkpt lat="45.7672665" lon="6.8422818">
        <ele>2055.92</ele>
        <time>2019-09-06T05:42:13Z</time>
      </trkpt>
      <trkpt lat="45.7673605" lon="6.8423134">
        <ele>2057.94</ele>
        <time>2019-09-06T05:42:27Z</time>
      </trkpt>
      <trkpt lat="45.7674461" lon="6.8422727">
        <ele>2057.24</ele>
        <time>2019-09-06T05:42:37Z</time>
      </trkpt>
      <trkpt lat="45.7675692" lon="6.8422789">
        <ele>2052.83</ele>
        <time>2019-09-06T05:42:52Z</time>
      </trkpt>
      <trkpt lat="45.7676051" lon="6.8424335">
        <ele>2043.84</ele>
        <time>2019-09-06T05:43:07Z</time>
      </trkpt>
      <trkpt lat="45.7676364" lon="6.8425624">
        <ele>2042.06</ele>
        <time>2019-09-06T05:44:21Z</time>
      </trkpt>
      <trkpt lat="45.7676403" lon="6.8426919">
        <ele>2036.15</ele>
        <time>2019-09-06T05:45:31Z</time>
      </trkpt>
      <trkpt lat="45.7676071" lon="6.8428200">
        <ele>2034.77</ele>
        <time>2019-09-06T05:45:41Z</time>
      </trkpt>
      <trkpt lat="45.7676082" lon="6.8429682">
        <ele>2029.11</ele>
        <time>2019-09-06T05:45:49Z</time>
      </trkpt>
      <trkpt lat="45.7675936" lon="6.8431189">
        <ele>2028.36</ele>
        <time>2019-09-06T05:45:57Z</time>
      </trkpt>
      <trkpt lat="45.7675516" lon="6.8432753">
        <ele>2026.95</ele>
        <time>2019-09-06T05:46:07Z</time>
      </trkpt>
      <trkpt lat="45.7675380" lon="6.8434409">
        <ele>2026.24</ele>
        <time>2019-09-06T05:46:15Z</time>
      </trkpt>
      <trkpt lat="45.7675736" lon="6.8435760">
        <ele>2026.85</ele>
        <time>2019-09-06T05:46:23Z</time>
      </trkpt>
      <trkpt lat="45.7676179" lon="6.8437261">
        <ele>2026.94</ele>
        <time>2019-09-06T05:46:33Z</time>
      </trkpt>
      <trkpt lat="45.7676517" lon="6.8438487">
        <ele>2028.03</ele>
        <time>2019-09-06T05:46:41Z</time>
      </trkpt>
      <trkpt lat="45.7676610" lon="6.8439890">
        <ele>2026.97</ele>
        <time>2019-09-06T05:46:49Z</time>
      </trkpt>
      <trkpt lat="45.7676838" lon="6.8441164">
        <ele>2026.03</ele>
        <time>2019-09-06T05:46:57Z</time>
      </trkpt>
      <trkpt lat="45.7676992" lon="6.8442518">
        <ele>2025.16</ele>
        <time>2019-09-06T05:47:05Z</time>
      </trkpt>
      <trkpt lat="45.7676850" lon="6.8443961">
        <ele>2026.06</ele>
        <time>2019-09-06T05:47:13Z</time>
      </trkpt>
      <trkpt lat="45.7676591" lon="6.8445312">
        <ele>2024.25</ele>
        <time>2019-09-06T05:47:21Z</time>
      </trkpt>
      <trkpt lat="45.7676533" lon="6.8446827">
        <ele>2025.99</ele>
        <time>2019-09-06T05:47:29Z</time>
      </trkpt>
      <trkpt lat="45.7676692" lon="6.8448332">
        <ele>2023.98</ele>
        <time>2019-09-06T05:47:37Z</time>
      </trkpt>
      <trkpt lat="45.7676865" lon="6.8449816">
        <ele>2023.22</ele>
        <time>2019-09-06T05:47:45Z</time>
      </trkpt>
      <trkpt lat="45.7677108" lon="6.8451138">
        <ele>2022.94</ele>
        <time>2019-09-06T05:47:53Z</time>
      </trkpt>
      <trkpt lat="45.7677092" lon="6.8452631">
        <ele>2021.95</ele>
        <time>2019-09-06T05:48:03Z</time>
      </trkpt>
      <trkpt lat="45.7676972" lon="6.8453965">
        <ele>2021.03</ele>
        <time>2019-09-06T05:48:11Z</time>
      </trkpt>
      <trkpt lat="45.7676324" lon="6.8455264">
        <ele>2014.99</ele>
        <time>2019-09-06T05:48:21Z</time>
      </trkpt>
      <trkpt lat="45.7675335" lon="6.8455817">
        <ele>2011.27</ele>
        <time>2019-09-06T05:48:31Z</time>
      </trkpt>
      <trkpt lat="45.7676260" lon="6.8455482">
        <ele>2012.66</ele>
        <time>2019-09-06T05:48:41Z</time>
      </trkpt>
      <trkpt lat="45.7677187" lon="6.8455714">
        <ele>2012.92</ele>
        <time>2019-09-06T05:48:50Z</time>
      </trkpt>
      <trkpt lat="45.7677548" lon="6.8456953">
        <ele>2014.01</ele>
        <time>2019-09-06T05:49:06Z</time>
      </trkpt>
      <trkpt lat="45.7676889" lon="6.8458079">
        <ele>2012.16</ele>
        <time>2019-09-06T05:49:26Z</time>
      </trkpt>
      <trkpt lat="45.7676347" lon="6.8459366">
        <ele>1999.20</ele>
        <time>2019-09-06T05:49:46Z</time>
      </trkpt>
      <trkpt lat="45.7677448" lon="6.8459204">
        <ele>2002.03</ele>
        <time>2019-09-06T05:50:02Z</time>
      </trkpt>
      <trkpt lat="45.7677459" lon="6.8460564">
        <ele>2009.02</ele>
        <time>2019-09-06T05:50:30Z</time>
      </trkpt>
      <trkpt lat="45.7677930" lon="6.8461792">
        <ele>1996.47</ele>
        <time>2019-09-06T05:50:40Z</time>
      </trkpt>
      <trkpt lat="45.7678213" lon="6.8463217">
        <ele>1997.21</ele>
        <time>2019-09-06T05:50:50Z</time>
      </trkpt>
      <trkpt lat="45.7678614" lon="6.8464472">
        <ele>1996.03</ele>
        <time>2019-09-06T05:50:58Z</time>
      </trkpt>
      <trkpt lat="45.7679399" lon="6.8465632">
        <ele>1998.31</ele>
        <time>2019-09-06T05:51:51Z</time>
      </trkpt>
      <trkpt lat="45.7680066" lon="6.8466612">
        <ele>1997.92</ele>
        <time>2019-09-06T05:52:05Z</time>
      </trkpt>
      <trkpt lat="45.7680653" lon="6.8467785">
        <ele>1994.27</ele>
        <time>2019-09-06T05:52:13Z</time>
      </trkpt>
      <trkpt lat="45.7681406" lon="6.8468543">
        <ele>1994.17</ele>
        <time>2019-09-06T05:52:21Z</time>
      </trkpt>
      <trkpt lat="45.7682097" lon="6.8469397">
        <ele>1994.03</ele>
        <time>2019-09-06T05:52:29Z</time>
      </trkpt>
      <trkpt lat="45.7682974" lon="6.8470413">
        <ele>1992.25</ele>
        <time>2019-09-06T05:52:37Z</time>
      </trkpt>
      <trkpt lat="45.7683930" lon="6.8471357">
        <ele>1991.94</ele>
        <time>2019-09-06T05:52:47Z</time>
      </trkpt>
      <trkpt lat="45.7684262" lon="6.8472608">
        <ele>1988.37</ele>
        <time>2019-09-06T05:52:57Z</time>
      </trkpt>
      <trkpt lat="45.7684355" lon="6.8473983">
        <ele>1986.25</ele>
        <time>2019-09-06T05:53:05Z</time>
      </trkpt>
      <trkpt lat="45.7684370" lon="6.8475401">
        <ele>1985.94</ele>
        <time>2019-09-06T05:53:13Z</time>
      </trkpt>
      <trkpt lat="45.7684470" lon="6.8477045">
        <ele>1983.98</ele>
        <time>2019-09-06T05:53:23Z</time>
      </trkpt>
      <trkpt lat="45.7684256" lon="6.8478413">
        <ele>1982.97</ele>
        <time>2019-09-06T05:53:31Z</time>
      </trkpt>
      <trkpt lat="45.7684056" lon="6.8479999">
        <ele>1970.54</ele>
        <time>2019-09-06T05:53:39Z</time>
      </trkpt>
      <trkpt lat="45.7684125" lon="6.8481719">
        <ele>1970.92</ele>
        <time>2019-09-06T05:53:49Z</time>
      </trkpt>
      <trkpt lat="45.7684650" lon="6.8483264">
        <ele>1971.85</ele>
        <time>2019-09-06T05:53:58Z</time>
      </trkpt>
      <trkpt lat="45.7684822" lon="6.8484701">
        <ele>1980.53</ele>
        <time>2019-09-06T05:55:15Z</time>
      </trkpt>
      <trkpt lat="45.7685224" lon="6.8485945">
        <ele>1980.00</ele>
        <time>2019-09-06T05:55:19Z</time>
      </trkpt>
      <trkpt lat="45.7685574" lon="6.8487179">
        <ele>1978.55</ele>
        <time>2019-09-06T05:55:23Z</time>
      </trkpt>
      <trkpt lat="45.7685968" lon="6.8488776">
        <ele>1977.30</ele>
        <time>2019-09-06T05:55:27Z</time>
      </trkpt>
      <trkpt lat="45.7686375" lon="6.8490206">
        <ele>1976.27</ele>
        <time>2019-09-06T05:55:31Z</time>
      </trkpt>
      <trkpt lat="45.7686494" lon="6.8492089">
        <ele>1974.70</ele>
        <time>2019-09-06T05:55:37Z</time>
      </trkpt>
      <trkpt lat="45.7687042" lon="6.8493625">
        <ele>1973.12</ele>
        <time>2019-09-06T05:55:43Z</time>
      </trkpt>
      <trkpt lat="45.7687424" lon="6.8494870">
        <ele>1973.87</ele>
        <time>2019-09-06T05:55:47Z</time>
      </trkpt>
      <trkpt lat="45.7687893" lon="6.8496053">
        <ele>1973.94</ele>
        <time>2019-09-06T05:55:51Z</time>
      </trkpt>
      <trkpt lat="45.7688192" lon="6.8497566">
        <ele>1973.67</ele>
        <time>2019-09-06T05:55:57Z</time>
      </trkpt>
      <trkpt lat="45.7688515" lon="6.8499237">
        <ele>1973.28</ele>
        <time>2019-09-06T05:56:05Z</time>
      </trkpt>
      <trkpt lat="45.7689233" lon="6.8500136">
        <ele>1973.69</ele>
        <time>2019-09-06T05:56:13Z</time>
      </trkpt>
      <trkpt lat="45.7689636" lon="6.8501532">
        <ele>1972.33</ele>
        <time>2019-09-06T05:56:29Z</time>
      </trkpt>
      <trkpt lat="45.7689676" lon="6.8503054">
        <ele>1971.02</ele>
        <time>2019-09-06T05:56:37Z</time>
      </trkpt>
      <trkpt lat="45.7690197" lon="6.8504329">
        <ele>1970.92</ele>
        <time>2019-09-06T05:56:45Z</time>
      </trkpt>
      <trkpt lat="45.7690657" lon="6.8505731">
        <ele>1970.16</ele>
        <time>2019-09-06T05:56:53Z</time>
      </trkpt>
      <trkpt lat="45.7691098" lon="6.8507250">
        <ele>1969.94</ele>
        <time>2019-09-06T05:57:01Z</time>
      </trkpt>
      <trkpt lat="45.7691415" lon="6.8508901">
        <ele>1969.65</ele>
        <time>2019-09-06T05:57:09Z</time>
      </trkpt>
      <trkpt lat="45.7691916" lon="6.8510272">
        <ele>1969.85</ele>
        <time>2019-09-06T05:57:19Z</time>
      </trkpt>
      <trkpt lat="45.7692342" lon="6.8511799">
        <ele>1969.71</ele>
        <time>2019-09-06T05:57:27Z</time>
      </trkpt>
      <trkpt lat="45.7692678" lon="6.8513009">
        <ele>1968.96</ele>
        <time>2019-09-06T05:57:33Z</time>
      </trkpt>
      <trkpt lat="45.7693251" lon="6.8514316">
        <ele>1967.97</ele>
        <time>2019-09-06T05:57:41Z</time>
      </trkpt>
      <trkpt lat="45.7693875" lon="6.8515407">
        <ele>1967.03</ele>
        <time>2019-09-06T05:57:49Z</time>
      </trkpt>
      <trkpt lat="45.7694130" lon="6.8517105">
        <ele>1964.50</ele>
        <time>2019-09-06T05:58:00Z</time>
      </trkpt>
      <trkpt lat="45.7694559" lon="6.8518481">
        <ele>1967.45</ele>
        <time>2019-09-06T05:58:07Z</time>
      </trkpt>
      <trkpt lat="45.7694808" lon="6.8519900">
        <ele>1967.65</ele>
        <time>2019-09-06T05:58:15Z</time>
      </trkpt>
      <trkpt lat="45.7695137" lon="6.8521182">
        <ele>1966.96</ele>
        <time>2019-09-06T05:58:21Z</time>
      </trkpt>
      <trkpt lat="45.7695594" lon="6.8522347">
        <ele>1967.71</ele>
        <time>2019-09-06T05:58:27Z</time>
      </trkpt>
      <trkpt lat="45.7696019" lon="6.8523623">
        <ele>1967.86</ele>
        <time>2019-09-06T05:58:35Z</time>
      </trkpt>
      <trkpt lat="45.7696408" lon="6.8524861">
        <ele>1967.32</ele>
        <time>2019-09-06T05:58:43Z</time>
      </trkpt>
      <trkpt lat="45.7696747" lon="6.8526066">
        <ele>1966.95</ele>
        <time>2019-09-06T05:58:49Z</time>
      </trkpt>
      <trkpt lat="45.7697099" lon="6.8527612">
        <ele>1966.94</ele>
        <time>2019-09-06T05:58:57Z</time>
      </trkpt>
      <trkpt lat="45.7697439" lon="6.8528832">
        <ele>1966.94</ele>
        <time>2019-09-06T05:59:03Z</time>
      </trkpt>
      <trkpt lat="45.7697884" lon="6.8530117">
        <ele>1966.28</ele>
        <time>2019-09-06T05:59:11Z</time>
      </trkpt>
      <trkpt lat="45.7698405" lon="6.8531413">
        <ele>1965.24</ele>
        <time>2019-09-06T05:59:19Z</time>
      </trkpt>
      <trkpt lat="45.7698804" lon="6.8532702">
        <ele>1964.96</ele>
        <time>2019-09-06T05:59:27Z</time>
      </trkpt>
      <trkpt lat="45.7699117" lon="6.8534050">
        <ele>1964.03</ele>
        <time>2019-09-06T05:59:33Z</time>
      </trkpt>
      <trkpt lat="45.7699571" lon="6.8535609">
        <ele>1963.24</ele>
        <time>2019-09-06T05:59:41Z</time>
      </trkpt>
      <trkpt lat="45.7699878" lon="6.8537042">
        <ele>1963.94</ele>
        <time>2019-09-06T05:59:49Z</time>
      </trkpt>
      <trkpt lat="45.7700537" lon="6.8538357">
        <ele>1962.96</ele>
        <time>2019-09-06T05:59:59Z</time>
      </trkpt>
      <trkpt lat="45.7701021" lon="6.8539701">
        <ele>1965.04</ele>
        <time>2019-09-06T06:00:09Z</time>
      </trkpt>
      <trkpt lat="45.7701318" lon="6.8541034">
        <ele>1965.07</ele>
        <time>2019-09-06T06:00:17Z</time>
      </trkpt>
      <trkpt lat="45.7701639" lon="6.8542536">
        <ele>1963.95</ele>
        <time>2019-09-06T06:00:25Z</time>
      </trkpt>
      <trkpt lat="45.7701989" lon="6.8544017">
        <ele>1962.27</ele>
        <time>2019-09-06T06:00:33Z</time>
      </trkpt>
      <trkpt lat="45.7702291" lon="6.8545519">
        <ele>1961.94</ele>
        <time>2019-09-06T06:00:41Z</time>
      </trkpt>
      <trkpt lat="45.7702584" lon="6.8546907">
        <ele>1961.03</ele>
        <time>2019-09-06T06:00:49Z</time>
      </trkpt>
      <trkpt lat="45.7702857" lon="6.8548428">
        <ele>1959.97</ele>
        <time>2019-09-06T06:00:57Z</time>
      </trkpt>
      <trkpt lat="45.7703258" lon="6.8549991">
        <ele>1960.92</ele>
        <time>2019-09-06T06:01:05Z</time>
      </trkpt>
      <trkpt lat="45.7703650" lon="6.8551343">
        <ele>1962.06</ele>
        <time>2019-09-06T06:01:13Z</time>
      </trkpt>
      <trkpt lat="45.7703969" lon="6.8552798">
        <ele>1960.04</ele>
        <time>2019-09-06T06:01:21Z</time>
      </trkpt>
      <trkpt lat="45.7704351" lon="6.8554169">
        <ele>1959.24</ele>
        <time>2019-09-06T06:01:29Z</time>
      </trkpt>
      <trkpt lat="45.7704850" lon="6.8555383">
        <ele>1958.94</ele>
        <time>2019-09-06T06:01:37Z</time>
      </trkpt>
      <trkpt lat="45.7705506" lon="6.8556683">
        <ele>1957.97</ele>
        <time>2019-09-06T06:01:45Z</time>
      </trkpt>
      <trkpt lat="45.7705685" lon="6.8558036">
        <ele>1957.94</ele>
        <time>2019-09-06T06:01:53Z</time>
      </trkpt>
      <trkpt lat="45.7705922" lon="6.8559481">
        <ele>1958.93</ele>
        <time>2019-09-06T06:02:01Z</time>
      </trkpt>
      <trkpt lat="45.7706503" lon="6.8560577">
        <ele>1957.97</ele>
        <time>2019-09-06T06:02:09Z</time>
      </trkpt>
      <trkpt lat="45.7706810" lon="6.8561843">
        <ele>1957.24</ele>
        <time>2019-09-06T06:02:15Z</time>
      </trkpt>
      <trkpt lat="45.7707045" lon="6.8563311">
        <ele>1956.94</ele>
        <time>2019-09-06T06:02:23Z</time>
      </trkpt>
      <trkpt lat="45.7707332" lon="6.8564798">
        <ele>1955.95</ele>
        <time>2019-09-06T06:02:31Z</time>
      </trkpt>
      <trkpt lat="45.7707734" lon="6.8566339">
        <ele>1955.94</ele>
        <time>2019-09-06T06:02:39Z</time>
      </trkpt>
      <trkpt lat="45.7708198" lon="6.8567529">
        <ele>1954.95</ele>
        <time>2019-09-06T06:02:47Z</time>
      </trkpt>
      <trkpt lat="45.7708553" lon="6.8569094">
        <ele>1954.94</ele>
        <time>2019-09-06T06:02:57Z</time>
      </trkpt>
      <trkpt lat="45.7708811" lon="6.8570664">
        <ele>1954.03</ele>
        <time>2019-09-06T06:03:05Z</time>
      </trkpt>
      <trkpt lat="45.7709161" lon="6.8572235">
        <ele>1952.97</ele>
        <time>2019-09-06T06:03:13Z</time>
      </trkpt>
      <trkpt lat="45.7709380" lon="6.8573905">
        <ele>1951.97</ele>
        <time>2019-09-06T06:03:21Z</time>
      </trkpt>
      <trkpt lat="45.7709009" lon="6.8575085">
        <ele>1952.64</ele>
        <time>2019-09-06T06:03:47Z</time>
      </trkpt>
      <trkpt lat="45.7709953" lon="6.8576007">
        <ele>1952.22</ele>
        <time>2019-09-06T06:04:41Z</time>
      </trkpt>
      <trkpt lat="45.7710441" lon="6.8577463">
        <ele>1951.98</ele>
        <time>2019-09-06T06:04:51Z</time>
      </trkpt>
      <trkpt lat="45.7710941" lon="6.8578744">
        <ele>1950.27</ele>
        <time>2019-09-06T06:04:59Z</time>
      </trkpt>
      <trkpt lat="45.7711445" lon="6.8580207">
        <ele>1950.64</ele>
        <time>2019-09-06T06:05:09Z</time>
      </trkpt>
      <trkpt lat="45.7711907" lon="6.8581795">
        <ele>1950.86</ele>
        <time>2019-09-06T06:05:19Z</time>
      </trkpt>
      <trkpt lat="45.7712473" lon="6.8582933">
        <ele>1950.24</ele>
        <time>2019-09-06T06:05:27Z</time>
      </trkpt>
      <trkpt lat="45.7712830" lon="6.8584164">
        <ele>1950.71</ele>
        <time>2019-09-06T06:05:35Z</time>
      </trkpt>
      <trkpt lat="45.7713274" lon="6.8585533">
        <ele>1951.93</ele>
        <time>2019-09-06T06:05:43Z</time>
      </trkpt>
      <trkpt lat="45.7713810" lon="6.8586917">
        <ele>1951.94</ele>
        <time>2019-09-06T06:05:51Z</time>
      </trkpt>
      <trkpt lat="45.7714264" lon="6.8588218">
        <ele>1952.87</ele>
        <time>2019-09-06T06:05:59Z</time>
      </trkpt>
      <trkpt lat="45.7714765" lon="6.8589422">
        <ele>1952.94</ele>
        <time>2019-09-06T06:06:07Z</time>
      </trkpt>
      <trkpt lat="45.7715168" lon="6.8590725">
        <ele>1952.94</ele>
        <time>2019-09-06T06:06:15Z</time>
      </trkpt>
      <trkpt lat="45.7715719" lon="6.8591919">
        <ele>1952.94</ele>
        <time>2019-09-06T06:06:23Z</time>
      </trkpt>
      <trkpt lat="45.7716503" lon="6.8593113">
        <ele>1952.94</ele>
        <time>2019-09-06T06:06:31Z</time>
      </trkpt>
      <trkpt lat="45.7717093" lon="6.8594125">
        <ele>1952.94</ele>
        <time>2019-09-06T06:06:37Z</time>
      </trkpt>
      <trkpt lat="45.7717536" lon="6.8595348">
        <ele>1952.94</ele>
        <time>2019-09-06T06:06:45Z</time>
      </trkpt>
      <trkpt lat="45.7717968" lon="6.8596799">
        <ele>1952.94</ele>
        <time>2019-09-06T06:06:55Z</time>
      </trkpt>
      <trkpt lat="45.7718360" lon="6.8598070">
        <ele>1952.03</ele>
        <time>2019-09-06T06:07:03Z</time>
      </trkpt>
      <trkpt lat="45.7718952" lon="6.8599087">
        <ele>1950.06</ele>
        <time>2019-09-06T06:07:10Z</time>
      </trkpt>
      <trkpt lat="45.7719657" lon="6.8600518">
        <ele>1950.22</ele>
        <time>2019-09-06T06:07:19Z</time>
      </trkpt>
      <trkpt lat="45.7720041" lon="6.8601722">
        <ele>1949.65</ele>
        <time>2019-09-06T06:07:27Z</time>
      </trkpt>
      <trkpt lat="45.7720574" lon="6.8602849">
        <ele>1949.94</ele>
        <time>2019-09-06T06:07:35Z</time>
      </trkpt>
      <trkpt lat="45.7721129" lon="6.8604119">
        <ele>1952.22</ele>
        <time>2019-09-06T06:07:43Z</time>
      </trkpt>
      <trkpt lat="45.7721881" lon="6.8605344">
        <ele>1951.65</ele>
        <time>2019-09-06T06:07:51Z</time>
      </trkpt>
      <trkpt lat="45.7722680" lon="6.8606515">
        <ele>1951.03</ele>
        <time>2019-09-06T06:07:59Z</time>
      </trkpt>
      <trkpt lat="45.7723326" lon="6.8607772">
        <ele>1950.24</ele>
        <time>2019-09-06T06:08:07Z</time>
      </trkpt>
      <trkpt lat="45.7723891" lon="6.8608785">
        <ele>1949.74</ele>
        <time>2019-09-06T06:08:15Z</time>
      </trkpt>
      <trkpt lat="45.7724120" lon="6.8610343">
        <ele>1946.46</ele>
        <time>2019-09-06T06:08:24Z</time>
      </trkpt>
      <trkpt lat="45.7724477" lon="6.8611538">
        <ele>1950.75</ele>
        <time>2019-09-06T06:08:32Z</time>
      </trkpt>
      <trkpt lat="45.7725043" lon="6.8612595">
        <ele>1952.61</ele>
        <time>2019-09-06T06:08:40Z</time>
      </trkpt>
      <trkpt lat="45.7725209" lon="6.8614460">
        <ele>1957.68</ele>
        <time>2019-09-06T06:09:16Z</time>
      </trkpt>
      <trkpt lat="45.7725346" lon="6.8615750">
        <ele>1956.05</ele>
        <time>2019-09-06T06:09:22Z</time>
      </trkpt>
      <trkpt lat="45.7725455" lon="6.8617052">
        <ele>1954.04</ele>
        <time>2019-09-06T06:09:30Z</time>
      </trkpt>
      <trkpt lat="45.7725405" lon="6.8618547">
        <ele>1953.03</ele>
        <time>2019-09-06T06:09:38Z</time>
      </trkpt>
      <trkpt lat="45.7725177" lon="6.8620040">
        <ele>1952.18</ele>
        <time>2019-09-06T06:09:46Z</time>
      </trkpt>
      <trkpt lat="45.7725218" lon="6.8621633">
        <ele>1951.94</ele>
        <time>2019-09-06T06:09:54Z</time>
      </trkpt>
      <trkpt lat="45.7725119" lon="6.8622915">
        <ele>1951.24</ele>
        <time>2019-09-06T06:10:00Z</time>
      </trkpt>
      <trkpt lat="45.7725190" lon="6.8624546">
        <ele>1949.25</ele>
        <time>2019-09-06T06:10:10Z</time>
      </trkpt>
      <trkpt lat="45.7725144" lon="6.8625958">
        <ele>1949.22</ele>
        <time>2019-09-06T06:10:16Z</time>
      </trkpt>
      <trkpt lat="45.7724979" lon="6.8627397">
        <ele>1948.95</ele>
        <time>2019-09-06T06:10:22Z</time>
      </trkpt>
      <trkpt lat="45.7724914" lon="6.8628724">
        <ele>1948.94</ele>
        <time>2019-09-06T06:10:28Z</time>
      </trkpt>
      <trkpt lat="45.7724959" lon="6.8630028">
        <ele>1948.94</ele>
        <time>2019-09-06T06:10:34Z</time>
      </trkpt>
      <trkpt lat="45.7725261" lon="6.8631359">
        <ele>1948.94</ele>
        <time>2019-09-06T06:10:42Z</time>
      </trkpt>
      <trkpt lat="45.7725768" lon="6.8632773">
        <ele>1948.94</ele>
        <time>2019-09-06T06:10:50Z</time>
      </trkpt>
      <trkpt lat="45.7726163" lon="6.8634175">
        <ele>1948.94</ele>
        <time>2019-09-06T06:10:58Z</time>
      </trkpt>
      <trkpt lat="45.7726563" lon="6.8635608">
        <ele>1948.94</ele>
        <time>2019-09-06T06:11:06Z</time>
      </trkpt>
      <trkpt lat="45.7726891" lon="6.8636834">
        <ele>1948.94</ele>
        <time>2019-09-06T06:11:14Z</time>
      </trkpt>
      <trkpt lat="45.7727300" lon="6.8638096">
        <ele>1948.94</ele>
        <time>2019-09-06T06:11:22Z</time>
      </trkpt>
      <trkpt lat="45.7727592" lon="6.8639424">
        <ele>1948.94</ele>
        <time>2019-09-06T06:11:30Z</time>
      </trkpt>
      <trkpt lat="45.7727946" lon="6.8640787">
        <ele>1948.94</ele>
        <time>2019-09-06T06:11:38Z</time>
      </trkpt>
      <trkpt lat="45.7728246" lon="6.8642287">
        <ele>1947.95</ele>
        <time>2019-09-06T06:11:46Z</time>
      </trkpt>
      <trkpt lat="45.7728876" lon="6.8643629">
        <ele>1948.93</ele>
        <time>2019-09-06T06:11:54Z</time>
      </trkpt>
      <trkpt lat="45.7729631" lon="6.8644751">
        <ele>1948.94</ele>
        <time>2019-09-06T06:12:02Z</time>
      </trkpt>
      <trkpt lat="45.7730596" lon="6.8645327">
        <ele>1948.94</ele>
        <time>2019-09-06T06:12:10Z</time>
      </trkpt>
      <trkpt lat="45.7731641" lon="6.8646076">
        <ele>1948.94</ele>
        <time>2019-09-06T06:12:18Z</time>
      </trkpt>
      <trkpt lat="45.7732518" lon="6.8645774">
        <ele>1949.70</ele>
        <time>2019-09-06T06:12:29Z</time>
      </trkpt>
      <trkpt lat="45.7733349" lon="6.8646676">
        <ele>1947.21</ele>
        <time>2019-09-06T06:12:48Z</time>
      </trkpt>
      <trkpt lat="45.7734012" lon="6.8647673">
        <ele>1946.44</ele>
        <time>2019-09-06T06:12:56Z</time>
      </trkpt>
      <trkpt lat="45.7734774" lon="6.8648469">
        <ele>1945.53</ele>
        <time>2019-09-06T06:13:02Z</time>
      </trkpt>
      <trkpt lat="45.7735730" lon="6.8649282">
        <ele>1950.40</ele>
        <time>2019-09-06T06:13:10Z</time>
      </trkpt>
      <trkpt lat="45.7736329" lon="6.8650286">
        <ele>1946.08</ele>
        <time>2019-09-06T06:13:18Z</time>
      </trkpt>
      <trkpt lat="45.7737272" lon="6.8651179">
        <ele>1943.97</ele>
        <time>2019-09-06T06:13:28Z</time>
      </trkpt>
      <trkpt lat="45.7737817" lon="6.8652264">
        <ele>1943.94</ele>
        <time>2019-09-06T06:13:36Z</time>
      </trkpt>
      <trkpt lat="45.7738028" lon="6.8653619">
        <ele>1944.85</ele>
        <time>2019-09-06T06:13:44Z</time>
      </trkpt>
      <trkpt lat="45.7738423" lon="6.8655080">
        <ele>1945.23</ele>
        <time>2019-09-06T06:13:54Z</time>
      </trkpt>
      <trkpt lat="45.7738455" lon="6.8656404">
        <ele>1944.95</ele>
        <time>2019-09-06T06:14:00Z</time>
      </trkpt>
      <trkpt lat="45.7738420" lon="6.8657755">
        <ele>1944.94</ele>
        <time>2019-09-06T06:14:06Z</time>
      </trkpt>
      <trkpt lat="45.7738731" lon="6.8659357">
        <ele>1948.98</ele>
        <time>2019-09-06T06:15:32Z</time>
      </trkpt>
      <trkpt lat="45.7738564" lon="6.8660672">
        <ele>1946.43</ele>
        <time>2019-09-06T06:15:37Z</time>
      </trkpt>
      <trkpt lat="45.7738334" lon="6.8662164">
        <ele>1945.96</ele>
        <time>2019-09-06T06:15:43Z</time>
      </trkpt>
      <trkpt lat="45.7738410" lon="6.8663524">
        <ele>1945.94</ele>
        <time>2019-09-06T06:15:49Z</time>
      </trkpt>
      <trkpt lat="45.7738923" lon="6.8664974">
        <ele>1945.94</ele>
        <time>2019-09-06T06:15:57Z</time>
      </trkpt>
      <trkpt lat="45.7739500" lon="6.8666036">
        <ele>1947.61</ele>
        <time>2019-09-06T06:16:03Z</time>
      </trkpt>
      <trkpt lat="45.7740038" lon="6.8667327">
        <ele>1947.94</ele>
        <time>2019-09-06T06:16:11Z</time>
      </trkpt>
      <trkpt lat="45.7740561" lon="6.8668709">
        <ele>1948.93</ele>
        <time>2019-09-06T06:16:19Z</time>
      </trkpt>
      <trkpt lat="45.7740966" lon="6.8669925">
        <ele>1949.91</ele>
        <time>2019-09-06T06:16:25Z</time>
      </trkpt>
      <trkpt lat="45.7741238" lon="6.8671431">
        <ele>1949.94</ele>
        <time>2019-09-06T06:16:31Z</time>
      </trkpt>
      <trkpt lat="45.7742040" lon="6.8672680">
        <ele>1950.01</ele>
        <time>2019-09-06T06:16:39Z</time>
      </trkpt>
      <trkpt lat="45.7742879" lon="6.8673299">
        <ele>1950.92</ele>
        <time>2019-09-06T06:16:45Z</time>
      </trkpt>
      <trkpt lat="45.7743799" lon="6.8674215">
        <ele>1950.88</ele>
        <time>2019-09-06T06:16:53Z</time>
      </trkpt>
      <trkpt lat="45.7744497" lon="6.8675141">
        <ele>1950.94</ele>
        <time>2019-09-06T06:16:59Z</time>
      </trkpt>
      <trkpt lat="45.7745066" lon="6.8676282">
        <ele>1950.94</ele>
        <time>2019-09-06T06:17:05Z</time>
      </trkpt>
      <trkpt lat="45.7745592" lon="6.8677435">
        <ele>1950.94</ele>
        <time>2019-09-06T06:17:11Z</time>
      </trkpt>
      <trkpt lat="45.7745960" lon="6.8678627">
        <ele>1950.94</ele>
        <time>2019-09-06T06:17:17Z</time>
      </trkpt>
      <trkpt lat="45.7746434" lon="6.8679826">
        <ele>1949.97</ele>
        <time>2019-09-06T06:17:25Z</time>
      </trkpt>
      <trkpt lat="45.7746917" lon="6.8681367">
        <ele>1947.28</ele>
        <time>2019-09-06T06:17:33Z</time>
      </trkpt>
      <trkpt lat="45.7747736" lon="6.8682469">
        <ele>1948.35</ele>
        <time>2019-09-06T06:17:40Z</time>
      </trkpt>
      <trkpt lat="45.7748303" lon="6.8683523">
        <ele>1949.90</ele>
        <time>2019-09-06T06:17:46Z</time>
      </trkpt>
      <trkpt lat="45.7748711" lon="6.8684768">
        <ele>1949.03</ele>
        <time>2019-09-06T06:17:52Z</time>
      </trkpt>
      <trkpt lat="45.7749376" lon="6.8686208">
        <ele>1948.94</ele>
        <time>2019-09-06T06:18:00Z</time>
      </trkpt>
      <trkpt lat="45.7749733" lon="6.8687878">
        <ele>1950.84</ele>
        <time>2019-09-06T06:18:08Z</time>
      </trkpt>
      <trkpt lat="45.7750182" lon="6.8689226">
        <ele>1950.94</ele>
        <time>2019-09-06T06:18:16Z</time>
      </trkpt>
      <trkpt lat="45.7750454" lon="6.8690515">
        <ele>1950.03</ele>
        <time>2019-09-06T06:18:22Z</time>
      </trkpt>
      <trkpt lat="45.7751044" lon="6.8691949">
        <ele>1950.64</ele>
        <time>2019-09-06T06:18:30Z</time>
      </trkpt>
      <trkpt lat="45.7751487" lon="6.8693403">
        <ele>1950.71</ele>
        <time>2019-09-06T06:18:38Z</time>
      </trkpt>
      <trkpt lat="45.7752115" lon="6.8694788">
        <ele>1949.95</ele>
        <time>2019-09-06T06:18:46Z</time>
      </trkpt>
      <trkpt lat="45.7752519" lon="6.8696251">
        <ele>1950.93</ele>
        <time>2019-09-06T06:18:54Z</time>
      </trkpt>
      <trkpt lat="45.7752956" lon="6.8697751">
        <ele>1950.94</ele>
        <time>2019-09-06T06:19:02Z</time>
      </trkpt>
      <trkpt lat="45.7753676" lon="6.8699055">
        <ele>1950.67</ele>
        <time>2019-09-06T06:19:10Z</time>
      </trkpt>
      <trkpt lat="45.7753881" lon="6.8700330">
        <ele>1957.61</ele>
        <time>2019-09-06T06:22:55Z</time>
      </trkpt>
      <trkpt lat="45.7753809" lon="6.8701618">
        <ele>1959.02</ele>
        <time>2019-09-06T06:23:05Z</time>
      </trkpt>
      <trkpt lat="45.7754188" lon="6.8702987">
        <ele>1960.85</ele>
        <time>2019-09-06T06:23:15Z</time>
      </trkpt>
      <trkpt lat="45.7754301" lon="6.8704433">
        <ele>1961.88</ele>
        <time>2019-09-06T06:23:27Z</time>
      </trkpt>
      <trkpt lat="45.7754384" lon="6.8705849">
        <ele>1961.94</ele>
        <time>2019-09-06T06:23:37Z</time>
      </trkpt>
      <trkpt lat="45.7754328" lon="6.8707287">
        <ele>1961.94</ele>
        <time>2019-09-06T06:23:55Z</time>
      </trkpt>
      <trkpt lat="45.7754386" lon="6.8708733">
        <ele>1961.94</ele>
        <time>2019-09-06T06:24:11Z</time>
      </trkpt>
      <trkpt lat="45.7754846" lon="6.8710005">
        <ele>1963.70</ele>
        <time>2019-09-06T06:24:21Z</time>
      </trkpt>
      <trkpt lat="45.7755118" lon="6.8711496">
        <ele>1966.82</ele>
        <time>2019-09-06T06:24:31Z</time>
      </trkpt>
      <trkpt lat="45.7755138" lon="6.8712797">
        <ele>1969.82</ele>
        <time>2019-09-06T06:24:43Z</time>
      </trkpt>
      <trkpt lat="45.7755441" lon="6.8714053">
        <ele>1972.63</ele>
        <time>2019-09-06T06:25:01Z</time>
      </trkpt>
      <trkpt lat="45.7755518" lon="6.8715393">
        <ele>1974.85</ele>
        <time>2019-09-06T06:25:15Z</time>
      </trkpt>
      <trkpt lat="45.7755747" lon="6.8716744">
        <ele>1976.63</ele>
        <time>2019-09-06T06:25:29Z</time>
      </trkpt>
      <trkpt lat="45.7755532" lon="6.8718026">
        <ele>1979.61</ele>
        <time>2019-09-06T06:25:43Z</time>
      </trkpt>
      <trkpt lat="45.7754668" lon="6.8718494">
        <ele>1980.91</ele>
        <time>2019-09-06T06:25:57Z</time>
      </trkpt>
      <trkpt lat="45.7753697" lon="6.8718416">
        <ele>1982.63</ele>
        <time>2019-09-06T06:26:09Z</time>
      </trkpt>
      <trkpt lat="45.7752823" lon="6.8719065">
        <ele>1983.91</ele>
        <time>2019-09-06T06:26:19Z</time>
      </trkpt>
      <trkpt lat="45.7752148" lon="6.8719988">
        <ele>1985.63</ele>
        <time>2019-09-06T06:26:29Z</time>
      </trkpt>
      <trkpt lat="45.7751310" lon="6.8720752">
        <ele>1986.93</ele>
        <time>2019-09-06T06:26:39Z</time>
      </trkpt>
      <trkpt lat="45.7750704" lon="6.8721778">
        <ele>1987.93</ele>
        <time>2019-09-06T06:26:47Z</time>
      </trkpt>
      <trkpt lat="45.7750185" lon="6.8723156">
        <ele>1988.94</ele>
        <time>2019-09-06T06:26:59Z</time>
      </trkpt>
      <trkpt lat="45.7749581" lon="6.8724262">
        <ele>1988.94</ele>
        <time>2019-09-06T06:27:09Z</time>
      </trkpt>
      <trkpt lat="45.7748973" lon="6.8725434">
        <ele>1990.93</ele>
        <time>2019-09-06T06:27:21Z</time>
      </trkpt>
      <trkpt lat="45.7748618" lon="6.8726663">
        <ele>1992.85</ele>
        <time>2019-09-06T06:27:35Z</time>
      </trkpt>
      <trkpt lat="45.7748591" lon="6.8728159">
        <ele>1995.85</ele>
        <time>2019-09-06T06:27:49Z</time>
      </trkpt>
      <trkpt lat="45.7748330" lon="6.8729578">
        <ele>1998.91</ele>
        <time>2019-09-06T06:28:05Z</time>
      </trkpt>
      <trkpt lat="45.7748074" lon="6.8730945">
        <ele>2000.91</ele>
        <time>2019-09-06T06:28:19Z</time>
      </trkpt>
      <trkpt lat="45.7748119" lon="6.8732370">
        <ele>2001.66</ele>
        <time>2019-09-06T06:28:33Z</time>
      </trkpt>
      <trkpt lat="45.7748079" lon="6.8733670">
        <ele>2005.61</ele>
        <time>2019-09-06T06:28:45Z</time>
      </trkpt>
      <trkpt lat="45.7748064" lon="6.8735079">
        <ele>2006.91</ele>
        <time>2019-09-06T06:28:59Z</time>
      </trkpt>
      <trkpt lat="45.7747718" lon="6.8736513">
        <ele>2008.85</ele>
        <time>2019-09-06T06:29:13Z</time>
      </trkpt>
      <trkpt lat="45.7747308" lon="6.8737674">
        <ele>2012.84</ele>
        <time>2019-09-06T06:29:29Z</time>
      </trkpt>
      <trkpt lat="45.7747134" lon="6.8739041">
        <ele>2016.61</ele>
        <time>2019-09-06T06:29:43Z</time>
      </trkpt>
      <trkpt lat="45.7746797" lon="6.8740358">
        <ele>2018.84</ele>
        <time>2019-09-06T06:29:55Z</time>
      </trkpt>
      <trkpt lat="45.7746605" lon="6.8741628">
        <ele>2019.93</ele>
        <time>2019-09-06T06:30:05Z</time>
      </trkpt>
      <trkpt lat="45.7746204" lon="6.8742952">
        <ele>2022.54</ele>
        <time>2019-09-06T06:30:17Z</time>
      </trkpt>
      <trkpt lat="45.7745889" lon="6.8744298">
        <ele>2024.91</ele>
        <time>2019-09-06T06:30:31Z</time>
      </trkpt>
      <trkpt lat="45.7745348" lon="6.8745467">
        <ele>2028.84</ele>
        <time>2019-09-06T06:30:47Z</time>
      </trkpt>
      <trkpt lat="45.7744958" lon="6.8746819">
        <ele>2029.94</ele>
        <time>2019-09-06T06:31:01Z</time>
      </trkpt>
      <trkpt lat="45.7744589" lon="6.8748001">
        <ele>2032.61</ele>
        <time>2019-09-06T06:31:17Z</time>
      </trkpt>
      <trkpt lat="45.7744390" lon="6.8749368">
        <ele>2033.64</ele>
        <time>2019-09-06T06:31:29Z</time>
      </trkpt>
      <trkpt lat="45.7744405" lon="6.8750874">
        <ele>2034.93</ele>
        <time>2019-09-06T06:31:41Z</time>
      </trkpt>
      <trkpt lat="45.7744485" lon="6.8752321">
        <ele>2036.85</ele>
        <time>2019-09-06T06:32:01Z</time>
      </trkpt>
      <trkpt lat="45.7744701" lon="6.8753668">
        <ele>2037.73</ele>
        <time>2019-09-06T06:32:15Z</time>
      </trkpt>
      <trkpt lat="45.7744975" lon="6.8755049">
        <ele>2039.85</ele>
        <time>2019-09-06T06:32:31Z</time>
      </trkpt>
      <trkpt lat="45.7745565" lon="6.8756203">
        <ele>2042.15</ele>
        <time>2019-09-06T06:32:47Z</time>
      </trkpt>
      <trkpt lat="45.7746284" lon="6.8757036">
        <ele>2045.82</ele>
        <time>2019-09-06T06:33:01Z</time>
      </trkpt>
      <trkpt lat="45.7747221" lon="6.8757700">
        <ele>2046.94</ele>
        <time>2019-09-06T06:33:15Z</time>
      </trkpt>
      <trkpt lat="45.7748089" lon="6.8758257">
        <ele>2049.64</ele>
        <time>2019-09-06T06:33:29Z</time>
      </trkpt>
      <trkpt lat="45.7748782" lon="6.8759231">
        <ele>2053.64</ele>
        <time>2019-09-06T06:33:49Z</time>
      </trkpt>
      <trkpt lat="45.7748914" lon="6.8760632">
        <ele>2054.94</ele>
        <time>2019-09-06T06:34:03Z</time>
      </trkpt>
      <trkpt lat="45.7749073" lon="6.8761977">
        <ele>2056.66</ele>
        <time>2019-09-06T06:34:19Z</time>
      </trkpt>
      <trkpt lat="45.7749464" lon="6.8763301">
        <ele>2061.61</ele>
        <time>2019-09-06T06:34:33Z</time>
      </trkpt>
      <trkpt lat="45.7749880" lon="6.8764658">
        <ele>2062.91</ele>
        <time>2019-09-06T06:34:45Z</time>
      </trkpt>
      <trkpt lat="45.7750439" lon="6.8765821">
        <ele>2063.94</ele>
        <time>2019-09-06T06:34:57Z</time>
      </trkpt>
      <trkpt lat="45.7750836" lon="6.8766984">
        <ele>2066.63</ele>
        <time>2019-09-06T06:35:11Z</time>
      </trkpt>
      <trkpt lat="45.7751694" lon="6.8767509">
        <ele>2077.64</ele>
        <time>2019-09-06T06:42:05Z</time>
      </trkpt>
      <trkpt lat="45.7750812" lon="6.8768054">
        <ele>2076.87</ele>
        <time>2019-09-06T06:42:27Z</time>
      </trkpt>
      <trkpt lat="45.7750401" lon="6.8769382">
        <ele>2071.42</ele>
        <time>2019-09-06T06:42:49Z</time>
      </trkpt>
      <trkpt lat="45.7749505" lon="6.8769786">
        <ele>2084.79</ele>
        <time>2019-09-06T06:43:13Z</time>
      </trkpt>
      <trkpt lat="45.7748635" lon="6.8769303">
        <ele>2085.94</ele>
        <time>2019-09-06T06:43:35Z</time>
      </trkpt>
      <trkpt lat="45.7747685" lon="6.8768514">
        <ele>2086.56</ele>
        <time>2019-09-06T06:43:47Z</time>
      </trkpt>
      <trkpt lat="45.7746880" lon="6.8767935">
        <ele>2088.03</ele>
        <time>2019-09-06T06:44:01Z</time>
      </trkpt>
      <trkpt lat="45.7746194" lon="6.8766989">
        <ele>2093.49</ele>
        <time>2019-09-06T06:44:25Z</time>
      </trkpt>
      <trkpt lat="45.7745328" lon="6.8766481">
        <ele>2097.54</ele>
        <time>2019-09-06T06:44:39Z</time>
      </trkpt>
      <trkpt lat="45.7744376" lon="6.8766128">
        <ele>2100.14</ele>
        <time>2019-09-06T06:44:51Z</time>
      </trkpt>
      <trkpt lat="45.7743713" lon="6.8767148">
        <ele>2103.26</ele>
        <time>2019-09-06T06:45:27Z</time>
      </trkpt>
      <trkpt lat="45.7743043" lon="6.8768114">
        <ele>2099.74</ele>
        <time>2019-09-06T06:45:39Z</time>
      </trkpt>
      <trkpt lat="45.7743261" lon="6.8769370">
        <ele>2107.90</ele>
        <time>2019-09-06T06:45:57Z</time>
      </trkpt>
      <trkpt lat="45.7742797" lon="6.8770604">
        <ele>2108.55</ele>
        <time>2019-09-06T06:46:09Z</time>
      </trkpt>
      <trkpt lat="45.7742602" lon="6.8771991">
        <ele>2109.91</ele>
        <time>2019-09-06T06:46:27Z</time>
      </trkpt>
      <trkpt lat="45.7741949" lon="6.8772993">
        <ele>2117.64</ele>
        <time>2019-09-06T06:47:03Z</time>
      </trkpt>
      <trkpt lat="45.7741065" lon="6.8773633">
        <ele>2121.65</ele>
        <time>2019-09-06T06:47:17Z</time>
      </trkpt>
      <trkpt lat="45.7740234" lon="6.8773126">
        <ele>2122.93</ele>
        <time>2019-09-06T06:47:25Z</time>
      </trkpt>
      <trkpt lat="45.7739369" lon="6.8772597">
        <ele>2124.91</ele>
        <time>2019-09-06T06:47:43Z</time>
      </trkpt>
      <trkpt lat="45.7738507" lon="6.8773127">
        <ele>2126.65</ele>
        <time>2019-09-06T06:47:59Z</time>
      </trkpt>
      <trkpt lat="45.7737813" lon="6.8774128">
        <ele>2127.18</ele>
        <time>2019-09-06T06:48:17Z</time>
      </trkpt>
      <trkpt lat="45.7737946" lon="6.8775560">
        <ele>2127.94</ele>
        <time>2019-09-06T06:48:33Z</time>
      </trkpt>
      <trkpt lat="45.7738310" lon="6.8776908">
        <ele>2129.03</ele>
        <time>2019-09-06T06:48:49Z</time>
      </trkpt>
      <trkpt lat="45.7737579" lon="6.8777669">
        <ele>2131.84</ele>
        <time>2019-09-06T06:49:01Z</time>
      </trkpt>
      <trkpt lat="45.7736830" lon="6.8778399">
        <ele>2133.91</ele>
        <time>2019-09-06T06:49:15Z</time>
      </trkpt>
      <trkpt lat="45.7736055" lon="6.8779080">
        <ele>2135.15</ele>
        <time>2019-09-06T06:49:27Z</time>
      </trkpt>
      <trkpt lat="45.7735325" lon="6.8779884">
        <ele>2136.91</ele>
        <time>2019-09-06T06:49:39Z</time>
      </trkpt>
      <trkpt lat="45.7734481" lon="6.8780861">
        <ele>2138.00</ele>
        <time>2019-09-06T06:49:51Z</time>
      </trkpt>
      <trkpt lat="45.7733755" lon="6.8781668">
        <ele>2139.64</ele>
        <time>2019-09-06T06:50:03Z</time>
      </trkpt>
      <trkpt lat="45.7733211" lon="6.8782756">
        <ele>2141.85</ele>
        <time>2019-09-06T06:50:15Z</time>
      </trkpt>
      <trkpt lat="45.7732574" lon="6.8783735">
        <ele>2144.85</ele>
        <time>2019-09-06T06:50:29Z</time>
      </trkpt>
      <trkpt lat="45.7732340" lon="6.8785045">
        <ele>2146.85</ele>
        <time>2019-09-06T06:50:43Z</time>
      </trkpt>
      <trkpt lat="45.7732285" lon="6.8786401">
        <ele>2157.19</ele>
        <time>2019-09-06T06:52:32Z</time>
      </trkpt>
      <trkpt lat="45.7732050" lon="6.8787700">
        <ele>2157.24</ele>
        <time>2019-09-06T06:53:22Z</time>
      </trkpt>
      <trkpt lat="45.7731591" lon="6.8789085">
        <ele>2154.36</ele>
        <time>2019-09-06T06:53:30Z</time>
      </trkpt>
      <trkpt lat="45.7731046" lon="6.8790491">
        <ele>2154.65</ele>
        <time>2019-09-06T06:53:38Z</time>
      </trkpt>
      <trkpt lat="45.7730681" lon="6.8791709">
        <ele>2154.24</ele>
        <time>2019-09-06T06:53:46Z</time>
      </trkpt>
      <trkpt lat="45.7730223" lon="6.8792851">
        <ele>2152.97</ele>
        <time>2019-09-06T06:53:54Z</time>
      </trkpt>
      <trkpt lat="45.7729417" lon="6.8793514">
        <ele>2153.85</ele>
        <time>2019-09-06T06:54:04Z</time>
      </trkpt>
      <trkpt lat="45.7728508" lon="6.8794441">
        <ele>2155.63</ele>
        <time>2019-09-06T06:54:18Z</time>
      </trkpt>
      <trkpt lat="45.7728904" lon="6.8795894">
        <ele>2156.00</ele>
        <time>2019-09-06T06:54:30Z</time>
      </trkpt>
      <trkpt lat="45.7729923" lon="6.8795354">
        <ele>2156.85</ele>
        <time>2019-09-06T06:54:42Z</time>
      </trkpt>
      <trkpt lat="45.7730680" lon="6.8796071">
        <ele>2158.64</ele>
        <time>2019-09-06T06:54:56Z</time>
      </trkpt>
      <trkpt lat="45.7729936" lon="6.8796929">
        <ele>2158.92</ele>
        <time>2019-09-06T06:55:18Z</time>
      </trkpt>
      <trkpt lat="45.7729033" lon="6.8797405">
        <ele>2157.94</ele>
        <time>2019-09-06T06:55:30Z</time>
      </trkpt>
      <trkpt lat="45.7728051" lon="6.8797594">
        <ele>2157.01</ele>
        <time>2019-09-06T06:55:46Z</time>
      </trkpt>
      <trkpt lat="45.7727238" lon="6.8798278">
        <ele>2157.85</ele>
        <time>2019-09-06T06:56:00Z</time>
      </trkpt>
      <trkpt lat="45.7726392" lon="6.8798780">
        <ele>2160.61</ele>
        <time>2019-09-06T06:56:16Z</time>
      </trkpt>
      <trkpt lat="45.7725907" lon="6.8799901">
        <ele>2162.15</ele>
        <time>2019-09-06T06:56:38Z</time>
      </trkpt>
      <trkpt lat="45.7725297" lon="6.8801034">
        <ele>2163.64</ele>
        <time>2019-09-06T06:56:56Z</time>
      </trkpt>
      <trkpt lat="45.7724551" lon="6.8801963">
        <ele>2164.75</ele>
        <time>2019-09-06T06:57:18Z</time>
      </trkpt>
      <trkpt lat="45.7724028" lon="6.8803017">
        <ele>2169.94</ele>
        <time>2019-09-06T06:57:42Z</time>
      </trkpt>
      <trkpt lat="45.7723546" lon="6.8804124">
        <ele>2170.28</ele>
        <time>2019-09-06T06:58:00Z</time>
      </trkpt>
      <trkpt lat="45.7722853" lon="6.8805050">
        <ele>2174.84</ele>
        <time>2019-09-06T06:58:22Z</time>
      </trkpt>
      <trkpt lat="45.7722314" lon="6.8806132">
        <ele>2177.68</ele>
        <time>2019-09-06T06:58:42Z</time>
      </trkpt>
      <trkpt lat="45.7721486" lon="6.8806680">
        <ele>2184.84</ele>
        <time>2019-09-06T06:59:00Z</time>
      </trkpt>
      <trkpt lat="45.7720869" lon="6.8807803">
        <ele>2187.40</ele>
        <time>2019-09-06T06:59:18Z</time>
      </trkpt>
      <trkpt lat="45.7720045" lon="6.8808483">
        <ele>2193.93</ele>
        <time>2019-09-06T06:59:42Z</time>
      </trkpt>
      <trkpt lat="45.7719229" lon="6.8807723">
        <ele>2196.91</ele>
        <time>2019-09-06T06:59:58Z</time>
      </trkpt>
      <trkpt lat="45.7718473" lon="6.8808637">
        <ele>2196.93</ele>
        <time>2019-09-06T07:00:14Z</time>
      </trkpt>
      <trkpt lat="45.7717707" lon="6.8809499">
        <ele>2194.02</ele>
        <time>2019-09-06T07:00:28Z</time>
      </trkpt>
      <trkpt lat="45.7716909" lon="6.8810112">
        <ele>2202.52</ele>
        <time>2019-09-06T07:00:44Z</time>
      </trkpt>
      <trkpt lat="45.7716349" lon="6.8811254">
        <ele>2205.85</ele>
        <time>2019-09-06T07:01:00Z</time>
      </trkpt>
      <trkpt lat="45.7716162" lon="6.8812725">
        <ele>2208.82</ele>
        <time>2019-09-06T07:01:14Z</time>
      </trkpt>
      <trkpt lat="45.7715464" lon="6.8813597">
        <ele>2209.94</ele>
        <time>2019-09-06T07:01:28Z</time>
      </trkpt>
      <trkpt lat="45.7714704" lon="6.8814392">
        <ele>2212.63</ele>
        <time>2019-09-06T07:01:44Z</time>
      </trkpt>
      <trkpt lat="45.7713961" lon="6.8815356">
        <ele>2217.99</ele>
        <time>2019-09-06T07:03:16Z</time>
      </trkpt>
      <trkpt lat="45.7713623" lon="6.8816571">
        <ele>2225.24</ele>
        <time>2019-09-06T07:03:38Z</time>
      </trkpt>
      <trkpt lat="45.7713090" lon="6.8817629">
        <ele>2227.84</ele>
        <time>2019-09-06T07:03:48Z</time>
      </trkpt>
      <trkpt lat="45.7712062" lon="6.8817942">
        <ele>2229.93</ele>
        <time>2019-09-06T07:03:58Z</time>
      </trkpt>
      <trkpt lat="45.7711069" lon="6.8818305">
        <ele>2231.93</ele>
        <time>2019-09-06T07:04:12Z</time>
      </trkpt>
      <trkpt lat="45.7710349" lon="6.8819112">
        <ele>2232.92</ele>
        <time>2019-09-06T07:04:22Z</time>
      </trkpt>
      <trkpt lat="45.7709481" lon="6.8819968">
        <ele>2232.92</ele>
        <time>2019-09-06T07:04:34Z</time>
      </trkpt>
      <trkpt lat="45.7708578" lon="6.8820655">
        <ele>2233.94</ele>
        <time>2019-09-06T07:04:44Z</time>
      </trkpt>
      <trkpt lat="45.7707728" lon="6.8821103">
        <ele>2211.46</ele>
        <time>2019-09-06T07:04:52Z</time>
      </trkpt>
      <trkpt lat="45.7706781" lon="6.8821465">
        <ele>2230.34</ele>
        <time>2019-09-06T07:05:02Z</time>
      </trkpt>
      <trkpt lat="45.7705724" lon="6.8821241">
        <ele>2234.02</ele>
        <time>2019-09-06T07:05:14Z</time>
      </trkpt>
      <trkpt lat="45.7704672" lon="6.8821621">
        <ele>2233.88</ele>
        <time>2019-09-06T07:05:24Z</time>
      </trkpt>
      <trkpt lat="45.7703996" lon="6.8822644">
        <ele>2239.77</ele>
        <time>2019-09-06T07:05:39Z</time>
      </trkpt>
      <trkpt lat="45.7703026" lon="6.8823077">
        <ele>2216.76</ele>
        <time>2019-09-06T07:05:52Z</time>
      </trkpt>
      <trkpt lat="45.7701983" lon="6.8822947">
        <ele>2241.93</ele>
        <time>2019-09-06T07:06:03Z</time>
      </trkpt>
      <trkpt lat="45.7701196" lon="6.8823840">
        <ele>2223.15</ele>
        <time>2019-09-06T07:06:16Z</time>
      </trkpt>
      <trkpt lat="45.7700401" lon="6.8824666">
        <ele>2247.84</ele>
        <time>2019-09-06T07:06:28Z</time>
      </trkpt>
      <trkpt lat="45.7699870" lon="6.8825771">
        <ele>2232.25</ele>
        <time>2019-09-06T07:06:40Z</time>
      </trkpt>
      <trkpt lat="45.7699726" lon="6.8827232">
        <ele>2246.77</ele>
        <time>2019-09-06T07:06:50Z</time>
      </trkpt>
      <trkpt lat="45.7699235" lon="6.8828346">
        <ele>2248.82</ele>
        <time>2019-09-06T07:07:00Z</time>
      </trkpt>
      <trkpt lat="45.7698376" lon="6.8828819">
        <ele>2249.94</ele>
        <time>2019-09-06T07:07:12Z</time>
      </trkpt>
      <trkpt lat="45.7697431" lon="6.8829459">
        <ele>2250.85</ele>
        <time>2019-09-06T07:07:24Z</time>
      </trkpt>
      <trkpt lat="45.7696638" lon="6.8830320">
        <ele>2254.62</ele>
        <time>2019-09-06T07:07:38Z</time>
      </trkpt>
      <trkpt lat="45.7695818" lon="6.8830859">
        <ele>2254.94</ele>
        <time>2019-09-06T07:07:56Z</time>
      </trkpt>
      <trkpt lat="45.7695046" lon="6.8831610">
        <ele>2255.94</ele>
        <time>2019-09-06T07:08:12Z</time>
      </trkpt>
      <trkpt lat="45.7694102" lon="6.8831820">
        <ele>2258.24</ele>
        <time>2019-09-06T07:08:26Z</time>
      </trkpt>
      <trkpt lat="45.7693228" lon="6.8831319">
        <ele>2260.55</ele>
        <time>2019-09-06T07:08:40Z</time>
      </trkpt>
      <trkpt lat="45.7692338" lon="6.8831707">
        <ele>2260.86</ele>
        <time>2019-09-06T07:09:02Z</time>
      </trkpt>
      <trkpt lat="45.7692187" lon="6.8833207">
        <ele>2264.91</ele>
        <time>2019-09-06T07:09:22Z</time>
      </trkpt>
      <trkpt lat="45.7691321" lon="6.8833685">
        <ele>2264.03</ele>
        <time>2019-09-06T07:09:48Z</time>
      </trkpt>
      <trkpt lat="45.7690434" lon="6.8834095">
        <ele>2264.64</ele>
        <time>2019-09-06T07:10:16Z</time>
      </trkpt>
      <trkpt lat="45.7689769" lon="6.8835013">
        <ele>2267.64</ele>
        <time>2019-09-06T07:10:32Z</time>
      </trkpt>
      <trkpt lat="45.7689488" lon="6.8836251">
        <ele>2273.63</ele>
        <time>2019-09-06T07:10:52Z</time>
      </trkpt>
      <trkpt lat="45.7690189" lon="6.8837188">
        <ele>2276.61</ele>
        <time>2019-09-06T07:11:04Z</time>
      </trkpt>
      <trkpt lat="45.7690722" lon="6.8838306">
        <ele>2279.64</ele>
        <time>2019-09-06T07:11:18Z</time>
      </trkpt>
      <trkpt lat="45.7690214" lon="6.8836392">
        <ele>2305.74</ele>
        <time>2019-09-06T07:12:45Z</time>
      </trkpt>
      <trkpt lat="45.7691543" lon="6.8836881">
        <ele>2238.53</ele>
        <time>2019-09-06T07:13:26Z</time>
      </trkpt>
      <trkpt lat="45.7692666" lon="6.8837663">
        <ele>2269.75</ele>
        <time>2019-09-06T07:13:35Z</time>
      </trkpt>
      <trkpt lat="45.7691775" lon="6.8837278">
        <ele>2296.24</ele>
        <time>2019-09-06T07:14:46Z</time>
      </trkpt>
      <trkpt lat="45.7690629" lon="6.8837605">
        <ele>2291.97</ele>
        <time>2019-09-06T07:14:56Z</time>
      </trkpt>
      <trkpt lat="45.7689729" lon="6.8837466">
        <ele>2238.85</ele>
        <time>2019-09-06T07:15:40Z</time>
      </trkpt>
      <trkpt lat="45.7689715" lon="6.8838874">
        <ele>2234.71</ele>
        <time>2019-09-06T07:16:10Z</time>
      </trkpt>
      <trkpt lat="45.7690275" lon="6.8837769">
        <ele>2286.40</ele>
        <time>2019-09-06T07:16:26Z</time>
      </trkpt>
      <trkpt lat="45.7688928" lon="6.8836399">
        <ele>2241.24</ele>
        <time>2019-09-06T07:19:12Z</time>
      </trkpt>
      <trkpt lat="45.7688918" lon="6.8837753">
        <ele>2287.63</ele>
        <time>2019-09-06T07:19:23Z</time>
      </trkpt>
      <trkpt lat="45.7688946" lon="6.8839718">
        <ele>2295.85</ele>
        <time>2019-09-06T07:19:34Z</time>
      </trkpt>
      <trkpt lat="45.7687819" lon="6.8840230">
        <ele>2296.09</ele>
        <time>2019-09-06T07:19:43Z</time>
      </trkpt>
      <trkpt lat="45.7688096" lon="6.8841652">
        <ele>2293.05</ele>
        <time>2019-09-06T07:19:52Z</time>
      </trkpt>
      <trkpt lat="45.7687941" lon="6.8843064">
        <ele>2292.53</ele>
        <time>2019-09-06T07:20:00Z</time>
      </trkpt>
      <trkpt lat="45.7688142" lon="6.8844339">
        <ele>2293.74</ele>
        <time>2019-09-06T07:20:12Z</time>
      </trkpt>
      <trkpt lat="45.7687708" lon="6.8845614">
        <ele>2289.08</ele>
        <time>2019-09-06T07:20:24Z</time>
      </trkpt>
      <trkpt lat="45.7687066" lon="6.8846781">
        <ele>2292.67</ele>
        <time>2019-09-06T07:20:36Z</time>
      </trkpt>
      <trkpt lat="45.7686333" lon="6.8847886">
        <ele>2291.27</ele>
        <time>2019-09-06T07:20:46Z</time>
      </trkpt>
      <trkpt lat="45.7686126" lon="6.8849195">
        <ele>2220.67</ele>
        <time>2019-09-06T07:20:58Z</time>
      </trkpt>
      <trkpt lat="45.7685739" lon="6.8850392">
        <ele>2279.49</ele>
        <time>2019-09-06T07:21:12Z</time>
      </trkpt>
      <trkpt lat="45.7685793" lon="6.8851825">
        <ele>2292.52</ele>
        <time>2019-09-06T07:21:32Z</time>
      </trkpt>
      <trkpt lat="45.7685428" lon="6.8853099">
        <ele>2293.85</ele>
        <time>2019-09-06T07:21:44Z</time>
      </trkpt>
      <trkpt lat="45.7685471" lon="6.8854560">
        <ele>2240.80</ele>
        <time>2019-09-06T07:21:58Z</time>
      </trkpt>
      <trkpt lat="45.7685080" lon="6.8855824">
        <ele>2284.11</ele>
        <time>2019-09-06T07:22:08Z</time>
      </trkpt>
      <trkpt lat="45.7684797" lon="6.8857074">
        <ele>2293.51</ele>
        <time>2019-09-06T07:22:24Z</time>
      </trkpt>
      <trkpt lat="45.7683992" lon="6.8857678">
        <ele>2293.94</ele>
        <time>2019-09-06T07:22:34Z</time>
      </trkpt>
      <trkpt lat="45.7683117" lon="6.8858022">
        <ele>2293.71</ele>
        <time>2019-09-06T07:22:42Z</time>
      </trkpt>
      <trkpt lat="45.7681684" lon="6.8860229">
        <ele>2253.68</ele>
        <time>2019-09-06T07:23:10Z</time>
      </trkpt>
      <trkpt lat="45.7681020" lon="6.8866955">
        <ele>2306.95</ele>
        <time>2019-09-06T07:24:02Z</time>
      </trkpt>
      <trkpt lat="45.7681001" lon="6.8868263">
        <ele>2332.58</ele>
        <time>2019-09-06T07:24:19Z</time>
      </trkpt>
      <trkpt lat="45.7679889" lon="6.8870457">
        <ele>2266.54</ele>
        <time>2019-09-06T07:24:44Z</time>
      </trkpt>
      <trkpt lat="45.7680861" lon="6.8870741">
        <ele>2322.73</ele>
        <time>2019-09-06T07:25:01Z</time>
      </trkpt>
      <trkpt lat="45.7681840" lon="6.8870313">
        <ele>2278.34</ele>
        <time>2019-09-06T07:25:19Z</time>
      </trkpt>
      <trkpt lat="45.7682682" lon="6.8869371">
        <ele>2262.40</ele>
        <time>2019-09-06T07:25:35Z</time>
      </trkpt>
      <trkpt lat="45.7683585" lon="6.8868930">
        <ele>2317.90</ele>
        <time>2019-09-06T07:25:49Z</time>
      </trkpt>
      <trkpt lat="45.7684481" lon="6.8869078">
        <ele>2327.63</ele>
        <time>2019-09-06T07:26:07Z</time>
      </trkpt>
      <trkpt lat="45.7685428" lon="6.8869198">
        <ele>2331.14</ele>
        <time>2019-09-06T07:26:37Z</time>
      </trkpt>
      <trkpt lat="45.7686284" lon="6.8869818">
        <ele>2327.80</ele>
        <time>2019-09-06T07:26:46Z</time>
      </trkpt>
      <trkpt lat="45.7687143" lon="6.8869323">
        <ele>2330.75</ele>
        <time>2019-09-06T07:26:54Z</time>
      </trkpt>
      <trkpt lat="45.7688038" lon="6.8868720">
        <ele>2258.61</ele>
        <time>2019-09-06T07:27:08Z</time>
      </trkpt>
      <trkpt lat="45.7688908" lon="6.8867858">
        <ele>2238.35</ele>
        <time>2019-09-06T07:27:22Z</time>
      </trkpt>
      <trkpt lat="45.7689933" lon="6.8867698">
        <ele>2328.09</ele>
        <time>2019-09-06T07:27:40Z</time>
      </trkpt>
      <trkpt lat="45.7690869" lon="6.8867471">
        <ele>2242.51</ele>
        <time>2019-09-06T07:28:02Z</time>
      </trkpt>
      <trkpt lat="45.7691721" lon="6.8867026">
        <ele>2322.33</ele>
        <time>2019-09-06T07:28:14Z</time>
      </trkpt>
      <trkpt lat="45.7692669" lon="6.8866492">
        <ele>2270.74</ele>
        <time>2019-09-06T07:28:24Z</time>
      </trkpt>
      <trkpt lat="45.7693517" lon="6.8866043">
        <ele>2325.50</ele>
        <time>2019-09-06T07:28:34Z</time>
      </trkpt>
      <trkpt lat="45.7694439" lon="6.8866069">
        <ele>2337.46</ele>
        <time>2019-09-06T07:28:46Z</time>
      </trkpt>
      <trkpt lat="45.7695499" lon="6.8865696">
        <ele>2340.70</ele>
        <time>2019-09-06T07:28:56Z</time>
      </trkpt>
      <trkpt lat="45.7696414" lon="6.8865879">
        <ele>2345.83</ele>
        <time>2019-09-06T07:30:32Z</time>
      </trkpt>
      <trkpt lat="45.7697248" lon="6.8866835">
        <ele>2345.03</ele>
        <time>2019-09-06T07:30:42Z</time>
      </trkpt>
      <trkpt lat="45.7697872" lon="6.8867890">
        <ele>2346.85</ele>
        <time>2019-09-06T07:31:02Z</time>
      </trkpt>
      <trkpt lat="45.7698393" lon="6.8869056">
        <ele>2346.95</ele>
        <time>2019-09-06T07:31:14Z</time>
      </trkpt>
      <trkpt lat="45.7699202" lon="6.8870230">
        <ele>2346.03</ele>
        <time>2019-09-06T07:31:24Z</time>
      </trkpt>
      <trkpt lat="45.7699915" lon="6.8871431">
        <ele>2345.03</ele>
        <time>2019-09-06T07:31:32Z</time>
      </trkpt>
      <trkpt lat="45.7700204" lon="6.8872736">
        <ele>2344.94</ele>
        <time>2019-09-06T07:31:40Z</time>
      </trkpt>
      <trkpt lat="45.7700492" lon="6.8874235">
        <ele>2344.24</ele>
        <time>2019-09-06T07:31:48Z</time>
      </trkpt>
      <trkpt lat="45.7700845" lon="6.8875522">
        <ele>2344.24</ele>
        <time>2019-09-06T07:31:56Z</time>
      </trkpt>
      <trkpt lat="45.7700994" lon="6.8876931">
        <ele>2345.91</ele>
        <time>2019-09-06T07:32:06Z</time>
      </trkpt>
      <trkpt lat="45.7701702" lon="6.8877902">
        <ele>2347.93</ele>
        <time>2019-09-06T07:32:20Z</time>
      </trkpt>
      <trkpt lat="45.7702254" lon="6.8878977">
        <ele>2349.93</ele>
        <time>2019-09-06T07:32:38Z</time>
      </trkpt>
      <trkpt lat="45.7703139" lon="6.8879565">
        <ele>2350.94</ele>
        <time>2019-09-06T07:32:52Z</time>
      </trkpt>
      <trkpt lat="45.7703303" lon="6.8880914">
        <ele>2352.34</ele>
        <time>2019-09-06T07:33:00Z</time>
      </trkpt>
      <trkpt lat="45.7703992" lon="6.8881772">
        <ele>2357.23</ele>
        <time>2019-09-06T07:33:14Z</time>
      </trkpt>
      <trkpt lat="45.7704944" lon="6.8882087">
        <ele>2357.93</ele>
        <time>2019-09-06T07:33:24Z</time>
      </trkpt>
      <trkpt lat="45.7705829" lon="6.8882725">
        <ele>2358.00</ele>
        <time>2019-09-06T07:33:32Z</time>
      </trkpt>
      <trkpt lat="45.7706059" lon="6.8884066">
        <ele>2357.94</ele>
        <time>2019-09-06T07:33:44Z</time>
      </trkpt>
      <trkpt lat="45.7706685" lon="6.8885026">
        <ele>2360.41</ele>
        <time>2019-09-06T07:33:56Z</time>
      </trkpt>
      <trkpt lat="45.7707323" lon="6.8886155">
        <ele>2358.02</ele>
        <time>2019-09-06T07:34:06Z</time>
      </trkpt>
      <trkpt lat="45.7708213" lon="6.8886915">
        <ele>2331.90</ele>
        <time>2019-09-06T07:34:18Z</time>
      </trkpt>
      <trkpt lat="45.7708652" lon="6.8888291">
        <ele>2353.65</ele>
        <time>2019-09-06T07:34:28Z</time>
      </trkpt>
      <trkpt lat="45.7709278" lon="6.8889426">
        <ele>2341.13</ele>
        <time>2019-09-06T07:34:42Z</time>
      </trkpt>
      <trkpt lat="45.7709880" lon="6.8890639">
        <ele>2361.49</ele>
        <time>2019-09-06T07:35:00Z</time>
      </trkpt>
      <trkpt lat="45.7710609" lon="6.8891538">
        <ele>2366.61</ele>
        <time>2019-09-06T07:35:18Z</time>
      </trkpt>
      <trkpt lat="45.7711516" lon="6.8891455">
        <ele>2259.34</ele>
        <time>2019-09-06T07:35:36Z</time>
      </trkpt>
      <trkpt lat="45.7712386" lon="6.8891920">
        <ele>2369.45</ele>
        <time>2019-09-06T07:35:58Z</time>
      </trkpt>
      <trkpt lat="45.7713275" lon="6.8892169">
        <ele>2371.93</ele>
        <time>2019-09-06T07:36:12Z</time>
      </trkpt>
      <trkpt lat="45.7714181" lon="6.8892375">
        <ele>2347.55</ele>
        <time>2019-09-06T07:36:28Z</time>
      </trkpt>
      <trkpt lat="45.7715135" lon="6.8892908">
        <ele>2375.47</ele>
        <time>2019-09-06T07:36:44Z</time>
      </trkpt>
      <trkpt lat="45.7716101" lon="6.8893385">
        <ele>2383.31</ele>
        <time>2019-09-06T07:37:02Z</time>
      </trkpt>
      <trkpt lat="45.7717153" lon="6.8893450">
        <ele>2410.68</ele>
        <time>2019-09-06T07:37:32Z</time>
      </trkpt>
      <trkpt lat="45.7718121" lon="6.8894052">
        <ele>2407.55</ele>
        <time>2019-09-06T07:37:43Z</time>
      </trkpt>
      <trkpt lat="45.7719012" lon="6.8894427">
        <ele>2408.55</ele>
        <time>2019-09-06T07:37:57Z</time>
      </trkpt>
      <trkpt lat="45.7720076" lon="6.8894682">
        <ele>2410.91</ele>
        <time>2019-09-06T07:38:09Z</time>
      </trkpt>
      <trkpt lat="45.7720905" lon="6.8895261">
        <ele>2410.24</ele>
        <time>2019-09-06T07:38:23Z</time>
      </trkpt>
      <trkpt lat="45.7721582" lon="6.8896112">
        <ele>2410.93</ele>
        <time>2019-09-06T07:38:35Z</time>
      </trkpt>
      <trkpt lat="45.7722358" lon="6.8896888">
        <ele>2410.94</ele>
        <time>2019-09-06T07:38:49Z</time>
      </trkpt>
      <trkpt lat="45.7723116" lon="6.8897607">
        <ele>2414.82</ele>
        <time>2019-09-06T07:39:03Z</time>
      </trkpt>
      <trkpt lat="45.7722223" lon="6.8897345">
        <ele>2434.91</ele>
        <time>2019-09-06T07:42:28Z</time>
      </trkpt>
      <trkpt lat="45.7722131" lon="6.8898931">
        <ele>2435.46</ele>
        <time>2019-09-06T07:49:28Z</time>
      </trkpt>
      <trkpt lat="45.7722871" lon="6.8899846">
        <ele>2435.49</ele>
        <time>2019-09-06T07:49:36Z</time>
      </trkpt>
      <trkpt lat="45.7722644" lon="6.8901187">
        <ele>2433.27</ele>
        <time>2019-09-06T07:49:46Z</time>
      </trkpt>
      <trkpt lat="45.7722334" lon="6.8902415">
        <ele>2432.50</ele>
        <time>2019-09-06T07:49:58Z</time>
      </trkpt>
      <trkpt lat="45.7721554" lon="6.8903401">
        <ele>2430.52</ele>
        <time>2019-09-06T07:50:10Z</time>
      </trkpt>
      <trkpt lat="45.7720875" lon="6.8904483">
        <ele>2428.75</ele>
        <time>2019-09-06T07:50:20Z</time>
      </trkpt>
      <trkpt lat="45.7720071" lon="6.8905097">
        <ele>2424.02</ele>
        <time>2019-09-06T07:50:28Z</time>
      </trkpt>
      <trkpt lat="45.7719440" lon="6.8906507">
        <ele>2422.26</ele>
        <time>2019-09-06T07:50:38Z</time>
      </trkpt>
      <trkpt lat="45.7720187" lon="6.8907586">
        <ele>2419.58</ele>
        <time>2019-09-06T07:50:52Z</time>
      </trkpt>
      <trkpt lat="45.7721104" lon="6.8906892">
        <ele>2418.65</ele>
        <time>2019-09-06T07:51:02Z</time>
      </trkpt>
      <trkpt lat="45.7722207" lon="6.8906944">
        <ele>2414.15</ele>
        <time>2019-09-06T07:51:22Z</time>
      </trkpt>
      <trkpt lat="45.7723198" lon="6.8906818">
        <ele>2410.21</ele>
        <time>2019-09-06T07:51:34Z</time>
      </trkpt>
      <trkpt lat="45.7724039" lon="6.8907656">
        <ele>2410.25</ele>
        <time>2019-09-06T07:51:44Z</time>
      </trkpt>
      <trkpt lat="45.7723865" lon="6.8908936">
        <ele>2405.36</ele>
        <time>2019-09-06T07:51:54Z</time>
      </trkpt>
      <trkpt lat="45.7723186" lon="6.8909806">
        <ele>2400.07</ele>
        <time>2019-09-06T07:52:06Z</time>
      </trkpt>
      <trkpt lat="45.7722320" lon="6.8910698">
        <ele>2396.57</ele>
        <time>2019-09-06T07:52:18Z</time>
      </trkpt>
      <trkpt lat="45.7721215" lon="6.8911326">
        <ele>2395.75</ele>
        <time>2019-09-06T07:52:24Z</time>
      </trkpt>
      <trkpt lat="45.7720591" lon="6.8912471">
        <ele>2391.74</ele>
        <time>2019-09-06T07:52:30Z</time>
      </trkpt>
      <trkpt lat="45.7720377" lon="6.8913907">
        <ele>2389.07</ele>
        <time>2019-09-06T07:52:38Z</time>
      </trkpt>
      <trkpt lat="45.7719535" lon="6.8914750">
        <ele>2383.39</ele>
        <time>2019-09-06T07:52:58Z</time>
      </trkpt>
      <trkpt lat="45.7718514" lon="6.8915300">
        <ele>2381.95</ele>
        <time>2019-09-06T07:53:08Z</time>
      </trkpt>
      <trkpt lat="45.7717637" lon="6.8915942">
        <ele>2380.27</ele>
        <time>2019-09-06T07:53:16Z</time>
      </trkpt>
      <trkpt lat="45.7716802" lon="6.8916877">
        <ele>2379.97</ele>
        <time>2019-09-06T07:53:26Z</time>
      </trkpt>
      <trkpt lat="45.7715819" lon="6.8917447">
        <ele>2377.25</ele>
        <time>2019-09-06T07:53:36Z</time>
      </trkpt>
      <trkpt lat="45.7715079" lon="6.8918364">
        <ele>2375.04</ele>
        <time>2019-09-06T07:53:46Z</time>
      </trkpt>
      <trkpt lat="45.7714160" lon="6.8919190">
        <ele>2374.01</ele>
        <time>2019-09-06T07:53:56Z</time>
      </trkpt>
      <trkpt lat="45.7713301" lon="6.8919802">
        <ele>2373.03</ele>
        <time>2019-09-06T07:54:04Z</time>
      </trkpt>
      <trkpt lat="45.7712516" lon="6.8920830">
        <ele>2371.33</ele>
        <time>2019-09-06T07:54:14Z</time>
      </trkpt>
      <trkpt lat="45.7711821" lon="6.8921692">
        <ele>2370.03</ele>
        <time>2019-09-06T07:54:24Z</time>
      </trkpt>
      <trkpt lat="45.7710954" lon="6.8922783">
        <ele>2368.97</ele>
        <time>2019-09-06T07:54:32Z</time>
      </trkpt>
      <trkpt lat="45.7710226" lon="6.8923767">
        <ele>2367.27</ele>
        <time>2019-09-06T07:54:40Z</time>
      </trkpt>
      <trkpt lat="45.7709791" lon="6.8925025">
        <ele>2366.94</ele>
        <time>2019-09-06T07:54:48Z</time>
      </trkpt>
      <trkpt lat="45.7709105" lon="6.8925963">
        <ele>2366.03</ele>
        <time>2019-09-06T07:54:56Z</time>
      </trkpt>
      <trkpt lat="45.7708606" lon="6.8927063">
        <ele>2365.94</ele>
        <time>2019-09-06T07:55:04Z</time>
      </trkpt>
      <trkpt lat="45.7708221" lon="6.8928484">
        <ele>2363.98</ele>
        <time>2019-09-06T07:55:12Z</time>
      </trkpt>
      <trkpt lat="45.7707464" lon="6.8929643">
        <ele>2361.97</ele>
        <time>2019-09-06T07:55:22Z</time>
      </trkpt>
      <trkpt lat="45.7706947" lon="6.8930976">
        <ele>2360.25</ele>
        <time>2019-09-06T07:55:30Z</time>
      </trkpt>
      <trkpt lat="45.7706594" lon="6.8932275">
        <ele>2358.25</ele>
        <time>2019-09-06T07:55:38Z</time>
      </trkpt>
      <trkpt lat="45.7706249" lon="6.8933561">
        <ele>2356.97</ele>
        <time>2019-09-06T07:55:46Z</time>
      </trkpt>
      <trkpt lat="45.7706034" lon="6.8935162">
        <ele>2355.25</ele>
        <time>2019-09-06T07:55:56Z</time>
      </trkpt>
      <trkpt lat="45.7706047" lon="6.8936487">
        <ele>2354.94</ele>
        <time>2019-09-06T07:56:04Z</time>
      </trkpt>
      <trkpt lat="45.7705924" lon="6.8937829">
        <ele>2354.03</ele>
        <time>2019-09-06T07:56:14Z</time>
      </trkpt>
      <trkpt lat="45.7705048" lon="6.8938507">
        <ele>2353.03</ele>
        <time>2019-09-06T07:56:24Z</time>
      </trkpt>
      <trkpt lat="45.7704630" lon="6.8939685">
        <ele>2352.03</ele>
        <time>2019-09-06T07:56:30Z</time>
      </trkpt>
      <trkpt lat="45.7704200" lon="6.8941040">
        <ele>2351.24</ele>
        <time>2019-09-06T07:56:38Z</time>
      </trkpt>
      <trkpt lat="45.7704031" lon="6.8942507">
        <ele>2350.24</ele>
        <time>2019-09-06T07:56:46Z</time>
      </trkpt>
      <trkpt lat="45.7703660" lon="6.8943827">
        <ele>2348.97</ele>
        <time>2019-09-06T07:56:54Z</time>
      </trkpt>
      <trkpt lat="45.7703663" lon="6.8945118">
        <ele>2347.95</ele>
        <time>2019-09-06T07:57:02Z</time>
      </trkpt>
      <trkpt lat="45.7703855" lon="6.8946656">
        <ele>2346.97</ele>
        <time>2019-09-06T07:57:10Z</time>
      </trkpt>
      <trkpt lat="45.7703742" lon="6.8948132">
        <ele>2345.27</ele>
        <time>2019-09-06T07:57:18Z</time>
      </trkpt>
      <trkpt lat="45.7703501" lon="6.8949458">
        <ele>2344.24</ele>
        <time>2019-09-06T07:57:26Z</time>
      </trkpt>
      <trkpt lat="45.7703344" lon="6.8950800">
        <ele>2342.97</ele>
        <time>2019-09-06T07:57:34Z</time>
      </trkpt>
      <trkpt lat="45.7702992" lon="6.8952021">
        <ele>2340.27</ele>
        <time>2019-09-06T07:57:44Z</time>
      </trkpt>
      <trkpt lat="45.7702678" lon="6.8953591">
        <ele>2339.24</ele>
        <time>2019-09-06T07:57:52Z</time>
      </trkpt>
      <trkpt lat="45.7702308" lon="6.8954965">
        <ele>2337.97</ele>
        <time>2019-09-06T07:58:00Z</time>
      </trkpt>
      <trkpt lat="45.7702362" lon="6.8956530">
        <ele>2336.25</ele>
        <time>2019-09-06T07:58:10Z</time>
      </trkpt>
      <trkpt lat="45.7702294" lon="6.8957966">
        <ele>2334.95</ele>
        <time>2019-09-06T07:58:20Z</time>
      </trkpt>
      <trkpt lat="45.7701978" lon="6.8959186">
        <ele>2333.68</ele>
        <time>2019-09-06T07:58:28Z</time>
      </trkpt>
      <trkpt lat="45.7701871" lon="6.8960807">
        <ele>2331.97</ele>
        <time>2019-09-06T07:58:38Z</time>
      </trkpt>
      <trkpt lat="45.7702274" lon="6.8962167">
        <ele>2330.27</ele>
        <time>2019-09-06T07:58:46Z</time>
      </trkpt>
      <trkpt lat="45.7702620" lon="6.8963397">
        <ele>2328.27</ele>
        <time>2019-09-06T07:58:54Z</time>
      </trkpt>
      <trkpt lat="45.7702917" lon="6.8964844">
        <ele>2327.94</ele>
        <time>2019-09-06T07:59:04Z</time>
      </trkpt>
      <trkpt lat="45.7703031" lon="6.8966269">
        <ele>2327.94</ele>
        <time>2019-09-06T07:59:12Z</time>
      </trkpt>
      <trkpt lat="45.7703760" lon="6.8967073">
        <ele>2326.95</ele>
        <time>2019-09-06T07:59:20Z</time>
      </trkpt>
      <trkpt lat="45.7704498" lon="6.8967965">
        <ele>2327.85</ele>
        <time>2019-09-06T07:59:28Z</time>
      </trkpt>
      <trkpt lat="45.7704890" lon="6.8969553">
        <ele>2326.97</ele>
        <time>2019-09-06T07:59:36Z</time>
      </trkpt>
      <trkpt lat="45.7705300" lon="6.8970705">
        <ele>2326.03</ele>
        <time>2019-09-06T07:59:44Z</time>
      </trkpt>
      <trkpt lat="45.7705990" lon="6.8971904">
        <ele>2325.94</ele>
        <time>2019-09-06T07:59:54Z</time>
      </trkpt>
      <trkpt lat="45.7706247" lon="6.8973301">
        <ele>2324.95</ele>
        <time>2019-09-06T08:00:02Z</time>
      </trkpt>
      <trkpt lat="45.7706920" lon="6.8974681">
        <ele>2324.94</ele>
        <time>2019-09-06T08:00:14Z</time>
      </trkpt>
      <trkpt lat="45.7707315" lon="6.8976012">
        <ele>2325.00</ele>
        <time>2019-09-06T08:00:24Z</time>
      </trkpt>
      <trkpt lat="45.7707873" lon="6.8977342">
        <ele>2324.01</ele>
        <time>2019-09-06T08:00:34Z</time>
      </trkpt>
      <trkpt lat="45.7708433" lon="6.8978700">
        <ele>2323.73</ele>
        <time>2019-09-06T08:00:40Z</time>
      </trkpt>
      <trkpt lat="45.7709105" lon="6.8979810">
        <ele>2324.88</ele>
        <time>2019-09-06T08:00:50Z</time>
      </trkpt>
      <trkpt lat="45.7709555" lon="6.8981144">
        <ele>2324.67</ele>
        <time>2019-09-06T08:01:00Z</time>
      </trkpt>
      <trkpt lat="45.7710376" lon="6.8982051">
        <ele>2325.91</ele>
        <time>2019-09-06T08:01:12Z</time>
      </trkpt>
      <trkpt lat="45.7711100" lon="6.8983179">
        <ele>2326.85</ele>
        <time>2019-09-06T08:01:26Z</time>
      </trkpt>
      <trkpt lat="45.7711432" lon="6.8984448">
        <ele>2326.94</ele>
        <time>2019-09-06T08:01:36Z</time>
      </trkpt>
      <trkpt lat="45.7711980" lon="6.8985748">
        <ele>2326.94</ele>
        <time>2019-09-06T08:01:46Z</time>
      </trkpt>
      <trkpt lat="45.7712775" lon="6.8986578">
        <ele>2325.73</ele>
        <time>2019-09-06T08:02:00Z</time>
      </trkpt>
      <trkpt lat="45.7713034" lon="6.8987950">
        <ele>2325.92</ele>
        <time>2019-09-06T08:02:10Z</time>
      </trkpt>
      <trkpt lat="45.7712987" lon="6.8989434">
        <ele>2326.64</ele>
        <time>2019-09-06T08:02:20Z</time>
      </trkpt>
      <trkpt lat="45.7712886" lon="6.8990862">
        <ele>2327.70</ele>
        <time>2019-09-06T08:02:34Z</time>
      </trkpt>
      <trkpt lat="45.7713470" lon="6.8992073">
        <ele>2327.96</ele>
        <time>2019-09-06T08:02:44Z</time>
      </trkpt>
      <trkpt lat="45.7714086" lon="6.8993199">
        <ele>2344.51</ele>
        <time>2019-09-06T08:02:54Z</time>
      </trkpt>
      <trkpt lat="45.7713956" lon="6.8994756">
        <ele>2329.07</ele>
        <time>2019-09-06T08:03:12Z</time>
      </trkpt>
      <trkpt lat="45.7714276" lon="6.8996157">
        <ele>2328.88</ele>
        <time>2019-09-06T08:03:24Z</time>
      </trkpt>
      <trkpt lat="45.7714947" lon="6.8997450">
        <ele>2329.93</ele>
        <time>2019-09-06T08:03:34Z</time>
      </trkpt>
      <trkpt lat="45.7715289" lon="6.8998710">
        <ele>2330.93</ele>
        <time>2019-09-06T08:03:42Z</time>
      </trkpt>
      <trkpt lat="45.7715668" lon="6.9000097">
        <ele>2331.64</ele>
        <time>2019-09-06T08:03:50Z</time>
      </trkpt>
      <trkpt lat="45.7715883" lon="6.9001587">
        <ele>2331.86</ele>
        <time>2019-09-06T08:03:58Z</time>
      </trkpt>
      <trkpt lat="45.7716356" lon="6.9002860">
        <ele>2331.94</ele>
        <time>2019-09-06T08:04:06Z</time>
      </trkpt>
      <trkpt lat="45.7716906" lon="6.9004084">
        <ele>2332.64</ele>
        <time>2019-09-06T08:04:14Z</time>
      </trkpt>
      <trkpt lat="45.7717766" lon="6.9004679">
        <ele>2332.92</ele>
        <time>2019-09-06T08:04:22Z</time>
      </trkpt>
      <trkpt lat="45.7718611" lon="6.9005302">
        <ele>2333.00</ele>
        <time>2019-09-06T08:04:30Z</time>
      </trkpt>
      <trkpt lat="45.7719506" lon="6.9005670">
        <ele>2332.94</ele>
        <time>2019-09-06T08:04:38Z</time>
      </trkpt>
      <trkpt lat="45.7720581" lon="6.9005867">
        <ele>2333.86</ele>
        <time>2019-09-06T08:04:48Z</time>
      </trkpt>
      <trkpt lat="45.7721207" lon="6.9007001">
        <ele>2333.24</ele>
        <time>2019-09-06T08:05:00Z</time>
      </trkpt>
      <trkpt lat="45.7721717" lon="6.9008395">
        <ele>2333.15</ele>
        <time>2019-09-06T08:05:08Z</time>
      </trkpt>
      <trkpt lat="45.7722509" lon="6.9009618">
        <ele>2332.01</ele>
        <time>2019-09-06T08:05:18Z</time>
      </trkpt>
      <trkpt lat="45.7723089" lon="6.9010829">
        <ele>2332.85</ele>
        <time>2019-09-06T08:05:26Z</time>
      </trkpt>
      <trkpt lat="45.7723823" lon="6.9012031">
        <ele>2331.33</ele>
        <time>2019-09-06T08:05:34Z</time>
      </trkpt>
      <trkpt lat="45.7724806" lon="6.9012561">
        <ele>2331.92</ele>
        <time>2019-09-06T08:05:44Z</time>
      </trkpt>
      <trkpt lat="45.7725593" lon="6.9013413">
        <ele>2331.24</ele>
        <time>2019-09-06T08:05:56Z</time>
      </trkpt>
      <trkpt lat="45.7726143" lon="6.9014560">
        <ele>2329.24</ele>
        <time>2019-09-06T08:06:08Z</time>
      </trkpt>
      <trkpt lat="45.7726727" lon="6.9015891">
        <ele>2328.94</ele>
        <time>2019-09-06T08:06:16Z</time>
      </trkpt>
      <trkpt lat="45.7727177" lon="6.9017280">
        <ele>2328.94</ele>
        <time>2019-09-06T08:06:24Z</time>
      </trkpt>
      <trkpt lat="45.7727454" lon="6.9018827">
        <ele>2327.95</ele>
        <time>2019-09-06T08:06:34Z</time>
      </trkpt>
      <trkpt lat="45.7727641" lon="6.9020449">
        <ele>2326.95</ele>
        <time>2019-09-06T08:06:42Z</time>
      </trkpt>
      <trkpt lat="45.7727539" lon="6.9021976">
        <ele>2325.27</ele>
        <time>2019-09-06T08:06:52Z</time>
      </trkpt>
      <trkpt lat="45.7728460" lon="6.9022699">
        <ele>2324.24</ele>
        <time>2019-09-06T08:07:04Z</time>
      </trkpt>
      <trkpt lat="45.7728787" lon="6.9024049">
        <ele>2322.95</ele>
        <time>2019-09-06T08:07:14Z</time>
      </trkpt>
      <trkpt lat="45.7729579" lon="6.9025202">
        <ele>2321.03</ele>
        <time>2019-09-06T08:07:24Z</time>
      </trkpt>
      <trkpt lat="45.7730364" lon="6.9026268">
        <ele>2321.15</ele>
        <time>2019-09-06T08:07:34Z</time>
      </trkpt>
      <trkpt lat="45.7730917" lon="6.9027547">
        <ele>2320.03</ele>
        <time>2019-09-06T08:07:44Z</time>
      </trkpt>
      <trkpt lat="45.7731695" lon="6.9028451">
        <ele>2318.95</ele>
        <time>2019-09-06T08:07:52Z</time>
      </trkpt>
      <trkpt lat="45.7732585" lon="6.9029095">
        <ele>2317.97</ele>
        <time>2019-09-06T08:08:00Z</time>
      </trkpt>
      <trkpt lat="45.7733436" lon="6.9029961">
        <ele>2318.01</ele>
        <time>2019-09-06T08:08:08Z</time>
      </trkpt>
      <trkpt lat="45.7734203" lon="6.9030977">
        <ele>2317.94</ele>
        <time>2019-09-06T08:08:16Z</time>
      </trkpt>
      <trkpt lat="45.7735216" lon="6.9031775">
        <ele>2318.92</ele>
        <time>2019-09-06T08:08:26Z</time>
      </trkpt>
      <trkpt lat="45.7736360" lon="6.9032018">
        <ele>2318.94</ele>
        <time>2019-09-06T08:08:34Z</time>
      </trkpt>
      <trkpt lat="45.7737245" lon="6.9031762">
        <ele>2318.67</ele>
        <time>2019-09-06T08:08:40Z</time>
      </trkpt>
      <trkpt lat="45.7738303" lon="6.9031508">
        <ele>2318.94</ele>
        <time>2019-09-06T08:08:48Z</time>
      </trkpt>
      <trkpt lat="45.7739346" lon="6.9031160">
        <ele>2318.94</ele>
        <time>2019-09-06T08:08:56Z</time>
      </trkpt>
      <trkpt lat="45.7740440" lon="6.9031177">
        <ele>2317.95</ele>
        <time>2019-09-06T08:09:06Z</time>
      </trkpt>
      <trkpt lat="45.7741358" lon="6.9032028">
        <ele>2317.94</ele>
        <time>2019-09-06T08:09:16Z</time>
      </trkpt>
      <trkpt lat="45.7742431" lon="6.9032427">
        <ele>2316.33</ele>
        <time>2019-09-06T08:09:26Z</time>
      </trkpt>
      <trkpt lat="45.7743309" lon="6.9032881">
        <ele>2315.04</ele>
        <time>2019-09-06T08:09:34Z</time>
      </trkpt>
      <trkpt lat="45.7744406" lon="6.9033384">
        <ele>2313.06</ele>
        <time>2019-09-06T08:09:42Z</time>
      </trkpt>
      <trkpt lat="45.7745260" lon="6.9033983">
        <ele>2312.24</ele>
        <time>2019-09-06T08:09:50Z</time>
      </trkpt>
      <trkpt lat="45.7746216" lon="6.9034670">
        <ele>2311.94</ele>
        <time>2019-09-06T08:10:00Z</time>
      </trkpt>
      <trkpt lat="45.7747001" lon="6.9035310">
        <ele>2312.15</ele>
        <time>2019-09-06T08:10:14Z</time>
      </trkpt>
      <trkpt lat="45.7748003" lon="6.9035983">
        <ele>2310.25</ele>
        <time>2019-09-06T08:10:24Z</time>
      </trkpt>
      <trkpt lat="45.7748817" lon="6.9036539">
        <ele>2308.33</ele>
        <time>2019-09-06T08:10:32Z</time>
      </trkpt>
      <trkpt lat="45.7749599" lon="6.9037384">
        <ele>2307.24</ele>
        <time>2019-09-06T08:10:42Z</time>
      </trkpt>
      <trkpt lat="45.7749894" lon="6.9038702">
        <ele>2309.43</ele>
        <time>2019-09-06T08:13:54Z</time>
      </trkpt>
      <trkpt lat="45.7749934" lon="6.9040187">
        <ele>2306.07</ele>
        <time>2019-09-06T08:14:04Z</time>
      </trkpt>
      <trkpt lat="45.7750057" lon="6.9041467">
        <ele>2304.81</ele>
        <time>2019-09-06T08:14:18Z</time>
      </trkpt>
      <trkpt lat="45.7750283" lon="6.9043112">
        <ele>2303.25</ele>
        <time>2019-09-06T08:14:30Z</time>
      </trkpt>
      <trkpt lat="45.7750575" lon="6.9044649">
        <ele>2302.94</ele>
        <time>2019-09-06T08:14:38Z</time>
      </trkpt>
      <trkpt lat="45.7750906" lon="6.9046143">
        <ele>2301.25</ele>
        <time>2019-09-06T08:14:46Z</time>
      </trkpt>
      <trkpt lat="45.7751505" lon="6.9047319">
        <ele>2300.96</ele>
        <time>2019-09-06T08:14:54Z</time>
      </trkpt>
      <trkpt lat="45.7751556" lon="6.9048648">
        <ele>2299.95</ele>
        <time>2019-09-06T08:15:02Z</time>
      </trkpt>
      <trkpt lat="45.7751656" lon="6.9050111">
        <ele>2301.76</ele>
        <time>2019-09-06T08:15:12Z</time>
      </trkpt>
      <trkpt lat="45.7751807" lon="6.9051613">
        <ele>2301.95</ele>
        <time>2019-09-06T08:15:22Z</time>
      </trkpt>
      <trkpt lat="45.7752789" lon="6.9051949">
        <ele>2299.00</ele>
        <time>2019-09-06T08:15:30Z</time>
      </trkpt>
      <trkpt lat="45.7753717" lon="6.9051624">
        <ele>2297.66</ele>
        <time>2019-09-06T08:15:38Z</time>
      </trkpt>
      <trkpt lat="45.7754671" lon="6.9051403">
        <ele>2298.91</ele>
        <time>2019-09-06T08:15:46Z</time>
      </trkpt>
      <trkpt lat="45.7755574" lon="6.9051725">
        <ele>2298.18</ele>
        <time>2019-09-06T08:15:54Z</time>
      </trkpt>
      <trkpt lat="45.7756588" lon="6.9052186">
        <ele>2297.73</ele>
        <time>2019-09-06T08:16:04Z</time>
      </trkpt>
      <trkpt lat="45.7757606" lon="6.9052364">
        <ele>2297.65</ele>
        <time>2019-09-06T08:16:12Z</time>
      </trkpt>
      <trkpt lat="45.7758519" lon="6.9052358">
        <ele>2297.86</ele>
        <time>2019-09-06T08:16:20Z</time>
      </trkpt>
      <trkpt lat="45.7759447" lon="6.9052454">
        <ele>2298.64</ele>
        <time>2019-09-06T08:16:30Z</time>
      </trkpt>
      <trkpt lat="45.7760285" lon="6.9053185">
        <ele>2298.94</ele>
        <time>2019-09-06T08:16:38Z</time>
      </trkpt>
      <trkpt lat="45.7761365" lon="6.9053206">
        <ele>2300.61</ele>
        <time>2019-09-06T08:16:48Z</time>
      </trkpt>
      <trkpt lat="45.7762327" lon="6.9053477">
        <ele>2299.04</ele>
        <time>2019-09-06T08:16:56Z</time>
      </trkpt>
      <trkpt lat="45.7763310" lon="6.9054200">
        <ele>2298.94</ele>
        <time>2019-09-06T08:17:06Z</time>
      </trkpt>
      <trkpt lat="45.7763951" lon="6.9055491">
        <ele>2297.94</ele>
        <time>2019-09-06T08:17:16Z</time>
      </trkpt>
      <trkpt lat="45.7764595" lon="6.9056521">
        <ele>2297.94</ele>
        <time>2019-09-06T08:17:24Z</time>
      </trkpt>
      <trkpt lat="45.7765346" lon="6.9057641">
        <ele>2303.87</ele>
        <time>2019-09-06T08:18:59Z</time>
      </trkpt>
      <trkpt lat="45.7766180" lon="6.9058160">
        <ele>2302.27</ele>
        <time>2019-09-06T08:19:07Z</time>
      </trkpt>
      <trkpt lat="45.7767080" lon="6.9058957">
        <ele>2300.34</ele>
        <time>2019-09-06T08:19:17Z</time>
      </trkpt>
      <trkpt lat="45.7768064" lon="6.9059603">
        <ele>2301.62</ele>
        <time>2019-09-06T08:19:27Z</time>
      </trkpt>
      <trkpt lat="45.7768991" lon="6.9060195">
        <ele>2301.52</ele>
        <time>2019-09-06T08:19:37Z</time>
      </trkpt>
      <trkpt lat="45.7769921" lon="6.9060475">
        <ele>2298.74</ele>
        <time>2019-09-06T08:19:47Z</time>
      </trkpt>
      <trkpt lat="45.7770832" lon="6.9060813">
        <ele>2300.16</ele>
        <time>2019-09-06T08:19:55Z</time>
      </trkpt>
      <trkpt lat="45.7771750" lon="6.9061211">
        <ele>2298.97</ele>
        <time>2019-09-06T08:20:03Z</time>
      </trkpt>
      <trkpt lat="45.7772802" lon="6.9061528">
        <ele>2296.57</ele>
        <time>2019-09-06T08:20:13Z</time>
      </trkpt>
      <trkpt lat="45.7773671" lon="6.9060617">
        <ele>2292.37</ele>
        <time>2019-09-06T08:20:21Z</time>
      </trkpt>
      <trkpt lat="45.7774559" lon="6.9060966">
        <ele>2288.02</ele>
        <time>2019-09-06T08:20:29Z</time>
      </trkpt>
      <trkpt lat="45.7775606" lon="6.9061000">
        <ele>2287.24</ele>
        <time>2019-09-06T08:20:37Z</time>
      </trkpt>
      <trkpt lat="45.7776662" lon="6.9061329">
        <ele>2286.94</ele>
        <time>2019-09-06T08:20:47Z</time>
      </trkpt>
      <trkpt lat="45.7777825" lon="6.9061197">
        <ele>2285.04</ele>
        <time>2019-09-06T08:20:57Z</time>
      </trkpt>
      <trkpt lat="45.7778850" lon="6.9061790">
        <ele>2283.08</ele>
        <time>2019-09-06T08:21:07Z</time>
      </trkpt>
      <trkpt lat="45.7779600" lon="6.9062519">
        <ele>2282.46</ele>
        <time>2019-09-06T08:21:13Z</time>
      </trkpt>
      <trkpt lat="45.7780390" lon="6.9063191">
        <ele>2285.31</ele>
        <time>2019-09-06T08:21:21Z</time>
      </trkpt>
      <trkpt lat="45.7781412" lon="6.9063603">
        <ele>2280.81</ele>
        <time>2019-09-06T08:21:29Z</time>
      </trkpt>
      <trkpt lat="45.7782018" lon="6.9064966">
        <ele>2277.35</ele>
        <time>2019-09-06T08:21:37Z</time>
      </trkpt>
      <trkpt lat="45.7782811" lon="6.9065654">
        <ele>2277.37</ele>
        <time>2019-09-06T08:21:45Z</time>
      </trkpt>
      <trkpt lat="45.7783712" lon="6.9066334">
        <ele>2276.25</ele>
        <time>2019-09-06T08:21:53Z</time>
      </trkpt>
      <trkpt lat="45.7784654" lon="6.9066979">
        <ele>2274.97</ele>
        <time>2019-09-06T08:22:03Z</time>
      </trkpt>
      <trkpt lat="45.7785325" lon="6.9067955">
        <ele>2273.27</ele>
        <time>2019-09-06T08:22:11Z</time>
      </trkpt>
      <trkpt lat="45.7785843" lon="6.9069222">
        <ele>2270.63</ele>
        <time>2019-09-06T08:22:19Z</time>
      </trkpt>
      <trkpt lat="45.7786815" lon="6.9069976">
        <ele>2267.23</ele>
        <time>2019-09-06T08:22:29Z</time>
      </trkpt>
      <trkpt lat="45.7787558" lon="6.9071095">
        <ele>2267.94</ele>
        <time>2019-09-06T08:22:37Z</time>
      </trkpt>
      <trkpt lat="45.7788251" lon="6.9072228">
        <ele>2266.03</ele>
        <time>2019-09-06T08:22:47Z</time>
      </trkpt>
      <trkpt lat="45.7789106" lon="6.9073117">
        <ele>2262.71</ele>
        <time>2019-09-06T08:22:55Z</time>
      </trkpt>
      <trkpt lat="45.7789781" lon="6.9074293">
        <ele>2263.32</ele>
        <time>2019-09-06T08:23:05Z</time>
      </trkpt>
      <trkpt lat="45.7790396" lon="6.9075550">
        <ele>2262.74</ele>
        <time>2019-09-06T08:23:13Z</time>
      </trkpt>
      <trkpt lat="45.7790938" lon="6.9076863">
        <ele>2262.01</ele>
        <time>2019-09-06T08:23:21Z</time>
      </trkpt>
      <trkpt lat="45.7791350" lon="6.9078118">
        <ele>2260.27</ele>
        <time>2019-09-06T08:23:29Z</time>
      </trkpt>
      <trkpt lat="45.7791773" lon="6.9079453">
        <ele>2259.67</ele>
        <time>2019-09-06T08:23:37Z</time>
      </trkpt>
      <trkpt lat="45.7792334" lon="6.9080774">
        <ele>2255.88</ele>
        <time>2019-09-06T08:23:45Z</time>
      </trkpt>
      <trkpt lat="45.7793084" lon="6.9081750">
        <ele>2256.41</ele>
        <time>2019-09-06T08:23:53Z</time>
      </trkpt>
      <trkpt lat="45.7793793" lon="6.9083018">
        <ele>2254.08</ele>
        <time>2019-09-06T08:24:03Z</time>
      </trkpt>
      <trkpt lat="45.7794329" lon="6.9084316">
        <ele>2253.86</ele>
        <time>2019-09-06T08:24:11Z</time>
      </trkpt>
      <trkpt lat="45.7794970" lon="6.9085399">
        <ele>2252.94</ele>
        <time>2019-09-06T08:24:21Z</time>
      </trkpt>
      <trkpt lat="45.7795551" lon="6.9086649">
        <ele>2249.97</ele>
        <time>2019-09-06T08:24:31Z</time>
      </trkpt>
      <trkpt lat="45.7796243" lon="6.9087533">
        <ele>2248.04</ele>
        <time>2019-09-06T08:24:39Z</time>
      </trkpt>
      <trkpt lat="45.7796841" lon="6.9088644">
        <ele>2246.95</ele>
        <time>2019-09-06T08:24:47Z</time>
      </trkpt>
      <trkpt lat="45.7797614" lon="6.9089584">
        <ele>2245.27</ele>
        <time>2019-09-06T08:24:55Z</time>
      </trkpt>
      <trkpt lat="45.7798262" lon="6.9090642">
        <ele>2244.24</ele>
        <time>2019-09-06T08:25:03Z</time>
      </trkpt>
      <trkpt lat="45.7798774" lon="6.9092002">
        <ele>2242.76</ele>
        <time>2019-09-06T08:25:11Z</time>
      </trkpt>
      <trkpt lat="45.7799479" lon="6.9092941">
        <ele>2241.25</ele>
        <time>2019-09-06T08:25:19Z</time>
      </trkpt>
      <trkpt lat="45.7799305" lon="6.9094445">
        <ele>2240.94</ele>
        <time>2019-09-06T08:25:29Z</time>
      </trkpt>
      <trkpt lat="45.7799290" lon="6.9095736">
        <ele>2238.34</ele>
        <time>2019-09-06T08:25:37Z</time>
      </trkpt>
      <trkpt lat="45.7799302" lon="6.9097336">
        <ele>2235.28</ele>
        <time>2019-09-06T08:25:47Z</time>
      </trkpt>
      <trkpt lat="45.7799545" lon="6.9098714">
        <ele>2234.24</ele>
        <time>2019-09-06T08:25:55Z</time>
      </trkpt>
      <trkpt lat="45.7799982" lon="6.9100233">
        <ele>2232.27</ele>
        <time>2019-09-06T08:26:05Z</time>
      </trkpt>
      <trkpt lat="45.7800541" lon="6.9101309">
        <ele>2229.28</ele>
        <time>2019-09-06T08:26:13Z</time>
      </trkpt>
      <trkpt lat="45.7800768" lon="6.9102783">
        <ele>2225.57</ele>
        <time>2019-09-06T08:26:23Z</time>
      </trkpt>
      <trkpt lat="45.7800361" lon="6.9104137">
        <ele>2222.04</ele>
        <time>2019-09-06T08:26:35Z</time>
      </trkpt>
      <trkpt lat="45.7799807" lon="6.9105511">
        <ele>2217.61</ele>
        <time>2019-09-06T08:26:47Z</time>
      </trkpt>
      <trkpt lat="45.7799472" lon="6.9106938">
        <ele>2216.97</ele>
        <time>2019-09-06T08:26:55Z</time>
      </trkpt>
      <trkpt lat="45.7799198" lon="6.9108269">
        <ele>2215.95</ele>
        <time>2019-09-06T08:27:03Z</time>
      </trkpt>
      <trkpt lat="45.7799270" lon="6.9109720">
        <ele>2213.98</ele>
        <time>2019-09-06T08:27:11Z</time>
      </trkpt>
      <trkpt lat="45.7800274" lon="6.9110387">
        <ele>2212.95</ele>
        <time>2019-09-06T08:27:19Z</time>
      </trkpt>
      <trkpt lat="45.7801095" lon="6.9110923">
        <ele>2212.16</ele>
        <time>2019-09-06T08:27:27Z</time>
      </trkpt>
      <trkpt lat="45.7801872" lon="6.9111652">
        <ele>2212.92</ele>
        <time>2019-09-06T08:27:35Z</time>
      </trkpt>
      <trkpt lat="45.7802370" lon="6.9112791">
        <ele>2211.25</ele>
        <time>2019-09-06T08:27:43Z</time>
      </trkpt>
      <trkpt lat="45.7802975" lon="6.9113877">
        <ele>2210.24</ele>
        <time>2019-09-06T08:27:51Z</time>
      </trkpt>
      <trkpt lat="45.7803321" lon="6.9115097">
        <ele>2208.27</ele>
        <time>2019-09-06T08:27:59Z</time>
      </trkpt>
      <trkpt lat="45.7803694" lon="6.9116429">
        <ele>2207.24</ele>
        <time>2019-09-06T08:28:07Z</time>
      </trkpt>
      <trkpt lat="45.7804577" lon="6.9116829">
        <ele>2205.33</ele>
        <time>2019-09-06T08:28:15Z</time>
      </trkpt>
      <trkpt lat="45.7805738" lon="6.9116820">
        <ele>2205.94</ele>
        <time>2019-09-06T08:28:23Z</time>
      </trkpt>
      <trkpt lat="45.7806847" lon="6.9117001">
        <ele>2205.94</ele>
        <time>2019-09-06T08:28:31Z</time>
      </trkpt>
      <trkpt lat="45.7807923" lon="6.9116887">
        <ele>2204.89</ele>
        <time>2019-09-06T08:28:41Z</time>
      </trkpt>
      <trkpt lat="45.7808902" lon="6.9116822">
        <ele>2204.94</ele>
        <time>2019-09-06T08:28:49Z</time>
      </trkpt>
      <trkpt lat="45.7809986" lon="6.9117227">
        <ele>2203.97</ele>
        <time>2019-09-06T08:28:57Z</time>
      </trkpt>
      <trkpt lat="45.7810498" lon="6.9118358">
        <ele>2201.36</ele>
        <time>2019-09-06T08:29:05Z</time>
      </trkpt>
      <trkpt lat="45.7810325" lon="6.9119666">
        <ele>2199.04</ele>
        <time>2019-09-06T08:29:15Z</time>
      </trkpt>
      <trkpt lat="45.7810072" lon="6.9121286">
        <ele>2193.97</ele>
        <time>2019-09-06T08:29:43Z</time>
      </trkpt>
      <trkpt lat="45.7809822" lon="6.9122678">
        <ele>2193.03</ele>
        <time>2019-09-06T08:29:49Z</time>
      </trkpt>
      <trkpt lat="45.7809453" lon="6.9123877">
        <ele>2191.97</ele>
        <time>2019-09-06T08:29:55Z</time>
      </trkpt>
      <trkpt lat="45.7808989" lon="6.9125206">
        <ele>2190.25</ele>
        <time>2019-09-06T08:30:03Z</time>
      </trkpt>
      <trkpt lat="45.7808936" lon="6.9126496">
        <ele>2188.34</ele>
        <time>2019-09-06T08:30:09Z</time>
      </trkpt>
      <trkpt lat="45.7809250" lon="6.9127786">
        <ele>2187.25</ele>
        <time>2019-09-06T08:30:17Z</time>
      </trkpt>
      <trkpt lat="45.7809663" lon="6.9129180">
        <ele>2186.94</ele>
        <time>2019-09-06T08:30:25Z</time>
      </trkpt>
      <trkpt lat="45.7809971" lon="6.9130636">
        <ele>2185.94</ele>
        <time>2019-09-06T08:30:35Z</time>
      </trkpt>
      <trkpt lat="45.7810316" lon="6.9132013">
        <ele>2185.94</ele>
        <time>2019-09-06T08:30:43Z</time>
      </trkpt>
      <trkpt lat="45.7810628" lon="6.9133424">
        <ele>2184.97</ele>
        <time>2019-09-06T08:30:51Z</time>
      </trkpt>
      <trkpt lat="45.7811136" lon="6.9134753">
        <ele>2183.97</ele>
        <time>2019-09-06T08:30:59Z</time>
      </trkpt>
      <trkpt lat="45.7811796" lon="6.9136040">
        <ele>2183.24</ele>
        <time>2019-09-06T08:31:11Z</time>
      </trkpt>
      <trkpt lat="45.7812132" lon="6.9137442">
        <ele>2182.94</ele>
        <time>2019-09-06T08:31:19Z</time>
      </trkpt>
      <trkpt lat="45.7812507" lon="6.9138887">
        <ele>2182.94</ele>
        <time>2019-09-06T08:31:27Z</time>
      </trkpt>
      <trkpt lat="45.7813195" lon="6.9140160">
        <ele>2182.94</ele>
        <time>2019-09-06T08:31:37Z</time>
      </trkpt>
      <trkpt lat="45.7813680" lon="6.9141369">
        <ele>2182.94</ele>
        <time>2019-09-06T08:31:45Z</time>
      </trkpt>
      <trkpt lat="45.7814379" lon="6.9142281">
        <ele>2182.94</ele>
        <time>2019-09-06T08:31:53Z</time>
      </trkpt>
      <trkpt lat="45.7815107" lon="6.9143207">
        <ele>2183.87</ele>
        <time>2019-09-06T08:32:01Z</time>
      </trkpt>
      <trkpt lat="45.7815517" lon="6.9144406">
        <ele>2183.24</ele>
        <time>2019-09-06T08:32:09Z</time>
      </trkpt>
      <trkpt lat="45.7816236" lon="6.9145516">
        <ele>2182.94</ele>
        <time>2019-09-06T08:32:19Z</time>
      </trkpt>
      <trkpt lat="45.7816770" lon="6.9146888">
        <ele>2182.94</ele>
        <time>2019-09-06T08:32:29Z</time>
      </trkpt>
      <trkpt lat="45.7817700" lon="6.9147475">
        <ele>2182.94</ele>
        <time>2019-09-06T08:32:39Z</time>
      </trkpt>
      <trkpt lat="45.7818470" lon="6.9148336">
        <ele>2181.95</ele>
        <time>2019-09-06T08:32:47Z</time>
      </trkpt>
      <trkpt lat="45.7819397" lon="6.9149193">
        <ele>2180.94</ele>
        <time>2019-09-06T08:32:57Z</time>
      </trkpt>
      <trkpt lat="45.7820260" lon="6.9150022">
        <ele>2180.24</ele>
        <time>2019-09-06T08:33:05Z</time>
      </trkpt>
      <trkpt lat="45.7821096" lon="6.9150568">
        <ele>2179.67</ele>
        <time>2019-09-06T08:33:13Z</time>
      </trkpt>
      <trkpt lat="45.7821958" lon="6.9151317">
        <ele>2178.97</ele>
        <time>2019-09-06T08:33:23Z</time>
      </trkpt>
      <trkpt lat="45.7822948" lon="6.9152036">
        <ele>2179.92</ele>
        <time>2019-09-06T08:33:33Z</time>
      </trkpt>
      <trkpt lat="45.7823845" lon="6.9152611">
        <ele>2179.94</ele>
        <time>2019-09-06T08:33:43Z</time>
      </trkpt>
      <trkpt lat="45.7824573" lon="6.9153532">
        <ele>2180.92</ele>
        <time>2019-09-06T08:33:51Z</time>
      </trkpt>
      <trkpt lat="45.7825464" lon="6.9153714">
        <ele>2179.95</ele>
        <time>2019-09-06T08:33:59Z</time>
      </trkpt>
      <trkpt lat="45.7826349" lon="6.9154073">
        <ele>2179.86</ele>
        <time>2019-09-06T08:34:07Z</time>
      </trkpt>
      <trkpt lat="45.7827200" lon="6.9154653">
        <ele>2179.24</ele>
        <time>2019-09-06T08:34:15Z</time>
      </trkpt>
      <trkpt lat="45.7828130" lon="6.9155364">
        <ele>2178.94</ele>
        <time>2019-09-06T08:34:25Z</time>
      </trkpt>
      <trkpt lat="45.7828589" lon="6.9156665">
        <ele>2178.88</ele>
        <time>2019-09-06T08:34:33Z</time>
      </trkpt>
      <trkpt lat="45.7829215" lon="6.9157644">
        <ele>2178.18</ele>
        <time>2019-09-06T08:34:41Z</time>
      </trkpt>
      <trkpt lat="45.7830173" lon="6.9158558">
        <ele>2177.94</ele>
        <time>2019-09-06T08:34:51Z</time>
      </trkpt>
      <trkpt lat="45.7830749" lon="6.9159607">
        <ele>2177.88</ele>
        <time>2019-09-06T08:34:59Z</time>
      </trkpt>
      <trkpt lat="45.7831403" lon="6.9160835">
        <ele>2177.92</ele>
        <time>2019-09-06T08:35:09Z</time>
      </trkpt>
      <trkpt lat="45.7831969" lon="6.9161880">
        <ele>2177.03</ele>
        <time>2019-09-06T08:35:17Z</time>
      </trkpt>
      <trkpt lat="45.7831816" lon="6.9163290">
        <ele>2176.94</ele>
        <time>2019-09-06T08:35:27Z</time>
      </trkpt>
      <trkpt lat="45.7832534" lon="6.9164337">
        <ele>2177.64</ele>
        <time>2019-09-06T08:35:37Z</time>
      </trkpt>
      <trkpt lat="45.7833220" lon="6.9165344">
        <ele>2176.04</ele>
        <time>2019-09-06T08:35:45Z</time>
      </trkpt>
      <trkpt lat="45.7833860" lon="6.9166376">
        <ele>2175.73</ele>
        <time>2019-09-06T08:35:53Z</time>
      </trkpt>
      <trkpt lat="45.7834523" lon="6.9167429">
        <ele>2173.98</ele>
        <time>2019-09-06T08:36:01Z</time>
      </trkpt>
      <trkpt lat="45.7835124" lon="6.9168448">
        <ele>2173.94</ele>
        <time>2019-09-06T08:36:09Z</time>
      </trkpt>
      <trkpt lat="45.7835710" lon="6.9169693">
        <ele>2173.94</ele>
        <time>2019-09-06T08:36:17Z</time>
      </trkpt>
      <trkpt lat="45.7835989" lon="6.9171036">
        <ele>2172.95</ele>
        <time>2019-09-06T08:36:25Z</time>
      </trkpt>
      <trkpt lat="45.7836550" lon="6.9172471">
        <ele>2173.64</ele>
        <time>2019-09-06T08:36:35Z</time>
      </trkpt>
      <trkpt lat="45.7837228" lon="6.9173561">
        <ele>2172.94</ele>
        <time>2019-09-06T08:36:45Z</time>
      </trkpt>
      <trkpt lat="45.7837599" lon="6.9175041">
        <ele>2172.66</ele>
        <time>2019-09-06T08:36:57Z</time>
      </trkpt>
      <trkpt lat="45.7838057" lon="6.9176550">
        <ele>2171.95</ele>
        <time>2019-09-06T08:37:05Z</time>
      </trkpt>
      <trkpt lat="45.7838568" lon="6.9177673">
        <ele>2171.94</ele>
        <time>2019-09-06T08:37:13Z</time>
      </trkpt>
      <trkpt lat="45.7838977" lon="6.9178968">
        <ele>2172.85</ele>
        <time>2019-09-06T08:37:21Z</time>
      </trkpt>
      <trkpt lat="45.7839421" lon="6.9180190">
        <ele>2172.65</ele>
        <time>2019-09-06T08:37:29Z</time>
      </trkpt>
      <trkpt lat="45.7840044" lon="6.9181292">
        <ele>2172.94</ele>
        <time>2019-09-06T08:37:39Z</time>
      </trkpt>
      <trkpt lat="45.7840063" lon="6.9182704">
        <ele>2171.25</ele>
        <time>2019-09-06T08:37:49Z</time>
      </trkpt>
      <trkpt lat="45.7840233" lon="6.9184133">
        <ele>2170.24</ele>
        <time>2019-09-06T08:37:59Z</time>
      </trkpt>
      <trkpt lat="45.7840898" lon="6.9185180">
        <ele>2167.28</ele>
        <time>2019-09-06T08:38:11Z</time>
      </trkpt>
      <trkpt lat="45.7839990" lon="6.9185659">
        <ele>2165.18</ele>
        <time>2019-09-06T08:38:21Z</time>
      </trkpt>
      <trkpt lat="45.7840877" lon="6.9185260">
        <ele>2166.95</ele>
        <time>2019-09-06T08:53:41Z</time>
      </trkpt>
      <trkpt lat="45.7841338" lon="6.9186393">
        <ele>2166.51</ele>
        <time>2019-09-06T08:53:51Z</time>
      </trkpt>
      <trkpt lat="45.7842110" lon="6.9187416">
        <ele>2160.37</ele>
        <time>2019-09-06T08:54:01Z</time>
      </trkpt>
      <trkpt lat="45.7842644" lon="6.9188573">
        <ele>2160.02</ele>
        <time>2019-09-06T08:54:11Z</time>
      </trkpt>
      <trkpt lat="45.7843335" lon="6.9189591">
        <ele>2159.97</ele>
        <time>2019-09-06T08:54:21Z</time>
      </trkpt>
      <trkpt lat="45.7844035" lon="6.9190492">
        <ele>2159.24</ele>
        <time>2019-09-06T08:54:29Z</time>
      </trkpt>
      <trkpt lat="45.7844902" lon="6.9191145">
        <ele>2158.67</ele>
        <time>2019-09-06T08:54:37Z</time>
      </trkpt>
      <trkpt lat="45.7845385" lon="6.9192496">
        <ele>2157.04</ele>
        <time>2019-09-06T08:54:45Z</time>
      </trkpt>
      <trkpt lat="45.7845972" lon="6.9193677">
        <ele>2155.97</ele>
        <time>2019-09-06T08:54:53Z</time>
      </trkpt>
      <trkpt lat="45.7846516" lon="6.9194813">
        <ele>2154.04</ele>
        <time>2019-09-06T08:55:01Z</time>
      </trkpt>
      <trkpt lat="45.7847445" lon="6.9195451">
        <ele>2152.33</ele>
        <time>2019-09-06T08:55:09Z</time>
      </trkpt>
      <trkpt lat="45.7848211" lon="6.9196328">
        <ele>2150.97</ele>
        <time>2019-09-06T08:55:17Z</time>
      </trkpt>
      <trkpt lat="45.7848842" lon="6.9197418">
        <ele>2149.95</ele>
        <time>2019-09-06T08:55:25Z</time>
      </trkpt>
      <trkpt lat="45.7849338" lon="6.9198771">
        <ele>2148.95</ele>
        <time>2019-09-06T08:55:33Z</time>
      </trkpt>
      <trkpt lat="45.7849884" lon="6.9200159">
        <ele>2146.98</ele>
        <time>2019-09-06T08:55:41Z</time>
      </trkpt>
      <trkpt lat="45.7850468" lon="6.9201177">
        <ele>2145.95</ele>
        <time>2019-09-06T08:55:49Z</time>
      </trkpt>
      <trkpt lat="45.7851215" lon="6.9201990">
        <ele>2144.97</ele>
        <time>2019-09-06T08:55:57Z</time>
      </trkpt>
      <trkpt lat="45.7852005" lon="6.9202775">
        <ele>2143.06</ele>
        <time>2019-09-06T08:56:05Z</time>
      </trkpt>
      <trkpt lat="45.7852709" lon="6.9203786">
        <ele>2142.24</ele>
        <time>2019-09-06T08:56:25Z</time>
      </trkpt>
      <trkpt lat="45.7853316" lon="6.9204772">
        <ele>2140.94</ele>
        <time>2019-09-06T08:56:51Z</time>
      </trkpt>
      <trkpt lat="45.7853799" lon="6.9205917">
        <ele>2140.24</ele>
        <time>2019-09-06T08:57:01Z</time>
      </trkpt>
      <trkpt lat="45.7854461" lon="6.9207153">
        <ele>2139.03</ele>
        <time>2019-09-06T08:57:09Z</time>
      </trkpt>
      <trkpt lat="45.7855269" lon="6.9207944">
        <ele>2137.97</ele>
        <time>2019-09-06T08:57:17Z</time>
      </trkpt>
      <trkpt lat="45.7856072" lon="6.9208529">
        <ele>2137.03</ele>
        <time>2019-09-06T08:57:25Z</time>
      </trkpt>
      <trkpt lat="45.7856853" lon="6.9209360">
        <ele>2135.95</ele>
        <time>2019-09-06T08:57:33Z</time>
      </trkpt>
      <trkpt lat="45.7857739" lon="6.9209744">
        <ele>2133.28</ele>
        <time>2019-09-06T08:57:41Z</time>
      </trkpt>
      <trkpt lat="45.7858457" lon="6.9210818">
        <ele>2132.94</ele>
        <time>2019-09-06T08:57:49Z</time>
      </trkpt>
      <trkpt lat="45.7858752" lon="6.9212067">
        <ele>2131.97</ele>
        <time>2019-09-06T08:57:57Z</time>
      </trkpt>
      <trkpt lat="45.7859002" lon="6.9213411">
        <ele>2130.95</ele>
        <time>2019-09-06T08:58:05Z</time>
      </trkpt>
      <trkpt lat="45.7859365" lon="6.9214656">
        <ele>2129.27</ele>
        <time>2019-09-06T08:58:13Z</time>
      </trkpt>
      <trkpt lat="45.7859875" lon="6.9216117">
        <ele>2127.04</ele>
        <time>2019-09-06T08:58:21Z</time>
      </trkpt>
      <trkpt lat="45.7860514" lon="6.9217466">
        <ele>2125.04</ele>
        <time>2019-09-06T08:58:29Z</time>
      </trkpt>
      <trkpt lat="45.7860870" lon="6.9218731">
        <ele>2124.24</ele>
        <time>2019-09-06T08:58:37Z</time>
      </trkpt>
      <trkpt lat="45.7861150" lon="6.9220155">
        <ele>2122.97</ele>
        <time>2019-09-06T08:58:45Z</time>
      </trkpt>
      <trkpt lat="45.7861554" lon="6.9221489">
        <ele>2121.97</ele>
        <time>2019-09-06T08:58:53Z</time>
      </trkpt>
      <trkpt lat="45.7861807" lon="6.9223052">
        <ele>2121.24</ele>
        <time>2019-09-06T08:59:03Z</time>
      </trkpt>
      <trkpt lat="45.7862484" lon="6.9224303">
        <ele>2120.03</ele>
        <time>2019-09-06T08:59:13Z</time>
      </trkpt>
      <trkpt lat="45.7863009" lon="6.9225562">
        <ele>2119.94</ele>
        <time>2019-09-06T08:59:21Z</time>
      </trkpt>
      <trkpt lat="45.7863403" lon="6.9226756">
        <ele>2118.25</ele>
        <time>2019-09-06T08:59:29Z</time>
      </trkpt>
      <trkpt lat="45.7864040" lon="6.9227955">
        <ele>2115.28</ele>
        <time>2019-09-06T08:59:39Z</time>
      </trkpt>
      <trkpt lat="45.7864438" lon="6.9229467">
        <ele>2114.94</ele>
        <time>2019-09-06T08:59:49Z</time>
      </trkpt>
      <trkpt lat="45.7865061" lon="6.9230463">
        <ele>2113.04</ele>
        <time>2019-09-06T08:59:57Z</time>
      </trkpt>
      <trkpt lat="45.7865445" lon="6.9231819">
        <ele>2111.06</ele>
        <time>2019-09-06T09:00:05Z</time>
      </trkpt>
      <trkpt lat="45.7866104" lon="6.9232986">
        <ele>2108.36</ele>
        <time>2019-09-06T09:00:15Z</time>
      </trkpt>
      <trkpt lat="45.7866785" lon="6.9234150">
        <ele>2106.27</ele>
        <time>2019-09-06T09:00:25Z</time>
      </trkpt>
      <trkpt lat="45.7867814" lon="6.9234044">
        <ele>2101.04</ele>
        <time>2019-09-06T09:00:47Z</time>
      </trkpt>
      <trkpt lat="45.7868507" lon="6.9235338">
        <ele>2098.27</ele>
        <time>2019-09-06T09:00:59Z</time>
      </trkpt>
      <trkpt lat="45.7868735" lon="6.9236634">
        <ele>2094.04</ele>
        <time>2019-09-06T09:01:15Z</time>
      </trkpt>
      <trkpt lat="45.7869534" lon="6.9237495">
        <ele>2092.97</ele>
        <time>2019-09-06T09:01:21Z</time>
      </trkpt>
      <trkpt lat="45.7870155" lon="6.9238528">
        <ele>2091.03</ele>
        <time>2019-09-06T09:01:31Z</time>
      </trkpt>
      <trkpt lat="45.7870568" lon="6.9240020">
        <ele>2087.07</ele>
        <time>2019-09-06T09:01:45Z</time>
      </trkpt>
      <trkpt lat="45.7871135" lon="6.9241392">
        <ele>2085.97</ele>
        <time>2019-09-06T09:01:51Z</time>
      </trkpt>
      <trkpt lat="45.7872034" lon="6.9242153">
        <ele>2082.03</ele>
        <time>2019-09-06T09:02:09Z</time>
      </trkpt>
      <trkpt lat="45.7872865" lon="6.9243549">
        <ele>2080.97</ele>
        <time>2019-09-06T09:02:15Z</time>
      </trkpt>
      <trkpt lat="45.7873569" lon="6.9244638">
        <ele>2080.24</ele>
        <time>2019-09-06T09:02:21Z</time>
      </trkpt>
      <trkpt lat="45.7874136" lon="6.9245684">
        <ele>2079.25</ele>
        <time>2019-09-06T09:02:27Z</time>
      </trkpt>
      <trkpt lat="45.7874934" lon="6.9246863">
        <ele>2077.25</ele>
        <time>2019-09-06T09:02:35Z</time>
      </trkpt>
      <trkpt lat="45.7875426" lon="6.9248008">
        <ele>2073.25</ele>
        <time>2019-09-06T09:02:53Z</time>
      </trkpt>
      <trkpt lat="45.7875894" lon="6.9249477">
        <ele>2072.95</ele>
        <time>2019-09-06T09:02:59Z</time>
      </trkpt>
      <trkpt lat="45.7876582" lon="6.9250518">
        <ele>2071.27</ele>
        <time>2019-09-06T09:03:05Z</time>
      </trkpt>
      <trkpt lat="45.7877035" lon="6.9251879">
        <ele>2069.04</ele>
        <time>2019-09-06T09:03:15Z</time>
      </trkpt>
      <trkpt lat="45.7877164" lon="6.9253199">
        <ele>2065.27</ele>
        <time>2019-09-06T09:03:31Z</time>
      </trkpt>
      <trkpt lat="45.7877940" lon="6.9254138">
        <ele>2060.28</ele>
        <time>2019-09-06T09:03:45Z</time>
      </trkpt>
      <trkpt lat="45.7878736" lon="6.9255509">
        <ele>2059.25</ele>
        <time>2019-09-06T09:03:51Z</time>
      </trkpt>
      <trkpt lat="45.7879593" lon="6.9257020">
        <ele>2058.25</ele>
        <time>2019-09-06T09:03:57Z</time>
      </trkpt>
      <trkpt lat="45.7880491" lon="6.9258189">
        <ele>2057.04</ele>
        <time>2019-09-06T09:04:03Z</time>
      </trkpt>
      <trkpt lat="45.7880808" lon="6.9259417">
        <ele>2055.27</ele>
        <time>2019-09-06T09:04:11Z</time>
      </trkpt>
      <trkpt lat="45.7881586" lon="6.9260220">
        <ele>2053.28</ele>
        <time>2019-09-06T09:04:17Z</time>
      </trkpt>
      <trkpt lat="45.7882489" lon="6.9261027">
        <ele>2050.28</ele>
        <time>2019-09-06T09:04:25Z</time>
      </trkpt>
      <trkpt lat="45.7883303" lon="6.9262159">
        <ele>2048.25</ele>
        <time>2019-09-06T09:04:33Z</time>
      </trkpt>
      <trkpt lat="45.7884018" lon="6.9263268">
        <ele>2046.04</ele>
        <time>2019-09-06T09:04:41Z</time>
      </trkpt>
      <trkpt lat="45.7884570" lon="6.9264464">
        <ele>2042.37</ele>
        <time>2019-09-06T09:04:49Z</time>
      </trkpt>
      <trkpt lat="45.7885279" lon="6.9265421">
        <ele>2040.34</ele>
        <time>2019-09-06T09:04:57Z</time>
      </trkpt>
      <trkpt lat="45.7885938" lon="6.9266614">
        <ele>2038.27</ele>
        <time>2019-09-06T09:05:05Z</time>
      </trkpt>
      <trkpt lat="45.7886768" lon="6.9267596">
        <ele>2035.06</ele>
        <time>2019-09-06T09:05:15Z</time>
      </trkpt>
      <trkpt lat="45.7887468" lon="6.9268710">
        <ele>2033.06</ele>
        <time>2019-09-06T09:05:23Z</time>
      </trkpt>
      <trkpt lat="45.7887887" lon="6.9269909">
        <ele>2031.27</ele>
        <time>2019-09-06T09:05:31Z</time>
      </trkpt>
      <trkpt lat="45.7888128" lon="6.9271506">
        <ele>2030.24</ele>
        <time>2019-09-06T09:05:39Z</time>
      </trkpt>
      <trkpt lat="45.7888486" lon="6.9272913">
        <ele>2028.04</ele>
        <time>2019-09-06T09:05:47Z</time>
      </trkpt>
      <trkpt lat="45.7889144" lon="6.9274023">
        <ele>2026.95</ele>
        <time>2019-09-06T09:05:55Z</time>
      </trkpt>
      <trkpt lat="45.7890019" lon="6.9274789">
        <ele>2025.25</ele>
        <time>2019-09-06T09:06:03Z</time>
      </trkpt>
      <trkpt lat="45.7890594" lon="6.9276152">
        <ele>2022.97</ele>
        <time>2019-09-06T09:06:13Z</time>
      </trkpt>
      <trkpt lat="45.7891279" lon="6.9277420">
        <ele>2021.74</ele>
        <time>2019-09-06T09:06:21Z</time>
      </trkpt>
      <trkpt lat="45.7891936" lon="6.9278518">
        <ele>2019.98</ele>
        <time>2019-09-06T09:06:29Z</time>
      </trkpt>
      <trkpt lat="45.7892415" lon="6.9279695">
        <ele>2018.04</ele>
        <time>2019-09-06T09:06:37Z</time>
      </trkpt>
      <trkpt lat="45.7893011" lon="6.9280919">
        <ele>2016.04</ele>
        <time>2019-09-06T09:06:45Z</time>
      </trkpt>
      <trkpt lat="45.7893768" lon="6.9281753">
        <ele>2015.03</ele>
        <time>2019-09-06T09:06:53Z</time>
      </trkpt>
      <trkpt lat="45.7894657" lon="6.9282348">
        <ele>2013.95</ele>
        <time>2019-09-06T09:07:01Z</time>
      </trkpt>
      <trkpt lat="45.7895526" lon="6.9283286">
        <ele>2012.27</ele>
        <time>2019-09-06T09:07:09Z</time>
      </trkpt>
      <trkpt lat="45.7895891" lon="6.9284534">
        <ele>2010.33</ele>
        <time>2019-09-06T09:07:17Z</time>
      </trkpt>
      <trkpt lat="45.7896545" lon="6.9285816">
        <ele>2008.34</ele>
        <time>2019-09-06T09:07:25Z</time>
      </trkpt>
      <trkpt lat="45.7897101" lon="6.9286917">
        <ele>2006.27</ele>
        <time>2019-09-06T09:07:33Z</time>
      </trkpt>
      <trkpt lat="45.7897519" lon="6.9288189">
        <ele>2004.27</ele>
        <time>2019-09-06T09:07:41Z</time>
      </trkpt>
      <trkpt lat="45.7897817" lon="6.9289498">
        <ele>2003.03</ele>
        <time>2019-09-06T09:07:49Z</time>
      </trkpt>
      <trkpt lat="45.7898249" lon="6.9290947">
        <ele>2001.04</ele>
        <time>2019-09-06T09:07:57Z</time>
      </trkpt>
      <trkpt lat="45.7898661" lon="6.9292267">
        <ele>1998.98</ele>
        <time>2019-09-06T09:08:05Z</time>
      </trkpt>
      <trkpt lat="45.7899221" lon="6.9293520">
        <ele>1998.03</ele>
        <time>2019-09-06T09:08:13Z</time>
      </trkpt>
      <trkpt lat="45.7899553" lon="6.9294900">
        <ele>1996.04</ele>
        <time>2019-09-06T09:08:21Z</time>
      </trkpt>
      <trkpt lat="45.7899900" lon="6.9296432">
        <ele>1993.34</ele>
        <time>2019-09-06T09:08:29Z</time>
      </trkpt>
      <trkpt lat="45.7900204" lon="6.9297908">
        <ele>1991.06</ele>
        <time>2019-09-06T09:08:37Z</time>
      </trkpt>
      <trkpt lat="45.7900507" lon="6.9299504">
        <ele>1989.03</ele>
        <time>2019-09-06T09:08:47Z</time>
      </trkpt>
      <trkpt lat="45.7900948" lon="6.9300821">
        <ele>1987.25</ele>
        <time>2019-09-06T09:08:55Z</time>
      </trkpt>
      <trkpt lat="45.7901041" lon="6.9302293">
        <ele>1985.04</ele>
        <time>2019-09-06T09:09:03Z</time>
      </trkpt>
      <trkpt lat="45.7901505" lon="6.9303451">
        <ele>1983.27</ele>
        <time>2019-09-06T09:09:11Z</time>
      </trkpt>
      <trkpt lat="45.7902185" lon="6.9304390">
        <ele>1981.27</ele>
        <time>2019-09-06T09:09:19Z</time>
      </trkpt>
      <trkpt lat="45.7902841" lon="6.9305495">
        <ele>1979.25</ele>
        <time>2019-09-06T09:09:27Z</time>
      </trkpt>
      <trkpt lat="45.7903404" lon="6.9306699">
        <ele>1977.97</ele>
        <time>2019-09-06T09:09:35Z</time>
      </trkpt>
      <trkpt lat="45.7904014" lon="6.9307658">
        <ele>1976.95</ele>
        <time>2019-09-06T09:09:43Z</time>
      </trkpt>
      <trkpt lat="45.7904693" lon="6.9308509">
        <ele>1975.04</ele>
        <time>2019-09-06T09:09:51Z</time>
      </trkpt>
      <trkpt lat="45.7905558" lon="6.9309183">
        <ele>1973.25</ele>
        <time>2019-09-06T09:09:59Z</time>
      </trkpt>
      <trkpt lat="45.7906038" lon="6.9310449">
        <ele>1969.08</ele>
        <time>2019-09-06T09:10:09Z</time>
      </trkpt>
      <trkpt lat="45.7906518" lon="6.9311640">
        <ele>1967.27</ele>
        <time>2019-09-06T09:10:17Z</time>
      </trkpt>
      <trkpt lat="45.7907507" lon="6.9312297">
        <ele>1965.06</ele>
        <time>2019-09-06T09:10:27Z</time>
      </trkpt>
      <trkpt lat="45.7908311" lon="6.9312917">
        <ele>1963.04</ele>
        <time>2019-09-06T09:10:35Z</time>
      </trkpt>
      <trkpt lat="45.7908955" lon="6.9313901">
        <ele>1954.26</ele>
        <time>2019-09-06T09:16:09Z</time>
      </trkpt>
      <trkpt lat="45.7909357" lon="6.9315331">
        <ele>1952.95</ele>
        <time>2019-09-06T09:16:17Z</time>
      </trkpt>
      <trkpt lat="45.7909480" lon="6.9316641">
        <ele>1952.24</ele>
        <time>2019-09-06T09:16:23Z</time>
      </trkpt>
      <trkpt lat="45.7909571" lon="6.9318087">
        <ele>1950.07</ele>
        <time>2019-09-06T09:16:29Z</time>
      </trkpt>
      <trkpt lat="45.7909962" lon="6.9319376">
        <ele>1948.00</ele>
        <time>2019-09-06T09:16:37Z</time>
      </trkpt>
      <trkpt lat="45.7910090" lon="6.9320832">
        <ele>1946.04</ele>
        <time>2019-09-06T09:16:45Z</time>
      </trkpt>
      <trkpt lat="45.7910356" lon="6.9322171">
        <ele>1944.95</ele>
        <time>2019-09-06T09:16:55Z</time>
      </trkpt>
      <trkpt lat="45.7910553" lon="6.9323589">
        <ele>1945.93</ele>
        <time>2019-09-06T09:17:03Z</time>
      </trkpt>
      <trkpt lat="45.7910751" lon="6.9325183">
        <ele>1946.91</ele>
        <time>2019-09-06T09:17:11Z</time>
      </trkpt>
      <trkpt lat="45.7910954" lon="6.9326468">
        <ele>1947.93</ele>
        <time>2019-09-06T09:17:19Z</time>
      </trkpt>
      <trkpt lat="45.7911134" lon="6.9327899">
        <ele>1948.91</ele>
        <time>2019-09-06T09:17:27Z</time>
      </trkpt>
      <trkpt lat="45.7911527" lon="6.9329364">
        <ele>1949.02</ele>
        <time>2019-09-06T09:17:37Z</time>
      </trkpt>
      <trkpt lat="45.7911940" lon="6.9330715">
        <ele>1949.87</ele>
        <time>2019-09-06T09:17:45Z</time>
      </trkpt>
      <trkpt lat="45.7912223" lon="6.9332038">
        <ele>1949.24</ele>
        <time>2019-09-06T09:17:53Z</time>
      </trkpt>
      <trkpt lat="45.7912222" lon="6.9333404">
        <ele>1948.94</ele>
        <time>2019-09-06T09:18:01Z</time>
      </trkpt>
      <trkpt lat="45.7912380" lon="6.9334776">
        <ele>1947.95</ele>
        <time>2019-09-06T09:18:09Z</time>
      </trkpt>
      <trkpt lat="45.7912831" lon="6.9336174">
        <ele>1946.27</ele>
        <time>2019-09-06T09:18:23Z</time>
      </trkpt>
      <trkpt lat="45.7913041" lon="6.9337776">
        <ele>1944.24</ele>
        <time>2019-09-06T09:18:35Z</time>
      </trkpt>
      <trkpt lat="45.7913235" lon="6.9339326">
        <ele>1941.27</ele>
        <time>2019-09-06T09:18:47Z</time>
      </trkpt>
      <trkpt lat="45.7913575" lon="6.9340831">
        <ele>1938.27</ele>
        <time>2019-09-06T09:18:59Z</time>
      </trkpt>
      <trkpt lat="45.7913732" lon="6.9342189">
        <ele>1936.25</ele>
        <time>2019-09-06T09:19:07Z</time>
      </trkpt>
      <trkpt lat="45.7913935" lon="6.9343889">
        <ele>1935.04</ele>
        <time>2019-09-06T09:19:13Z</time>
      </trkpt>
      <trkpt lat="45.7914076" lon="6.9345542">
        <ele>1933.27</ele>
        <time>2019-09-06T09:19:19Z</time>
      </trkpt>
      <trkpt lat="45.7914220" lon="6.9346841">
        <ele>1931.28</ele>
        <time>2019-09-06T09:19:25Z</time>
      </trkpt>
      <trkpt lat="45.7914375" lon="6.9348350">
        <ele>1930.03</ele>
        <time>2019-09-06T09:19:33Z</time>
      </trkpt>
      <trkpt lat="45.7914608" lon="6.9349905">
        <ele>1928.04</ele>
        <time>2019-09-06T09:19:41Z</time>
      </trkpt>
      <trkpt lat="45.7915042" lon="6.9351357">
        <ele>1926.04</ele>
        <time>2019-09-06T09:19:49Z</time>
      </trkpt>
      <trkpt lat="45.7915641" lon="6.9352682">
        <ele>1924.04</ele>
        <time>2019-09-06T09:19:57Z</time>
      </trkpt>
      <trkpt lat="45.7916443" lon="6.9353692">
        <ele>1921.98</ele>
        <time>2019-09-06T09:20:05Z</time>
      </trkpt>
      <trkpt lat="45.7917416" lon="6.9354379">
        <ele>1919.34</ele>
        <time>2019-09-06T09:20:13Z</time>
      </trkpt>
      <trkpt lat="45.7918378" lon="6.9355090">
        <ele>1917.34</ele>
        <time>2019-09-06T09:20:21Z</time>
      </trkpt>
      <trkpt lat="45.7919370" lon="6.9355948">
        <ele>1915.27</ele>
        <time>2019-09-06T09:20:29Z</time>
      </trkpt>
      <trkpt lat="45.7920194" lon="6.9356710">
        <ele>1912.34</ele>
        <time>2019-09-06T09:20:37Z</time>
      </trkpt>
      <trkpt lat="45.7920989" lon="6.9357527">
        <ele>1910.34</ele>
        <time>2019-09-06T09:20:45Z</time>
      </trkpt>
      <trkpt lat="45.7921688" lon="6.9358446">
        <ele>1908.06</ele>
        <time>2019-09-06T09:20:53Z</time>
      </trkpt>
      <trkpt lat="45.7922391" lon="6.9359428">
        <ele>1906.27</ele>
        <time>2019-09-06T09:21:01Z</time>
      </trkpt>
      <trkpt lat="45.7923012" lon="6.9360765">
        <ele>1905.03</ele>
        <time>2019-09-06T09:21:09Z</time>
      </trkpt>
      <trkpt lat="45.7923777" lon="6.9361462">
        <ele>1903.97</ele>
        <time>2019-09-06T09:21:15Z</time>
      </trkpt>
      <trkpt lat="45.7924571" lon="6.9362418">
        <ele>1902.04</ele>
        <time>2019-09-06T09:21:23Z</time>
      </trkpt>
      <trkpt lat="45.7925283" lon="6.9363356">
        <ele>1899.28</ele>
        <time>2019-09-06T09:21:31Z</time>
      </trkpt>
      <trkpt lat="45.7925997" lon="6.9364187">
        <ele>1897.27</ele>
        <time>2019-09-06T09:21:39Z</time>
      </trkpt>
      <trkpt lat="45.7926431" lon="6.9365460">
        <ele>1895.27</ele>
        <time>2019-09-06T09:21:47Z</time>
      </trkpt>
      <trkpt lat="45.7926733" lon="6.9366848">
        <ele>1894.24</ele>
        <time>2019-09-06T09:21:55Z</time>
      </trkpt>
      <trkpt lat="45.7927036" lon="6.9368253">
        <ele>1889.42</ele>
        <time>2019-09-06T09:22:03Z</time>
      </trkpt>
      <trkpt lat="45.7927199" lon="6.9369736">
        <ele>1886.20</ele>
        <time>2019-09-06T09:22:11Z</time>
      </trkpt>
      <trkpt lat="45.7926646" lon="6.9370901">
        <ele>1883.28</ele>
        <time>2019-09-06T09:22:19Z</time>
      </trkpt>
      <trkpt lat="45.7926803" lon="6.9372228">
        <ele>1880.80</ele>
        <time>2019-09-06T09:22:25Z</time>
      </trkpt>
      <trkpt lat="45.7927041" lon="6.9373832">
        <ele>1871.54</ele>
        <time>2019-09-06T09:22:35Z</time>
      </trkpt>
      <trkpt lat="45.7927058" lon="6.9375389">
        <ele>1868.57</ele>
        <time>2019-09-06T09:22:43Z</time>
      </trkpt>
      <trkpt lat="45.7927306" lon="6.9376727">
        <ele>1866.80</ele>
        <time>2019-09-06T09:22:51Z</time>
      </trkpt>
      <trkpt lat="45.7927522" lon="6.9377984">
        <ele>1865.04</ele>
        <time>2019-09-06T09:22:59Z</time>
      </trkpt>
      <trkpt lat="45.7927470" lon="6.9379316">
        <ele>1864.92</ele>
        <time>2019-09-06T09:23:07Z</time>
      </trkpt>
      <trkpt lat="45.7927040" lon="6.9380554">
        <ele>1864.03</ele>
        <time>2019-09-06T09:23:15Z</time>
      </trkpt>
      <trkpt lat="45.7926399" lon="6.9381729">
        <ele>1861.06</ele>
        <time>2019-09-06T09:23:25Z</time>
      </trkpt>
      <trkpt lat="45.7925495" lon="6.9382328">
        <ele>1857.04</ele>
        <time>2019-09-06T09:23:41Z</time>
      </trkpt>
      <trkpt lat="45.7924721" lon="6.9383553">
        <ele>1854.04</ele>
        <time>2019-09-06T09:23:53Z</time>
      </trkpt>
      <trkpt lat="45.7923709" lon="6.9384316">
        <ele>1851.04</ele>
        <time>2019-09-06T09:24:03Z</time>
      </trkpt>
      <trkpt lat="45.7923541" lon="6.9385741">
        <ele>1847.87</ele>
        <time>2019-09-06T09:24:09Z</time>
      </trkpt>
      <trkpt lat="45.7923416" lon="6.9387166">
        <ele>1841.33</ele>
        <time>2019-09-06T09:24:25Z</time>
      </trkpt>
      <trkpt lat="45.7923360" lon="6.9388509">
        <ele>1839.73</ele>
        <time>2019-09-06T09:24:57Z</time>
      </trkpt>
      <trkpt lat="45.7923432" lon="6.9390060">
        <ele>1838.04</ele>
        <time>2019-09-06T09:25:05Z</time>
      </trkpt>
      <trkpt lat="45.7923668" lon="6.9391520">
        <ele>1835.98</ele>
        <time>2019-09-06T09:25:15Z</time>
      </trkpt>
      <trkpt lat="45.7924056" lon="6.9392793">
        <ele>1834.95</ele>
        <time>2019-09-06T09:25:23Z</time>
      </trkpt>
      <trkpt lat="45.7924167" lon="6.9394115">
        <ele>1834.94</ele>
        <time>2019-09-06T09:25:31Z</time>
      </trkpt>
      <trkpt lat="45.7924533" lon="6.9395548">
        <ele>1834.24</ele>
        <time>2019-09-06T09:25:39Z</time>
      </trkpt>
      <trkpt lat="45.7924596" lon="6.9396883">
        <ele>1833.94</ele>
        <time>2019-09-06T09:25:49Z</time>
      </trkpt>
      <trkpt lat="45.7924935" lon="6.9398156">
        <ele>1833.65</ele>
        <time>2019-09-06T09:25:57Z</time>
      </trkpt>
      <trkpt lat="45.7924670" lon="6.9399410">
        <ele>1832.25</ele>
        <time>2019-09-06T09:26:05Z</time>
      </trkpt>
      <trkpt lat="45.7924749" lon="6.9400695">
        <ele>1831.94</ele>
        <time>2019-09-06T09:26:13Z</time>
      </trkpt>
      <trkpt lat="45.7924444" lon="6.9401915">
        <ele>1830.06</ele>
        <time>2019-09-06T09:26:21Z</time>
      </trkpt>
      <trkpt lat="45.7924211" lon="6.9403230">
        <ele>1828.25</ele>
        <time>2019-09-06T09:26:29Z</time>
      </trkpt>
      <trkpt lat="45.7924280" lon="6.9404713">
        <ele>1827.94</ele>
        <time>2019-09-06T09:26:37Z</time>
      </trkpt>
      <trkpt lat="45.7924199" lon="6.9406193">
        <ele>1826.25</ele>
        <time>2019-09-06T09:26:45Z</time>
      </trkpt>
      <trkpt lat="45.7924340" lon="6.9407846">
        <ele>1824.95</ele>
        <time>2019-09-06T09:26:57Z</time>
      </trkpt>
      <trkpt lat="45.7923773" lon="6.9409139">
        <ele>1823.03</ele>
        <time>2019-09-06T09:27:07Z</time>
      </trkpt>
      <trkpt lat="45.7923426" lon="6.9410527">
        <ele>1822.03</ele>
        <time>2019-09-06T09:27:15Z</time>
      </trkpt>
      <trkpt lat="45.7923061" lon="6.9411871">
        <ele>1820.04</ele>
        <time>2019-09-06T09:27:23Z</time>
      </trkpt>
      <trkpt lat="45.7922880" lon="6.9413375">
        <ele>1816.01</ele>
        <time>2019-09-06T09:27:33Z</time>
      </trkpt>
      <trkpt lat="45.7922730" lon="6.9414732">
        <ele>1812.64</ele>
        <time>2019-09-06T09:27:41Z</time>
      </trkpt>
      <trkpt lat="45.7922885" lon="6.9416067">
        <ele>1809.38</ele>
        <time>2019-09-06T09:27:49Z</time>
      </trkpt>
      <trkpt lat="45.7923161" lon="6.9417721">
        <ele>1803.57</ele>
        <time>2019-09-06T09:27:59Z</time>
      </trkpt>
      <trkpt lat="45.7923074" lon="6.9419204">
        <ele>1802.95</ele>
        <time>2019-09-06T09:28:07Z</time>
      </trkpt>
      <trkpt lat="45.7923969" lon="6.9419775">
        <ele>1799.04</ele>
        <time>2019-09-06T09:28:35Z</time>
      </trkpt>
      <trkpt lat="45.7924345" lon="6.9421079">
        <ele>1797.06</ele>
        <time>2019-09-06T09:28:41Z</time>
      </trkpt>
      <trkpt lat="45.7924345" lon="6.9422574">
        <ele>1796.25</ele>
        <time>2019-09-06T09:28:47Z</time>
      </trkpt>
      <trkpt lat="45.7924155" lon="6.9424202">
        <ele>1795.95</ele>
        <time>2019-09-06T09:28:53Z</time>
      </trkpt>
      <trkpt lat="45.7924186" lon="6.9425562">
        <ele>1794.97</ele>
        <time>2019-09-06T09:28:59Z</time>
      </trkpt>
      <trkpt lat="45.7924229" lon="6.9426937">
        <ele>1793.25</ele>
        <time>2019-09-06T09:29:07Z</time>
      </trkpt>
      <trkpt lat="45.7924263" lon="6.9428401">
        <ele>1792.03</ele>
        <time>2019-09-06T09:29:15Z</time>
      </trkpt>
      <trkpt lat="45.7923794" lon="6.9429516">
        <ele>1785.53</ele>
        <time>2019-09-06T09:29:25Z</time>
      </trkpt>
      <trkpt lat="45.7924239" lon="6.9430904">
        <ele>1776.97</ele>
        <time>2019-09-06T09:29:39Z</time>
      </trkpt>
      <trkpt lat="45.7924425" lon="6.9432577">
        <ele>1774.02</ele>
        <time>2019-09-06T09:29:49Z</time>
      </trkpt>
      <trkpt lat="45.7923991" lon="6.9433869">
        <ele>1772.24</ele>
        <time>2019-09-06T09:30:01Z</time>
      </trkpt>
      <trkpt lat="45.7924081" lon="6.9435466">
        <ele>1772.86</ele>
        <time>2019-09-06T09:30:07Z</time>
      </trkpt>
      <trkpt lat="45.7924265" lon="6.9436986">
        <ele>1772.24</ele>
        <time>2019-09-06T09:30:13Z</time>
      </trkpt>
      <trkpt lat="45.7924148" lon="6.9438559">
        <ele>1783.71</ele>
        <time>2019-09-06T09:30:23Z</time>
      </trkpt>
      <trkpt lat="45.7924126" lon="6.9440035">
        <ele>1771.35</ele>
        <time>2019-09-06T09:30:31Z</time>
      </trkpt>
      <trkpt lat="45.7923928" lon="6.9441542">
        <ele>1771.65</ele>
        <time>2019-09-06T09:30:39Z</time>
      </trkpt>
      <trkpt lat="45.7923890" lon="6.9442840">
        <ele>1771.24</ele>
        <time>2019-09-06T09:30:47Z</time>
      </trkpt>
      <trkpt lat="45.7924287" lon="6.9444213">
        <ele>1768.94</ele>
        <time>2019-09-06T09:31:03Z</time>
      </trkpt>
      <trkpt lat="45.7923444" lon="6.9445174">
        <ele>1762.08</ele>
        <time>2019-09-06T09:31:17Z</time>
      </trkpt>
      <trkpt lat="45.7922813" lon="6.9446307">
        <ele>1760.03</ele>
        <time>2019-09-06T09:31:27Z</time>
      </trkpt>
      <trkpt lat="45.7922293" lon="6.9447461">
        <ele>1758.27</ele>
        <time>2019-09-06T09:31:35Z</time>
      </trkpt>
      <trkpt lat="45.7922590" lon="6.9448898">
        <ele>1756.39</ele>
        <time>2019-09-06T09:31:43Z</time>
      </trkpt>
      <trkpt lat="45.7923278" lon="6.9450103">
        <ele>1755.68</ele>
        <time>2019-09-06T09:31:49Z</time>
      </trkpt>
      <trkpt lat="45.7923376" lon="6.9451514">
        <ele>1764.26</ele>
        <time>2019-09-06T09:31:59Z</time>
      </trkpt>
      <trkpt lat="45.7923509" lon="6.9452801">
        <ele>1757.79</ele>
        <time>2019-09-06T09:32:07Z</time>
      </trkpt>
      <trkpt lat="45.7923162" lon="6.9454039">
        <ele>1756.04</ele>
        <time>2019-09-06T09:32:15Z</time>
      </trkpt>
      <trkpt lat="45.7922699" lon="6.9455336">
        <ele>1754.68</ele>
        <time>2019-09-06T09:32:33Z</time>
      </trkpt>
      <trkpt lat="45.7922665" lon="6.9456895">
        <ele>1750.00</ele>
        <time>2019-09-06T09:32:45Z</time>
      </trkpt>
      <trkpt lat="45.7922441" lon="6.9458185">
        <ele>1748.27</ele>
        <time>2019-09-06T09:32:53Z</time>
      </trkpt>
      <trkpt lat="45.7922560" lon="6.9459680">
        <ele>1746.98</ele>
        <time>2019-09-06T09:32:59Z</time>
      </trkpt>
      <trkpt lat="45.7922778" lon="6.9460982">
        <ele>1746.94</ele>
        <time>2019-09-06T09:33:05Z</time>
      </trkpt>
      <trkpt lat="45.7922587" lon="6.9462376">
        <ele>1746.24</ele>
        <time>2019-09-06T09:33:11Z</time>
      </trkpt>
      <trkpt lat="45.7922173" lon="6.9463788">
        <ele>1743.97</ele>
        <time>2019-09-06T09:33:21Z</time>
      </trkpt>
      <trkpt lat="45.7921731" lon="6.9465072">
        <ele>1742.03</ele>
        <time>2019-09-06T09:33:31Z</time>
      </trkpt>
      <trkpt lat="45.7921057" lon="6.9466201">
        <ele>1740.25</ele>
        <time>2019-09-06T09:33:41Z</time>
      </trkpt>
      <trkpt lat="45.7920941" lon="6.9467796">
        <ele>1738.06</ele>
        <time>2019-09-06T09:33:51Z</time>
      </trkpt>
      <trkpt lat="45.7920762" lon="6.9469304">
        <ele>1739.83</ele>
        <time>2019-09-06T09:33:59Z</time>
      </trkpt>
      <trkpt lat="45.7920843" lon="6.9470731">
        <ele>1735.07</ele>
        <time>2019-09-06T09:34:09Z</time>
      </trkpt>
      <trkpt lat="45.7920820" lon="6.9472099">
        <ele>1733.97</ele>
        <time>2019-09-06T09:34:17Z</time>
      </trkpt>
      <trkpt lat="45.7920447" lon="6.9473397">
        <ele>1732.27</ele>
        <time>2019-09-06T09:34:23Z</time>
      </trkpt>
      <trkpt lat="45.7921011" lon="6.9474882">
        <ele>1731.97</ele>
        <time>2019-09-06T09:34:45Z</time>
      </trkpt>
      <trkpt lat="45.7921135" lon="6.9476244">
        <ele>1729.57</ele>
        <time>2019-09-06T09:34:51Z</time>
      </trkpt>
      <trkpt lat="45.7921811" lon="6.9477206">
        <ele>1724.38</ele>
        <time>2019-09-06T09:35:01Z</time>
      </trkpt>
      <trkpt lat="45.7922665" lon="6.9477743">
        <ele>1723.88</ele>
        <time>2019-09-06T09:35:11Z</time>
      </trkpt>
      <trkpt lat="45.7923554" lon="6.9478636">
        <ele>1725.85</ele>
        <time>2019-09-06T09:35:25Z</time>
      </trkpt>
      <trkpt lat="45.7923718" lon="6.9480031">
        <ele>1727.84</ele>
        <time>2019-09-06T09:35:33Z</time>
      </trkpt>
      <trkpt lat="45.7923762" lon="6.9481368">
        <ele>1727.94</ele>
        <time>2019-09-06T09:35:43Z</time>
      </trkpt>
      <trkpt lat="45.7923877" lon="6.9482740">
        <ele>1728.03</ele>
        <time>2019-09-06T09:35:53Z</time>
      </trkpt>
      <trkpt lat="45.7923728" lon="6.9484084">
        <ele>1728.22</ele>
        <time>2019-09-06T09:41:29Z</time>
      </trkpt>
      <trkpt lat="45.7923150" lon="6.9485210">
        <ele>1728.96</ele>
        <time>2019-09-06T09:41:51Z</time>
      </trkpt>
      <trkpt lat="45.7922027" lon="6.9485021">
        <ele>1709.62</ele>
        <time>2019-09-06T09:42:51Z</time>
      </trkpt>
      <trkpt lat="45.7921522" lon="6.9486111">
        <ele>1707.01</ele>
        <time>2019-09-06T09:42:57Z</time>
      </trkpt>
      <trkpt lat="45.7921892" lon="6.9487489">
        <ele>1706.65</ele>
        <time>2019-09-06T09:43:07Z</time>
      </trkpt>
      <trkpt lat="45.7921378" lon="6.9486239">
        <ele>1700.07</ele>
        <time>2019-09-06T09:43:21Z</time>
      </trkpt>
      <trkpt lat="45.7921353" lon="6.9487577">
        <ele>1693.59</ele>
        <time>2019-09-06T09:43:37Z</time>
      </trkpt>
      <trkpt lat="45.7921350" lon="6.9488952">
        <ele>1689.66</ele>
        <time>2019-09-06T09:43:45Z</time>
      </trkpt>
      <trkpt lat="45.7920941" lon="6.9487749">
        <ele>1689.58</ele>
        <time>2019-09-06T09:43:59Z</time>
      </trkpt>
      <trkpt lat="45.7920639" lon="6.9489113">
        <ele>1684.85</ele>
        <time>2019-09-06T09:44:09Z</time>
      </trkpt>
      <trkpt lat="45.7920581" lon="6.9487759">
        <ele>1680.64</ele>
        <time>2019-09-06T09:44:25Z</time>
      </trkpt>
      <trkpt lat="45.7919613" lon="6.9487726">
        <ele>1679.95</ele>
        <time>2019-09-06T09:44:33Z</time>
      </trkpt>
      <trkpt lat="45.7918991" lon="6.9486541">
        <ele>1679.24</ele>
        <time>2019-09-06T09:44:39Z</time>
      </trkpt>
      <trkpt lat="45.7918189" lon="6.9485837">
        <ele>1673.90</ele>
        <time>2019-09-06T09:44:57Z</time>
      </trkpt>
      <trkpt lat="45.7918178" lon="6.9484344">
        <ele>1668.11</ele>
        <time>2019-09-06T09:45:11Z</time>
      </trkpt>
      <trkpt lat="45.7917273" lon="6.9483983">
        <ele>1665.98</ele>
        <time>2019-09-06T09:45:21Z</time>
      </trkpt>
      <trkpt lat="45.7916933" lon="6.9485217">
        <ele>1660.70</ele>
        <time>2019-09-06T09:45:33Z</time>
      </trkpt>
      <trkpt lat="45.7915968" lon="6.9484907">
        <ele>1657.30</ele>
        <time>2019-09-06T09:45:45Z</time>
      </trkpt>
      <trkpt lat="45.7916220" lon="6.9486232">
        <ele>1655.78</ele>
        <time>2019-09-06T09:45:53Z</time>
      </trkpt>
      <trkpt lat="45.7916705" lon="6.9487524">
        <ele>1655.01</ele>
        <time>2019-09-06T09:46:03Z</time>
      </trkpt>
      <trkpt lat="45.7916956" lon="6.9488901">
        <ele>1652.93</ele>
        <time>2019-09-06T09:46:13Z</time>
      </trkpt>
      <trkpt lat="45.7917445" lon="6.9490156">
        <ele>1649.86</ele>
        <time>2019-09-06T09:46:25Z</time>
      </trkpt>
      <trkpt lat="45.7917833" lon="6.9491546">
        <ele>1649.94</ele>
        <time>2019-09-06T09:46:35Z</time>
      </trkpt>
      <trkpt lat="45.7917791" lon="6.9493102">
        <ele>1649.96</ele>
        <time>2019-09-06T09:46:43Z</time>
      </trkpt>
      <trkpt lat="45.7917802" lon="6.9494448">
        <ele>1649.03</ele>
        <time>2019-09-06T09:46:51Z</time>
      </trkpt>
      <trkpt lat="45.7917875" lon="6.9495951">
        <ele>1646.98</ele>
        <time>2019-09-06T09:47:01Z</time>
      </trkpt>
      <trkpt lat="45.7917702" lon="6.9497518">
        <ele>1645.33</ele>
        <time>2019-09-06T09:47:15Z</time>
      </trkpt>
      <trkpt lat="45.7917882" lon="6.9498817">
        <ele>1644.95</ele>
        <time>2019-09-06T09:47:23Z</time>
      </trkpt>
      <trkpt lat="45.7917945" lon="6.9500167">
        <ele>1642.06</ele>
        <time>2019-09-06T09:47:35Z</time>
      </trkpt>
      <trkpt lat="45.7917898" lon="6.9501571">
        <ele>1631.67</ele>
        <time>2019-09-06T09:47:47Z</time>
      </trkpt>
      <trkpt lat="45.7917740" lon="6.9503047">
        <ele>1625.19</ele>
        <time>2019-09-06T09:48:01Z</time>
      </trkpt>
      <trkpt lat="45.7917725" lon="6.9504449">
        <ele>1623.73</ele>
        <time>2019-09-06T09:48:15Z</time>
      </trkpt>
      <trkpt lat="45.7918199" lon="6.9505774">
        <ele>1616.69</ele>
        <time>2019-09-06T09:48:29Z</time>
      </trkpt>
      <trkpt lat="45.7918369" lon="6.9507236">
        <ele>1613.01</ele>
        <time>2019-09-06T09:48:39Z</time>
      </trkpt>
      <trkpt lat="45.7918343" lon="6.9508801">
        <ele>1610.95</ele>
        <time>2019-09-06T09:48:51Z</time>
      </trkpt>
      <trkpt lat="45.7918549" lon="6.9510296">
        <ele>1608.97</ele>
        <time>2019-09-06T09:49:01Z</time>
      </trkpt>
      <trkpt lat="45.7918555" lon="6.9511879">
        <ele>1608.24</ele>
        <time>2019-09-06T09:49:09Z</time>
      </trkpt>
      <trkpt lat="45.7918684" lon="6.9513336">
        <ele>1606.25</ele>
        <time>2019-09-06T09:49:17Z</time>
      </trkpt>
      <trkpt lat="45.7918977" lon="6.9514804">
        <ele>1606.24</ele>
        <time>2019-09-06T09:49:25Z</time>
      </trkpt>
      <trkpt lat="45.7918898" lon="6.9516157">
        <ele>1605.94</ele>
        <time>2019-09-06T09:49:33Z</time>
      </trkpt>
      <trkpt lat="45.7918996" lon="6.9517454">
        <ele>1605.03</ele>
        <time>2019-09-06T09:49:41Z</time>
      </trkpt>
      <trkpt lat="45.7919225" lon="6.9518885">
        <ele>1603.27</ele>
        <time>2019-09-06T09:49:49Z</time>
      </trkpt>
      <trkpt lat="45.7919014" lon="6.9520352">
        <ele>1601.27</ele>
        <time>2019-09-06T09:49:59Z</time>
      </trkpt>
      <trkpt lat="45.7918680" lon="6.9521720">
        <ele>1598.98</ele>
        <time>2019-09-06T09:50:11Z</time>
      </trkpt>
      <trkpt lat="45.7918817" lon="6.9523067">
        <ele>1597.27</ele>
        <time>2019-09-06T09:50:19Z</time>
      </trkpt>
      <trkpt lat="45.7918048" lon="6.9524285">
        <ele>1591.40</ele>
        <time>2019-09-06T09:50:29Z</time>
      </trkpt>
      <trkpt lat="45.7918088" lon="6.9525822">
        <ele>1584.02</ele>
        <time>2019-09-06T09:50:41Z</time>
      </trkpt>
      <trkpt lat="45.7917310" lon="6.9524683">
        <ele>1584.12</ele>
        <time>2019-09-06T09:51:03Z</time>
      </trkpt>
      <trkpt lat="45.7917231" lon="6.9526182">
        <ele>1580.01</ele>
        <time>2019-09-06T09:51:13Z</time>
      </trkpt>
      <trkpt lat="45.7917149" lon="6.9527832">
        <ele>1567.69</ele>
        <time>2019-09-06T09:51:41Z</time>
      </trkpt>
      <trkpt lat="45.7916229" lon="6.9528357">
        <ele>1564.58</ele>
        <time>2019-09-06T09:51:49Z</time>
      </trkpt>
      <trkpt lat="45.7915345" lon="6.9528895">
        <ele>1560.12</ele>
        <time>2019-09-06T09:51:57Z</time>
      </trkpt>
      <trkpt lat="45.7914789" lon="6.9530275">
        <ele>1556.70</ele>
        <time>2019-09-06T09:52:09Z</time>
      </trkpt>
      <trkpt lat="45.7914275" lon="6.9531339">
        <ele>1556.03</ele>
        <time>2019-09-06T09:52:33Z</time>
      </trkpt>
      <trkpt lat="45.7914164" lon="6.9532868">
        <ele>1557.14</ele>
        <time>2019-09-06T09:52:43Z</time>
      </trkpt>
      <trkpt lat="45.7913534" lon="6.9533896">
        <ele>1556.94</ele>
        <time>2019-09-06T09:52:57Z</time>
      </trkpt>
      <trkpt lat="45.7912773" lon="6.9534721">
        <ele>1555.04</ele>
        <time>2019-09-06T09:53:11Z</time>
      </trkpt>
      <trkpt lat="45.7911815" lon="6.9535467">
        <ele>1553.97</ele>
        <time>2019-09-06T09:53:21Z</time>
      </trkpt>
      <trkpt lat="45.7912246" lon="6.9534323">
        <ele>1551.04</ele>
        <time>2019-09-06T09:53:35Z</time>
      </trkpt>
      <trkpt lat="45.7912112" lon="6.9532926">
        <ele>1550.24</ele>
        <time>2019-09-06T09:53:45Z</time>
      </trkpt>
      <trkpt lat="45.7911354" lon="6.9533717">
        <ele>1538.65</ele>
        <time>2019-09-06T09:54:03Z</time>
      </trkpt>
      <trkpt lat="45.7910406" lon="6.9534249">
        <ele>1535.66</ele>
        <time>2019-09-06T09:54:13Z</time>
      </trkpt>
      <trkpt lat="45.7910138" lon="6.9535620">
        <ele>1535.88</ele>
        <time>2019-09-06T09:54:25Z</time>
      </trkpt>
      <trkpt lat="45.7910399" lon="6.9537197">
        <ele>1534.94</ele>
        <time>2019-09-06T09:54:39Z</time>
      </trkpt>
      <trkpt lat="45.7910701" lon="6.9538509">
        <ele>1533.97</ele>
        <time>2019-09-06T09:54:55Z</time>
      </trkpt>
      <trkpt lat="45.7910200" lon="6.9539899">
        <ele>1532.94</ele>
        <time>2019-09-06T09:55:05Z</time>
      </trkpt>
      <trkpt lat="45.7909424" lon="6.9539193">
        <ele>1530.97</ele>
        <time>2019-09-06T09:55:21Z</time>
      </trkpt>
      <trkpt lat="45.7908735" lon="6.9540081">
        <ele>1525.33</ele>
        <time>2019-09-06T09:55:31Z</time>
      </trkpt>
      <trkpt lat="45.7908996" lon="6.9541630">
        <ele>1517.14</ele>
        <time>2019-09-06T09:55:41Z</time>
      </trkpt>
      <trkpt lat="45.7909656" lon="6.9542802">
        <ele>1516.31</ele>
        <time>2019-09-06T09:55:47Z</time>
      </trkpt>
      <trkpt lat="45.7908888" lon="6.9543792">
        <ele>1514.84</ele>
        <time>2019-09-06T09:56:01Z</time>
      </trkpt>
      <trkpt lat="45.7908174" lon="6.9542744">
        <ele>1509.50</ele>
        <time>2019-09-06T09:56:09Z</time>
      </trkpt>
      <trkpt lat="45.7908168" lon="6.9544179">
        <ele>1501.90</ele>
        <time>2019-09-06T09:56:21Z</time>
      </trkpt>
      <trkpt lat="45.7907977" lon="6.9545494">
        <ele>1499.61</ele>
        <time>2019-09-06T09:56:39Z</time>
      </trkpt>
      <trkpt lat="45.7907117" lon="6.9546140">
        <ele>1490.01</ele>
        <time>2019-09-06T09:57:03Z</time>
      </trkpt>
      <trkpt lat="45.7906347" lon="6.9546902">
        <ele>1482.77</ele>
        <time>2019-09-06T09:57:27Z</time>
      </trkpt>
      <trkpt lat="45.7905984" lon="6.9545514">
        <ele>1480.77</ele>
        <time>2019-09-06T09:57:33Z</time>
      </trkpt>
      <trkpt lat="45.7905535" lon="6.9546781">
        <ele>1479.07</ele>
        <time>2019-09-06T09:57:43Z</time>
      </trkpt>
      <trkpt lat="45.7905930" lon="6.9548117">
        <ele>1473.43</ele>
        <time>2019-09-06T09:57:59Z</time>
      </trkpt>
      <trkpt lat="45.7906679" lon="6.9549334">
        <ele>1470.59</ele>
        <time>2019-09-06T09:58:07Z</time>
      </trkpt>
      <trkpt lat="45.7905783" lon="6.9549203">
        <ele>1472.27</ele>
        <time>2019-09-06T09:58:13Z</time>
      </trkpt>
      <trkpt lat="45.7904878" lon="6.9549416">
        <ele>1471.03</ele>
        <time>2019-09-06T09:58:21Z</time>
      </trkpt>
      <trkpt lat="45.7905537" lon="6.9550495">
        <ele>1462.25</ele>
        <time>2019-09-06T09:59:25Z</time>
      </trkpt>
      <trkpt lat="45.7906244" lon="6.9551457">
        <ele>1460.94</ele>
        <time>2019-09-06T09:59:37Z</time>
      </trkpt>
      <trkpt lat="45.7907198" lon="6.9552050">
        <ele>1455.95</ele>
        <time>2019-09-06T09:59:57Z</time>
      </trkpt>
      <trkpt lat="45.7906862" lon="6.9553463">
        <ele>1454.25</ele>
        <time>2019-09-06T10:00:11Z</time>
      </trkpt>
      <trkpt lat="45.7907886" lon="6.9553557">
        <ele>1449.95</ele>
        <time>2019-09-06T10:00:25Z</time>
      </trkpt>
      <trkpt lat="45.7908886" lon="6.9554036">
        <ele>1447.97</ele>
        <time>2019-09-06T10:00:39Z</time>
      </trkpt>
      <trkpt lat="45.7909562" lon="6.9554966">
        <ele>1447.24</ele>
        <time>2019-09-06T10:00:55Z</time>
      </trkpt>
      <trkpt lat="45.7910648" lon="6.9555327">
        <ele>1444.09</ele>
        <time>2019-09-06T10:01:03Z</time>
      </trkpt>
      <trkpt lat="45.7911677" lon="6.9555916">
        <ele>1442.63</ele>
        <time>2019-09-06T10:01:11Z</time>
      </trkpt>
      <trkpt lat="45.7912239" lon="6.9556946">
        <ele>1438.10</ele>
        <time>2019-09-06T10:01:19Z</time>
      </trkpt>
      <trkpt lat="45.7913326" lon="6.9557127">
        <ele>1435.21</ele>
        <time>2019-09-06T10:01:29Z</time>
      </trkpt>
      <trkpt lat="45.7914270" lon="6.9556489">
        <ele>1432.06</ele>
        <time>2019-09-06T10:01:39Z</time>
      </trkpt>
      <trkpt lat="45.7915119" lon="6.9556942">
        <ele>1430.26</ele>
        <time>2019-09-06T10:01:49Z</time>
      </trkpt>
      <trkpt lat="45.7914771" lon="6.9558166">
        <ele>1435.92</ele>
        <time>2019-09-06T10:02:15Z</time>
      </trkpt>
      <trkpt lat="45.7914170" lon="6.9559485">
        <ele>1419.95</ele>
        <time>2019-09-06T10:02:43Z</time>
      </trkpt>
      <trkpt lat="45.7913250" lon="6.9559798">
        <ele>1416.91</ele>
        <time>2019-09-06T10:02:55Z</time>
      </trkpt>
      <trkpt lat="45.7914162" lon="6.9560781">
        <ele>1409.71</ele>
        <time>2019-09-06T10:03:03Z</time>
      </trkpt>
      <trkpt lat="45.7914790" lon="6.9562103">
        <ele>1405.26</ele>
        <time>2019-09-06T10:03:29Z</time>
      </trkpt>
      <trkpt lat="45.7915626" lon="6.9562797">
        <ele>1401.03</ele>
        <time>2019-09-06T10:03:47Z</time>
      </trkpt>
      <trkpt lat="45.7914758" lon="6.9563579">
        <ele>1395.62</ele>
        <time>2019-09-06T10:04:05Z</time>
      </trkpt>
      <trkpt lat="45.7913671" lon="6.9563835">
        <ele>1392.80</ele>
        <time>2019-09-06T10:04:15Z</time>
      </trkpt>
      <trkpt lat="45.7912612" lon="6.9563952">
        <ele>1390.08</ele>
        <time>2019-09-06T10:04:23Z</time>
      </trkpt>
      <trkpt lat="45.7911830" lon="6.9564842">
        <ele>1384.06</ele>
        <time>2019-09-06T10:04:33Z</time>
      </trkpt>
      <trkpt lat="45.7910833" lon="6.9565225">
        <ele>1382.04</ele>
        <time>2019-09-06T10:04:41Z</time>
      </trkpt>
      <trkpt lat="45.7909835" lon="6.9565637">
        <ele>1381.15</ele>
        <time>2019-09-06T10:04:51Z</time>
      </trkpt>
      <trkpt lat="45.7908720" lon="6.9565466">
        <ele>1380.09</ele>
        <time>2019-09-06T10:04:59Z</time>
      </trkpt>
      <trkpt lat="45.7907820" lon="6.9566639">
        <ele>1374.00</ele>
        <time>2019-09-06T10:05:11Z</time>
      </trkpt>
      <trkpt lat="45.7906873" lon="6.9567179">
        <ele>1371.15</ele>
        <time>2019-09-06T10:05:17Z</time>
      </trkpt>
      <trkpt lat="45.7907322" lon="6.9568537">
        <ele>1367.28</ele>
        <time>2019-09-06T10:05:33Z</time>
      </trkpt>
      <trkpt lat="45.7906405" lon="6.9569402">
        <ele>1357.76</ele>
        <time>2019-09-06T10:05:53Z</time>
      </trkpt>
      <trkpt lat="45.7907225" lon="6.9570233">
        <ele>1349.95</ele>
        <time>2019-09-06T10:06:09Z</time>
      </trkpt>
      <trkpt lat="45.7908119" lon="6.9570621">
        <ele>1348.95</ele>
        <time>2019-09-06T10:06:17Z</time>
      </trkpt>
      <trkpt lat="45.7908892" lon="6.9571547">
        <ele>1350.93</ele>
        <time>2019-09-06T10:06:27Z</time>
      </trkpt>
      <trkpt lat="45.7909664" lon="6.9572429">
        <ele>1348.32</ele>
        <time>2019-09-06T10:06:37Z</time>
      </trkpt>
      <trkpt lat="45.7910430" lon="6.9573170">
        <ele>1347.24</ele>
        <time>2019-09-06T10:06:47Z</time>
      </trkpt>
      <trkpt lat="45.7911114" lon="6.9574160">
        <ele>1346.24</ele>
        <time>2019-09-06T10:06:57Z</time>
      </trkpt>
      <trkpt lat="45.7910008" lon="6.9574083">
        <ele>1341.37</ele>
        <time>2019-09-06T10:08:05Z</time>
      </trkpt>
      <trkpt lat="45.7908915" lon="6.9573584">
        <ele>1339.04</ele>
        <time>2019-09-06T10:08:13Z</time>
      </trkpt>
      <trkpt lat="45.7908043" lon="6.9574141">
        <ele>1338.24</ele>
        <time>2019-09-06T10:08:21Z</time>
      </trkpt>
      <trkpt lat="45.7908928" lon="6.9574818">
        <ele>1335.04</ele>
        <time>2019-09-06T10:08:33Z</time>
      </trkpt>
      <trkpt lat="45.7909863" lon="6.9575708">
        <ele>1333.04</ele>
        <time>2019-09-06T10:08:41Z</time>
      </trkpt>
      <trkpt lat="45.7910772" lon="6.9576620">
        <ele>1331.25</ele>
        <time>2019-09-06T10:08:49Z</time>
      </trkpt>
      <trkpt lat="45.7910467" lon="6.9577931">
        <ele>1329.04</ele>
        <time>2019-09-06T10:09:05Z</time>
      </trkpt>
      <trkpt lat="45.7909519" lon="6.9578213">
        <ele>1324.48</ele>
        <time>2019-09-06T10:09:15Z</time>
      </trkpt>
      <trkpt lat="45.7908978" lon="6.9579335">
        <ele>1317.12</ele>
        <time>2019-09-06T10:09:23Z</time>
      </trkpt>
      <trkpt lat="45.7908154" lon="6.9580035">
        <ele>1315.04</ele>
        <time>2019-09-06T10:09:31Z</time>
      </trkpt>
      <trkpt lat="45.7907421" lon="6.9581015">
        <ele>1314.03</ele>
        <time>2019-09-06T10:09:39Z</time>
      </trkpt>
      <trkpt lat="45.7906866" lon="6.9582139">
        <ele>1312.97</ele>
        <time>2019-09-06T10:09:47Z</time>
      </trkpt>
      <trkpt lat="45.7906071" lon="6.9583357">
        <ele>1306.95</ele>
        <time>2019-09-06T10:10:15Z</time>
      </trkpt>
      <trkpt lat="45.7905422" lon="6.9584402">
        <ele>1306.94</ele>
        <time>2019-09-06T10:10:21Z</time>
      </trkpt>
      <trkpt lat="45.7904344" lon="6.9585261">
        <ele>1305.33</ele>
        <time>2019-09-06T10:10:27Z</time>
      </trkpt>
      <trkpt lat="45.7903330" lon="6.9586142">
        <ele>1303.28</ele>
        <time>2019-09-06T10:10:33Z</time>
      </trkpt>
      <trkpt lat="45.7902355" lon="6.9587087">
        <ele>1301.34</ele>
        <time>2019-09-06T10:10:39Z</time>
      </trkpt>
      <trkpt lat="45.7901535" lon="6.9588210">
        <ele>1300.04</ele>
        <time>2019-09-06T10:10:47Z</time>
      </trkpt>
      <trkpt lat="45.7900693" lon="6.9588936">
        <ele>1298.04</ele>
        <time>2019-09-06T10:10:55Z</time>
      </trkpt>
      <trkpt lat="45.7900312" lon="6.9590325">
        <ele>1294.33</ele>
        <time>2019-09-06T10:11:15Z</time>
      </trkpt>
      <trkpt lat="45.7899420" lon="6.9590932">
        <ele>1291.98</ele>
        <time>2019-09-06T10:11:25Z</time>
      </trkpt>
      <trkpt lat="45.7898398" lon="6.9591415">
        <ele>1290.76</ele>
        <time>2019-09-06T10:11:31Z</time>
      </trkpt>
      <trkpt lat="45.7897341" lon="6.9591709">
        <ele>1289.26</ele>
        <time>2019-09-06T10:11:37Z</time>
      </trkpt>
      <trkpt lat="45.7896238" lon="6.9591846">
        <ele>1287.34</ele>
        <time>2019-09-06T10:11:43Z</time>
      </trkpt>
      <trkpt lat="45.7895295" lon="6.9591444">
        <ele>1285.28</ele>
        <time>2019-09-06T10:11:49Z</time>
      </trkpt>
      <trkpt lat="45.7894281" lon="6.9591510">
        <ele>1283.27</ele>
        <time>2019-09-06T10:11:57Z</time>
      </trkpt>
      <trkpt lat="45.7893325" lon="6.9590924">
        <ele>1280.25</ele>
        <time>2019-09-06T10:12:09Z</time>
      </trkpt>
      <trkpt lat="45.7892182" lon="6.9590902">
        <ele>1277.97</ele>
        <time>2019-09-06T10:12:49Z</time>
      </trkpt>
      <trkpt lat="45.7891141" lon="6.9591013">
        <ele>1275.34</ele>
        <time>2019-09-06T10:12:57Z</time>
      </trkpt>
      <trkpt lat="45.7890410" lon="6.9590234">
        <ele>1273.07</ele>
        <time>2019-09-06T10:13:03Z</time>
      </trkpt>
      <trkpt lat="45.7889358" lon="6.9589529">
        <ele>1274.54</ele>
        <time>2019-09-06T10:13:13Z</time>
      </trkpt>
      <trkpt lat="45.7888274" lon="6.9588838">
        <ele>1272.05</ele>
        <time>2019-09-06T10:13:21Z</time>
      </trkpt>
      <trkpt lat="45.7887455" lon="6.9589447">
        <ele>1268.27</ele>
        <time>2019-09-06T10:13:33Z</time>
      </trkpt>
      <trkpt lat="45.7887255" lon="6.9590758">
        <ele>1266.97</ele>
        <time>2019-09-06T10:13:41Z</time>
      </trkpt>
      <trkpt lat="45.7887169" lon="6.9592160">
        <ele>1264.34</ele>
        <time>2019-09-06T10:13:49Z</time>
      </trkpt>
      <trkpt lat="45.7887051" lon="6.9593452">
        <ele>1263.04</ele>
        <time>2019-09-06T10:13:57Z</time>
      </trkpt>
      <trkpt lat="45.7886529" lon="6.9594677">
        <ele>1261.03</ele>
        <time>2019-09-06T10:14:07Z</time>
      </trkpt>
      <trkpt lat="45.7886446" lon="6.9596253">
        <ele>1259.03</ele>
        <time>2019-09-06T10:14:17Z</time>
      </trkpt>
      <trkpt lat="45.7886653" lon="6.9597715">
        <ele>1258.03</ele>
        <time>2019-09-06T10:14:25Z</time>
      </trkpt>
      <trkpt lat="45.7886686" lon="6.9599038">
        <ele>1256.04</ele>
        <time>2019-09-06T10:14:33Z</time>
      </trkpt>
      <trkpt lat="45.7886757" lon="6.9600679">
        <ele>1254.95</ele>
        <time>2019-09-06T10:14:43Z</time>
      </trkpt>
      <trkpt lat="45.7886789" lon="6.9602248">
        <ele>1252.98</ele>
        <time>2019-09-06T10:14:51Z</time>
      </trkpt>
      <trkpt lat="45.7886732" lon="6.9603716">
        <ele>1251.95</ele>
        <time>2019-09-06T10:15:01Z</time>
      </trkpt>
      <trkpt lat="45.7886387" lon="6.9604951">
        <ele>1250.33</ele>
        <time>2019-09-06T10:15:09Z</time>
      </trkpt>
      <trkpt lat="45.7886319" lon="6.9606613">
        <ele>1248.97</ele>
        <time>2019-09-06T10:15:17Z</time>
      </trkpt>
      <trkpt lat="45.7886481" lon="6.9607888">
        <ele>1247.25</ele>
        <time>2019-09-06T10:15:25Z</time>
      </trkpt>
      <trkpt lat="45.7886847" lon="6.9609266">
        <ele>1245.04</ele>
        <time>2019-09-06T10:15:35Z</time>
      </trkpt>
      <trkpt lat="45.7887322" lon="6.9610510">
        <ele>1244.73</ele>
        <time>2019-09-06T10:15:43Z</time>
      </trkpt>
      <trkpt lat="45.7887701" lon="6.9612044">
        <ele>1242.27</ele>
        <time>2019-09-06T10:15:53Z</time>
      </trkpt>
      <trkpt lat="45.7888109" lon="6.9613310">
        <ele>1241.24</ele>
        <time>2019-09-06T10:16:01Z</time>
      </trkpt>
      <trkpt lat="45.7888412" lon="6.9614887">
        <ele>1239.97</ele>
        <time>2019-09-06T10:16:09Z</time>
      </trkpt>
      <trkpt lat="45.7888550" lon="6.9616486">
        <ele>1238.25</ele>
        <time>2019-09-06T10:16:17Z</time>
      </trkpt>
      <trkpt lat="45.7888789" lon="6.9617817">
        <ele>1237.03</ele>
        <time>2019-09-06T10:16:25Z</time>
      </trkpt>
      <trkpt lat="45.7889045" lon="6.9619116">
        <ele>1235.97</ele>
        <time>2019-09-06T10:16:33Z</time>
      </trkpt>
      <trkpt lat="45.7889473" lon="6.9620457">
        <ele>1234.95</ele>
        <time>2019-09-06T10:16:43Z</time>
      </trkpt>
      <trkpt lat="45.7889949" lon="6.9621780">
        <ele>1233.25</ele>
        <time>2019-09-06T10:16:51Z</time>
      </trkpt>
      <trkpt lat="45.7890448" lon="6.9622934">
        <ele>1231.97</ele>
        <time>2019-09-06T10:16:59Z</time>
      </trkpt>
      <trkpt lat="45.7890819" lon="6.9624120">
        <ele>1230.25</ele>
        <time>2019-09-06T10:17:07Z</time>
      </trkpt>
      <trkpt lat="45.7891284" lon="6.9625485">
        <ele>1229.24</ele>
        <time>2019-09-06T10:17:15Z</time>
      </trkpt>
      <trkpt lat="45.7891905" lon="6.9626779">
        <ele>1228.03</ele>
        <time>2019-09-06T10:17:23Z</time>
      </trkpt>
      <trkpt lat="45.7892555" lon="6.9627942">
        <ele>1226.97</ele>
        <time>2019-09-06T10:17:31Z</time>
      </trkpt>
      <trkpt lat="45.7893271" lon="6.9629173">
        <ele>1226.03</ele>
        <time>2019-09-06T10:17:39Z</time>
      </trkpt>
      <trkpt lat="45.7893960" lon="6.9630071">
        <ele>1225.73</ele>
        <time>2019-09-06T10:17:47Z</time>
      </trkpt>
      <trkpt lat="45.7894701" lon="6.9631044">
        <ele>1224.25</ele>
        <time>2019-09-06T10:17:55Z</time>
      </trkpt>
      <trkpt lat="45.7895120" lon="6.9632294">
        <ele>1222.97</ele>
        <time>2019-09-06T10:18:03Z</time>
      </trkpt>
      <trkpt lat="45.7895623" lon="6.9633749">
        <ele>1220.97</ele>
        <time>2019-09-06T10:18:13Z</time>
      </trkpt>
      <trkpt lat="45.7895839" lon="6.9635270">
        <ele>1219.27</ele>
        <time>2019-09-06T10:18:21Z</time>
      </trkpt>
      <trkpt lat="45.7896287" lon="6.9636635">
        <ele>1218.03</ele>
        <time>2019-09-06T10:18:29Z</time>
      </trkpt>
      <trkpt lat="45.7897026" lon="6.9637715">
        <ele>1217.94</ele>
        <time>2019-09-06T10:18:39Z</time>
      </trkpt>
      <trkpt lat="45.7897734" lon="6.9638685">
        <ele>1217.94</ele>
        <time>2019-09-06T10:18:47Z</time>
      </trkpt>
      <trkpt lat="45.7898476" lon="6.9639470">
        <ele>1216.25</ele>
        <time>2019-09-06T10:18:55Z</time>
      </trkpt>
      <trkpt lat="45.7899630" lon="6.9640276">
        <ele>1215.97</ele>
        <time>2019-09-06T10:19:11Z</time>
      </trkpt>
      <trkpt lat="45.7900165" lon="6.9641485">
        <ele>1215.94</ele>
        <time>2019-09-06T10:19:17Z</time>
      </trkpt>
      <trkpt lat="45.7900790" lon="6.9642658">
        <ele>1215.88</ele>
        <time>2019-09-06T10:19:25Z</time>
      </trkpt>
      <trkpt lat="45.7901433" lon="6.9643584">
        <ele>1214.96</ele>
        <time>2019-09-06T10:19:35Z</time>
      </trkpt>
      <trkpt lat="45.7902354" lon="6.9644191">
        <ele>1215.15</ele>
        <time>2019-09-06T10:19:47Z</time>
      </trkpt>
      <trkpt lat="45.7903260" lon="6.9645057">
        <ele>1214.03</ele>
        <time>2019-09-06T10:19:55Z</time>
      </trkpt>
      <trkpt lat="45.7904302" lon="6.9644970">
        <ele>1213.73</ele>
        <time>2019-09-06T10:20:05Z</time>
      </trkpt>
      <trkpt lat="45.7905239" lon="6.9644619">
        <ele>1212.95</ele>
        <time>2019-09-06T10:20:13Z</time>
      </trkpt>
      <trkpt lat="45.7906208" lon="6.9644597">
        <ele>1211.97</ele>
        <time>2019-09-06T10:20:21Z</time>
      </trkpt>
      <trkpt lat="45.7907198" lon="6.9644682">
        <ele>1212.98</ele>
        <time>2019-09-06T10:20:29Z</time>
      </trkpt>
      <trkpt lat="45.7907881" lon="6.9645531">
        <ele>1211.24</ele>
        <time>2019-09-06T10:20:41Z</time>
      </trkpt>
      <trkpt lat="45.7907578" lon="6.9646823">
        <ele>1208.95</ele>
        <time>2019-09-06T10:20:53Z</time>
      </trkpt>
      <trkpt lat="45.7907299" lon="6.9648228">
        <ele>1208.01</ele>
        <time>2019-09-06T10:21:03Z</time>
      </trkpt>
      <trkpt lat="45.7907447" lon="6.9649583">
        <ele>1208.92</ele>
        <time>2019-09-06T10:21:13Z</time>
      </trkpt>
      <trkpt lat="45.7906807" lon="6.9650776">
        <ele>1208.86</ele>
        <time>2019-09-06T10:21:21Z</time>
      </trkpt>
      <trkpt lat="45.7906627" lon="6.9652084">
        <ele>1207.25</ele>
        <time>2019-09-06T10:21:29Z</time>
      </trkpt>
      <trkpt lat="45.7906859" lon="6.9653563">
        <ele>1206.94</ele>
        <time>2019-09-06T10:21:37Z</time>
      </trkpt>
      <trkpt lat="45.7905906" lon="6.9654175">
        <ele>1206.92</ele>
        <time>2019-09-06T10:21:47Z</time>
      </trkpt>
      <trkpt lat="45.7905061" lon="6.9654655">
        <ele>1206.94</ele>
        <time>2019-09-06T10:21:55Z</time>
      </trkpt>
      <trkpt lat="45.7904206" lon="6.9655525">
        <ele>1205.97</ele>
        <time>2019-09-06T10:22:03Z</time>
      </trkpt>
      <trkpt lat="45.7903592" lon="6.9656645">
        <ele>1204.04</ele>
        <time>2019-09-06T10:22:11Z</time>
      </trkpt>
      <trkpt lat="45.7904539" lon="6.9657035">
        <ele>1203.94</ele>
        <time>2019-09-06T10:22:21Z</time>
      </trkpt>
      <trkpt lat="45.7905409" lon="6.9657971">
        <ele>1201.28</ele>
        <time>2019-09-06T10:22:31Z</time>
      </trkpt>
      <trkpt lat="45.7906316" lon="6.9658288">
        <ele>1200.95</ele>
        <time>2019-09-06T10:22:37Z</time>
      </trkpt>
      <trkpt lat="45.7907279" lon="6.9658664">
        <ele>1199.06</ele>
        <time>2019-09-06T10:22:45Z</time>
      </trkpt>
      <trkpt lat="45.7908362" lon="6.9658868">
        <ele>1198.94</ele>
        <time>2019-09-06T10:22:55Z</time>
      </trkpt>
      <trkpt lat="45.7909394" lon="6.9658612">
        <ele>1196.98</ele>
        <time>2019-09-06T10:23:03Z</time>
      </trkpt>
      <trkpt lat="45.7910508" lon="6.9658838">
        <ele>1194.28</ele>
        <time>2019-09-06T10:23:11Z</time>
      </trkpt>
      <trkpt lat="45.7911579" lon="6.9658811">
        <ele>1193.24</ele>
        <time>2019-09-06T10:23:19Z</time>
      </trkpt>
      <trkpt lat="45.7912469" lon="6.9658094">
        <ele>1192.03</ele>
        <time>2019-09-06T10:23:29Z</time>
      </trkpt>
      <trkpt lat="45.7913320" lon="6.9657489">
        <ele>1191.03</ele>
        <time>2019-09-06T10:23:37Z</time>
      </trkpt>
      <trkpt lat="45.7914140" lon="6.9656489">
        <ele>1188.96</ele>
        <time>2019-09-06T10:23:45Z</time>
      </trkpt>
      <trkpt lat="45.7914973" lon="6.9655793">
        <ele>1185.08</ele>
        <time>2019-09-06T10:23:53Z</time>
      </trkpt>
      <trkpt lat="45.7915806" lon="6.9655258">
        <ele>1183.19</ele>
        <time>2019-09-06T10:24:01Z</time>
      </trkpt>
      <trkpt lat="45.7916701" lon="6.9654362">
        <ele>1181.06</ele>
        <time>2019-09-06T10:24:09Z</time>
      </trkpt>
      <trkpt lat="45.7917383" lon="6.9653341">
        <ele>1178.77</ele>
        <time>2019-09-06T10:24:17Z</time>
      </trkpt>
      <trkpt lat="45.7918324" lon="6.9653013">
        <ele>1178.24</ele>
        <time>2019-09-06T10:24:25Z</time>
      </trkpt>
      <trkpt lat="45.7919288" lon="6.9652996">
        <ele>1178.64</ele>
        <time>2019-09-06T10:24:33Z</time>
      </trkpt>
      <trkpt lat="45.7920347" lon="6.9653834">
        <ele>1177.54</ele>
        <time>2019-09-06T10:24:41Z</time>
      </trkpt>
      <trkpt lat="45.7920987" lon="6.9655067">
        <ele>1176.95</ele>
        <time>2019-09-06T10:24:49Z</time>
      </trkpt>
      <trkpt lat="45.7921392" lon="6.9656487">
        <ele>1175.97</ele>
        <time>2019-09-06T10:24:57Z</time>
      </trkpt>
      <trkpt lat="45.7921608" lon="6.9657753">
        <ele>1175.94</ele>
        <time>2019-09-06T10:25:05Z</time>
      </trkpt>
      <trkpt lat="45.7921771" lon="6.9659181">
        <ele>1175.94</ele>
        <time>2019-09-06T10:25:13Z</time>
      </trkpt>
      <trkpt lat="45.7922024" lon="6.9660662">
        <ele>1175.94</ele>
        <time>2019-09-06T10:25:21Z</time>
      </trkpt>
      <trkpt lat="45.7922449" lon="6.9662109">
        <ele>1175.24</ele>
        <time>2019-09-06T10:25:29Z</time>
      </trkpt>
      <trkpt lat="45.7922895" lon="6.9663467">
        <ele>1174.94</ele>
        <time>2019-09-06T10:25:37Z</time>
      </trkpt>
      <trkpt lat="45.7923348" lon="6.9664822">
        <ele>1173.04</ele>
        <time>2019-09-06T10:25:45Z</time>
      </trkpt>
      <trkpt lat="45.7923665" lon="6.9666273">
        <ele>1171.97</ele>
        <time>2019-09-06T10:25:53Z</time>
      </trkpt>
      <trkpt lat="45.7924197" lon="6.9667342">
        <ele>1172.85</ele>
        <time>2019-09-06T10:26:01Z</time>
      </trkpt>
      <trkpt lat="45.7924746" lon="6.9668539">
        <ele>1173.64</ele>
        <time>2019-09-06T10:26:09Z</time>
      </trkpt>
      <trkpt lat="45.7925531" lon="6.9669650">
        <ele>1175.82</ele>
        <time>2019-09-06T10:26:17Z</time>
      </trkpt>
      <trkpt lat="45.7926060" lon="6.9670770">
        <ele>1175.94</ele>
        <time>2019-09-06T10:26:25Z</time>
      </trkpt>
      <trkpt lat="45.7926394" lon="6.9672006">
        <ele>1175.94</ele>
        <time>2019-09-06T10:26:33Z</time>
      </trkpt>
      <trkpt lat="45.7926740" lon="6.9673292">
        <ele>1173.28</ele>
        <time>2019-09-06T10:26:41Z</time>
      </trkpt>
      <trkpt lat="45.7926959" lon="6.9674711">
        <ele>1172.94</ele>
        <time>2019-09-06T10:26:49Z</time>
      </trkpt>
      <trkpt lat="45.7927165" lon="6.9675976">
        <ele>1172.03</ele>
        <time>2019-09-06T10:26:57Z</time>
      </trkpt>
      <trkpt lat="45.7927141" lon="6.9677274">
        <ele>1171.94</ele>
        <time>2019-09-06T10:27:05Z</time>
      </trkpt>
      <trkpt lat="45.7926876" lon="6.9678762">
        <ele>1171.94</ele>
        <time>2019-09-06T10:27:15Z</time>
      </trkpt>
      <trkpt lat="45.7926268" lon="6.9679799">
        <ele>1172.93</ele>
        <time>2019-09-06T10:27:23Z</time>
      </trkpt>
      <trkpt lat="45.7926399" lon="6.9681173">
        <ele>1173.85</ele>
        <time>2019-09-06T10:27:33Z</time>
      </trkpt>
      <trkpt lat="45.7926130" lon="6.9682420">
        <ele>1173.94</ele>
        <time>2019-09-06T10:27:43Z</time>
      </trkpt>
      <trkpt lat="45.7925568" lon="6.9683576">
        <ele>1173.94</ele>
        <time>2019-09-06T10:27:55Z</time>
      </trkpt>
      <trkpt lat="45.7925001" lon="6.9684776">
        <ele>1173.24</ele>
        <time>2019-09-06T10:28:05Z</time>
      </trkpt>
      <trkpt lat="45.7924384" lon="6.9685871">
        <ele>1173.85</ele>
        <time>2019-09-06T10:28:13Z</time>
      </trkpt>
      <trkpt lat="45.7923493" lon="6.9686710">
        <ele>1175.61</ele>
        <time>2019-09-06T10:28:21Z</time>
      </trkpt>
      <trkpt lat="45.7922644" lon="6.9687205">
        <ele>1177.82</ele>
        <time>2019-09-06T10:28:27Z</time>
      </trkpt>
      <trkpt lat="45.7921729" lon="6.9688073">
        <ele>1179.61</ele>
        <time>2019-09-06T10:28:35Z</time>
      </trkpt>
      <trkpt lat="45.7920995" lon="6.9689001">
        <ele>1180.15</ele>
        <time>2019-09-06T10:28:45Z</time>
      </trkpt>
      <trkpt lat="45.7920031" lon="6.9689601">
        <ele>1180.93</ele>
        <time>2019-09-06T10:28:55Z</time>
      </trkpt>
      <trkpt lat="45.7919026" lon="6.9690107">
        <ele>1182.15</ele>
        <time>2019-09-06T10:29:05Z</time>
      </trkpt>
      <trkpt lat="45.7918077" lon="6.9690419">
        <ele>1183.64</ele>
        <time>2019-09-06T10:29:13Z</time>
      </trkpt>
      <trkpt lat="45.7917254" lon="6.9691116">
        <ele>1184.64</ele>
        <time>2019-09-06T10:29:21Z</time>
      </trkpt>
      <trkpt lat="45.7916450" lon="6.9692354">
        <ele>1184.24</ele>
        <time>2019-09-06T10:29:29Z</time>
      </trkpt>
      <trkpt lat="45.7915700" lon="6.9693139">
        <ele>1184.86</ele>
        <time>2019-09-06T10:29:35Z</time>
      </trkpt>
      <trkpt lat="45.7914991" lon="6.9693982">
        <ele>1185.85</ele>
        <time>2019-09-06T10:29:41Z</time>
      </trkpt>
      <trkpt lat="45.7914537" lon="6.9695286">
        <ele>1186.94</ele>
        <time>2019-09-06T10:29:53Z</time>
      </trkpt>
      <trkpt lat="45.7914154" lon="6.9696596">
        <ele>1186.24</ele>
        <time>2019-09-06T10:30:21Z</time>
      </trkpt>
      <trkpt lat="45.7913350" lon="6.9695803">
        <ele>1188.49</ele>
        <time>2019-09-06T10:30:25Z</time>
      </trkpt>
      <trkpt lat="45.7912514" lon="6.9696389">
        <ele>1192.70</ele>
        <time>2019-09-06T10:30:31Z</time>
      </trkpt>
      <trkpt lat="45.7911457" lon="6.9696942">
        <ele>1197.78</ele>
        <time>2019-09-06T10:30:39Z</time>
      </trkpt>
      <trkpt lat="45.7910356" lon="6.9697373">
        <ele>1199.91</ele>
        <time>2019-09-06T10:30:49Z</time>
      </trkpt>
      <trkpt lat="45.7909398" lon="6.9698185">
        <ele>1199.94</ele>
        <time>2019-09-06T10:30:59Z</time>
      </trkpt>
      <trkpt lat="45.7908771" lon="6.9699500">
        <ele>1200.93</ele>
        <time>2019-09-06T10:31:07Z</time>
      </trkpt>
      <trkpt lat="45.7908581" lon="6.9700854">
        <ele>1200.94</ele>
        <time>2019-09-06T10:31:15Z</time>
      </trkpt>
      <trkpt lat="45.7908770" lon="6.9702347">
        <ele>1199.04</ele>
        <time>2019-09-06T10:31:23Z</time>
      </trkpt>
      <trkpt lat="45.7908916" lon="6.9703941">
        <ele>1198.94</ele>
        <time>2019-09-06T10:31:31Z</time>
      </trkpt>
      <trkpt lat="45.7909926" lon="6.9704745">
        <ele>1199.93</ele>
        <time>2019-09-06T10:31:39Z</time>
      </trkpt>
      <trkpt lat="45.7910784" lon="6.9705193">
        <ele>1198.95</ele>
        <time>2019-09-06T10:31:47Z</time>
      </trkpt>
      <trkpt lat="45.7911669" lon="6.9706159">
        <ele>1198.26</ele>
        <time>2019-09-06T10:31:55Z</time>
      </trkpt>
      <trkpt lat="45.7912346" lon="6.9707179">
        <ele>1198.94</ele>
        <time>2019-09-06T10:32:03Z</time>
      </trkpt>
      <trkpt lat="45.7911716" lon="6.9708142">
        <ele>1198.24</ele>
        <time>2019-09-06T10:32:11Z</time>
      </trkpt>
      <trkpt lat="45.7910730" lon="6.9708786">
        <ele>1197.94</ele>
        <time>2019-09-06T10:32:21Z</time>
      </trkpt>
      <trkpt lat="45.7909942" lon="6.9709508">
        <ele>1197.94</ele>
        <time>2019-09-06T10:32:29Z</time>
      </trkpt>
      <trkpt lat="45.7909324" lon="6.9710687">
        <ele>1198.93</ele>
        <time>2019-09-06T10:32:37Z</time>
      </trkpt>
      <trkpt lat="45.7908976" lon="6.9712101">
        <ele>1199.93</ele>
        <time>2019-09-06T10:32:45Z</time>
      </trkpt>
      <trkpt lat="45.7908549" lon="6.9713292">
        <ele>1200.64</ele>
        <time>2019-09-06T10:32:53Z</time>
      </trkpt>
      <trkpt lat="45.7907988" lon="6.9714464">
        <ele>1200.88</ele>
        <time>2019-09-06T10:33:01Z</time>
      </trkpt>
      <trkpt lat="45.7906995" lon="6.9714698">
        <ele>1201.66</ele>
        <time>2019-09-06T10:33:15Z</time>
      </trkpt>
      <trkpt lat="45.7906576" lon="6.9715991">
        <ele>1201.94</ele>
        <time>2019-09-06T10:33:23Z</time>
      </trkpt>
      <trkpt lat="45.7906148" lon="6.9717132">
        <ele>1201.94</ele>
        <time>2019-09-06T10:33:31Z</time>
      </trkpt>
      <trkpt lat="45.7906182" lon="6.9718534">
        <ele>1201.86</ele>
        <time>2019-09-06T10:33:41Z</time>
      </trkpt>
      <trkpt lat="45.7906967" lon="6.9719219">
        <ele>1202.85</ele>
        <time>2019-09-06T10:33:47Z</time>
      </trkpt>
      <trkpt lat="45.7908025" lon="6.9719481">
        <ele>1202.94</ele>
        <time>2019-09-06T10:33:57Z</time>
      </trkpt>
      <trkpt lat="45.7908557" lon="6.9720914">
        <ele>1203.64</ele>
        <time>2019-09-06T10:34:05Z</time>
      </trkpt>
      <trkpt lat="45.7909220" lon="6.9722154">
        <ele>1205.61</ele>
        <time>2019-09-06T10:34:15Z</time>
      </trkpt>
      <trkpt lat="45.7910266" lon="6.9722167">
        <ele>1223.08</ele>
        <time>2019-09-06T10:37:03Z</time>
      </trkpt>
      <trkpt lat="45.7909768" lon="6.9719789">
        <ele>1229.75</ele>
        <time>2019-09-06T10:37:20Z</time>
      </trkpt>
      <trkpt lat="45.7909326" lon="6.9721296">
        <ele>1234.78</ele>
        <time>2019-09-06T10:38:20Z</time>
      </trkpt>
      <trkpt lat="45.7908421" lon="6.9721558">
        <ele>1235.51</ele>
        <time>2019-09-06T10:45:39Z</time>
      </trkpt>
      <trkpt lat="45.7907704" lon="6.9723817">
        <ele>1239.34</ele>
        <time>2019-09-06T10:46:21Z</time>
      </trkpt>
      <trkpt lat="45.7907053" lon="6.9724938">
        <ele>1243.96</ele>
        <time>2019-09-06T10:46:23Z</time>
      </trkpt>
      <trkpt lat="45.7906768" lon="6.9723529">
        <ele>1247.16</ele>
        <time>2019-09-06T10:46:27Z</time>
      </trkpt>
      <trkpt lat="45.7906436" lon="6.9724938">
        <ele>1250.59</ele>
        <time>2019-09-06T10:46:37Z</time>
      </trkpt>
      <trkpt lat="45.7906525" lon="6.9722923">
        <ele>1252.08</ele>
        <time>2019-09-06T10:46:49Z</time>
      </trkpt>
      <trkpt lat="45.7906527" lon="6.9721599">
        <ele>1262.98</ele>
        <time>2019-09-06T10:46:55Z</time>
      </trkpt>
      <trkpt lat="45.7906622" lon="6.9722901">
        <ele>1247.67</ele>
        <time>2019-09-06T10:47:15Z</time>
      </trkpt>
      <trkpt lat="45.7907614" lon="6.9722553">
        <ele>1239.78</ele>
        <time>2019-09-06T10:50:09Z</time>
      </trkpt>
      <trkpt lat="45.7908555" lon="6.9722224">
        <ele>1226.53</ele>
        <time>2019-09-06T10:50:59Z</time>
      </trkpt>
      <trkpt lat="45.7908234" lon="6.9720875">
        <ele>1229.31</ele>
        <time>2019-09-06T10:51:35Z</time>
      </trkpt>
      <trkpt lat="45.7907452" lon="6.9719932">
        <ele>1252.08</ele>
        <time>2019-09-06T10:53:41Z</time>
      </trkpt>
      <trkpt lat="45.7908208" lon="6.9720676">
        <ele>1239.20</ele>
        <time>2019-09-06T10:53:55Z</time>
      </trkpt>
      <trkpt lat="45.7908637" lon="6.9722077">
        <ele>1214.73</ele>
        <time>2019-09-06T10:54:43Z</time>
      </trkpt>
      <trkpt lat="45.7909171" lon="6.9723255">
        <ele>1214.94</ele>
        <time>2019-09-06T10:54:51Z</time>
      </trkpt>
      <trkpt lat="45.7909946" lon="6.9724288">
        <ele>1216.03</ele>
        <time>2019-09-06T10:55:07Z</time>
      </trkpt>
      <trkpt lat="45.7909978" lon="6.9725896">
        <ele>1217.62</ele>
        <time>2019-09-06T10:55:15Z</time>
      </trkpt>
      <trkpt lat="45.7909295" lon="6.9726773">
        <ele>1217.03</ele>
        <time>2019-09-06T10:55:23Z</time>
      </trkpt>
      <trkpt lat="45.7908617" lon="6.9727807">
        <ele>1215.94</ele>
        <time>2019-09-06T10:55:33Z</time>
      </trkpt>
      <trkpt lat="45.7908823" lon="6.9729083">
        <ele>1217.85</ele>
        <time>2019-09-06T10:55:47Z</time>
      </trkpt>
      <trkpt lat="45.7909579" lon="6.9729997">
        <ele>1216.94</ele>
        <time>2019-09-06T10:56:03Z</time>
      </trkpt>
      <trkpt lat="45.7909719" lon="6.9731288">
        <ele>1216.94</ele>
        <time>2019-09-06T10:56:21Z</time>
      </trkpt>
      <trkpt lat="45.7908910" lon="6.9732011">
        <ele>1217.64</ele>
        <time>2019-09-06T10:56:31Z</time>
      </trkpt>
      <trkpt lat="45.7908239" lon="6.9733194">
        <ele>1217.24</ele>
        <time>2019-09-06T10:56:43Z</time>
      </trkpt>
      <trkpt lat="45.7908418" lon="6.9734562">
        <ele>1217.01</ele>
        <time>2019-09-06T10:56:51Z</time>
      </trkpt>
      <trkpt lat="45.7908717" lon="6.9735781">
        <ele>1216.94</ele>
        <time>2019-09-06T10:57:05Z</time>
      </trkpt>
      <trkpt lat="45.7909018" lon="6.9734459">
        <ele>1218.89</ele>
        <time>2019-09-06T10:57:23Z</time>
      </trkpt>
      <trkpt lat="45.7909926" lon="6.9734408">
        <ele>1221.92</ele>
        <time>2019-09-06T10:57:45Z</time>
      </trkpt>
      <trkpt lat="45.7909085" lon="6.9735256">
        <ele>1222.92</ele>
        <time>2019-09-06T10:58:03Z</time>
      </trkpt>
      <trkpt lat="45.7908079" lon="6.9735466">
        <ele>1221.04</ele>
        <time>2019-09-06T10:58:11Z</time>
      </trkpt>
      <trkpt lat="45.7907172" lon="6.9735659">
        <ele>1221.85</ele>
        <time>2019-09-06T10:58:19Z</time>
      </trkpt>
      <trkpt lat="45.7906176" lon="6.9736053">
        <ele>1223.85</ele>
        <time>2019-09-06T10:58:29Z</time>
      </trkpt>
      <trkpt lat="45.7904944" lon="6.9736000">
        <ele>1223.03</ele>
        <time>2019-09-06T10:58:39Z</time>
      </trkpt>
      <trkpt lat="45.7903925" lon="6.9735913">
        <ele>1223.85</ele>
        <time>2019-09-06T10:58:47Z</time>
      </trkpt>
      <trkpt lat="45.7902850" lon="6.9735855">
        <ele>1223.94</ele>
        <time>2019-09-06T10:58:57Z</time>
      </trkpt>
      <trkpt lat="45.7901909" lon="6.9735213">
        <ele>1223.94</ele>
        <time>2019-09-06T10:59:05Z</time>
      </trkpt>
      <trkpt lat="45.7900979" lon="6.9734834">
        <ele>1224.21</ele>
        <time>2019-09-06T10:59:15Z</time>
      </trkpt>
      <trkpt lat="45.7900151" lon="6.9734042">
        <ele>1223.94</ele>
        <time>2019-09-06T10:59:25Z</time>
      </trkpt>
      <trkpt lat="45.7899109" lon="6.9733942">
        <ele>1223.94</ele>
        <time>2019-09-06T10:59:49Z</time>
      </trkpt>
      <trkpt lat="45.7898020" lon="6.9734172">
        <ele>1224.92</ele>
        <time>2019-09-06T10:59:59Z</time>
      </trkpt>
      <trkpt lat="45.7897070" lon="6.9734109">
        <ele>1225.64</ele>
        <time>2019-09-06T11:00:07Z</time>
      </trkpt>
      <trkpt lat="45.7895912" lon="6.9733941">
        <ele>1225.85</ele>
        <time>2019-09-06T11:00:17Z</time>
      </trkpt>
      <trkpt lat="45.7894909" lon="6.9733957">
        <ele>1225.94</ele>
        <time>2019-09-06T11:00:27Z</time>
      </trkpt>
      <trkpt lat="45.7893908" lon="6.9733951">
        <ele>1227.64</ele>
        <time>2019-09-06T11:00:39Z</time>
      </trkpt>
      <trkpt lat="45.7892910" lon="6.9733874">
        <ele>1227.86</ele>
        <time>2019-09-06T11:00:49Z</time>
      </trkpt>
      <trkpt lat="45.7891908" lon="6.9733513">
        <ele>1226.95</ele>
        <time>2019-09-06T11:00:59Z</time>
      </trkpt>
      <trkpt lat="45.7890910" lon="6.9733344">
        <ele>1227.92</ele>
        <time>2019-09-06T11:01:07Z</time>
      </trkpt>
      <trkpt lat="45.7889898" lon="6.9733185">
        <ele>1228.58</ele>
        <time>2019-09-06T11:01:17Z</time>
      </trkpt>
      <trkpt lat="45.7888950" lon="6.9733005">
        <ele>1228.94</ele>
        <time>2019-09-06T11:01:25Z</time>
      </trkpt>
      <trkpt lat="45.7887955" lon="6.9732857">
        <ele>1229.64</ele>
        <time>2019-09-06T11:01:35Z</time>
      </trkpt>
      <trkpt lat="45.7887018" lon="6.9732966">
        <ele>1229.94</ele>
        <time>2019-09-06T11:01:43Z</time>
      </trkpt>
      <trkpt lat="45.7886087" lon="6.9732836">
        <ele>1231.63</ele>
        <time>2019-09-06T11:01:51Z</time>
      </trkpt>
      <trkpt lat="45.7887087" lon="6.9732600">
        <ele>1232.94</ele>
        <time>2019-09-06T11:02:19Z</time>
      </trkpt>
      <trkpt lat="45.7888097" lon="6.9732715">
        <ele>1234.94</ele>
        <time>2019-09-06T11:02:47Z</time>
      </trkpt>
      <trkpt lat="45.7889075" lon="6.9732667">
        <ele>1233.97</ele>
        <time>2019-09-06T11:02:57Z</time>
      </trkpt>
      <trkpt lat="45.7890071" lon="6.9732946">
        <ele>1233.73</ele>
        <time>2019-09-06T11:03:07Z</time>
      </trkpt>
      <trkpt lat="45.7891139" lon="6.9732767">
        <ele>1234.62</ele>
        <time>2019-09-06T11:03:17Z</time>
      </trkpt>
      <trkpt lat="45.7892162" lon="6.9732782">
        <ele>1235.64</ele>
        <time>2019-09-06T11:03:25Z</time>
      </trkpt>
      <trkpt lat="45.7893070" lon="6.9732984">
        <ele>1235.94</ele>
        <time>2019-09-06T11:03:35Z</time>
      </trkpt>
      <trkpt lat="45.7894219" lon="6.9733466">
        <ele>1235.06</ele>
        <time>2019-09-06T11:03:51Z</time>
      </trkpt>
      <trkpt lat="45.7895241" lon="6.9733738">
        <ele>1233.95</ele>
        <time>2019-09-06T11:03:59Z</time>
      </trkpt>
      <trkpt lat="45.7896310" lon="6.9733890">
        <ele>1233.94</ele>
        <time>2019-09-06T11:04:07Z</time>
      </trkpt>
      <trkpt lat="45.7897446" lon="6.9734070">
        <ele>1233.94</ele>
        <time>2019-09-06T11:04:15Z</time>
      </trkpt>
      <trkpt lat="45.7898564" lon="6.9733961">
        <ele>1233.96</ele>
        <time>2019-09-06T11:04:23Z</time>
      </trkpt>
      <trkpt lat="45.7899624" lon="6.9733882">
        <ele>1232.97</ele>
        <time>2019-09-06T11:04:31Z</time>
      </trkpt>
      <trkpt lat="45.7900591" lon="6.9733905">
        <ele>1231.95</ele>
        <time>2019-09-06T11:04:39Z</time>
      </trkpt>
      <trkpt lat="45.7901475" lon="6.9734338">
        <ele>1231.94</ele>
        <time>2019-09-06T11:04:47Z</time>
      </trkpt>
      <trkpt lat="45.7902506" lon="6.9734355">
        <ele>1231.94</ele>
        <time>2019-09-06T11:04:57Z</time>
      </trkpt>
      <trkpt lat="45.7903540" lon="6.9735045">
        <ele>1231.94</ele>
        <time>2019-09-06T11:05:07Z</time>
      </trkpt>
      <trkpt lat="45.7904515" lon="6.9735245">
        <ele>1230.94</ele>
        <time>2019-09-06T11:05:17Z</time>
      </trkpt>
      <trkpt lat="45.7905522" lon="6.9735077">
        <ele>1229.94</ele>
        <time>2019-09-06T11:05:27Z</time>
      </trkpt>
      <trkpt lat="45.7906534" lon="6.9735396">
        <ele>1230.15</ele>
        <time>2019-09-06T11:05:35Z</time>
      </trkpt>
      <trkpt lat="45.7907652" lon="6.9735668">
        <ele>1230.01</ele>
        <time>2019-09-06T11:05:45Z</time>
      </trkpt>
      <trkpt lat="45.7908526" lon="6.9735260">
        <ele>1230.71</ele>
        <time>2019-09-06T11:05:59Z</time>
      </trkpt>
      <trkpt lat="45.7909147" lon="6.9734238">
        <ele>1229.03</ele>
        <time>2019-09-06T11:06:09Z</time>
      </trkpt>
      <trkpt lat="45.7909972" lon="6.9733559">
        <ele>1228.67</ele>
        <time>2019-09-06T11:06:19Z</time>
      </trkpt>
      <trkpt lat="45.7910897" lon="6.9732948">
        <ele>1228.01</ele>
        <time>2019-09-06T11:07:07Z</time>
      </trkpt>
      <trkpt lat="45.7911757" lon="6.9732244">
        <ele>1227.94</ele>
        <time>2019-09-06T11:07:15Z</time>
      </trkpt>
      <trkpt lat="45.7912220" lon="6.9730988">
        <ele>1227.94</ele>
        <time>2019-09-06T11:07:23Z</time>
      </trkpt>
      <trkpt lat="45.7912872" lon="6.9729764">
        <ele>1227.24</ele>
        <time>2019-09-06T11:07:35Z</time>
      </trkpt>
      <trkpt lat="45.7913460" lon="6.9728702">
        <ele>1226.03</ele>
        <time>2019-09-06T11:07:43Z</time>
      </trkpt>
      <trkpt lat="45.7914022" lon="6.9727527">
        <ele>1225.94</ele>
        <time>2019-09-06T11:07:53Z</time>
      </trkpt>
      <trkpt lat="45.7914699" lon="6.9726392">
        <ele>1227.93</ele>
        <time>2019-09-06T11:08:41Z</time>
      </trkpt>
      <trkpt lat="45.7915541" lon="6.9725457">
        <ele>1227.94</ele>
        <time>2019-09-06T11:08:51Z</time>
      </trkpt>
      <trkpt lat="45.7916427" lon="6.9724976">
        <ele>1227.94</ele>
        <time>2019-09-06T11:08:59Z</time>
      </trkpt>
      <trkpt lat="45.7917399" lon="6.9724756">
        <ele>1226.95</ele>
        <time>2019-09-06T11:09:09Z</time>
      </trkpt>
      <trkpt lat="45.7918381" lon="6.9724255">
        <ele>1226.94</ele>
        <time>2019-09-06T11:09:19Z</time>
      </trkpt>
      <trkpt lat="45.7919285" lon="6.9724084">
        <ele>1226.94</ele>
        <time>2019-09-06T11:09:29Z</time>
      </trkpt>
      <trkpt lat="45.7920312" lon="6.9723926">
        <ele>1227.85</ele>
        <time>2019-09-06T11:09:39Z</time>
      </trkpt>
      <trkpt lat="45.7921328" lon="6.9723834">
        <ele>1227.94</ele>
        <time>2019-09-06T11:09:49Z</time>
      </trkpt>
      <trkpt lat="45.7922278" lon="6.9722969">
        <ele>1227.88</ele>
        <time>2019-09-06T11:09:59Z</time>
      </trkpt>
      <trkpt lat="45.7923206" lon="6.9722517">
        <ele>1228.64</ele>
        <time>2019-09-06T11:10:17Z</time>
      </trkpt>
      <trkpt lat="45.7924236" lon="6.9721761">
        <ele>1229.91</ele>
        <time>2019-09-06T11:10:27Z</time>
      </trkpt>
      <trkpt lat="45.7924747" lon="6.9720618">
        <ele>1229.27</ele>
        <time>2019-09-06T11:10:37Z</time>
      </trkpt>
      <trkpt lat="45.7924160" lon="6.9721745">
        <ele>1228.86</ele>
        <time>2019-09-06T11:10:47Z</time>
      </trkpt>
      <trkpt lat="45.7923388" lon="6.9722899">
        <ele>1230.63</ele>
        <time>2019-09-06T11:10:57Z</time>
      </trkpt>
      <trkpt lat="45.7922322" lon="6.9723149">
        <ele>1231.93</ele>
        <time>2019-09-06T11:11:07Z</time>
      </trkpt>
      <trkpt lat="45.7921725" lon="6.9724369">
        <ele>1231.73</ele>
        <time>2019-09-06T11:11:27Z</time>
      </trkpt>
      <trkpt lat="45.7920835" lon="6.9723852">
        <ele>1230.97</ele>
        <time>2019-09-06T11:11:37Z</time>
      </trkpt>
      <trkpt lat="45.7919927" lon="6.9724169">
        <ele>1231.64</ele>
        <time>2019-09-06T11:11:45Z</time>
      </trkpt>
      <trkpt lat="45.7918969" lon="6.9724554">
        <ele>1233.94</ele>
        <time>2019-09-06T11:12:13Z</time>
      </trkpt>
      <trkpt lat="45.7918078" lon="6.9725061">
        <ele>1232.04</ele>
        <time>2019-09-06T11:12:21Z</time>
      </trkpt>
      <trkpt lat="45.7917063" lon="6.9725224">
        <ele>1230.04</ele>
        <time>2019-09-06T11:12:29Z</time>
      </trkpt>
      <trkpt lat="45.7916143" lon="6.9725750">
        <ele>1229.94</ele>
        <time>2019-09-06T11:12:37Z</time>
      </trkpt>
      <trkpt lat="45.7915300" lon="6.9726580">
        <ele>1228.25</ele>
        <time>2019-09-06T11:12:45Z</time>
      </trkpt>
      <trkpt lat="45.7914332" lon="6.9727333">
        <ele>1227.03</ele>
        <time>2019-09-06T11:12:55Z</time>
      </trkpt>
      <trkpt lat="45.7913446" lon="6.9727853">
        <ele>1227.02</ele>
        <time>2019-09-06T11:13:03Z</time>
      </trkpt>
      <trkpt lat="45.7912533" lon="6.9728421">
        <ele>1227.02</ele>
        <time>2019-09-06T11:13:11Z</time>
      </trkpt>
      <trkpt lat="45.7911746" lon="6.9729353">
        <ele>1225.97</ele>
        <time>2019-09-06T11:13:19Z</time>
      </trkpt>
      <trkpt lat="45.7911386" lon="6.9730709">
        <ele>1225.85</ele>
        <time>2019-09-06T11:13:29Z</time>
      </trkpt>
      <trkpt lat="45.7911510" lon="6.9731382">
        <ele>1248.76</ele>
        <time>2019-09-06T12:44:58Z</time>
      </trkpt>
      <trkpt lat="45.7913091" lon="6.9731338">
        <ele>1251.69</ele>
        <time>2019-09-06T12:44:58Z</time>
      </trkpt>
      <trkpt lat="45.7913186" lon="6.9729923">
        <ele>1232.51</ele>
        <time>2019-09-06T12:45:11Z</time>
      </trkpt>
      <trkpt lat="45.7913785" lon="6.9728924">
        <ele>1230.02</ele>
        <time>2019-09-06T12:45:21Z</time>
      </trkpt>
      <trkpt lat="45.7914908" lon="6.9728843">
        <ele>1231.04</ele>
        <time>2019-09-06T12:45:29Z</time>
      </trkpt>
      <trkpt lat="45.7915755" lon="6.9728399">
        <ele>1232.21</ele>
        <time>2019-09-06T12:45:39Z</time>
      </trkpt>
      <trkpt lat="45.7916503" lon="6.9727389">
        <ele>1229.74</ele>
        <time>2019-09-06T12:45:51Z</time>
      </trkpt>
      <trkpt lat="45.7916949" lon="6.9726111">
        <ele>1229.00</ele>
        <time>2019-09-06T12:46:05Z</time>
      </trkpt>
      <trkpt lat="45.7916352" lon="6.9724901">
        <ele>1230.01</ele>
        <time>2019-09-06T12:47:09Z</time>
      </trkpt>
      <trkpt lat="45.7915702" lon="6.9723776">
        <ele>1226.34</ele>
        <time>2019-09-06T12:49:31Z</time>
      </trkpt>
      <trkpt lat="45.7916643" lon="6.9724459">
        <ele>1225.85</ele>
        <time>2019-09-06T12:50:29Z</time>
      </trkpt>
      <trkpt lat="45.7917197" lon="6.9725598">
        <ele>1225.94</ele>
        <time>2019-09-06T12:50:41Z</time>
      </trkpt>
      <trkpt lat="45.7917305" lon="6.9727051">
        <ele>1227.63</ele>
        <time>2019-09-06T12:50:49Z</time>
      </trkpt>
      <trkpt lat="45.7918030" lon="6.9728242">
        <ele>1230.52</ele>
        <time>2019-09-06T12:50:59Z</time>
      </trkpt>
      <trkpt lat="45.7919086" lon="6.9728500">
        <ele>1234.84</ele>
        <time>2019-09-06T12:51:11Z</time>
      </trkpt>
      <trkpt lat="45.7920051" lon="6.9727947">
        <ele>1235.91</ele>
        <time>2019-09-06T12:51:19Z</time>
      </trkpt>
      <trkpt lat="45.7921097" lon="6.9727871">
        <ele>1237.91</ele>
        <time>2019-09-06T12:51:27Z</time>
      </trkpt>
      <trkpt lat="45.7922164" lon="6.9727906">
        <ele>1238.93</ele>
        <time>2019-09-06T12:51:37Z</time>
      </trkpt>
      <trkpt lat="45.7923098" lon="6.9727960">
        <ele>1238.03</ele>
        <time>2019-09-06T12:51:45Z</time>
      </trkpt>
      <trkpt lat="45.7924120" lon="6.9728046">
        <ele>1237.67</ele>
        <time>2019-09-06T12:51:55Z</time>
      </trkpt>
      <trkpt lat="45.7924994" lon="6.9728420">
        <ele>1237.03</ele>
        <time>2019-09-06T12:52:05Z</time>
      </trkpt>
      <trkpt lat="45.7925880" lon="6.9729076">
        <ele>1236.16</ele>
        <time>2019-09-06T12:52:15Z</time>
      </trkpt>
      <trkpt lat="45.7926684" lon="6.9729741">
        <ele>1235.94</ele>
        <time>2019-09-06T12:52:23Z</time>
      </trkpt>
      <trkpt lat="45.7927449" lon="6.9730591">
        <ele>1235.94</ele>
        <time>2019-09-06T12:52:35Z</time>
      </trkpt>
      <trkpt lat="45.7928479" lon="6.9730636">
        <ele>1235.86</ele>
        <time>2019-09-06T12:52:43Z</time>
      </trkpt>
      <trkpt lat="45.7929461" lon="6.9731305">
        <ele>1235.94</ele>
        <time>2019-09-06T12:52:53Z</time>
      </trkpt>
      <trkpt lat="45.7930182" lon="6.9732124">
        <ele>1236.85</ele>
        <time>2019-09-06T12:53:01Z</time>
      </trkpt>
      <trkpt lat="45.7931016" lon="6.9733239">
        <ele>1238.84</ele>
        <time>2019-09-06T12:53:11Z</time>
      </trkpt>
      <trkpt lat="45.7932153" lon="6.9733697">
        <ele>1238.94</ele>
        <time>2019-09-06T12:53:19Z</time>
      </trkpt>
      <trkpt lat="45.7933026" lon="6.9734283">
        <ele>1239.93</ele>
        <time>2019-09-06T12:53:27Z</time>
      </trkpt>
      <trkpt lat="45.7934011" lon="6.9734916">
        <ele>1239.94</ele>
        <time>2019-09-06T12:53:37Z</time>
      </trkpt>
      <trkpt lat="45.7934991" lon="6.9735560">
        <ele>1239.88</ele>
        <time>2019-09-06T12:53:47Z</time>
      </trkpt>
      <trkpt lat="45.7935838" lon="6.9736199">
        <ele>1240.93</ele>
        <time>2019-09-06T12:53:55Z</time>
      </trkpt>
      <trkpt lat="45.7936848" lon="6.9736873">
        <ele>1241.93</ele>
        <time>2019-09-06T12:54:07Z</time>
      </trkpt>
      <trkpt lat="45.7937767" lon="6.9737795">
        <ele>1241.94</ele>
        <time>2019-09-06T12:54:17Z</time>
      </trkpt>
      <trkpt lat="45.7938746" lon="6.9738586">
        <ele>1242.93</ele>
        <time>2019-09-06T12:54:27Z</time>
      </trkpt>
      <trkpt lat="45.7939541" lon="6.9739344">
        <ele>1244.62</ele>
        <time>2019-09-06T12:54:37Z</time>
      </trkpt>
      <trkpt lat="45.7940581" lon="6.9739791">
        <ele>1245.64</ele>
        <time>2019-09-06T12:54:47Z</time>
      </trkpt>
      <trkpt lat="45.7941638" lon="6.9740022">
        <ele>1244.06</ele>
        <time>2019-09-06T12:54:55Z</time>
      </trkpt>
      <trkpt lat="45.7942515" lon="6.9740742">
        <ele>1243.24</ele>
        <time>2019-09-06T12:55:03Z</time>
      </trkpt>
      <trkpt lat="45.7943401" lon="6.9740309">
        <ele>1242.94</ele>
        <time>2019-09-06T12:55:11Z</time>
      </trkpt>
      <trkpt lat="45.7944125" lon="6.9739190">
        <ele>1242.24</ele>
        <time>2019-09-06T12:55:19Z</time>
      </trkpt>
      <trkpt lat="45.7944975" lon="6.9739725">
        <ele>1241.94</ele>
        <time>2019-09-06T12:55:27Z</time>
      </trkpt>
      <trkpt lat="45.7945348" lon="6.9740967">
        <ele>1243.63</ele>
        <time>2019-09-06T12:55:37Z</time>
      </trkpt>
      <trkpt lat="45.7946213" lon="6.9741747">
        <ele>1243.94</ele>
        <time>2019-09-06T12:55:47Z</time>
      </trkpt>
      <trkpt lat="45.7947281" lon="6.9742241">
        <ele>1243.94</ele>
        <time>2019-09-06T12:55:57Z</time>
      </trkpt>
      <trkpt lat="45.7948188" lon="6.9742930">
        <ele>1243.94</ele>
        <time>2019-09-06T12:56:05Z</time>
      </trkpt>
      <trkpt lat="45.7949039" lon="6.9743420">
        <ele>1243.94</ele>
        <time>2019-09-06T12:56:13Z</time>
      </trkpt>
      <trkpt lat="45.7949929" lon="6.9744121">
        <ele>1243.94</ele>
        <time>2019-09-06T12:56:23Z</time>
      </trkpt>
      <trkpt lat="45.7950836" lon="6.9744944">
        <ele>1244.92</ele>
        <time>2019-09-06T12:56:33Z</time>
      </trkpt>
      <trkpt lat="45.7951731" lon="6.9745745">
        <ele>1245.91</ele>
        <time>2019-09-06T12:56:43Z</time>
      </trkpt>
      <trkpt lat="45.7952594" lon="6.9746519">
        <ele>1246.64</ele>
        <time>2019-09-06T12:56:51Z</time>
      </trkpt>
      <trkpt lat="45.7953457" lon="6.9747468">
        <ele>1248.91</ele>
        <time>2019-09-06T12:57:01Z</time>
      </trkpt>
      <trkpt lat="45.7954406" lon="6.9747636">
        <ele>1249.62</ele>
        <time>2019-09-06T12:57:09Z</time>
      </trkpt>
      <trkpt lat="45.7955365" lon="6.9747932">
        <ele>1250.83</ele>
        <time>2019-09-06T12:57:17Z</time>
      </trkpt>
      <trkpt lat="45.7956270" lon="6.9748368">
        <ele>1250.94</ele>
        <time>2019-09-06T12:57:25Z</time>
      </trkpt>
      <trkpt lat="45.7957246" lon="6.9748658">
        <ele>1251.85</ele>
        <time>2019-09-06T12:57:33Z</time>
      </trkpt>
      <trkpt lat="45.7958231" lon="6.9748989">
        <ele>1252.93</ele>
        <time>2019-09-06T12:57:41Z</time>
      </trkpt>
      <trkpt lat="45.7959095" lon="6.9749515">
        <ele>1255.61</ele>
        <time>2019-09-06T12:57:51Z</time>
      </trkpt>
      <trkpt lat="45.7960110" lon="6.9750125">
        <ele>1256.64</ele>
        <time>2019-09-06T12:58:01Z</time>
      </trkpt>
      <trkpt lat="45.7961043" lon="6.9750906">
        <ele>1258.82</ele>
        <time>2019-09-06T12:58:11Z</time>
      </trkpt>
      <trkpt lat="45.7961977" lon="6.9751554">
        <ele>1260.63</ele>
        <time>2019-09-06T12:58:21Z</time>
      </trkpt>
      <trkpt lat="45.7962847" lon="6.9752360">
        <ele>1261.85</ele>
        <time>2019-09-06T12:58:31Z</time>
      </trkpt>
      <trkpt lat="45.7963933" lon="6.9752849">
        <ele>1263.63</ele>
        <time>2019-09-06T12:58:39Z</time>
      </trkpt>
      <trkpt lat="45.7964890" lon="6.9753234">
        <ele>1264.94</ele>
        <time>2019-09-06T12:58:49Z</time>
      </trkpt>
      <trkpt lat="45.7965729" lon="6.9753795">
        <ele>1265.91</ele>
        <time>2019-09-06T12:58:57Z</time>
      </trkpt>
      <trkpt lat="45.7966623" lon="6.9754046">
        <ele>1266.64</ele>
        <time>2019-09-06T12:59:05Z</time>
      </trkpt>
      <trkpt lat="45.7967541" lon="6.9754558">
        <ele>1266.92</ele>
        <time>2019-09-06T12:59:15Z</time>
      </trkpt>
      <trkpt lat="45.7968401" lon="6.9754987">
        <ele>1267.85</ele>
        <time>2019-09-06T12:59:23Z</time>
      </trkpt>
      <trkpt lat="45.7969087" lon="6.9755858">
        <ele>1268.93</ele>
        <time>2019-09-06T12:59:31Z</time>
      </trkpt>
      <trkpt lat="45.7970127" lon="6.9756215">
        <ele>1269.64</ele>
        <time>2019-09-06T12:59:41Z</time>
      </trkpt>
      <trkpt lat="45.7971191" lon="6.9756680">
        <ele>1269.94</ele>
        <time>2019-09-06T12:59:51Z</time>
      </trkpt>
      <trkpt lat="45.7972121" lon="6.9757032">
        <ele>1271.64</ele>
        <time>2019-09-06T13:00:01Z</time>
      </trkpt>
      <trkpt lat="45.7973105" lon="6.9757512">
        <ele>1272.64</ele>
        <time>2019-09-06T13:00:11Z</time>
      </trkpt>
      <trkpt lat="45.7974039" lon="6.9758085">
        <ele>1272.94</ele>
        <time>2019-09-06T13:00:21Z</time>
      </trkpt>
      <trkpt lat="45.7974929" lon="6.9758858">
        <ele>1271.97</ele>
        <time>2019-09-06T13:00:31Z</time>
      </trkpt>
      <trkpt lat="45.7975775" lon="6.9759618">
        <ele>1279.45</ele>
        <time>2019-09-06T13:00:43Z</time>
      </trkpt>
      <trkpt lat="45.7976477" lon="6.9760432">
        <ele>1281.84</ele>
        <time>2019-09-06T13:00:53Z</time>
      </trkpt>
      <trkpt lat="45.7977108" lon="6.9761655">
        <ele>1283.64</ele>
        <time>2019-09-06T13:01:05Z</time>
      </trkpt>
      <trkpt lat="45.7977645" lon="6.9762882">
        <ele>1285.15</ele>
        <time>2019-09-06T13:01:15Z</time>
      </trkpt>
      <trkpt lat="45.7978166" lon="6.9763989">
        <ele>1284.73</ele>
        <time>2019-09-06T13:01:25Z</time>
      </trkpt>
      <trkpt lat="45.7978635" lon="6.9765136">
        <ele>1285.79</ele>
        <time>2019-09-06T13:01:33Z</time>
      </trkpt>
      <trkpt lat="45.7979294" lon="6.9766170">
        <ele>1285.26</ele>
        <time>2019-09-06T13:01:41Z</time>
      </trkpt>
      <trkpt lat="45.7980148" lon="6.9767041">
        <ele>1287.14</ele>
        <time>2019-09-06T13:01:51Z</time>
      </trkpt>
      <trkpt lat="45.7980658" lon="6.9768190">
        <ele>1288.95</ele>
        <time>2019-09-06T13:02:01Z</time>
      </trkpt>
      <trkpt lat="45.7981458" lon="6.9768814">
        <ele>1286.03</ele>
        <time>2019-09-06T13:02:29Z</time>
      </trkpt>
      <trkpt lat="45.7982128" lon="6.9769813">
        <ele>1290.85</ele>
        <time>2019-09-06T13:05:41Z</time>
      </trkpt>
      <trkpt lat="45.7982942" lon="6.9770805">
        <ele>1292.34</ele>
        <time>2019-09-06T13:05:51Z</time>
      </trkpt>
      <trkpt lat="45.7983665" lon="6.9771909">
        <ele>1293.85</ele>
        <time>2019-09-06T13:06:01Z</time>
      </trkpt>
      <trkpt lat="45.7984435" lon="6.9772881">
        <ele>1293.94</ele>
        <time>2019-09-06T13:06:13Z</time>
      </trkpt>
      <trkpt lat="45.7985273" lon="6.9773885">
        <ele>1293.24</ele>
        <time>2019-09-06T13:06:25Z</time>
      </trkpt>
      <trkpt lat="45.7986161" lon="6.9774761">
        <ele>1293.95</ele>
        <time>2019-09-06T13:06:37Z</time>
      </trkpt>
      <trkpt lat="45.7987129" lon="6.9775514">
        <ele>1295.63</ele>
        <time>2019-09-06T13:06:47Z</time>
      </trkpt>
      <trkpt lat="45.7987712" lon="6.9776637">
        <ele>1296.85</ele>
        <time>2019-09-06T13:06:57Z</time>
      </trkpt>
      <trkpt lat="45.7988480" lon="6.9777657">
        <ele>1297.15</ele>
        <time>2019-09-06T13:07:07Z</time>
      </trkpt>
      <trkpt lat="45.7989265" lon="6.9778363">
        <ele>1298.91</ele>
        <time>2019-09-06T13:07:17Z</time>
      </trkpt>
      <trkpt lat="45.7990090" lon="6.9779319">
        <ele>1299.85</ele>
        <time>2019-09-06T13:07:27Z</time>
      </trkpt>
      <trkpt lat="45.7990927" lon="6.9780246">
        <ele>1300.64</ele>
        <time>2019-09-06T13:07:37Z</time>
      </trkpt>
      <trkpt lat="45.7991790" lon="6.9781112">
        <ele>1301.91</ele>
        <time>2019-09-06T13:07:47Z</time>
      </trkpt>
      <trkpt lat="45.7992515" lon="6.9782130">
        <ele>1303.61</ele>
        <time>2019-09-06T13:07:57Z</time>
      </trkpt>
      <trkpt lat="45.7993080" lon="6.9783143">
        <ele>1307.88</ele>
        <time>2019-09-06T13:08:09Z</time>
      </trkpt>
      <trkpt lat="45.7993521" lon="6.9784359">
        <ele>1308.93</ele>
        <time>2019-09-06T13:08:17Z</time>
      </trkpt>
      <trkpt lat="45.7994194" lon="6.9785412">
        <ele>1310.85</ele>
        <time>2019-09-06T13:08:27Z</time>
      </trkpt>
      <trkpt lat="45.7994288" lon="6.9786708">
        <ele>1311.85</ele>
        <time>2019-09-06T13:08:35Z</time>
      </trkpt>
      <trkpt lat="45.7995030" lon="6.9787757">
        <ele>1313.91</ele>
        <time>2019-09-06T13:08:43Z</time>
      </trkpt>
      <trkpt lat="45.7995838" lon="6.9788326">
        <ele>1313.94</ele>
        <time>2019-09-06T13:08:51Z</time>
      </trkpt>
      <trkpt lat="45.7996602" lon="6.9789230">
        <ele>1314.64</ele>
        <time>2019-09-06T13:09:01Z</time>
      </trkpt>
      <trkpt lat="45.7997073" lon="6.9790439">
        <ele>1316.84</ele>
        <time>2019-09-06T13:09:13Z</time>
      </trkpt>
      <trkpt lat="45.7997798" lon="6.9791422">
        <ele>1318.85</ele>
        <time>2019-09-06T13:09:23Z</time>
      </trkpt>
      <trkpt lat="45.7998324" lon="6.9792745">
        <ele>1320.85</ele>
        <time>2019-09-06T13:09:33Z</time>
      </trkpt>
      <trkpt lat="45.7999045" lon="6.9793978">
        <ele>1322.84</ele>
        <time>2019-09-06T13:09:41Z</time>
      </trkpt>
      <trkpt lat="45.7999839" lon="6.9794627">
        <ele>1322.94</ele>
        <time>2019-09-06T13:09:49Z</time>
      </trkpt>
      <trkpt lat="45.8000589" lon="6.9795796">
        <ele>1322.94</ele>
        <time>2019-09-06T13:10:01Z</time>
      </trkpt>
      <trkpt lat="45.8001053" lon="6.9796959">
        <ele>1325.55</ele>
        <time>2019-09-06T13:10:11Z</time>
      </trkpt>
      <trkpt lat="45.8001656" lon="6.9798223">
        <ele>1327.21</ele>
        <time>2019-09-06T13:10:23Z</time>
      </trkpt>
      <trkpt lat="45.8002384" lon="6.9799313">
        <ele>1328.64</ele>
        <time>2019-09-06T13:10:33Z</time>
      </trkpt>
      <trkpt lat="45.8003282" lon="6.9799941">
        <ele>1328.94</ele>
        <time>2019-09-06T13:10:43Z</time>
      </trkpt>
      <trkpt lat="45.8004117" lon="6.9800723">
        <ele>1328.97</ele>
        <time>2019-09-06T13:10:53Z</time>
      </trkpt>
      <trkpt lat="45.8004445" lon="6.9802181">
        <ele>1330.84</ele>
        <time>2019-09-06T13:11:03Z</time>
      </trkpt>
      <trkpt lat="45.8005033" lon="6.9803160">
        <ele>1331.85</ele>
        <time>2019-09-06T13:11:11Z</time>
      </trkpt>
      <trkpt lat="45.8005988" lon="6.9803709">
        <ele>1331.95</ele>
        <time>2019-09-06T13:11:21Z</time>
      </trkpt>
      <trkpt lat="45.8006867" lon="6.9804522">
        <ele>1332.71</ele>
        <time>2019-09-06T13:11:29Z</time>
      </trkpt>
      <trkpt lat="45.8007369" lon="6.9805661">
        <ele>1332.94</ele>
        <time>2019-09-06T13:11:37Z</time>
      </trkpt>
      <trkpt lat="45.8008204" lon="6.9806627">
        <ele>1334.63</ele>
        <time>2019-09-06T13:11:47Z</time>
      </trkpt>
      <trkpt lat="45.8008854" lon="6.9807697">
        <ele>1334.94</ele>
        <time>2019-09-06T13:11:57Z</time>
      </trkpt>
      <trkpt lat="45.8009193" lon="6.9808934">
        <ele>1335.92</ele>
        <time>2019-09-06T13:12:07Z</time>
      </trkpt>
      <trkpt lat="45.8009169" lon="6.9810249">
        <ele>1338.64</ele>
        <time>2019-09-06T13:12:23Z</time>
      </trkpt>
      <trkpt lat="45.8009324" lon="6.9811783">
        <ele>1339.93</ele>
        <time>2019-09-06T13:12:33Z</time>
      </trkpt>
      <trkpt lat="45.8009584" lon="6.9813328">
        <ele>1339.94</ele>
        <time>2019-09-06T13:12:45Z</time>
      </trkpt>
      <trkpt lat="45.8009441" lon="6.9814656">
        <ele>1339.94</ele>
        <time>2019-09-06T13:12:53Z</time>
      </trkpt>
      <trkpt lat="45.8009577" lon="6.9815943">
        <ele>1339.94</ele>
        <time>2019-09-06T13:13:01Z</time>
      </trkpt>
      <trkpt lat="45.8009926" lon="6.9817294">
        <ele>1341.63</ele>
        <time>2019-09-06T13:13:13Z</time>
      </trkpt>
      <trkpt lat="45.8009809" lon="6.9818724">
        <ele>1341.92</ele>
        <time>2019-09-06T13:13:25Z</time>
      </trkpt>
      <trkpt lat="45.8009785" lon="6.9820155">
        <ele>1342.94</ele>
        <time>2019-09-06T13:13:35Z</time>
      </trkpt>
      <trkpt lat="45.8009470" lon="6.9821421">
        <ele>1343.92</ele>
        <time>2019-09-06T13:13:45Z</time>
      </trkpt>
      <trkpt lat="45.8008729" lon="6.9822401">
        <ele>1345.84</ele>
        <time>2019-09-06T13:13:53Z</time>
      </trkpt>
      <trkpt lat="45.8008254" lon="6.9823555">
        <ele>1347.89</ele>
        <time>2019-09-06T13:14:03Z</time>
      </trkpt>
      <trkpt lat="45.8007675" lon="6.9824553">
        <ele>1349.64</ele>
        <time>2019-09-06T13:14:13Z</time>
      </trkpt>
      <trkpt lat="45.8006972" lon="6.9825908">
        <ele>1350.23</ele>
        <time>2019-09-06T13:14:23Z</time>
      </trkpt>
      <trkpt lat="45.8006304" lon="6.9827254">
        <ele>1349.94</ele>
        <time>2019-09-06T13:14:31Z</time>
      </trkpt>
      <trkpt lat="45.8006356" lon="6.9828639">
        <ele>1350.92</ele>
        <time>2019-09-06T13:14:39Z</time>
      </trkpt>
      <trkpt lat="45.8006577" lon="6.9830073">
        <ele>1351.92</ele>
        <time>2019-09-06T13:14:49Z</time>
      </trkpt>
      <trkpt lat="45.8006671" lon="6.9831509">
        <ele>1353.84</ele>
        <time>2019-09-06T13:14:59Z</time>
      </trkpt>
      <trkpt lat="45.8007033" lon="6.9832951">
        <ele>1355.63</ele>
        <time>2019-09-06T13:15:09Z</time>
      </trkpt>
      <trkpt lat="45.8007354" lon="6.9834435">
        <ele>1358.82</ele>
        <time>2019-09-06T13:15:21Z</time>
      </trkpt>
      <trkpt lat="45.8007778" lon="6.9835644">
        <ele>1359.64</ele>
        <time>2019-09-06T13:15:29Z</time>
      </trkpt>
      <trkpt lat="45.8008268" lon="6.9837036">
        <ele>1360.91</ele>
        <time>2019-09-06T13:15:39Z</time>
      </trkpt>
      <trkpt lat="45.8008644" lon="6.9838331">
        <ele>1363.61</ele>
        <time>2019-09-06T13:15:51Z</time>
      </trkpt>
      <trkpt lat="45.8008712" lon="6.9839675">
        <ele>1365.82</ele>
        <time>2019-09-06T13:16:01Z</time>
      </trkpt>
      <trkpt lat="45.8008961" lon="6.9840977">
        <ele>1367.85</ele>
        <time>2019-09-06T13:16:13Z</time>
      </trkpt>
      <trkpt lat="45.8009071" lon="6.9842279">
        <ele>1370.61</ele>
        <time>2019-09-06T13:16:23Z</time>
      </trkpt>
      <trkpt lat="45.8009393" lon="6.9843611">
        <ele>1371.93</ele>
        <time>2019-09-06T13:16:35Z</time>
      </trkpt>
      <trkpt lat="45.8009872" lon="6.9844755">
        <ele>1374.55</ele>
        <time>2019-09-06T13:16:45Z</time>
      </trkpt>
      <trkpt lat="45.8010563" lon="6.9845830">
        <ele>1377.61</ele>
        <time>2019-09-06T13:16:57Z</time>
      </trkpt>
      <trkpt lat="45.8011120" lon="6.9846909">
        <ele>1378.85</ele>
        <time>2019-09-06T13:17:07Z</time>
      </trkpt>
      <trkpt lat="45.8012010" lon="6.9847579">
        <ele>1380.84</ele>
        <time>2019-09-06T13:17:17Z</time>
      </trkpt>
      <trkpt lat="45.8012971" lon="6.9847391">
        <ele>1382.14</ele>
        <time>2019-09-06T13:17:27Z</time>
      </trkpt>
      <trkpt lat="45.8013755" lon="6.9846536">
        <ele>1382.24</ele>
        <time>2019-09-06T13:17:35Z</time>
      </trkpt>
      <trkpt lat="45.8014114" lon="6.9845181">
        <ele>1383.85</ele>
        <time>2019-09-06T13:17:43Z</time>
      </trkpt>
      <trkpt lat="45.8014345" lon="6.9843786">
        <ele>1384.64</ele>
        <time>2019-09-06T13:17:53Z</time>
      </trkpt>
      <trkpt lat="45.8014352" lon="6.9842399">
        <ele>1384.94</ele>
        <time>2019-09-06T13:18:01Z</time>
      </trkpt>
      <trkpt lat="45.8015249" lon="6.9841800">
        <ele>1387.93</ele>
        <time>2019-09-06T13:18:17Z</time>
      </trkpt>
      <trkpt lat="45.8016288" lon="6.9842216">
        <ele>1389.15</ele>
        <time>2019-09-06T13:18:29Z</time>
      </trkpt>
      <trkpt lat="45.8017219" lon="6.9842541">
        <ele>1389.87</ele>
        <time>2019-09-06T13:18:39Z</time>
      </trkpt>
      <trkpt lat="45.8018111" lon="6.9842799">
        <ele>1392.72</ele>
        <time>2019-09-06T13:18:57Z</time>
      </trkpt>
      <trkpt lat="45.8018990" lon="6.9843393">
        <ele>1393.93</ele>
        <time>2019-09-06T13:19:15Z</time>
      </trkpt>
      <trkpt lat="45.8019645" lon="6.9844359">
        <ele>1396.61</ele>
        <time>2019-09-06T13:19:33Z</time>
      </trkpt>
      <trkpt lat="45.8020090" lon="6.9845619">
        <ele>1401.61</ele>
        <time>2019-09-06T13:20:01Z</time>
      </trkpt>
      <trkpt lat="45.8020203" lon="6.9846951">
        <ele>1403.85</ele>
        <time>2019-09-06T13:20:13Z</time>
      </trkpt>
      <trkpt lat="45.8021016" lon="6.9847737">
        <ele>1403.94</ele>
        <time>2019-09-06T13:20:25Z</time>
      </trkpt>
      <trkpt lat="45.8021301" lon="6.9849075">
        <ele>1405.86</ele>
        <time>2019-09-06T13:20:43Z</time>
      </trkpt>
      <trkpt lat="45.8021843" lon="6.9850212">
        <ele>1407.64</ele>
        <time>2019-09-06T13:20:59Z</time>
      </trkpt>
      <trkpt lat="45.8022681" lon="6.9851002">
        <ele>1409.85</ele>
        <time>2019-09-06T13:21:23Z</time>
      </trkpt>
      <trkpt lat="45.8023057" lon="6.9852302">
        <ele>1411.61</ele>
        <time>2019-09-06T13:21:35Z</time>
      </trkpt>
      <trkpt lat="45.8023601" lon="6.9853608">
        <ele>1412.50</ele>
        <time>2019-09-06T13:21:53Z</time>
      </trkpt>
      <trkpt lat="45.8023842" lon="6.9854863">
        <ele>1414.93</ele>
        <time>2019-09-06T13:22:05Z</time>
      </trkpt>
      <trkpt lat="45.8023880" lon="6.9856359">
        <ele>1417.55</ele>
        <time>2019-09-06T13:22:17Z</time>
      </trkpt>
      <trkpt lat="45.8024203" lon="6.9857802">
        <ele>1420.61</ele>
        <time>2019-09-06T13:22:29Z</time>
      </trkpt>
      <trkpt lat="45.8024659" lon="6.9859043">
        <ele>1421.85</ele>
        <time>2019-09-06T13:22:41Z</time>
      </trkpt>
      <trkpt lat="45.8025315" lon="6.9860256">
        <ele>1423.65</ele>
        <time>2019-09-06T13:23:01Z</time>
      </trkpt>
      <trkpt lat="45.8026196" lon="6.9860935">
        <ele>1425.94</ele>
        <time>2019-09-06T13:23:19Z</time>
      </trkpt>
      <trkpt lat="45.8026336" lon="6.9859387">
        <ele>1428.55</ele>
        <time>2019-09-06T13:23:33Z</time>
      </trkpt>
      <trkpt lat="45.8026516" lon="6.9857980">
        <ele>1432.90</ele>
        <time>2019-09-06T13:23:45Z</time>
      </trkpt>
      <trkpt lat="45.8026958" lon="6.9856692">
        <ele>1435.63</ele>
        <time>2019-09-06T13:24:01Z</time>
      </trkpt>
      <trkpt lat="45.8027380" lon="6.9855473">
        <ele>1437.85</ele>
        <time>2019-09-06T13:24:15Z</time>
      </trkpt>
      <trkpt lat="45.8028103" lon="6.9856658">
        <ele>1441.64</ele>
        <time>2019-09-06T13:24:37Z</time>
      </trkpt>
      <trkpt lat="45.8028975" lon="6.9857432">
        <ele>1441.94</ele>
        <time>2019-09-06T13:24:47Z</time>
      </trkpt>
      <trkpt lat="45.8029644" lon="6.9858420">
        <ele>1443.61</ele>
        <time>2019-09-06T13:24:59Z</time>
      </trkpt>
      <trkpt lat="45.8029218" lon="6.9859737">
        <ele>1446.84</ele>
        <time>2019-09-06T13:25:15Z</time>
      </trkpt>
      <trkpt lat="45.8029533" lon="6.9860994">
        <ele>1448.93</ele>
        <time>2019-09-06T13:25:31Z</time>
      </trkpt>
      <trkpt lat="45.8029202" lon="6.9862265">
        <ele>1450.14</ele>
        <time>2019-09-06T13:25:43Z</time>
      </trkpt>
      <trkpt lat="45.8029112" lon="6.9863583">
        <ele>1454.85</ele>
        <time>2019-09-06T13:26:03Z</time>
      </trkpt>
      <trkpt lat="45.8029464" lon="6.9864774">
        <ele>1454.03</ele>
        <time>2019-09-06T13:26:17Z</time>
      </trkpt>
      <trkpt lat="45.8029641" lon="6.9866094">
        <ele>1454.92</ele>
        <time>2019-09-06T13:26:27Z</time>
      </trkpt>
      <trkpt lat="45.8029579" lon="6.9867559">
        <ele>1455.94</ele>
        <time>2019-09-06T13:26:41Z</time>
      </trkpt>
      <trkpt lat="45.8030176" lon="6.9868832">
        <ele>1455.33</ele>
        <time>2019-09-06T13:26:51Z</time>
      </trkpt>
      <trkpt lat="45.8031042" lon="6.9869373">
        <ele>1455.85</ele>
        <time>2019-09-06T13:27:01Z</time>
      </trkpt>
      <trkpt lat="45.8030929" lon="6.9868011">
        <ele>1460.55</ele>
        <time>2019-09-06T13:27:23Z</time>
      </trkpt>
      <trkpt lat="45.8031230" lon="6.9866687">
        <ele>1461.64</ele>
        <time>2019-09-06T13:27:35Z</time>
      </trkpt>
      <trkpt lat="45.8032161" lon="6.9866640">
        <ele>1462.91</ele>
        <time>2019-09-06T13:27:45Z</time>
      </trkpt>
      <trkpt lat="45.8032908" lon="6.9865795">
        <ele>1467.84</ele>
        <time>2019-09-06T13:27:59Z</time>
      </trkpt>
      <trkpt lat="45.8033559" lon="6.9864862">
        <ele>1469.63</ele>
        <time>2019-09-06T13:28:11Z</time>
      </trkpt>
      <trkpt lat="45.8034356" lon="6.9864026">
        <ele>1472.61</ele>
        <time>2019-09-06T13:28:25Z</time>
      </trkpt>
      <trkpt lat="45.8035131" lon="6.9862983">
        <ele>1475.84</ele>
        <time>2019-09-06T13:28:39Z</time>
      </trkpt>
      <trkpt lat="45.8035296" lon="6.9861605">
        <ele>1481.61</ele>
        <time>2019-09-06T13:28:59Z</time>
      </trkpt>
      <trkpt lat="45.8036132" lon="6.9860979">
        <ele>1482.85</ele>
        <time>2019-09-06T13:29:13Z</time>
      </trkpt>
      <trkpt lat="45.8036765" lon="6.9862205">
        <ele>1483.00</ele>
        <time>2019-09-06T13:29:25Z</time>
      </trkpt>
      <trkpt lat="45.8037201" lon="6.9863364">
        <ele>1484.63</ele>
        <time>2019-09-06T13:29:39Z</time>
      </trkpt>
      <trkpt lat="45.8037709" lon="6.9864618">
        <ele>1490.84</ele>
        <time>2019-09-06T13:30:05Z</time>
      </trkpt>
      <trkpt lat="45.8038663" lon="6.9864087">
        <ele>1491.94</ele>
        <time>2019-09-06T13:30:19Z</time>
      </trkpt>
      <trkpt lat="45.8038561" lon="6.9862495">
        <ele>1495.59</ele>
        <time>2019-09-06T13:30:33Z</time>
      </trkpt>
      <trkpt lat="45.8039156" lon="6.9861392">
        <ele>1502.89</ele>
        <time>2019-09-06T13:31:01Z</time>
      </trkpt>
      <trkpt lat="45.8039517" lon="6.9862590">
        <ele>1508.81</ele>
        <time>2019-09-06T13:31:19Z</time>
      </trkpt>
      <trkpt lat="45.8039642" lon="6.9864044">
        <ele>1510.63</ele>
        <time>2019-09-06T13:31:31Z</time>
      </trkpt>
      <trkpt lat="45.8040607" lon="6.9863379">
        <ele>1515.81</ele>
        <time>2019-09-06T13:31:55Z</time>
      </trkpt>
      <trkpt lat="45.8041556" lon="6.9863432">
        <ele>1515.35</ele>
        <time>2019-09-06T13:32:17Z</time>
      </trkpt>
      <trkpt lat="45.8042321" lon="6.9864192">
        <ele>1518.94</ele>
        <time>2019-09-06T13:32:33Z</time>
      </trkpt>
      <trkpt lat="45.8042677" lon="6.9865494">
        <ele>1518.71</ele>
        <time>2019-09-06T13:32:47Z</time>
      </trkpt>
      <trkpt lat="45.8043515" lon="6.9866148">
        <ele>1519.92</ele>
        <time>2019-09-06T13:33:03Z</time>
      </trkpt>
      <trkpt lat="45.8044386" lon="6.9865564">
        <ele>1520.93</ele>
        <time>2019-09-06T13:33:15Z</time>
      </trkpt>
      <trkpt lat="45.8044587" lon="6.9864257">
        <ele>1521.85</ele>
        <time>2019-09-06T13:33:25Z</time>
      </trkpt>
      <trkpt lat="45.8044583" lon="6.9862931">
        <ele>1524.53</ele>
        <time>2019-09-06T13:33:37Z</time>
      </trkpt>
      <trkpt lat="45.8045528" lon="6.9863055">
        <ele>1527.85</ele>
        <time>2019-09-06T13:34:03Z</time>
      </trkpt>
      <trkpt lat="45.8046394" lon="6.9863661">
        <ele>1529.85</ele>
        <time>2019-09-06T13:34:27Z</time>
      </trkpt>
      <trkpt lat="45.8046882" lon="6.9864844">
        <ele>1531.91</ele>
        <time>2019-09-06T13:34:41Z</time>
      </trkpt>
      <trkpt lat="45.8047804" lon="6.9865214">
        <ele>1537.82</ele>
        <time>2019-09-06T13:35:13Z</time>
      </trkpt>
      <trkpt lat="45.8048422" lon="6.9864230">
        <ele>1541.61</ele>
        <time>2019-09-06T13:35:31Z</time>
      </trkpt>
      <trkpt lat="45.8049053" lon="6.9863166">
        <ele>1542.93</ele>
        <time>2019-09-06T13:35:45Z</time>
      </trkpt>
      <trkpt lat="45.8049024" lon="6.9861711">
        <ele>1546.91</ele>
        <time>2019-09-06T13:36:01Z</time>
      </trkpt>
      <trkpt lat="45.8049303" lon="6.9860452">
        <ele>1549.64</ele>
        <time>2019-09-06T13:36:15Z</time>
      </trkpt>
      <trkpt lat="45.8049067" lon="6.9859051">
        <ele>1550.92</ele>
        <time>2019-09-06T13:36:31Z</time>
      </trkpt>
      <trkpt lat="45.8048263" lon="6.9858358">
        <ele>1555.61</ele>
        <time>2019-09-06T13:36:49Z</time>
      </trkpt>
      <trkpt lat="45.8048238" lon="6.9856871">
        <ele>1557.85</ele>
        <time>2019-09-06T13:37:03Z</time>
      </trkpt>
      <trkpt lat="45.8047946" lon="6.9855543">
        <ele>1560.63</ele>
        <time>2019-09-06T13:37:19Z</time>
      </trkpt>
      <trkpt lat="45.8048258" lon="6.9854229">
        <ele>1561.94</ele>
        <time>2019-09-06T13:37:37Z</time>
      </trkpt>
      <trkpt lat="45.8048389" lon="6.9852887">
        <ele>1564.84</ele>
        <time>2019-09-06T13:37:53Z</time>
      </trkpt>
      <trkpt lat="45.8047952" lon="6.9851743">
        <ele>1566.85</ele>
        <time>2019-09-06T13:38:13Z</time>
      </trkpt>
      <trkpt lat="45.8048353" lon="6.9850577">
        <ele>1568.85</ele>
        <time>2019-09-06T13:38:31Z</time>
      </trkpt>
      <trkpt lat="45.8049025" lon="6.9849501">
        <ele>1571.70</ele>
        <time>2019-09-06T13:38:49Z</time>
      </trkpt>
      <trkpt lat="45.8049510" lon="6.9848201">
        <ele>1574.84</ele>
        <time>2019-09-06T13:39:03Z</time>
      </trkpt>
      <trkpt lat="45.8049662" lon="6.9846789">
        <ele>1577.61</ele>
        <time>2019-09-06T13:39:19Z</time>
      </trkpt>
      <trkpt lat="45.8049743" lon="6.9845370">
        <ele>1581.85</ele>
        <time>2019-09-06T13:39:41Z</time>
      </trkpt>
      <trkpt lat="45.8050093" lon="6.9844138">
        <ele>1585.64</ele>
        <time>2019-09-06T13:39:59Z</time>
      </trkpt>
      <trkpt lat="45.8050379" lon="6.9842850">
        <ele>1587.93</ele>
        <time>2019-09-06T13:40:15Z</time>
      </trkpt>
      <trkpt lat="45.8050768" lon="6.9841606">
        <ele>1589.83</ele>
        <time>2019-09-06T13:40:27Z</time>
      </trkpt>
      <trkpt lat="45.8051276" lon="6.9840477">
        <ele>1586.24</ele>
        <time>2019-09-06T13:40:43Z</time>
      </trkpt>
      <trkpt lat="45.8051881" lon="6.9839437">
        <ele>1592.82</ele>
        <time>2019-09-06T13:41:05Z</time>
      </trkpt>
      <trkpt lat="45.8052164" lon="6.9838163">
        <ele>1597.55</ele>
        <time>2019-09-06T13:41:25Z</time>
      </trkpt>
      <trkpt lat="45.8051961" lon="6.9836883">
        <ele>1601.61</ele>
        <time>2019-09-06T13:41:45Z</time>
      </trkpt>
      <trkpt lat="45.8052469" lon="6.9838167">
        <ele>1605.82</ele>
        <time>2019-09-06T13:42:05Z</time>
      </trkpt>
      <trkpt lat="45.8052686" lon="6.9839495">
        <ele>1607.62</ele>
        <time>2019-09-06T13:42:19Z</time>
      </trkpt>
      <trkpt lat="45.8053195" lon="6.9840666">
        <ele>1610.84</ele>
        <time>2019-09-06T13:42:33Z</time>
      </trkpt>
      <trkpt lat="45.8053757" lon="6.9841727">
        <ele>1614.91</ele>
        <time>2019-09-06T13:42:51Z</time>
      </trkpt>
      <trkpt lat="45.8054389" lon="6.9842940">
        <ele>1616.93</ele>
        <time>2019-09-06T13:43:03Z</time>
      </trkpt>
      <trkpt lat="45.8054712" lon="6.9844212">
        <ele>1620.63</ele>
        <time>2019-09-06T13:43:21Z</time>
      </trkpt>
      <trkpt lat="45.8055474" lon="6.9845110">
        <ele>1626.76</ele>
        <time>2019-09-06T13:43:43Z</time>
      </trkpt>
      <trkpt lat="45.8055713" lon="6.9846390">
        <ele>1629.61</ele>
        <time>2019-09-06T13:43:59Z</time>
      </trkpt>
      <trkpt lat="45.8056261" lon="6.9847465">
        <ele>1634.54</ele>
        <time>2019-09-06T13:44:17Z</time>
      </trkpt>
      <trkpt lat="45.8057234" lon="6.9846958">
        <ele>1636.94</ele>
        <time>2019-09-06T13:44:37Z</time>
      </trkpt>
      <trkpt lat="45.8057917" lon="6.9846086">
        <ele>1639.85</ele>
        <time>2019-09-06T13:44:53Z</time>
      </trkpt>
      <trkpt lat="45.8058412" lon="6.9847205">
        <ele>1641.64</ele>
        <time>2019-09-06T13:45:13Z</time>
      </trkpt>
      <trkpt lat="45.8058598" lon="6.9848578">
        <ele>1646.64</ele>
        <time>2019-09-06T13:45:37Z</time>
      </trkpt>
      <trkpt lat="45.8059127" lon="6.9847373">
        <ele>1648.92</ele>
        <time>2019-09-06T13:45:59Z</time>
      </trkpt>
      <trkpt lat="45.8059336" lon="6.9845906">
        <ele>1650.94</ele>
        <time>2019-09-06T13:46:15Z</time>
      </trkpt>
      <trkpt lat="45.8059404" lon="6.9844496">
        <ele>1653.91</ele>
        <time>2019-09-06T13:46:33Z</time>
      </trkpt>
      <trkpt lat="45.8059732" lon="6.9843191">
        <ele>1655.91</ele>
        <time>2019-09-06T13:46:49Z</time>
      </trkpt>
      <trkpt lat="45.8059911" lon="6.9841850">
        <ele>1662.63</ele>
        <time>2019-09-06T13:49:09Z</time>
      </trkpt>
      <trkpt lat="45.8060617" lon="6.9840747">
        <ele>1660.86</ele>
        <time>2019-09-06T13:49:27Z</time>
      </trkpt>
      <trkpt lat="45.8060779" lon="6.9839382">
        <ele>1659.62</ele>
        <time>2019-09-06T13:49:43Z</time>
      </trkpt>
      <trkpt lat="45.8060962" lon="6.9837999">
        <ele>1661.73</ele>
        <time>2019-09-06T13:50:01Z</time>
      </trkpt>
      <trkpt lat="45.8061685" lon="6.9838965">
        <ele>1665.34</ele>
        <time>2019-09-06T13:50:45Z</time>
      </trkpt>
      <trkpt lat="45.8062380" lon="6.9839915">
        <ele>1668.64</ele>
        <time>2019-09-06T13:51:03Z</time>
      </trkpt>
      <trkpt lat="45.8063113" lon="6.9840820">
        <ele>1666.97</ele>
        <time>2019-09-06T13:51:15Z</time>
      </trkpt>
      <trkpt lat="45.8063981" lon="6.9841424">
        <ele>1667.92</ele>
        <time>2019-09-06T13:51:33Z</time>
      </trkpt>
      <trkpt lat="45.8064715" lon="6.9842329">
        <ele>1669.93</ele>
        <time>2019-09-06T13:51:51Z</time>
      </trkpt>
      <trkpt lat="45.8065111" lon="6.9841120">
        <ele>1669.92</ele>
        <time>2019-09-06T13:52:03Z</time>
      </trkpt>
      <trkpt lat="45.8065224" lon="6.9839744">
        <ele>1674.84</ele>
        <time>2019-09-06T13:52:23Z</time>
      </trkpt>
      <trkpt lat="45.8065193" lon="6.9838403">
        <ele>1675.21</ele>
        <time>2019-09-06T13:52:37Z</time>
      </trkpt>
      <trkpt lat="45.8065034" lon="6.9836991">
        <ele>1676.85</ele>
        <time>2019-09-06T13:52:49Z</time>
      </trkpt>
      <trkpt lat="45.8065979" lon="6.9837395">
        <ele>1678.24</ele>
        <time>2019-09-06T13:53:17Z</time>
      </trkpt>
      <trkpt lat="45.8066755" lon="6.9836687">
        <ele>1682.94</ele>
        <time>2019-09-06T13:53:45Z</time>
      </trkpt>
      <trkpt lat="45.8066586" lon="6.9835186">
        <ele>1687.52</ele>
        <time>2019-09-06T13:54:01Z</time>
      </trkpt>
      <trkpt lat="45.8066692" lon="6.9833867">
        <ele>1689.21</ele>
        <time>2019-09-06T13:54:15Z</time>
      </trkpt>
      <trkpt lat="45.8067272" lon="6.9834877">
        <ele>1689.01</ele>
        <time>2019-09-06T13:54:45Z</time>
      </trkpt>
      <trkpt lat="45.8067566" lon="6.9836269">
        <ele>1695.83</ele>
        <time>2019-09-06T13:55:01Z</time>
      </trkpt>
      <trkpt lat="45.8068304" lon="6.9835472">
        <ele>1698.93</ele>
        <time>2019-09-06T13:55:25Z</time>
      </trkpt>
      <trkpt lat="45.8068667" lon="6.9834164">
        <ele>1701.91</ele>
        <time>2019-09-06T13:55:41Z</time>
      </trkpt>
      <trkpt lat="45.8068417" lon="6.9832829">
        <ele>1702.94</ele>
        <time>2019-09-06T13:55:53Z</time>
      </trkpt>
      <trkpt lat="45.8068003" lon="6.9831679">
        <ele>1705.84</ele>
        <time>2019-09-06T13:56:05Z</time>
      </trkpt>
      <trkpt lat="45.8067419" lon="6.9830568">
        <ele>1706.87</ele>
        <time>2019-09-06T13:56:15Z</time>
      </trkpt>
      <trkpt lat="45.8066588" lon="6.9829805">
        <ele>1708.91</ele>
        <time>2019-09-06T13:56:27Z</time>
      </trkpt>
      <trkpt lat="45.8065996" lon="6.9828642">
        <ele>1709.70</ele>
        <time>2019-09-06T13:56:39Z</time>
      </trkpt>
      <trkpt lat="45.8065561" lon="6.9827512">
        <ele>1710.85</ele>
        <time>2019-09-06T13:56:51Z</time>
      </trkpt>
      <trkpt lat="45.8064795" lon="6.9826563">
        <ele>1711.94</ele>
        <time>2019-09-06T13:57:03Z</time>
      </trkpt>
      <trkpt lat="45.8064205" lon="6.9825474">
        <ele>1713.61</ele>
        <time>2019-09-06T13:57:15Z</time>
      </trkpt>
      <trkpt lat="45.8064450" lon="6.9824173">
        <ele>1714.85</ele>
        <time>2019-09-06T13:57:31Z</time>
      </trkpt>
      <trkpt lat="45.8064734" lon="6.9822942">
        <ele>1717.94</ele>
        <time>2019-09-06T13:57:53Z</time>
      </trkpt>
      <trkpt lat="45.8065014" lon="6.9821635">
        <ele>1720.85</ele>
        <time>2019-09-06T13:58:11Z</time>
      </trkpt>
      <trkpt lat="45.8065195" lon="6.9820332">
        <ele>1723.61</ele>
        <time>2019-09-06T13:58:29Z</time>
      </trkpt>
      <trkpt lat="45.8066096" lon="6.9820806">
        <ele>1733.87</ele>
        <time>2019-09-06T13:59:19Z</time>
      </trkpt>
      <trkpt lat="45.8066455" lon="6.9822107">
        <ele>1737.67</ele>
        <time>2019-09-06T13:59:35Z</time>
      </trkpt>
      <trkpt lat="45.8066982" lon="6.9823259">
        <ele>1740.94</ele>
        <time>2019-09-06T13:59:51Z</time>
      </trkpt>
      <trkpt lat="45.8067878" lon="6.9822712">
        <ele>1745.91</ele>
        <time>2019-09-06T14:00:11Z</time>
      </trkpt>
      <trkpt lat="45.8067752" lon="6.9821417">
        <ele>1748.91</ele>
        <time>2019-09-06T14:00:25Z</time>
      </trkpt>
      <trkpt lat="45.8068628" lon="6.9821790">
        <ele>1752.93</ele>
        <time>2019-09-06T14:00:49Z</time>
      </trkpt>
      <trkpt lat="45.8069131" lon="6.9822879">
        <ele>1755.91</ele>
        <time>2019-09-06T14:01:07Z</time>
      </trkpt>
      <trkpt lat="45.8069869" lon="6.9823704">
        <ele>1758.64</ele>
        <time>2019-09-06T14:01:25Z</time>
      </trkpt>
      <trkpt lat="45.8070603" lon="6.9824570">
        <ele>1760.85</ele>
        <time>2019-09-06T14:01:43Z</time>
      </trkpt>
      <trkpt lat="45.8071010" lon="6.9823294">
        <ele>1766.82</ele>
        <time>2019-09-06T14:02:05Z</time>
      </trkpt>
      <trkpt lat="45.8071366" lon="6.9822030">
        <ele>1773.91</ele>
        <time>2019-09-06T14:02:41Z</time>
      </trkpt>
      <trkpt lat="45.8071288" lon="6.9820517">
        <ele>1776.91</ele>
        <time>2019-09-06T14:02:59Z</time>
      </trkpt>
      <trkpt lat="45.8071206" lon="6.9819147">
        <ele>1781.82</ele>
        <time>2019-09-06T14:03:21Z</time>
      </trkpt>
      <trkpt lat="45.8071449" lon="6.9817880">
        <ele>1788.84</ele>
        <time>2019-09-06T14:03:59Z</time>
      </trkpt>
      <trkpt lat="45.8071881" lon="6.9816617">
        <ele>1791.93</ele>
        <time>2019-09-06T14:04:19Z</time>
      </trkpt>
      <trkpt lat="45.8072118" lon="6.9815298">
        <ele>1792.94</ele>
        <time>2019-09-06T14:04:33Z</time>
      </trkpt>
      <trkpt lat="45.8072054" lon="6.9813990">
        <ele>1794.82</ele>
        <time>2019-09-06T14:04:49Z</time>
      </trkpt>
      <trkpt lat="45.8072062" lon="6.9812645">
        <ele>1795.64</ele>
        <time>2019-09-06T14:05:05Z</time>
      </trkpt>
      <trkpt lat="45.8072033" lon="6.9811275">
        <ele>1799.91</ele>
        <time>2019-09-06T14:05:33Z</time>
      </trkpt>
      <trkpt lat="45.8071320" lon="6.9810460">
        <ele>1801.85</ele>
        <time>2019-09-06T14:05:55Z</time>
      </trkpt>
      <trkpt lat="45.8070921" lon="6.9809123">
        <ele>1803.64</ele>
        <time>2019-09-06T14:06:09Z</time>
      </trkpt>
      <trkpt lat="45.8070537" lon="6.9807774">
        <ele>1805.70</ele>
        <time>2019-09-06T14:06:23Z</time>
      </trkpt>
      <trkpt lat="45.8070443" lon="6.9806475">
        <ele>1808.84</ele>
        <time>2019-09-06T14:06:41Z</time>
      </trkpt>
      <trkpt lat="45.8069959" lon="6.9805208">
        <ele>1809.94</ele>
        <time>2019-09-06T14:06:53Z</time>
      </trkpt>
      <trkpt lat="45.8069731" lon="6.9803707">
        <ele>1811.91</ele>
        <time>2019-09-06T14:07:07Z</time>
      </trkpt>
      <trkpt lat="45.8069700" lon="6.9802334">
        <ele>1814.84</ele>
        <time>2019-09-06T14:07:23Z</time>
      </trkpt>
      <trkpt lat="45.8070154" lon="6.9803612">
        <ele>1816.85</ele>
        <time>2019-09-06T14:07:47Z</time>
      </trkpt>
      <trkpt lat="45.8070630" lon="6.9802395">
        <ele>1819.63</ele>
        <time>2019-09-06T14:08:01Z</time>
      </trkpt>
      <trkpt lat="45.8070725" lon="6.9800957">
        <ele>1820.01</ele>
        <time>2019-09-06T14:08:19Z</time>
      </trkpt>
      <trkpt lat="45.8070591" lon="6.9799537">
        <ele>1821.91</ele>
        <time>2019-09-06T14:08:35Z</time>
      </trkpt>
      <trkpt lat="45.8070756" lon="6.9798254">
        <ele>1829.94</ele>
        <time>2019-09-06T14:09:19Z</time>
      </trkpt>
      <trkpt lat="45.8070805" lon="6.9796856">
        <ele>1831.64</ele>
        <time>2019-09-06T14:09:35Z</time>
      </trkpt>
      <trkpt lat="45.8070812" lon="6.9795452">
        <ele>1834.85</ele>
        <time>2019-09-06T14:09:53Z</time>
      </trkpt>
      <trkpt lat="45.8070585" lon="6.9794170">
        <ele>1839.61</ele>
        <time>2019-09-06T14:10:13Z</time>
      </trkpt>
      <trkpt lat="45.8070625" lon="6.9792806">
        <ele>1841.88</ele>
        <time>2019-09-06T14:10:31Z</time>
      </trkpt>
      <trkpt lat="45.8070299" lon="6.9791539">
        <ele>1843.94</ele>
        <time>2019-09-06T14:10:49Z</time>
      </trkpt>
      <trkpt lat="45.8070032" lon="6.9790254">
        <ele>1845.94</ele>
        <time>2019-09-06T14:11:07Z</time>
      </trkpt>
      <trkpt lat="45.8069675" lon="6.9788981">
        <ele>1849.61</ele>
        <time>2019-09-06T14:11:25Z</time>
      </trkpt>
      <trkpt lat="45.8069787" lon="6.9787599">
        <ele>1852.94</ele>
        <time>2019-09-06T14:11:45Z</time>
      </trkpt>
      <trkpt lat="45.8070407" lon="6.9788636">
        <ele>1855.63</ele>
        <time>2019-09-06T14:12:05Z</time>
      </trkpt>
      <trkpt lat="45.8070393" lon="6.9787295">
        <ele>1858.93</ele>
        <time>2019-09-06T14:12:31Z</time>
      </trkpt>
      <trkpt lat="45.8070202" lon="6.9785959">
        <ele>1860.93</ele>
        <time>2019-09-06T14:12:45Z</time>
      </trkpt>
      <trkpt lat="45.8070823" lon="6.9784970">
        <ele>1867.85</ele>
        <time>2019-09-06T14:13:21Z</time>
      </trkpt>
      <trkpt lat="45.8070853" lon="6.9783658">
        <ele>1870.61</ele>
        <time>2019-09-06T14:13:41Z</time>
      </trkpt>
      <trkpt lat="45.8071046" lon="6.9782308">
        <ele>1873.61</ele>
        <time>2019-09-06T14:13:59Z</time>
      </trkpt>
      <trkpt lat="45.8070178" lon="6.9781583">
        <ele>1872.97</ele>
        <time>2019-09-06T14:14:13Z</time>
      </trkpt>
      <trkpt lat="45.8071172" lon="6.9781746">
        <ele>1878.97</ele>
        <time>2019-09-06T14:16:49Z</time>
      </trkpt>
      <trkpt lat="45.8071689" lon="6.9780663">
        <ele>1879.56</ele>
        <time>2019-09-06T14:17:03Z</time>
      </trkpt>
      <trkpt lat="45.8072489" lon="6.9781359">
        <ele>1881.93</ele>
        <time>2019-09-06T14:17:43Z</time>
      </trkpt>
      <trkpt lat="45.8072702" lon="6.9782615">
        <ele>1884.63</ele>
        <time>2019-09-06T14:17:59Z</time>
      </trkpt>
      <trkpt lat="45.8073523" lon="6.9781906">
        <ele>1888.64</ele>
        <time>2019-09-06T14:18:27Z</time>
      </trkpt>
      <trkpt lat="45.8073681" lon="6.9780634">
        <ele>1890.94</ele>
        <time>2019-09-06T14:18:47Z</time>
      </trkpt>
      <trkpt lat="45.8074543" lon="6.9780030">
        <ele>1893.91</ele>
        <time>2019-09-06T14:19:03Z</time>
      </trkpt>
      <trkpt lat="45.8075310" lon="6.9780898">
        <ele>1899.85</ele>
        <time>2019-09-06T14:19:45Z</time>
      </trkpt>
      <trkpt lat="45.8075744" lon="6.9782128">
        <ele>1900.94</ele>
        <time>2019-09-06T14:20:01Z</time>
      </trkpt>
      <trkpt lat="45.8075832" lon="6.9783573">
        <ele>1901.94</ele>
        <time>2019-09-06T14:20:19Z</time>
      </trkpt>
      <trkpt lat="45.8076218" lon="6.9784833">
        <ele>1902.94</ele>
        <time>2019-09-06T14:20:35Z</time>
      </trkpt>
      <trkpt lat="45.8076929" lon="6.9783877">
        <ele>1906.91</ele>
        <time>2019-09-06T14:20:55Z</time>
      </trkpt>
      <trkpt lat="45.8077781" lon="6.9783191">
        <ele>1911.90</ele>
        <time>2019-09-06T14:21:13Z</time>
      </trkpt>
      <trkpt lat="45.8078408" lon="6.9782122">
        <ele>1911.97</ele>
        <time>2019-09-06T14:21:31Z</time>
      </trkpt>
      <trkpt lat="45.8078641" lon="6.9780785">
        <ele>1913.94</ele>
        <time>2019-09-06T14:21:45Z</time>
      </trkpt>
      <trkpt lat="45.8078646" lon="6.9779459">
        <ele>1915.92</ele>
        <time>2019-09-06T14:22:07Z</time>
      </trkpt>
      <trkpt lat="45.8078205" lon="6.9778093">
        <ele>1916.93</ele>
        <time>2019-09-06T14:22:23Z</time>
      </trkpt>
      <trkpt lat="45.8078184" lon="6.9776660">
        <ele>1919.02</ele>
        <time>2019-09-06T14:22:35Z</time>
      </trkpt>
      <trkpt lat="45.8078292" lon="6.9775262">
        <ele>1922.91</ele>
        <time>2019-09-06T14:22:49Z</time>
      </trkpt>
      <trkpt lat="45.8078391" lon="6.9773920">
        <ele>1925.61</ele>
        <time>2019-09-06T14:23:07Z</time>
      </trkpt>
      <trkpt lat="45.8078882" lon="6.9772691">
        <ele>1928.85</ele>
        <time>2019-09-06T14:23:27Z</time>
      </trkpt>
      <trkpt lat="45.8079669" lon="6.9773401">
        <ele>1930.64</ele>
        <time>2019-09-06T14:23:45Z</time>
      </trkpt>
      <trkpt lat="45.8080523" lon="6.9774243">
        <ele>1931.92</ele>
        <time>2019-09-06T14:23:59Z</time>
      </trkpt>
      <trkpt lat="45.8081399" lon="6.9774918">
        <ele>1932.88</ele>
        <time>2019-09-06T14:24:11Z</time>
      </trkpt>
      <trkpt lat="45.8082252" lon="6.9775355">
        <ele>1933.85</ele>
        <time>2019-09-06T14:24:21Z</time>
      </trkpt>
      <trkpt lat="45.8083079" lon="6.9776027">
        <ele>1935.85</ele>
        <time>2019-09-06T14:24:33Z</time>
      </trkpt>
      <trkpt lat="45.8083657" lon="6.9777199">
        <ele>1937.91</ele>
        <time>2019-09-06T14:24:51Z</time>
      </trkpt>
      <trkpt lat="45.8084052" lon="6.9778431">
        <ele>1941.61</ele>
        <time>2019-09-06T14:25:07Z</time>
      </trkpt>
      <trkpt lat="45.8084238" lon="6.9779787">
        <ele>1944.14</ele>
        <time>2019-09-06T14:25:23Z</time>
      </trkpt>
      <trkpt lat="45.8084490" lon="6.9781142">
        <ele>1948.54</ele>
        <time>2019-09-06T14:25:41Z</time>
      </trkpt>
      <trkpt lat="45.8084697" lon="6.9782418">
        <ele>1952.91</ele>
        <time>2019-09-06T14:25:59Z</time>
      </trkpt>
      <trkpt lat="45.8085285" lon="6.9783476">
        <ele>1953.85</ele>
        <time>2019-09-06T14:26:19Z</time>
      </trkpt>
      <trkpt lat="45.8086194" lon="6.9783828">
        <ele>1955.91</ele>
        <time>2019-09-06T14:26:31Z</time>
      </trkpt>
      <trkpt lat="45.8087074" lon="6.9784157">
        <ele>1959.87</ele>
        <time>2019-09-06T14:26:47Z</time>
      </trkpt>
      <trkpt lat="45.8088034" lon="6.9784425">
        <ele>1960.94</ele>
        <time>2019-09-06T14:27:03Z</time>
      </trkpt>
      <trkpt lat="45.8088508" lon="6.9783126">
        <ele>1965.91</ele>
        <time>2019-09-06T14:27:37Z</time>
      </trkpt>
      <trkpt lat="45.8088788" lon="6.9782100">
        <ele>1970.94</ele>
        <time>2019-09-07T06:00:53Z</time>
      </trkpt>
      <trkpt lat="45.8848102" lon="7.0656172">
        <ele>2051.94</ele>
        <time>2019-09-07T13:18:15Z</time>
      </trkpt>
      <trkpt lat="45.8848102" lon="7.0656172">
        <ele>2051.94</ele>
        <time>2019-09-07T13:18:15Z</time>
      </trkpt>
      <trkpt lat="45.8088788" lon="6.9782100">
        <ele>1970.94</ele>
        <time>2019-09-07T06:00:54Z</time>
      </trkpt>
      <trkpt lat="45.8087589" lon="6.9782781">
        <ele>1982.84</ele>
        <time>2019-09-07T06:00:57Z</time>
      </trkpt>
      <trkpt lat="45.8088506" lon="6.9782398">
        <ele>1972.33</ele>
        <time>2019-09-07T06:02:21Z</time>
      </trkpt>
      <trkpt lat="45.8089048" lon="6.9784039">
        <ele>1970.36</ele>
        <time>2019-09-07T06:02:34Z</time>
      </trkpt>
      <trkpt lat="45.8089357" lon="6.9785337">
        <ele>1968.67</ele>
        <time>2019-09-07T06:02:44Z</time>
      </trkpt>
      <trkpt lat="45.8089276" lon="6.9786663">
        <ele>1970.89</ele>
        <time>2019-09-07T06:02:52Z</time>
      </trkpt>
      <trkpt lat="45.8089825" lon="6.9785633">
        <ele>1973.94</ele>
        <time>2019-09-07T06:03:16Z</time>
      </trkpt>
      <trkpt lat="45.8090359" lon="6.9784515">
        <ele>1973.64</ele>
        <time>2019-09-07T06:03:30Z</time>
      </trkpt>
      <trkpt lat="45.8091052" lon="6.9785528">
        <ele>1975.64</ele>
        <time>2019-09-07T06:03:42Z</time>
      </trkpt>
      <trkpt lat="45.8091806" lon="6.9786403">
        <ele>1976.93</ele>
        <time>2019-09-07T06:03:58Z</time>
      </trkpt>
      <trkpt lat="45.8092762" lon="6.9786430">
        <ele>1979.64</ele>
        <time>2019-09-07T06:04:18Z</time>
      </trkpt>
      <trkpt lat="45.8093427" lon="6.9787409">
        <ele>1982.63</ele>
        <time>2019-09-07T06:04:34Z</time>
      </trkpt>
      <trkpt lat="45.8093887" lon="6.9788633">
        <ele>1984.84</ele>
        <time>2019-09-07T06:04:50Z</time>
      </trkpt>
      <trkpt lat="45.8094626" lon="6.9787736">
        <ele>1987.64</ele>
        <time>2019-09-07T06:05:12Z</time>
      </trkpt>
      <trkpt lat="45.8094695" lon="6.9786379">
        <ele>1987.94</ele>
        <time>2019-09-07T06:05:24Z</time>
      </trkpt>
      <trkpt lat="45.8094359" lon="6.9785056">
        <ele>1989.96</ele>
        <time>2019-09-07T06:05:52Z</time>
      </trkpt>
      <trkpt lat="45.8094736" lon="6.9783754">
        <ele>1990.17</ele>
        <time>2019-09-07T06:06:06Z</time>
      </trkpt>
      <trkpt lat="45.8095620" lon="6.9783092">
        <ele>1990.71</ele>
        <time>2019-09-07T06:06:16Z</time>
      </trkpt>
      <trkpt lat="45.8096036" lon="6.9781903">
        <ele>1996.74</ele>
        <time>2019-09-07T06:07:53Z</time>
      </trkpt>
      <trkpt lat="45.8096859" lon="6.9781310">
        <ele>1995.97</ele>
        <time>2019-09-07T06:08:01Z</time>
      </trkpt>
      <trkpt lat="45.8097785" lon="6.9781343">
        <ele>1997.93</ele>
        <time>2019-09-07T06:08:19Z</time>
      </trkpt>
      <trkpt lat="45.8098045" lon="6.9782672">
        <ele>1999.94</ele>
        <time>2019-09-07T06:08:39Z</time>
      </trkpt>
      <trkpt lat="45.8098372" lon="6.9783942">
        <ele>2001.85</ele>
        <time>2019-09-07T06:08:57Z</time>
      </trkpt>
      <trkpt lat="45.8098204" lon="6.9785293">
        <ele>2004.54</ele>
        <time>2019-09-07T06:09:11Z</time>
      </trkpt>
      <trkpt lat="45.8098028" lon="6.9786673">
        <ele>2005.94</ele>
        <time>2019-09-07T06:09:23Z</time>
      </trkpt>
      <trkpt lat="45.8098146" lon="6.9788080">
        <ele>2007.94</ele>
        <time>2019-09-07T06:09:39Z</time>
      </trkpt>
      <trkpt lat="45.8098631" lon="6.9789338">
        <ele>2008.92</ele>
        <time>2019-09-07T06:09:53Z</time>
      </trkpt>
      <trkpt lat="45.8099137" lon="6.9790512">
        <ele>2009.64</ele>
        <time>2019-09-07T06:10:09Z</time>
      </trkpt>
      <trkpt lat="45.8099586" lon="6.9791731">
        <ele>2012.91</ele>
        <time>2019-09-07T06:10:23Z</time>
      </trkpt>
      <trkpt lat="45.8100515" lon="6.9791561">
        <ele>2017.84</ele>
        <time>2019-09-07T06:10:41Z</time>
      </trkpt>
      <trkpt lat="45.8101509" lon="6.9791560">
        <ele>2021.85</ele>
        <time>2019-09-07T06:11:03Z</time>
      </trkpt>
      <trkpt lat="45.8101838" lon="6.9792843">
        <ele>2026.69</ele>
        <time>2019-09-07T06:11:19Z</time>
      </trkpt>
      <trkpt lat="45.8102531" lon="6.9793799">
        <ele>2028.94</ele>
        <time>2019-09-07T06:11:37Z</time>
      </trkpt>
      <trkpt lat="45.8103232" lon="6.9794689">
        <ele>2028.94</ele>
        <time>2019-09-07T06:11:47Z</time>
      </trkpt>
      <trkpt lat="45.8103894" lon="6.9795626">
        <ele>2029.94</ele>
        <time>2019-09-07T06:12:01Z</time>
      </trkpt>
      <trkpt lat="45.8104413" lon="6.9796744">
        <ele>2034.26</ele>
        <time>2019-09-07T06:12:11Z</time>
      </trkpt>
      <trkpt lat="45.8105223" lon="6.9797458">
        <ele>2036.41</ele>
        <time>2019-09-07T06:12:34Z</time>
      </trkpt>
      <trkpt lat="45.8105659" lon="6.9798689">
        <ele>2035.26</ele>
        <time>2019-09-07T06:12:50Z</time>
      </trkpt>
      <trkpt lat="45.8106137" lon="6.9799845">
        <ele>2035.88</ele>
        <time>2019-09-07T06:13:02Z</time>
      </trkpt>
      <trkpt lat="45.8106890" lon="6.9800718">
        <ele>2038.61</ele>
        <time>2019-09-07T06:13:16Z</time>
      </trkpt>
      <trkpt lat="45.8107001" lon="6.9802067">
        <ele>2040.98</ele>
        <time>2019-09-07T06:13:30Z</time>
      </trkpt>
      <trkpt lat="45.8107743" lon="6.9802801">
        <ele>2044.91</ele>
        <time>2019-09-07T06:13:58Z</time>
      </trkpt>
      <trkpt lat="45.8108448" lon="6.9803716">
        <ele>2050.61</ele>
        <time>2019-09-07T06:14:26Z</time>
      </trkpt>
      <trkpt lat="45.8108756" lon="6.9804931">
        <ele>2054.04</ele>
        <time>2019-09-07T06:14:48Z</time>
      </trkpt>
      <trkpt lat="45.8109206" lon="6.9806097">
        <ele>2055.84</ele>
        <time>2019-09-07T06:15:16Z</time>
      </trkpt>
      <trkpt lat="45.8109607" lon="6.9807338">
        <ele>2058.94</ele>
        <time>2019-09-07T06:15:42Z</time>
      </trkpt>
      <trkpt lat="45.8110103" lon="6.9808432">
        <ele>2064.63</ele>
        <time>2019-09-07T06:16:10Z</time>
      </trkpt>
      <trkpt lat="45.8110562" lon="6.9809648">
        <ele>2068.85</ele>
        <time>2019-09-07T06:16:44Z</time>
      </trkpt>
      <trkpt lat="45.8111355" lon="6.9810498">
        <ele>2073.94</ele>
        <time>2019-09-07T06:17:16Z</time>
      </trkpt>
      <trkpt lat="45.8111955" lon="6.9811520">
        <ele>2077.94</ele>
        <time>2019-09-07T06:17:42Z</time>
      </trkpt>
      <trkpt lat="45.8112656" lon="6.9812528">
        <ele>2081.91</ele>
        <time>2019-09-07T06:18:04Z</time>
      </trkpt>
      <trkpt lat="45.8113313" lon="6.9813533">
        <ele>2082.71</ele>
        <time>2019-09-07T06:18:22Z</time>
      </trkpt>
      <trkpt lat="45.8113932" lon="6.9814495">
        <ele>2086.04</ele>
        <time>2019-09-07T06:18:46Z</time>
      </trkpt>
      <trkpt lat="45.8114544" lon="6.9813497">
        <ele>2100.03</ele>
        <time>2019-09-07T06:19:30Z</time>
      </trkpt>
      <trkpt lat="45.8114508" lon="6.9812201">
        <ele>2102.63</ele>
        <time>2019-09-07T06:19:48Z</time>
      </trkpt>
      <trkpt lat="45.8114798" lon="6.9810974">
        <ele>2105.86</ele>
        <time>2019-09-07T06:20:04Z</time>
      </trkpt>
      <trkpt lat="45.8115326" lon="6.9809753">
        <ele>2108.91</ele>
        <time>2019-09-07T06:20:24Z</time>
      </trkpt>
      <trkpt lat="45.8116241" lon="6.9809792">
        <ele>2111.95</ele>
        <time>2019-09-07T06:20:46Z</time>
      </trkpt>
      <trkpt lat="45.8116768" lon="6.9810842">
        <ele>2113.91</ele>
        <time>2019-09-07T06:21:06Z</time>
      </trkpt>
      <trkpt lat="45.8117691" lon="6.9810353">
        <ele>2117.91</ele>
        <time>2019-09-07T06:21:28Z</time>
      </trkpt>
      <trkpt lat="45.8118438" lon="6.9809558">
        <ele>2122.91</ele>
        <time>2019-09-07T06:21:50Z</time>
      </trkpt>
      <trkpt lat="45.8118971" lon="6.9808446">
        <ele>2125.92</ele>
        <time>2019-09-07T06:22:08Z</time>
      </trkpt>
      <trkpt lat="45.8119907" lon="6.9808299">
        <ele>2128.93</ele>
        <time>2019-09-07T06:22:26Z</time>
      </trkpt>
      <trkpt lat="45.8120384" lon="6.9809419">
        <ele>2133.91</ele>
        <time>2019-09-07T06:22:54Z</time>
      </trkpt>
      <trkpt lat="45.8120630" lon="6.9810677">
        <ele>2138.91</ele>
        <time>2019-09-07T06:23:26Z</time>
      </trkpt>
      <trkpt lat="45.8121499" lon="6.9811181">
        <ele>2140.94</ele>
        <time>2019-09-07T06:23:46Z</time>
      </trkpt>
      <trkpt lat="45.8122023" lon="6.9812339">
        <ele>2144.64</ele>
        <time>2019-09-07T06:24:06Z</time>
      </trkpt>
      <trkpt lat="45.8122639" lon="6.9813377">
        <ele>2148.82</ele>
        <time>2019-09-07T06:24:28Z</time>
      </trkpt>
      <trkpt lat="45.8122794" lon="6.9814692">
        <ele>2155.91</ele>
        <time>2019-09-07T06:24:54Z</time>
      </trkpt>
      <trkpt lat="45.8123486" lon="6.9815553">
        <ele>2158.64</ele>
        <time>2019-09-07T06:25:14Z</time>
      </trkpt>
      <trkpt lat="45.8124165" lon="6.9816584">
        <ele>2161.63</ele>
        <time>2019-09-07T06:25:34Z</time>
      </trkpt>
      <trkpt lat="45.8124876" lon="6.9817455">
        <ele>2163.94</ele>
        <time>2019-09-07T06:25:52Z</time>
      </trkpt>
      <trkpt lat="45.8125778" lon="6.9817962">
        <ele>2166.61</ele>
        <time>2019-09-07T06:26:12Z</time>
      </trkpt>
      <trkpt lat="45.8126596" lon="6.9818674">
        <ele>2168.94</ele>
        <time>2019-09-07T06:26:30Z</time>
      </trkpt>
      <trkpt lat="45.8127066" lon="6.9819776">
        <ele>2172.61</ele>
        <time>2019-09-07T06:26:48Z</time>
      </trkpt>
      <trkpt lat="45.8127567" lon="6.9820929">
        <ele>2175.85</ele>
        <time>2019-09-07T06:27:08Z</time>
      </trkpt>
      <trkpt lat="45.8127944" lon="6.9822233">
        <ele>2180.64</ele>
        <time>2019-09-07T06:27:28Z</time>
      </trkpt>
      <trkpt lat="45.8128558" lon="6.9823344">
        <ele>2184.91</ele>
        <time>2019-09-07T06:27:46Z</time>
      </trkpt>
      <trkpt lat="45.8129255" lon="6.9824324">
        <ele>2186.93</ele>
        <time>2019-09-07T06:28:04Z</time>
      </trkpt>
      <trkpt lat="45.8129995" lon="6.9825275">
        <ele>2188.85</ele>
        <time>2019-09-07T06:28:22Z</time>
      </trkpt>
      <trkpt lat="45.8130685" lon="6.9826238">
        <ele>2190.91</ele>
        <time>2019-09-07T06:28:38Z</time>
      </trkpt>
      <trkpt lat="45.8131376" lon="6.9827158">
        <ele>2194.92</ele>
        <time>2019-09-07T06:28:58Z</time>
      </trkpt>
      <trkpt lat="45.8131902" lon="6.9828311">
        <ele>2197.64</ele>
        <time>2019-09-07T06:29:14Z</time>
      </trkpt>
      <trkpt lat="45.8132641" lon="6.9829184">
        <ele>2201.84</ele>
        <time>2019-09-07T06:29:32Z</time>
      </trkpt>
      <trkpt lat="45.8133440" lon="6.9829953">
        <ele>2206.06</ele>
        <time>2019-09-07T06:29:50Z</time>
      </trkpt>
      <trkpt lat="45.8134313" lon="6.9830401">
        <ele>2208.91</ele>
        <time>2019-09-07T06:30:08Z</time>
      </trkpt>
      <trkpt lat="45.8135093" lon="6.9831123">
        <ele>2210.85</ele>
        <time>2019-09-07T06:30:28Z</time>
      </trkpt>
      <trkpt lat="45.8135944" lon="6.9831799">
        <ele>2213.63</ele>
        <time>2019-09-07T06:30:44Z</time>
      </trkpt>
      <trkpt lat="45.8136880" lon="6.9832398">
        <ele>2216.82</ele>
        <time>2019-09-07T06:31:00Z</time>
      </trkpt>
      <trkpt lat="45.8137703" lon="6.9833137">
        <ele>2219.93</ele>
        <time>2019-09-07T06:31:24Z</time>
      </trkpt>
      <trkpt lat="45.8138469" lon="6.9834052">
        <ele>2223.82</ele>
        <time>2019-09-07T06:31:38Z</time>
      </trkpt>
      <trkpt lat="45.8139231" lon="6.9834965">
        <ele>2226.61</ele>
        <time>2019-09-07T06:31:50Z</time>
      </trkpt>
      <trkpt lat="45.8140071" lon="6.9835793">
        <ele>2226.94</ele>
        <time>2019-09-07T06:32:02Z</time>
      </trkpt>
      <trkpt lat="45.8140973" lon="6.9835766">
        <ele>2234.28</ele>
        <time>2019-09-07T06:32:32Z</time>
      </trkpt>
      <trkpt lat="45.8140447" lon="6.9836844">
        <ele>2232.95</ele>
        <time>2019-09-07T06:37:14Z</time>
      </trkpt>
      <trkpt lat="45.8141268" lon="6.9837704">
        <ele>2235.22</ele>
        <time>2019-09-07T06:39:45Z</time>
      </trkpt>
      <trkpt lat="45.8141826" lon="6.9838883">
        <ele>2235.85</ele>
        <time>2019-09-07T06:39:55Z</time>
      </trkpt>
      <trkpt lat="45.8142358" lon="6.9840034">
        <ele>2235.94</ele>
        <time>2019-09-07T06:40:05Z</time>
      </trkpt>
      <trkpt lat="45.8143033" lon="6.9841076">
        <ele>2236.88</ele>
        <time>2019-09-07T06:40:15Z</time>
      </trkpt>
      <trkpt lat="45.8143832" lon="6.9841898">
        <ele>2237.64</ele>
        <time>2019-09-07T06:40:25Z</time>
      </trkpt>
      <trkpt lat="45.8144602" lon="6.9842705">
        <ele>2239.84</ele>
        <time>2019-09-07T06:40:35Z</time>
      </trkpt>
      <trkpt lat="45.8145515" lon="6.9843227">
        <ele>2241.91</ele>
        <time>2019-09-07T06:40:47Z</time>
      </trkpt>
      <trkpt lat="45.8146343" lon="6.9843929">
        <ele>2243.61</ele>
        <time>2019-09-07T06:41:01Z</time>
      </trkpt>
      <trkpt lat="45.8147112" lon="6.9844928">
        <ele>2251.61</ele>
        <time>2019-09-07T06:45:07Z</time>
      </trkpt>
      <trkpt lat="45.8147780" lon="6.9846136">
        <ele>2251.94</ele>
        <time>2019-09-07T06:45:19Z</time>
      </trkpt>
      <trkpt lat="45.8148200" lon="6.9847426">
        <ele>2251.94</ele>
        <time>2019-09-07T06:45:29Z</time>
      </trkpt>
      <trkpt lat="45.8148945" lon="6.9848323">
        <ele>2252.94</ele>
        <time>2019-09-07T06:45:41Z</time>
      </trkpt>
      <trkpt lat="45.8149548" lon="6.9849321">
        <ele>2253.86</ele>
        <time>2019-09-07T06:45:51Z</time>
      </trkpt>
      <trkpt lat="45.8150125" lon="6.9850474">
        <ele>2254.63</ele>
        <time>2019-09-07T06:46:03Z</time>
      </trkpt>
      <trkpt lat="45.8150863" lon="6.9851458">
        <ele>2255.85</ele>
        <time>2019-09-07T06:46:15Z</time>
      </trkpt>
      <trkpt lat="45.8151630" lon="6.9852347">
        <ele>2256.85</ele>
        <time>2019-09-07T06:46:27Z</time>
      </trkpt>
      <trkpt lat="45.8152560" lon="6.9853159">
        <ele>2257.85</ele>
        <time>2019-09-07T06:46:39Z</time>
      </trkpt>
      <trkpt lat="45.8153217" lon="6.9854192">
        <ele>2256.97</ele>
        <time>2019-09-07T06:46:49Z</time>
      </trkpt>
      <trkpt lat="45.8153919" lon="6.9855043">
        <ele>2257.01</ele>
        <time>2019-09-07T06:46:59Z</time>
      </trkpt>
      <trkpt lat="45.8154666" lon="6.9856079">
        <ele>2257.94</ele>
        <time>2019-09-07T06:47:11Z</time>
      </trkpt>
      <trkpt lat="45.8155425" lon="6.9857091">
        <ele>2258.92</ele>
        <time>2019-09-07T06:47:23Z</time>
      </trkpt>
      <trkpt lat="45.8155939" lon="6.9858279">
        <ele>2257.95</ele>
        <time>2019-09-07T06:47:33Z</time>
      </trkpt>
      <trkpt lat="45.8156933" lon="6.9859051">
        <ele>2257.85</ele>
        <time>2019-09-07T06:47:45Z</time>
      </trkpt>
      <trkpt lat="45.8157930" lon="6.9859609">
        <ele>2258.85</ele>
        <time>2019-09-07T06:47:55Z</time>
      </trkpt>
      <trkpt lat="45.8158918" lon="6.9860157">
        <ele>2259.91</ele>
        <time>2019-09-07T06:48:05Z</time>
      </trkpt>
      <trkpt lat="45.8159827" lon="6.9860969">
        <ele>2260.66</ele>
        <time>2019-09-07T06:48:15Z</time>
      </trkpt>
      <trkpt lat="45.8160765" lon="6.9861641">
        <ele>2260.94</ele>
        <time>2019-09-07T06:48:25Z</time>
      </trkpt>
      <trkpt lat="45.8161532" lon="6.9862759">
        <ele>2261.92</ele>
        <time>2019-09-07T06:48:35Z</time>
      </trkpt>
      <trkpt lat="45.8162240" lon="6.9863766">
        <ele>2262.94</ele>
        <time>2019-09-07T06:48:47Z</time>
      </trkpt>
      <trkpt lat="45.8162907" lon="6.9864697">
        <ele>2262.94</ele>
        <time>2019-09-07T06:48:59Z</time>
      </trkpt>
      <trkpt lat="45.8163654" lon="6.9865572">
        <ele>2263.92</ele>
        <time>2019-09-07T06:49:09Z</time>
      </trkpt>
      <trkpt lat="45.8164175" lon="6.9866868">
        <ele>2264.92</ele>
        <time>2019-09-07T06:49:19Z</time>
      </trkpt>
      <trkpt lat="45.8164911" lon="6.9867912">
        <ele>2264.94</ele>
        <time>2019-09-07T06:49:27Z</time>
      </trkpt>
      <trkpt lat="45.8165635" lon="6.9869003">
        <ele>2264.94</ele>
        <time>2019-09-07T06:49:37Z</time>
      </trkpt>
      <trkpt lat="45.8166217" lon="6.9870282">
        <ele>2264.94</ele>
        <time>2019-09-07T06:49:47Z</time>
      </trkpt>
      <trkpt lat="45.8166803" lon="6.9871317">
        <ele>2264.94</ele>
        <time>2019-09-07T06:49:55Z</time>
      </trkpt>
      <trkpt lat="45.8167391" lon="6.9872345">
        <ele>2265.64</ele>
        <time>2019-09-07T06:50:03Z</time>
      </trkpt>
      <trkpt lat="45.8167884" lon="6.9873533">
        <ele>2265.92</ele>
        <time>2019-09-07T06:50:11Z</time>
      </trkpt>
      <trkpt lat="45.8168199" lon="6.9874757">
        <ele>2266.66</ele>
        <time>2019-09-07T06:50:19Z</time>
      </trkpt>
      <trkpt lat="45.8168608" lon="6.9876048">
        <ele>2266.94</ele>
        <time>2019-09-07T06:50:29Z</time>
      </trkpt>
      <trkpt lat="45.8169470" lon="6.9877183">
        <ele>2266.94</ele>
        <time>2019-09-07T06:50:39Z</time>
      </trkpt>
      <trkpt lat="45.8170024" lon="6.9878551">
        <ele>2265.97</ele>
        <time>2019-09-07T06:50:49Z</time>
      </trkpt>
      <trkpt lat="45.8170651" lon="6.9879646">
        <ele>2264.25</ele>
        <time>2019-09-07T06:50:59Z</time>
      </trkpt>
      <trkpt lat="45.8171496" lon="6.9880479">
        <ele>2263.94</ele>
        <time>2019-09-07T06:51:09Z</time>
      </trkpt>
      <trkpt lat="45.8172014" lon="6.9882179">
        <ele>2262.94</ele>
        <time>2019-09-07T06:51:21Z</time>
      </trkpt>
      <trkpt lat="45.8172527" lon="6.9883327">
        <ele>2261.95</ele>
        <time>2019-09-07T06:51:31Z</time>
      </trkpt>
      <trkpt lat="45.8172879" lon="6.9884527">
        <ele>2261.94</ele>
        <time>2019-09-07T06:51:41Z</time>
      </trkpt>
      <trkpt lat="45.8172988" lon="6.9886006">
        <ele>2261.03</ele>
        <time>2019-09-07T06:51:51Z</time>
      </trkpt>
      <trkpt lat="45.8173043" lon="6.9887312">
        <ele>2260.92</ele>
        <time>2019-09-07T06:52:01Z</time>
      </trkpt>
      <trkpt lat="45.8173062" lon="6.9888652">
        <ele>2260.24</ele>
        <time>2019-09-07T06:52:09Z</time>
      </trkpt>
      <trkpt lat="45.8173103" lon="6.9890005">
        <ele>2259.94</ele>
        <time>2019-09-07T06:52:19Z</time>
      </trkpt>
      <trkpt lat="45.8173507" lon="6.9891216">
        <ele>2261.85</ele>
        <time>2019-09-07T06:52:29Z</time>
      </trkpt>
      <trkpt lat="45.8174001" lon="6.9892603">
        <ele>2261.24</ele>
        <time>2019-09-07T06:52:39Z</time>
      </trkpt>
      <trkpt lat="45.8174536" lon="6.9893778">
        <ele>2261.93</ele>
        <time>2019-09-07T06:52:49Z</time>
      </trkpt>
      <trkpt lat="45.8174887" lon="6.9894996">
        <ele>2262.00</ele>
        <time>2019-09-07T06:52:57Z</time>
      </trkpt>
      <trkpt lat="45.8175250" lon="6.9896360">
        <ele>2262.92</ele>
        <time>2019-09-07T06:53:07Z</time>
      </trkpt>
      <trkpt lat="45.8175714" lon="6.9897629">
        <ele>2263.85</ele>
        <time>2019-09-07T06:53:17Z</time>
      </trkpt>
      <trkpt lat="45.8176141" lon="6.9899031">
        <ele>2263.92</ele>
        <time>2019-09-07T06:53:27Z</time>
      </trkpt>
      <trkpt lat="45.8176411" lon="6.9900435">
        <ele>2264.93</ele>
        <time>2019-09-07T06:53:39Z</time>
      </trkpt>
      <trkpt lat="45.8176718" lon="6.9901822">
        <ele>2266.64</ele>
        <time>2019-09-07T06:53:51Z</time>
      </trkpt>
      <trkpt lat="45.8177210" lon="6.9903210">
        <ele>2267.85</ele>
        <time>2019-09-07T06:54:01Z</time>
      </trkpt>
      <trkpt lat="45.8177315" lon="6.9904722">
        <ele>2268.64</ele>
        <time>2019-09-07T06:54:11Z</time>
      </trkpt>
      <trkpt lat="45.8177155" lon="6.9906220">
        <ele>2269.85</ele>
        <time>2019-09-07T06:54:23Z</time>
      </trkpt>
      <trkpt lat="45.8177212" lon="6.9907626">
        <ele>2270.87</ele>
        <time>2019-09-07T06:54:33Z</time>
      </trkpt>
      <trkpt lat="45.8177589" lon="6.9908812">
        <ele>2272.85</ele>
        <time>2019-09-07T06:54:45Z</time>
      </trkpt>
      <trkpt lat="45.8178161" lon="6.9909869">
        <ele>2272.94</ele>
        <time>2019-09-07T06:54:55Z</time>
      </trkpt>
      <trkpt lat="45.8178757" lon="6.9910930">
        <ele>2273.85</ele>
        <time>2019-09-07T06:55:05Z</time>
      </trkpt>
      <trkpt lat="45.8179446" lon="6.9912069">
        <ele>2275.93</ele>
        <time>2019-09-07T06:55:19Z</time>
      </trkpt>
      <trkpt lat="45.8179998" lon="6.9913350">
        <ele>2278.55</ele>
        <time>2019-09-07T06:55:31Z</time>
      </trkpt>
      <trkpt lat="45.8180573" lon="6.9914462">
        <ele>2279.64</ele>
        <time>2019-09-07T06:55:43Z</time>
      </trkpt>
      <trkpt lat="45.8181041" lon="6.9915607">
        <ele>2281.55</ele>
        <time>2019-09-07T06:55:53Z</time>
      </trkpt>
      <trkpt lat="45.8181483" lon="6.9916895">
        <ele>2282.93</ele>
        <time>2019-09-07T06:56:05Z</time>
      </trkpt>
      <trkpt lat="45.8182050" lon="6.9917979">
        <ele>2282.94</ele>
        <time>2019-09-07T06:56:15Z</time>
      </trkpt>
      <trkpt lat="45.8182756" lon="6.9919072">
        <ele>2283.94</ele>
        <time>2019-09-07T06:56:27Z</time>
      </trkpt>
      <trkpt lat="45.8183201" lon="6.9920300">
        <ele>2284.85</ele>
        <time>2019-09-07T06:56:37Z</time>
      </trkpt>
      <trkpt lat="45.8183241" lon="6.9921619">
        <ele>2285.15</ele>
        <time>2019-09-07T06:56:49Z</time>
      </trkpt>
      <trkpt lat="45.8183174" lon="6.9922952">
        <ele>2286.91</ele>
        <time>2019-09-07T06:57:01Z</time>
      </trkpt>
      <trkpt lat="45.8183559" lon="6.9924186">
        <ele>2287.73</ele>
        <time>2019-09-07T06:57:13Z</time>
      </trkpt>
      <trkpt lat="45.8184162" lon="6.9925328">
        <ele>2286.03</ele>
        <time>2019-09-07T06:57:25Z</time>
      </trkpt>
      <trkpt lat="45.8184803" lon="6.9926273">
        <ele>2285.94</ele>
        <time>2019-09-07T06:57:35Z</time>
      </trkpt>
      <trkpt lat="45.8185185" lon="6.9927466">
        <ele>2286.64</ele>
        <time>2019-09-07T06:57:43Z</time>
      </trkpt>
      <trkpt lat="45.8185596" lon="6.9928655">
        <ele>2287.64</ele>
        <time>2019-09-07T06:57:53Z</time>
      </trkpt>
      <trkpt lat="45.8185975" lon="6.9930073">
        <ele>2288.23</ele>
        <time>2019-09-07T06:58:05Z</time>
      </trkpt>
      <trkpt lat="45.8186550" lon="6.9931072">
        <ele>2289.95</ele>
        <time>2019-09-07T06:58:15Z</time>
      </trkpt>
      <trkpt lat="45.8187124" lon="6.9932103">
        <ele>2290.76</ele>
        <time>2019-09-07T06:58:27Z</time>
      </trkpt>
      <trkpt lat="45.8187641" lon="6.9933470">
        <ele>2294.82</ele>
        <time>2019-09-07T06:58:39Z</time>
      </trkpt>
      <trkpt lat="45.8188305" lon="6.9934555">
        <ele>2297.61</ele>
        <time>2019-09-07T06:58:51Z</time>
      </trkpt>
      <trkpt lat="45.8189077" lon="6.9935269">
        <ele>2298.91</ele>
        <time>2019-09-07T06:59:01Z</time>
      </trkpt>
      <trkpt lat="45.8189608" lon="6.9936495">
        <ele>2298.94</ele>
        <time>2019-09-07T06:59:13Z</time>
      </trkpt>
      <trkpt lat="45.8190075" lon="6.9937668">
        <ele>2299.94</ele>
        <time>2019-09-07T06:59:23Z</time>
      </trkpt>
      <trkpt lat="45.8190678" lon="6.9938920">
        <ele>2300.85</ele>
        <time>2019-09-07T06:59:35Z</time>
      </trkpt>
      <trkpt lat="45.8191302" lon="6.9939908">
        <ele>2300.94</ele>
        <time>2019-09-07T06:59:43Z</time>
      </trkpt>
      <trkpt lat="45.8191862" lon="6.9940944">
        <ele>2301.71</ele>
        <time>2019-09-07T06:59:51Z</time>
      </trkpt>
      <trkpt lat="45.8192614" lon="6.9941860">
        <ele>2302.64</ele>
        <time>2019-09-07T07:00:01Z</time>
      </trkpt>
      <trkpt lat="45.8193388" lon="6.9942915">
        <ele>2303.64</ele>
        <time>2019-09-07T07:00:11Z</time>
      </trkpt>
      <trkpt lat="45.8194122" lon="6.9943710">
        <ele>2304.64</ele>
        <time>2019-09-07T07:00:19Z</time>
      </trkpt>
      <trkpt lat="45.8194671" lon="6.9944855">
        <ele>2304.94</ele>
        <time>2019-09-07T07:00:29Z</time>
      </trkpt>
      <trkpt lat="45.8195167" lon="6.9945950">
        <ele>2305.94</ele>
        <time>2019-09-07T07:00:39Z</time>
      </trkpt>
      <trkpt lat="45.8195638" lon="6.9947366">
        <ele>2306.92</ele>
        <time>2019-09-07T07:00:51Z</time>
      </trkpt>
      <trkpt lat="45.8196220" lon="6.9948766">
        <ele>2307.92</ele>
        <time>2019-09-07T07:01:01Z</time>
      </trkpt>
      <trkpt lat="45.8196710" lon="6.9949868">
        <ele>2308.64</ele>
        <time>2019-09-07T07:01:09Z</time>
      </trkpt>
      <trkpt lat="45.8197351" lon="6.9950875">
        <ele>2308.94</ele>
        <time>2019-09-07T07:01:19Z</time>
      </trkpt>
      <trkpt lat="45.8197712" lon="6.9952068">
        <ele>2310.61</ele>
        <time>2019-09-07T07:01:29Z</time>
      </trkpt>
      <trkpt lat="45.8198301" lon="6.9953345">
        <ele>2310.94</ele>
        <time>2019-09-07T07:01:39Z</time>
      </trkpt>
      <trkpt lat="45.8198700" lon="6.9954691">
        <ele>2311.92</ele>
        <time>2019-09-07T07:01:49Z</time>
      </trkpt>
      <trkpt lat="45.8199250" lon="6.9955787">
        <ele>2314.63</ele>
        <time>2019-09-07T07:01:59Z</time>
      </trkpt>
      <trkpt lat="45.8199708" lon="6.9956914">
        <ele>2315.91</ele>
        <time>2019-09-07T07:02:09Z</time>
      </trkpt>
      <trkpt lat="45.8200244" lon="6.9958183">
        <ele>2316.94</ele>
        <time>2019-09-07T07:02:19Z</time>
      </trkpt>
      <trkpt lat="45.8200907" lon="6.9959370">
        <ele>2317.93</ele>
        <time>2019-09-07T07:02:31Z</time>
      </trkpt>
      <trkpt lat="45.8201502" lon="6.9960358">
        <ele>2318.85</ele>
        <time>2019-09-07T07:02:39Z</time>
      </trkpt>
      <trkpt lat="45.8202098" lon="6.9961564">
        <ele>2319.15</ele>
        <time>2019-09-07T07:02:49Z</time>
      </trkpt>
      <trkpt lat="45.8202566" lon="6.9962674">
        <ele>2319.94</ele>
        <time>2019-09-07T07:02:59Z</time>
      </trkpt>
      <trkpt lat="45.8203199" lon="6.9963963">
        <ele>2321.63</ele>
        <time>2019-09-07T07:03:09Z</time>
      </trkpt>
      <trkpt lat="45.8203730" lon="6.9965211">
        <ele>2322.70</ele>
        <time>2019-09-07T07:03:19Z</time>
      </trkpt>
      <trkpt lat="45.8204019" lon="6.9966487">
        <ele>2323.91</ele>
        <time>2019-09-07T07:03:31Z</time>
      </trkpt>
      <trkpt lat="45.8204173" lon="6.9968039">
        <ele>2324.88</ele>
        <time>2019-09-07T07:03:43Z</time>
      </trkpt>
      <trkpt lat="45.8204741" lon="6.9969336">
        <ele>2325.85</ele>
        <time>2019-09-07T07:03:53Z</time>
      </trkpt>
      <trkpt lat="45.8205134" lon="6.9970711">
        <ele>2325.94</ele>
        <time>2019-09-07T07:04:03Z</time>
      </trkpt>
      <trkpt lat="45.8205800" lon="6.9971820">
        <ele>2325.94</ele>
        <time>2019-09-07T07:04:13Z</time>
      </trkpt>
      <trkpt lat="45.8206393" lon="6.9973001">
        <ele>2324.95</ele>
        <time>2019-09-07T07:04:23Z</time>
      </trkpt>
      <trkpt lat="45.8206780" lon="6.9974262">
        <ele>2324.94</ele>
        <time>2019-09-07T07:04:31Z</time>
      </trkpt>
      <trkpt lat="45.8207327" lon="6.9975418">
        <ele>2323.94</ele>
        <time>2019-09-07T07:04:41Z</time>
      </trkpt>
      <trkpt lat="45.8208005" lon="6.9976656">
        <ele>2323.24</ele>
        <time>2019-09-07T07:04:51Z</time>
      </trkpt>
      <trkpt lat="45.8208561" lon="6.9977942">
        <ele>2323.94</ele>
        <time>2019-09-07T07:05:01Z</time>
      </trkpt>
      <trkpt lat="45.8208842" lon="6.9979365">
        <ele>2324.85</ele>
        <time>2019-09-07T07:05:11Z</time>
      </trkpt>
      <trkpt lat="45.8209348" lon="6.9980624">
        <ele>2324.03</ele>
        <time>2019-09-07T07:05:21Z</time>
      </trkpt>
      <trkpt lat="45.8209990" lon="6.9981779">
        <ele>2323.94</ele>
        <time>2019-09-07T07:05:31Z</time>
      </trkpt>
      <trkpt lat="45.8210353" lon="6.9983078">
        <ele>2324.94</ele>
        <time>2019-09-07T07:05:43Z</time>
      </trkpt>
      <trkpt lat="45.8210807" lon="6.9984301">
        <ele>2325.15</ele>
        <time>2019-09-07T07:05:55Z</time>
      </trkpt>
      <trkpt lat="45.8210969" lon="6.9985735">
        <ele>2326.91</ele>
        <time>2019-09-07T07:06:07Z</time>
      </trkpt>
      <trkpt lat="45.8211206" lon="6.9987011">
        <ele>2328.85</ele>
        <time>2019-09-07T07:06:19Z</time>
      </trkpt>
      <trkpt lat="45.8211576" lon="6.9988362">
        <ele>2330.23</ele>
        <time>2019-09-07T07:06:29Z</time>
      </trkpt>
      <trkpt lat="45.8211992" lon="6.9989550">
        <ele>2332.61</ele>
        <time>2019-09-07T07:06:39Z</time>
      </trkpt>
      <trkpt lat="45.8212447" lon="6.9990767">
        <ele>2333.93</ele>
        <time>2019-09-07T07:06:49Z</time>
      </trkpt>
      <trkpt lat="45.8212677" lon="6.9992070">
        <ele>2333.94</ele>
        <time>2019-09-07T07:06:59Z</time>
      </trkpt>
      <trkpt lat="45.8213115" lon="6.9993354">
        <ele>2333.94</ele>
        <time>2019-09-07T07:07:13Z</time>
      </trkpt>
      <trkpt lat="45.8213533" lon="6.9994593">
        <ele>2335.91</ele>
        <time>2019-09-07T07:07:23Z</time>
      </trkpt>
      <trkpt lat="45.8214053" lon="6.9995954">
        <ele>2336.93</ele>
        <time>2019-09-07T07:07:33Z</time>
      </trkpt>
      <trkpt lat="45.8214625" lon="6.9996972">
        <ele>2337.85</ele>
        <time>2019-09-07T07:07:43Z</time>
      </trkpt>
      <trkpt lat="45.8215234" lon="6.9997987">
        <ele>2338.91</ele>
        <time>2019-09-07T07:07:53Z</time>
      </trkpt>
      <trkpt lat="45.8215621" lon="6.9999253">
        <ele>2339.86</ele>
        <time>2019-09-07T07:08:05Z</time>
      </trkpt>
      <trkpt lat="45.8215840" lon="7.0000760">
        <ele>2339.94</ele>
        <time>2019-09-07T07:08:15Z</time>
      </trkpt>
      <trkpt lat="45.8216248" lon="7.0002073">
        <ele>2341.63</ele>
        <time>2019-09-07T07:08:23Z</time>
      </trkpt>
      <trkpt lat="45.8216884" lon="7.0003377">
        <ele>2341.94</ele>
        <time>2019-09-07T07:08:33Z</time>
      </trkpt>
      <trkpt lat="45.8217074" lon="7.0004814">
        <ele>2341.94</ele>
        <time>2019-09-07T07:08:43Z</time>
      </trkpt>
      <trkpt lat="45.8217334" lon="7.0006057">
        <ele>2342.93</ele>
        <time>2019-09-07T07:08:51Z</time>
      </trkpt>
      <trkpt lat="45.8217811" lon="7.0007520">
        <ele>2342.94</ele>
        <time>2019-09-07T07:09:01Z</time>
      </trkpt>
      <trkpt lat="45.8218275" lon="7.0008672">
        <ele>2342.94</ele>
        <time>2019-09-07T07:09:09Z</time>
      </trkpt>
      <trkpt lat="45.8218813" lon="7.0009754">
        <ele>2341.97</ele>
        <time>2019-09-07T07:09:17Z</time>
      </trkpt>
      <trkpt lat="45.8219325" lon="7.0010878">
        <ele>2341.94</ele>
        <time>2019-09-07T07:09:25Z</time>
      </trkpt>
      <trkpt lat="45.8219681" lon="7.0012187">
        <ele>2342.85</ele>
        <time>2019-09-07T07:09:35Z</time>
      </trkpt>
      <trkpt lat="45.8220240" lon="7.0013506">
        <ele>2342.94</ele>
        <time>2019-09-07T07:09:45Z</time>
      </trkpt>
      <trkpt lat="45.8220868" lon="7.0014715">
        <ele>2342.94</ele>
        <time>2019-09-07T07:09:55Z</time>
      </trkpt>
      <trkpt lat="45.8221338" lon="7.0015951">
        <ele>2343.92</ele>
        <time>2019-09-07T07:10:05Z</time>
      </trkpt>
      <trkpt lat="45.8221292" lon="7.0017516">
        <ele>2342.25</ele>
        <time>2019-09-07T07:10:15Z</time>
      </trkpt>
      <trkpt lat="45.8221414" lon="7.0018939">
        <ele>2341.94</ele>
        <time>2019-09-07T07:10:25Z</time>
      </trkpt>
      <trkpt lat="45.8221850" lon="7.0020105">
        <ele>2335.11</ele>
        <time>2019-09-07T07:10:37Z</time>
      </trkpt>
      <trkpt lat="45.8222567" lon="7.0021180">
        <ele>2332.97</ele>
        <time>2019-09-07T07:10:48Z</time>
      </trkpt>
      <trkpt lat="45.8223143" lon="7.0022223">
        <ele>2333.92</ele>
        <time>2019-09-07T07:10:56Z</time>
      </trkpt>
      <trkpt lat="45.8223343" lon="7.0023605">
        <ele>2331.57</ele>
        <time>2019-09-07T07:11:04Z</time>
      </trkpt>
      <trkpt lat="45.8223457" lon="7.0024995">
        <ele>2330.88</ele>
        <time>2019-09-07T07:11:12Z</time>
      </trkpt>
      <trkpt lat="45.8223672" lon="7.0026282">
        <ele>2329.97</ele>
        <time>2019-09-07T07:11:20Z</time>
      </trkpt>
      <trkpt lat="45.8223972" lon="7.0027641">
        <ele>2328.25</ele>
        <time>2019-09-07T07:11:28Z</time>
      </trkpt>
      <trkpt lat="45.8224175" lon="7.0028924">
        <ele>2326.97</ele>
        <time>2019-09-07T07:11:36Z</time>
      </trkpt>
      <trkpt lat="45.8224549" lon="7.0030484">
        <ele>2326.94</ele>
        <time>2019-09-07T07:11:46Z</time>
      </trkpt>
      <trkpt lat="45.8225008" lon="7.0031753">
        <ele>2325.25</ele>
        <time>2019-09-07T07:11:54Z</time>
      </trkpt>
      <trkpt lat="45.8225408" lon="7.0033049">
        <ele>2324.94</ele>
        <time>2019-09-07T07:12:02Z</time>
      </trkpt>
      <trkpt lat="45.8226107" lon="7.0034171">
        <ele>2324.24</ele>
        <time>2019-09-07T07:12:12Z</time>
      </trkpt>
      <trkpt lat="45.8226792" lon="7.0035080">
        <ele>2323.96</ele>
        <time>2019-09-07T07:12:20Z</time>
      </trkpt>
      <trkpt lat="45.8227260" lon="7.0036532">
        <ele>2324.94</ele>
        <time>2019-09-07T07:12:30Z</time>
      </trkpt>
      <trkpt lat="45.8227444" lon="7.0037809">
        <ele>2324.03</ele>
        <time>2019-09-07T07:12:40Z</time>
      </trkpt>
      <trkpt lat="45.8227571" lon="7.0039118">
        <ele>2323.24</ele>
        <time>2019-09-07T07:12:48Z</time>
      </trkpt>
      <trkpt lat="45.8227903" lon="7.0040546">
        <ele>2322.94</ele>
        <time>2019-09-07T07:12:58Z</time>
      </trkpt>
      <trkpt lat="45.8228313" lon="7.0041729">
        <ele>2323.64</ele>
        <time>2019-09-07T07:13:06Z</time>
      </trkpt>
      <trkpt lat="45.8228949" lon="7.0042897">
        <ele>2323.85</ele>
        <time>2019-09-07T07:13:16Z</time>
      </trkpt>
      <trkpt lat="45.8229452" lon="7.0043971">
        <ele>2323.94</ele>
        <time>2019-09-07T07:13:24Z</time>
      </trkpt>
      <trkpt lat="45.8229433" lon="7.0045301">
        <ele>2323.94</ele>
        <time>2019-09-07T07:13:34Z</time>
      </trkpt>
      <trkpt lat="45.8229839" lon="7.0046724">
        <ele>2324.92</ele>
        <time>2019-09-07T07:13:44Z</time>
      </trkpt>
      <trkpt lat="45.8230094" lon="7.0048010">
        <ele>2326.91</ele>
        <time>2019-09-07T07:13:54Z</time>
      </trkpt>
      <trkpt lat="45.8230264" lon="7.0049501">
        <ele>2326.94</ele>
        <time>2019-09-07T07:14:04Z</time>
      </trkpt>
      <trkpt lat="45.8230749" lon="7.0050878">
        <ele>2328.91</ele>
        <time>2019-09-07T07:14:16Z</time>
      </trkpt>
      <trkpt lat="45.8231002" lon="7.0052121">
        <ele>2328.94</ele>
        <time>2019-09-07T07:14:24Z</time>
      </trkpt>
      <trkpt lat="45.8231480" lon="7.0053251">
        <ele>2329.66</ele>
        <time>2019-09-07T07:14:34Z</time>
      </trkpt>
      <trkpt lat="45.8231867" lon="7.0054568">
        <ele>2330.64</ele>
        <time>2019-09-07T07:14:44Z</time>
      </trkpt>
      <trkpt lat="45.8232325" lon="7.0055682">
        <ele>2331.85</ele>
        <time>2019-09-07T07:14:54Z</time>
      </trkpt>
      <trkpt lat="45.8232510" lon="7.0056999">
        <ele>2332.64</ele>
        <time>2019-09-07T07:15:04Z</time>
      </trkpt>
      <trkpt lat="45.8232942" lon="7.0058262">
        <ele>2334.91</ele>
        <time>2019-09-07T07:15:20Z</time>
      </trkpt>
      <trkpt lat="45.8233370" lon="7.0059503">
        <ele>2337.63</ele>
        <time>2019-09-07T07:15:36Z</time>
      </trkpt>
      <trkpt lat="45.8233742" lon="7.0060720">
        <ele>2340.64</ele>
        <time>2019-09-07T07:15:52Z</time>
      </trkpt>
      <trkpt lat="45.8234114" lon="7.0062207">
        <ele>2341.85</ele>
        <time>2019-09-07T07:16:04Z</time>
      </trkpt>
      <trkpt lat="45.8234743" lon="7.0063348">
        <ele>2341.94</ele>
        <time>2019-09-07T07:16:16Z</time>
      </trkpt>
      <trkpt lat="45.8235338" lon="7.0064465">
        <ele>2342.93</ele>
        <time>2019-09-07T07:16:28Z</time>
      </trkpt>
      <trkpt lat="45.8235548" lon="7.0065855">
        <ele>2344.87</ele>
        <time>2019-09-07T07:16:44Z</time>
      </trkpt>
      <trkpt lat="45.8235894" lon="7.0067102">
        <ele>2348.84</ele>
        <time>2019-09-07T07:17:04Z</time>
      </trkpt>
      <trkpt lat="45.8236184" lon="7.0068478">
        <ele>2352.63</ele>
        <time>2019-09-07T07:17:20Z</time>
      </trkpt>
      <trkpt lat="45.8236296" lon="7.0069940">
        <ele>2354.55</ele>
        <time>2019-09-07T07:17:34Z</time>
      </trkpt>
      <trkpt lat="45.8236545" lon="7.0071292">
        <ele>2356.91</ele>
        <time>2019-09-07T07:17:48Z</time>
      </trkpt>
      <trkpt lat="45.8237094" lon="7.0072496">
        <ele>2357.94</ele>
        <time>2019-09-07T07:18:02Z</time>
      </trkpt>
      <trkpt lat="45.8237633" lon="7.0073746">
        <ele>2358.94</ele>
        <time>2019-09-07T07:18:18Z</time>
      </trkpt>
      <trkpt lat="45.8237952" lon="7.0075072">
        <ele>2360.94</ele>
        <time>2019-09-07T07:18:32Z</time>
      </trkpt>
      <trkpt lat="45.8238484" lon="7.0076185">
        <ele>2362.91</ele>
        <time>2019-09-07T07:18:46Z</time>
      </trkpt>
      <trkpt lat="45.8239100" lon="7.0077270">
        <ele>2363.94</ele>
        <time>2019-09-07T07:19:00Z</time>
      </trkpt>
      <trkpt lat="45.8239505" lon="7.0078586">
        <ele>2366.63</ele>
        <time>2019-09-07T07:19:18Z</time>
      </trkpt>
      <trkpt lat="45.8239496" lon="7.0079936">
        <ele>2372.94</ele>
        <time>2019-09-07T07:19:44Z</time>
      </trkpt>
      <trkpt lat="45.8239388" lon="7.0081217">
        <ele>2376.61</ele>
        <time>2019-09-07T07:20:00Z</time>
      </trkpt>
      <trkpt lat="45.8239796" lon="7.0082487">
        <ele>2377.94</ele>
        <time>2019-09-07T07:20:14Z</time>
      </trkpt>
      <trkpt lat="45.8240120" lon="7.0083823">
        <ele>2380.93</ele>
        <time>2019-09-07T07:20:32Z</time>
      </trkpt>
      <trkpt lat="45.8240587" lon="7.0084960">
        <ele>2384.91</ele>
        <time>2019-09-07T07:20:48Z</time>
      </trkpt>
      <trkpt lat="45.8241011" lon="7.0086193">
        <ele>2386.93</ele>
        <time>2019-09-07T07:21:14Z</time>
      </trkpt>
      <trkpt lat="45.8241140" lon="7.0087656">
        <ele>2387.94</ele>
        <time>2019-09-07T07:21:28Z</time>
      </trkpt>
      <trkpt lat="45.8240641" lon="7.0088844">
        <ele>2388.87</ele>
        <time>2019-09-07T07:21:40Z</time>
      </trkpt>
      <trkpt lat="45.8240514" lon="7.0090168">
        <ele>2389.94</ele>
        <time>2019-09-07T07:21:50Z</time>
      </trkpt>
      <trkpt lat="45.8241037" lon="7.0091278">
        <ele>2390.87</ele>
        <time>2019-09-07T07:22:02Z</time>
      </trkpt>
      <trkpt lat="45.8241437" lon="7.0092488">
        <ele>2395.84</ele>
        <time>2019-09-07T07:22:22Z</time>
      </trkpt>
      <trkpt lat="45.8241699" lon="7.0093905">
        <ele>2397.94</ele>
        <time>2019-09-07T07:22:36Z</time>
      </trkpt>
      <trkpt lat="45.8242064" lon="7.0095274">
        <ele>2400.63</ele>
        <time>2019-09-07T07:22:50Z</time>
      </trkpt>
      <trkpt lat="45.8242572" lon="7.0096546">
        <ele>2401.93</ele>
        <time>2019-09-07T07:23:02Z</time>
      </trkpt>
      <trkpt lat="45.8243199" lon="7.0097687">
        <ele>2402.64</ele>
        <time>2019-09-07T07:23:16Z</time>
      </trkpt>
      <trkpt lat="45.8243418" lon="7.0098960">
        <ele>2403.91</ele>
        <time>2019-09-07T07:23:26Z</time>
      </trkpt>
      <trkpt lat="45.8243544" lon="7.0100477">
        <ele>2404.94</ele>
        <time>2019-09-07T07:23:38Z</time>
      </trkpt>
      <trkpt lat="45.8243797" lon="7.0101844">
        <ele>2405.94</ele>
        <time>2019-09-07T07:23:48Z</time>
      </trkpt>
      <trkpt lat="45.8244085" lon="7.0103171">
        <ele>2406.64</ele>
        <time>2019-09-07T07:23:58Z</time>
      </trkpt>
      <trkpt lat="45.8244214" lon="7.0104606">
        <ele>2406.94</ele>
        <time>2019-09-07T07:24:10Z</time>
      </trkpt>
      <trkpt lat="45.8244706" lon="7.0105977">
        <ele>2407.85</ele>
        <time>2019-09-07T07:24:20Z</time>
      </trkpt>
      <trkpt lat="45.8244913" lon="7.0107255">
        <ele>2407.94</ele>
        <time>2019-09-07T07:24:28Z</time>
      </trkpt>
      <trkpt lat="45.8244712" lon="7.0108600">
        <ele>2407.94</ele>
        <time>2019-09-07T07:24:38Z</time>
      </trkpt>
      <trkpt lat="45.8244370" lon="7.0109867">
        <ele>2408.94</ele>
        <time>2019-09-07T07:24:52Z</time>
      </trkpt>
      <trkpt lat="45.8243950" lon="7.0111164">
        <ele>2409.85</ele>
        <time>2019-09-07T07:25:06Z</time>
      </trkpt>
      <trkpt lat="45.8243603" lon="7.0112371">
        <ele>2412.61</ele>
        <time>2019-09-07T07:25:24Z</time>
      </trkpt>
      <trkpt lat="45.8243144" lon="7.0113573">
        <ele>2418.90</ele>
        <time>2019-09-07T07:25:48Z</time>
      </trkpt>
      <trkpt lat="45.8243008" lon="7.0115011">
        <ele>2423.85</ele>
        <time>2019-09-07T07:26:08Z</time>
      </trkpt>
      <trkpt lat="45.8242183" lon="7.0115595">
        <ele>2427.31</ele>
        <time>2019-09-07T07:26:22Z</time>
      </trkpt>
      <trkpt lat="45.8243183" lon="7.0115528">
        <ele>2432.95</ele>
        <time>2019-09-07T07:26:56Z</time>
      </trkpt>
      <trkpt lat="45.8244129" lon="7.0116044">
        <ele>2437.93</ele>
        <time>2019-09-07T07:27:18Z</time>
      </trkpt>
      <trkpt lat="45.8244669" lon="7.0117192">
        <ele>2442.61</ele>
        <time>2019-09-07T07:27:48Z</time>
      </trkpt>
      <trkpt lat="45.8245217" lon="7.0118411">
        <ele>2444.64</ele>
        <time>2019-09-07T07:28:08Z</time>
      </trkpt>
      <trkpt lat="45.8245359" lon="7.0119713">
        <ele>2446.94</ele>
        <time>2019-09-07T07:28:24Z</time>
      </trkpt>
      <trkpt lat="45.8245778" lon="7.0120966">
        <ele>2450.82</ele>
        <time>2019-09-07T07:28:44Z</time>
      </trkpt>
      <trkpt lat="45.8246388" lon="7.0121969">
        <ele>2452.91</ele>
        <time>2019-09-07T07:29:00Z</time>
      </trkpt>
      <trkpt lat="45.8246957" lon="7.0123075">
        <ele>2454.88</ele>
        <time>2019-09-07T07:29:18Z</time>
      </trkpt>
      <trkpt lat="45.8247323" lon="7.0124404">
        <ele>2458.64</ele>
        <time>2019-09-07T07:29:36Z</time>
      </trkpt>
      <trkpt lat="45.8247115" lon="7.0125691">
        <ele>2459.85</ele>
        <time>2019-09-07T07:29:48Z</time>
      </trkpt>
      <trkpt lat="45.8247237" lon="7.0127111">
        <ele>2460.00</ele>
        <time>2019-09-07T07:30:02Z</time>
      </trkpt>
      <trkpt lat="45.8247348" lon="7.0128562">
        <ele>2460.82</ele>
        <time>2019-09-07T07:30:16Z</time>
      </trkpt>
      <trkpt lat="45.8247563" lon="7.0129894">
        <ele>2461.87</ele>
        <time>2019-09-07T07:30:34Z</time>
      </trkpt>
      <trkpt lat="45.8247790" lon="7.0131192">
        <ele>2463.61</ele>
        <time>2019-09-07T07:30:48Z</time>
      </trkpt>
      <trkpt lat="45.8248088" lon="7.0132497">
        <ele>2464.64</ele>
        <time>2019-09-07T07:31:04Z</time>
      </trkpt>
      <trkpt lat="45.8248147" lon="7.0133970">
        <ele>2464.94</ele>
        <time>2019-09-07T07:31:16Z</time>
      </trkpt>
      <trkpt lat="45.8248384" lon="7.0135221">
        <ele>2466.64</ele>
        <time>2019-09-07T07:31:26Z</time>
      </trkpt>
      <trkpt lat="45.8248578" lon="7.0136679">
        <ele>2467.94</ele>
        <time>2019-09-07T07:31:40Z</time>
      </trkpt>
      <trkpt lat="45.8248468" lon="7.0138022">
        <ele>2467.67</ele>
        <time>2019-09-07T07:31:52Z</time>
      </trkpt>
      <trkpt lat="45.8248728" lon="7.0139338">
        <ele>2467.94</ele>
        <time>2019-09-07T07:32:04Z</time>
      </trkpt>
      <trkpt lat="45.8248902" lon="7.0140737">
        <ele>2467.94</ele>
        <time>2019-09-07T07:32:16Z</time>
      </trkpt>
      <trkpt lat="45.8249142" lon="7.0142180">
        <ele>2467.94</ele>
        <time>2019-09-07T07:32:28Z</time>
      </trkpt>
      <trkpt lat="45.8249268" lon="7.0143550">
        <ele>2469.93</ele>
        <time>2019-09-07T07:32:40Z</time>
      </trkpt>
      <trkpt lat="45.8249189" lon="7.0145095">
        <ele>2470.94</ele>
        <time>2019-09-07T07:32:52Z</time>
      </trkpt>
      <trkpt lat="45.8249221" lon="7.0146519">
        <ele>2470.94</ele>
        <time>2019-09-07T07:33:02Z</time>
      </trkpt>
      <trkpt lat="45.8249230" lon="7.0147909">
        <ele>2471.94</ele>
        <time>2019-09-07T07:33:12Z</time>
      </trkpt>
      <trkpt lat="45.8249317" lon="7.0149364">
        <ele>2472.94</ele>
        <time>2019-09-07T07:33:26Z</time>
      </trkpt>
      <trkpt lat="45.8249501" lon="7.0150920">
        <ele>2475.61</ele>
        <time>2019-09-07T07:33:38Z</time>
      </trkpt>
      <trkpt lat="45.8249364" lon="7.0152448">
        <ele>2477.63</ele>
        <time>2019-09-07T07:33:50Z</time>
      </trkpt>
      <trkpt lat="45.8249330" lon="7.0153837">
        <ele>2477.85</ele>
        <time>2019-09-07T07:34:02Z</time>
      </trkpt>
      <trkpt lat="45.8249207" lon="7.0155338">
        <ele>2477.94</ele>
        <time>2019-09-07T07:34:14Z</time>
      </trkpt>
      <trkpt lat="45.8249080" lon="7.0156627">
        <ele>2479.61</ele>
        <time>2019-09-07T07:34:24Z</time>
      </trkpt>
      <trkpt lat="45.8249009" lon="7.0158162">
        <ele>2480.91</ele>
        <time>2019-09-07T07:34:36Z</time>
      </trkpt>
      <trkpt lat="45.8248389" lon="7.0159323">
        <ele>2481.85</ele>
        <time>2019-09-07T07:34:48Z</time>
      </trkpt>
      <trkpt lat="45.8247486" lon="7.0159929">
        <ele>2483.85</ele>
        <time>2019-09-07T07:35:00Z</time>
      </trkpt>
      <trkpt lat="45.8246605" lon="7.0160659">
        <ele>2485.63</ele>
        <time>2019-09-07T07:35:12Z</time>
      </trkpt>
      <trkpt lat="45.8246087" lon="7.0161861">
        <ele>2489.82</ele>
        <time>2019-09-07T07:35:28Z</time>
      </trkpt>
      <trkpt lat="45.8245169" lon="7.0162596">
        <ele>2492.84</ele>
        <time>2019-09-07T07:35:44Z</time>
      </trkpt>
      <trkpt lat="45.8244275" lon="7.0163244">
        <ele>2494.24</ele>
        <time>2019-09-07T07:36:00Z</time>
      </trkpt>
      <trkpt lat="45.8243450" lon="7.0163762">
        <ele>2495.93</ele>
        <time>2019-09-07T07:36:18Z</time>
      </trkpt>
      <trkpt lat="45.8242581" lon="7.0164108">
        <ele>2497.91</ele>
        <time>2019-09-07T07:36:36Z</time>
      </trkpt>
      <trkpt lat="45.8241646" lon="7.0164303">
        <ele>2507.61</ele>
        <time>2019-09-07T07:37:06Z</time>
      </trkpt>
      <trkpt lat="45.8241285" lon="7.0165613">
        <ele>2511.21</ele>
        <time>2019-09-07T07:37:32Z</time>
      </trkpt>
      <trkpt lat="45.8240487" lon="7.0166334">
        <ele>2511.93</ele>
        <time>2019-09-07T07:37:50Z</time>
      </trkpt>
      <trkpt lat="45.8240120" lon="7.0167543">
        <ele>2510.24</ele>
        <time>2019-09-07T07:38:12Z</time>
      </trkpt>
      <trkpt lat="45.8239724" lon="7.0168955">
        <ele>2508.94</ele>
        <time>2019-09-07T07:38:28Z</time>
      </trkpt>
      <trkpt lat="45.8239173" lon="7.0170012">
        <ele>2509.93</ele>
        <time>2019-09-07T07:38:40Z</time>
      </trkpt>
      <trkpt lat="45.8238404" lon="7.0171010">
        <ele>2511.66</ele>
        <time>2019-09-07T07:38:54Z</time>
      </trkpt>
      <trkpt lat="45.8238093" lon="7.0172372">
        <ele>2512.94</ele>
        <time>2019-09-07T07:39:06Z</time>
      </trkpt>
      <trkpt lat="45.8237730" lon="7.0173652">
        <ele>2514.24</ele>
        <time>2019-09-07T07:39:24Z</time>
      </trkpt>
      <trkpt lat="45.8237390" lon="7.0175069">
        <ele>2517.84</ele>
        <time>2019-09-07T07:39:40Z</time>
      </trkpt>
      <trkpt lat="45.8236967" lon="7.0176360">
        <ele>2518.92</ele>
        <time>2019-09-07T07:40:00Z</time>
      </trkpt>
      <trkpt lat="45.8236882" lon="7.0177832">
        <ele>2518.94</ele>
        <time>2019-09-07T07:40:14Z</time>
      </trkpt>
      <trkpt lat="45.8236680" lon="7.0179092">
        <ele>2521.82</ele>
        <time>2019-09-07T07:40:28Z</time>
      </trkpt>
      <trkpt lat="45.8236577" lon="7.0180387">
        <ele>2524.91</ele>
        <time>2019-09-07T07:40:42Z</time>
      </trkpt>
      <trkpt lat="45.8236303" lon="7.0181719">
        <ele>2525.92</ele>
        <time>2019-09-07T07:40:54Z</time>
      </trkpt>
      <trkpt lat="45.8236162" lon="7.0183159">
        <ele>2525.94</ele>
        <time>2019-09-07T07:41:06Z</time>
      </trkpt>
      <trkpt lat="45.8236104" lon="7.0184646">
        <ele>2526.92</ele>
        <time>2019-09-07T07:41:18Z</time>
      </trkpt>
      <trkpt lat="45.8235758" lon="7.0186016">
        <ele>2526.94</ele>
        <time>2019-09-07T07:41:30Z</time>
      </trkpt>
      <trkpt lat="45.8235263" lon="7.0187189">
        <ele>2526.94</ele>
        <time>2019-09-07T07:41:42Z</time>
      </trkpt>
      <trkpt lat="45.8234686" lon="7.0188454">
        <ele>2528.57</ele>
        <time>2019-09-07T07:41:54Z</time>
      </trkpt>
      <trkpt lat="45.8234137" lon="7.0189627">
        <ele>2530.55</ele>
        <time>2019-09-07T07:42:06Z</time>
      </trkpt>
      <trkpt lat="45.8233322" lon="7.0190203">
        <ele>2531.85</ele>
        <time>2019-09-07T07:42:16Z</time>
      </trkpt>
      <trkpt lat="45.8232416" lon="7.0190837">
        <ele>2534.84</ele>
        <time>2019-09-07T07:42:28Z</time>
      </trkpt>
      <trkpt lat="45.8231697" lon="7.0191651">
        <ele>2536.61</ele>
        <time>2019-09-07T07:42:38Z</time>
      </trkpt>
      <trkpt lat="45.8230872" lon="7.0192468">
        <ele>2537.91</ele>
        <time>2019-09-07T07:42:52Z</time>
      </trkpt>
      <trkpt lat="45.8230117" lon="7.0193368">
        <ele>2539.93</ele>
        <time>2019-09-07T07:43:08Z</time>
      </trkpt>
      <trkpt lat="45.8229288" lon="7.0193948">
        <ele>2541.91</ele>
        <time>2019-09-07T07:43:20Z</time>
      </trkpt>
      <trkpt lat="45.8228541" lon="7.0194762">
        <ele>2542.85</ele>
        <time>2019-09-07T07:43:36Z</time>
      </trkpt>
      <trkpt lat="45.8227658" lon="7.0195245">
        <ele>2545.84</ele>
        <time>2019-09-07T07:43:52Z</time>
      </trkpt>
      <trkpt lat="45.8226695" lon="7.0195605">
        <ele>2548.64</ele>
        <time>2019-09-07T07:44:08Z</time>
      </trkpt>
      <trkpt lat="45.8225837" lon="7.0196014">
        <ele>2550.52</ele>
        <time>2019-09-07T07:44:24Z</time>
      </trkpt>
      <trkpt lat="45.8224914" lon="7.0196226">
        <ele>2556.55</ele>
        <time>2019-09-07T07:44:46Z</time>
      </trkpt>
      <trkpt lat="45.8224041" lon="7.0195880">
        <ele>2558.94</ele>
        <time>2019-09-07T07:45:04Z</time>
      </trkpt>
      <trkpt lat="45.8223138" lon="7.0196032">
        <ele>2563.84</ele>
        <time>2019-09-07T07:45:28Z</time>
      </trkpt>
      <trkpt lat="45.8222196" lon="7.0195838">
        <ele>2566.63</ele>
        <time>2019-09-07T07:45:48Z</time>
      </trkpt>
      <trkpt lat="45.8221228" lon="7.0195780">
        <ele>2567.64</ele>
        <time>2019-09-07T07:45:58Z</time>
      </trkpt>
      <trkpt lat="45.8220301" lon="7.0196149">
        <ele>2570.91</ele>
        <time>2019-09-07T07:46:16Z</time>
      </trkpt>
      <trkpt lat="45.8219994" lon="7.0197404">
        <ele>2571.90</ele>
        <time>2019-09-07T07:46:56Z</time>
      </trkpt>
      <trkpt lat="45.8219140" lon="7.0196864">
        <ele>2577.26</ele>
        <time>2019-09-07T07:56:29Z</time>
      </trkpt>
      <trkpt lat="45.8218223" lon="7.0196033">
        <ele>2576.96</ele>
        <time>2019-09-07T07:56:37Z</time>
      </trkpt>
      <trkpt lat="45.8217246" lon="7.0195414">
        <ele>2575.97</ele>
        <time>2019-09-07T07:56:45Z</time>
      </trkpt>
      <trkpt lat="45.8217469" lon="7.0197051">
        <ele>2575.55</ele>
        <time>2019-09-07T07:56:55Z</time>
      </trkpt>
      <trkpt lat="45.8217861" lon="7.0198374">
        <ele>2573.35</ele>
        <time>2019-09-07T07:57:01Z</time>
      </trkpt>
      <trkpt lat="45.8217941" lon="7.0199776">
        <ele>2568.31</ele>
        <time>2019-09-07T07:57:09Z</time>
      </trkpt>
      <trkpt lat="45.8217181" lon="7.0200673">
        <ele>2565.74</ele>
        <time>2019-09-07T07:57:23Z</time>
      </trkpt>
      <trkpt lat="45.8217509" lon="7.0202045">
        <ele>2560.37</ele>
        <time>2019-09-07T07:57:35Z</time>
      </trkpt>
      <trkpt lat="45.8217389" lon="7.0203547">
        <ele>2556.67</ele>
        <time>2019-09-07T07:57:45Z</time>
      </trkpt>
      <trkpt lat="45.8216572" lon="7.0204843">
        <ele>2552.58</ele>
        <time>2019-09-07T07:57:53Z</time>
      </trkpt>
      <trkpt lat="45.8216126" lon="7.0206019">
        <ele>2546.20</ele>
        <time>2019-09-07T07:58:01Z</time>
      </trkpt>
      <trkpt lat="45.8215629" lon="7.0207099">
        <ele>2542.87</ele>
        <time>2019-09-07T07:58:13Z</time>
      </trkpt>
      <trkpt lat="45.8215253" lon="7.0208295">
        <ele>2538.03</ele>
        <time>2019-09-07T07:58:33Z</time>
      </trkpt>
      <trkpt lat="45.8215129" lon="7.0209722">
        <ele>2531.38</ele>
        <time>2019-09-07T07:58:45Z</time>
      </trkpt>
      <trkpt lat="45.8214273" lon="7.0210240">
        <ele>2527.94</ele>
        <time>2019-09-07T07:59:03Z</time>
      </trkpt>
      <trkpt lat="45.8213695" lon="7.0211432">
        <ele>2527.01</ele>
        <time>2019-09-07T07:59:15Z</time>
      </trkpt>
      <trkpt lat="45.8212679" lon="7.0211698">
        <ele>2526.65</ele>
        <time>2019-09-07T07:59:25Z</time>
      </trkpt>
      <trkpt lat="45.8212077" lon="7.0212667">
        <ele>2521.98</ele>
        <time>2019-09-07T07:59:43Z</time>
      </trkpt>
      <trkpt lat="45.8211273" lon="7.0213609">
        <ele>2519.03</ele>
        <time>2019-09-07T08:00:05Z</time>
      </trkpt>
      <trkpt lat="45.8210144" lon="7.0213464">
        <ele>2516.74</ele>
        <time>2019-09-07T08:00:15Z</time>
      </trkpt>
      <trkpt lat="45.8209183" lon="7.0213932">
        <ele>2508.48</ele>
        <time>2019-09-07T08:00:33Z</time>
      </trkpt>
      <trkpt lat="45.8208764" lon="7.0212646">
        <ele>2494.66</ele>
        <time>2019-09-07T08:01:13Z</time>
      </trkpt>
      <trkpt lat="45.8207928" lon="7.0213300">
        <ele>2493.97</ele>
        <time>2019-09-07T08:01:31Z</time>
      </trkpt>
      <trkpt lat="45.8206850" lon="7.0213402">
        <ele>2481.19</ele>
        <time>2019-09-07T08:01:59Z</time>
      </trkpt>
      <trkpt lat="45.8205860" lon="7.0213586">
        <ele>2474.47</ele>
        <time>2019-09-07T08:02:26Z</time>
      </trkpt>
      <trkpt lat="45.8205040" lon="7.0214376">
        <ele>2470.25</ele>
        <time>2019-09-07T08:02:38Z</time>
      </trkpt>
      <trkpt lat="45.8204261" lon="7.0215130">
        <ele>2465.95</ele>
        <time>2019-09-07T08:02:58Z</time>
      </trkpt>
      <trkpt lat="45.8203510" lon="7.0216143">
        <ele>2459.27</ele>
        <time>2019-09-07T08:03:20Z</time>
      </trkpt>
      <trkpt lat="45.8202613" lon="7.0215729">
        <ele>2455.98</ele>
        <time>2019-09-07T08:03:48Z</time>
      </trkpt>
      <trkpt lat="45.8201986" lon="7.0216784">
        <ele>2452.99</ele>
        <time>2019-09-07T08:04:00Z</time>
      </trkpt>
      <trkpt lat="45.8201134" lon="7.0217695">
        <ele>2449.95</ele>
        <time>2019-09-07T08:04:16Z</time>
      </trkpt>
      <trkpt lat="45.8200432" lon="7.0218655">
        <ele>2446.28</ele>
        <time>2019-09-07T08:04:32Z</time>
      </trkpt>
      <trkpt lat="45.8199622" lon="7.0219475">
        <ele>2444.25</ele>
        <time>2019-09-07T08:04:42Z</time>
      </trkpt>
      <trkpt lat="45.8199089" lon="7.0220787">
        <ele>2438.37</ele>
        <time>2019-09-07T08:04:58Z</time>
      </trkpt>
      <trkpt lat="45.8198585" lon="7.0222282">
        <ele>2434.24</ele>
        <time>2019-09-07T08:05:06Z</time>
      </trkpt>
      <trkpt lat="45.8198103" lon="7.0223637">
        <ele>2433.03</ele>
        <time>2019-09-07T08:05:14Z</time>
      </trkpt>
      <trkpt lat="45.8197111" lon="7.0224114">
        <ele>2432.90</ele>
        <time>2019-09-07T08:05:24Z</time>
      </trkpt>
      <trkpt lat="45.8196242" lon="7.0224530">
        <ele>2432.03</ele>
        <time>2019-09-07T08:05:32Z</time>
      </trkpt>
      <trkpt lat="45.8196109" lon="7.0226012">
        <ele>2430.07</ele>
        <time>2019-09-07T08:06:20Z</time>
      </trkpt>
      <trkpt lat="45.8196519" lon="7.0227325">
        <ele>2430.03</ele>
        <time>2019-09-07T08:06:32Z</time>
      </trkpt>
      <trkpt lat="45.8196522" lon="7.0228650">
        <ele>2429.24</ele>
        <time>2019-09-07T08:06:44Z</time>
      </trkpt>
      <trkpt lat="45.8196340" lon="7.0229922">
        <ele>2428.94</ele>
        <time>2019-09-07T08:06:54Z</time>
      </trkpt>
      <trkpt lat="45.8196404" lon="7.0231216">
        <ele>2428.22</ele>
        <time>2019-09-07T08:07:04Z</time>
      </trkpt>
      <trkpt lat="45.8196602" lon="7.0232530">
        <ele>2426.97</ele>
        <time>2019-09-07T08:07:14Z</time>
      </trkpt>
      <trkpt lat="45.8196701" lon="7.0233830">
        <ele>2425.03</ele>
        <time>2019-09-07T08:07:24Z</time>
      </trkpt>
      <trkpt lat="45.8196918" lon="7.0235277">
        <ele>2424.94</ele>
        <time>2019-09-07T08:07:34Z</time>
      </trkpt>
      <trkpt lat="45.8197176" lon="7.0236713">
        <ele>2423.04</ele>
        <time>2019-09-07T08:07:44Z</time>
      </trkpt>
      <trkpt lat="45.8197750" lon="7.0237779">
        <ele>2421.04</ele>
        <time>2019-09-07T08:07:52Z</time>
      </trkpt>
      <trkpt lat="45.8198117" lon="7.0239075">
        <ele>2418.36</ele>
        <time>2019-09-07T08:08:00Z</time>
      </trkpt>
      <trkpt lat="45.8198512" lon="7.0240242">
        <ele>2416.04</ele>
        <time>2019-09-07T08:08:08Z</time>
      </trkpt>
      <trkpt lat="45.8198723" lon="7.0241538">
        <ele>2414.04</ele>
        <time>2019-09-07T08:08:16Z</time>
      </trkpt>
      <trkpt lat="45.8199277" lon="7.0242624">
        <ele>2412.97</ele>
        <time>2019-09-07T08:08:26Z</time>
      </trkpt>
      <trkpt lat="45.8199746" lon="7.0243814">
        <ele>2411.95</ele>
        <time>2019-09-07T08:08:34Z</time>
      </trkpt>
      <trkpt lat="45.8200014" lon="7.0245241">
        <ele>2410.25</ele>
        <time>2019-09-07T08:08:42Z</time>
      </trkpt>
      <trkpt lat="45.8200681" lon="7.0246352">
        <ele>2408.97</ele>
        <time>2019-09-07T08:08:50Z</time>
      </trkpt>
      <trkpt lat="45.8201409" lon="7.0247282">
        <ele>2407.33</ele>
        <time>2019-09-07T08:08:58Z</time>
      </trkpt>
      <trkpt lat="45.8202223" lon="7.0248224">
        <ele>2406.25</ele>
        <time>2019-09-07T08:09:06Z</time>
      </trkpt>
      <trkpt lat="45.8202705" lon="7.0249620">
        <ele>2404.97</ele>
        <time>2019-09-07T08:09:18Z</time>
      </trkpt>
      <trkpt lat="45.8203247" lon="7.0250785">
        <ele>2403.25</ele>
        <time>2019-09-07T08:09:28Z</time>
      </trkpt>
      <trkpt lat="45.8203898" lon="7.0251906">
        <ele>2402.24</ele>
        <time>2019-09-07T08:09:38Z</time>
      </trkpt>
      <trkpt lat="45.8204518" lon="7.0252916">
        <ele>2400.97</ele>
        <time>2019-09-07T08:09:46Z</time>
      </trkpt>
      <trkpt lat="45.8205050" lon="7.0253985">
        <ele>2399.04</ele>
        <time>2019-09-07T08:09:56Z</time>
      </trkpt>
      <trkpt lat="45.8205627" lon="7.0255180">
        <ele>2397.25</ele>
        <time>2019-09-07T08:10:06Z</time>
      </trkpt>
      <trkpt lat="45.8206363" lon="7.0256245">
        <ele>2394.34</ele>
        <time>2019-09-07T08:10:16Z</time>
      </trkpt>
      <trkpt lat="45.8206617" lon="7.0257561">
        <ele>2392.04</ele>
        <time>2019-09-07T08:10:26Z</time>
      </trkpt>
      <trkpt lat="45.8206945" lon="7.0258926">
        <ele>2390.94</ele>
        <time>2019-09-07T08:10:38Z</time>
      </trkpt>
      <trkpt lat="45.8206129" lon="7.0259476">
        <ele>2388.25</ele>
        <time>2019-09-07T08:11:14Z</time>
      </trkpt>
      <trkpt lat="45.8205306" lon="7.0260361">
        <ele>2380.79</ele>
        <time>2019-09-07T08:11:26Z</time>
      </trkpt>
      <trkpt lat="45.8204784" lon="7.0261556">
        <ele>2378.64</ele>
        <time>2019-09-07T08:11:36Z</time>
      </trkpt>
      <trkpt lat="45.8204337" lon="7.0262808">
        <ele>2374.44</ele>
        <time>2019-09-07T08:11:44Z</time>
      </trkpt>
      <trkpt lat="45.8203596" lon="7.0263880">
        <ele>2366.09</ele>
        <time>2019-09-07T08:11:58Z</time>
      </trkpt>
      <trkpt lat="45.8202839" lon="7.0264937">
        <ele>2362.19</ele>
        <time>2019-09-07T08:12:12Z</time>
      </trkpt>
      <trkpt lat="45.8201969" lon="7.0264549">
        <ele>2361.66</ele>
        <time>2019-09-07T08:12:28Z</time>
      </trkpt>
      <trkpt lat="45.8201361" lon="7.0265550">
        <ele>2358.48</ele>
        <time>2019-09-07T08:12:44Z</time>
      </trkpt>
      <trkpt lat="45.8200515" lon="7.0266259">
        <ele>2354.39</ele>
        <time>2019-09-07T08:12:56Z</time>
      </trkpt>
      <trkpt lat="45.8199825" lon="7.0267129">
        <ele>2351.01</ele>
        <time>2019-09-07T08:13:12Z</time>
      </trkpt>
      <trkpt lat="45.8199385" lon="7.0268369">
        <ele>2348.54</ele>
        <time>2019-09-07T08:13:24Z</time>
      </trkpt>
      <trkpt lat="45.8199168" lon="7.0269824">
        <ele>2346.82</ele>
        <time>2019-09-07T08:13:36Z</time>
      </trkpt>
      <trkpt lat="45.8199742" lon="7.0270914">
        <ele>2338.81</ele>
        <time>2019-09-07T08:13:48Z</time>
      </trkpt>
      <trkpt lat="45.8199859" lon="7.0272205">
        <ele>2332.33</ele>
        <time>2019-09-07T08:14:48Z</time>
      </trkpt>
      <trkpt lat="45.8200092" lon="7.0273492">
        <ele>2326.05</ele>
        <time>2019-09-07T08:15:06Z</time>
      </trkpt>
      <trkpt lat="45.8200215" lon="7.0274836">
        <ele>2323.68</ele>
        <time>2019-09-07T08:15:16Z</time>
      </trkpt>
      <trkpt lat="45.8199444" lon="7.0275700">
        <ele>2334.54</ele>
        <time>2019-09-07T08:15:36Z</time>
      </trkpt>
      <trkpt lat="45.8198567" lon="7.0276320">
        <ele>2323.30</ele>
        <time>2019-09-07T08:15:48Z</time>
      </trkpt>
      <trkpt lat="45.8197616" lon="7.0276905">
        <ele>2319.34</ele>
        <time>2019-09-07T08:16:00Z</time>
      </trkpt>
      <trkpt lat="45.8197096" lon="7.0278027">
        <ele>2302.37</ele>
        <time>2019-09-07T08:16:17Z</time>
      </trkpt>
      <trkpt lat="45.8196415" lon="7.0279067">
        <ele>2297.35</ele>
        <time>2019-09-07T08:16:27Z</time>
      </trkpt>
      <trkpt lat="45.8195746" lon="7.0279953">
        <ele>2295.06</ele>
        <time>2019-09-07T08:16:37Z</time>
      </trkpt>
      <trkpt lat="45.8195558" lon="7.0281232">
        <ele>2294.95</ele>
        <time>2019-09-07T08:16:47Z</time>
      </trkpt>
      <trkpt lat="45.8195907" lon="7.0282443">
        <ele>2292.07</ele>
        <time>2019-09-07T08:16:55Z</time>
      </trkpt>
      <trkpt lat="45.8196201" lon="7.0283826">
        <ele>2287.27</ele>
        <time>2019-09-07T08:17:09Z</time>
      </trkpt>
      <trkpt lat="45.8195576" lon="7.0284911">
        <ele>2302.98</ele>
        <time>2019-09-07T08:17:17Z</time>
      </trkpt>
      <trkpt lat="45.8194751" lon="7.0285932">
        <ele>2287.94</ele>
        <time>2019-09-07T08:17:27Z</time>
      </trkpt>
      <trkpt lat="45.8193981" lon="7.0286640">
        <ele>2285.25</ele>
        <time>2019-09-07T08:17:37Z</time>
      </trkpt>
      <trkpt lat="45.8193340" lon="7.0287612">
        <ele>2283.16</ele>
        <time>2019-09-07T08:17:53Z</time>
      </trkpt>
      <trkpt lat="45.8192409" lon="7.0288083">
        <ele>2262.33</ele>
        <time>2019-09-07T08:18:19Z</time>
      </trkpt>
      <trkpt lat="45.8191962" lon="7.0289316">
        <ele>2260.86</ele>
        <time>2019-09-07T08:18:27Z</time>
      </trkpt>
      <trkpt lat="45.8192257" lon="7.0290642">
        <ele>2312.80</ele>
        <time>2019-09-07T08:18:37Z</time>
      </trkpt>
      <trkpt lat="45.8191733" lon="7.0291905">
        <ele>2285.04</ele>
        <time>2019-09-07T08:18:45Z</time>
      </trkpt>
      <trkpt lat="45.8191785" lon="7.0293289">
        <ele>2255.64</ele>
        <time>2019-09-07T08:18:57Z</time>
      </trkpt>
      <trkpt lat="45.8192228" lon="7.0294537">
        <ele>2247.35</ele>
        <time>2019-09-07T08:19:09Z</time>
      </trkpt>
      <trkpt lat="45.8192109" lon="7.0295937">
        <ele>2240.98</ele>
        <time>2019-09-07T08:19:21Z</time>
      </trkpt>
      <trkpt lat="45.8191673" lon="7.0297204">
        <ele>2240.92</ele>
        <time>2019-09-07T08:19:29Z</time>
      </trkpt>
      <trkpt lat="45.8190828" lon="7.0297979">
        <ele>2241.91</ele>
        <time>2019-09-07T08:19:37Z</time>
      </trkpt>
      <trkpt lat="45.8190389" lon="7.0299266">
        <ele>2279.71</ele>
        <time>2019-09-07T08:19:51Z</time>
      </trkpt>
      <trkpt lat="45.8189541" lon="7.0299855">
        <ele>2290.97</ele>
        <time>2019-09-07T08:19:57Z</time>
      </trkpt>
      <trkpt lat="45.8189703" lon="7.0301482">
        <ele>2254.47</ele>
        <time>2019-09-07T08:20:07Z</time>
      </trkpt>
      <trkpt lat="45.8190090" lon="7.0302747">
        <ele>2261.59</ele>
        <time>2019-09-07T08:20:19Z</time>
      </trkpt>
      <trkpt lat="45.8190355" lon="7.0304016">
        <ele>2243.21</ele>
        <time>2019-09-07T08:20:29Z</time>
      </trkpt>
      <trkpt lat="45.8190948" lon="7.0305238">
        <ele>2235.36</ele>
        <time>2019-09-07T08:20:39Z</time>
      </trkpt>
      <trkpt lat="45.8191210" lon="7.0306526">
        <ele>2230.17</ele>
        <time>2019-09-07T08:20:47Z</time>
      </trkpt>
      <trkpt lat="45.8191515" lon="7.0307775">
        <ele>2228.48</ele>
        <time>2019-09-07T08:20:55Z</time>
      </trkpt>
      <trkpt lat="45.8191467" lon="7.0309152">
        <ele>2226.18</ele>
        <time>2019-09-07T08:21:07Z</time>
      </trkpt>
      <trkpt lat="45.8191652" lon="7.0310493">
        <ele>2226.93</ele>
        <time>2019-09-07T08:21:19Z</time>
      </trkpt>
      <trkpt lat="45.8192270" lon="7.0311863">
        <ele>2227.93</ele>
        <time>2019-09-07T08:21:37Z</time>
      </trkpt>
      <trkpt lat="45.8192831" lon="7.0312879">
        <ele>2272.98</ele>
        <time>2019-09-07T08:27:01Z</time>
      </trkpt>
      <trkpt lat="45.8193086" lon="7.0314251">
        <ele>2269.46</ele>
        <time>2019-09-07T08:27:27Z</time>
      </trkpt>
      <trkpt lat="45.8193547" lon="7.0315545">
        <ele>2248.54</ele>
        <time>2019-09-07T08:27:42Z</time>
      </trkpt>
      <trkpt lat="45.8193389" lon="7.0317075">
        <ele>2235.09</ele>
        <time>2019-09-07T08:27:50Z</time>
      </trkpt>
      <trkpt lat="45.8193102" lon="7.0318544">
        <ele>2231.13</ele>
        <time>2019-09-07T08:27:58Z</time>
      </trkpt>
      <trkpt lat="45.8193403" lon="7.0320110">
        <ele>2231.01</ele>
        <time>2019-09-07T08:28:06Z</time>
      </trkpt>
      <trkpt lat="45.8193674" lon="7.0321586">
        <ele>2230.94</ele>
        <time>2019-09-07T08:28:18Z</time>
      </trkpt>
      <trkpt lat="45.8193439" lon="7.0322886">
        <ele>2231.93</ele>
        <time>2019-09-07T08:28:26Z</time>
      </trkpt>
      <trkpt lat="45.8193763" lon="7.0324141">
        <ele>2232.25</ele>
        <time>2019-09-07T08:28:36Z</time>
      </trkpt>
      <trkpt lat="45.8193400" lon="7.0325390">
        <ele>2232.69</ele>
        <time>2019-09-07T08:28:50Z</time>
      </trkpt>
      <trkpt lat="45.8193075" lon="7.0326726">
        <ele>2234.74</ele>
        <time>2019-09-07T08:29:02Z</time>
      </trkpt>
      <trkpt lat="45.8192978" lon="7.0328168">
        <ele>2233.97</ele>
        <time>2019-09-07T08:29:14Z</time>
      </trkpt>
      <trkpt lat="45.8192730" lon="7.0329449">
        <ele>2234.00</ele>
        <time>2019-09-07T08:29:24Z</time>
      </trkpt>
      <trkpt lat="45.8191917" lon="7.0330355">
        <ele>2235.61</ele>
        <time>2019-09-07T08:29:36Z</time>
      </trkpt>
      <trkpt lat="45.8192167" lon="7.0331942">
        <ele>2234.24</ele>
        <time>2019-09-07T08:29:48Z</time>
      </trkpt>
      <trkpt lat="45.8192543" lon="7.0333232">
        <ele>2237.93</ele>
        <time>2019-09-07T08:30:00Z</time>
      </trkpt>
      <trkpt lat="45.8193178" lon="7.0334237">
        <ele>2239.34</ele>
        <time>2019-09-07T08:30:10Z</time>
      </trkpt>
      <trkpt lat="45.8193915" lon="7.0335330">
        <ele>2240.30</ele>
        <time>2019-09-07T08:30:22Z</time>
      </trkpt>
      <trkpt lat="45.8194423" lon="7.0336598">
        <ele>2240.60</ele>
        <time>2019-09-07T08:30:32Z</time>
      </trkpt>
      <trkpt lat="45.8195343" lon="7.0337136">
        <ele>2244.83</ele>
        <time>2019-09-07T08:30:44Z</time>
      </trkpt>
      <trkpt lat="45.8195889" lon="7.0338356">
        <ele>2248.54</ele>
        <time>2019-09-07T08:30:56Z</time>
      </trkpt>
      <trkpt lat="45.8196443" lon="7.0339449">
        <ele>2250.83</ele>
        <time>2019-09-07T08:31:10Z</time>
      </trkpt>
      <trkpt lat="45.8197030" lon="7.0340477">
        <ele>2250.04</ele>
        <time>2019-09-07T08:31:22Z</time>
      </trkpt>
      <trkpt lat="45.8197826" lon="7.0341270">
        <ele>2251.63</ele>
        <time>2019-09-07T08:31:32Z</time>
      </trkpt>
      <trkpt lat="45.8198617" lon="7.0342028">
        <ele>2252.83</ele>
        <time>2019-09-07T08:31:42Z</time>
      </trkpt>
      <trkpt lat="45.8199701" lon="7.0342458">
        <ele>2253.85</ele>
        <time>2019-09-07T08:31:52Z</time>
      </trkpt>
      <trkpt lat="45.8200601" lon="7.0342845">
        <ele>2252.97</ele>
        <time>2019-09-07T08:32:02Z</time>
      </trkpt>
      <trkpt lat="45.8201437" lon="7.0343867">
        <ele>2252.67</ele>
        <time>2019-09-07T08:32:12Z</time>
      </trkpt>
      <trkpt lat="45.8202444" lon="7.0344335">
        <ele>2253.64</ele>
        <time>2019-09-07T08:32:20Z</time>
      </trkpt>
      <trkpt lat="45.8203260" lon="7.0344882">
        <ele>2254.24</ele>
        <time>2019-09-07T08:32:30Z</time>
      </trkpt>
      <trkpt lat="45.8204022" lon="7.0345676">
        <ele>2255.68</ele>
        <time>2019-09-07T08:32:38Z</time>
      </trkpt>
      <trkpt lat="45.8204383" lon="7.0346866">
        <ele>2256.93</ele>
        <time>2019-09-07T08:32:48Z</time>
      </trkpt>
      <trkpt lat="45.8204516" lon="7.0348177">
        <ele>2257.98</ele>
        <time>2019-09-07T08:33:06Z</time>
      </trkpt>
      <trkpt lat="45.8204800" lon="7.0349404">
        <ele>2258.64</ele>
        <time>2019-09-07T08:33:16Z</time>
      </trkpt>
      <trkpt lat="45.8204917" lon="7.0350687">
        <ele>2264.93</ele>
        <time>2019-09-07T08:33:32Z</time>
      </trkpt>
      <trkpt lat="45.8205493" lon="7.0351792">
        <ele>2271.51</ele>
        <time>2019-09-07T08:33:54Z</time>
      </trkpt>
      <trkpt lat="45.8206163" lon="7.0352759">
        <ele>2282.42</ele>
        <time>2019-09-07T08:34:10Z</time>
      </trkpt>
      <trkpt lat="45.8205602" lon="7.0353806">
        <ele>2287.94</ele>
        <time>2019-09-07T08:34:32Z</time>
      </trkpt>
      <trkpt lat="45.8206395" lon="7.0354655">
        <ele>2292.84</ele>
        <time>2019-09-07T08:34:58Z</time>
      </trkpt>
      <trkpt lat="45.8207355" lon="7.0354936">
        <ele>2296.54</ele>
        <time>2019-09-07T08:35:12Z</time>
      </trkpt>
      <trkpt lat="45.8208342" lon="7.0354654">
        <ele>2298.63</ele>
        <time>2019-09-07T08:35:24Z</time>
      </trkpt>
      <trkpt lat="45.8209176" lon="7.0354127">
        <ele>2300.63</ele>
        <time>2019-09-07T08:35:38Z</time>
      </trkpt>
      <trkpt lat="45.8210216" lon="7.0353903">
        <ele>2301.92</ele>
        <time>2019-09-07T08:35:54Z</time>
      </trkpt>
      <trkpt lat="45.8211150" lon="7.0353563">
        <ele>2302.96</ele>
        <time>2019-09-07T08:36:10Z</time>
      </trkpt>
      <trkpt lat="45.8212141" lon="7.0353495">
        <ele>2304.85</ele>
        <time>2019-09-07T08:36:26Z</time>
      </trkpt>
      <trkpt lat="45.8212984" lon="7.0352888">
        <ele>2306.92</ele>
        <time>2019-09-07T08:36:42Z</time>
      </trkpt>
      <trkpt lat="45.8213953" lon="7.0352671">
        <ele>2307.94</ele>
        <time>2019-09-07T08:37:02Z</time>
      </trkpt>
      <trkpt lat="45.8214989" lon="7.0352551">
        <ele>2311.84</ele>
        <time>2019-09-07T08:37:18Z</time>
      </trkpt>
      <trkpt lat="45.8215639" lon="7.0353482">
        <ele>2311.97</ele>
        <time>2019-09-07T08:37:44Z</time>
      </trkpt>
      <trkpt lat="45.8216338" lon="7.0354472">
        <ele>2311.03</ele>
        <time>2019-09-07T08:38:02Z</time>
      </trkpt>
      <trkpt lat="45.8216563" lon="7.0355735">
        <ele>2309.70</ele>
        <time>2019-09-07T08:38:16Z</time>
      </trkpt>
      <trkpt lat="45.8216871" lon="7.0357108">
        <ele>2309.01</ele>
        <time>2019-09-07T08:38:32Z</time>
      </trkpt>
      <trkpt lat="45.8217281" lon="7.0358420">
        <ele>2312.55</ele>
        <time>2019-09-07T08:38:50Z</time>
      </trkpt>
      <trkpt lat="45.8216692" lon="7.0359460">
        <ele>2314.61</ele>
        <time>2019-09-07T08:39:02Z</time>
      </trkpt>
      <trkpt lat="45.8216157" lon="7.0360616">
        <ele>2318.84</ele>
        <time>2019-09-07T08:39:22Z</time>
      </trkpt>
      <trkpt lat="45.8215671" lon="7.0361772">
        <ele>2322.76</ele>
        <time>2019-09-07T08:39:38Z</time>
      </trkpt>
      <trkpt lat="45.8216656" lon="7.0361502">
        <ele>2329.58</ele>
        <time>2019-09-07T08:39:56Z</time>
      </trkpt>
      <trkpt lat="45.8217585" lon="7.0361759">
        <ele>2333.61</ele>
        <time>2019-09-07T08:40:10Z</time>
      </trkpt>
      <trkpt lat="45.8218504" lon="7.0362192">
        <ele>2340.84</ele>
        <time>2019-09-07T08:40:32Z</time>
      </trkpt>
      <trkpt lat="45.8219400" lon="7.0362500">
        <ele>2345.73</ele>
        <time>2019-09-07T08:40:58Z</time>
      </trkpt>
      <trkpt lat="45.8220307" lon="7.0362183">
        <ele>2349.84</ele>
        <time>2019-09-07T08:41:24Z</time>
      </trkpt>
      <trkpt lat="45.8221247" lon="7.0362075">
        <ele>2368.93</ele>
        <time>2019-09-07T08:41:57Z</time>
      </trkpt>
      <trkpt lat="45.8222166" lon="7.0362015">
        <ele>2368.89</ele>
        <time>2019-09-07T08:42:19Z</time>
      </trkpt>
      <trkpt lat="45.8223086" lon="7.0361602">
        <ele>2367.74</ele>
        <time>2019-09-07T08:42:33Z</time>
      </trkpt>
      <trkpt lat="45.8223960" lon="7.0362003">
        <ele>2368.21</ele>
        <time>2019-09-07T08:42:57Z</time>
      </trkpt>
      <trkpt lat="45.8224929" lon="7.0362101">
        <ele>2371.67</ele>
        <time>2019-09-07T08:43:23Z</time>
      </trkpt>
      <trkpt lat="45.8225806" lon="7.0362386">
        <ele>2373.63</ele>
        <time>2019-09-07T08:43:33Z</time>
      </trkpt>
      <trkpt lat="45.8226599" lon="7.0363178">
        <ele>2373.95</ele>
        <time>2019-09-07T08:43:49Z</time>
      </trkpt>
      <trkpt lat="45.8227478" lon="7.0363556">
        <ele>2374.85</ele>
        <time>2019-09-07T08:44:01Z</time>
      </trkpt>
      <trkpt lat="45.8228415" lon="7.0363502">
        <ele>2377.61</ele>
        <time>2019-09-07T08:44:19Z</time>
      </trkpt>
      <trkpt lat="45.8229406" lon="7.0363636">
        <ele>2381.66</ele>
        <time>2019-09-07T08:44:43Z</time>
      </trkpt>
      <trkpt lat="45.8230299" lon="7.0363964">
        <ele>2385.91</ele>
        <time>2019-09-07T08:44:59Z</time>
      </trkpt>
      <trkpt lat="45.8231089" lon="7.0364829">
        <ele>2388.64</ele>
        <time>2019-09-07T08:45:25Z</time>
      </trkpt>
      <trkpt lat="45.8231913" lon="7.0365545">
        <ele>2393.55</ele>
        <time>2019-09-07T08:45:47Z</time>
      </trkpt>
      <trkpt lat="45.8232638" lon="7.0366442">
        <ele>2395.21</ele>
        <time>2019-09-07T08:46:07Z</time>
      </trkpt>
      <trkpt lat="45.8233437" lon="7.0367248">
        <ele>2397.91</ele>
        <time>2019-09-07T08:46:25Z</time>
      </trkpt>
      <trkpt lat="45.8234033" lon="7.0368245">
        <ele>2403.64</ele>
        <time>2019-09-07T08:47:01Z</time>
      </trkpt>
      <trkpt lat="45.8234966" lon="7.0368688">
        <ele>2405.62</ele>
        <time>2019-09-07T08:47:21Z</time>
      </trkpt>
      <trkpt lat="45.8235825" lon="7.0369343">
        <ele>2410.64</ele>
        <time>2019-09-07T08:47:49Z</time>
      </trkpt>
      <trkpt lat="45.8236642" lon="7.0370226">
        <ele>2414.87</ele>
        <time>2019-09-07T08:48:11Z</time>
      </trkpt>
      <trkpt lat="45.8237576" lon="7.0370654">
        <ele>2418.61</ele>
        <time>2019-09-07T08:48:33Z</time>
      </trkpt>
      <trkpt lat="45.8238456" lon="7.0371221">
        <ele>2418.93</ele>
        <time>2019-09-07T08:48:45Z</time>
      </trkpt>
      <trkpt lat="45.8239415" lon="7.0371714">
        <ele>2420.13</ele>
        <time>2019-09-07T08:48:55Z</time>
      </trkpt>
      <trkpt lat="45.8240371" lon="7.0372218">
        <ele>2421.93</ele>
        <time>2019-09-07T08:49:05Z</time>
      </trkpt>
      <trkpt lat="45.8241216" lon="7.0372936">
        <ele>2424.61</ele>
        <time>2019-09-07T08:49:17Z</time>
      </trkpt>
      <trkpt lat="45.8242070" lon="7.0373537">
        <ele>2425.92</ele>
        <time>2019-09-07T08:49:31Z</time>
      </trkpt>
      <trkpt lat="45.8242964" lon="7.0374129">
        <ele>2425.94</ele>
        <time>2019-09-07T08:49:43Z</time>
      </trkpt>
      <trkpt lat="45.8243774" lon="7.0374758">
        <ele>2427.85</ele>
        <time>2019-09-07T08:49:55Z</time>
      </trkpt>
      <trkpt lat="45.8244611" lon="7.0375552">
        <ele>2427.94</ele>
        <time>2019-09-07T08:50:05Z</time>
      </trkpt>
      <trkpt lat="45.8245463" lon="7.0376346">
        <ele>2426.88</ele>
        <time>2019-09-07T08:50:15Z</time>
      </trkpt>
      <trkpt lat="45.8246138" lon="7.0377244">
        <ele>2426.94</ele>
        <time>2019-09-07T08:50:25Z</time>
      </trkpt>
      <trkpt lat="45.8246857" lon="7.0378180">
        <ele>2427.72</ele>
        <time>2019-09-07T08:50:35Z</time>
      </trkpt>
      <trkpt lat="45.8247475" lon="7.0379263">
        <ele>2429.64</ele>
        <time>2019-09-07T08:50:49Z</time>
      </trkpt>
      <trkpt lat="45.8248191" lon="7.0380383">
        <ele>2433.55</ele>
        <time>2019-09-07T08:51:03Z</time>
      </trkpt>
      <trkpt lat="45.8248952" lon="7.0381327">
        <ele>2434.96</ele>
        <time>2019-09-07T08:51:17Z</time>
      </trkpt>
      <trkpt lat="45.8249765" lon="7.0382081">
        <ele>2437.63</ele>
        <time>2019-09-07T08:51:29Z</time>
      </trkpt>
      <trkpt lat="45.8250349" lon="7.0383240">
        <ele>2438.93</ele>
        <time>2019-09-07T08:51:41Z</time>
      </trkpt>
      <trkpt lat="45.8250852" lon="7.0384509">
        <ele>2439.94</ele>
        <time>2019-09-07T08:51:55Z</time>
      </trkpt>
      <trkpt lat="45.8251168" lon="7.0385719">
        <ele>2441.91</ele>
        <time>2019-09-07T08:52:11Z</time>
      </trkpt>
      <trkpt lat="45.8251447" lon="7.0387009">
        <ele>2442.94</ele>
        <time>2019-09-07T08:52:29Z</time>
      </trkpt>
      <trkpt lat="45.8251935" lon="7.0388286">
        <ele>2445.94</ele>
        <time>2019-09-07T08:52:49Z</time>
      </trkpt>
      <trkpt lat="45.8252155" lon="7.0389622">
        <ele>2448.64</ele>
        <time>2019-09-07T08:53:07Z</time>
      </trkpt>
      <trkpt lat="45.8252126" lon="7.0390920">
        <ele>2450.61</ele>
        <time>2019-09-07T08:53:21Z</time>
      </trkpt>
      <trkpt lat="45.8252645" lon="7.0392049">
        <ele>2453.85</ele>
        <time>2019-09-07T08:53:35Z</time>
      </trkpt>
      <trkpt lat="45.8252750" lon="7.0393479">
        <ele>2455.64</ele>
        <time>2019-09-07T08:53:49Z</time>
      </trkpt>
      <trkpt lat="45.8253049" lon="7.0394895">
        <ele>2455.73</ele>
        <time>2019-09-07T08:54:03Z</time>
      </trkpt>
      <trkpt lat="45.8253492" lon="7.0396135">
        <ele>2457.62</ele>
        <time>2019-09-07T08:54:15Z</time>
      </trkpt>
      <trkpt lat="45.8253791" lon="7.0397446">
        <ele>2460.70</ele>
        <time>2019-09-07T08:54:29Z</time>
      </trkpt>
      <trkpt lat="45.8254233" lon="7.0398718">
        <ele>2459.95</ele>
        <time>2019-09-07T08:54:41Z</time>
      </trkpt>
      <trkpt lat="45.8254742" lon="7.0399956">
        <ele>2458.24</ele>
        <time>2019-09-07T08:54:51Z</time>
      </trkpt>
      <trkpt lat="45.8255399" lon="7.0400979">
        <ele>2459.15</ele>
        <time>2019-09-07T08:55:03Z</time>
      </trkpt>
      <trkpt lat="45.8256207" lon="7.0401789">
        <ele>2460.93</ele>
        <time>2019-09-07T08:55:19Z</time>
      </trkpt>
      <trkpt lat="45.8256993" lon="7.0402739">
        <ele>2463.61</ele>
        <time>2019-09-07T08:55:35Z</time>
      </trkpt>
      <trkpt lat="45.8257719" lon="7.0403520">
        <ele>2465.85</ele>
        <time>2019-09-07T08:55:49Z</time>
      </trkpt>
      <trkpt lat="45.8258133" lon="7.0404671">
        <ele>2466.94</ele>
        <time>2019-09-07T08:56:03Z</time>
      </trkpt>
      <trkpt lat="45.8258355" lon="7.0406016">
        <ele>2468.94</ele>
        <time>2019-09-07T08:56:19Z</time>
      </trkpt>
      <trkpt lat="45.8258855" lon="7.0407111">
        <ele>2470.85</ele>
        <time>2019-09-07T08:56:37Z</time>
      </trkpt>
      <trkpt lat="45.8259150" lon="7.0408429">
        <ele>2472.64</ele>
        <time>2019-09-07T08:56:51Z</time>
      </trkpt>
      <trkpt lat="45.8259828" lon="7.0409572">
        <ele>2474.85</ele>
        <time>2019-09-07T08:57:07Z</time>
      </trkpt>
      <trkpt lat="45.8260452" lon="7.0410652">
        <ele>2478.91</ele>
        <time>2019-09-07T08:57:21Z</time>
      </trkpt>
      <trkpt lat="45.8260784" lon="7.0411853">
        <ele>2481.82</ele>
        <time>2019-09-07T08:57:37Z</time>
      </trkpt>
      <trkpt lat="45.8261187" lon="7.0413071">
        <ele>2482.92</ele>
        <time>2019-09-07T08:57:51Z</time>
      </trkpt>
      <trkpt lat="45.8261430" lon="7.0414348">
        <ele>2483.73</ele>
        <time>2019-09-07T08:58:05Z</time>
      </trkpt>
      <trkpt lat="45.8261797" lon="7.0415662">
        <ele>2482.94</ele>
        <time>2019-09-07T08:58:17Z</time>
      </trkpt>
      <trkpt lat="45.8262282" lon="7.0416791">
        <ele>2483.92</ele>
        <time>2019-09-07T08:58:27Z</time>
      </trkpt>
      <trkpt lat="45.8262234" lon="7.0418119">
        <ele>2484.88</ele>
        <time>2019-09-07T08:58:39Z</time>
      </trkpt>
      <trkpt lat="45.8261887" lon="7.0419393">
        <ele>2491.85</ele>
        <time>2019-09-07T08:59:26Z</time>
      </trkpt>
      <trkpt lat="45.8261762" lon="7.0420811">
        <ele>2488.16</ele>
        <time>2019-09-07T08:59:40Z</time>
      </trkpt>
      <trkpt lat="45.8261930" lon="7.0422328">
        <ele>2484.21</ele>
        <time>2019-09-07T08:59:52Z</time>
      </trkpt>
      <trkpt lat="45.8261796" lon="7.0423761">
        <ele>2483.88</ele>
        <time>2019-09-07T09:00:02Z</time>
      </trkpt>
      <trkpt lat="45.8262154" lon="7.0425162">
        <ele>2483.93</ele>
        <time>2019-09-07T09:00:18Z</time>
      </trkpt>
      <trkpt lat="45.8262268" lon="7.0426506">
        <ele>2486.61</ele>
        <time>2019-09-07T09:00:32Z</time>
      </trkpt>
      <trkpt lat="45.8262444" lon="7.0428034">
        <ele>2489.91</ele>
        <time>2019-09-07T09:00:48Z</time>
      </trkpt>
      <trkpt lat="45.8262414" lon="7.0429449">
        <ele>2491.62</ele>
        <time>2019-09-07T09:01:00Z</time>
      </trkpt>
      <trkpt lat="45.8262920" lon="7.0430649">
        <ele>2491.95</ele>
        <time>2019-09-07T09:01:12Z</time>
      </trkpt>
      <trkpt lat="45.8263375" lon="7.0431950">
        <ele>2490.94</ele>
        <time>2019-09-07T09:01:24Z</time>
      </trkpt>
      <trkpt lat="45.8263938" lon="7.0433197">
        <ele>2490.94</ele>
        <time>2019-09-07T09:01:36Z</time>
      </trkpt>
      <trkpt lat="45.8264477" lon="7.0434372">
        <ele>2491.64</ele>
        <time>2019-09-07T09:01:46Z</time>
      </trkpt>
      <trkpt lat="45.8264848" lon="7.0435852">
        <ele>2492.85</ele>
        <time>2019-09-07T09:01:56Z</time>
      </trkpt>
      <trkpt lat="45.8264803" lon="7.0437152">
        <ele>2495.54</ele>
        <time>2019-09-07T09:02:06Z</time>
      </trkpt>
      <trkpt lat="45.8264428" lon="7.0438510">
        <ele>2496.93</ele>
        <time>2019-09-07T09:02:16Z</time>
      </trkpt>
      <trkpt lat="45.8264869" lon="7.0439739">
        <ele>2497.64</ele>
        <time>2019-09-07T09:02:30Z</time>
      </trkpt>
      <trkpt lat="45.8265331" lon="7.0440889">
        <ele>2499.85</ele>
        <time>2019-09-07T09:02:40Z</time>
      </trkpt>
      <trkpt lat="45.8266023" lon="7.0441801">
        <ele>2499.94</ele>
        <time>2019-09-07T09:02:52Z</time>
      </trkpt>
      <trkpt lat="45.8266772" lon="7.0442583">
        <ele>2502.93</ele>
        <time>2019-09-07T09:03:02Z</time>
      </trkpt>
      <trkpt lat="45.8266995" lon="7.0443913">
        <ele>2503.91</ele>
        <time>2019-09-07T09:03:12Z</time>
      </trkpt>
      <trkpt lat="45.8267807" lon="7.0444911">
        <ele>2520.03</ele>
        <time>2019-09-07T09:18:24Z</time>
      </trkpt>
      <trkpt lat="45.8267904" lon="7.0446336">
        <ele>2518.03</ele>
        <time>2019-09-07T09:18:42Z</time>
      </trkpt>
      <trkpt lat="45.8268034" lon="7.0447698">
        <ele>2516.31</ele>
        <time>2019-09-07T09:18:54Z</time>
      </trkpt>
      <trkpt lat="45.8268496" lon="7.0448837">
        <ele>2513.97</ele>
        <time>2019-09-07T09:19:06Z</time>
      </trkpt>
      <trkpt lat="45.8269278" lon="7.0449668">
        <ele>2512.03</ele>
        <time>2019-09-07T09:19:16Z</time>
      </trkpt>
      <trkpt lat="45.8269518" lon="7.0451175">
        <ele>2511.03</ele>
        <time>2019-09-07T09:19:28Z</time>
      </trkpt>
      <trkpt lat="45.8269814" lon="7.0452454">
        <ele>2509.96</ele>
        <time>2019-09-07T09:19:40Z</time>
      </trkpt>
      <trkpt lat="45.8269955" lon="7.0453847">
        <ele>2508.95</ele>
        <time>2019-09-07T09:19:50Z</time>
      </trkpt>
      <trkpt lat="45.8269973" lon="7.0455293">
        <ele>2508.03</ele>
        <time>2019-09-07T09:19:58Z</time>
      </trkpt>
      <trkpt lat="45.8269813" lon="7.0456577">
        <ele>2506.74</ele>
        <time>2019-09-07T09:20:06Z</time>
      </trkpt>
      <trkpt lat="45.8269816" lon="7.0457879">
        <ele>2505.24</ele>
        <time>2019-09-07T09:20:20Z</time>
      </trkpt>
      <trkpt lat="45.8270054" lon="7.0459237">
        <ele>2502.95</ele>
        <time>2019-09-07T09:21:56Z</time>
      </trkpt>
      <trkpt lat="45.8270269" lon="7.0460495">
        <ele>2502.04</ele>
        <time>2019-09-07T09:22:10Z</time>
      </trkpt>
      <trkpt lat="45.8270617" lon="7.0461808">
        <ele>2503.53</ele>
        <time>2019-09-07T09:22:20Z</time>
      </trkpt>
      <trkpt lat="45.8270894" lon="7.0463267">
        <ele>2502.05</ele>
        <time>2019-09-07T09:22:32Z</time>
      </trkpt>
      <trkpt lat="45.8271085" lon="7.0464654">
        <ele>2495.34</ele>
        <time>2019-09-07T09:22:48Z</time>
      </trkpt>
      <trkpt lat="45.8271810" lon="7.0465934">
        <ele>2492.36</ele>
        <time>2019-09-07T09:23:00Z</time>
      </trkpt>
      <trkpt lat="45.8271807" lon="7.0467381">
        <ele>2490.26</ele>
        <time>2019-09-07T09:23:12Z</time>
      </trkpt>
      <trkpt lat="45.8272131" lon="7.0468655">
        <ele>2488.06</ele>
        <time>2019-09-07T09:23:30Z</time>
      </trkpt>
      <trkpt lat="45.8272226" lon="7.0470143">
        <ele>2486.97</ele>
        <time>2019-09-07T09:23:42Z</time>
      </trkpt>
      <trkpt lat="45.8272519" lon="7.0471594">
        <ele>2485.03</ele>
        <time>2019-09-07T09:23:54Z</time>
      </trkpt>
      <trkpt lat="45.8272648" lon="7.0472971">
        <ele>2483.24</ele>
        <time>2019-09-07T09:24:06Z</time>
      </trkpt>
      <trkpt lat="45.8272434" lon="7.0474269">
        <ele>2482.92</ele>
        <time>2019-09-07T09:24:16Z</time>
      </trkpt>
      <trkpt lat="45.8272057" lon="7.0475739">
        <ele>2481.03</ele>
        <time>2019-09-07T09:24:28Z</time>
      </trkpt>
      <trkpt lat="45.8272123" lon="7.0477176">
        <ele>2481.03</ele>
        <time>2019-09-07T09:24:38Z</time>
      </trkpt>
      <trkpt lat="45.8271871" lon="7.0478581">
        <ele>2479.25</ele>
        <time>2019-09-07T09:24:48Z</time>
      </trkpt>
      <trkpt lat="45.8271628" lon="7.0479977">
        <ele>2478.25</ele>
        <time>2019-09-07T09:24:58Z</time>
      </trkpt>
      <trkpt lat="45.8271433" lon="7.0481334">
        <ele>2476.97</ele>
        <time>2019-09-07T09:25:06Z</time>
      </trkpt>
      <trkpt lat="45.8271269" lon="7.0482634">
        <ele>2474.95</ele>
        <time>2019-09-07T09:25:16Z</time>
      </trkpt>
      <trkpt lat="45.8271071" lon="7.0483898">
        <ele>2472.25</ele>
        <time>2019-09-07T09:25:28Z</time>
      </trkpt>
      <trkpt lat="45.8270836" lon="7.0485276">
        <ele>2470.95</ele>
        <time>2019-09-07T09:25:40Z</time>
      </trkpt>
      <trkpt lat="45.8270512" lon="7.0486584">
        <ele>2469.27</ele>
        <time>2019-09-07T09:25:48Z</time>
      </trkpt>
      <trkpt lat="45.8270515" lon="7.0487955">
        <ele>2468.03</ele>
        <time>2019-09-07T09:25:56Z</time>
      </trkpt>
      <trkpt lat="45.8270626" lon="7.0489272">
        <ele>2464.36</ele>
        <time>2019-09-07T09:26:06Z</time>
      </trkpt>
      <trkpt lat="45.8270794" lon="7.0490711">
        <ele>2461.97</ele>
        <time>2019-09-07T09:26:16Z</time>
      </trkpt>
      <trkpt lat="45.8271092" lon="7.0492199">
        <ele>2459.06</ele>
        <time>2019-09-07T09:26:28Z</time>
      </trkpt>
      <trkpt lat="45.8271472" lon="7.0493470">
        <ele>2455.13</ele>
        <time>2019-09-07T09:26:40Z</time>
      </trkpt>
      <trkpt lat="45.8271947" lon="7.0494645">
        <ele>2451.98</ele>
        <time>2019-09-07T09:26:50Z</time>
      </trkpt>
      <trkpt lat="45.8272597" lon="7.0495713">
        <ele>2448.27</ele>
        <time>2019-09-07T09:27:02Z</time>
      </trkpt>
      <trkpt lat="45.8273429" lon="7.0496575">
        <ele>2445.97</ele>
        <time>2019-09-07T09:27:14Z</time>
      </trkpt>
      <trkpt lat="45.8274313" lon="7.0497428">
        <ele>2443.06</ele>
        <time>2019-09-07T09:27:26Z</time>
      </trkpt>
      <trkpt lat="45.8275341" lon="7.0497888">
        <ele>2441.03</ele>
        <time>2019-09-07T09:27:38Z</time>
      </trkpt>
      <trkpt lat="45.8276347" lon="7.0497301">
        <ele>2440.94</ele>
        <time>2019-09-07T09:27:50Z</time>
      </trkpt>
      <trkpt lat="45.8276872" lon="7.0498436">
        <ele>2436.34</ele>
        <time>2019-09-07T09:28:10Z</time>
      </trkpt>
      <trkpt lat="45.8277298" lon="7.0499818">
        <ele>2433.97</ele>
        <time>2019-09-07T09:28:22Z</time>
      </trkpt>
      <trkpt lat="45.8278160" lon="7.0500472">
        <ele>2430.07</ele>
        <time>2019-09-07T09:28:32Z</time>
      </trkpt>
      <trkpt lat="45.8279166" lon="7.0500229">
        <ele>2428.18</ele>
        <time>2019-09-07T09:28:42Z</time>
      </trkpt>
      <trkpt lat="45.8280111" lon="7.0499947">
        <ele>2426.78</ele>
        <time>2019-09-07T09:29:00Z</time>
      </trkpt>
      <trkpt lat="45.8280532" lon="7.0501226">
        <ele>2424.94</ele>
        <time>2019-09-07T09:29:14Z</time>
      </trkpt>
      <trkpt lat="45.8281494" lon="7.0501781">
        <ele>2423.06</ele>
        <time>2019-09-07T09:29:26Z</time>
      </trkpt>
      <trkpt lat="45.8282368" lon="7.0502427">
        <ele>2429.97</ele>
        <time>2019-09-07T09:29:36Z</time>
      </trkpt>
      <trkpt lat="45.8283339" lon="7.0502709">
        <ele>2421.17</ele>
        <time>2019-09-07T09:29:46Z</time>
      </trkpt>
      <trkpt lat="45.8284293" lon="7.0503318">
        <ele>2418.07</ele>
        <time>2019-09-07T09:29:56Z</time>
      </trkpt>
      <trkpt lat="45.8285275" lon="7.0503850">
        <ele>2415.07</ele>
        <time>2019-09-07T09:30:06Z</time>
      </trkpt>
      <trkpt lat="45.8286180" lon="7.0503999">
        <ele>2413.31</ele>
        <time>2019-09-07T09:30:16Z</time>
      </trkpt>
      <trkpt lat="45.8286894" lon="7.0505118">
        <ele>2410.97</ele>
        <time>2019-09-07T09:30:28Z</time>
      </trkpt>
      <trkpt lat="45.8287383" lon="7.0506324">
        <ele>2409.03</ele>
        <time>2019-09-07T09:30:38Z</time>
      </trkpt>
      <trkpt lat="45.8288074" lon="7.0507245">
        <ele>2406.06</ele>
        <time>2019-09-07T09:30:48Z</time>
      </trkpt>
      <trkpt lat="45.8289029" lon="7.0507686">
        <ele>2403.97</ele>
        <time>2019-09-07T09:31:02Z</time>
      </trkpt>
      <trkpt lat="45.8290029" lon="7.0507319">
        <ele>2400.98</ele>
        <time>2019-09-07T09:31:16Z</time>
      </trkpt>
      <trkpt lat="45.8290901" lon="7.0506319">
        <ele>2401.64</ele>
        <time>2019-09-07T09:31:26Z</time>
      </trkpt>
      <trkpt lat="45.8291948" lon="7.0505938">
        <ele>2399.94</ele>
        <time>2019-09-07T09:31:38Z</time>
      </trkpt>
      <trkpt lat="45.8292929" lon="7.0505880">
        <ele>2396.25</ele>
        <time>2019-09-07T09:31:52Z</time>
      </trkpt>
      <trkpt lat="45.8293807" lon="7.0505510">
        <ele>2394.27</ele>
        <time>2019-09-07T09:32:02Z</time>
      </trkpt>
      <trkpt lat="45.8294760" lon="7.0505673">
        <ele>2389.28</ele>
        <time>2019-09-07T09:32:16Z</time>
      </trkpt>
      <trkpt lat="45.8295636" lon="7.0505215">
        <ele>2387.97</ele>
        <time>2019-09-07T09:32:24Z</time>
      </trkpt>
      <trkpt lat="45.8296578" lon="7.0505269">
        <ele>2386.67</ele>
        <time>2019-09-07T09:32:34Z</time>
      </trkpt>
      <trkpt lat="45.8297652" lon="7.0504975">
        <ele>2379.52</ele>
        <time>2019-09-07T09:32:44Z</time>
      </trkpt>
      <trkpt lat="45.8298691" lon="7.0504679">
        <ele>2377.27</ele>
        <time>2019-09-07T09:32:54Z</time>
      </trkpt>
      <trkpt lat="45.8299664" lon="7.0504086">
        <ele>2376.16</ele>
        <time>2019-09-07T09:33:04Z</time>
      </trkpt>
      <trkpt lat="45.8300612" lon="7.0503959">
        <ele>2375.24</ele>
        <time>2019-09-07T09:33:14Z</time>
      </trkpt>
      <trkpt lat="45.8301687" lon="7.0503860">
        <ele>2375.15</ele>
        <time>2019-09-07T09:33:26Z</time>
      </trkpt>
      <trkpt lat="45.8302595" lon="7.0503680">
        <ele>2374.03</ele>
        <time>2019-09-07T09:33:34Z</time>
      </trkpt>
      <trkpt lat="45.8303556" lon="7.0503236">
        <ele>2373.94</ele>
        <time>2019-09-07T09:33:44Z</time>
      </trkpt>
      <trkpt lat="45.8304412" lon="7.0502511">
        <ele>2372.97</ele>
        <time>2019-09-07T09:33:54Z</time>
      </trkpt>
      <trkpt lat="45.8305325" lon="7.0502605">
        <ele>2371.94</ele>
        <time>2019-09-07T09:34:06Z</time>
      </trkpt>
      <trkpt lat="45.8306294" lon="7.0502233">
        <ele>2371.94</ele>
        <time>2019-09-07T09:34:16Z</time>
      </trkpt>
      <trkpt lat="45.8307386" lon="7.0502511">
        <ele>2370.95</ele>
        <time>2019-09-07T09:34:28Z</time>
      </trkpt>
      <trkpt lat="45.8308321" lon="7.0502817">
        <ele>2364.92</ele>
        <time>2019-09-07T09:34:40Z</time>
      </trkpt>
      <trkpt lat="45.8309242" lon="7.0503193">
        <ele>2435.08</ele>
        <time>2019-09-07T09:34:54Z</time>
      </trkpt>
      <trkpt lat="45.8310230" lon="7.0502621">
        <ele>2382.09</ele>
        <time>2019-09-07T09:35:04Z</time>
      </trkpt>
      <trkpt lat="45.8311009" lon="7.0501900">
        <ele>2458.49</ele>
        <time>2019-09-07T09:35:12Z</time>
      </trkpt>
      <trkpt lat="45.8311813" lon="7.0501093">
        <ele>2402.74</ele>
        <time>2019-09-07T09:35:22Z</time>
      </trkpt>
      <trkpt lat="45.8312702" lon="7.0501750">
        <ele>2365.54</ele>
        <time>2019-09-07T09:35:38Z</time>
      </trkpt>
      <trkpt lat="45.8313663" lon="7.0502057">
        <ele>2356.40</ele>
        <time>2019-09-07T09:35:50Z</time>
      </trkpt>
      <trkpt lat="45.8314629" lon="7.0501690">
        <ele>2353.34</ele>
        <time>2019-09-07T09:35:58Z</time>
      </trkpt>
      <trkpt lat="45.8315550" lon="7.0502126">
        <ele>2352.24</ele>
        <time>2019-09-07T09:36:08Z</time>
      </trkpt>
      <trkpt lat="45.8316510" lon="7.0502434">
        <ele>2349.04</ele>
        <time>2019-09-07T09:36:20Z</time>
      </trkpt>
      <trkpt lat="45.8317607" lon="7.0502670">
        <ele>2346.95</ele>
        <time>2019-09-07T09:36:32Z</time>
      </trkpt>
      <trkpt lat="45.8318532" lon="7.0501915">
        <ele>2346.64</ele>
        <time>2019-09-07T09:36:46Z</time>
      </trkpt>
      <trkpt lat="45.8319409" lon="7.0501242">
        <ele>2346.03</ele>
        <time>2019-09-07T09:36:56Z</time>
      </trkpt>
      <trkpt lat="45.8320447" lon="7.0501309">
        <ele>2343.07</ele>
        <time>2019-09-07T09:37:06Z</time>
      </trkpt>
      <trkpt lat="45.8321466" lon="7.0501265">
        <ele>2341.06</ele>
        <time>2019-09-07T09:37:16Z</time>
      </trkpt>
      <trkpt lat="45.8322492" lon="7.0500890">
        <ele>2338.25</ele>
        <time>2019-09-07T09:37:30Z</time>
      </trkpt>
      <trkpt lat="45.8323413" lon="7.0500477">
        <ele>2337.03</ele>
        <time>2019-09-07T09:37:40Z</time>
      </trkpt>
      <trkpt lat="45.8324067" lon="7.0499491">
        <ele>2337.85</ele>
        <time>2019-09-07T09:37:48Z</time>
      </trkpt>
      <trkpt lat="45.8325072" lon="7.0499256">
        <ele>2336.03</ele>
        <time>2019-09-07T09:38:00Z</time>
      </trkpt>
      <trkpt lat="45.8325957" lon="7.0498585">
        <ele>2334.95</ele>
        <time>2019-09-07T09:38:10Z</time>
      </trkpt>
      <trkpt lat="45.8326776" lon="7.0497805">
        <ele>2333.33</ele>
        <time>2019-09-07T09:38:18Z</time>
      </trkpt>
      <trkpt lat="45.8327471" lon="7.0496842">
        <ele>2330.79</ele>
        <time>2019-09-07T09:38:26Z</time>
      </trkpt>
      <trkpt lat="45.8328423" lon="7.0496537">
        <ele>2330.92</ele>
        <time>2019-09-07T09:38:40Z</time>
      </trkpt>
      <trkpt lat="45.8329437" lon="7.0496216">
        <ele>2327.04</ele>
        <time>2019-09-07T09:38:54Z</time>
      </trkpt>
      <trkpt lat="45.8330502" lon="7.0496158">
        <ele>2324.28</ele>
        <time>2019-09-07T09:39:02Z</time>
      </trkpt>
      <trkpt lat="45.8331578" lon="7.0496005">
        <ele>2323.94</ele>
        <time>2019-09-07T09:39:10Z</time>
      </trkpt>
      <trkpt lat="45.8332692" lon="7.0495354">
        <ele>2323.73</ele>
        <time>2019-09-07T09:39:20Z</time>
      </trkpt>
      <trkpt lat="45.8333791" lon="7.0495209">
        <ele>2321.04</ele>
        <time>2019-09-07T09:39:36Z</time>
      </trkpt>
      <trkpt lat="45.8334653" lon="7.0494791">
        <ele>2320.03</ele>
        <time>2019-09-07T09:39:44Z</time>
      </trkpt>
      <trkpt lat="45.8335649" lon="7.0494366">
        <ele>2318.27</ele>
        <time>2019-09-07T09:39:54Z</time>
      </trkpt>
      <trkpt lat="45.8336673" lon="7.0494148">
        <ele>2316.23</ele>
        <time>2019-09-07T09:40:06Z</time>
      </trkpt>
      <trkpt lat="45.8337479" lon="7.0493351">
        <ele>2315.24</ele>
        <time>2019-09-07T09:40:14Z</time>
      </trkpt>
      <trkpt lat="45.8338324" lon="7.0492876">
        <ele>2313.33</ele>
        <time>2019-09-07T09:40:22Z</time>
      </trkpt>
      <trkpt lat="45.8339328" lon="7.0492482">
        <ele>2312.95</ele>
        <time>2019-09-07T09:40:30Z</time>
      </trkpt>
      <trkpt lat="45.8340234" lon="7.0492172">
        <ele>2312.24</ele>
        <time>2019-09-07T09:40:38Z</time>
      </trkpt>
      <trkpt lat="45.8341054" lon="7.0491605">
        <ele>2310.06</ele>
        <time>2019-09-07T09:40:48Z</time>
      </trkpt>
      <trkpt lat="45.8342094" lon="7.0491052">
        <ele>2309.03</ele>
        <time>2019-09-07T09:40:58Z</time>
      </trkpt>
      <trkpt lat="45.8343029" lon="7.0490918">
        <ele>2306.06</ele>
        <time>2019-09-07T09:41:10Z</time>
      </trkpt>
      <trkpt lat="45.8344140" lon="7.0491058">
        <ele>2299.83</ele>
        <time>2019-09-07T09:41:22Z</time>
      </trkpt>
      <trkpt lat="45.8345112" lon="7.0490651">
        <ele>2297.57</ele>
        <time>2019-09-07T09:41:32Z</time>
      </trkpt>
      <trkpt lat="45.8346170" lon="7.0490600">
        <ele>2295.97</ele>
        <time>2019-09-07T09:41:44Z</time>
      </trkpt>
      <trkpt lat="45.8347223" lon="7.0490723">
        <ele>2295.03</ele>
        <time>2019-09-07T09:41:54Z</time>
      </trkpt>
      <trkpt lat="45.8348177" lon="7.0490219">
        <ele>2293.31</ele>
        <time>2019-09-07T09:42:02Z</time>
      </trkpt>
      <trkpt lat="45.8349119" lon="7.0489563">
        <ele>2291.97</ele>
        <time>2019-09-07T09:42:10Z</time>
      </trkpt>
      <trkpt lat="45.8349893" lon="7.0488808">
        <ele>2290.19</ele>
        <time>2019-09-07T09:42:20Z</time>
      </trkpt>
      <trkpt lat="45.8350547" lon="7.0489832">
        <ele>2288.77</ele>
        <time>2019-09-07T09:42:28Z</time>
      </trkpt>
      <trkpt lat="45.8351493" lon="7.0489566">
        <ele>2283.69</ele>
        <time>2019-09-07T09:42:36Z</time>
      </trkpt>
      <trkpt lat="45.8352597" lon="7.0489488">
        <ele>2279.13</ele>
        <time>2019-09-07T09:42:42Z</time>
      </trkpt>
      <trkpt lat="45.8353577" lon="7.0489059">
        <ele>2273.72</ele>
        <time>2019-09-07T09:42:48Z</time>
      </trkpt>
      <trkpt lat="45.8354581" lon="7.0489012">
        <ele>2275.55</ele>
        <time>2019-09-07T09:42:58Z</time>
      </trkpt>
      <trkpt lat="45.8355634" lon="7.0489228">
        <ele>2273.97</ele>
        <time>2019-09-07T09:43:08Z</time>
      </trkpt>
      <trkpt lat="45.8356706" lon="7.0488929">
        <ele>2273.97</ele>
        <time>2019-09-07T09:43:18Z</time>
      </trkpt>
      <trkpt lat="45.8357673" lon="7.0488328">
        <ele>2275.62</ele>
        <time>2019-09-07T09:43:26Z</time>
      </trkpt>
      <trkpt lat="45.8358604" lon="7.0488957">
        <ele>2276.64</ele>
        <time>2019-09-07T09:43:38Z</time>
      </trkpt>
      <trkpt lat="45.8359112" lon="7.0487812">
        <ele>2275.32</ele>
        <time>2019-09-07T09:45:41Z</time>
      </trkpt>
      <trkpt lat="45.8359966" lon="7.0487372">
        <ele>2274.53</ele>
        <time>2019-09-07T09:45:47Z</time>
      </trkpt>
      <trkpt lat="45.8360833" lon="7.0486905">
        <ele>2273.25</ele>
        <time>2019-09-07T09:45:55Z</time>
      </trkpt>
      <trkpt lat="45.8361924" lon="7.0487217">
        <ele>2272.24</ele>
        <time>2019-09-07T09:46:03Z</time>
      </trkpt>
      <trkpt lat="45.8362941" lon="7.0487436">
        <ele>2267.60</ele>
        <time>2019-09-07T09:46:13Z</time>
      </trkpt>
      <trkpt lat="45.8363806" lon="7.0488137">
        <ele>2266.32</ele>
        <time>2019-09-07T09:46:21Z</time>
      </trkpt>
      <trkpt lat="45.8364791" lon="7.0487930">
        <ele>2265.05</ele>
        <time>2019-09-07T09:46:29Z</time>
      </trkpt>
      <trkpt lat="45.8365822" lon="7.0487400">
        <ele>2262.20</ele>
        <time>2019-09-07T09:46:37Z</time>
      </trkpt>
      <trkpt lat="45.8366747" lon="7.0487181">
        <ele>2261.67</ele>
        <time>2019-09-07T09:46:45Z</time>
      </trkpt>
      <trkpt lat="45.8367738" lon="7.0486510">
        <ele>2261.65</ele>
        <time>2019-09-07T09:46:53Z</time>
      </trkpt>
      <trkpt lat="45.8368604" lon="7.0486985">
        <ele>2259.97</ele>
        <time>2019-09-07T09:47:01Z</time>
      </trkpt>
      <trkpt lat="45.8369059" lon="7.0488226">
        <ele>2258.95</ele>
        <time>2019-09-07T09:47:09Z</time>
      </trkpt>
      <trkpt lat="45.8369868" lon="7.0489057">
        <ele>2258.96</ele>
        <time>2019-09-07T09:47:19Z</time>
      </trkpt>
      <trkpt lat="45.8370737" lon="7.0489539">
        <ele>2262.87</ele>
        <time>2019-09-07T09:47:35Z</time>
      </trkpt>
      <trkpt lat="45.8370753" lon="7.0488216">
        <ele>2260.07</ele>
        <time>2019-09-07T09:49:07Z</time>
      </trkpt>
      <trkpt lat="45.8371425" lon="7.0487022">
        <ele>2258.04</ele>
        <time>2019-09-07T09:49:15Z</time>
      </trkpt>
      <trkpt lat="45.8371891" lon="7.0485771">
        <ele>2257.94</ele>
        <time>2019-09-07T09:49:23Z</time>
      </trkpt>
      <trkpt lat="45.8372404" lon="7.0484649">
        <ele>2257.94</ele>
        <time>2019-09-07T09:49:31Z</time>
      </trkpt>
      <trkpt lat="45.8373065" lon="7.0483535">
        <ele>2260.12</ele>
        <time>2019-09-07T09:49:41Z</time>
      </trkpt>
      <trkpt lat="45.8373991" lon="7.0482742">
        <ele>2260.85</ele>
        <time>2019-09-07T09:49:51Z</time>
      </trkpt>
      <trkpt lat="45.8374159" lon="7.0481365">
        <ele>2262.94</ele>
        <time>2019-09-07T09:51:13Z</time>
      </trkpt>
      <trkpt lat="45.8374985" lon="7.0480355">
        <ele>2263.58</ele>
        <time>2019-09-07T09:51:21Z</time>
      </trkpt>
      <trkpt lat="45.8375837" lon="7.0479890">
        <ele>2261.27</ele>
        <time>2019-09-07T09:51:35Z</time>
      </trkpt>
      <trkpt lat="45.8376681" lon="7.0479165">
        <ele>2259.95</ele>
        <time>2019-09-07T09:51:47Z</time>
      </trkpt>
      <trkpt lat="45.8377620" lon="7.0478202">
        <ele>2258.25</ele>
        <time>2019-09-07T09:51:57Z</time>
      </trkpt>
      <trkpt lat="45.8378283" lon="7.0477198">
        <ele>2256.97</ele>
        <time>2019-09-07T09:52:07Z</time>
      </trkpt>
      <trkpt lat="45.8379156" lon="7.0476547">
        <ele>2256.24</ele>
        <time>2019-09-07T09:52:15Z</time>
      </trkpt>
      <trkpt lat="45.8380027" lon="7.0475902">
        <ele>2255.24</ele>
        <time>2019-09-07T09:52:23Z</time>
      </trkpt>
      <trkpt lat="45.8381079" lon="7.0475258">
        <ele>2255.15</ele>
        <time>2019-09-07T09:52:33Z</time>
      </trkpt>
      <trkpt lat="45.8382019" lon="7.0474962">
        <ele>2254.96</ele>
        <time>2019-09-07T09:52:43Z</time>
      </trkpt>
      <trkpt lat="45.8382984" lon="7.0474360">
        <ele>2252.98</ele>
        <time>2019-09-07T09:52:53Z</time>
      </trkpt>
      <trkpt lat="45.8383881" lon="7.0473714">
        <ele>2252.24</ele>
        <time>2019-09-07T09:53:03Z</time>
      </trkpt>
      <trkpt lat="45.8384878" lon="7.0472993">
        <ele>2250.76</ele>
        <time>2019-09-07T09:53:13Z</time>
      </trkpt>
      <trkpt lat="45.8386019" lon="7.0472542">
        <ele>2250.24</ele>
        <time>2019-09-07T09:53:21Z</time>
      </trkpt>
      <trkpt lat="45.8386967" lon="7.0471790">
        <ele>2248.04</ele>
        <time>2019-09-07T09:53:31Z</time>
      </trkpt>
      <trkpt lat="45.8387902" lon="7.0471020">
        <ele>2247.94</ele>
        <time>2019-09-07T09:53:41Z</time>
      </trkpt>
      <trkpt lat="45.8388761" lon="7.0470631">
        <ele>2246.97</ele>
        <time>2019-09-07T09:53:49Z</time>
      </trkpt>
      <trkpt lat="45.8389708" lon="7.0470011">
        <ele>2245.95</ele>
        <time>2019-09-07T09:53:57Z</time>
      </trkpt>
      <trkpt lat="45.8390630" lon="7.0469460">
        <ele>2245.65</ele>
        <time>2019-09-07T09:54:05Z</time>
      </trkpt>
      <trkpt lat="45.8391572" lon="7.0469233">
        <ele>2245.03</ele>
        <time>2019-09-07T09:54:13Z</time>
      </trkpt>
      <trkpt lat="45.8392441" lon="7.0468854">
        <ele>2245.06</ele>
        <time>2019-09-07T09:54:21Z</time>
      </trkpt>
      <trkpt lat="45.8393373" lon="7.0468680">
        <ele>2243.24</ele>
        <time>2019-09-07T09:54:31Z</time>
      </trkpt>
      <trkpt lat="45.8394239" lon="7.0468171">
        <ele>2242.94</ele>
        <time>2019-09-07T09:54:39Z</time>
      </trkpt>
      <trkpt lat="45.8395074" lon="7.0467348">
        <ele>2242.94</ele>
        <time>2019-09-07T09:54:47Z</time>
      </trkpt>
      <trkpt lat="45.8396028" lon="7.0466725">
        <ele>2245.37</ele>
        <time>2019-09-07T09:54:55Z</time>
      </trkpt>
      <trkpt lat="45.8396856" lon="7.0465785">
        <ele>2242.95</ele>
        <time>2019-09-07T09:55:05Z</time>
      </trkpt>
      <trkpt lat="45.8397723" lon="7.0464883">
        <ele>2241.95</ele>
        <time>2019-09-07T09:55:15Z</time>
      </trkpt>
      <trkpt lat="45.8398618" lon="7.0464135">
        <ele>2240.27</ele>
        <time>2019-09-07T09:55:27Z</time>
      </trkpt>
      <trkpt lat="45.8399086" lon="7.0463024">
        <ele>2241.43</ele>
        <time>2019-09-07T09:55:35Z</time>
      </trkpt>
      <trkpt lat="45.8399734" lon="7.0461649">
        <ele>2240.07</ele>
        <time>2019-09-07T09:55:45Z</time>
      </trkpt>
      <trkpt lat="45.8400510" lon="7.0460573">
        <ele>2238.95</ele>
        <time>2019-09-07T09:55:53Z</time>
      </trkpt>
      <trkpt lat="45.8401212" lon="7.0459615">
        <ele>2237.97</ele>
        <time>2019-09-07T09:56:01Z</time>
      </trkpt>
      <trkpt lat="45.8401944" lon="7.0458589">
        <ele>2237.09</ele>
        <time>2019-09-07T09:56:11Z</time>
      </trkpt>
      <trkpt lat="45.8402887" lon="7.0457653">
        <ele>2234.98</ele>
        <time>2019-09-07T09:56:19Z</time>
      </trkpt>
      <trkpt lat="45.8403812" lon="7.0456676">
        <ele>2233.94</ele>
        <time>2019-09-07T09:56:29Z</time>
      </trkpt>
      <trkpt lat="45.8404712" lon="7.0455723">
        <ele>2233.94</ele>
        <time>2019-09-07T09:56:37Z</time>
      </trkpt>
      <trkpt lat="45.8405733" lon="7.0455255">
        <ele>2233.18</ele>
        <time>2019-09-07T09:56:45Z</time>
      </trkpt>
      <trkpt lat="45.8406557" lon="7.0454705">
        <ele>2232.94</ele>
        <time>2019-09-07T09:56:55Z</time>
      </trkpt>
      <trkpt lat="45.8407391" lon="7.0454179">
        <ele>2232.03</ele>
        <time>2019-09-07T09:57:03Z</time>
      </trkpt>
      <trkpt lat="45.8408289" lon="7.0453050">
        <ele>2231.94</ele>
        <time>2019-09-07T09:57:11Z</time>
      </trkpt>
      <trkpt lat="45.8409110" lon="7.0452076">
        <ele>2231.18</ele>
        <time>2019-09-07T09:57:19Z</time>
      </trkpt>
      <trkpt lat="45.8409866" lon="7.0450997">
        <ele>2230.94</ele>
        <time>2019-09-07T09:57:27Z</time>
      </trkpt>
      <trkpt lat="45.8410602" lon="7.0450131">
        <ele>2230.94</ele>
        <time>2019-09-07T09:57:35Z</time>
      </trkpt>
      <trkpt lat="45.8411342" lon="7.0449078">
        <ele>2230.24</ele>
        <time>2019-09-07T09:57:43Z</time>
      </trkpt>
      <trkpt lat="45.8412105" lon="7.0447806">
        <ele>2230.15</ele>
        <time>2019-09-07T09:57:51Z</time>
      </trkpt>
      <trkpt lat="45.8412778" lon="7.0446799">
        <ele>2229.94</ele>
        <time>2019-09-07T09:57:59Z</time>
      </trkpt>
      <trkpt lat="45.8413446" lon="7.0445747">
        <ele>2228.95</ele>
        <time>2019-09-07T09:58:07Z</time>
      </trkpt>
      <trkpt lat="45.8414165" lon="7.0444708">
        <ele>2228.24</ele>
        <time>2019-09-07T09:58:15Z</time>
      </trkpt>
      <trkpt lat="45.8414746" lon="7.0443618">
        <ele>2227.96</ele>
        <time>2019-09-07T09:58:23Z</time>
      </trkpt>
      <trkpt lat="45.8415446" lon="7.0442704">
        <ele>2227.94</ele>
        <time>2019-09-07T09:58:29Z</time>
      </trkpt>
      <trkpt lat="45.8416073" lon="7.0441547">
        <ele>2227.94</ele>
        <time>2019-09-07T09:58:39Z</time>
      </trkpt>
      <trkpt lat="45.8416315" lon="7.0440041">
        <ele>2227.94</ele>
        <time>2019-09-07T09:58:49Z</time>
      </trkpt>
      <trkpt lat="45.8416412" lon="7.0438725">
        <ele>2228.93</ele>
        <time>2019-09-07T09:58:59Z</time>
      </trkpt>
      <trkpt lat="45.8416267" lon="7.0437354">
        <ele>2228.94</ele>
        <time>2019-09-07T09:59:07Z</time>
      </trkpt>
      <trkpt lat="45.8416709" lon="7.0435872">
        <ele>2228.01</ele>
        <time>2019-09-07T09:59:15Z</time>
      </trkpt>
      <trkpt lat="45.8417404" lon="7.0434598">
        <ele>2227.86</ele>
        <time>2019-09-07T09:59:26Z</time>
      </trkpt>
      <trkpt lat="45.8417815" lon="7.0433151">
        <ele>2223.15</ele>
        <time>2019-09-07T09:59:36Z</time>
      </trkpt>
      <trkpt lat="45.8418252" lon="7.0431806">
        <ele>2223.83</ele>
        <time>2019-09-07T09:59:44Z</time>
      </trkpt>
      <trkpt lat="45.8419139" lon="7.0431364">
        <ele>2220.59</ele>
        <time>2019-09-07T09:59:50Z</time>
      </trkpt>
      <trkpt lat="45.8419833" lon="7.0430226">
        <ele>2221.15</ele>
        <time>2019-09-07T10:00:02Z</time>
      </trkpt>
      <trkpt lat="45.8420200" lon="7.0428964">
        <ele>2220.04</ele>
        <time>2019-09-07T10:00:16Z</time>
      </trkpt>
      <trkpt lat="45.8420678" lon="7.0427681">
        <ele>2219.94</ele>
        <time>2019-09-07T10:00:26Z</time>
      </trkpt>
      <trkpt lat="45.8421242" lon="7.0426634">
        <ele>2218.94</ele>
        <time>2019-09-07T10:00:38Z</time>
      </trkpt>
      <trkpt lat="45.8421758" lon="7.0425399">
        <ele>2215.98</ele>
        <time>2019-09-07T10:00:54Z</time>
      </trkpt>
      <trkpt lat="45.8422463" lon="7.0424399">
        <ele>2213.03</ele>
        <time>2019-09-07T10:01:08Z</time>
      </trkpt>
      <trkpt lat="45.8423201" lon="7.0423316">
        <ele>2211.97</ele>
        <time>2019-09-07T10:01:20Z</time>
      </trkpt>
      <trkpt lat="45.8423571" lon="7.0422106">
        <ele>2209.25</ele>
        <time>2019-09-07T10:01:36Z</time>
      </trkpt>
      <trkpt lat="45.8424166" lon="7.0421134">
        <ele>2208.87</ele>
        <time>2019-09-07T10:01:48Z</time>
      </trkpt>
      <trkpt lat="45.8424604" lon="7.0419802">
        <ele>2199.07</ele>
        <time>2019-09-07T10:01:58Z</time>
      </trkpt>
      <trkpt lat="45.8425248" lon="7.0418748">
        <ele>2196.60</ele>
        <time>2019-09-07T10:02:06Z</time>
      </trkpt>
      <trkpt lat="45.8425713" lon="7.0417482">
        <ele>2196.95</ele>
        <time>2019-09-07T10:02:16Z</time>
      </trkpt>
      <trkpt lat="45.8426000" lon="7.0416230">
        <ele>2194.04</ele>
        <time>2019-09-07T10:02:28Z</time>
      </trkpt>
      <trkpt lat="45.8426209" lon="7.0414565">
        <ele>2191.25</ele>
        <time>2019-09-07T10:02:40Z</time>
      </trkpt>
      <trkpt lat="45.8426264" lon="7.0413150">
        <ele>2189.97</ele>
        <time>2019-09-07T10:02:48Z</time>
      </trkpt>
      <trkpt lat="45.8426242" lon="7.0411831">
        <ele>2188.04</ele>
        <time>2019-09-07T10:02:56Z</time>
      </trkpt>
      <trkpt lat="45.8426583" lon="7.0410540">
        <ele>2186.97</ele>
        <time>2019-09-07T10:03:04Z</time>
      </trkpt>
      <trkpt lat="45.8426761" lon="7.0409225">
        <ele>2186.88</ele>
        <time>2019-09-07T10:03:12Z</time>
      </trkpt>
      <trkpt lat="45.8426807" lon="7.0407746">
        <ele>2181.32</ele>
        <time>2019-09-07T10:03:24Z</time>
      </trkpt>
      <trkpt lat="45.8427563" lon="7.0406772">
        <ele>2178.94</ele>
        <time>2019-09-07T10:03:30Z</time>
      </trkpt>
      <trkpt lat="45.8428026" lon="7.0405317">
        <ele>2176.74</ele>
        <time>2019-09-07T10:03:40Z</time>
      </trkpt>
      <trkpt lat="45.8428567" lon="7.0404263">
        <ele>2180.33</ele>
        <time>2019-09-07T10:03:48Z</time>
      </trkpt>
      <trkpt lat="45.8428733" lon="7.0402937">
        <ele>2180.46</ele>
        <time>2019-09-07T10:03:56Z</time>
      </trkpt>
      <trkpt lat="45.8429045" lon="7.0401627">
        <ele>2175.38</ele>
        <time>2019-09-07T10:04:04Z</time>
      </trkpt>
      <trkpt lat="45.8429373" lon="7.0400351">
        <ele>2174.04</ele>
        <time>2019-09-07T10:04:12Z</time>
      </trkpt>
      <trkpt lat="45.8429597" lon="7.0398880">
        <ele>2171.27</ele>
        <time>2019-09-07T10:04:22Z</time>
      </trkpt>
      <trkpt lat="45.8430067" lon="7.0397555">
        <ele>2169.24</ele>
        <time>2019-09-07T10:04:34Z</time>
      </trkpt>
      <trkpt lat="45.8430618" lon="7.0396167">
        <ele>2168.03</ele>
        <time>2019-09-07T10:04:42Z</time>
      </trkpt>
      <trkpt lat="45.8431153" lon="7.0394762">
        <ele>2167.24</ele>
        <time>2019-09-07T10:04:50Z</time>
      </trkpt>
      <trkpt lat="45.8431686" lon="7.0393423">
        <ele>2165.97</ele>
        <time>2019-09-07T10:04:58Z</time>
      </trkpt>
      <trkpt lat="45.8431792" lon="7.0391953">
        <ele>2165.01</ele>
        <time>2019-09-07T10:05:08Z</time>
      </trkpt>
      <trkpt lat="45.8431970" lon="7.0390611">
        <ele>2163.03</ele>
        <time>2019-09-07T10:05:20Z</time>
      </trkpt>
      <trkpt lat="45.8432180" lon="7.0389226">
        <ele>2161.97</ele>
        <time>2019-09-07T10:05:28Z</time>
      </trkpt>
      <trkpt lat="45.8432796" lon="7.0388121">
        <ele>2161.01</ele>
        <time>2019-09-07T10:05:38Z</time>
      </trkpt>
      <trkpt lat="45.8433047" lon="7.0386599">
        <ele>2159.04</ele>
        <time>2019-09-07T10:05:46Z</time>
      </trkpt>
      <trkpt lat="45.8433217" lon="7.0385261">
        <ele>2157.04</ele>
        <time>2019-09-07T10:05:54Z</time>
      </trkpt>
      <trkpt lat="45.8433327" lon="7.0383705">
        <ele>2154.97</ele>
        <time>2019-09-07T10:06:04Z</time>
      </trkpt>
      <trkpt lat="45.8433743" lon="7.0382422">
        <ele>2153.04</ele>
        <time>2019-09-07T10:06:12Z</time>
      </trkpt>
      <trkpt lat="45.8434614" lon="7.0381380">
        <ele>2152.24</ele>
        <time>2019-09-07T10:06:20Z</time>
      </trkpt>
      <trkpt lat="45.8435304" lon="7.0380445">
        <ele>2151.94</ele>
        <time>2019-09-07T10:06:28Z</time>
      </trkpt>
      <trkpt lat="45.8436084" lon="7.0379366">
        <ele>2152.49</ele>
        <time>2019-09-07T10:06:36Z</time>
      </trkpt>
      <trkpt lat="45.8436942" lon="7.0378937">
        <ele>2148.08</ele>
        <time>2019-09-07T10:06:44Z</time>
      </trkpt>
      <trkpt lat="45.8437727" lon="7.0378165">
        <ele>2147.03</ele>
        <time>2019-09-07T10:06:52Z</time>
      </trkpt>
      <trkpt lat="45.8438491" lon="7.0377390">
        <ele>2145.27</ele>
        <time>2019-09-07T10:07:00Z</time>
      </trkpt>
      <trkpt lat="45.8439209" lon="7.0376418">
        <ele>2147.74</ele>
        <time>2019-09-07T10:07:08Z</time>
      </trkpt>
      <trkpt lat="45.8439957" lon="7.0375696">
        <ele>2144.17</ele>
        <time>2019-09-07T10:07:14Z</time>
      </trkpt>
      <trkpt lat="45.8440634" lon="7.0374457">
        <ele>2142.04</ele>
        <time>2019-09-07T10:07:22Z</time>
      </trkpt>
      <trkpt lat="45.8441537" lon="7.0373580">
        <ele>2140.30</ele>
        <time>2019-09-07T10:07:32Z</time>
      </trkpt>
      <trkpt lat="45.8442505" lon="7.0372891">
        <ele>2137.97</ele>
        <time>2019-09-07T10:07:42Z</time>
      </trkpt>
      <trkpt lat="45.8443213" lon="7.0371922">
        <ele>2136.03</ele>
        <time>2019-09-07T10:07:52Z</time>
      </trkpt>
      <trkpt lat="45.8444136" lon="7.0371786">
        <ele>2134.03</ele>
        <time>2019-09-07T10:08:02Z</time>
      </trkpt>
      <trkpt lat="45.8444982" lon="7.0371010">
        <ele>2131.06</ele>
        <time>2019-09-07T10:08:12Z</time>
      </trkpt>
      <trkpt lat="45.8445663" lon="7.0370163">
        <ele>2133.23</ele>
        <time>2019-09-07T10:08:22Z</time>
      </trkpt>
      <trkpt lat="45.8446255" lon="7.0368868">
        <ele>2126.28</ele>
        <time>2019-09-07T10:08:34Z</time>
      </trkpt>
      <trkpt lat="45.8446659" lon="7.0367662">
        <ele>2123.27</ele>
        <time>2019-09-07T10:08:48Z</time>
      </trkpt>
      <trkpt lat="45.8447542" lon="7.0366990">
        <ele>2119.37</ele>
        <time>2019-09-07T10:08:58Z</time>
      </trkpt>
      <trkpt lat="45.8447293" lon="7.0365650">
        <ele>2110.21</ele>
        <time>2019-09-07T10:09:18Z</time>
      </trkpt>
      <trkpt lat="45.8447730" lon="7.0364452">
        <ele>2107.07</ele>
        <time>2019-09-07T10:09:28Z</time>
      </trkpt>
      <trkpt lat="45.8448320" lon="7.0363237">
        <ele>2104.98</ele>
        <time>2019-09-07T10:09:36Z</time>
      </trkpt>
      <trkpt lat="45.8449149" lon="7.0362250">
        <ele>2103.06</ele>
        <time>2019-09-07T10:09:48Z</time>
      </trkpt>
      <trkpt lat="45.8449711" lon="7.0361214">
        <ele>2102.03</ele>
        <time>2019-09-07T10:09:56Z</time>
      </trkpt>
      <trkpt lat="45.8450500" lon="7.0360380">
        <ele>2100.03</ele>
        <time>2019-09-07T10:10:06Z</time>
      </trkpt>
      <trkpt lat="45.8451090" lon="7.0359394">
        <ele>2098.25</ele>
        <time>2019-09-07T10:10:14Z</time>
      </trkpt>
      <trkpt lat="45.8452076" lon="7.0359351">
        <ele>2096.04</ele>
        <time>2019-09-07T10:10:26Z</time>
      </trkpt>
      <trkpt lat="45.8452294" lon="7.0357893">
        <ele>2097.66</ele>
        <time>2019-09-07T10:10:38Z</time>
      </trkpt>
      <trkpt lat="45.8452526" lon="7.0356611">
        <ele>2092.97</ele>
        <time>2019-09-07T10:10:52Z</time>
      </trkpt>
      <trkpt lat="45.8453276" lon="7.0355678">
        <ele>2089.95</ele>
        <time>2019-09-07T10:11:04Z</time>
      </trkpt>
      <trkpt lat="45.8454040" lon="7.0354965">
        <ele>2087.04</ele>
        <time>2019-09-07T10:11:16Z</time>
      </trkpt>
      <trkpt lat="45.8454627" lon="7.0353872">
        <ele>2082.28</ele>
        <time>2019-09-07T10:11:31Z</time>
      </trkpt>
      <trkpt lat="45.8455551" lon="7.0353416">
        <ele>2079.06</ele>
        <time>2019-09-07T10:11:41Z</time>
      </trkpt>
      <trkpt lat="45.8456397" lon="7.0352871">
        <ele>2074.04</ele>
        <time>2019-09-07T10:12:03Z</time>
      </trkpt>
      <trkpt lat="45.8457243" lon="7.0352295">
        <ele>2075.46</ele>
        <time>2019-09-07T10:12:16Z</time>
      </trkpt>
      <trkpt lat="45.8458245" lon="7.0351440">
        <ele>2070.44</ele>
        <time>2019-09-07T10:12:24Z</time>
      </trkpt>
      <trkpt lat="45.8459006" lon="7.0350587">
        <ele>2067.28</ele>
        <time>2019-09-07T10:12:34Z</time>
      </trkpt>
      <trkpt lat="45.8459966" lon="7.0350114">
        <ele>2064.27</ele>
        <time>2019-09-07T10:12:46Z</time>
      </trkpt>
      <trkpt lat="45.8460876" lon="7.0349579">
        <ele>2062.97</ele>
        <time>2019-09-07T10:12:56Z</time>
      </trkpt>
      <trkpt lat="45.8461960" lon="7.0349754">
        <ele>2059.98</ele>
        <time>2019-09-07T10:13:08Z</time>
      </trkpt>
      <trkpt lat="45.8462863" lon="7.0349523">
        <ele>2056.28</ele>
        <time>2019-09-07T10:13:20Z</time>
      </trkpt>
      <trkpt lat="45.8463736" lon="7.0348614">
        <ele>2056.87</ele>
        <time>2019-09-07T10:13:34Z</time>
      </trkpt>
      <trkpt lat="45.8464584" lon="7.0348058">
        <ele>2045.91</ele>
        <time>2019-09-07T10:19:39Z</time>
      </trkpt>
      <trkpt lat="45.8465069" lon="7.0346942">
        <ele>2044.14</ele>
        <time>2019-09-07T10:19:50Z</time>
      </trkpt>
      <trkpt lat="45.8465450" lon="7.0345546">
        <ele>2043.24</ele>
        <time>2019-09-07T10:19:58Z</time>
      </trkpt>
      <trkpt lat="45.8465904" lon="7.0344408">
        <ele>2042.24</ele>
        <time>2019-09-07T10:20:06Z</time>
      </trkpt>
      <trkpt lat="45.8466027" lon="7.0342961">
        <ele>2040.97</ele>
        <time>2019-09-07T10:20:14Z</time>
      </trkpt>
      <trkpt lat="45.8466520" lon="7.0341622">
        <ele>2038.97</ele>
        <time>2019-09-07T10:20:24Z</time>
      </trkpt>
      <trkpt lat="45.8467080" lon="7.0340152">
        <ele>2037.24</ele>
        <time>2019-09-07T10:20:34Z</time>
      </trkpt>
      <trkpt lat="45.8466707" lon="7.0338907">
        <ele>2035.95</ele>
        <time>2019-09-07T10:20:42Z</time>
      </trkpt>
      <trkpt lat="45.8466623" lon="7.0337410">
        <ele>2034.95</ele>
        <time>2019-09-07T10:20:50Z</time>
      </trkpt>
      <trkpt lat="45.8466761" lon="7.0336076">
        <ele>2033.27</ele>
        <time>2019-09-07T10:20:58Z</time>
      </trkpt>
      <trkpt lat="45.8466865" lon="7.0334653">
        <ele>2031.97</ele>
        <time>2019-09-07T10:21:06Z</time>
      </trkpt>
      <trkpt lat="45.8467393" lon="7.0333343">
        <ele>2031.24</ele>
        <time>2019-09-07T10:21:14Z</time>
      </trkpt>
      <trkpt lat="45.8468022" lon="7.0332134">
        <ele>2030.94</ele>
        <time>2019-09-07T10:21:22Z</time>
      </trkpt>
      <trkpt lat="45.8468565" lon="7.0333408">
        <ele>2029.04</ele>
        <time>2019-09-07T10:21:36Z</time>
      </trkpt>
      <trkpt lat="45.8468394" lon="7.0334982">
        <ele>2027.97</ele>
        <time>2019-09-07T10:21:44Z</time>
      </trkpt>
      <trkpt lat="45.8469264" lon="7.0334387">
        <ele>2027.24</ele>
        <time>2019-09-07T10:22:04Z</time>
      </trkpt>
      <trkpt lat="45.8470144" lon="7.0335061">
        <ele>2026.94</ele>
        <time>2019-09-07T10:22:14Z</time>
      </trkpt>
      <trkpt lat="45.8469262" lon="7.0334404">
        <ele>2020.04</ele>
        <time>2019-09-07T10:25:22Z</time>
      </trkpt>
      <trkpt lat="45.8468285" lon="7.0335034">
        <ele>2019.88</ele>
        <time>2019-09-07T10:25:31Z</time>
      </trkpt>
      <trkpt lat="45.8469040" lon="7.0334287">
        <ele>2020.16</ele>
        <time>2019-09-07T11:09:12Z</time>
      </trkpt>
      <trkpt lat="45.8469471" lon="7.0335556">
        <ele>2024.01</ele>
        <time>2019-09-07T11:10:08Z</time>
      </trkpt>
      <trkpt lat="45.8470030" lon="7.0336569">
        <ele>2024.94</ele>
        <time>2019-09-07T11:11:02Z</time>
      </trkpt>
      <trkpt lat="45.8470620" lon="7.0337601">
        <ele>2026.13</ele>
        <time>2019-09-07T11:11:10Z</time>
      </trkpt>
      <trkpt lat="45.8471139" lon="7.0338695">
        <ele>2022.34</ele>
        <time>2019-09-07T11:11:20Z</time>
      </trkpt>
      <trkpt lat="45.8470541" lon="7.0339988">
        <ele>2021.71</ele>
        <time>2019-09-07T11:11:32Z</time>
      </trkpt>
      <trkpt lat="45.8470843" lon="7.0341488">
        <ele>2021.25</ele>
        <time>2019-09-07T11:11:44Z</time>
      </trkpt>
      <trkpt lat="45.8469980" lon="7.0342010">
        <ele>2024.93</ele>
        <time>2019-09-07T11:12:04Z</time>
      </trkpt>
      <trkpt lat="45.8469202" lon="7.0342735">
        <ele>2026.85</ele>
        <time>2019-09-07T11:12:18Z</time>
      </trkpt>
      <trkpt lat="45.8468571" lon="7.0343738">
        <ele>2028.61</ele>
        <time>2019-09-07T11:12:30Z</time>
      </trkpt>
      <trkpt lat="45.8467753" lon="7.0344471">
        <ele>2029.94</ele>
        <time>2019-09-07T11:12:48Z</time>
      </trkpt>
      <trkpt lat="45.8466966" lon="7.0345150">
        <ele>2032.92</ele>
        <time>2019-09-07T11:13:06Z</time>
      </trkpt>
      <trkpt lat="45.8466277" lon="7.0346282">
        <ele>2034.82</ele>
        <time>2019-09-07T11:13:22Z</time>
      </trkpt>
      <trkpt lat="45.8465497" lon="7.0347281">
        <ele>2037.84</ele>
        <time>2019-09-07T11:13:36Z</time>
      </trkpt>
      <trkpt lat="45.8464702" lon="7.0348067">
        <ele>2040.84</ele>
        <time>2019-09-07T11:13:50Z</time>
      </trkpt>
      <trkpt lat="45.8464418" lon="7.0349505">
        <ele>2040.95</ele>
        <time>2019-09-07T11:14:04Z</time>
      </trkpt>
      <trkpt lat="45.8464000" lon="7.0350791">
        <ele>2041.93</ele>
        <time>2019-09-07T11:14:16Z</time>
      </trkpt>
      <trkpt lat="45.8463629" lon="7.0352119">
        <ele>2042.92</ele>
        <time>2019-09-07T11:14:26Z</time>
      </trkpt>
      <trkpt lat="45.8463213" lon="7.0353350">
        <ele>2043.72</ele>
        <time>2019-09-07T11:14:36Z</time>
      </trkpt>
      <trkpt lat="45.8463090" lon="7.0354702">
        <ele>2042.95</ele>
        <time>2019-09-07T11:14:46Z</time>
      </trkpt>
      <trkpt lat="45.8462994" lon="7.0356119">
        <ele>2043.01</ele>
        <time>2019-09-07T11:14:56Z</time>
      </trkpt>
      <trkpt lat="45.8463043" lon="7.0357582">
        <ele>2040.34</ele>
        <time>2019-09-07T11:15:06Z</time>
      </trkpt>
      <trkpt lat="45.8463394" lon="7.0358913">
        <ele>2039.95</ele>
        <time>2019-09-07T11:15:16Z</time>
      </trkpt>
      <trkpt lat="45.8463400" lon="7.0360261">
        <ele>2039.67</ele>
        <time>2019-09-07T11:15:26Z</time>
      </trkpt>
      <trkpt lat="45.8463071" lon="7.0361513">
        <ele>2038.94</ele>
        <time>2019-09-07T11:15:36Z</time>
      </trkpt>
      <trkpt lat="45.8462711" lon="7.0362887">
        <ele>2038.03</ele>
        <time>2019-09-07T11:15:46Z</time>
      </trkpt>
      <trkpt lat="45.8462742" lon="7.0364182">
        <ele>2037.94</ele>
        <time>2019-09-07T11:15:56Z</time>
      </trkpt>
      <trkpt lat="45.8463541" lon="7.0365155">
        <ele>2037.94</ele>
        <time>2019-09-07T11:16:10Z</time>
      </trkpt>
      <trkpt lat="45.8464534" lon="7.0365518">
        <ele>2038.64</ele>
        <time>2019-09-07T11:16:20Z</time>
      </trkpt>
      <trkpt lat="45.8465475" lon="7.0365473">
        <ele>2039.91</ele>
        <time>2019-09-07T11:16:30Z</time>
      </trkpt>
      <trkpt lat="45.8466423" lon="7.0365783">
        <ele>2039.03</ele>
        <time>2019-09-07T11:16:38Z</time>
      </trkpt>
      <trkpt lat="45.8467384" lon="7.0366101">
        <ele>2037.97</ele>
        <time>2019-09-07T11:16:46Z</time>
      </trkpt>
      <trkpt lat="45.8468427" lon="7.0366579">
        <ele>2037.94</ele>
        <time>2019-09-07T11:16:56Z</time>
      </trkpt>
      <trkpt lat="45.8469376" lon="7.0366857">
        <ele>2037.24</ele>
        <time>2019-09-07T11:17:06Z</time>
      </trkpt>
      <trkpt lat="45.8470300" lon="7.0367262">
        <ele>2036.32</ele>
        <time>2019-09-07T11:17:16Z</time>
      </trkpt>
      <trkpt lat="45.8470539" lon="7.0368564">
        <ele>2035.25</ele>
        <time>2019-09-07T11:17:24Z</time>
      </trkpt>
      <trkpt lat="45.8470838" lon="7.0369885">
        <ele>2034.94</ele>
        <time>2019-09-07T11:17:32Z</time>
      </trkpt>
      <trkpt lat="45.8470955" lon="7.0371262">
        <ele>2033.25</ele>
        <time>2019-09-07T11:17:40Z</time>
      </trkpt>
      <trkpt lat="45.8471418" lon="7.0372404">
        <ele>2033.03</ele>
        <time>2019-09-07T11:17:50Z</time>
      </trkpt>
      <trkpt lat="45.8472399" lon="7.0372209">
        <ele>2032.94</ele>
        <time>2019-09-07T11:18:00Z</time>
      </trkpt>
      <trkpt lat="45.8473352" lon="7.0371825">
        <ele>2031.25</ele>
        <time>2019-09-07T11:18:10Z</time>
      </trkpt>
      <trkpt lat="45.8474252" lon="7.0372064">
        <ele>2030.03</ele>
        <time>2019-09-07T11:18:20Z</time>
      </trkpt>
      <trkpt lat="45.8475221" lon="7.0372171">
        <ele>2029.24</ele>
        <time>2019-09-07T11:18:34Z</time>
      </trkpt>
      <trkpt lat="45.8475676" lon="7.0373476">
        <ele>2026.80</ele>
        <time>2019-09-07T11:18:46Z</time>
      </trkpt>
      <trkpt lat="45.8476191" lon="7.0374687">
        <ele>2028.21</ele>
        <time>2019-09-07T11:18:56Z</time>
      </trkpt>
      <trkpt lat="45.8477004" lon="7.0375730">
        <ele>2027.94</ele>
        <time>2019-09-07T11:19:06Z</time>
      </trkpt>
      <trkpt lat="45.8477374" lon="7.0377058">
        <ele>2027.94</ele>
        <time>2019-09-07T11:19:16Z</time>
      </trkpt>
      <trkpt lat="45.8478173" lon="7.0378153">
        <ele>2027.94</ele>
        <time>2019-09-07T11:19:26Z</time>
      </trkpt>
      <trkpt lat="45.8479136" lon="7.0378547">
        <ele>2027.24</ele>
        <time>2019-09-07T11:19:34Z</time>
      </trkpt>
      <trkpt lat="45.8480080" lon="7.0378349">
        <ele>2025.97</ele>
        <time>2019-09-07T11:19:44Z</time>
      </trkpt>
      <trkpt lat="45.8480788" lon="7.0377355">
        <ele>2025.94</ele>
        <time>2019-09-07T11:19:54Z</time>
      </trkpt>
      <trkpt lat="45.8481843" lon="7.0377104">
        <ele>2025.24</ele>
        <time>2019-09-07T11:20:04Z</time>
      </trkpt>
      <trkpt lat="45.8482874" lon="7.0376634">
        <ele>2024.94</ele>
        <time>2019-09-07T11:20:14Z</time>
      </trkpt>
      <trkpt lat="45.8483802" lon="7.0375868">
        <ele>2024.94</ele>
        <time>2019-09-07T11:20:24Z</time>
      </trkpt>
      <trkpt lat="45.8484647" lon="7.0375053">
        <ele>2023.94</ele>
        <time>2019-09-07T11:20:34Z</time>
      </trkpt>
      <trkpt lat="45.8485611" lon="7.0374572">
        <ele>2023.94</ele>
        <time>2019-09-07T11:20:42Z</time>
      </trkpt>
      <trkpt lat="45.8486522" lon="7.0373988">
        <ele>2023.24</ele>
        <time>2019-09-07T11:20:50Z</time>
      </trkpt>
      <trkpt lat="45.8487349" lon="7.0373245">
        <ele>2022.94</ele>
        <time>2019-09-07T11:20:58Z</time>
      </trkpt>
      <trkpt lat="45.8488101" lon="7.0372374">
        <ele>2022.03</ele>
        <time>2019-09-07T11:21:06Z</time>
      </trkpt>
      <trkpt lat="45.8488734" lon="7.0371383">
        <ele>2021.03</ele>
        <time>2019-09-07T11:21:14Z</time>
      </trkpt>
      <trkpt lat="45.8489375" lon="7.0370239">
        <ele>2020.03</ele>
        <time>2019-09-07T11:21:22Z</time>
      </trkpt>
      <trkpt lat="45.8489994" lon="7.0369058">
        <ele>2019.03</ele>
        <time>2019-09-07T11:21:30Z</time>
      </trkpt>
      <trkpt lat="45.8490615" lon="7.0367899">
        <ele>2018.24</ele>
        <time>2019-09-07T11:21:40Z</time>
      </trkpt>
      <trkpt lat="45.8491340" lon="7.0366900">
        <ele>2017.03</ele>
        <time>2019-09-07T11:21:50Z</time>
      </trkpt>
      <trkpt lat="45.8492120" lon="7.0365993">
        <ele>2016.94</ele>
        <time>2019-09-07T11:21:58Z</time>
      </trkpt>
      <trkpt lat="45.8493041" lon="7.0365089">
        <ele>2015.03</ele>
        <time>2019-09-07T11:22:08Z</time>
      </trkpt>
      <trkpt lat="45.8494068" lon="7.0364594">
        <ele>2014.24</ele>
        <time>2019-09-07T11:22:18Z</time>
      </trkpt>
      <trkpt lat="45.8495126" lon="7.0364449">
        <ele>2013.94</ele>
        <time>2019-09-07T11:22:28Z</time>
      </trkpt>
      <trkpt lat="45.8495983" lon="7.0364974">
        <ele>2014.04</ele>
        <time>2019-09-07T11:22:38Z</time>
      </trkpt>
      <trkpt lat="45.8496318" lon="7.0366441">
        <ele>2011.95</ele>
        <time>2019-09-07T11:22:48Z</time>
      </trkpt>
      <trkpt lat="45.8496055" lon="7.0367814">
        <ele>2010.97</ele>
        <time>2019-09-07T11:22:56Z</time>
      </trkpt>
      <trkpt lat="45.8495940" lon="7.0369143">
        <ele>2010.94</ele>
        <time>2019-09-07T11:23:04Z</time>
      </trkpt>
      <trkpt lat="45.8496344" lon="7.0370358">
        <ele>2010.94</ele>
        <time>2019-09-07T11:23:14Z</time>
      </trkpt>
      <trkpt lat="45.8497412" lon="7.0370579">
        <ele>2008.06</ele>
        <time>2019-09-07T11:23:24Z</time>
      </trkpt>
      <trkpt lat="45.8498373" lon="7.0371262">
        <ele>2006.94</ele>
        <time>2019-09-07T11:23:34Z</time>
      </trkpt>
      <trkpt lat="45.8499206" lon="7.0371847">
        <ele>2006.24</ele>
        <time>2019-09-07T11:23:44Z</time>
      </trkpt>
      <trkpt lat="45.8499980" lon="7.0372794">
        <ele>2005.73</ele>
        <time>2019-09-07T11:23:56Z</time>
      </trkpt>
      <trkpt lat="45.8500896" lon="7.0372602">
        <ele>2006.21</ele>
        <time>2019-09-07T11:24:06Z</time>
      </trkpt>
      <trkpt lat="45.8501801" lon="7.0372941">
        <ele>2006.85</ele>
        <time>2019-09-07T11:24:16Z</time>
      </trkpt>
      <trkpt lat="45.8502778" lon="7.0373716">
        <ele>2007.85</ele>
        <time>2019-09-07T11:24:28Z</time>
      </trkpt>
      <trkpt lat="45.8503612" lon="7.0374263">
        <ele>2007.24</ele>
        <time>2019-09-07T11:24:38Z</time>
      </trkpt>
      <trkpt lat="45.8504496" lon="7.0374939">
        <ele>2006.94</ele>
        <time>2019-09-07T11:24:48Z</time>
      </trkpt>
      <trkpt lat="45.8505309" lon="7.0375672">
        <ele>2007.24</ele>
        <time>2019-09-07T11:24:58Z</time>
      </trkpt>
      <trkpt lat="45.8506304" lon="7.0376382">
        <ele>2007.94</ele>
        <time>2019-09-07T11:25:10Z</time>
      </trkpt>
      <trkpt lat="45.8507252" lon="7.0376740">
        <ele>2008.87</ele>
        <time>2019-09-07T11:25:20Z</time>
      </trkpt>
      <trkpt lat="45.8508289" lon="7.0377328">
        <ele>2009.91</ele>
        <time>2019-09-07T11:25:30Z</time>
      </trkpt>
      <trkpt lat="45.8509178" lon="7.0377722">
        <ele>2010.64</ele>
        <time>2019-09-07T11:25:38Z</time>
      </trkpt>
      <trkpt lat="45.8510109" lon="7.0377957">
        <ele>2012.82</ele>
        <time>2019-09-07T11:25:50Z</time>
      </trkpt>
      <trkpt lat="45.8511050" lon="7.0378337">
        <ele>2013.64</ele>
        <time>2019-09-07T11:26:00Z</time>
      </trkpt>
      <trkpt lat="45.8512077" lon="7.0378813">
        <ele>2013.85</ele>
        <time>2019-09-07T11:26:10Z</time>
      </trkpt>
      <trkpt lat="45.8512984" lon="7.0379162">
        <ele>2013.94</ele>
        <time>2019-09-07T11:26:20Z</time>
      </trkpt>
      <trkpt lat="45.8513838" lon="7.0379656">
        <ele>2014.85</ele>
        <time>2019-09-07T11:26:28Z</time>
      </trkpt>
      <trkpt lat="45.8514744" lon="7.0380053">
        <ele>2015.85</ele>
        <time>2019-09-07T11:26:38Z</time>
      </trkpt>
      <trkpt lat="45.8515677" lon="7.0380349">
        <ele>2017.64</ele>
        <time>2019-09-07T11:26:48Z</time>
      </trkpt>
      <trkpt lat="45.8516614" lon="7.0380485">
        <ele>2018.83</ele>
        <time>2019-09-07T11:26:58Z</time>
      </trkpt>
      <trkpt lat="45.8517596" lon="7.0380644">
        <ele>2019.93</ele>
        <time>2019-09-07T11:27:08Z</time>
      </trkpt>
      <trkpt lat="45.8518422" lon="7.0381256">
        <ele>2021.91</ele>
        <time>2019-09-07T11:27:18Z</time>
      </trkpt>
      <trkpt lat="45.8519346" lon="7.0381683">
        <ele>2023.82</ele>
        <time>2019-09-07T11:27:28Z</time>
      </trkpt>
      <trkpt lat="45.8520360" lon="7.0382100">
        <ele>2024.85</ele>
        <time>2019-09-07T11:27:38Z</time>
      </trkpt>
      <trkpt lat="45.8521384" lon="7.0382092">
        <ele>2026.85</ele>
        <time>2019-09-07T11:27:50Z</time>
      </trkpt>
      <trkpt lat="45.8522321" lon="7.0382619">
        <ele>2027.93</ele>
        <time>2019-09-07T11:28:00Z</time>
      </trkpt>
      <trkpt lat="45.8523269" lon="7.0383002">
        <ele>2028.92</ele>
        <time>2019-09-07T11:28:10Z</time>
      </trkpt>
      <trkpt lat="45.8524250" lon="7.0382976">
        <ele>2030.91</ele>
        <time>2019-09-07T11:28:20Z</time>
      </trkpt>
      <trkpt lat="45.8525163" lon="7.0383060">
        <ele>2031.85</ele>
        <time>2019-09-07T11:28:28Z</time>
      </trkpt>
      <trkpt lat="45.8526087" lon="7.0383391">
        <ele>2031.94</ele>
        <time>2019-09-07T11:28:38Z</time>
      </trkpt>
      <trkpt lat="45.8526944" lon="7.0383884">
        <ele>2033.64</ele>
        <time>2019-09-07T11:28:48Z</time>
      </trkpt>
      <trkpt lat="45.8527966" lon="7.0384082">
        <ele>2034.15</ele>
        <time>2019-09-07T11:29:00Z</time>
      </trkpt>
      <trkpt lat="45.8528981" lon="7.0384311">
        <ele>2036.84</ele>
        <time>2019-09-07T11:29:12Z</time>
      </trkpt>
      <trkpt lat="45.8530003" lon="7.0384675">
        <ele>2038.91</ele>
        <time>2019-09-07T11:29:26Z</time>
      </trkpt>
      <trkpt lat="45.8530924" lon="7.0384971">
        <ele>2038.94</ele>
        <time>2019-09-07T11:29:38Z</time>
      </trkpt>
      <trkpt lat="45.8531958" lon="7.0385360">
        <ele>2040.85</ele>
        <time>2019-09-07T11:29:50Z</time>
      </trkpt>
      <trkpt lat="45.8532888" lon="7.0385424">
        <ele>2042.00</ele>
        <time>2019-09-07T11:30:02Z</time>
      </trkpt>
      <trkpt lat="45.8533734" lon="7.0385865">
        <ele>2042.92</ele>
        <time>2019-09-07T11:30:12Z</time>
      </trkpt>
      <trkpt lat="45.8534671" lon="7.0386264">
        <ele>2043.94</ele>
        <time>2019-09-07T11:30:24Z</time>
      </trkpt>
      <trkpt lat="45.8535548" lon="7.0386617">
        <ele>2045.64</ele>
        <time>2019-09-07T11:30:36Z</time>
      </trkpt>
      <trkpt lat="45.8536581" lon="7.0386812">
        <ele>2049.81</ele>
        <time>2019-09-07T11:30:50Z</time>
      </trkpt>
      <trkpt lat="45.8537600" lon="7.0386720">
        <ele>2051.61</ele>
        <time>2019-09-07T11:31:00Z</time>
      </trkpt>
      <trkpt lat="45.8538597" lon="7.0387108">
        <ele>2052.64</ele>
        <time>2019-09-07T11:31:10Z</time>
      </trkpt>
      <trkpt lat="45.8539529" lon="7.0387457">
        <ele>2053.64</ele>
        <time>2019-09-07T11:31:20Z</time>
      </trkpt>
      <trkpt lat="45.8540561" lon="7.0387812">
        <ele>2054.85</ele>
        <time>2019-09-07T11:31:32Z</time>
      </trkpt>
      <trkpt lat="45.8541437" lon="7.0388135">
        <ele>2055.85</ele>
        <time>2019-09-07T11:31:42Z</time>
      </trkpt>
      <trkpt lat="45.8542248" lon="7.0388877">
        <ele>2058.55</ele>
        <time>2019-09-07T11:31:52Z</time>
      </trkpt>
      <trkpt lat="45.8543301" lon="7.0388482">
        <ele>2060.82</ele>
        <time>2019-09-07T11:32:06Z</time>
      </trkpt>
      <trkpt lat="45.8544211" lon="7.0388200">
        <ele>2073.86</ele>
        <time>2019-09-07T11:34:14Z</time>
      </trkpt>
      <trkpt lat="45.8545527" lon="7.0388237">
        <ele>2076.34</ele>
        <time>2019-09-07T11:35:51Z</time>
      </trkpt>
      <trkpt lat="45.8546801" lon="7.0388822">
        <ele>2074.07</ele>
        <time>2019-09-07T11:35:57Z</time>
      </trkpt>
      <trkpt lat="45.8547605" lon="7.0389555">
        <ele>2073.74</ele>
        <time>2019-09-07T11:36:01Z</time>
      </trkpt>
      <trkpt lat="45.8548389" lon="7.0390501">
        <ele>2070.49</ele>
        <time>2019-09-07T11:36:05Z</time>
      </trkpt>
      <trkpt lat="45.8549093" lon="7.0391480">
        <ele>2069.29</ele>
        <time>2019-09-07T11:36:09Z</time>
      </trkpt>
      <trkpt lat="45.8550073" lon="7.0392449">
        <ele>2067.71</ele>
        <time>2019-09-07T11:36:15Z</time>
      </trkpt>
      <trkpt lat="45.8550381" lon="7.0393914">
        <ele>2075.53</ele>
        <time>2019-09-07T11:36:23Z</time>
      </trkpt>
      <trkpt lat="45.8551278" lon="7.0394670">
        <ele>2071.26</ele>
        <time>2019-09-07T11:36:33Z</time>
      </trkpt>
      <trkpt lat="45.8551954" lon="7.0395985">
        <ele>2069.97</ele>
        <time>2019-09-07T11:36:41Z</time>
      </trkpt>
      <trkpt lat="45.8552705" lon="7.0397233">
        <ele>2070.92</ele>
        <time>2019-09-07T11:36:49Z</time>
      </trkpt>
      <trkpt lat="45.8553409" lon="7.0398136">
        <ele>2070.03</ele>
        <time>2019-09-07T11:36:57Z</time>
      </trkpt>
      <trkpt lat="45.8554261" lon="7.0398804">
        <ele>2069.92</ele>
        <time>2019-09-07T11:37:22Z</time>
      </trkpt>
      <trkpt lat="45.8554797" lon="7.0399936">
        <ele>2066.64</ele>
        <time>2019-09-07T11:37:30Z</time>
      </trkpt>
      <trkpt lat="45.8555706" lon="7.0400523">
        <ele>2063.17</ele>
        <time>2019-09-07T11:37:37Z</time>
      </trkpt>
      <trkpt lat="45.8556493" lon="7.0401704">
        <ele>2062.08</ele>
        <time>2019-09-07T11:37:45Z</time>
      </trkpt>
      <trkpt lat="45.8557371" lon="7.0403058">
        <ele>2064.47</ele>
        <time>2019-09-07T11:37:51Z</time>
      </trkpt>
      <trkpt lat="45.8558000" lon="7.0404066">
        <ele>2063.50</ele>
        <time>2019-09-07T11:37:55Z</time>
      </trkpt>
      <trkpt lat="45.8558794" lon="7.0405439">
        <ele>2063.72</ele>
        <time>2019-09-07T11:38:01Z</time>
      </trkpt>
      <trkpt lat="45.8559753" lon="7.0406289">
        <ele>2062.31</ele>
        <time>2019-09-07T11:38:05Z</time>
      </trkpt>
      <trkpt lat="45.8560533" lon="7.0407838">
        <ele>2061.31</ele>
        <time>2019-09-07T11:38:11Z</time>
      </trkpt>
      <trkpt lat="45.8561084" lon="7.0409129">
        <ele>2059.16</ele>
        <time>2019-09-07T11:38:15Z</time>
      </trkpt>
      <trkpt lat="45.8561841" lon="7.0410297">
        <ele>2055.32</ele>
        <time>2019-09-07T11:38:19Z</time>
      </trkpt>
      <trkpt lat="45.8562720" lon="7.0411688">
        <ele>2050.70</ele>
        <time>2019-09-07T11:38:25Z</time>
      </trkpt>
      <trkpt lat="45.8563218" lon="7.0412771">
        <ele>2050.92</ele>
        <time>2019-09-07T11:38:29Z</time>
      </trkpt>
      <trkpt lat="45.8564292" lon="7.0413665">
        <ele>2047.05</ele>
        <time>2019-09-07T11:38:35Z</time>
      </trkpt>
      <trkpt lat="45.8564443" lon="7.0415056">
        <ele>2045.75</ele>
        <time>2019-09-07T11:38:41Z</time>
      </trkpt>
      <trkpt lat="45.8564608" lon="7.0416520">
        <ele>2043.84</ele>
        <time>2019-09-07T11:38:47Z</time>
      </trkpt>
      <trkpt lat="45.8564718" lon="7.0417851">
        <ele>2041.14</ele>
        <time>2019-09-07T11:38:53Z</time>
      </trkpt>
      <trkpt lat="45.8565157" lon="7.0419660">
        <ele>2037.31</ele>
        <time>2019-09-07T11:39:02Z</time>
      </trkpt>
      <trkpt lat="45.8565513" lon="7.0421135">
        <ele>2037.94</ele>
        <time>2019-09-07T11:39:10Z</time>
      </trkpt>
      <trkpt lat="45.8565793" lon="7.0422446">
        <ele>2039.27</ele>
        <time>2019-09-07T11:39:16Z</time>
      </trkpt>
      <trkpt lat="45.8566038" lon="7.0423769">
        <ele>2039.71</ele>
        <time>2019-09-07T11:39:22Z</time>
      </trkpt>
      <trkpt lat="45.8566419" lon="7.0425016">
        <ele>2039.24</ele>
        <time>2019-09-07T11:39:28Z</time>
      </trkpt>
      <trkpt lat="45.8566883" lon="7.0426283">
        <ele>2036.85</ele>
        <time>2019-09-07T11:39:36Z</time>
      </trkpt>
      <trkpt lat="45.8567418" lon="7.0427713">
        <ele>2036.03</ele>
        <time>2019-09-07T11:39:44Z</time>
      </trkpt>
      <trkpt lat="45.8567970" lon="7.0428880">
        <ele>2035.24</ele>
        <time>2019-09-07T11:39:52Z</time>
      </trkpt>
      <trkpt lat="45.8568374" lon="7.0430076">
        <ele>2035.92</ele>
        <time>2019-09-07T11:40:00Z</time>
      </trkpt>
      <trkpt lat="45.8569224" lon="7.0430611">
        <ele>2035.94</ele>
        <time>2019-09-07T11:40:06Z</time>
      </trkpt>
      <trkpt lat="45.8569640" lon="7.0432031">
        <ele>2036.21</ele>
        <time>2019-09-07T11:40:14Z</time>
      </trkpt>
      <trkpt lat="45.8569785" lon="7.0433512">
        <ele>2035.24</ele>
        <time>2019-09-07T11:40:22Z</time>
      </trkpt>
      <trkpt lat="45.8570324" lon="7.0435049">
        <ele>2034.94</ele>
        <time>2019-09-07T11:40:30Z</time>
      </trkpt>
      <trkpt lat="45.8570796" lon="7.0436246">
        <ele>2035.93</ele>
        <time>2019-09-07T11:40:38Z</time>
      </trkpt>
      <trkpt lat="45.8571495" lon="7.0437330">
        <ele>2036.93</ele>
        <time>2019-09-07T11:40:46Z</time>
      </trkpt>
      <trkpt lat="45.8572032" lon="7.0438368">
        <ele>2037.00</ele>
        <time>2019-09-07T11:40:54Z</time>
      </trkpt>
      <trkpt lat="45.8572412" lon="7.0439836">
        <ele>2037.93</ele>
        <time>2019-09-07T11:41:02Z</time>
      </trkpt>
      <trkpt lat="45.8573061" lon="7.0440797">
        <ele>2038.85</ele>
        <time>2019-09-07T11:41:10Z</time>
      </trkpt>
      <trkpt lat="45.8573802" lon="7.0441921">
        <ele>2038.94</ele>
        <time>2019-09-07T11:41:18Z</time>
      </trkpt>
      <trkpt lat="45.8574343" lon="7.0443339">
        <ele>2041.95</ele>
        <time>2019-09-07T11:41:27Z</time>
      </trkpt>
      <trkpt lat="45.8574963" lon="7.0444559">
        <ele>2041.96</ele>
        <time>2019-09-07T11:41:35Z</time>
      </trkpt>
      <trkpt lat="45.8575966" lon="7.0445004">
        <ele>2044.59</ele>
        <time>2019-09-07T11:41:42Z</time>
      </trkpt>
      <trkpt lat="45.8576897" lon="7.0445565">
        <ele>2044.94</ele>
        <time>2019-09-07T11:41:50Z</time>
      </trkpt>
      <trkpt lat="45.8577700" lon="7.0446210">
        <ele>2046.82</ele>
        <time>2019-09-07T11:41:56Z</time>
      </trkpt>
      <trkpt lat="45.8578145" lon="7.0447488">
        <ele>2046.24</ele>
        <time>2019-09-07T11:42:04Z</time>
      </trkpt>
      <trkpt lat="45.8578667" lon="7.0448593">
        <ele>2046.64</ele>
        <time>2019-09-07T11:42:14Z</time>
      </trkpt>
      <trkpt lat="45.8579848" lon="7.0448458">
        <ele>2045.95</ele>
        <time>2019-09-07T11:42:22Z</time>
      </trkpt>
      <trkpt lat="45.8580853" lon="7.0449167">
        <ele>2047.62</ele>
        <time>2019-09-07T11:42:32Z</time>
      </trkpt>
      <trkpt lat="45.8581455" lon="7.0450317">
        <ele>2047.94</ele>
        <time>2019-09-07T11:42:40Z</time>
      </trkpt>
      <trkpt lat="45.8582215" lon="7.0451041">
        <ele>2048.93</ele>
        <time>2019-09-07T11:42:48Z</time>
      </trkpt>
      <trkpt lat="45.8582923" lon="7.0452059">
        <ele>2049.92</ele>
        <time>2019-09-07T11:42:56Z</time>
      </trkpt>
      <trkpt lat="45.8583773" lon="7.0452947">
        <ele>2050.92</ele>
        <time>2019-09-07T11:43:06Z</time>
      </trkpt>
      <trkpt lat="45.8584686" lon="7.0453769">
        <ele>2051.91</ele>
        <time>2019-09-07T11:43:14Z</time>
      </trkpt>
      <trkpt lat="45.8585397" lon="7.0454623">
        <ele>2052.23</ele>
        <time>2019-09-07T11:43:22Z</time>
      </trkpt>
      <trkpt lat="45.8586046" lon="7.0455679">
        <ele>2052.92</ele>
        <time>2019-09-07T11:43:30Z</time>
      </trkpt>
      <trkpt lat="45.8586800" lon="7.0456741">
        <ele>2053.85</ele>
        <time>2019-09-07T11:43:38Z</time>
      </trkpt>
      <trkpt lat="45.8587682" lon="7.0457190">
        <ele>2054.15</ele>
        <time>2019-09-07T11:43:46Z</time>
      </trkpt>
      <trkpt lat="45.8588577" lon="7.0458020">
        <ele>2054.85</ele>
        <time>2019-09-07T11:43:54Z</time>
      </trkpt>
      <trkpt lat="45.8589396" lon="7.0458656">
        <ele>2054.92</ele>
        <time>2019-09-07T11:44:02Z</time>
      </trkpt>
      <trkpt lat="45.8590110" lon="7.0459595">
        <ele>2055.91</ele>
        <time>2019-09-07T11:44:10Z</time>
      </trkpt>
      <trkpt lat="45.8590968" lon="7.0460419">
        <ele>2056.93</ele>
        <time>2019-09-07T11:44:18Z</time>
      </trkpt>
      <trkpt lat="45.8591049" lon="7.0461735">
        <ele>2057.92</ele>
        <time>2019-09-07T11:44:26Z</time>
      </trkpt>
      <trkpt lat="45.8590723" lon="7.0463131">
        <ele>2058.64</ele>
        <time>2019-09-07T11:44:34Z</time>
      </trkpt>
      <trkpt lat="45.8591506" lon="7.0463890">
        <ele>2058.94</ele>
        <time>2019-09-07T11:44:44Z</time>
      </trkpt>
      <trkpt lat="45.8592607" lon="7.0463721">
        <ele>2059.64</ele>
        <time>2019-09-07T11:44:52Z</time>
      </trkpt>
      <trkpt lat="45.8593294" lon="7.0464578">
        <ele>2059.92</ele>
        <time>2019-09-07T11:45:00Z</time>
      </trkpt>
      <trkpt lat="45.8594002" lon="7.0465530">
        <ele>2059.24</ele>
        <time>2019-09-07T11:45:08Z</time>
      </trkpt>
      <trkpt lat="45.8595134" lon="7.0465626">
        <ele>2059.94</ele>
        <time>2019-09-07T11:45:16Z</time>
      </trkpt>
      <trkpt lat="45.8596118" lon="7.0466255">
        <ele>2060.92</ele>
        <time>2019-09-07T11:45:24Z</time>
      </trkpt>
      <trkpt lat="45.8597227" lon="7.0467016">
        <ele>2066.87</ele>
        <time>2019-09-07T11:45:34Z</time>
      </trkpt>
      <trkpt lat="45.8598170" lon="7.0467464">
        <ele>2068.08</ele>
        <time>2019-09-07T11:45:42Z</time>
      </trkpt>
      <trkpt lat="45.8598973" lon="7.0468204">
        <ele>2069.03</ele>
        <time>2019-09-07T11:45:58Z</time>
      </trkpt>
      <trkpt lat="45.8599898" lon="7.0468921">
        <ele>2059.97</ele>
        <time>2019-09-07T11:47:54Z</time>
      </trkpt>
      <trkpt lat="45.8600672" lon="7.0469993">
        <ele>2059.94</ele>
        <time>2019-09-07T11:48:02Z</time>
      </trkpt>
      <trkpt lat="45.8601597" lon="7.0470326">
        <ele>2058.12</ele>
        <time>2019-09-07T11:48:06Z</time>
      </trkpt>
      <trkpt lat="45.8602730" lon="7.0470859">
        <ele>2057.40</ele>
        <time>2019-09-07T11:48:12Z</time>
      </trkpt>
      <trkpt lat="45.8603454" lon="7.0471939">
        <ele>2054.70</ele>
        <time>2019-09-07T11:48:26Z</time>
      </trkpt>
      <trkpt lat="45.8604374" lon="7.0472579">
        <ele>2054.94</ele>
        <time>2019-09-07T11:48:34Z</time>
      </trkpt>
      <trkpt lat="45.8605171" lon="7.0473314">
        <ele>2054.24</ele>
        <time>2019-09-07T11:48:48Z</time>
      </trkpt>
      <trkpt lat="45.8606107" lon="7.0473986">
        <ele>2053.94</ele>
        <time>2019-09-07T11:48:56Z</time>
      </trkpt>
      <trkpt lat="45.8606729" lon="7.0475246">
        <ele>2053.94</ele>
        <time>2019-09-07T11:49:04Z</time>
      </trkpt>
      <trkpt lat="45.8607640" lon="7.0476218">
        <ele>2052.95</ele>
        <time>2019-09-07T11:49:12Z</time>
      </trkpt>
      <trkpt lat="45.8608304" lon="7.0477167">
        <ele>2052.03</ele>
        <time>2019-09-07T11:49:18Z</time>
      </trkpt>
      <trkpt lat="45.8608911" lon="7.0478141">
        <ele>2051.94</ele>
        <time>2019-09-07T11:49:24Z</time>
      </trkpt>
      <trkpt lat="45.8609814" lon="7.0478500">
        <ele>2050.76</ele>
        <time>2019-09-07T11:49:32Z</time>
      </trkpt>
      <trkpt lat="45.8610851" lon="7.0479268">
        <ele>2049.97</ele>
        <time>2019-09-07T11:49:40Z</time>
      </trkpt>
      <trkpt lat="45.8611733" lon="7.0480045">
        <ele>2046.88</ele>
        <time>2019-09-07T11:50:39Z</time>
      </trkpt>
      <trkpt lat="45.8612346" lon="7.0481241">
        <ele>2045.31</ele>
        <time>2019-09-07T11:50:47Z</time>
      </trkpt>
      <trkpt lat="45.8613228" lon="7.0481971">
        <ele>2046.72</ele>
        <time>2019-09-07T11:50:55Z</time>
      </trkpt>
      <trkpt lat="45.8614077" lon="7.0483024">
        <ele>2046.94</ele>
        <time>2019-09-07T11:51:09Z</time>
      </trkpt>
      <trkpt lat="45.8615004" lon="7.0483783">
        <ele>2045.95</ele>
        <time>2019-09-07T11:51:17Z</time>
      </trkpt>
      <trkpt lat="45.8615753" lon="7.0484952">
        <ele>2045.94</ele>
        <time>2019-09-07T11:51:25Z</time>
      </trkpt>
      <trkpt lat="45.8616657" lon="7.0485534">
        <ele>2044.97</ele>
        <time>2019-09-07T11:51:33Z</time>
      </trkpt>
      <trkpt lat="45.8617418" lon="7.0486654">
        <ele>2043.97</ele>
        <time>2019-09-07T11:51:41Z</time>
      </trkpt>
      <trkpt lat="45.8618162" lon="7.0487877">
        <ele>2043.94</ele>
        <time>2019-09-07T11:51:49Z</time>
      </trkpt>
      <trkpt lat="45.8619139" lon="7.0488554">
        <ele>2043.94</ele>
        <time>2019-09-07T11:51:57Z</time>
      </trkpt>
      <trkpt lat="45.8619944" lon="7.0489448">
        <ele>2043.94</ele>
        <time>2019-09-07T11:52:05Z</time>
      </trkpt>
      <trkpt lat="45.8620747" lon="7.0490219">
        <ele>2042.97</ele>
        <time>2019-09-07T11:52:13Z</time>
      </trkpt>
      <trkpt lat="45.8621422" lon="7.0491452">
        <ele>2042.24</ele>
        <time>2019-09-07T11:52:21Z</time>
      </trkpt>
      <trkpt lat="45.8621830" lon="7.0492726">
        <ele>2041.94</ele>
        <time>2019-09-07T11:52:29Z</time>
      </trkpt>
      <trkpt lat="45.8622507" lon="7.0493667">
        <ele>2041.94</ele>
        <time>2019-09-07T11:52:37Z</time>
      </trkpt>
      <trkpt lat="45.8622851" lon="7.0495106">
        <ele>2044.90</ele>
        <time>2019-09-07T11:52:48Z</time>
      </trkpt>
      <trkpt lat="45.8623299" lon="7.0496319">
        <ele>2045.42</ele>
        <time>2019-09-07T11:52:56Z</time>
      </trkpt>
      <trkpt lat="45.8623952" lon="7.0497265">
        <ele>2046.91</ele>
        <time>2019-09-07T11:53:04Z</time>
      </trkpt>
      <trkpt lat="45.8624443" lon="7.0498463">
        <ele>2047.91</ele>
        <time>2019-09-07T11:53:13Z</time>
      </trkpt>
      <trkpt lat="45.8624550" lon="7.0499840">
        <ele>2048.64</ele>
        <time>2019-09-07T11:53:21Z</time>
      </trkpt>
      <trkpt lat="45.8624956" lon="7.0501089">
        <ele>2048.86</ele>
        <time>2019-09-07T11:53:29Z</time>
      </trkpt>
      <trkpt lat="45.8625510" lon="7.0502213">
        <ele>2049.91</ele>
        <time>2019-09-07T11:53:39Z</time>
      </trkpt>
      <trkpt lat="45.8626007" lon="7.0503473">
        <ele>2050.91</ele>
        <time>2019-09-07T11:53:47Z</time>
      </trkpt>
      <trkpt lat="45.8626431" lon="7.0504755">
        <ele>2050.94</ele>
        <time>2019-09-07T11:53:55Z</time>
      </trkpt>
      <trkpt lat="45.8627190" lon="7.0505858">
        <ele>2051.93</ele>
        <time>2019-09-07T11:54:03Z</time>
      </trkpt>
      <trkpt lat="45.8627409" lon="7.0507178">
        <ele>2052.93</ele>
        <time>2019-09-07T11:54:11Z</time>
      </trkpt>
      <trkpt lat="45.8627830" lon="7.0508454">
        <ele>2052.94</ele>
        <time>2019-09-07T11:54:19Z</time>
      </trkpt>
      <trkpt lat="45.8628167" lon="7.0510054">
        <ele>2052.94</ele>
        <time>2019-09-07T11:54:27Z</time>
      </trkpt>
      <trkpt lat="45.8628718" lon="7.0511499">
        <ele>2052.94</ele>
        <time>2019-09-07T11:54:35Z</time>
      </trkpt>
      <trkpt lat="45.8629251" lon="7.0512811">
        <ele>2052.94</ele>
        <time>2019-09-07T11:54:43Z</time>
      </trkpt>
      <trkpt lat="45.8629931" lon="7.0514092">
        <ele>2052.94</ele>
        <time>2019-09-07T11:54:51Z</time>
      </trkpt>
      <trkpt lat="45.8630827" lon="7.0515113">
        <ele>2052.94</ele>
        <time>2019-09-07T11:54:59Z</time>
      </trkpt>
      <trkpt lat="45.8631501" lon="7.0516312">
        <ele>2052.94</ele>
        <time>2019-09-07T11:55:09Z</time>
      </trkpt>
      <trkpt lat="45.8631735" lon="7.0517966">
        <ele>2053.85</ele>
        <time>2019-09-07T11:55:17Z</time>
      </trkpt>
      <trkpt lat="45.8631886" lon="7.0519464">
        <ele>2053.24</ele>
        <time>2019-09-07T11:55:25Z</time>
      </trkpt>
      <trkpt lat="45.8632651" lon="7.0520440">
        <ele>2052.94</ele>
        <time>2019-09-07T11:55:33Z</time>
      </trkpt>
      <trkpt lat="45.8633405" lon="7.0521682">
        <ele>2053.02</ele>
        <time>2019-09-07T11:55:41Z</time>
      </trkpt>
      <trkpt lat="45.8633976" lon="7.0522969">
        <ele>2053.66</ele>
        <time>2019-09-07T11:55:49Z</time>
      </trkpt>
      <trkpt lat="45.8634831" lon="7.0524022">
        <ele>2053.94</ele>
        <time>2019-09-07T11:55:57Z</time>
      </trkpt>
      <trkpt lat="45.8635403" lon="7.0525273">
        <ele>2053.94</ele>
        <time>2019-09-07T11:56:05Z</time>
      </trkpt>
      <trkpt lat="45.8635900" lon="7.0526557">
        <ele>2053.24</ele>
        <time>2019-09-07T11:56:13Z</time>
      </trkpt>
      <trkpt lat="45.8636426" lon="7.0528059">
        <ele>2053.94</ele>
        <time>2019-09-07T11:56:23Z</time>
      </trkpt>
      <trkpt lat="45.8637009" lon="7.0529136">
        <ele>2052.97</ele>
        <time>2019-09-07T11:56:31Z</time>
      </trkpt>
      <trkpt lat="45.8637266" lon="7.0530528">
        <ele>2052.94</ele>
        <time>2019-09-07T11:56:39Z</time>
      </trkpt>
      <trkpt lat="45.8637688" lon="7.0531813">
        <ele>2052.94</ele>
        <time>2019-09-07T11:56:47Z</time>
      </trkpt>
      <trkpt lat="45.8638114" lon="7.0533322">
        <ele>2052.94</ele>
        <time>2019-09-07T11:56:57Z</time>
      </trkpt>
      <trkpt lat="45.8638059" lon="7.0534750">
        <ele>2052.94</ele>
        <time>2019-09-07T11:57:05Z</time>
      </trkpt>
      <trkpt lat="45.8637809" lon="7.0536095">
        <ele>2052.24</ele>
        <time>2019-09-07T11:57:13Z</time>
      </trkpt>
      <trkpt lat="45.8637491" lon="7.0537322">
        <ele>2052.92</ele>
        <time>2019-09-07T11:57:21Z</time>
      </trkpt>
      <trkpt lat="45.8637400" lon="7.0538857">
        <ele>2052.94</ele>
        <time>2019-09-07T11:57:29Z</time>
      </trkpt>
      <trkpt lat="45.8637278" lon="7.0540178">
        <ele>2052.03</ele>
        <time>2019-09-07T11:57:37Z</time>
      </trkpt>
      <trkpt lat="45.8637161" lon="7.0541622">
        <ele>2051.94</ele>
        <time>2019-09-07T11:57:45Z</time>
      </trkpt>
      <trkpt lat="45.8637435" lon="7.0542895">
        <ele>2051.03</ele>
        <time>2019-09-07T11:57:55Z</time>
      </trkpt>
      <trkpt lat="45.8637616" lon="7.0544220">
        <ele>2050.73</ele>
        <time>2019-09-07T11:58:03Z</time>
      </trkpt>
      <trkpt lat="45.8637524" lon="7.0545603">
        <ele>2048.98</ele>
        <time>2019-09-07T11:58:11Z</time>
      </trkpt>
      <trkpt lat="45.8637787" lon="7.0547052">
        <ele>2048.94</ele>
        <time>2019-09-07T11:58:19Z</time>
      </trkpt>
      <trkpt lat="45.8637951" lon="7.0548534">
        <ele>2048.65</ele>
        <time>2019-09-07T11:58:27Z</time>
      </trkpt>
      <trkpt lat="45.8638826" lon="7.0549307">
        <ele>2047.97</ele>
        <time>2019-09-07T11:58:35Z</time>
      </trkpt>
      <trkpt lat="45.8639551" lon="7.0550185">
        <ele>2048.24</ele>
        <time>2019-09-07T11:58:45Z</time>
      </trkpt>
      <trkpt lat="45.8639547" lon="7.0551636">
        <ele>2047.85</ele>
        <time>2019-09-07T11:59:05Z</time>
      </trkpt>
      <trkpt lat="45.8639549" lon="7.0553104">
        <ele>2047.67</ele>
        <time>2019-09-07T11:59:19Z</time>
      </trkpt>
      <trkpt lat="45.8640022" lon="7.0554553">
        <ele>2045.35</ele>
        <time>2019-09-07T11:59:29Z</time>
      </trkpt>
      <trkpt lat="45.8640190" lon="7.0555932">
        <ele>2044.24</ele>
        <time>2019-09-07T11:59:39Z</time>
      </trkpt>
      <trkpt lat="45.8640179" lon="7.0557350">
        <ele>2043.94</ele>
        <time>2019-09-07T11:59:51Z</time>
      </trkpt>
      <trkpt lat="45.8639925" lon="7.0558975">
        <ele>2041.94</ele>
        <time>2019-09-07T12:00:07Z</time>
      </trkpt>
      <trkpt lat="45.8640620" lon="7.0559922">
        <ele>2041.94</ele>
        <time>2019-09-07T12:00:17Z</time>
      </trkpt>
      <trkpt lat="45.8641350" lon="7.0560769">
        <ele>2041.94</ele>
        <time>2019-09-07T12:00:23Z</time>
      </trkpt>
      <trkpt lat="45.8642038" lon="7.0561683">
        <ele>2041.94</ele>
        <time>2019-09-07T12:00:31Z</time>
      </trkpt>
      <trkpt lat="45.8643025" lon="7.0562370">
        <ele>2041.01</ele>
        <time>2019-09-07T12:00:41Z</time>
      </trkpt>
      <trkpt lat="45.8643960" lon="7.0563112">
        <ele>2040.03</ele>
        <time>2019-09-07T12:00:51Z</time>
      </trkpt>
      <trkpt lat="45.8644809" lon="7.0563797">
        <ele>2038.97</ele>
        <time>2019-09-07T12:01:01Z</time>
      </trkpt>
      <trkpt lat="45.8644873" lon="7.0565186">
        <ele>2037.33</ele>
        <time>2019-09-07T12:01:11Z</time>
      </trkpt>
      <trkpt lat="45.8645240" lon="7.0566492">
        <ele>2035.68</ele>
        <time>2019-09-07T12:01:21Z</time>
      </trkpt>
      <trkpt lat="45.8646289" lon="7.0566905">
        <ele>2035.94</ele>
        <time>2019-09-07T12:01:31Z</time>
      </trkpt>
      <trkpt lat="45.8646229" lon="7.0568280">
        <ele>2035.95</ele>
        <time>2019-09-07T12:01:55Z</time>
      </trkpt>
      <trkpt lat="45.8645671" lon="7.0569314">
        <ele>2034.65</ele>
        <time>2019-09-07T12:02:07Z</time>
      </trkpt>
      <trkpt lat="45.8646570" lon="7.0569653">
        <ele>2033.25</ele>
        <time>2019-09-07T12:02:15Z</time>
      </trkpt>
      <trkpt lat="45.8647454" lon="7.0569277">
        <ele>2032.95</ele>
        <time>2019-09-07T12:02:21Z</time>
      </trkpt>
      <trkpt lat="45.8648573" lon="7.0568961">
        <ele>2032.24</ele>
        <time>2019-09-07T12:02:29Z</time>
      </trkpt>
      <trkpt lat="45.8649434" lon="7.0568539">
        <ele>2032.92</ele>
        <time>2019-09-07T12:02:37Z</time>
      </trkpt>
      <trkpt lat="45.8650361" lon="7.0568990">
        <ele>2032.24</ele>
        <time>2019-09-07T12:02:45Z</time>
      </trkpt>
      <trkpt lat="45.8651243" lon="7.0569570">
        <ele>2031.94</ele>
        <time>2019-09-07T12:02:55Z</time>
      </trkpt>
      <trkpt lat="45.8652135" lon="7.0568951">
        <ele>2031.24</ele>
        <time>2019-09-07T12:03:09Z</time>
      </trkpt>
      <trkpt lat="45.8653169" lon="7.0568727">
        <ele>2029.97</ele>
        <time>2019-09-07T12:03:19Z</time>
      </trkpt>
      <trkpt lat="45.8654194" lon="7.0569162">
        <ele>2029.94</ele>
        <time>2019-09-07T12:03:29Z</time>
      </trkpt>
      <trkpt lat="45.8655039" lon="7.0569614">
        <ele>2028.97</ele>
        <time>2019-09-07T12:03:37Z</time>
      </trkpt>
      <trkpt lat="45.8655812" lon="7.0570344">
        <ele>2028.24</ele>
        <time>2019-09-07T12:03:45Z</time>
      </trkpt>
      <trkpt lat="45.8656292" lon="7.0571572">
        <ele>2027.94</ele>
        <time>2019-09-07T12:03:53Z</time>
      </trkpt>
      <trkpt lat="45.8657016" lon="7.0572477">
        <ele>2026.97</ele>
        <time>2019-09-07T12:04:01Z</time>
      </trkpt>
      <trkpt lat="45.8657658" lon="7.0573645">
        <ele>2026.94</ele>
        <time>2019-09-07T12:04:09Z</time>
      </trkpt>
      <trkpt lat="45.8658548" lon="7.0574439">
        <ele>2026.03</ele>
        <time>2019-09-07T12:04:17Z</time>
      </trkpt>
      <trkpt lat="45.8659365" lon="7.0573842">
        <ele>2025.24</ele>
        <time>2019-09-07T12:04:25Z</time>
      </trkpt>
      <trkpt lat="45.8659872" lon="7.0572688">
        <ele>2024.94</ele>
        <time>2019-09-07T12:04:33Z</time>
      </trkpt>
      <trkpt lat="45.8660391" lon="7.0571612">
        <ele>2024.94</ele>
        <time>2019-09-07T12:04:41Z</time>
      </trkpt>
      <trkpt lat="45.8661281" lon="7.0570853">
        <ele>2023.97</ele>
        <time>2019-09-07T12:04:51Z</time>
      </trkpt>
      <trkpt lat="45.8662164" lon="7.0570576">
        <ele>2023.88</ele>
        <time>2019-09-07T12:05:01Z</time>
      </trkpt>
      <trkpt lat="45.8663173" lon="7.0570606">
        <ele>2024.85</ele>
        <time>2019-09-07T12:05:11Z</time>
      </trkpt>
      <trkpt lat="45.8664225" lon="7.0570536">
        <ele>2023.94</ele>
        <time>2019-09-07T12:05:21Z</time>
      </trkpt>
      <trkpt lat="45.8665294" lon="7.0570752">
        <ele>2023.94</ele>
        <time>2019-09-07T12:05:31Z</time>
      </trkpt>
      <trkpt lat="45.8666340" lon="7.0571275">
        <ele>2024.92</ele>
        <time>2019-09-07T12:05:39Z</time>
      </trkpt>
      <trkpt lat="45.8667340" lon="7.0571584">
        <ele>2025.66</ele>
        <time>2019-09-07T12:05:47Z</time>
      </trkpt>
      <trkpt lat="45.8668290" lon="7.0572128">
        <ele>2025.94</ele>
        <time>2019-09-07T12:05:55Z</time>
      </trkpt>
      <trkpt lat="45.8669337" lon="7.0572493">
        <ele>2025.03</ele>
        <time>2019-09-07T12:06:05Z</time>
      </trkpt>
      <trkpt lat="45.8670273" lon="7.0572667">
        <ele>2024.24</ele>
        <time>2019-09-07T12:06:13Z</time>
      </trkpt>
      <trkpt lat="45.8671337" lon="7.0572841">
        <ele>2023.96</ele>
        <time>2019-09-07T12:06:21Z</time>
      </trkpt>
      <trkpt lat="45.8672225" lon="7.0572541">
        <ele>2023.24</ele>
        <time>2019-09-07T12:06:29Z</time>
      </trkpt>
      <trkpt lat="45.8673203" lon="7.0572432">
        <ele>2022.94</ele>
        <time>2019-09-07T12:06:45Z</time>
      </trkpt>
      <trkpt lat="45.8674309" lon="7.0572501">
        <ele>2021.02</ele>
        <time>2019-09-07T12:06:57Z</time>
      </trkpt>
      <trkpt lat="45.8675309" lon="7.0573253">
        <ele>2022.63</ele>
        <time>2019-09-07T12:07:09Z</time>
      </trkpt>
      <trkpt lat="45.8676081" lon="7.0574122">
        <ele>2022.24</ele>
        <time>2019-09-07T12:07:17Z</time>
      </trkpt>
      <trkpt lat="45.8676922" lon="7.0575059">
        <ele>2022.94</ele>
        <time>2019-09-07T12:07:27Z</time>
      </trkpt>
      <trkpt lat="45.8677638" lon="7.0575976">
        <ele>2022.94</ele>
        <time>2019-09-07T12:07:35Z</time>
      </trkpt>
      <trkpt lat="45.8678573" lon="7.0576828">
        <ele>2022.73</ele>
        <time>2019-09-07T12:07:45Z</time>
      </trkpt>
      <trkpt lat="45.8679521" lon="7.0577432">
        <ele>2022.85</ele>
        <time>2019-09-07T12:07:55Z</time>
      </trkpt>
      <trkpt lat="45.8680250" lon="7.0578292">
        <ele>2022.94</ele>
        <time>2019-09-07T12:08:03Z</time>
      </trkpt>
      <trkpt lat="45.8681012" lon="7.0579166">
        <ele>2022.03</ele>
        <time>2019-09-07T12:08:13Z</time>
      </trkpt>
      <trkpt lat="45.8681913" lon="7.0579145">
        <ele>2020.27</ele>
        <time>2019-09-07T12:08:21Z</time>
      </trkpt>
      <trkpt lat="45.8682826" lon="7.0579767">
        <ele>2020.24</ele>
        <time>2019-09-07T12:08:31Z</time>
      </trkpt>
      <trkpt lat="45.8683743" lon="7.0580591">
        <ele>2019.86</ele>
        <time>2019-09-07T12:08:41Z</time>
      </trkpt>
      <trkpt lat="45.8684527" lon="7.0581324">
        <ele>2018.24</ele>
        <time>2019-09-07T12:08:51Z</time>
      </trkpt>
      <trkpt lat="45.8685444" lon="7.0581470">
        <ele>2018.94</ele>
        <time>2019-09-07T12:08:59Z</time>
      </trkpt>
      <trkpt lat="45.8686379" lon="7.0581812">
        <ele>2018.01</ele>
        <time>2019-09-07T12:09:07Z</time>
      </trkpt>
      <trkpt lat="45.8687273" lon="7.0582269">
        <ele>2016.96</ele>
        <time>2019-09-07T12:09:17Z</time>
      </trkpt>
      <trkpt lat="45.8688154" lon="7.0583008">
        <ele>2016.94</ele>
        <time>2019-09-07T12:09:27Z</time>
      </trkpt>
      <trkpt lat="45.8689012" lon="7.0583784">
        <ele>2016.28</ele>
        <time>2019-09-07T12:09:35Z</time>
      </trkpt>
      <trkpt lat="45.8689857" lon="7.0584349">
        <ele>2014.27</ele>
        <time>2019-09-07T12:09:45Z</time>
      </trkpt>
      <trkpt lat="45.8690777" lon="7.0584658">
        <ele>2012.97</ele>
        <time>2019-09-07T12:09:53Z</time>
      </trkpt>
      <trkpt lat="45.8691846" lon="7.0584956">
        <ele>2012.64</ele>
        <time>2019-09-07T12:10:03Z</time>
      </trkpt>
      <trkpt lat="45.8692731" lon="7.0585348">
        <ele>2011.95</ele>
        <time>2019-09-07T12:10:11Z</time>
      </trkpt>
      <trkpt lat="45.8693721" lon="7.0585792">
        <ele>2011.03</ele>
        <time>2019-09-07T12:10:19Z</time>
      </trkpt>
      <trkpt lat="45.8694612" lon="7.0586413">
        <ele>2009.95</ele>
        <time>2019-09-07T12:10:29Z</time>
      </trkpt>
      <trkpt lat="45.8695584" lon="7.0586968">
        <ele>2007.98</ele>
        <time>2019-09-07T12:10:39Z</time>
      </trkpt>
      <trkpt lat="45.8696499" lon="7.0587279">
        <ele>2006.94</ele>
        <time>2019-09-07T12:10:49Z</time>
      </trkpt>
      <trkpt lat="45.8696098" lon="7.0586110">
        <ele>2005.97</ele>
        <time>2019-09-07T12:10:57Z</time>
      </trkpt>
      <trkpt lat="45.8695550" lon="7.0584983">
        <ele>2004.24</ele>
        <time>2019-09-07T12:11:15Z</time>
      </trkpt>
      <trkpt lat="45.8694911" lon="7.0584008">
        <ele>2003.94</ele>
        <time>2019-09-07T12:11:23Z</time>
      </trkpt>
      <trkpt lat="45.8694044" lon="7.0583484">
        <ele>2002.95</ele>
        <time>2019-09-07T12:11:31Z</time>
      </trkpt>
      <trkpt lat="45.8693373" lon="7.0582255">
        <ele>2001.33</ele>
        <time>2019-09-07T12:11:41Z</time>
      </trkpt>
      <trkpt lat="45.8692575" lon="7.0581415">
        <ele>2000.03</ele>
        <time>2019-09-07T12:11:51Z</time>
      </trkpt>
      <trkpt lat="45.8691511" lon="7.0581052">
        <ele>1998.67</ele>
        <time>2019-09-07T12:12:01Z</time>
      </trkpt>
      <trkpt lat="45.8690816" lon="7.0579953">
        <ele>1997.95</ele>
        <time>2019-09-07T12:12:09Z</time>
      </trkpt>
      <trkpt lat="45.8690522" lon="7.0578700">
        <ele>1997.94</ele>
        <time>2019-09-07T12:12:17Z</time>
      </trkpt>
      <trkpt lat="45.8689637" lon="7.0577988">
        <ele>1995.98</ele>
        <time>2019-09-07T12:12:25Z</time>
      </trkpt>
      <trkpt lat="45.8688809" lon="7.0576826">
        <ele>1995.03</ele>
        <time>2019-09-07T12:12:33Z</time>
      </trkpt>
      <trkpt lat="45.8688121" lon="7.0575878">
        <ele>1994.03</ele>
        <time>2019-09-07T12:12:41Z</time>
      </trkpt>
      <trkpt lat="45.8687469" lon="7.0574774">
        <ele>1993.94</ele>
        <time>2019-09-07T12:12:51Z</time>
      </trkpt>
      <trkpt lat="45.8686910" lon="7.0573416">
        <ele>1992.94</ele>
        <time>2019-09-07T12:13:01Z</time>
      </trkpt>
      <trkpt lat="45.8686355" lon="7.0572248">
        <ele>1991.25</ele>
        <time>2019-09-07T12:13:11Z</time>
      </trkpt>
      <trkpt lat="45.8685423" lon="7.0571369">
        <ele>1990.03</ele>
        <time>2019-09-07T12:13:23Z</time>
      </trkpt>
      <trkpt lat="45.8685192" lon="7.0569784">
        <ele>1988.24</ele>
        <time>2019-09-07T12:13:35Z</time>
      </trkpt>
      <trkpt lat="45.8684365" lon="7.0568764">
        <ele>1986.95</ele>
        <time>2019-09-07T12:13:43Z</time>
      </trkpt>
      <trkpt lat="45.8683912" lon="7.0567568">
        <ele>1986.94</ele>
        <time>2019-09-07T12:13:51Z</time>
      </trkpt>
      <trkpt lat="45.8683697" lon="7.0566129">
        <ele>1985.97</ele>
        <time>2019-09-07T12:14:01Z</time>
      </trkpt>
      <trkpt lat="45.8683262" lon="7.0564702">
        <ele>1984.04</ele>
        <time>2019-09-07T12:14:11Z</time>
      </trkpt>
      <trkpt lat="45.8683880" lon="7.0563686">
        <ele>1982.25</ele>
        <time>2019-09-07T12:14:19Z</time>
      </trkpt>
      <trkpt lat="45.8683239" lon="7.0562380">
        <ele>1979.34</ele>
        <time>2019-09-07T12:14:29Z</time>
      </trkpt>
      <trkpt lat="45.8682678" lon="7.0561250">
        <ele>1978.04</ele>
        <time>2019-09-07T12:14:37Z</time>
      </trkpt>
      <trkpt lat="45.8682103" lon="7.0560046">
        <ele>1975.98</ele>
        <time>2019-09-07T12:14:47Z</time>
      </trkpt>
      <trkpt lat="45.8681474" lon="7.0558934">
        <ele>1975.18</ele>
        <time>2019-09-07T12:14:55Z</time>
      </trkpt>
      <trkpt lat="45.8680722" lon="7.0558209">
        <ele>1974.24</ele>
        <time>2019-09-07T12:15:03Z</time>
      </trkpt>
      <trkpt lat="45.8679838" lon="7.0557695">
        <ele>1972.27</ele>
        <time>2019-09-07T12:15:13Z</time>
      </trkpt>
      <trkpt lat="45.8679218" lon="7.0556724">
        <ele>1970.97</ele>
        <time>2019-09-07T12:15:21Z</time>
      </trkpt>
      <trkpt lat="45.8678257" lon="7.0555890">
        <ele>1968.27</ele>
        <time>2019-09-07T12:15:31Z</time>
      </trkpt>
      <trkpt lat="45.8677607" lon="7.0554989">
        <ele>1966.33</ele>
        <time>2019-09-07T12:15:39Z</time>
      </trkpt>
      <trkpt lat="45.8676815" lon="7.0553696">
        <ele>1965.04</ele>
        <time>2019-09-07T12:15:47Z</time>
      </trkpt>
      <trkpt lat="45.8676077" lon="7.0552627">
        <ele>1962.07</ele>
        <time>2019-09-07T12:15:57Z</time>
      </trkpt>
      <trkpt lat="45.8675427" lon="7.0551390">
        <ele>1959.34</ele>
        <time>2019-09-07T12:16:07Z</time>
      </trkpt>
      <trkpt lat="45.8674836" lon="7.0550065">
        <ele>1958.75</ele>
        <time>2019-09-07T12:16:17Z</time>
      </trkpt>
      <trkpt lat="45.8675867" lon="7.0550087">
        <ele>1957.02</ele>
        <time>2019-09-07T12:16:27Z</time>
      </trkpt>
      <trkpt lat="45.8676816" lon="7.0550143">
        <ele>1948.45</ele>
        <time>2019-09-07T12:16:35Z</time>
      </trkpt>
      <trkpt lat="45.8677019" lon="7.0548681">
        <ele>1943.10</ele>
        <time>2019-09-07T12:16:45Z</time>
      </trkpt>
      <trkpt lat="45.8676523" lon="7.0547169">
        <ele>1940.28</ele>
        <time>2019-09-07T12:16:53Z</time>
      </trkpt>
      <trkpt lat="45.8676008" lon="7.0546101">
        <ele>1938.27</ele>
        <time>2019-09-07T12:17:01Z</time>
      </trkpt>
      <trkpt lat="45.8677029" lon="7.0546088">
        <ele>1935.25</ele>
        <time>2019-09-07T12:17:17Z</time>
      </trkpt>
      <trkpt lat="45.8677891" lon="7.0546636">
        <ele>1934.03</ele>
        <time>2019-09-07T12:17:27Z</time>
      </trkpt>
      <trkpt lat="45.8678854" lon="7.0546812">
        <ele>1931.28</ele>
        <time>2019-09-07T12:17:35Z</time>
      </trkpt>
      <trkpt lat="45.8679748" lon="7.0547400">
        <ele>1929.73</ele>
        <time>2019-09-07T12:17:47Z</time>
      </trkpt>
      <trkpt lat="45.8680607" lon="7.0548109">
        <ele>1928.03</ele>
        <time>2019-09-07T12:17:57Z</time>
      </trkpt>
      <trkpt lat="45.8681575" lon="7.0548745">
        <ele>1927.24</ele>
        <time>2019-09-07T12:18:05Z</time>
      </trkpt>
      <trkpt lat="45.8682510" lon="7.0549117">
        <ele>1925.95</ele>
        <time>2019-09-07T12:18:13Z</time>
      </trkpt>
      <trkpt lat="45.8683516" lon="7.0549175">
        <ele>1925.94</ele>
        <time>2019-09-07T12:18:21Z</time>
      </trkpt>
      <trkpt lat="45.8684557" lon="7.0549506">
        <ele>1925.67</ele>
        <time>2019-09-07T12:18:31Z</time>
      </trkpt>
      <trkpt lat="45.8685624" lon="7.0549706">
        <ele>1924.95</ele>
        <time>2019-09-07T12:18:39Z</time>
      </trkpt>
      <trkpt lat="45.8686647" lon="7.0550052">
        <ele>1925.02</ele>
        <time>2019-09-07T12:18:47Z</time>
      </trkpt>
      <trkpt lat="45.8687559" lon="7.0550444">
        <ele>1924.94</ele>
        <time>2019-09-07T12:18:55Z</time>
      </trkpt>
      <trkpt lat="45.8688469" lon="7.0551049">
        <ele>1924.03</ele>
        <time>2019-09-07T12:19:05Z</time>
      </trkpt>
      <trkpt lat="45.8689353" lon="7.0551814">
        <ele>1922.27</ele>
        <time>2019-09-07T12:19:15Z</time>
      </trkpt>
      <trkpt lat="45.8690335" lon="7.0552100">
        <ele>1921.94</ele>
        <time>2019-09-07T12:19:27Z</time>
      </trkpt>
      <trkpt lat="45.8691336" lon="7.0552177">
        <ele>1920.95</ele>
        <time>2019-09-07T12:19:37Z</time>
      </trkpt>
      <trkpt lat="45.8691994" lon="7.0553301">
        <ele>1919.33</ele>
        <time>2019-09-07T12:19:45Z</time>
      </trkpt>
      <trkpt lat="45.8692780" lon="7.0554225">
        <ele>1918.04</ele>
        <time>2019-09-07T12:19:53Z</time>
      </trkpt>
      <trkpt lat="45.8693507" lon="7.0555218">
        <ele>1916.33</ele>
        <time>2019-09-07T12:20:01Z</time>
      </trkpt>
      <trkpt lat="45.8694560" lon="7.0555558">
        <ele>1913.28</ele>
        <time>2019-09-07T12:20:11Z</time>
      </trkpt>
      <trkpt lat="45.8695520" lon="7.0555629">
        <ele>1911.27</ele>
        <time>2019-09-07T12:20:19Z</time>
      </trkpt>
      <trkpt lat="45.8696307" lon="7.0556346">
        <ele>1909.25</ele>
        <time>2019-09-07T12:20:29Z</time>
      </trkpt>
      <trkpt lat="45.8697190" lon="7.0556630">
        <ele>1907.27</ele>
        <time>2019-09-07T12:20:37Z</time>
      </trkpt>
      <trkpt lat="45.8698057" lon="7.0557525">
        <ele>1906.03</ele>
        <time>2019-09-07T12:20:45Z</time>
      </trkpt>
      <trkpt lat="45.8698891" lon="7.0558071">
        <ele>1904.95</ele>
        <time>2019-09-07T12:20:53Z</time>
      </trkpt>
      <trkpt lat="45.8700012" lon="7.0558406">
        <ele>1903.94</ele>
        <time>2019-09-07T12:21:03Z</time>
      </trkpt>
      <trkpt lat="45.8700841" lon="7.0559027">
        <ele>1902.04</ele>
        <time>2019-09-07T12:21:11Z</time>
      </trkpt>
      <trkpt lat="45.8700939" lon="7.0557738">
        <ele>1900.24</ele>
        <time>2019-09-07T12:21:23Z</time>
      </trkpt>
      <trkpt lat="45.8700087" lon="7.0556792">
        <ele>1899.67</ele>
        <time>2019-09-07T12:21:33Z</time>
      </trkpt>
      <trkpt lat="45.8699632" lon="7.0555441">
        <ele>1897.25</ele>
        <time>2019-09-07T12:21:45Z</time>
      </trkpt>
      <trkpt lat="45.8699290" lon="7.0554211">
        <ele>1894.27</ele>
        <time>2019-09-07T12:21:55Z</time>
      </trkpt>
      <trkpt lat="45.8698819" lon="7.0552869">
        <ele>1893.03</ele>
        <time>2019-09-07T12:22:05Z</time>
      </trkpt>
      <trkpt lat="45.8698273" lon="7.0551634">
        <ele>1891.24</ele>
        <time>2019-09-07T12:22:15Z</time>
      </trkpt>
      <trkpt lat="45.8699271" lon="7.0551551">
        <ele>1888.34</ele>
        <time>2019-09-07T12:22:23Z</time>
      </trkpt>
      <trkpt lat="45.8700207" lon="7.0551183">
        <ele>1886.27</ele>
        <time>2019-09-07T12:22:31Z</time>
      </trkpt>
      <trkpt lat="45.8700678" lon="7.0550076">
        <ele>1881.25</ele>
        <time>2019-09-07T12:22:57Z</time>
      </trkpt>
      <trkpt lat="45.8699941" lon="7.0549278">
        <ele>1875.28</ele>
        <time>2019-09-07T12:23:17Z</time>
      </trkpt>
      <trkpt lat="45.8699315" lon="7.0547942">
        <ele>1873.25</ele>
        <time>2019-09-07T12:23:25Z</time>
      </trkpt>
      <trkpt lat="45.8698913" lon="7.0546737">
        <ele>1871.95</ele>
        <time>2019-09-07T12:23:33Z</time>
      </trkpt>
      <trkpt lat="45.8698474" lon="7.0545269">
        <ele>1869.98</ele>
        <time>2019-09-07T12:23:41Z</time>
      </trkpt>
      <trkpt lat="45.8699477" lon="7.0544931">
        <ele>1863.75</ele>
        <time>2019-09-07T12:23:55Z</time>
      </trkpt>
      <trkpt lat="45.8700374" lon="7.0545252">
        <ele>1856.46</ele>
        <time>2019-09-07T12:24:05Z</time>
      </trkpt>
      <trkpt lat="45.8701339" lon="7.0545671">
        <ele>1853.06</ele>
        <time>2019-09-07T12:24:15Z</time>
      </trkpt>
      <trkpt lat="45.8702249" lon="7.0546498">
        <ele>1851.25</ele>
        <time>2019-09-07T12:24:25Z</time>
      </trkpt>
      <trkpt lat="45.8703197" lon="7.0547134">
        <ele>1850.03</ele>
        <time>2019-09-07T12:24:35Z</time>
      </trkpt>
      <trkpt lat="45.8703934" lon="7.0548038">
        <ele>1848.97</ele>
        <time>2019-09-07T12:24:43Z</time>
      </trkpt>
      <trkpt lat="45.8704788" lon="7.0548605">
        <ele>1847.33</ele>
        <time>2019-09-07T12:24:49Z</time>
      </trkpt>
      <trkpt lat="45.8705606" lon="7.0549549">
        <ele>1845.27</ele>
        <time>2019-09-07T12:24:59Z</time>
      </trkpt>
      <trkpt lat="45.8706160" lon="7.0550795">
        <ele>1842.97</ele>
        <time>2019-09-07T12:25:11Z</time>
      </trkpt>
      <trkpt lat="45.8707053" lon="7.0551706">
        <ele>1842.94</ele>
        <time>2019-09-07T12:25:19Z</time>
      </trkpt>
      <trkpt lat="45.8708158" lon="7.0552100">
        <ele>1841.94</ele>
        <time>2019-09-07T12:25:29Z</time>
      </trkpt>
      <trkpt lat="45.8708233" lon="7.0550722">
        <ele>1839.97</ele>
        <time>2019-09-07T12:25:41Z</time>
      </trkpt>
      <trkpt lat="45.8707758" lon="7.0549168">
        <ele>1836.01</ele>
        <time>2019-09-07T12:25:53Z</time>
      </trkpt>
      <trkpt lat="45.8708577" lon="7.0548623">
        <ele>1828.43</ele>
        <time>2019-09-07T12:26:07Z</time>
      </trkpt>
      <trkpt lat="45.8709467" lon="7.0548405">
        <ele>1825.71</ele>
        <time>2019-09-07T12:26:15Z</time>
      </trkpt>
      <trkpt lat="45.8708794" lon="7.0547323">
        <ele>1824.27</ele>
        <time>2019-09-07T12:26:23Z</time>
      </trkpt>
      <trkpt lat="45.8708081" lon="7.0546467">
        <ele>1826.82</ele>
        <time>2019-09-07T12:26:29Z</time>
      </trkpt>
      <trkpt lat="45.8707438" lon="7.0545229">
        <ele>1821.37</ele>
        <time>2019-09-07T12:26:39Z</time>
      </trkpt>
      <trkpt lat="45.8706801" lon="7.0543942">
        <ele>1818.97</ele>
        <time>2019-09-07T12:26:49Z</time>
      </trkpt>
      <trkpt lat="45.8706276" lon="7.0542717">
        <ele>1818.92</ele>
        <time>2019-09-07T12:26:59Z</time>
      </trkpt>
      <trkpt lat="45.8706492" lon="7.0541085">
        <ele>1814.64</ele>
        <time>2019-09-07T12:27:09Z</time>
      </trkpt>
      <trkpt lat="45.8707386" lon="7.0540760">
        <ele>1811.96</ele>
        <time>2019-09-07T12:27:19Z</time>
      </trkpt>
      <trkpt lat="45.8707856" lon="7.0539623">
        <ele>1805.06</ele>
        <time>2019-09-07T12:27:37Z</time>
      </trkpt>
      <trkpt lat="45.8708949" lon="7.0539872">
        <ele>1803.24</ele>
        <time>2019-09-07T12:27:49Z</time>
      </trkpt>
      <trkpt lat="45.8708350" lon="7.0538812">
        <ele>1801.97</ele>
        <time>2019-09-07T12:27:57Z</time>
      </trkpt>
      <trkpt lat="45.8707448" lon="7.0537868">
        <ele>1798.27</ele>
        <time>2019-09-07T12:28:15Z</time>
      </trkpt>
      <trkpt lat="45.8707050" lon="7.0536679">
        <ele>1796.25</ele>
        <time>2019-09-07T12:28:25Z</time>
      </trkpt>
      <trkpt lat="45.8708086" lon="7.0536636">
        <ele>1793.71</ele>
        <time>2019-09-07T12:28:33Z</time>
      </trkpt>
      <trkpt lat="45.8709029" lon="7.0536840">
        <ele>1793.94</ele>
        <time>2019-09-07T12:28:41Z</time>
      </trkpt>
      <trkpt lat="45.8709830" lon="7.0537822">
        <ele>1792.04</ele>
        <time>2019-09-07T12:28:51Z</time>
      </trkpt>
      <trkpt lat="45.8710878" lon="7.0538404">
        <ele>1790.97</ele>
        <time>2019-09-07T12:29:01Z</time>
      </trkpt>
      <trkpt lat="45.8711841" lon="7.0538839">
        <ele>1789.95</ele>
        <time>2019-09-07T12:29:09Z</time>
      </trkpt>
      <trkpt lat="45.8712778" lon="7.0539449">
        <ele>1788.95</ele>
        <time>2019-09-07T12:29:19Z</time>
      </trkpt>
      <trkpt lat="45.8713860" lon="7.0539688">
        <ele>1787.25</ele>
        <time>2019-09-07T12:29:29Z</time>
      </trkpt>
      <trkpt lat="45.8714908" lon="7.0539628">
        <ele>1786.03</ele>
        <time>2019-09-07T12:29:39Z</time>
      </trkpt>
      <trkpt lat="45.8715470" lon="7.0538375">
        <ele>1784.97</ele>
        <time>2019-09-07T12:29:47Z</time>
      </trkpt>
      <trkpt lat="45.8715871" lon="7.0537125">
        <ele>1784.03</ele>
        <time>2019-09-07T12:29:55Z</time>
      </trkpt>
      <trkpt lat="45.8715476" lon="7.0535898">
        <ele>1772.68</ele>
        <time>2019-09-07T12:32:13Z</time>
      </trkpt>
      <trkpt lat="45.8714521" lon="7.0534875">
        <ele>1769.03</ele>
        <time>2019-09-07T12:34:17Z</time>
      </trkpt>
      <trkpt lat="45.8713869" lon="7.0533895">
        <ele>1770.40</ele>
        <time>2019-09-07T12:34:25Z</time>
      </trkpt>
      <trkpt lat="45.8713671" lon="7.0532625">
        <ele>1765.28</ele>
        <time>2019-09-07T12:34:37Z</time>
      </trkpt>
      <trkpt lat="45.8713624" lon="7.0531149">
        <ele>1768.34</ele>
        <time>2019-09-07T12:34:49Z</time>
      </trkpt>
      <trkpt lat="45.8713506" lon="7.0529823">
        <ele>1765.75</ele>
        <time>2019-09-07T12:34:57Z</time>
      </trkpt>
      <trkpt lat="45.8713385" lon="7.0528539">
        <ele>1766.64</ele>
        <time>2019-09-07T12:35:05Z</time>
      </trkpt>
      <trkpt lat="45.8713262" lon="7.0527051">
        <ele>1767.64</ele>
        <time>2019-09-07T12:35:15Z</time>
      </trkpt>
      <trkpt lat="45.8713527" lon="7.0525404">
        <ele>1767.94</ele>
        <time>2019-09-07T12:35:25Z</time>
      </trkpt>
      <trkpt lat="45.8713728" lon="7.0524086">
        <ele>1768.01</ele>
        <time>2019-09-07T12:35:33Z</time>
      </trkpt>
      <trkpt lat="45.8713644" lon="7.0522519">
        <ele>1767.24</ele>
        <time>2019-09-07T12:35:41Z</time>
      </trkpt>
      <trkpt lat="45.8713655" lon="7.0520976">
        <ele>1766.94</ele>
        <time>2019-09-07T12:35:49Z</time>
      </trkpt>
      <trkpt lat="45.8713808" lon="7.0519615">
        <ele>1765.95</ele>
        <time>2019-09-07T12:35:57Z</time>
      </trkpt>
      <trkpt lat="45.8714045" lon="7.0518178">
        <ele>1764.04</ele>
        <time>2019-09-07T12:36:05Z</time>
      </trkpt>
      <trkpt lat="45.8714211" lon="7.0516773">
        <ele>1763.94</ele>
        <time>2019-09-07T12:36:13Z</time>
      </trkpt>
      <trkpt lat="45.8714813" lon="7.0515425">
        <ele>1763.96</ele>
        <time>2019-09-07T12:36:21Z</time>
      </trkpt>
      <trkpt lat="45.8715680" lon="7.0515806">
        <ele>1763.73</ele>
        <time>2019-09-07T12:36:29Z</time>
      </trkpt>
      <trkpt lat="45.8716185" lon="7.0517167">
        <ele>1763.94</ele>
        <time>2019-09-07T12:36:39Z</time>
      </trkpt>
      <trkpt lat="45.8716268" lon="7.0518648">
        <ele>1763.94</ele>
        <time>2019-09-07T12:36:47Z</time>
      </trkpt>
      <trkpt lat="45.8715886" lon="7.0520206">
        <ele>1762.95</ele>
        <time>2019-09-07T12:36:55Z</time>
      </trkpt>
      <trkpt lat="45.8716069" lon="7.0521784">
        <ele>1764.18</ele>
        <time>2019-09-07T12:37:05Z</time>
      </trkpt>
      <trkpt lat="45.8716109" lon="7.0523125">
        <ele>1762.25</ele>
        <time>2019-09-07T12:37:13Z</time>
      </trkpt>
      <trkpt lat="45.8716115" lon="7.0524626">
        <ele>1761.73</ele>
        <time>2019-09-07T12:37:21Z</time>
      </trkpt>
      <trkpt lat="45.8716545" lon="7.0525882">
        <ele>1761.94</ele>
        <time>2019-09-07T12:37:29Z</time>
      </trkpt>
      <trkpt lat="45.8716702" lon="7.0527366">
        <ele>1761.92</ele>
        <time>2019-09-07T12:37:37Z</time>
      </trkpt>
      <trkpt lat="45.8717158" lon="7.0528692">
        <ele>1762.91</ele>
        <time>2019-09-07T12:37:47Z</time>
      </trkpt>
      <trkpt lat="45.8717597" lon="7.0529904">
        <ele>1765.18</ele>
        <time>2019-09-07T12:37:55Z</time>
      </trkpt>
      <trkpt lat="45.8718104" lon="7.0531381">
        <ele>1763.25</ele>
        <time>2019-09-07T12:38:03Z</time>
      </trkpt>
      <trkpt lat="45.8718775" lon="7.0532723">
        <ele>1763.87</ele>
        <time>2019-09-07T12:38:11Z</time>
      </trkpt>
      <trkpt lat="45.8719335" lon="7.0533757">
        <ele>1763.94</ele>
        <time>2019-09-07T12:38:19Z</time>
      </trkpt>
      <trkpt lat="45.8719895" lon="7.0535019">
        <ele>1764.70</ele>
        <time>2019-09-07T12:38:27Z</time>
      </trkpt>
      <trkpt lat="45.8720358" lon="7.0536344">
        <ele>1765.91</ele>
        <time>2019-09-07T12:38:35Z</time>
      </trkpt>
      <trkpt lat="45.8720913" lon="7.0537542">
        <ele>1764.95</ele>
        <time>2019-09-07T12:38:43Z</time>
      </trkpt>
      <trkpt lat="45.8721347" lon="7.0538772">
        <ele>1764.86</ele>
        <time>2019-09-07T12:38:51Z</time>
      </trkpt>
      <trkpt lat="45.8721827" lon="7.0540045">
        <ele>1764.94</ele>
        <time>2019-09-07T12:38:59Z</time>
      </trkpt>
      <trkpt lat="45.8722360" lon="7.0541093">
        <ele>1764.94</ele>
        <time>2019-09-07T12:39:07Z</time>
      </trkpt>
      <trkpt lat="45.8722857" lon="7.0542346">
        <ele>1765.93</ele>
        <time>2019-09-07T12:39:15Z</time>
      </trkpt>
      <trkpt lat="45.8723509" lon="7.0543299">
        <ele>1766.64</ele>
        <time>2019-09-07T12:39:23Z</time>
      </trkpt>
      <trkpt lat="45.8724173" lon="7.0544269">
        <ele>1767.85</ele>
        <time>2019-09-07T12:39:31Z</time>
      </trkpt>
      <trkpt lat="45.8724822" lon="7.0545282">
        <ele>1767.94</ele>
        <time>2019-09-07T12:39:39Z</time>
      </trkpt>
      <trkpt lat="45.8725264" lon="7.0546626">
        <ele>1767.94</ele>
        <time>2019-09-07T12:39:47Z</time>
      </trkpt>
      <trkpt lat="45.8725340" lon="7.0547934">
        <ele>1767.88</ele>
        <time>2019-09-07T12:39:55Z</time>
      </trkpt>
      <trkpt lat="45.8725642" lon="7.0549275">
        <ele>1768.64</ele>
        <time>2019-09-07T12:40:05Z</time>
      </trkpt>
      <trkpt lat="45.8726067" lon="7.0550657">
        <ele>1770.96</ele>
        <time>2019-09-07T12:40:37Z</time>
      </trkpt>
      <trkpt lat="45.8726535" lon="7.0552003">
        <ele>1771.02</ele>
        <time>2019-09-07T12:40:53Z</time>
      </trkpt>
      <trkpt lat="45.8727350" lon="7.0552889">
        <ele>1775.31</ele>
        <time>2019-09-07T12:41:07Z</time>
      </trkpt>
      <trkpt lat="45.8728107" lon="7.0553847">
        <ele>1776.83</ele>
        <time>2019-09-07T12:41:19Z</time>
      </trkpt>
      <trkpt lat="45.8728801" lon="7.0554833">
        <ele>1779.55</ele>
        <time>2019-09-07T12:41:31Z</time>
      </trkpt>
      <trkpt lat="45.8729660" lon="7.0555409">
        <ele>1778.97</ele>
        <time>2019-09-07T12:41:43Z</time>
      </trkpt>
      <trkpt lat="45.8728736" lon="7.0555908">
        <ele>1779.94</ele>
        <time>2019-09-07T12:42:03Z</time>
      </trkpt>
      <trkpt lat="45.8728050" lon="7.0556980">
        <ele>1781.93</ele>
        <time>2019-09-07T12:42:15Z</time>
      </trkpt>
      <trkpt lat="45.8728702" lon="7.0557893">
        <ele>1784.91</ele>
        <time>2019-09-07T12:42:25Z</time>
      </trkpt>
      <trkpt lat="45.8729542" lon="7.0558439">
        <ele>1783.95</ele>
        <time>2019-09-07T12:42:37Z</time>
      </trkpt>
      <trkpt lat="45.8729847" lon="7.0559833">
        <ele>1783.94</ele>
        <time>2019-09-07T12:42:53Z</time>
      </trkpt>
      <trkpt lat="45.8730082" lon="7.0561237">
        <ele>1783.94</ele>
        <time>2019-09-07T12:43:07Z</time>
      </trkpt>
      <trkpt lat="45.8730557" lon="7.0562473">
        <ele>1783.64</ele>
        <time>2019-09-07T12:43:25Z</time>
      </trkpt>
      <trkpt lat="45.8730894" lon="7.0563674">
        <ele>1787.82</ele>
        <time>2019-09-07T12:43:37Z</time>
      </trkpt>
      <trkpt lat="45.8731327" lon="7.0564913">
        <ele>1788.73</ele>
        <time>2019-09-07T12:44:01Z</time>
      </trkpt>
      <trkpt lat="45.8731557" lon="7.0566341">
        <ele>1791.82</ele>
        <time>2019-09-07T12:44:17Z</time>
      </trkpt>
      <trkpt lat="45.8731956" lon="7.0567559">
        <ele>1795.54</ele>
        <time>2019-09-07T12:44:33Z</time>
      </trkpt>
      <trkpt lat="45.8732006" lon="7.0568888">
        <ele>1799.59</ele>
        <time>2019-09-07T12:44:49Z</time>
      </trkpt>
      <trkpt lat="45.8733126" lon="7.0568336">
        <ele>1801.88</ele>
        <time>2019-09-07T12:45:29Z</time>
      </trkpt>
      <trkpt lat="45.8734026" lon="7.0567882">
        <ele>1807.50</ele>
        <time>2019-09-07T12:45:37Z</time>
      </trkpt>
      <trkpt lat="45.8734921" lon="7.0568265">
        <ele>1807.84</ele>
        <time>2019-09-07T12:45:51Z</time>
      </trkpt>
      <trkpt lat="45.8735853" lon="7.0568140">
        <ele>1807.94</ele>
        <time>2019-09-07T12:46:07Z</time>
      </trkpt>
      <trkpt lat="45.8735117" lon="7.0569148">
        <ele>1812.11</ele>
        <time>2019-09-07T12:46:17Z</time>
      </trkpt>
      <trkpt lat="45.8735561" lon="7.0570300">
        <ele>1819.27</ele>
        <time>2019-09-07T12:46:39Z</time>
      </trkpt>
      <trkpt lat="45.8736488" lon="7.0570755">
        <ele>1823.91</ele>
        <time>2019-09-07T12:46:59Z</time>
      </trkpt>
      <trkpt lat="45.8737437" lon="7.0570815">
        <ele>1825.93</ele>
        <time>2019-09-07T12:47:15Z</time>
      </trkpt>
      <trkpt lat="45.8738313" lon="7.0571186">
        <ele>1827.64</ele>
        <time>2019-09-07T12:47:29Z</time>
      </trkpt>
      <trkpt lat="45.8737528" lon="7.0572085">
        <ele>1824.02</ele>
        <time>2019-09-07T12:47:39Z</time>
      </trkpt>
      <trkpt lat="45.8738521" lon="7.0572467">
        <ele>1832.54</ele>
        <time>2019-09-07T12:47:53Z</time>
      </trkpt>
      <trkpt lat="45.8739335" lon="7.0573217">
        <ele>1834.94</ele>
        <time>2019-09-07T12:48:07Z</time>
      </trkpt>
      <trkpt lat="45.8740206" lon="7.0572844">
        <ele>1840.54</ele>
        <time>2019-09-07T12:48:25Z</time>
      </trkpt>
      <trkpt lat="45.8740888" lon="7.0571881">
        <ele>1842.91</ele>
        <time>2019-09-07T12:48:35Z</time>
      </trkpt>
      <trkpt lat="45.8741706" lon="7.0571257">
        <ele>1842.94</ele>
        <time>2019-09-07T12:48:45Z</time>
      </trkpt>
      <trkpt lat="45.8742456" lon="7.0572088">
        <ele>1845.84</ele>
        <time>2019-09-07T12:48:57Z</time>
      </trkpt>
      <trkpt lat="45.8743293" lon="7.0572625">
        <ele>1846.85</ele>
        <time>2019-09-07T12:49:09Z</time>
      </trkpt>
      <trkpt lat="45.8743906" lon="7.0573680">
        <ele>1848.85</ele>
        <time>2019-09-07T12:49:19Z</time>
      </trkpt>
      <trkpt lat="45.8744792" lon="7.0574327">
        <ele>1851.63</ele>
        <time>2019-09-07T12:49:31Z</time>
      </trkpt>
      <trkpt lat="45.8745411" lon="7.0575284">
        <ele>1854.82</ele>
        <time>2019-09-07T12:49:43Z</time>
      </trkpt>
      <trkpt lat="45.8746111" lon="7.0576183">
        <ele>1857.61</ele>
        <time>2019-09-07T12:49:55Z</time>
      </trkpt>
      <trkpt lat="45.8746955" lon="7.0576815">
        <ele>1860.61</ele>
        <time>2019-09-07T12:50:07Z</time>
      </trkpt>
      <trkpt lat="45.8747685" lon="7.0577695">
        <ele>1862.85</ele>
        <time>2019-09-07T12:50:21Z</time>
      </trkpt>
      <trkpt lat="45.8748324" lon="7.0578691">
        <ele>1864.64</ele>
        <time>2019-09-07T12:50:35Z</time>
      </trkpt>
      <trkpt lat="45.8748299" lon="7.0580037">
        <ele>1867.85</ele>
        <time>2019-09-07T12:50:55Z</time>
      </trkpt>
      <trkpt lat="45.8748803" lon="7.0581117">
        <ele>1869.64</ele>
        <time>2019-09-07T12:51:11Z</time>
      </trkpt>
      <trkpt lat="45.8749033" lon="7.0582403">
        <ele>1873.64</ele>
        <time>2019-09-07T12:51:37Z</time>
      </trkpt>
      <trkpt lat="45.8749877" lon="7.0582854">
        <ele>1874.15</ele>
        <time>2019-09-07T12:51:51Z</time>
      </trkpt>
      <trkpt lat="45.8750657" lon="7.0583657">
        <ele>1873.94</ele>
        <time>2019-09-07T12:52:05Z</time>
      </trkpt>
      <trkpt lat="45.8751369" lon="7.0584671">
        <ele>1876.64</ele>
        <time>2019-09-07T12:52:23Z</time>
      </trkpt>
      <trkpt lat="45.8752014" lon="7.0585734">
        <ele>1877.97</ele>
        <time>2019-09-07T12:52:41Z</time>
      </trkpt>
      <trkpt lat="45.8752688" lon="7.0586703">
        <ele>1879.62</ele>
        <time>2019-09-07T12:52:53Z</time>
      </trkpt>
      <trkpt lat="45.8753586" lon="7.0587217">
        <ele>1882.91</ele>
        <time>2019-09-07T12:53:09Z</time>
      </trkpt>
      <trkpt lat="45.8754543" lon="7.0586912">
        <ele>1885.64</ele>
        <time>2019-09-07T12:53:27Z</time>
      </trkpt>
      <trkpt lat="45.8755581" lon="7.0586988">
        <ele>1888.61</ele>
        <time>2019-09-07T12:53:41Z</time>
      </trkpt>
      <trkpt lat="45.8756580" lon="7.0587123">
        <ele>1890.63</ele>
        <time>2019-09-07T12:53:53Z</time>
      </trkpt>
      <trkpt lat="45.8757508" lon="7.0587247">
        <ele>1891.92</ele>
        <time>2019-09-07T12:54:11Z</time>
      </trkpt>
      <trkpt lat="45.8758223" lon="7.0588227">
        <ele>1890.86</ele>
        <time>2019-09-07T12:54:27Z</time>
      </trkpt>
      <trkpt lat="45.8758692" lon="7.0589387">
        <ele>1891.85</ele>
        <time>2019-09-07T12:54:45Z</time>
      </trkpt>
      <trkpt lat="45.8758767" lon="7.0590787">
        <ele>1895.63</ele>
        <time>2019-09-07T12:55:03Z</time>
      </trkpt>
      <trkpt lat="45.8759216" lon="7.0591931">
        <ele>1897.02</ele>
        <time>2019-09-07T12:55:17Z</time>
      </trkpt>
      <trkpt lat="45.8759391" lon="7.0593230">
        <ele>1899.63</ele>
        <time>2019-09-07T12:55:33Z</time>
      </trkpt>
      <trkpt lat="45.8759013" lon="7.0594525">
        <ele>1902.82</ele>
        <time>2019-09-07T12:55:49Z</time>
      </trkpt>
      <trkpt lat="45.8759898" lon="7.0594110">
        <ele>1910.22</ele>
        <time>2019-09-07T12:56:05Z</time>
      </trkpt>
      <trkpt lat="45.8760648" lon="7.0594858">
        <ele>1914.84</ele>
        <time>2019-09-07T12:56:23Z</time>
      </trkpt>
      <trkpt lat="45.8761549" lon="7.0594623">
        <ele>1917.93</ele>
        <time>2019-09-07T12:56:37Z</time>
      </trkpt>
      <trkpt lat="45.8762367" lon="7.0595292">
        <ele>1919.94</ele>
        <time>2019-09-07T12:56:51Z</time>
      </trkpt>
      <trkpt lat="45.8763314" lon="7.0595739">
        <ele>1920.03</ele>
        <time>2019-09-07T12:57:03Z</time>
      </trkpt>
      <trkpt lat="45.8763919" lon="7.0596875">
        <ele>1921.70</ele>
        <time>2019-09-07T12:57:13Z</time>
      </trkpt>
      <trkpt lat="45.8764664" lon="7.0597914">
        <ele>1921.94</ele>
        <time>2019-09-07T12:57:23Z</time>
      </trkpt>
      <trkpt lat="45.8765239" lon="7.0598946">
        <ele>1923.64</ele>
        <time>2019-09-07T12:57:33Z</time>
      </trkpt>
      <trkpt lat="45.8766048" lon="7.0599687">
        <ele>1924.64</ele>
        <time>2019-09-07T12:57:43Z</time>
      </trkpt>
      <trkpt lat="45.8766827" lon="7.0600500">
        <ele>1926.55</ele>
        <time>2019-09-07T12:57:53Z</time>
      </trkpt>
      <trkpt lat="45.8767513" lon="7.0601678">
        <ele>1929.91</ele>
        <time>2019-09-07T12:58:09Z</time>
      </trkpt>
      <trkpt lat="45.8768430" lon="7.0602222">
        <ele>1931.91</ele>
        <time>2019-09-07T12:58:21Z</time>
      </trkpt>
      <trkpt lat="45.8769382" lon="7.0602683">
        <ele>1932.91</ele>
        <time>2019-09-07T12:58:33Z</time>
      </trkpt>
      <trkpt lat="45.8770258" lon="7.0603326">
        <ele>1933.93</ele>
        <time>2019-09-07T12:58:45Z</time>
      </trkpt>
      <trkpt lat="45.8771008" lon="7.0604051">
        <ele>1934.94</ele>
        <time>2019-09-07T12:58:55Z</time>
      </trkpt>
      <trkpt lat="45.8771662" lon="7.0605013">
        <ele>1935.72</ele>
        <time>2019-09-07T12:59:05Z</time>
      </trkpt>
      <trkpt lat="45.8772078" lon="7.0606294">
        <ele>1936.85</ele>
        <time>2019-09-07T12:59:15Z</time>
      </trkpt>
      <trkpt lat="45.8772439" lon="7.0607522">
        <ele>1939.84</ele>
        <time>2019-09-07T12:59:27Z</time>
      </trkpt>
      <trkpt lat="45.8773347" lon="7.0608226">
        <ele>1942.84</ele>
        <time>2019-09-07T12:59:39Z</time>
      </trkpt>
      <trkpt lat="45.8774212" lon="7.0609039">
        <ele>1943.91</ele>
        <time>2019-09-07T12:59:51Z</time>
      </trkpt>
      <trkpt lat="45.8774980" lon="7.0609849">
        <ele>1944.91</ele>
        <time>2019-09-07T13:00:01Z</time>
      </trkpt>
      <trkpt lat="45.8775953" lon="7.0610392">
        <ele>1945.91</ele>
        <time>2019-09-07T13:00:11Z</time>
      </trkpt>
      <trkpt lat="45.8776924" lon="7.0610623">
        <ele>1946.94</ele>
        <time>2019-09-07T13:00:21Z</time>
      </trkpt>
      <trkpt lat="45.8777550" lon="7.0611811">
        <ele>1945.95</ele>
        <time>2019-09-07T13:00:31Z</time>
      </trkpt>
      <trkpt lat="45.8778421" lon="7.0612451">
        <ele>1947.93</ele>
        <time>2019-09-07T13:00:43Z</time>
      </trkpt>
      <trkpt lat="45.8779314" lon="7.0613238">
        <ele>1947.97</ele>
        <time>2019-09-07T13:00:53Z</time>
      </trkpt>
      <trkpt lat="45.8780145" lon="7.0614174">
        <ele>1947.95</ele>
        <time>2019-09-07T13:01:03Z</time>
      </trkpt>
      <trkpt lat="45.8780553" lon="7.0615487">
        <ele>1946.95</ele>
        <time>2019-09-07T13:01:13Z</time>
      </trkpt>
      <trkpt lat="45.8780271" lon="7.0616835">
        <ele>1947.85</ele>
        <time>2019-09-07T13:01:23Z</time>
      </trkpt>
      <trkpt lat="45.8780421" lon="7.0618134">
        <ele>1948.64</ele>
        <time>2019-09-07T13:01:33Z</time>
      </trkpt>
      <trkpt lat="45.8780864" lon="7.0619414">
        <ele>1950.61</ele>
        <time>2019-09-07T13:01:45Z</time>
      </trkpt>
      <trkpt lat="45.8781846" lon="7.0619365">
        <ele>1951.94</ele>
        <time>2019-09-07T13:01:57Z</time>
      </trkpt>
      <trkpt lat="45.8782786" lon="7.0618625">
        <ele>1952.67</ele>
        <time>2019-09-07T13:02:07Z</time>
      </trkpt>
      <trkpt lat="45.8783815" lon="7.0618810">
        <ele>1953.91</ele>
        <time>2019-09-07T13:02:17Z</time>
      </trkpt>
      <trkpt lat="45.8784694" lon="7.0619257">
        <ele>1955.84</ele>
        <time>2019-09-07T13:02:25Z</time>
      </trkpt>
      <trkpt lat="45.8785523" lon="7.0619956">
        <ele>1955.94</ele>
        <time>2019-09-07T13:02:33Z</time>
      </trkpt>
      <trkpt lat="45.8786230" lon="7.0620913">
        <ele>1955.94</ele>
        <time>2019-09-07T13:02:41Z</time>
      </trkpt>
      <trkpt lat="45.8787251" lon="7.0621285">
        <ele>1956.01</ele>
        <time>2019-09-07T13:02:51Z</time>
      </trkpt>
      <trkpt lat="45.8788263" lon="7.0621776">
        <ele>1954.06</ele>
        <time>2019-09-07T13:02:59Z</time>
      </trkpt>
      <trkpt lat="45.8789095" lon="7.0622615">
        <ele>1954.85</ele>
        <time>2019-09-07T13:03:09Z</time>
      </trkpt>
      <trkpt lat="45.8789485" lon="7.0623810">
        <ele>1955.94</ele>
        <time>2019-09-07T13:03:19Z</time>
      </trkpt>
      <trkpt lat="45.8790066" lon="7.0624927">
        <ele>1956.85</ele>
        <time>2019-09-07T13:03:31Z</time>
      </trkpt>
      <trkpt lat="45.8791097" lon="7.0625334">
        <ele>1958.55</ele>
        <time>2019-09-07T13:03:41Z</time>
      </trkpt>
      <trkpt lat="45.8792103" lon="7.0625941">
        <ele>1956.98</ele>
        <time>2019-09-07T13:03:51Z</time>
      </trkpt>
      <trkpt lat="45.8792646" lon="7.0627007">
        <ele>1957.93</ele>
        <time>2019-09-07T13:03:59Z</time>
      </trkpt>
      <trkpt lat="45.8793525" lon="7.0628000">
        <ele>1958.92</ele>
        <time>2019-09-07T13:04:09Z</time>
      </trkpt>
      <trkpt lat="45.8794461" lon="7.0627890">
        <ele>1959.64</ele>
        <time>2019-09-07T13:04:17Z</time>
      </trkpt>
      <trkpt lat="45.8795330" lon="7.0628293">
        <ele>1959.02</ele>
        <time>2019-09-07T13:04:23Z</time>
      </trkpt>
      <trkpt lat="45.8796361" lon="7.0628646">
        <ele>1960.00</ele>
        <time>2019-09-07T13:04:31Z</time>
      </trkpt>
      <trkpt lat="45.8797221" lon="7.0629650">
        <ele>1960.01</ele>
        <time>2019-09-07T13:04:41Z</time>
      </trkpt>
      <trkpt lat="45.8797900" lon="7.0630667">
        <ele>1960.92</ele>
        <time>2019-09-07T13:04:51Z</time>
      </trkpt>
      <trkpt lat="45.8798604" lon="7.0631497">
        <ele>1960.94</ele>
        <time>2019-09-07T13:04:59Z</time>
      </trkpt>
      <trkpt lat="45.8799477" lon="7.0632218">
        <ele>1961.93</ele>
        <time>2019-09-07T13:05:07Z</time>
      </trkpt>
      <trkpt lat="45.8800369" lon="7.0633131">
        <ele>1962.64</ele>
        <time>2019-09-07T13:05:17Z</time>
      </trkpt>
      <trkpt lat="45.8801235" lon="7.0634037">
        <ele>1962.94</ele>
        <time>2019-09-07T13:05:27Z</time>
      </trkpt>
      <trkpt lat="45.8802066" lon="7.0635056">
        <ele>1962.94</ele>
        <time>2019-09-07T13:05:37Z</time>
      </trkpt>
      <trkpt lat="45.8802407" lon="7.0636444">
        <ele>1962.94</ele>
        <time>2019-09-07T13:05:47Z</time>
      </trkpt>
      <trkpt lat="45.8803143" lon="7.0637312">
        <ele>1963.01</ele>
        <time>2019-09-07T13:05:57Z</time>
      </trkpt>
      <trkpt lat="45.8803948" lon="7.0636706">
        <ele>1964.84</ele>
        <time>2019-09-07T13:06:05Z</time>
      </trkpt>
      <trkpt lat="45.8804791" lon="7.0637204">
        <ele>1964.03</ele>
        <time>2019-09-07T13:06:17Z</time>
      </trkpt>
      <trkpt lat="45.8805495" lon="7.0638085">
        <ele>1964.93</ele>
        <time>2019-09-07T13:06:29Z</time>
      </trkpt>
      <trkpt lat="45.8806415" lon="7.0637779">
        <ele>1966.15</ele>
        <time>2019-09-07T13:06:39Z</time>
      </trkpt>
      <trkpt lat="45.8807364" lon="7.0638061">
        <ele>1966.64</ele>
        <time>2019-09-07T13:06:49Z</time>
      </trkpt>
      <trkpt lat="45.8808257" lon="7.0638271">
        <ele>1966.24</ele>
        <time>2019-09-07T13:06:57Z</time>
      </trkpt>
      <trkpt lat="45.8809306" lon="7.0638624">
        <ele>1965.92</ele>
        <time>2019-09-07T13:07:07Z</time>
      </trkpt>
      <trkpt lat="45.8810339" lon="7.0638949">
        <ele>1965.94</ele>
        <time>2019-09-07T13:07:17Z</time>
      </trkpt>
      <trkpt lat="45.8811300" lon="7.0639287">
        <ele>1966.92</ele>
        <time>2019-09-07T13:07:27Z</time>
      </trkpt>
      <trkpt lat="45.8812202" lon="7.0639973">
        <ele>1966.94</ele>
        <time>2019-09-07T13:07:37Z</time>
      </trkpt>
      <trkpt lat="45.8813008" lon="7.0640950">
        <ele>1968.91</ele>
        <time>2019-09-07T13:07:47Z</time>
      </trkpt>
      <trkpt lat="45.8813700" lon="7.0641833">
        <ele>1969.88</ele>
        <time>2019-09-07T13:07:57Z</time>
      </trkpt>
      <trkpt lat="45.8814572" lon="7.0642259">
        <ele>1970.64</ele>
        <time>2019-09-07T13:08:07Z</time>
      </trkpt>
      <trkpt lat="45.8815407" lon="7.0643035">
        <ele>1970.94</ele>
        <time>2019-09-07T13:08:17Z</time>
      </trkpt>
      <trkpt lat="45.8816046" lon="7.0643979">
        <ele>1972.61</ele>
        <time>2019-09-07T13:08:25Z</time>
      </trkpt>
      <trkpt lat="45.8816989" lon="7.0643611">
        <ele>1973.93</ele>
        <time>2019-09-07T13:08:37Z</time>
      </trkpt>
      <trkpt lat="45.8817512" lon="7.0644813">
        <ele>1970.75</ele>
        <time>2019-09-07T13:08:55Z</time>
      </trkpt>
      <trkpt lat="45.8818515" lon="7.0645135">
        <ele>1971.24</ele>
        <time>2019-09-07T13:09:09Z</time>
      </trkpt>
      <trkpt lat="45.8819485" lon="7.0645623">
        <ele>1970.03</ele>
        <time>2019-09-07T13:09:25Z</time>
      </trkpt>
      <trkpt lat="45.8820090" lon="7.0646728">
        <ele>1971.64</ele>
        <time>2019-09-07T13:09:43Z</time>
      </trkpt>
      <trkpt lat="45.8820946" lon="7.0647216">
        <ele>1970.12</ele>
        <time>2019-09-07T13:09:55Z</time>
      </trkpt>
      <trkpt lat="45.8821966" lon="7.0647215">
        <ele>1974.91</ele>
        <time>2019-09-07T13:10:11Z</time>
      </trkpt>
      <trkpt lat="45.8822868" lon="7.0647411">
        <ele>1975.91</ele>
        <time>2019-09-07T13:10:23Z</time>
      </trkpt>
      <trkpt lat="45.8823612" lon="7.0648239">
        <ele>1976.93</ele>
        <time>2019-09-07T13:10:35Z</time>
      </trkpt>
      <trkpt lat="45.8824354" lon="7.0649012">
        <ele>1977.94</ele>
        <time>2019-09-07T13:10:47Z</time>
      </trkpt>
      <trkpt lat="45.8825240" lon="7.0649541">
        <ele>1980.85</ele>
        <time>2019-09-07T13:11:05Z</time>
      </trkpt>
      <trkpt lat="45.8825775" lon="7.0648409">
        <ele>1990.19</ele>
        <time>2019-09-07T13:11:37Z</time>
      </trkpt>
      <trkpt lat="45.8825973" lon="7.0646923">
        <ele>1994.61</ele>
        <time>2019-09-07T13:11:51Z</time>
      </trkpt>
      <trkpt lat="45.8826923" lon="7.0646868">
        <ele>2000.64</ele>
        <time>2019-09-07T13:12:25Z</time>
      </trkpt>
      <trkpt lat="45.8827888" lon="7.0647127">
        <ele>2002.63</ele>
        <time>2019-09-07T13:12:37Z</time>
      </trkpt>
      <trkpt lat="45.8828693" lon="7.0647730">
        <ele>2004.91</ele>
        <time>2019-09-07T13:12:47Z</time>
      </trkpt>
      <trkpt lat="45.8829494" lon="7.0648505">
        <ele>1993.01</ele>
        <time>2019-09-07T13:12:57Z</time>
      </trkpt>
      <trkpt lat="45.8830279" lon="7.0649283">
        <ele>2007.02</ele>
        <time>2019-09-07T13:13:05Z</time>
      </trkpt>
      <trkpt lat="45.8831172" lon="7.0650177">
        <ele>2010.62</ele>
        <time>2019-09-07T13:13:15Z</time>
      </trkpt>
      <trkpt lat="45.8831769" lon="7.0651194">
        <ele>2013.82</ele>
        <time>2019-09-07T13:13:25Z</time>
      </trkpt>
      <trkpt lat="45.8832797" lon="7.0651662">
        <ele>2012.37</ele>
        <time>2019-09-07T13:13:37Z</time>
      </trkpt>
      <trkpt lat="45.8833570" lon="7.0652580">
        <ele>2015.91</ele>
        <time>2019-09-07T13:13:49Z</time>
      </trkpt>
      <trkpt lat="45.8834349" lon="7.0653455">
        <ele>2016.96</ele>
        <time>2019-09-07T13:14:01Z</time>
      </trkpt>
      <trkpt lat="45.8835202" lon="7.0653969">
        <ele>2017.64</ele>
        <time>2019-09-07T13:14:13Z</time>
      </trkpt>
      <trkpt lat="45.8836070" lon="7.0654526">
        <ele>2017.94</ele>
        <time>2019-09-07T13:14:23Z</time>
      </trkpt>
      <trkpt lat="45.8837015" lon="7.0654557">
        <ele>2021.54</ele>
        <time>2019-09-07T13:14:39Z</time>
      </trkpt>
      <trkpt lat="45.8837997" lon="7.0654473">
        <ele>2022.95</ele>
        <time>2019-09-07T13:14:55Z</time>
      </trkpt>
      <trkpt lat="45.8838876" lon="7.0653644">
        <ele>2007.51</ele>
        <time>2019-09-07T13:15:11Z</time>
      </trkpt>
      <trkpt lat="45.8839772" lon="7.0653468">
        <ele>2032.75</ele>
        <time>2019-09-07T13:15:25Z</time>
      </trkpt>
      <trkpt lat="45.8840646" lon="7.0653814">
        <ele>2038.60</ele>
        <time>2019-09-07T13:15:39Z</time>
      </trkpt>
      <trkpt lat="45.8841566" lon="7.0654470">
        <ele>2038.92</ele>
        <time>2019-09-07T13:15:53Z</time>
      </trkpt>
      <trkpt lat="45.8842537" lon="7.0654639">
        <ele>2039.21</ele>
        <time>2019-09-07T13:16:03Z</time>
      </trkpt>
      <trkpt lat="45.8843600" lon="7.0654226">
        <ele>2042.83</ele>
        <time>2019-09-07T13:16:15Z</time>
      </trkpt>
      <trkpt lat="45.8844608" lon="7.0654384">
        <ele>2023.13</ele>
        <time>2019-09-07T13:16:25Z</time>
      </trkpt>
      <trkpt lat="45.8845578" lon="7.0654156">
        <ele>2042.85</ele>
        <time>2019-09-07T13:16:35Z</time>
      </trkpt>
      <trkpt lat="45.8846634" lon="7.0654071">
        <ele>2050.80</ele>
        <time>2019-09-07T13:16:47Z</time>
      </trkpt>
      <trkpt lat="45.8847465" lon="7.0655192">
        <ele>2051.85</ele>
        <time>2019-09-07T13:16:55Z</time>
      </trkpt>
      <trkpt lat="45.8848102" lon="7.0656172">
        <ele>2051.94</ele>
        <time>2019-09-07T13:17:05Z</time>
      </trkpt>
      <trkpt lat="45.8848423" lon="7.0658375">
        <ele>2046.56</ele>
        <time>2019-09-08T05:54:38Z</time>
      </trkpt>
      <trkpt lat="45.8848423" lon="7.0658375">
        <ele>2046.56</ele>
        <time>2019-09-08T05:54:38Z</time>
      </trkpt>
      <trkpt lat="46.0314748" lon="7.1121785">
        <ele>1472.73</ele>
        <time>2019-09-08T15:05:10Z</time>
      </trkpt>
      <trkpt lat="45.8848423" lon="7.0658375">
        <ele>2046.56</ele>
        <time>2019-09-08T05:54:38Z</time>
      </trkpt>
      <trkpt lat="45.8848180" lon="7.0657013">
        <ele>2054.86</ele>
        <time>2019-09-08T05:55:10Z</time>
      </trkpt>
      <trkpt lat="45.8848390" lon="7.0655757">
        <ele>2072.04</ele>
        <time>2019-09-08T05:56:58Z</time>
      </trkpt>
      <trkpt lat="45.8849148" lon="7.0656522">
        <ele>2062.31</ele>
        <time>2019-09-08T05:57:16Z</time>
      </trkpt>
      <trkpt lat="45.8849591" lon="7.0657778">
        <ele>2063.05</ele>
        <time>2019-09-08T05:57:44Z</time>
      </trkpt>
      <trkpt lat="45.8850414" lon="7.0658805">
        <ele>2062.94</ele>
        <time>2019-09-08T05:57:54Z</time>
      </trkpt>
      <trkpt lat="45.8851139" lon="7.0659693">
        <ele>2061.95</ele>
        <time>2019-09-08T05:58:02Z</time>
      </trkpt>
      <trkpt lat="45.8851926" lon="7.0660757">
        <ele>2062.93</ele>
        <time>2019-09-08T05:58:12Z</time>
      </trkpt>
      <trkpt lat="45.8852499" lon="7.0661814">
        <ele>2061.97</ele>
        <time>2019-09-08T05:58:22Z</time>
      </trkpt>
      <trkpt lat="45.8853146" lon="7.0663096">
        <ele>2060.25</ele>
        <time>2019-09-08T05:58:32Z</time>
      </trkpt>
      <trkpt lat="45.8853542" lon="7.0664317">
        <ele>2058.76</ele>
        <time>2019-09-08T05:58:40Z</time>
      </trkpt>
      <trkpt lat="45.8853845" lon="7.0665669">
        <ele>2057.25</ele>
        <time>2019-09-08T05:58:48Z</time>
      </trkpt>
      <trkpt lat="45.8854222" lon="7.0666985">
        <ele>2057.92</ele>
        <time>2019-09-08T05:58:58Z</time>
      </trkpt>
      <trkpt lat="45.8854217" lon="7.0668559">
        <ele>2056.97</ele>
        <time>2019-09-08T05:59:08Z</time>
      </trkpt>
      <trkpt lat="45.8854063" lon="7.0669867">
        <ele>2056.88</ele>
        <time>2019-09-08T05:59:18Z</time>
      </trkpt>
      <trkpt lat="45.8853772" lon="7.0671093">
        <ele>2055.97</ele>
        <time>2019-09-08T05:59:28Z</time>
      </trkpt>
      <trkpt lat="45.8853427" lon="7.0672400">
        <ele>2055.65</ele>
        <time>2019-09-08T05:59:42Z</time>
      </trkpt>
      <trkpt lat="45.8852774" lon="7.0673516">
        <ele>2054.94</ele>
        <time>2019-09-08T05:59:56Z</time>
      </trkpt>
      <trkpt lat="45.8852001" lon="7.0674311">
        <ele>2055.22</ele>
        <time>2019-09-08T06:00:10Z</time>
      </trkpt>
      <trkpt lat="45.8851190" lon="7.0675166">
        <ele>2057.93</ele>
        <time>2019-09-08T06:00:24Z</time>
      </trkpt>
      <trkpt lat="45.8850431" lon="7.0676174">
        <ele>2059.91</ele>
        <time>2019-09-08T06:00:35Z</time>
      </trkpt>
      <trkpt lat="45.8849878" lon="7.0677440">
        <ele>2060.94</ele>
        <time>2019-09-08T06:00:49Z</time>
      </trkpt>
      <trkpt lat="45.8849356" lon="7.0678530">
        <ele>2063.85</ele>
        <time>2019-09-08T06:01:07Z</time>
      </trkpt>
      <trkpt lat="45.8848469" lon="7.0679173">
        <ele>2066.82</ele>
        <time>2019-09-08T06:01:19Z</time>
      </trkpt>
      <trkpt lat="45.8847496" lon="7.0679467">
        <ele>2071.85</ele>
        <time>2019-09-08T06:01:37Z</time>
      </trkpt>
      <trkpt lat="45.8846564" lon="7.0680065">
        <ele>2072.93</ele>
        <time>2019-09-08T06:01:51Z</time>
      </trkpt>
      <trkpt lat="45.8845763" lon="7.0680721">
        <ele>2076.91</ele>
        <time>2019-09-08T06:02:09Z</time>
      </trkpt>
      <trkpt lat="45.8844822" lon="7.0681114">
        <ele>2080.82</ele>
        <time>2019-09-08T06:02:25Z</time>
      </trkpt>
      <trkpt lat="45.8843820" lon="7.0681223">
        <ele>2082.93</ele>
        <time>2019-09-08T06:02:39Z</time>
      </trkpt>
      <trkpt lat="45.8842915" lon="7.0681518">
        <ele>2084.84</ele>
        <time>2019-09-08T06:02:51Z</time>
      </trkpt>
      <trkpt lat="45.8841943" lon="7.0682024">
        <ele>2087.55</ele>
        <time>2019-09-08T06:03:05Z</time>
      </trkpt>
      <trkpt lat="45.8840932" lon="7.0681994">
        <ele>2090.99</ele>
        <time>2019-09-08T06:03:23Z</time>
      </trkpt>
      <trkpt lat="45.8840019" lon="7.0682146">
        <ele>2092.85</ele>
        <time>2019-09-08T06:03:35Z</time>
      </trkpt>
      <trkpt lat="45.8839145" lon="7.0682492">
        <ele>2093.64</ele>
        <time>2019-09-08T06:03:49Z</time>
      </trkpt>
      <trkpt lat="45.8838144" lon="7.0681977">
        <ele>2096.84</ele>
        <time>2019-09-08T06:04:05Z</time>
      </trkpt>
      <trkpt lat="45.8837194" lon="7.0682157">
        <ele>2099.91</ele>
        <time>2019-09-08T06:04:21Z</time>
      </trkpt>
      <trkpt lat="45.8836276" lon="7.0682262">
        <ele>2099.80</ele>
        <time>2019-09-08T06:04:37Z</time>
      </trkpt>
      <trkpt lat="45.8835307" lon="7.0682198">
        <ele>2105.61</ele>
        <time>2019-09-08T06:04:57Z</time>
      </trkpt>
      <trkpt lat="45.8834325" lon="7.0682018">
        <ele>2107.91</ele>
        <time>2019-09-08T06:05:11Z</time>
      </trkpt>
      <trkpt lat="45.8833310" lon="7.0681845">
        <ele>2106.79</ele>
        <time>2019-09-08T06:05:27Z</time>
      </trkpt>
      <trkpt lat="45.8832294" lon="7.0681843">
        <ele>2111.61</ele>
        <time>2019-09-08T06:05:41Z</time>
      </trkpt>
      <trkpt lat="45.8832324" lon="7.0683196">
        <ele>2114.95</ele>
        <time>2019-09-08T06:06:11Z</time>
      </trkpt>
      <trkpt lat="45.8833054" lon="7.0683993">
        <ele>2116.85</ele>
        <time>2019-09-08T06:06:25Z</time>
      </trkpt>
      <trkpt lat="45.8833775" lon="7.0684952">
        <ele>2114.74</ele>
        <time>2019-09-08T06:06:39Z</time>
      </trkpt>
      <trkpt lat="45.8834490" lon="7.0685790">
        <ele>2118.61</ele>
        <time>2019-09-08T06:06:51Z</time>
      </trkpt>
      <trkpt lat="45.8835185" lon="7.0686673">
        <ele>2118.04</ele>
        <time>2019-09-08T06:07:03Z</time>
      </trkpt>
      <trkpt lat="45.8836044" lon="7.0687137">
        <ele>2117.10</ele>
        <time>2019-09-08T06:07:19Z</time>
      </trkpt>
      <trkpt lat="45.8835115" lon="7.0687465">
        <ele>2128.90</ele>
        <time>2019-09-08T06:07:39Z</time>
      </trkpt>
      <trkpt lat="45.8834131" lon="7.0687184">
        <ele>2133.85</ele>
        <time>2019-09-08T06:07:57Z</time>
      </trkpt>
      <trkpt lat="45.8833195" lon="7.0687264">
        <ele>2136.54</ele>
        <time>2019-09-08T06:08:13Z</time>
      </trkpt>
      <trkpt lat="45.8832212" lon="7.0687084">
        <ele>2138.64</ele>
        <time>2019-09-08T06:08:31Z</time>
      </trkpt>
      <trkpt lat="45.8831265" lon="7.0687103">
        <ele>2140.63</ele>
        <time>2019-09-08T06:08:47Z</time>
      </trkpt>
      <trkpt lat="45.8831738" lon="7.0688220">
        <ele>2142.59</ele>
        <time>2019-09-08T06:09:09Z</time>
      </trkpt>
      <trkpt lat="45.8832449" lon="7.0689265">
        <ele>2144.57</ele>
        <time>2019-09-08T06:09:25Z</time>
      </trkpt>
      <trkpt lat="45.8833162" lon="7.0690222">
        <ele>2138.46</ele>
        <time>2019-09-08T06:09:43Z</time>
      </trkpt>
      <trkpt lat="45.8833895" lon="7.0691140">
        <ele>2145.85</ele>
        <time>2019-09-08T06:10:01Z</time>
      </trkpt>
      <trkpt lat="45.8834597" lon="7.0692061">
        <ele>2150.60</ele>
        <time>2019-09-08T06:10:25Z</time>
      </trkpt>
      <trkpt lat="45.8835484" lon="7.0692540">
        <ele>2155.61</ele>
        <time>2019-09-08T06:10:41Z</time>
      </trkpt>
      <trkpt lat="45.8836372" lon="7.0693173">
        <ele>2158.93</ele>
        <time>2019-09-08T06:10:55Z</time>
      </trkpt>
      <trkpt lat="45.8837272" lon="7.0693697">
        <ele>2159.93</ele>
        <time>2019-09-08T06:11:11Z</time>
      </trkpt>
      <trkpt lat="45.8837992" lon="7.0694720">
        <ele>2151.96</ele>
        <time>2019-09-08T06:11:27Z</time>
      </trkpt>
      <trkpt lat="45.8838728" lon="7.0695624">
        <ele>2163.60</ele>
        <time>2019-09-08T06:11:45Z</time>
      </trkpt>
      <trkpt lat="45.8839663" lon="7.0696120">
        <ele>2168.61</ele>
        <time>2019-09-08T06:12:07Z</time>
      </trkpt>
      <trkpt lat="45.8840476" lon="7.0697087">
        <ele>2171.93</ele>
        <time>2019-09-08T06:12:23Z</time>
      </trkpt>
      <trkpt lat="45.8841335" lon="7.0697578">
        <ele>2175.82</ele>
        <time>2019-09-08T06:12:39Z</time>
      </trkpt>
      <trkpt lat="45.8842143" lon="7.0698173">
        <ele>2180.84</ele>
        <time>2019-09-08T06:13:05Z</time>
      </trkpt>
      <trkpt lat="45.8842825" lon="7.0699029">
        <ele>2181.94</ele>
        <time>2019-09-08T06:13:23Z</time>
      </trkpt>
      <trkpt lat="45.8841990" lon="7.0699718">
        <ele>2184.82</ele>
        <time>2019-09-08T06:13:39Z</time>
      </trkpt>
      <trkpt lat="45.8841154" lon="7.0700362">
        <ele>2188.85</ele>
        <time>2019-09-08T06:13:57Z</time>
      </trkpt>
      <trkpt lat="45.8840327" lon="7.0700946">
        <ele>2191.85</ele>
        <time>2019-09-08T06:14:17Z</time>
      </trkpt>
      <trkpt lat="45.8839437" lon="7.0701373">
        <ele>2197.90</ele>
        <time>2019-09-08T06:14:35Z</time>
      </trkpt>
      <trkpt lat="45.8838502" lon="7.0701820">
        <ele>2200.85</ele>
        <time>2019-09-08T06:14:49Z</time>
      </trkpt>
      <trkpt lat="45.8837607" lon="7.0702219">
        <ele>2201.85</ele>
        <time>2019-09-08T06:14:59Z</time>
      </trkpt>
      <trkpt lat="45.8836562" lon="7.0702845">
        <ele>2202.93</ele>
        <time>2019-09-08T06:15:09Z</time>
      </trkpt>
      <trkpt lat="45.8835688" lon="7.0703286">
        <ele>2203.85</ele>
        <time>2019-09-08T06:15:17Z</time>
      </trkpt>
      <trkpt lat="45.8834858" lon="7.0703789">
        <ele>2203.94</ele>
        <time>2019-09-08T06:15:25Z</time>
      </trkpt>
      <trkpt lat="45.8834033" lon="7.0704467">
        <ele>2204.93</ele>
        <time>2019-09-08T06:15:37Z</time>
      </trkpt>
      <trkpt lat="45.8833115" lon="7.0704943">
        <ele>2205.92</ele>
        <time>2019-09-08T06:15:51Z</time>
      </trkpt>
      <trkpt lat="45.8832514" lon="7.0706001">
        <ele>2207.94</ele>
        <time>2019-09-08T06:16:07Z</time>
      </trkpt>
      <trkpt lat="45.8832150" lon="7.0707291">
        <ele>2208.64</ele>
        <time>2019-09-08T06:16:23Z</time>
      </trkpt>
      <trkpt lat="45.8832983" lon="7.0707952">
        <ele>2208.93</ele>
        <time>2019-09-08T06:16:53Z</time>
      </trkpt>
      <trkpt lat="45.8833893" lon="7.0708150">
        <ele>2208.72</ele>
        <time>2019-09-08T06:17:09Z</time>
      </trkpt>
      <trkpt lat="45.8834854" lon="7.0708366">
        <ele>2209.93</ele>
        <time>2019-09-08T06:17:27Z</time>
      </trkpt>
      <trkpt lat="45.8835799" lon="7.0708795">
        <ele>2210.24</ele>
        <time>2019-09-08T06:17:45Z</time>
      </trkpt>
      <trkpt lat="45.8836329" lon="7.0709903">
        <ele>2212.91</ele>
        <time>2019-09-08T06:18:03Z</time>
      </trkpt>
      <trkpt lat="45.8835861" lon="7.0711171">
        <ele>2217.60</ele>
        <time>2019-09-08T06:18:17Z</time>
      </trkpt>
      <trkpt lat="45.8835579" lon="7.0712471">
        <ele>2223.63</ele>
        <time>2019-09-08T06:18:35Z</time>
      </trkpt>
      <trkpt lat="45.8835386" lon="7.0713894">
        <ele>2227.61</ele>
        <time>2019-09-08T06:18:51Z</time>
      </trkpt>
      <trkpt lat="45.8835356" lon="7.0715317">
        <ele>2232.90</ele>
        <time>2019-09-08T06:19:11Z</time>
      </trkpt>
      <trkpt lat="45.8835502" lon="7.0716691">
        <ele>2232.84</ele>
        <time>2019-09-08T06:19:35Z</time>
      </trkpt>
      <trkpt lat="45.8835324" lon="7.0717998">
        <ele>2236.85</ele>
        <time>2019-09-08T06:19:51Z</time>
      </trkpt>
      <trkpt lat="45.8835427" lon="7.0719287">
        <ele>2238.84</ele>
        <time>2019-09-08T06:20:05Z</time>
      </trkpt>
      <trkpt lat="45.8834785" lon="7.0720402">
        <ele>2243.55</ele>
        <time>2019-09-08T06:20:23Z</time>
      </trkpt>
      <trkpt lat="45.8834530" lon="7.0721732">
        <ele>2244.63</ele>
        <time>2019-09-08T06:20:43Z</time>
      </trkpt>
      <trkpt lat="45.8834154" lon="7.0722984">
        <ele>2249.63</ele>
        <time>2019-09-08T06:21:01Z</time>
      </trkpt>
      <trkpt lat="45.8833197" lon="7.0722704">
        <ele>2254.88</ele>
        <time>2019-09-08T06:21:27Z</time>
      </trkpt>
      <trkpt lat="45.8832423" lon="7.0723874">
        <ele>2254.97</ele>
        <time>2019-09-08T06:21:41Z</time>
      </trkpt>
      <trkpt lat="45.8832058" lon="7.0725137">
        <ele>2255.94</ele>
        <time>2019-09-08T06:21:53Z</time>
      </trkpt>
      <trkpt lat="45.8831530" lon="7.0726313">
        <ele>2255.88</ele>
        <time>2019-09-08T06:22:09Z</time>
      </trkpt>
      <trkpt lat="45.8831128" lon="7.0727505">
        <ele>2256.88</ele>
        <time>2019-09-08T06:22:23Z</time>
      </trkpt>
      <trkpt lat="45.8830381" lon="7.0728476">
        <ele>2259.61</ele>
        <time>2019-09-08T06:22:39Z</time>
      </trkpt>
      <trkpt lat="45.8829787" lon="7.0729471">
        <ele>2252.79</ele>
        <time>2019-09-08T06:22:53Z</time>
      </trkpt>
      <trkpt lat="45.8829495" lon="7.0730814">
        <ele>2259.60</ele>
        <time>2019-09-08T06:23:13Z</time>
      </trkpt>
      <trkpt lat="45.8829515" lon="7.0732266">
        <ele>2248.80</ele>
        <time>2019-09-08T06:23:33Z</time>
      </trkpt>
      <trkpt lat="45.8829004" lon="7.0733472">
        <ele>2266.54</ele>
        <time>2019-09-08T06:23:51Z</time>
      </trkpt>
      <trkpt lat="45.8828360" lon="7.0734415">
        <ele>2272.91</ele>
        <time>2019-09-08T06:24:17Z</time>
      </trkpt>
      <trkpt lat="45.8829101" lon="7.0735160">
        <ele>2272.91</ele>
        <time>2019-09-08T06:24:45Z</time>
      </trkpt>
      <trkpt lat="45.8829042" lon="7.0736478">
        <ele>2273.94</ele>
        <time>2019-09-08T06:25:03Z</time>
      </trkpt>
      <trkpt lat="45.8828550" lon="7.0737679">
        <ele>2279.61</ele>
        <time>2019-09-08T06:25:19Z</time>
      </trkpt>
      <trkpt lat="45.8828199" lon="7.0738871">
        <ele>2282.84</ele>
        <time>2019-09-08T06:25:37Z</time>
      </trkpt>
      <trkpt lat="45.8827749" lon="7.0740059">
        <ele>2283.24</ele>
        <time>2019-09-08T06:25:55Z</time>
      </trkpt>
      <trkpt lat="45.8827838" lon="7.0741367">
        <ele>2286.82</ele>
        <time>2019-09-08T06:26:17Z</time>
      </trkpt>
      <trkpt lat="45.8828167" lon="7.0742619">
        <ele>2290.94</ele>
        <time>2019-09-08T06:26:41Z</time>
      </trkpt>
      <trkpt lat="45.8827174" lon="7.0742642">
        <ele>2295.84</ele>
        <time>2019-09-08T06:26:59Z</time>
      </trkpt>
      <trkpt lat="45.8826238" lon="7.0743492">
        <ele>2298.32</ele>
        <time>2019-09-08T06:27:15Z</time>
      </trkpt>
      <trkpt lat="45.8825765" lon="7.0744704">
        <ele>2300.03</ele>
        <time>2019-09-08T06:27:27Z</time>
      </trkpt>
      <trkpt lat="45.8825587" lon="7.0746102">
        <ele>2298.26</ele>
        <time>2019-09-08T06:27:37Z</time>
      </trkpt>
      <trkpt lat="45.8825672" lon="7.0747477">
        <ele>2296.25</ele>
        <time>2019-09-08T06:27:47Z</time>
      </trkpt>
      <trkpt lat="45.8825618" lon="7.0748848">
        <ele>2296.85</ele>
        <time>2019-09-08T06:27:59Z</time>
      </trkpt>
      <trkpt lat="45.8825324" lon="7.0750219">
        <ele>2298.64</ele>
        <time>2019-09-08T06:28:13Z</time>
      </trkpt>
      <trkpt lat="45.8825140" lon="7.0751641">
        <ele>2302.55</ele>
        <time>2019-09-08T06:28:29Z</time>
      </trkpt>
      <trkpt lat="45.8825377" lon="7.0753089">
        <ele>2304.93</ele>
        <time>2019-09-08T06:28:53Z</time>
      </trkpt>
      <trkpt lat="45.8824673" lon="7.0754131">
        <ele>2307.15</ele>
        <time>2019-09-08T06:29:09Z</time>
      </trkpt>
      <trkpt lat="45.8824580" lon="7.0755547">
        <ele>2308.94</ele>
        <time>2019-09-08T06:29:25Z</time>
      </trkpt>
      <trkpt lat="45.8825473" lon="7.0755244">
        <ele>2310.79</ele>
        <time>2019-09-08T06:29:45Z</time>
      </trkpt>
      <trkpt lat="45.8825966" lon="7.0756356">
        <ele>2315.93</ele>
        <time>2019-09-08T06:30:23Z</time>
      </trkpt>
      <trkpt lat="45.8826446" lon="7.0757566">
        <ele>2317.23</ele>
        <time>2019-09-08T06:30:43Z</time>
      </trkpt>
      <trkpt lat="45.8827365" lon="7.0757795">
        <ele>2322.64</ele>
        <time>2019-09-08T06:31:13Z</time>
      </trkpt>
      <trkpt lat="45.8828066" lon="7.0756793">
        <ele>2324.94</ele>
        <time>2019-09-08T06:31:35Z</time>
      </trkpt>
      <trkpt lat="45.8828643" lon="7.0755595">
        <ele>2329.94</ele>
        <time>2019-09-08T06:31:59Z</time>
      </trkpt>
      <trkpt lat="45.8829541" lon="7.0754966">
        <ele>2332.21</ele>
        <time>2019-09-08T06:32:17Z</time>
      </trkpt>
      <trkpt lat="45.8830362" lon="7.0754245">
        <ele>2334.93</ele>
        <time>2019-09-08T06:32:37Z</time>
      </trkpt>
      <trkpt lat="45.8831041" lon="7.0753395">
        <ele>2336.92</ele>
        <time>2019-09-08T06:32:55Z</time>
      </trkpt>
      <trkpt lat="45.8831806" lon="7.0752628">
        <ele>2340.91</ele>
        <time>2019-09-08T06:33:15Z</time>
      </trkpt>
      <trkpt lat="45.8832770" lon="7.0752239">
        <ele>2345.91</ele>
        <time>2019-09-08T06:33:39Z</time>
      </trkpt>
      <trkpt lat="45.8833689" lon="7.0752225">
        <ele>2349.82</ele>
        <time>2019-09-08T06:33:57Z</time>
      </trkpt>
      <trkpt lat="45.8833346" lon="7.0753487">
        <ele>2352.82</ele>
        <time>2019-09-08T06:34:19Z</time>
      </trkpt>
      <trkpt lat="45.8833927" lon="7.0754505">
        <ele>2361.61</ele>
        <time>2019-09-08T06:34:59Z</time>
      </trkpt>
      <trkpt lat="45.8833643" lon="7.0755758">
        <ele>2363.58</ele>
        <time>2019-09-08T06:35:17Z</time>
      </trkpt>
      <trkpt lat="45.8833466" lon="7.0757099">
        <ele>2366.93</ele>
        <time>2019-09-08T06:35:35Z</time>
      </trkpt>
      <trkpt lat="45.8833030" lon="7.0758296">
        <ele>2369.14</ele>
        <time>2019-09-08T06:35:53Z</time>
      </trkpt>
      <trkpt lat="45.8833268" lon="7.0759584">
        <ele>2372.85</ele>
        <time>2019-09-08T06:36:13Z</time>
      </trkpt>
      <trkpt lat="45.8833580" lon="7.0760918">
        <ele>2375.95</ele>
        <time>2019-09-08T06:36:39Z</time>
      </trkpt>
      <trkpt lat="45.8834432" lon="7.0761508">
        <ele>2377.92</ele>
        <time>2019-09-08T06:36:57Z</time>
      </trkpt>
      <trkpt lat="45.8834989" lon="7.0762581">
        <ele>2380.94</ele>
        <time>2019-09-08T06:37:23Z</time>
      </trkpt>
      <trkpt lat="45.8835822" lon="7.0762084">
        <ele>2383.93</ele>
        <time>2019-09-08T06:37:47Z</time>
      </trkpt>
      <trkpt lat="45.8836774" lon="7.0762239">
        <ele>2388.91</ele>
        <time>2019-09-08T06:38:13Z</time>
      </trkpt>
      <trkpt lat="45.8837630" lon="7.0762909">
        <ele>2392.82</ele>
        <time>2019-09-08T06:38:33Z</time>
      </trkpt>
      <trkpt lat="45.8838528" lon="7.0762354">
        <ele>2396.64</ele>
        <time>2019-09-08T06:39:01Z</time>
      </trkpt>
      <trkpt lat="45.8839277" lon="7.0761601">
        <ele>2398.61</ele>
        <time>2019-09-08T06:39:39Z</time>
      </trkpt>
      <trkpt lat="45.8839843" lon="7.0760492">
        <ele>2401.91</ele>
        <time>2019-09-08T06:40:01Z</time>
      </trkpt>
      <trkpt lat="45.8840484" lon="7.0759556">
        <ele>2402.92</ele>
        <time>2019-09-08T06:40:17Z</time>
      </trkpt>
      <trkpt lat="45.8841218" lon="7.0758732">
        <ele>2406.61</ele>
        <time>2019-09-08T06:40:35Z</time>
      </trkpt>
      <trkpt lat="45.8842189" lon="7.0758681">
        <ele>2411.84</ele>
        <time>2019-09-08T06:40:59Z</time>
      </trkpt>
      <trkpt lat="45.8843091" lon="7.0758633">
        <ele>2415.82</ele>
        <time>2019-09-08T06:41:15Z</time>
      </trkpt>
      <trkpt lat="45.8843876" lon="7.0757851">
        <ele>2417.94</ele>
        <time>2019-09-08T06:41:37Z</time>
      </trkpt>
      <trkpt lat="45.8844775" lon="7.0757454">
        <ele>2420.91</ele>
        <time>2019-09-08T06:41:55Z</time>
      </trkpt>
      <trkpt lat="45.8845654" lon="7.0756865">
        <ele>2423.85</ele>
        <time>2019-09-08T06:42:11Z</time>
      </trkpt>
      <trkpt lat="45.8846541" lon="7.0756524">
        <ele>2427.54</ele>
        <time>2019-09-08T06:42:31Z</time>
      </trkpt>
      <trkpt lat="45.8847459" lon="7.0755994">
        <ele>2430.63</ele>
        <time>2019-09-08T06:42:47Z</time>
      </trkpt>
      <trkpt lat="45.8848226" lon="7.0755153">
        <ele>2431.92</ele>
        <time>2019-09-08T06:43:03Z</time>
      </trkpt>
      <trkpt lat="45.8849062" lon="7.0754601">
        <ele>2434.91</ele>
        <time>2019-09-08T06:43:23Z</time>
      </trkpt>
      <trkpt lat="45.8849886" lon="7.0753947">
        <ele>2436.64</ele>
        <time>2019-09-08T06:43:41Z</time>
      </trkpt>
      <trkpt lat="45.8850742" lon="7.0753195">
        <ele>2441.90</ele>
        <time>2019-09-08T06:44:05Z</time>
      </trkpt>
      <trkpt lat="45.8851448" lon="7.0752258">
        <ele>2442.94</ele>
        <time>2019-09-08T06:44:19Z</time>
      </trkpt>
      <trkpt lat="45.8852252" lon="7.0751588">
        <ele>2444.91</ele>
        <time>2019-09-08T06:44:37Z</time>
      </trkpt>
      <trkpt lat="45.8853122" lon="7.0751067">
        <ele>2446.94</ele>
        <time>2019-09-08T06:44:57Z</time>
      </trkpt>
      <trkpt lat="45.8853959" lon="7.0750545">
        <ele>2449.85</ele>
        <time>2019-09-08T06:45:17Z</time>
      </trkpt>
      <trkpt lat="45.8854942" lon="7.0750445">
        <ele>2454.82</ele>
        <time>2019-09-08T06:45:37Z</time>
      </trkpt>
      <trkpt lat="45.8855533" lon="7.0751525">
        <ele>2457.85</ele>
        <time>2019-09-08T06:46:03Z</time>
      </trkpt>
      <trkpt lat="45.8855554" lon="7.0752946">
        <ele>2459.63</ele>
        <time>2019-09-08T06:46:21Z</time>
      </trkpt>
      <trkpt lat="45.8855525" lon="7.0754370">
        <ele>2461.61</ele>
        <time>2019-09-08T06:46:37Z</time>
      </trkpt>
      <trkpt lat="45.8855840" lon="7.0755690">
        <ele>2464.61</ele>
        <time>2019-09-08T06:46:53Z</time>
      </trkpt>
      <trkpt lat="45.8855942" lon="7.0757066">
        <ele>2466.64</ele>
        <time>2019-09-08T06:47:11Z</time>
      </trkpt>
      <trkpt lat="45.8855815" lon="7.0758496">
        <ele>2468.85</ele>
        <time>2019-09-08T06:47:31Z</time>
      </trkpt>
      <trkpt lat="45.8856014" lon="7.0759848">
        <ele>2472.63</ele>
        <time>2019-09-08T06:47:49Z</time>
      </trkpt>
      <trkpt lat="45.8856732" lon="7.0760847">
        <ele>2474.91</ele>
        <time>2019-09-08T06:48:11Z</time>
      </trkpt>
      <trkpt lat="45.8857230" lon="7.0762004">
        <ele>2475.94</ele>
        <time>2019-09-08T06:48:27Z</time>
      </trkpt>
      <trkpt lat="45.8857822" lon="7.0763049">
        <ele>2478.91</ele>
        <time>2019-09-08T06:48:45Z</time>
      </trkpt>
      <trkpt lat="45.8858403" lon="7.0764132">
        <ele>2480.93</ele>
        <time>2019-09-08T06:49:03Z</time>
      </trkpt>
      <trkpt lat="45.8858479" lon="7.0765441">
        <ele>2484.15</ele>
        <time>2019-09-08T06:49:21Z</time>
      </trkpt>
      <trkpt lat="45.8859002" lon="7.0766625">
        <ele>2488.94</ele>
        <time>2019-09-08T06:49:47Z</time>
      </trkpt>
      <trkpt lat="45.8859661" lon="7.0767521">
        <ele>2490.94</ele>
        <time>2019-09-08T06:50:05Z</time>
      </trkpt>
      <trkpt lat="45.8860048" lon="7.0768696">
        <ele>2494.86</ele>
        <time>2019-09-08T06:50:25Z</time>
      </trkpt>
      <trkpt lat="45.8860034" lon="7.0770048">
        <ele>2498.61</ele>
        <time>2019-09-08T06:50:45Z</time>
      </trkpt>
      <trkpt lat="45.8860805" lon="7.0770871">
        <ele>2501.89</ele>
        <time>2019-09-08T06:51:05Z</time>
      </trkpt>
      <trkpt lat="45.8861751" lon="7.0771509">
        <ele>2503.85</ele>
        <time>2019-09-08T06:51:27Z</time>
      </trkpt>
      <trkpt lat="45.8862610" lon="7.0771906">
        <ele>2506.55</ele>
        <time>2019-09-08T06:51:43Z</time>
      </trkpt>
      <trkpt lat="45.8863509" lon="7.0772253">
        <ele>2509.91</ele>
        <time>2019-09-08T06:51:59Z</time>
      </trkpt>
      <trkpt lat="45.8864565" lon="7.0772689">
        <ele>2511.00</ele>
        <time>2019-09-08T06:52:13Z</time>
      </trkpt>
      <trkpt lat="45.8865416" lon="7.0773187">
        <ele>2511.94</ele>
        <time>2019-09-08T06:52:23Z</time>
      </trkpt>
      <trkpt lat="45.8866286" lon="7.0773789">
        <ele>2513.85</ele>
        <time>2019-09-08T06:52:35Z</time>
      </trkpt>
      <trkpt lat="45.8867292" lon="7.0773997">
        <ele>2515.91</ele>
        <time>2019-09-08T06:52:51Z</time>
      </trkpt>
      <trkpt lat="45.8868303" lon="7.0774418">
        <ele>2516.02</ele>
        <time>2019-09-08T06:53:01Z</time>
      </trkpt>
      <trkpt lat="45.8869200" lon="7.0774658">
        <ele>2517.23</ele>
        <time>2019-09-08T06:53:15Z</time>
      </trkpt>
      <trkpt lat="45.8870150" lon="7.0774995">
        <ele>2515.95</ele>
        <time>2019-09-08T06:53:25Z</time>
      </trkpt>
      <trkpt lat="45.8871117" lon="7.0775356">
        <ele>2515.65</ele>
        <time>2019-09-08T06:53:37Z</time>
      </trkpt>
      <trkpt lat="45.8872068" lon="7.0775822">
        <ele>2515.03</ele>
        <time>2019-09-08T06:53:47Z</time>
      </trkpt>
      <trkpt lat="45.8873038" lon="7.0776001">
        <ele>2515.94</ele>
        <time>2019-09-08T06:53:59Z</time>
      </trkpt>
      <trkpt lat="45.8873907" lon="7.0776344">
        <ele>2516.02</ele>
        <time>2019-09-08T06:54:09Z</time>
      </trkpt>
      <trkpt lat="45.8874850" lon="7.0776612">
        <ele>2516.24</ele>
        <time>2019-09-08T06:54:21Z</time>
      </trkpt>
      <trkpt lat="45.8875756" lon="7.0776848">
        <ele>2516.65</ele>
        <time>2019-09-08T06:54:31Z</time>
      </trkpt>
      <trkpt lat="45.8876794" lon="7.0777260">
        <ele>2516.94</ele>
        <time>2019-09-08T06:54:45Z</time>
      </trkpt>
      <trkpt lat="45.8877726" lon="7.0777543">
        <ele>2517.92</ele>
        <time>2019-09-08T06:54:57Z</time>
      </trkpt>
      <trkpt lat="45.8878740" lon="7.0777953">
        <ele>2519.58</ele>
        <time>2019-09-08T06:55:09Z</time>
      </trkpt>
      <trkpt lat="45.8879708" lon="7.0777758">
        <ele>2519.96</ele>
        <time>2019-09-08T06:55:21Z</time>
      </trkpt>
      <trkpt lat="45.8880760" lon="7.0777735">
        <ele>2521.84</ele>
        <time>2019-09-08T06:55:33Z</time>
      </trkpt>
      <trkpt lat="45.8881828" lon="7.0777591">
        <ele>2524.61</ele>
        <time>2019-09-08T06:55:45Z</time>
      </trkpt>
      <trkpt lat="45.8882748" lon="7.0777538">
        <ele>2524.94</ele>
        <time>2019-09-08T06:55:59Z</time>
      </trkpt>
      <trkpt lat="45.8883664" lon="7.0777356">
        <ele>2526.84</ele>
        <time>2019-09-08T06:56:11Z</time>
      </trkpt>
      <trkpt lat="45.8884653" lon="7.0777340">
        <ele>2526.94</ele>
        <time>2019-09-08T06:56:23Z</time>
      </trkpt>
      <trkpt lat="45.8885550" lon="7.0777513">
        <ele>2526.94</ele>
        <time>2019-09-08T06:56:33Z</time>
      </trkpt>
      <trkpt lat="45.8886514" lon="7.0777685">
        <ele>2528.91</ele>
        <time>2019-09-08T06:56:45Z</time>
      </trkpt>
      <trkpt lat="45.8887417" lon="7.0777689">
        <ele>2528.94</ele>
        <time>2019-09-08T06:56:59Z</time>
      </trkpt>
      <trkpt lat="45.8888289" lon="7.0778120">
        <ele>2529.93</ele>
        <time>2019-09-08T06:57:13Z</time>
      </trkpt>
      <trkpt lat="45.8889219" lon="7.0778615">
        <ele>2531.94</ele>
        <time>2019-09-08T06:57:29Z</time>
      </trkpt>
      <trkpt lat="45.8889954" lon="7.0779451">
        <ele>2534.24</ele>
        <time>2019-09-08T06:58:03Z</time>
      </trkpt>
      <trkpt lat="45.8890585" lon="7.0780481">
        <ele>2531.25</ele>
        <time>2019-09-08T06:58:23Z</time>
      </trkpt>
      <trkpt lat="45.8891489" lon="7.0781140">
        <ele>2528.03</ele>
        <time>2019-09-08T06:58:41Z</time>
      </trkpt>
      <trkpt lat="45.8892388" lon="7.0781072">
        <ele>2526.97</ele>
        <time>2019-09-08T06:58:51Z</time>
      </trkpt>
      <trkpt lat="45.8893319" lon="7.0781177">
        <ele>2523.37</ele>
        <time>2019-09-08T06:59:03Z</time>
      </trkpt>
      <trkpt lat="45.8894219" lon="7.0780973">
        <ele>2521.27</ele>
        <time>2019-09-08T06:59:11Z</time>
      </trkpt>
      <trkpt lat="45.8895151" lon="7.0780817">
        <ele>2520.94</ele>
        <time>2019-09-08T06:59:21Z</time>
      </trkpt>
      <trkpt lat="45.8896121" lon="7.0780809">
        <ele>2518.95</ele>
        <time>2019-09-08T06:59:33Z</time>
      </trkpt>
      <trkpt lat="45.8897212" lon="7.0780640">
        <ele>2518.94</ele>
        <time>2019-09-08T06:59:45Z</time>
      </trkpt>
      <trkpt lat="45.8898158" lon="7.0780714">
        <ele>2518.05</ele>
        <time>2019-09-08T07:00:29Z</time>
      </trkpt>
      <trkpt lat="45.8899128" lon="7.0780275">
        <ele>2515.95</ele>
        <time>2019-09-08T07:00:45Z</time>
      </trkpt>
      <trkpt lat="45.8900064" lon="7.0780499">
        <ele>2515.24</ele>
        <time>2019-09-08T07:00:53Z</time>
      </trkpt>
      <trkpt lat="45.8901038" lon="7.0780441">
        <ele>2514.94</ele>
        <time>2019-09-08T07:01:01Z</time>
      </trkpt>
      <trkpt lat="45.8901963" lon="7.0780331">
        <ele>2514.03</ele>
        <time>2019-09-08T07:01:11Z</time>
      </trkpt>
      <trkpt lat="45.8903051" lon="7.0780098">
        <ele>2513.01</ele>
        <time>2019-09-08T07:01:21Z</time>
      </trkpt>
      <trkpt lat="45.8904083" lon="7.0779844">
        <ele>2512.94</ele>
        <time>2019-09-08T07:01:31Z</time>
      </trkpt>
      <trkpt lat="45.8905127" lon="7.0780041">
        <ele>2512.03</ele>
        <time>2019-09-08T07:01:41Z</time>
      </trkpt>
      <trkpt lat="45.8906161" lon="7.0780881">
        <ele>2510.94</ele>
        <time>2019-09-08T07:01:57Z</time>
      </trkpt>
      <trkpt lat="45.8906903" lon="7.0781712">
        <ele>2509.97</ele>
        <time>2019-09-08T07:02:05Z</time>
      </trkpt>
      <trkpt lat="45.8907742" lon="7.0782486">
        <ele>2508.04</ele>
        <time>2019-09-08T07:02:13Z</time>
      </trkpt>
      <trkpt lat="45.8908736" lon="7.0783099">
        <ele>2507.03</ele>
        <time>2019-09-08T07:02:23Z</time>
      </trkpt>
      <trkpt lat="45.8909627" lon="7.0783986">
        <ele>2505.22</ele>
        <time>2019-09-08T07:02:35Z</time>
      </trkpt>
      <trkpt lat="45.8910273" lon="7.0785101">
        <ele>2504.24</ele>
        <time>2019-09-08T07:02:43Z</time>
      </trkpt>
      <trkpt lat="45.8911054" lon="7.0786248">
        <ele>2504.01</ele>
        <time>2019-09-08T07:02:55Z</time>
      </trkpt>
      <trkpt lat="45.8911735" lon="7.0787299">
        <ele>2504.00</ele>
        <time>2019-09-08T07:03:15Z</time>
      </trkpt>
      <trkpt lat="45.8912473" lon="7.0788237">
        <ele>2500.34</ele>
        <time>2019-09-08T07:03:29Z</time>
      </trkpt>
      <trkpt lat="45.8912918" lon="7.0789567">
        <ele>2499.25</ele>
        <time>2019-09-08T07:03:41Z</time>
      </trkpt>
      <trkpt lat="45.8913268" lon="7.0790785">
        <ele>2497.97</ele>
        <time>2019-09-08T07:03:49Z</time>
      </trkpt>
      <trkpt lat="45.8913630" lon="7.0792199">
        <ele>2496.94</ele>
        <time>2019-09-08T07:03:59Z</time>
      </trkpt>
      <trkpt lat="45.8913848" lon="7.0793696">
        <ele>2495.94</ele>
        <time>2019-09-08T07:04:09Z</time>
      </trkpt>
      <trkpt lat="45.8914234" lon="7.0794914">
        <ele>2494.24</ele>
        <time>2019-09-08T07:04:19Z</time>
      </trkpt>
      <trkpt lat="45.8914852" lon="7.0795922">
        <ele>2493.94</ele>
        <time>2019-09-08T07:04:29Z</time>
      </trkpt>
      <trkpt lat="45.8915597" lon="7.0796848">
        <ele>2492.03</ele>
        <time>2019-09-08T07:04:41Z</time>
      </trkpt>
      <trkpt lat="45.8915517" lon="7.0798276">
        <ele>2491.03</ele>
        <time>2019-09-08T07:04:51Z</time>
      </trkpt>
      <trkpt lat="45.8915846" lon="7.0799517">
        <ele>2488.28</ele>
        <time>2019-09-08T07:05:01Z</time>
      </trkpt>
      <trkpt lat="45.8916396" lon="7.0800837">
        <ele>2487.03</ele>
        <time>2019-09-08T07:05:11Z</time>
      </trkpt>
      <trkpt lat="45.8916891" lon="7.0802265">
        <ele>2485.95</ele>
        <time>2019-09-08T07:05:21Z</time>
      </trkpt>
      <trkpt lat="45.8917262" lon="7.0803489">
        <ele>2485.94</ele>
        <time>2019-09-08T07:05:29Z</time>
      </trkpt>
      <trkpt lat="45.8917690" lon="7.0804913">
        <ele>2485.94</ele>
        <time>2019-09-08T07:05:39Z</time>
      </trkpt>
      <trkpt lat="45.8918145" lon="7.0806076">
        <ele>2485.88</ele>
        <time>2019-09-08T07:05:47Z</time>
      </trkpt>
      <trkpt lat="45.8918676" lon="7.0807140">
        <ele>2484.95</ele>
        <time>2019-09-08T07:05:55Z</time>
      </trkpt>
      <trkpt lat="45.8919266" lon="7.0808424">
        <ele>2483.95</ele>
        <time>2019-09-08T07:06:05Z</time>
      </trkpt>
      <trkpt lat="45.8919596" lon="7.0810109">
        <ele>2480.87</ele>
        <time>2019-09-08T07:06:14Z</time>
      </trkpt>
      <trkpt lat="45.8920249" lon="7.0811245">
        <ele>2479.24</ele>
        <time>2019-09-08T07:06:25Z</time>
      </trkpt>
      <trkpt lat="45.8920725" lon="7.0812378">
        <ele>2476.95</ele>
        <time>2019-09-08T07:06:37Z</time>
      </trkpt>
      <trkpt lat="45.8920830" lon="7.0813684">
        <ele>2477.88</ele>
        <time>2019-09-08T07:06:47Z</time>
      </trkpt>
      <trkpt lat="45.8920093" lon="7.0814557">
        <ele>2477.03</ele>
        <time>2019-09-08T07:06:57Z</time>
      </trkpt>
      <trkpt lat="45.8919812" lon="7.0816055">
        <ele>2477.94</ele>
        <time>2019-09-08T07:07:11Z</time>
      </trkpt>
      <trkpt lat="45.8919729" lon="7.0817598">
        <ele>2477.24</ele>
        <time>2019-09-08T07:07:24Z</time>
      </trkpt>
      <trkpt lat="45.8919455" lon="7.0819137">
        <ele>2476.24</ele>
        <time>2019-09-08T07:07:34Z</time>
      </trkpt>
      <trkpt lat="45.8919588" lon="7.0820687">
        <ele>2475.24</ele>
        <time>2019-09-08T07:07:44Z</time>
      </trkpt>
      <trkpt lat="45.8919762" lon="7.0822117">
        <ele>2474.94</ele>
        <time>2019-09-08T07:07:52Z</time>
      </trkpt>
      <trkpt lat="45.8920070" lon="7.0823344">
        <ele>2474.03</ele>
        <time>2019-09-08T07:08:00Z</time>
      </trkpt>
      <trkpt lat="45.8920688" lon="7.0824424">
        <ele>2474.02</ele>
        <time>2019-09-08T07:08:10Z</time>
      </trkpt>
      <trkpt lat="45.8921142" lon="7.0825852">
        <ele>2473.94</ele>
        <time>2019-09-08T07:08:20Z</time>
      </trkpt>
      <trkpt lat="45.8921507" lon="7.0827104">
        <ele>2472.03</ele>
        <time>2019-09-08T07:08:34Z</time>
      </trkpt>
      <trkpt lat="45.8921421" lon="7.0828661">
        <ele>2469.34</ele>
        <time>2019-09-08T07:08:44Z</time>
      </trkpt>
      <trkpt lat="45.8921787" lon="7.0829921">
        <ele>2467.95</ele>
        <time>2019-09-08T07:08:54Z</time>
      </trkpt>
      <trkpt lat="45.8922683" lon="7.0830678">
        <ele>2466.96</ele>
        <time>2019-09-08T07:09:04Z</time>
      </trkpt>
      <trkpt lat="45.8922738" lon="7.0832156">
        <ele>2465.25</ele>
        <time>2019-09-08T07:09:14Z</time>
      </trkpt>
      <trkpt lat="45.8922839" lon="7.0833474">
        <ele>2464.24</ele>
        <time>2019-09-08T07:09:24Z</time>
      </trkpt>
      <trkpt lat="45.8922978" lon="7.0834824">
        <ele>2462.95</ele>
        <time>2019-09-08T07:09:34Z</time>
      </trkpt>
      <trkpt lat="45.8922602" lon="7.0836308">
        <ele>2461.03</ele>
        <time>2019-09-08T07:09:44Z</time>
      </trkpt>
      <trkpt lat="45.8922672" lon="7.0837762">
        <ele>2458.33</ele>
        <time>2019-09-08T07:09:56Z</time>
      </trkpt>
      <trkpt lat="45.8922597" lon="7.0839088">
        <ele>2457.94</ele>
        <time>2019-09-08T07:10:06Z</time>
      </trkpt>
      <trkpt lat="45.8922478" lon="7.0840504">
        <ele>2455.28</ele>
        <time>2019-09-08T07:10:14Z</time>
      </trkpt>
      <trkpt lat="45.8922096" lon="7.0841719">
        <ele>2454.94</ele>
        <time>2019-09-08T07:10:24Z</time>
      </trkpt>
      <trkpt lat="45.8921029" lon="7.0841953">
        <ele>2453.24</ele>
        <time>2019-09-08T07:10:34Z</time>
      </trkpt>
      <trkpt lat="45.8920171" lon="7.0842634">
        <ele>2452.03</ele>
        <time>2019-09-08T07:10:42Z</time>
      </trkpt>
      <trkpt lat="45.8919355" lon="7.0843209">
        <ele>2450.95</ele>
        <time>2019-09-08T07:10:50Z</time>
      </trkpt>
      <trkpt lat="45.8918432" lon="7.0844129">
        <ele>2449.96</ele>
        <time>2019-09-08T07:11:00Z</time>
      </trkpt>
      <trkpt lat="45.8917643" lon="7.0844992">
        <ele>2449.03</ele>
        <time>2019-09-08T07:11:08Z</time>
      </trkpt>
      <trkpt lat="45.8917111" lon="7.0846210">
        <ele>2448.03</ele>
        <time>2019-09-08T07:11:18Z</time>
      </trkpt>
      <trkpt lat="45.8916672" lon="7.0847386">
        <ele>2446.97</ele>
        <time>2019-09-08T07:11:26Z</time>
      </trkpt>
      <trkpt lat="45.8916126" lon="7.0848518">
        <ele>2445.03</ele>
        <time>2019-09-08T07:11:36Z</time>
      </trkpt>
      <trkpt lat="45.8915500" lon="7.0849826">
        <ele>2443.03</ele>
        <time>2019-09-08T07:11:46Z</time>
      </trkpt>
      <trkpt lat="45.8914980" lon="7.0851001">
        <ele>2440.34</ele>
        <time>2019-09-08T07:11:54Z</time>
      </trkpt>
      <trkpt lat="45.8914336" lon="7.0852357">
        <ele>2438.04</ele>
        <time>2019-09-08T07:12:04Z</time>
      </trkpt>
      <trkpt lat="45.8914235" lon="7.0853936">
        <ele>2436.03</ele>
        <time>2019-09-08T07:12:14Z</time>
      </trkpt>
      <trkpt lat="45.8914005" lon="7.0855336">
        <ele>2434.95</ele>
        <time>2019-09-08T07:12:24Z</time>
      </trkpt>
      <trkpt lat="45.8914802" lon="7.0856294">
        <ele>2433.03</ele>
        <time>2019-09-08T07:12:36Z</time>
      </trkpt>
      <trkpt lat="45.8915792" lon="7.0856780">
        <ele>2430.33</ele>
        <time>2019-09-08T07:12:48Z</time>
      </trkpt>
      <trkpt lat="45.8916627" lon="7.0857759">
        <ele>2429.01</ele>
        <time>2019-09-08T07:13:02Z</time>
      </trkpt>
      <trkpt lat="45.8916955" lon="7.0859010">
        <ele>2427.25</ele>
        <time>2019-09-08T07:13:10Z</time>
      </trkpt>
      <trkpt lat="45.8917092" lon="7.0860538">
        <ele>2426.24</ele>
        <time>2019-09-08T07:13:20Z</time>
      </trkpt>
      <trkpt lat="45.8917321" lon="7.0861862">
        <ele>2425.94</ele>
        <time>2019-09-08T07:13:34Z</time>
      </trkpt>
      <trkpt lat="45.8917856" lon="7.0863039">
        <ele>2424.97</ele>
        <time>2019-09-08T07:13:42Z</time>
      </trkpt>
      <trkpt lat="45.8918249" lon="7.0864348">
        <ele>2423.95</ele>
        <time>2019-09-08T07:13:52Z</time>
      </trkpt>
      <trkpt lat="45.8918467" lon="7.0865661">
        <ele>2422.95</ele>
        <time>2019-09-08T07:14:00Z</time>
      </trkpt>
      <trkpt lat="45.8918902" lon="7.0866821">
        <ele>2422.24</ele>
        <time>2019-09-08T07:14:08Z</time>
      </trkpt>
      <trkpt lat="45.8919471" lon="7.0868053">
        <ele>2421.94</ele>
        <time>2019-09-08T07:14:18Z</time>
      </trkpt>
      <trkpt lat="45.8919819" lon="7.0869377">
        <ele>2413.89</ele>
        <time>2019-09-08T07:18:32Z</time>
      </trkpt>
      <trkpt lat="45.8919700" lon="7.0870764">
        <ele>2413.62</ele>
        <time>2019-09-08T07:18:42Z</time>
      </trkpt>
      <trkpt lat="45.8920070" lon="7.0872236">
        <ele>2414.85</ele>
        <time>2019-09-08T07:18:50Z</time>
      </trkpt>
      <trkpt lat="45.8920061" lon="7.0873642">
        <ele>2414.65</ele>
        <time>2019-09-08T07:18:58Z</time>
      </trkpt>
      <trkpt lat="45.8920024" lon="7.0875011">
        <ele>2413.96</ele>
        <time>2019-09-08T07:19:04Z</time>
      </trkpt>
      <trkpt lat="45.8919998" lon="7.0876548">
        <ele>2413.94</ele>
        <time>2019-09-08T07:19:10Z</time>
      </trkpt>
      <trkpt lat="45.8919846" lon="7.0877991">
        <ele>2413.03</ele>
        <time>2019-09-08T07:19:16Z</time>
      </trkpt>
      <trkpt lat="45.8919873" lon="7.0879551">
        <ele>2412.67</ele>
        <time>2019-09-08T07:19:22Z</time>
      </trkpt>
      <trkpt lat="45.8920041" lon="7.0880905">
        <ele>2410.15</ele>
        <time>2019-09-08T07:19:30Z</time>
      </trkpt>
      <trkpt lat="45.8920109" lon="7.0882616">
        <ele>2408.97</ele>
        <time>2019-09-08T07:19:38Z</time>
      </trkpt>
      <trkpt lat="45.8919783" lon="7.0883900">
        <ele>2407.95</ele>
        <time>2019-09-08T07:19:48Z</time>
      </trkpt>
      <trkpt lat="45.8919985" lon="7.0885425">
        <ele>2407.94</ele>
        <time>2019-09-08T07:19:54Z</time>
      </trkpt>
      <trkpt lat="45.8920193" lon="7.0887257">
        <ele>2405.98</ele>
        <time>2019-09-08T07:20:06Z</time>
      </trkpt>
      <trkpt lat="45.8920438" lon="7.0888980">
        <ele>2404.27</ele>
        <time>2019-09-08T07:20:12Z</time>
      </trkpt>
      <trkpt lat="45.8920652" lon="7.0890565">
        <ele>2403.04</ele>
        <time>2019-09-08T07:20:18Z</time>
      </trkpt>
      <trkpt lat="45.8920754" lon="7.0891866">
        <ele>2400.55</ele>
        <time>2019-09-08T07:20:28Z</time>
      </trkpt>
      <trkpt lat="45.8920937" lon="7.0893254">
        <ele>2399.96</ele>
        <time>2019-09-08T07:20:34Z</time>
      </trkpt>
      <trkpt lat="45.8921053" lon="7.0894690">
        <ele>2399.94</ele>
        <time>2019-09-08T07:20:40Z</time>
      </trkpt>
      <trkpt lat="45.8921068" lon="7.0896100">
        <ele>2399.24</ele>
        <time>2019-09-08T07:20:46Z</time>
      </trkpt>
      <trkpt lat="45.8921370" lon="7.0897564">
        <ele>2398.95</ele>
        <time>2019-09-08T07:20:52Z</time>
      </trkpt>
      <trkpt lat="45.8921652" lon="7.0899061">
        <ele>2398.18</ele>
        <time>2019-09-08T07:20:58Z</time>
      </trkpt>
      <trkpt lat="45.8921367" lon="7.0900634">
        <ele>2397.24</ele>
        <time>2019-09-08T07:21:06Z</time>
      </trkpt>
      <trkpt lat="45.8920951" lon="7.0901793">
        <ele>2396.95</ele>
        <time>2019-09-08T07:21:12Z</time>
      </trkpt>
      <trkpt lat="45.8920971" lon="7.0903464">
        <ele>2396.16</ele>
        <time>2019-09-08T07:21:20Z</time>
      </trkpt>
      <trkpt lat="45.8920714" lon="7.0904841">
        <ele>2396.65</ele>
        <time>2019-09-08T07:21:26Z</time>
      </trkpt>
      <trkpt lat="45.8920566" lon="7.0906521">
        <ele>2395.96</ele>
        <time>2019-09-08T07:21:32Z</time>
      </trkpt>
      <trkpt lat="45.8920339" lon="7.0907802">
        <ele>2395.03</ele>
        <time>2019-09-08T07:21:38Z</time>
      </trkpt>
      <trkpt lat="45.8920336" lon="7.0909420">
        <ele>2393.00</ele>
        <time>2019-09-08T07:21:46Z</time>
      </trkpt>
      <trkpt lat="45.8920891" lon="7.0910693">
        <ele>2389.45</ele>
        <time>2019-09-08T07:21:52Z</time>
      </trkpt>
      <trkpt lat="45.8921366" lon="7.0912033">
        <ele>2388.75</ele>
        <time>2019-09-08T07:21:58Z</time>
      </trkpt>
      <trkpt lat="45.8921253" lon="7.0913352">
        <ele>2385.93</ele>
        <time>2019-09-08T07:22:06Z</time>
      </trkpt>
      <trkpt lat="45.8921370" lon="7.0915166">
        <ele>2383.27</ele>
        <time>2019-09-08T07:22:16Z</time>
      </trkpt>
      <trkpt lat="45.8921489" lon="7.0916890">
        <ele>2381.07</ele>
        <time>2019-09-08T07:22:22Z</time>
      </trkpt>
      <trkpt lat="45.8921536" lon="7.0918540">
        <ele>2378.43</ele>
        <time>2019-09-08T07:22:28Z</time>
      </trkpt>
      <trkpt lat="45.8921401" lon="7.0920015">
        <ele>2375.68</ele>
        <time>2019-09-08T07:22:32Z</time>
      </trkpt>
      <trkpt lat="45.8921132" lon="7.0921312">
        <ele>2374.10</ele>
        <time>2019-09-08T07:22:36Z</time>
      </trkpt>
      <trkpt lat="45.8920645" lon="7.0922892">
        <ele>2371.09</ele>
        <time>2019-09-08T07:22:42Z</time>
      </trkpt>
      <trkpt lat="45.8920767" lon="7.0924461">
        <ele>2364.51</ele>
        <time>2019-09-08T07:23:55Z</time>
      </trkpt>
      <trkpt lat="45.8920571" lon="7.0926030">
        <ele>2365.36</ele>
        <time>2019-09-08T07:24:01Z</time>
      </trkpt>
      <trkpt lat="45.8920429" lon="7.0927385">
        <ele>2365.89</ele>
        <time>2019-09-08T07:24:05Z</time>
      </trkpt>
      <trkpt lat="45.8920430" lon="7.0928840">
        <ele>2366.64</ele>
        <time>2019-09-08T07:24:09Z</time>
      </trkpt>
      <trkpt lat="45.8920512" lon="7.0930468">
        <ele>2366.21</ele>
        <time>2019-09-08T07:24:13Z</time>
      </trkpt>
      <trkpt lat="45.8920535" lon="7.0932106">
        <ele>2363.43</ele>
        <time>2019-09-08T07:24:19Z</time>
      </trkpt>
      <trkpt lat="45.8920844" lon="7.0933687">
        <ele>2362.75</ele>
        <time>2019-09-08T07:24:25Z</time>
      </trkpt>
      <trkpt lat="45.8921565" lon="7.0934857">
        <ele>2360.91</ele>
        <time>2019-09-08T07:24:33Z</time>
      </trkpt>
      <trkpt lat="45.8921548" lon="7.0936353">
        <ele>2358.98</ele>
        <time>2019-09-08T07:24:41Z</time>
      </trkpt>
      <trkpt lat="45.8921589" lon="7.0937989">
        <ele>2358.03</ele>
        <time>2019-09-08T07:24:49Z</time>
      </trkpt>
      <trkpt lat="45.8921840" lon="7.0939581">
        <ele>2357.94</ele>
        <time>2019-09-08T07:24:57Z</time>
      </trkpt>
      <trkpt lat="45.8922481" lon="7.0940500">
        <ele>2357.30</ele>
        <time>2019-09-08T07:25:03Z</time>
      </trkpt>
      <trkpt lat="45.8922632" lon="7.0941880">
        <ele>2348.17</ele>
        <time>2019-09-08T07:25:25Z</time>
      </trkpt>
      <trkpt lat="45.8923115" lon="7.0943157">
        <ele>2346.95</ele>
        <time>2019-09-08T07:25:33Z</time>
      </trkpt>
      <trkpt lat="45.8923864" lon="7.0944394">
        <ele>2345.97</ele>
        <time>2019-09-08T07:25:41Z</time>
      </trkpt>
      <trkpt lat="45.8924501" lon="7.0945557">
        <ele>2343.97</ele>
        <time>2019-09-08T07:25:51Z</time>
      </trkpt>
      <trkpt lat="45.8924464" lon="7.0946978">
        <ele>2342.97</ele>
        <time>2019-09-08T07:25:59Z</time>
      </trkpt>
      <trkpt lat="45.8925525" lon="7.0946747">
        <ele>2332.97</ele>
        <time>2019-09-08T07:26:21Z</time>
      </trkpt>
      <trkpt lat="45.8925991" lon="7.0947923">
        <ele>2329.08</ele>
        <time>2019-09-08T07:26:29Z</time>
      </trkpt>
      <trkpt lat="45.8926519" lon="7.0949266">
        <ele>2328.01</ele>
        <time>2019-09-08T07:26:37Z</time>
      </trkpt>
      <trkpt lat="45.8927111" lon="7.0950273">
        <ele>2327.32</ele>
        <time>2019-09-08T07:26:45Z</time>
      </trkpt>
      <trkpt lat="45.8927514" lon="7.0951457">
        <ele>2326.25</ele>
        <time>2019-09-08T07:26:53Z</time>
      </trkpt>
      <trkpt lat="45.8927729" lon="7.0952989">
        <ele>2324.25</ele>
        <time>2019-09-08T07:27:03Z</time>
      </trkpt>
      <trkpt lat="45.8927790" lon="7.0954431">
        <ele>2323.88</ele>
        <time>2019-09-08T07:27:13Z</time>
      </trkpt>
      <trkpt lat="45.8927782" lon="7.0955844">
        <ele>2323.03</ele>
        <time>2019-09-08T07:27:23Z</time>
      </trkpt>
      <trkpt lat="45.8928049" lon="7.0957309">
        <ele>2321.03</ele>
        <time>2019-09-08T07:27:35Z</time>
      </trkpt>
      <trkpt lat="45.8928064" lon="7.0958687">
        <ele>2318.27</ele>
        <time>2019-09-08T07:27:45Z</time>
      </trkpt>
      <trkpt lat="45.8928294" lon="7.0960009">
        <ele>2317.94</ele>
        <time>2019-09-08T07:27:53Z</time>
      </trkpt>
      <trkpt lat="45.8928520" lon="7.0961390">
        <ele>2316.04</ele>
        <time>2019-09-08T07:28:03Z</time>
      </trkpt>
      <trkpt lat="45.8928915" lon="7.0962672">
        <ele>2315.03</ele>
        <time>2019-09-08T07:28:09Z</time>
      </trkpt>
      <trkpt lat="45.8929437" lon="7.0964357">
        <ele>2311.66</ele>
        <time>2019-09-08T07:28:15Z</time>
      </trkpt>
      <trkpt lat="45.8929970" lon="7.0965598">
        <ele>2309.40</ele>
        <time>2019-09-08T07:28:19Z</time>
      </trkpt>
      <trkpt lat="45.8930468" lon="7.0966733">
        <ele>2308.28</ele>
        <time>2019-09-08T07:28:23Z</time>
      </trkpt>
      <trkpt lat="45.8930837" lon="7.0968001">
        <ele>2307.06</ele>
        <time>2019-09-08T07:28:27Z</time>
      </trkpt>
      <trkpt lat="45.8931457" lon="7.0969609">
        <ele>2305.27</ele>
        <time>2019-09-08T07:28:33Z</time>
      </trkpt>
      <trkpt lat="45.8932070" lon="7.0970623">
        <ele>2299.66</ele>
        <time>2019-09-08T07:28:41Z</time>
      </trkpt>
      <trkpt lat="45.8932578" lon="7.0972148">
        <ele>2298.26</ele>
        <time>2019-09-08T07:28:47Z</time>
      </trkpt>
      <trkpt lat="45.8933194" lon="7.0973475">
        <ele>2297.95</ele>
        <time>2019-09-08T07:28:53Z</time>
      </trkpt>
      <trkpt lat="45.8933459" lon="7.0974781">
        <ele>2297.03</ele>
        <time>2019-09-08T07:28:57Z</time>
      </trkpt>
      <trkpt lat="45.8933856" lon="7.0976045">
        <ele>2296.74</ele>
        <time>2019-09-08T07:29:01Z</time>
      </trkpt>
      <trkpt lat="45.8934701" lon="7.0977476">
        <ele>2295.60</ele>
        <time>2019-09-08T07:29:07Z</time>
      </trkpt>
      <trkpt lat="45.8935146" lon="7.0978889">
        <ele>2295.91</ele>
        <time>2019-09-08T07:29:11Z</time>
      </trkpt>
      <trkpt lat="45.8935300" lon="7.0980242">
        <ele>2294.12</ele>
        <time>2019-09-08T07:29:15Z</time>
      </trkpt>
      <trkpt lat="45.8935800" lon="7.0981560">
        <ele>2293.95</ele>
        <time>2019-09-08T07:29:21Z</time>
      </trkpt>
      <trkpt lat="45.8936215" lon="7.0982990">
        <ele>2288.28</ele>
        <time>2019-09-08T07:30:57Z</time>
      </trkpt>
      <trkpt lat="45.8936601" lon="7.0984653">
        <ele>2287.97</ele>
        <time>2019-09-08T07:31:02Z</time>
      </trkpt>
      <trkpt lat="45.8936796" lon="7.0985919">
        <ele>2287.94</ele>
        <time>2019-09-08T07:31:06Z</time>
      </trkpt>
      <trkpt lat="45.8937271" lon="7.0987110">
        <ele>2289.61</ele>
        <time>2019-09-08T07:31:12Z</time>
      </trkpt>
      <trkpt lat="45.8937729" lon="7.0988317">
        <ele>2292.33</ele>
        <time>2019-09-08T07:31:20Z</time>
      </trkpt>
      <trkpt lat="45.8938605" lon="7.0988646">
        <ele>2292.95</ele>
        <time>2019-09-08T07:31:32Z</time>
      </trkpt>
      <trkpt lat="45.8939198" lon="7.0989752">
        <ele>2295.85</ele>
        <time>2019-09-08T07:31:46Z</time>
      </trkpt>
      <trkpt lat="45.8939148" lon="7.0991200">
        <ele>2296.22</ele>
        <time>2019-09-08T07:32:26Z</time>
      </trkpt>
      <trkpt lat="45.8939653" lon="7.0992378">
        <ele>2295.73</ele>
        <time>2019-09-08T07:32:34Z</time>
      </trkpt>
      <trkpt lat="45.8940535" lon="7.0993050">
        <ele>2295.94</ele>
        <time>2019-09-08T07:32:42Z</time>
      </trkpt>
      <trkpt lat="45.8941422" lon="7.0993592">
        <ele>2294.97</ele>
        <time>2019-09-08T07:32:50Z</time>
      </trkpt>
      <trkpt lat="45.8942088" lon="7.0994734">
        <ele>2292.36</ele>
        <time>2019-09-08T07:32:58Z</time>
      </trkpt>
      <trkpt lat="45.8942077" lon="7.0996286">
        <ele>2291.25</ele>
        <time>2019-09-08T07:33:06Z</time>
      </trkpt>
      <trkpt lat="45.8942318" lon="7.0997854">
        <ele>2289.28</ele>
        <time>2019-09-08T07:33:12Z</time>
      </trkpt>
      <trkpt lat="45.8942766" lon="7.0998979">
        <ele>2288.31</ele>
        <time>2019-09-08T07:33:18Z</time>
      </trkpt>
      <trkpt lat="45.8943725" lon="7.0999911">
        <ele>2285.95</ele>
        <time>2019-09-08T07:33:28Z</time>
      </trkpt>
      <trkpt lat="45.8944623" lon="7.1000902">
        <ele>2285.01</ele>
        <time>2019-09-08T07:33:36Z</time>
      </trkpt>
      <trkpt lat="45.8945216" lon="7.1001894">
        <ele>2284.94</ele>
        <time>2019-09-08T07:33:42Z</time>
      </trkpt>
      <trkpt lat="45.8946017" lon="7.1002859">
        <ele>2283.97</ele>
        <time>2019-09-08T07:33:50Z</time>
      </trkpt>
      <trkpt lat="45.8946647" lon="7.1003945">
        <ele>2284.85</ele>
        <time>2019-09-08T07:33:58Z</time>
      </trkpt>
      <trkpt lat="45.8947479" lon="7.1004994">
        <ele>2284.94</ele>
        <time>2019-09-08T07:34:06Z</time>
      </trkpt>
      <trkpt lat="45.8948009" lon="7.1006273">
        <ele>2284.94</ele>
        <time>2019-09-08T07:34:14Z</time>
      </trkpt>
      <trkpt lat="45.8948716" lon="7.1007505">
        <ele>2283.95</ele>
        <time>2019-09-08T07:34:24Z</time>
      </trkpt>
      <trkpt lat="45.8949561" lon="7.1008547">
        <ele>2281.95</ele>
        <time>2019-09-08T07:34:34Z</time>
      </trkpt>
      <trkpt lat="45.8950079" lon="7.1009714">
        <ele>2280.97</ele>
        <time>2019-09-08T07:34:42Z</time>
      </trkpt>
      <trkpt lat="45.8950456" lon="7.1011053">
        <ele>2280.67</ele>
        <time>2019-09-08T07:34:50Z</time>
      </trkpt>
      <trkpt lat="45.8950649" lon="7.1012406">
        <ele>2280.94</ele>
        <time>2019-09-08T07:34:58Z</time>
      </trkpt>
      <trkpt lat="45.8951091" lon="7.1013793">
        <ele>2279.95</ele>
        <time>2019-09-08T07:35:06Z</time>
      </trkpt>
      <trkpt lat="45.8951587" lon="7.1015172">
        <ele>2279.94</ele>
        <time>2019-09-08T07:35:14Z</time>
      </trkpt>
      <trkpt lat="45.8951895" lon="7.1016545">
        <ele>2278.25</ele>
        <time>2019-09-08T07:35:24Z</time>
      </trkpt>
      <trkpt lat="45.8952040" lon="7.1018076">
        <ele>2277.94</ele>
        <time>2019-09-08T07:35:32Z</time>
      </trkpt>
      <trkpt lat="45.8952439" lon="7.1019467">
        <ele>2277.24</ele>
        <time>2019-09-08T07:35:40Z</time>
      </trkpt>
      <trkpt lat="45.8953278" lon="7.1020154">
        <ele>2275.12</ele>
        <time>2019-09-08T07:35:48Z</time>
      </trkpt>
      <trkpt lat="45.8954003" lon="7.1021388">
        <ele>2273.97</ele>
        <time>2019-09-08T07:35:56Z</time>
      </trkpt>
      <trkpt lat="45.8954266" lon="7.1022916">
        <ele>2273.94</ele>
        <time>2019-09-08T07:36:04Z</time>
      </trkpt>
      <trkpt lat="45.8954962" lon="7.1024145">
        <ele>2272.27</ele>
        <time>2019-09-08T07:36:14Z</time>
      </trkpt>
      <trkpt lat="45.8955346" lon="7.1025403">
        <ele>2270.97</ele>
        <time>2019-09-08T07:36:22Z</time>
      </trkpt>
      <trkpt lat="45.8955909" lon="7.1026712">
        <ele>2270.03</ele>
        <time>2019-09-08T07:36:30Z</time>
      </trkpt>
      <trkpt lat="45.8956298" lon="7.1027905">
        <ele>2269.03</ele>
        <time>2019-09-08T07:36:38Z</time>
      </trkpt>
      <trkpt lat="45.8956822" lon="7.1029201">
        <ele>2268.94</ele>
        <time>2019-09-08T07:36:46Z</time>
      </trkpt>
      <trkpt lat="45.8956976" lon="7.1030539">
        <ele>2267.27</ele>
        <time>2019-09-08T07:36:54Z</time>
      </trkpt>
      <trkpt lat="45.8957321" lon="7.1031747">
        <ele>2264.98</ele>
        <time>2019-09-08T07:37:04Z</time>
      </trkpt>
      <trkpt lat="45.8957820" lon="7.1032968">
        <ele>2263.95</ele>
        <time>2019-09-08T07:37:12Z</time>
      </trkpt>
      <trkpt lat="45.8958574" lon="7.1034050">
        <ele>2262.97</ele>
        <time>2019-09-08T07:37:20Z</time>
      </trkpt>
      <trkpt lat="45.8958753" lon="7.1035317">
        <ele>2262.94</ele>
        <time>2019-09-08T07:37:28Z</time>
      </trkpt>
      <trkpt lat="45.8959171" lon="7.1036528">
        <ele>2262.94</ele>
        <time>2019-09-08T07:37:36Z</time>
      </trkpt>
      <trkpt lat="45.8959639" lon="7.1037665">
        <ele>2261.95</ele>
        <time>2019-09-08T07:37:44Z</time>
      </trkpt>
      <trkpt lat="45.8959821" lon="7.1039111">
        <ele>2261.94</ele>
        <time>2019-09-08T07:37:52Z</time>
      </trkpt>
      <trkpt lat="45.8959987" lon="7.1040476">
        <ele>2260.97</ele>
        <time>2019-09-08T07:38:00Z</time>
      </trkpt>
      <trkpt lat="45.8960371" lon="7.1041787">
        <ele>2260.94</ele>
        <time>2019-09-08T07:38:08Z</time>
      </trkpt>
      <trkpt lat="45.8960909" lon="7.1043084">
        <ele>2259.97</ele>
        <time>2019-09-08T07:38:16Z</time>
      </trkpt>
      <trkpt lat="45.8961299" lon="7.1044577">
        <ele>2259.67</ele>
        <time>2019-09-08T07:38:24Z</time>
      </trkpt>
      <trkpt lat="45.8961240" lon="7.1045884">
        <ele>2258.97</ele>
        <time>2019-09-08T07:38:32Z</time>
      </trkpt>
      <trkpt lat="45.8961362" lon="7.1047268">
        <ele>2256.27</ele>
        <time>2019-09-08T07:38:42Z</time>
      </trkpt>
      <trkpt lat="45.8961634" lon="7.1048615">
        <ele>2255.96</ele>
        <time>2019-09-08T07:38:50Z</time>
      </trkpt>
      <trkpt lat="45.8961881" lon="7.1049902">
        <ele>2255.03</ele>
        <time>2019-09-08T07:38:58Z</time>
      </trkpt>
      <trkpt lat="45.8962120" lon="7.1051378">
        <ele>2254.94</ele>
        <time>2019-09-08T07:39:08Z</time>
      </trkpt>
      <trkpt lat="45.8962234" lon="7.1052846">
        <ele>2253.97</ele>
        <time>2019-09-08T07:39:16Z</time>
      </trkpt>
      <trkpt lat="45.8962308" lon="7.1054425">
        <ele>2252.24</ele>
        <time>2019-09-08T07:39:26Z</time>
      </trkpt>
      <trkpt lat="45.8962648" lon="7.1055778">
        <ele>2251.94</ele>
        <time>2019-09-08T07:39:34Z</time>
      </trkpt>
      <trkpt lat="45.8963155" lon="7.1056927">
        <ele>2250.97</ele>
        <time>2019-09-08T07:39:42Z</time>
      </trkpt>
      <trkpt lat="45.8963533" lon="7.1058355">
        <ele>2250.94</ele>
        <time>2019-09-08T07:39:50Z</time>
      </trkpt>
      <trkpt lat="45.8963908" lon="7.1059788">
        <ele>2249.97</ele>
        <time>2019-09-08T07:39:58Z</time>
      </trkpt>
      <trkpt lat="45.8963874" lon="7.1061345">
        <ele>2248.95</ele>
        <time>2019-09-08T07:40:08Z</time>
      </trkpt>
      <trkpt lat="45.8964086" lon="7.1062747">
        <ele>2247.27</ele>
        <time>2019-09-08T07:40:16Z</time>
      </trkpt>
      <trkpt lat="45.8964646" lon="7.1063984">
        <ele>2246.03</ele>
        <time>2019-09-08T07:40:24Z</time>
      </trkpt>
      <trkpt lat="45.8965242" lon="7.1065047">
        <ele>2245.24</ele>
        <time>2019-09-08T07:40:32Z</time>
      </trkpt>
      <trkpt lat="45.8965449" lon="7.1066445">
        <ele>2243.95</ele>
        <time>2019-09-08T07:40:42Z</time>
      </trkpt>
      <trkpt lat="45.8965636" lon="7.1068044">
        <ele>2243.03</ele>
        <time>2019-09-08T07:40:52Z</time>
      </trkpt>
      <trkpt lat="45.8966146" lon="7.1069547">
        <ele>2241.95</ele>
        <time>2019-09-08T07:41:00Z</time>
      </trkpt>
      <trkpt lat="45.8966542" lon="7.1070994">
        <ele>2240.04</ele>
        <time>2019-09-08T07:41:08Z</time>
      </trkpt>
      <trkpt lat="45.8966109" lon="7.1072283">
        <ele>2236.07</ele>
        <time>2019-09-08T07:41:20Z</time>
      </trkpt>
      <trkpt lat="45.8966045" lon="7.1073742">
        <ele>2235.03</ele>
        <time>2019-09-08T07:41:28Z</time>
      </trkpt>
      <trkpt lat="45.8966293" lon="7.1075105">
        <ele>2233.33</ele>
        <time>2019-09-08T07:41:36Z</time>
      </trkpt>
      <trkpt lat="45.8966567" lon="7.1076400">
        <ele>2229.27</ele>
        <time>2019-09-08T07:41:50Z</time>
      </trkpt>
      <trkpt lat="45.8967164" lon="7.1077733">
        <ele>2227.19</ele>
        <time>2019-09-08T07:42:00Z</time>
      </trkpt>
      <trkpt lat="45.8967388" lon="7.1079266">
        <ele>2225.97</ele>
        <time>2019-09-08T07:42:08Z</time>
      </trkpt>
      <trkpt lat="45.8967829" lon="7.1080484">
        <ele>2224.97</ele>
        <time>2019-09-08T07:42:16Z</time>
      </trkpt>
      <trkpt lat="45.8968142" lon="7.1081898">
        <ele>2223.95</ele>
        <time>2019-09-08T07:42:26Z</time>
      </trkpt>
      <trkpt lat="45.8968764" lon="7.1082921">
        <ele>2220.05</ele>
        <time>2019-09-08T07:42:36Z</time>
      </trkpt>
      <trkpt lat="45.8968970" lon="7.1084255">
        <ele>2218.27</ele>
        <time>2019-09-08T07:42:44Z</time>
      </trkpt>
      <trkpt lat="45.8969257" lon="7.1085498">
        <ele>2217.94</ele>
        <time>2019-09-08T07:42:52Z</time>
      </trkpt>
      <trkpt lat="45.8969911" lon="7.1086770">
        <ele>2216.04</ele>
        <time>2019-09-08T07:43:00Z</time>
      </trkpt>
      <trkpt lat="45.8970580" lon="7.1087984">
        <ele>2214.97</ele>
        <time>2019-09-08T07:43:08Z</time>
      </trkpt>
      <trkpt lat="45.8971532" lon="7.1088232">
        <ele>2211.58</ele>
        <time>2019-09-08T07:43:16Z</time>
      </trkpt>
      <trkpt lat="45.8972327" lon="7.1088898">
        <ele>2208.28</ele>
        <time>2019-09-08T07:43:24Z</time>
      </trkpt>
      <trkpt lat="45.8973019" lon="7.1089832">
        <ele>2204.93</ele>
        <time>2019-09-08T07:43:32Z</time>
      </trkpt>
      <trkpt lat="45.8973520" lon="7.1091023">
        <ele>2202.07</ele>
        <time>2019-09-08T07:43:40Z</time>
      </trkpt>
      <trkpt lat="45.8973981" lon="7.1092189">
        <ele>2199.36</ele>
        <time>2019-09-08T07:43:48Z</time>
      </trkpt>
      <trkpt lat="45.8974454" lon="7.1093461">
        <ele>2197.27</ele>
        <time>2019-09-08T07:43:56Z</time>
      </trkpt>
      <trkpt lat="45.8975349" lon="7.1094117">
        <ele>2194.07</ele>
        <time>2019-09-08T07:44:04Z</time>
      </trkpt>
      <trkpt lat="45.8976177" lon="7.1094714">
        <ele>2191.98</ele>
        <time>2019-09-08T07:44:14Z</time>
      </trkpt>
      <trkpt lat="45.8976579" lon="7.1096068">
        <ele>2189.34</ele>
        <time>2019-09-08T07:44:22Z</time>
      </trkpt>
      <trkpt lat="45.8977283" lon="7.1097242">
        <ele>2186.27</ele>
        <time>2019-09-08T07:44:32Z</time>
      </trkpt>
      <trkpt lat="45.8978036" lon="7.1098336">
        <ele>2185.03</ele>
        <time>2019-09-08T07:44:42Z</time>
      </trkpt>
      <trkpt lat="45.8978751" lon="7.1099340">
        <ele>2183.24</ele>
        <time>2019-09-08T07:44:52Z</time>
      </trkpt>
      <trkpt lat="45.8977768" lon="7.1099309">
        <ele>2177.05</ele>
        <time>2019-09-08T07:45:10Z</time>
      </trkpt>
      <trkpt lat="45.8976732" lon="7.1099119">
        <ele>2174.97</ele>
        <time>2019-09-08T07:45:20Z</time>
      </trkpt>
      <trkpt lat="45.8975781" lon="7.1099346">
        <ele>2173.97</ele>
        <time>2019-09-08T07:45:30Z</time>
      </trkpt>
      <trkpt lat="45.8974837" lon="7.1099652">
        <ele>2172.97</ele>
        <time>2019-09-08T07:45:40Z</time>
      </trkpt>
      <trkpt lat="45.8973872" lon="7.1099975">
        <ele>2171.95</ele>
        <time>2019-09-08T07:45:48Z</time>
      </trkpt>
      <trkpt lat="45.8973999" lon="7.1101412">
        <ele>2168.98</ele>
        <time>2019-09-08T07:46:02Z</time>
      </trkpt>
      <trkpt lat="45.8974684" lon="7.1102705">
        <ele>2167.95</ele>
        <time>2019-09-08T07:46:12Z</time>
      </trkpt>
      <trkpt lat="45.8975428" lon="7.1103860">
        <ele>2165.27</ele>
        <time>2019-09-08T07:46:22Z</time>
      </trkpt>
      <trkpt lat="45.8976059" lon="7.1105129">
        <ele>2162.34</ele>
        <time>2019-09-08T07:46:32Z</time>
      </trkpt>
      <trkpt lat="45.8976818" lon="7.1105880">
        <ele>2159.36</ele>
        <time>2019-09-08T07:46:40Z</time>
      </trkpt>
      <trkpt lat="45.8977424" lon="7.1107100">
        <ele>2156.95</ele>
        <time>2019-09-08T07:46:54Z</time>
      </trkpt>
      <trkpt lat="45.8978124" lon="7.1108233">
        <ele>2154.98</ele>
        <time>2019-09-08T07:47:06Z</time>
      </trkpt>
      <trkpt lat="45.8979038" lon="7.1108904">
        <ele>2152.63</ele>
        <time>2019-09-08T07:47:16Z</time>
      </trkpt>
      <trkpt lat="45.8980010" lon="7.1109299">
        <ele>2151.04</ele>
        <time>2019-09-08T07:47:24Z</time>
      </trkpt>
      <trkpt lat="45.8980954" lon="7.1109691">
        <ele>2149.27</ele>
        <time>2019-09-08T07:47:32Z</time>
      </trkpt>
      <trkpt lat="45.8981813" lon="7.1110192">
        <ele>2148.03</ele>
        <time>2019-09-08T07:47:40Z</time>
      </trkpt>
      <trkpt lat="45.8982660" lon="7.1111164">
        <ele>2145.07</ele>
        <time>2019-09-08T07:47:48Z</time>
      </trkpt>
      <trkpt lat="45.8983536" lon="7.1111696">
        <ele>2144.03</ele>
        <time>2019-09-08T07:47:56Z</time>
      </trkpt>
      <trkpt lat="45.8984387" lon="7.1112476">
        <ele>2142.25</ele>
        <time>2019-09-08T07:48:04Z</time>
      </trkpt>
      <trkpt lat="45.8985267" lon="7.1112784">
        <ele>2137.27</ele>
        <time>2019-09-08T07:48:22Z</time>
      </trkpt>
      <trkpt lat="45.8985505" lon="7.1114421">
        <ele>2131.40</ele>
        <time>2019-09-08T07:48:32Z</time>
      </trkpt>
      <trkpt lat="45.8986290" lon="7.1115203">
        <ele>2125.52</ele>
        <time>2019-09-08T07:48:38Z</time>
      </trkpt>
      <trkpt lat="45.8987244" lon="7.1115780">
        <ele>2121.31</ele>
        <time>2019-09-08T07:48:46Z</time>
      </trkpt>
      <trkpt lat="45.8988115" lon="7.1116305">
        <ele>2118.30</ele>
        <time>2019-09-08T07:48:54Z</time>
      </trkpt>
      <trkpt lat="45.8989035" lon="7.1117128">
        <ele>2114.27</ele>
        <time>2019-09-08T07:49:18Z</time>
      </trkpt>
      <trkpt lat="45.8990063" lon="7.1117615">
        <ele>2113.18</ele>
        <time>2019-09-08T07:49:26Z</time>
      </trkpt>
      <trkpt lat="45.8991010" lon="7.1118225">
        <ele>2111.97</ele>
        <time>2019-09-08T07:49:34Z</time>
      </trkpt>
      <trkpt lat="45.8991852" lon="7.1119042">
        <ele>2110.95</ele>
        <time>2019-09-08T07:49:42Z</time>
      </trkpt>
      <trkpt lat="45.8992840" lon="7.1119271">
        <ele>2110.94</ele>
        <time>2019-09-08T07:49:50Z</time>
      </trkpt>
      <trkpt lat="45.8993938" lon="7.1119828">
        <ele>2109.04</ele>
        <time>2019-09-08T07:49:58Z</time>
      </trkpt>
      <trkpt lat="45.8994887" lon="7.1120099">
        <ele>2108.24</ele>
        <time>2019-09-08T07:50:06Z</time>
      </trkpt>
      <trkpt lat="45.8995816" lon="7.1120749">
        <ele>2107.03</ele>
        <time>2019-09-08T07:50:14Z</time>
      </trkpt>
      <trkpt lat="45.8996856" lon="7.1121403">
        <ele>2104.28</ele>
        <time>2019-09-08T07:50:22Z</time>
      </trkpt>
      <trkpt lat="45.8997808" lon="7.1122052">
        <ele>2102.27</ele>
        <time>2019-09-08T07:50:30Z</time>
      </trkpt>
      <trkpt lat="45.8998670" lon="7.1122774">
        <ele>2101.24</ele>
        <time>2019-09-08T07:50:38Z</time>
      </trkpt>
      <trkpt lat="45.8998172" lon="7.1124074">
        <ele>2099.15</ele>
        <time>2019-09-08T07:50:52Z</time>
      </trkpt>
      <trkpt lat="45.8997197" lon="7.1124152">
        <ele>2098.03</ele>
        <time>2019-09-08T07:51:00Z</time>
      </trkpt>
      <trkpt lat="45.8996323" lon="7.1124488">
        <ele>2096.97</ele>
        <time>2019-09-08T07:51:08Z</time>
      </trkpt>
      <trkpt lat="45.8995433" lon="7.1124796">
        <ele>2096.24</ele>
        <time>2019-09-08T07:51:16Z</time>
      </trkpt>
      <trkpt lat="45.8994500" lon="7.1125303">
        <ele>2095.24</ele>
        <time>2019-09-08T07:51:24Z</time>
      </trkpt>
      <trkpt lat="45.8993387" lon="7.1125433">
        <ele>2094.03</ele>
        <time>2019-09-08T07:51:34Z</time>
      </trkpt>
      <trkpt lat="45.8992339" lon="7.1125429">
        <ele>2093.94</ele>
        <time>2019-09-08T07:51:42Z</time>
      </trkpt>
      <trkpt lat="45.8991334" lon="7.1125433">
        <ele>2092.95</ele>
        <time>2019-09-08T07:51:50Z</time>
      </trkpt>
      <trkpt lat="45.8990364" lon="7.1125584">
        <ele>2091.06</ele>
        <time>2019-09-08T07:51:58Z</time>
      </trkpt>
      <trkpt lat="45.8989487" lon="7.1126103">
        <ele>2090.03</ele>
        <time>2019-09-08T07:52:06Z</time>
      </trkpt>
      <trkpt lat="45.8988582" lon="7.1125930">
        <ele>2088.95</ele>
        <time>2019-09-08T07:52:14Z</time>
      </trkpt>
      <trkpt lat="45.8987567" lon="7.1125984">
        <ele>2087.24</ele>
        <time>2019-09-08T07:52:26Z</time>
      </trkpt>
      <trkpt lat="45.8986883" lon="7.1127081">
        <ele>2085.06</ele>
        <time>2019-09-08T07:52:36Z</time>
      </trkpt>
      <trkpt lat="45.8987596" lon="7.1127898">
        <ele>2083.24</ele>
        <time>2019-09-08T07:52:46Z</time>
      </trkpt>
      <trkpt lat="45.8988639" lon="7.1127910">
        <ele>2082.24</ele>
        <time>2019-09-08T07:52:56Z</time>
      </trkpt>
      <trkpt lat="45.8989251" lon="7.1126907">
        <ele>2081.94</ele>
        <time>2019-09-08T07:53:06Z</time>
      </trkpt>
      <trkpt lat="45.8990233" lon="7.1127081">
        <ele>2080.95</ele>
        <time>2019-09-08T07:53:16Z</time>
      </trkpt>
      <trkpt lat="45.8991022" lon="7.1127756">
        <ele>2079.03</ele>
        <time>2019-09-08T07:53:26Z</time>
      </trkpt>
      <trkpt lat="45.8991865" lon="7.1128468">
        <ele>2076.94</ele>
        <time>2019-09-08T07:53:52Z</time>
      </trkpt>
      <trkpt lat="45.8992662" lon="7.1129405">
        <ele>2074.25</ele>
        <time>2019-09-08T07:54:06Z</time>
      </trkpt>
      <trkpt lat="45.8993633" lon="7.1129945">
        <ele>2073.24</ele>
        <time>2019-09-08T07:54:14Z</time>
      </trkpt>
      <trkpt lat="45.8994601" lon="7.1130453">
        <ele>2071.25</ele>
        <time>2019-09-08T07:54:22Z</time>
      </trkpt>
      <trkpt lat="45.8995415" lon="7.1131096">
        <ele>2070.24</ele>
        <time>2019-09-08T07:54:30Z</time>
      </trkpt>
      <trkpt lat="45.8996345" lon="7.1131586">
        <ele>2069.94</ele>
        <time>2019-09-08T07:54:38Z</time>
      </trkpt>
      <trkpt lat="45.8997295" lon="7.1131917">
        <ele>2068.33</ele>
        <time>2019-09-08T07:54:46Z</time>
      </trkpt>
      <trkpt lat="45.8998312" lon="7.1132343">
        <ele>2067.03</ele>
        <time>2019-09-08T07:54:56Z</time>
      </trkpt>
      <trkpt lat="45.8999262" lon="7.1132826">
        <ele>2064.12</ele>
        <time>2019-09-08T07:55:06Z</time>
      </trkpt>
      <trkpt lat="45.9000389" lon="7.1133228">
        <ele>2063.03</ele>
        <time>2019-09-08T07:55:14Z</time>
      </trkpt>
      <trkpt lat="45.9001345" lon="7.1133700">
        <ele>2061.95</ele>
        <time>2019-09-08T07:55:22Z</time>
      </trkpt>
      <trkpt lat="45.9002231" lon="7.1134142">
        <ele>2060.95</ele>
        <time>2019-09-08T07:55:30Z</time>
      </trkpt>
      <trkpt lat="45.9003164" lon="7.1133912">
        <ele>2060.24</ele>
        <time>2019-09-08T07:55:38Z</time>
      </trkpt>
      <trkpt lat="45.9004104" lon="7.1134016">
        <ele>2059.03</ele>
        <time>2019-09-08T07:55:46Z</time>
      </trkpt>
      <trkpt lat="45.9005165" lon="7.1134151">
        <ele>2058.16</ele>
        <time>2019-09-08T07:55:54Z</time>
      </trkpt>
      <trkpt lat="45.9006170" lon="7.1133970">
        <ele>2057.03</ele>
        <time>2019-09-08T07:56:02Z</time>
      </trkpt>
      <trkpt lat="45.9007188" lon="7.1133735">
        <ele>2056.94</ele>
        <time>2019-09-08T07:56:10Z</time>
      </trkpt>
      <trkpt lat="45.9008248" lon="7.1133466">
        <ele>2055.33</ele>
        <time>2019-09-08T07:56:18Z</time>
      </trkpt>
      <trkpt lat="45.9009087" lon="7.1132780">
        <ele>2055.03</ele>
        <time>2019-09-08T07:56:26Z</time>
      </trkpt>
      <trkpt lat="45.9010009" lon="7.1132099">
        <ele>2054.94</ele>
        <time>2019-09-08T07:56:34Z</time>
      </trkpt>
      <trkpt lat="45.9010987" lon="7.1131311">
        <ele>2053.25</ele>
        <time>2019-09-08T07:56:42Z</time>
      </trkpt>
      <trkpt lat="45.9011956" lon="7.1130811">
        <ele>2053.15</ele>
        <time>2019-09-08T07:56:50Z</time>
      </trkpt>
      <trkpt lat="45.9013074" lon="7.1130708">
        <ele>2051.27</ele>
        <time>2019-09-08T07:56:58Z</time>
      </trkpt>
      <trkpt lat="45.9014185" lon="7.1130423">
        <ele>2050.18</ele>
        <time>2019-09-08T07:57:08Z</time>
      </trkpt>
      <trkpt lat="45.9015268" lon="7.1130338">
        <ele>2048.95</ele>
        <time>2019-09-08T07:57:16Z</time>
      </trkpt>
      <trkpt lat="45.9016161" lon="7.1129938">
        <ele>2048.94</ele>
        <time>2019-09-08T07:57:24Z</time>
      </trkpt>
      <trkpt lat="45.9017178" lon="7.1129666">
        <ele>2047.95</ele>
        <time>2019-09-08T07:57:32Z</time>
      </trkpt>
      <trkpt lat="45.9018041" lon="7.1130307">
        <ele>2046.95</ele>
        <time>2019-09-08T07:57:40Z</time>
      </trkpt>
      <trkpt lat="45.9019202" lon="7.1130474">
        <ele>2046.03</ele>
        <time>2019-09-08T07:57:48Z</time>
      </trkpt>
      <trkpt lat="45.9020325" lon="7.1130838">
        <ele>2044.95</ele>
        <time>2019-09-08T07:57:56Z</time>
      </trkpt>
      <trkpt lat="45.9021306" lon="7.1130823">
        <ele>2043.97</ele>
        <time>2019-09-08T07:58:04Z</time>
      </trkpt>
      <trkpt lat="45.9022212" lon="7.1130856">
        <ele>2042.95</ele>
        <time>2019-09-08T07:58:12Z</time>
      </trkpt>
      <trkpt lat="45.9023055" lon="7.1130405">
        <ele>2042.24</ele>
        <time>2019-09-08T07:58:20Z</time>
      </trkpt>
      <trkpt lat="45.9024125" lon="7.1129867">
        <ele>2041.95</ele>
        <time>2019-09-08T07:58:28Z</time>
      </trkpt>
      <trkpt lat="45.9025070" lon="7.1129521">
        <ele>2040.95</ele>
        <time>2019-09-08T07:58:36Z</time>
      </trkpt>
      <trkpt lat="45.9025942" lon="7.1129069">
        <ele>2040.03</ele>
        <time>2019-09-08T07:58:44Z</time>
      </trkpt>
      <trkpt lat="45.9026219" lon="7.1127827">
        <ele>2039.03</ele>
        <time>2019-09-08T07:58:52Z</time>
      </trkpt>
      <trkpt lat="45.9026437" lon="7.1126381">
        <ele>2037.97</ele>
        <time>2019-09-08T07:59:00Z</time>
      </trkpt>
      <trkpt lat="45.9027153" lon="7.1125517">
        <ele>2037.24</ele>
        <time>2019-09-08T07:59:08Z</time>
      </trkpt>
      <trkpt lat="45.9028040" lon="7.1124763">
        <ele>2036.94</ele>
        <time>2019-09-08T07:59:18Z</time>
      </trkpt>
      <trkpt lat="45.9028368" lon="7.1123537">
        <ele>2037.02</ele>
        <time>2019-09-08T07:59:26Z</time>
      </trkpt>
      <trkpt lat="45.9029236" lon="7.1122758">
        <ele>2035.27</ele>
        <time>2019-09-08T07:59:36Z</time>
      </trkpt>
      <trkpt lat="45.9029818" lon="7.1121466">
        <ele>2034.94</ele>
        <time>2019-09-08T07:59:46Z</time>
      </trkpt>
      <trkpt lat="45.9030469" lon="7.1120562">
        <ele>2034.24</ele>
        <time>2019-09-08T07:59:54Z</time>
      </trkpt>
      <trkpt lat="45.9031421" lon="7.1120150">
        <ele>2032.33</ele>
        <time>2019-09-08T08:00:04Z</time>
      </trkpt>
      <trkpt lat="45.9032433" lon="7.1119959">
        <ele>2030.94</ele>
        <time>2019-09-08T08:00:26Z</time>
      </trkpt>
      <trkpt lat="45.9033055" lon="7.1118986">
        <ele>2030.94</ele>
        <time>2019-09-08T08:00:36Z</time>
      </trkpt>
      <trkpt lat="45.9034153" lon="7.1118668">
        <ele>2030.73</ele>
        <time>2019-09-08T08:00:52Z</time>
      </trkpt>
      <trkpt lat="45.9034625" lon="7.1117284">
        <ele>2029.94</ele>
        <time>2019-09-08T08:01:08Z</time>
      </trkpt>
      <trkpt lat="45.9034936" lon="7.1116063">
        <ele>2028.25</ele>
        <time>2019-09-08T08:01:16Z</time>
      </trkpt>
      <trkpt lat="45.9035671" lon="7.1115161">
        <ele>2027.94</ele>
        <time>2019-09-08T08:01:24Z</time>
      </trkpt>
      <trkpt lat="45.9035985" lon="7.1113873">
        <ele>2024.87</ele>
        <time>2019-09-08T08:01:32Z</time>
      </trkpt>
      <trkpt lat="45.9035960" lon="7.1112415">
        <ele>2021.04</ele>
        <time>2019-09-08T08:01:42Z</time>
      </trkpt>
      <trkpt lat="45.9035443" lon="7.1111170">
        <ele>2020.94</ele>
        <time>2019-09-08T08:01:56Z</time>
      </trkpt>
      <trkpt lat="45.9035783" lon="7.1109809">
        <ele>2017.42</ele>
        <time>2019-09-08T08:02:24Z</time>
      </trkpt>
      <trkpt lat="45.9036547" lon="7.1108721">
        <ele>2015.97</ele>
        <time>2019-09-08T08:02:32Z</time>
      </trkpt>
      <trkpt lat="45.9037039" lon="7.1107535">
        <ele>2014.31</ele>
        <time>2019-09-08T08:02:42Z</time>
      </trkpt>
      <trkpt lat="45.9037326" lon="7.1106249">
        <ele>2008.99</ele>
        <time>2019-09-08T08:02:52Z</time>
      </trkpt>
      <trkpt lat="45.9037976" lon="7.1107341">
        <ele>1999.49</ele>
        <time>2019-09-08T08:03:04Z</time>
      </trkpt>
      <trkpt lat="45.9038858" lon="7.1107969">
        <ele>1998.55</ele>
        <time>2019-09-08T08:03:16Z</time>
      </trkpt>
      <trkpt lat="45.9040051" lon="7.1108285">
        <ele>1996.91</ele>
        <time>2019-09-08T08:03:24Z</time>
      </trkpt>
      <trkpt lat="45.9041117" lon="7.1108072">
        <ele>1996.18</ele>
        <time>2019-09-08T08:03:30Z</time>
      </trkpt>
      <trkpt lat="45.9042037" lon="7.1107396">
        <ele>1995.73</ele>
        <time>2019-09-08T08:03:38Z</time>
      </trkpt>
      <trkpt lat="45.9042750" lon="7.1106599">
        <ele>1995.01</ele>
        <time>2019-09-08T08:03:46Z</time>
      </trkpt>
      <trkpt lat="45.9043754" lon="7.1106636">
        <ele>1994.94</ele>
        <time>2019-09-08T08:03:56Z</time>
      </trkpt>
      <trkpt lat="45.9044747" lon="7.1106200">
        <ele>1996.82</ele>
        <time>2019-09-08T08:04:04Z</time>
      </trkpt>
      <trkpt lat="45.9045508" lon="7.1105083">
        <ele>1998.61</ele>
        <time>2019-09-08T08:04:14Z</time>
      </trkpt>
      <trkpt lat="45.9046366" lon="7.1104380">
        <ele>1999.91</ele>
        <time>2019-09-08T08:04:28Z</time>
      </trkpt>
      <trkpt lat="45.9047283" lon="7.1104389">
        <ele>2000.92</ele>
        <time>2019-09-08T08:04:40Z</time>
      </trkpt>
      <trkpt lat="45.9048169" lon="7.1104154">
        <ele>1998.95</ele>
        <time>2019-09-08T08:04:52Z</time>
      </trkpt>
      <trkpt lat="45.9049108" lon="7.1104302">
        <ele>1991.56</ele>
        <time>2019-09-08T08:05:05Z</time>
      </trkpt>
      <trkpt lat="45.9049858" lon="7.1103514">
        <ele>1988.02</ele>
        <time>2019-09-08T08:05:19Z</time>
      </trkpt>
      <trkpt lat="45.9050619" lon="7.1102341">
        <ele>1988.64</ele>
        <time>2019-09-08T08:05:27Z</time>
      </trkpt>
      <trkpt lat="45.9051038" lon="7.1101042">
        <ele>1986.42</ele>
        <time>2019-09-08T08:05:35Z</time>
      </trkpt>
      <trkpt lat="45.9051430" lon="7.1099688">
        <ele>1986.03</ele>
        <time>2019-09-08T08:05:43Z</time>
      </trkpt>
      <trkpt lat="45.9052113" lon="7.1098556">
        <ele>1986.15</ele>
        <time>2019-09-08T08:05:51Z</time>
      </trkpt>
      <trkpt lat="45.9052944" lon="7.1097576">
        <ele>1985.94</ele>
        <time>2019-09-08T08:05:59Z</time>
      </trkpt>
      <trkpt lat="45.9053753" lon="7.1096596">
        <ele>1984.94</ele>
        <time>2019-09-08T08:06:21Z</time>
      </trkpt>
      <trkpt lat="45.9054618" lon="7.1095597">
        <ele>1982.33</ele>
        <time>2019-09-08T08:06:39Z</time>
      </trkpt>
      <trkpt lat="45.9054893" lon="7.1094281">
        <ele>1981.96</ele>
        <time>2019-09-08T08:06:47Z</time>
      </trkpt>
      <trkpt lat="45.9055546" lon="7.1092998">
        <ele>1983.09</ele>
        <time>2019-09-08T08:07:11Z</time>
      </trkpt>
      <trkpt lat="45.9055686" lon="7.1091550">
        <ele>1977.03</ele>
        <time>2019-09-08T08:07:39Z</time>
      </trkpt>
      <trkpt lat="45.9056577" lon="7.1090682">
        <ele>1975.95</ele>
        <time>2019-09-08T08:07:47Z</time>
      </trkpt>
      <trkpt lat="45.9057320" lon="7.1089784">
        <ele>1974.94</ele>
        <time>2019-09-08T08:07:57Z</time>
      </trkpt>
      <trkpt lat="45.9058146" lon="7.1089116">
        <ele>1974.03</ele>
        <time>2019-09-08T08:08:15Z</time>
      </trkpt>
      <trkpt lat="45.9059045" lon="7.1088183">
        <ele>1973.24</ele>
        <time>2019-09-08T08:08:25Z</time>
      </trkpt>
      <trkpt lat="45.9059770" lon="7.1087027">
        <ele>1970.62</ele>
        <time>2019-09-08T08:08:33Z</time>
      </trkpt>
      <trkpt lat="45.9060538" lon="7.1085918">
        <ele>1965.07</ele>
        <time>2019-09-08T08:08:47Z</time>
      </trkpt>
      <trkpt lat="45.9061354" lon="7.1085033">
        <ele>1963.12</ele>
        <time>2019-09-08T08:08:57Z</time>
      </trkpt>
      <trkpt lat="45.9061536" lon="7.1083377">
        <ele>1956.94</ele>
        <time>2019-09-08T08:09:09Z</time>
      </trkpt>
      <trkpt lat="45.9061755" lon="7.1082048">
        <ele>1954.73</ele>
        <time>2019-09-08T08:09:25Z</time>
      </trkpt>
      <trkpt lat="45.9060828" lon="7.1081194">
        <ele>1930.34</ele>
        <time>2019-09-08T08:10:43Z</time>
      </trkpt>
      <trkpt lat="45.9060676" lon="7.1079700">
        <ele>1944.67</ele>
        <time>2019-09-08T08:10:49Z</time>
      </trkpt>
      <trkpt lat="45.9060507" lon="7.1078252">
        <ele>1932.95</ele>
        <time>2019-09-08T08:10:57Z</time>
      </trkpt>
      <trkpt lat="45.9060641" lon="7.1076964">
        <ele>1933.01</ele>
        <time>2019-09-08T08:11:03Z</time>
      </trkpt>
      <trkpt lat="45.9060345" lon="7.1075669">
        <ele>1934.62</ele>
        <time>2019-09-08T08:11:11Z</time>
      </trkpt>
      <trkpt lat="45.9061570" lon="7.1075493">
        <ele>1936.38</ele>
        <time>2019-09-08T08:11:21Z</time>
      </trkpt>
      <trkpt lat="45.9062396" lon="7.1074890">
        <ele>1939.24</ele>
        <time>2019-09-08T08:11:27Z</time>
      </trkpt>
      <trkpt lat="45.9063396" lon="7.1074416">
        <ele>1941.84</ele>
        <time>2019-09-08T08:11:35Z</time>
      </trkpt>
      <trkpt lat="45.9064383" lon="7.1074496">
        <ele>1941.94</ele>
        <time>2019-09-08T08:11:43Z</time>
      </trkpt>
      <trkpt lat="45.9065427" lon="7.1074447">
        <ele>1942.93</ele>
        <time>2019-09-08T08:11:53Z</time>
      </trkpt>
      <trkpt lat="45.9066266" lon="7.1073417">
        <ele>1943.93</ele>
        <time>2019-09-08T08:12:01Z</time>
      </trkpt>
      <trkpt lat="45.9066466" lon="7.1072062">
        <ele>1944.85</ele>
        <time>2019-09-08T08:12:09Z</time>
      </trkpt>
      <trkpt lat="45.9066725" lon="7.1070670">
        <ele>1945.85</ele>
        <time>2019-09-08T08:12:17Z</time>
      </trkpt>
      <trkpt lat="45.9067530" lon="7.1069770">
        <ele>1947.61</ele>
        <time>2019-09-08T08:12:25Z</time>
      </trkpt>
      <trkpt lat="45.9068490" lon="7.1069713">
        <ele>1947.24</ele>
        <time>2019-09-08T08:12:33Z</time>
      </trkpt>
      <trkpt lat="45.9069397" lon="7.1069465">
        <ele>1947.93</ele>
        <time>2019-09-08T08:12:43Z</time>
      </trkpt>
      <trkpt lat="45.9070331" lon="7.1069647">
        <ele>1948.62</ele>
        <time>2019-09-08T08:12:53Z</time>
      </trkpt>
      <trkpt lat="45.9071247" lon="7.1069772">
        <ele>1948.94</ele>
        <time>2019-09-08T08:13:05Z</time>
      </trkpt>
      <trkpt lat="45.9072253" lon="7.1069539">
        <ele>1949.64</ele>
        <time>2019-09-08T08:13:15Z</time>
      </trkpt>
      <trkpt lat="45.9073122" lon="7.1068689">
        <ele>1950.64</ele>
        <time>2019-09-08T08:13:25Z</time>
      </trkpt>
      <trkpt lat="45.9073739" lon="7.1067552">
        <ele>1951.85</ele>
        <time>2019-09-08T08:13:37Z</time>
      </trkpt>
      <trkpt lat="45.9074204" lon="7.1066136">
        <ele>1952.02</ele>
        <time>2019-09-08T08:13:47Z</time>
      </trkpt>
      <trkpt lat="45.9075054" lon="7.1065459">
        <ele>1955.60</ele>
        <time>2019-09-08T08:13:57Z</time>
      </trkpt>
      <trkpt lat="45.9075917" lon="7.1064453">
        <ele>1957.21</ele>
        <time>2019-09-08T08:14:09Z</time>
      </trkpt>
      <trkpt lat="45.9076582" lon="7.1063290">
        <ele>1957.91</ele>
        <time>2019-09-08T08:14:19Z</time>
      </trkpt>
      <trkpt lat="45.9076993" lon="7.1061987">
        <ele>1959.91</ele>
        <time>2019-09-08T08:14:29Z</time>
      </trkpt>
      <trkpt lat="45.9077407" lon="7.1060702">
        <ele>1961.63</ele>
        <time>2019-09-08T08:14:39Z</time>
      </trkpt>
      <trkpt lat="45.9077918" lon="7.1059423">
        <ele>1962.91</ele>
        <time>2019-09-08T08:14:49Z</time>
      </trkpt>
      <trkpt lat="45.9078429" lon="7.1058306">
        <ele>1963.85</ele>
        <time>2019-09-08T08:14:59Z</time>
      </trkpt>
      <trkpt lat="45.9078958" lon="7.1057039">
        <ele>1964.93</ele>
        <time>2019-09-08T08:15:09Z</time>
      </trkpt>
      <trkpt lat="45.9079187" lon="7.1055652">
        <ele>1966.84</ele>
        <time>2019-09-08T08:15:19Z</time>
      </trkpt>
      <trkpt lat="45.9079779" lon="7.1054426">
        <ele>1968.64</ele>
        <time>2019-09-08T08:15:29Z</time>
      </trkpt>
      <trkpt lat="45.9080496" lon="7.1053412">
        <ele>1969.66</ele>
        <time>2019-09-08T08:15:43Z</time>
      </trkpt>
      <trkpt lat="45.9081025" lon="7.1052188">
        <ele>1970.85</ele>
        <time>2019-09-08T08:15:55Z</time>
      </trkpt>
      <trkpt lat="45.9081233" lon="7.1050683">
        <ele>1971.92</ele>
        <time>2019-09-08T08:16:09Z</time>
      </trkpt>
      <trkpt lat="45.9081899" lon="7.1049666">
        <ele>1972.93</ele>
        <time>2019-09-08T08:16:17Z</time>
      </trkpt>
      <trkpt lat="45.9082074" lon="7.1048285">
        <ele>1974.61</ele>
        <time>2019-09-08T08:16:29Z</time>
      </trkpt>
      <trkpt lat="45.9082851" lon="7.1047302">
        <ele>1978.54</ele>
        <time>2019-09-08T08:16:41Z</time>
      </trkpt>
      <trkpt lat="45.9083427" lon="7.1046288">
        <ele>1979.85</ele>
        <time>2019-09-08T08:16:55Z</time>
      </trkpt>
      <trkpt lat="45.9083470" lon="7.1044817">
        <ele>1980.93</ele>
        <time>2019-09-08T08:17:07Z</time>
      </trkpt>
      <trkpt lat="45.9083699" lon="7.1043415">
        <ele>1982.85</ele>
        <time>2019-09-08T08:17:19Z</time>
      </trkpt>
      <trkpt lat="45.9083222" lon="7.1042209">
        <ele>1983.66</ele>
        <time>2019-09-08T08:17:27Z</time>
      </trkpt>
      <trkpt lat="45.9082768" lon="7.1040864">
        <ele>1984.85</ele>
        <time>2019-09-08T08:17:37Z</time>
      </trkpt>
      <trkpt lat="45.9082396" lon="7.1039594">
        <ele>1986.61</ele>
        <time>2019-09-08T08:17:47Z</time>
      </trkpt>
      <trkpt lat="45.9082368" lon="7.1038258">
        <ele>1990.61</ele>
        <time>2019-09-08T08:18:09Z</time>
      </trkpt>
      <trkpt lat="45.9082055" lon="7.1036798">
        <ele>1991.93</ele>
        <time>2019-09-08T08:18:19Z</time>
      </trkpt>
      <trkpt lat="45.9081911" lon="7.1035507">
        <ele>1992.64</ele>
        <time>2019-09-08T08:18:29Z</time>
      </trkpt>
      <trkpt lat="45.9081732" lon="7.1034053">
        <ele>1992.94</ele>
        <time>2019-09-08T08:18:39Z</time>
      </trkpt>
      <trkpt lat="45.9081454" lon="7.1032560">
        <ele>1992.94</ele>
        <time>2019-09-08T08:18:49Z</time>
      </trkpt>
      <trkpt lat="45.9081399" lon="7.1031022">
        <ele>1994.55</ele>
        <time>2019-09-08T08:18:57Z</time>
      </trkpt>
      <trkpt lat="45.9081708" lon="7.1029699">
        <ele>1994.94</ele>
        <time>2019-09-08T08:19:05Z</time>
      </trkpt>
      <trkpt lat="45.9082430" lon="7.1028626">
        <ele>1995.93</ele>
        <time>2019-09-08T08:19:15Z</time>
      </trkpt>
      <trkpt lat="45.9083097" lon="7.1027322">
        <ele>1996.93</ele>
        <time>2019-09-08T08:19:25Z</time>
      </trkpt>
      <trkpt lat="45.9083842" lon="7.1026316">
        <ele>1996.92</ele>
        <time>2019-09-08T08:19:33Z</time>
      </trkpt>
      <trkpt lat="45.9084126" lon="7.1024781">
        <ele>1996.24</ele>
        <time>2019-09-08T08:19:43Z</time>
      </trkpt>
      <trkpt lat="45.9084549" lon="7.1023424">
        <ele>1995.97</ele>
        <time>2019-09-08T08:19:53Z</time>
      </trkpt>
      <trkpt lat="45.9085029" lon="7.1022262">
        <ele>1996.93</ele>
        <time>2019-09-08T08:20:01Z</time>
      </trkpt>
      <trkpt lat="45.9085499" lon="7.1020982">
        <ele>1996.94</ele>
        <time>2019-09-08T08:20:09Z</time>
      </trkpt>
      <trkpt lat="45.9085992" lon="7.1019645">
        <ele>1996.94</ele>
        <time>2019-09-08T08:20:19Z</time>
      </trkpt>
      <trkpt lat="45.9086798" lon="7.1018741">
        <ele>1997.92</ele>
        <time>2019-09-08T08:20:29Z</time>
      </trkpt>
      <trkpt lat="45.9087677" lon="7.1017966">
        <ele>1998.91</ele>
        <time>2019-09-08T08:20:39Z</time>
      </trkpt>
      <trkpt lat="45.9088582" lon="7.1017244">
        <ele>1998.94</ele>
        <time>2019-09-08T08:20:47Z</time>
      </trkpt>
      <trkpt lat="45.9089276" lon="7.1016399">
        <ele>1999.92</ele>
        <time>2019-09-08T08:20:55Z</time>
      </trkpt>
      <trkpt lat="45.9089770" lon="7.1015013">
        <ele>1999.94</ele>
        <time>2019-09-08T08:21:03Z</time>
      </trkpt>
      <trkpt lat="45.9090321" lon="7.1013878">
        <ele>2000.86</ele>
        <time>2019-09-08T08:21:21Z</time>
      </trkpt>
      <trkpt lat="45.9090805" lon="7.1012368">
        <ele>2001.70</ele>
        <time>2019-09-08T08:21:35Z</time>
      </trkpt>
      <trkpt lat="45.9090961" lon="7.1010728">
        <ele>2000.25</ele>
        <time>2019-09-08T08:21:45Z</time>
      </trkpt>
      <trkpt lat="45.9091083" lon="7.1009268">
        <ele>2000.03</ele>
        <time>2019-09-08T08:21:55Z</time>
      </trkpt>
      <trkpt lat="45.9091634" lon="7.1007997">
        <ele>1998.33</ele>
        <time>2019-09-08T08:22:07Z</time>
      </trkpt>
      <trkpt lat="45.9091186" lon="7.1006836">
        <ele>1997.95</ele>
        <time>2019-09-08T08:22:15Z</time>
      </trkpt>
      <trkpt lat="45.9091271" lon="7.1005467">
        <ele>1998.64</ele>
        <time>2019-09-08T08:22:23Z</time>
      </trkpt>
      <trkpt lat="45.9091807" lon="7.1004409">
        <ele>1992.43</ele>
        <time>2019-09-08T08:22:33Z</time>
      </trkpt>
      <trkpt lat="45.9091840" lon="7.1003071">
        <ele>1991.24</ele>
        <time>2019-09-08T08:22:43Z</time>
      </trkpt>
      <trkpt lat="45.9092704" lon="7.1002314">
        <ele>1988.25</ele>
        <time>2019-09-08T08:22:59Z</time>
      </trkpt>
      <trkpt lat="45.9093674" lon="7.1002054">
        <ele>1986.97</ele>
        <time>2019-09-08T08:23:09Z</time>
      </trkpt>
      <trkpt lat="45.9094432" lon="7.1001070">
        <ele>1987.94</ele>
        <time>2019-09-08T08:23:19Z</time>
      </trkpt>
      <trkpt lat="45.9095040" lon="7.0999809">
        <ele>1988.85</ele>
        <time>2019-09-08T08:23:33Z</time>
      </trkpt>
      <trkpt lat="45.9096065" lon="7.0999327">
        <ele>1987.94</ele>
        <time>2019-09-08T08:23:43Z</time>
      </trkpt>
      <trkpt lat="45.9097029" lon="7.0998735">
        <ele>1986.95</ele>
        <time>2019-09-08T08:23:55Z</time>
      </trkpt>
      <trkpt lat="45.9098007" lon="7.0998302">
        <ele>1987.85</ele>
        <time>2019-09-08T08:24:03Z</time>
      </trkpt>
      <trkpt lat="45.9098870" lon="7.0997613">
        <ele>1986.94</ele>
        <time>2019-09-08T08:24:19Z</time>
      </trkpt>
      <trkpt lat="45.9099967" lon="7.0997330">
        <ele>1986.03</ele>
        <time>2019-09-08T08:24:27Z</time>
      </trkpt>
      <trkpt lat="45.9100844" lon="7.0996928">
        <ele>1985.03</ele>
        <time>2019-09-08T08:24:35Z</time>
      </trkpt>
      <trkpt lat="45.9101818" lon="7.0996729">
        <ele>1983.03</ele>
        <time>2019-09-08T08:24:51Z</time>
      </trkpt>
      <trkpt lat="45.9102978" lon="7.0996674">
        <ele>1981.97</ele>
        <time>2019-09-08T08:25:07Z</time>
      </trkpt>
      <trkpt lat="45.9104010" lon="7.0996586">
        <ele>1981.94</ele>
        <time>2019-09-08T08:25:17Z</time>
      </trkpt>
      <trkpt lat="45.9104961" lon="7.0996717">
        <ele>1982.85</ele>
        <time>2019-09-08T08:25:27Z</time>
      </trkpt>
      <trkpt lat="45.9105929" lon="7.0997139">
        <ele>1981.24</ele>
        <time>2019-09-08T08:25:41Z</time>
      </trkpt>
      <trkpt lat="45.9106922" lon="7.0997893">
        <ele>1979.97</ele>
        <time>2019-09-08T08:25:51Z</time>
      </trkpt>
      <trkpt lat="45.9107916" lon="7.0998064">
        <ele>1979.94</ele>
        <time>2019-09-08T08:26:01Z</time>
      </trkpt>
      <trkpt lat="45.9108949" lon="7.0998329">
        <ele>1977.04</ele>
        <time>2019-09-08T08:26:13Z</time>
      </trkpt>
      <trkpt lat="45.9109881" lon="7.0998935">
        <ele>1975.97</ele>
        <time>2019-09-08T08:26:23Z</time>
      </trkpt>
      <trkpt lat="45.9110853" lon="7.0999090">
        <ele>1974.97</ele>
        <time>2019-09-08T08:26:33Z</time>
      </trkpt>
      <trkpt lat="45.9111759" lon="7.0999362">
        <ele>1973.95</ele>
        <time>2019-09-08T08:26:41Z</time>
      </trkpt>
      <trkpt lat="45.9112775" lon="7.0999466">
        <ele>1973.01</ele>
        <time>2019-09-08T08:26:49Z</time>
      </trkpt>
      <trkpt lat="45.9113798" lon="7.0999304">
        <ele>1970.06</ele>
        <time>2019-09-08T08:26:59Z</time>
      </trkpt>
      <trkpt lat="45.9114843" lon="7.0998889">
        <ele>1967.27</ele>
        <time>2019-09-08T08:27:09Z</time>
      </trkpt>
      <trkpt lat="45.9115043" lon="7.0997612">
        <ele>1964.34</ele>
        <time>2019-09-08T08:27:17Z</time>
      </trkpt>
      <trkpt lat="45.9114786" lon="7.0996335">
        <ele>1963.04</ele>
        <time>2019-09-08T08:27:25Z</time>
      </trkpt>
      <trkpt lat="45.9114504" lon="7.0994679">
        <ele>1962.24</ele>
        <time>2019-09-08T08:27:35Z</time>
      </trkpt>
      <trkpt lat="45.9114093" lon="7.0993485">
        <ele>1960.97</ele>
        <time>2019-09-08T08:27:43Z</time>
      </trkpt>
      <trkpt lat="45.9113850" lon="7.0992217">
        <ele>1960.94</ele>
        <time>2019-09-08T08:27:53Z</time>
      </trkpt>
      <trkpt lat="45.9113845" lon="7.0990783">
        <ele>1960.03</ele>
        <time>2019-09-08T08:28:01Z</time>
      </trkpt>
      <trkpt lat="45.9113583" lon="7.0989243">
        <ele>1956.27</ele>
        <time>2019-09-08T08:28:15Z</time>
      </trkpt>
      <trkpt lat="45.9113540" lon="7.0987907">
        <ele>1955.94</ele>
        <time>2019-09-08T08:28:23Z</time>
      </trkpt>
      <trkpt lat="45.9112668" lon="7.0987097">
        <ele>1954.95</ele>
        <time>2019-09-08T08:28:33Z</time>
      </trkpt>
      <trkpt lat="45.9112107" lon="7.0985894">
        <ele>1953.95</ele>
        <time>2019-09-08T08:28:41Z</time>
      </trkpt>
      <trkpt lat="45.9111729" lon="7.0984670">
        <ele>1953.03</ele>
        <time>2019-09-08T08:28:49Z</time>
      </trkpt>
      <trkpt lat="45.9111758" lon="7.0983171">
        <ele>1958.73</ele>
        <time>2019-09-08T08:28:59Z</time>
      </trkpt>
      <trkpt lat="45.9111730" lon="7.0981850">
        <ele>1950.33</ele>
        <time>2019-09-08T08:29:09Z</time>
      </trkpt>
      <trkpt lat="45.9111404" lon="7.0980450">
        <ele>1949.25</ele>
        <time>2019-09-08T08:29:17Z</time>
      </trkpt>
      <trkpt lat="45.9111369" lon="7.0978932">
        <ele>1946.04</ele>
        <time>2019-09-08T08:29:27Z</time>
      </trkpt>
      <trkpt lat="45.9111119" lon="7.0977474">
        <ele>1943.97</ele>
        <time>2019-09-08T08:29:37Z</time>
      </trkpt>
      <trkpt lat="45.9110781" lon="7.0976003">
        <ele>1941.34</ele>
        <time>2019-09-08T08:29:47Z</time>
      </trkpt>
      <trkpt lat="45.9110340" lon="7.0974824">
        <ele>1940.04</ele>
        <time>2019-09-08T08:29:55Z</time>
      </trkpt>
      <trkpt lat="45.9109853" lon="7.0973515">
        <ele>1938.04</ele>
        <time>2019-09-08T08:30:05Z</time>
      </trkpt>
      <trkpt lat="45.9110226" lon="7.0972243">
        <ele>1936.97</ele>
        <time>2019-09-08T08:30:13Z</time>
      </trkpt>
      <trkpt lat="45.9110945" lon="7.0971447">
        <ele>1935.25</ele>
        <time>2019-09-08T08:30:21Z</time>
      </trkpt>
      <trkpt lat="45.9111769" lon="7.0970453">
        <ele>1933.95</ele>
        <time>2019-09-08T08:30:31Z</time>
      </trkpt>
      <trkpt lat="45.9112564" lon="7.0969565">
        <ele>1930.03</ele>
        <time>2019-09-08T08:32:53Z</time>
      </trkpt>
      <trkpt lat="45.9112196" lon="7.0968306">
        <ele>1926.86</ele>
        <time>2019-09-08T08:33:09Z</time>
      </trkpt>
      <trkpt lat="45.9111975" lon="7.0966990">
        <ele>1926.03</ele>
        <time>2019-09-08T08:33:17Z</time>
      </trkpt>
      <trkpt lat="45.9111501" lon="7.0965826">
        <ele>1920.40</ele>
        <time>2019-09-08T08:33:25Z</time>
      </trkpt>
      <trkpt lat="45.9111075" lon="7.0964496">
        <ele>1918.27</ele>
        <time>2019-09-08T08:33:33Z</time>
      </trkpt>
      <trkpt lat="45.9111086" lon="7.0963174">
        <ele>1917.93</ele>
        <time>2019-09-08T08:33:41Z</time>
      </trkpt>
      <trkpt lat="45.9111559" lon="7.0961747">
        <ele>1916.97</ele>
        <time>2019-09-08T08:33:51Z</time>
      </trkpt>
      <trkpt lat="45.9111879" lon="7.0960528">
        <ele>1916.26</ele>
        <time>2019-09-08T08:33:59Z</time>
      </trkpt>
      <trkpt lat="45.9112801" lon="7.0960422">
        <ele>1914.95</ele>
        <time>2019-09-08T08:34:09Z</time>
      </trkpt>
      <trkpt lat="45.9113587" lon="7.0961061">
        <ele>1912.28</ele>
        <time>2019-09-08T08:34:17Z</time>
      </trkpt>
      <trkpt lat="45.9114452" lon="7.0961460">
        <ele>1910.03</ele>
        <time>2019-09-08T08:35:11Z</time>
      </trkpt>
      <trkpt lat="45.9115377" lon="7.0960987">
        <ele>1906.98</ele>
        <time>2019-09-08T08:35:29Z</time>
      </trkpt>
      <trkpt lat="45.9116016" lon="7.0962043">
        <ele>1904.25</ele>
        <time>2019-09-08T08:35:41Z</time>
      </trkpt>
      <trkpt lat="45.9116558" lon="7.0963335">
        <ele>1902.25</ele>
        <time>2019-09-08T08:35:51Z</time>
      </trkpt>
      <trkpt lat="45.9116850" lon="7.0964628">
        <ele>1900.97</ele>
        <time>2019-09-08T08:35:59Z</time>
      </trkpt>
      <trkpt lat="45.9117427" lon="7.0965963">
        <ele>1900.94</ele>
        <time>2019-09-08T08:36:09Z</time>
      </trkpt>
      <trkpt lat="45.9118193" lon="7.0966957">
        <ele>1899.95</ele>
        <time>2019-09-08T08:36:19Z</time>
      </trkpt>
      <trkpt lat="45.9118941" lon="7.0967957">
        <ele>1895.30</ele>
        <time>2019-09-08T08:36:31Z</time>
      </trkpt>
      <trkpt lat="45.9119406" lon="7.0969207">
        <ele>1894.24</ele>
        <time>2019-09-08T08:36:41Z</time>
      </trkpt>
      <trkpt lat="45.9120253" lon="7.0969856">
        <ele>1891.06</ele>
        <time>2019-09-08T08:36:51Z</time>
      </trkpt>
      <trkpt lat="45.9120935" lon="7.0970789">
        <ele>1888.28</ele>
        <time>2019-09-08T08:36:59Z</time>
      </trkpt>
      <trkpt lat="45.9121586" lon="7.0971802">
        <ele>1886.04</ele>
        <time>2019-09-08T08:37:07Z</time>
      </trkpt>
      <trkpt lat="45.9122239" lon="7.0973097">
        <ele>1883.04</ele>
        <time>2019-09-08T08:37:17Z</time>
      </trkpt>
      <trkpt lat="45.9122799" lon="7.0974162">
        <ele>1881.27</ele>
        <time>2019-09-08T08:37:27Z</time>
      </trkpt>
      <trkpt lat="45.9123240" lon="7.0975318">
        <ele>1880.03</ele>
        <time>2019-09-08T08:37:37Z</time>
      </trkpt>
      <trkpt lat="45.9123602" lon="7.0976701">
        <ele>1876.27</ele>
        <time>2019-09-08T08:37:49Z</time>
      </trkpt>
      <trkpt lat="45.9123941" lon="7.0977961">
        <ele>1875.24</ele>
        <time>2019-09-08T08:37:57Z</time>
      </trkpt>
      <trkpt lat="45.9124631" lon="7.0979114">
        <ele>1874.03</ele>
        <time>2019-09-08T08:38:05Z</time>
      </trkpt>
      <trkpt lat="45.9125292" lon="7.0980155">
        <ele>1873.03</ele>
        <time>2019-09-08T08:38:13Z</time>
      </trkpt>
      <trkpt lat="45.9125905" lon="7.0981187">
        <ele>1872.24</ele>
        <time>2019-09-08T08:38:21Z</time>
      </trkpt>
      <trkpt lat="45.9126638" lon="7.0982072">
        <ele>1871.94</ele>
        <time>2019-09-08T08:38:29Z</time>
      </trkpt>
      <trkpt lat="45.9127157" lon="7.0983137">
        <ele>1870.25</ele>
        <time>2019-09-08T08:38:37Z</time>
      </trkpt>
      <trkpt lat="45.9127742" lon="7.0984509">
        <ele>1869.03</ele>
        <time>2019-09-08T08:38:47Z</time>
      </trkpt>
      <trkpt lat="45.9128233" lon="7.0985615">
        <ele>1868.03</ele>
        <time>2019-09-08T08:38:55Z</time>
      </trkpt>
      <trkpt lat="45.9128787" lon="7.0987011">
        <ele>1866.97</ele>
        <time>2019-09-08T08:39:05Z</time>
      </trkpt>
      <trkpt lat="45.9129136" lon="7.0988326">
        <ele>1866.94</ele>
        <time>2019-09-08T08:39:15Z</time>
      </trkpt>
      <trkpt lat="45.9129675" lon="7.0989536">
        <ele>1865.25</ele>
        <time>2019-09-08T08:39:23Z</time>
      </trkpt>
      <trkpt lat="45.9130401" lon="7.0990816">
        <ele>1865.22</ele>
        <time>2019-09-08T08:39:33Z</time>
      </trkpt>
      <trkpt lat="45.9130895" lon="7.0991995">
        <ele>1864.94</ele>
        <time>2019-09-08T08:39:41Z</time>
      </trkpt>
      <trkpt lat="45.9131404" lon="7.0993227">
        <ele>1863.95</ele>
        <time>2019-09-08T08:39:51Z</time>
      </trkpt>
      <trkpt lat="45.9131818" lon="7.0994589">
        <ele>1860.60</ele>
        <time>2019-09-08T08:39:57Z</time>
      </trkpt>
      <trkpt lat="45.9132382" lon="7.0996115">
        <ele>1856.01</ele>
        <time>2019-09-08T08:40:07Z</time>
      </trkpt>
      <trkpt lat="45.9133072" lon="7.0997076">
        <ele>1858.19</ele>
        <time>2019-09-08T08:40:13Z</time>
      </trkpt>
      <trkpt lat="45.9133873" lon="7.0997907">
        <ele>1851.91</ele>
        <time>2019-09-08T08:40:25Z</time>
      </trkpt>
      <trkpt lat="45.9134588" lon="7.0999140">
        <ele>1849.28</ele>
        <time>2019-09-08T08:40:35Z</time>
      </trkpt>
      <trkpt lat="45.9134738" lon="7.1000531">
        <ele>1847.97</ele>
        <time>2019-09-08T08:40:43Z</time>
      </trkpt>
      <trkpt lat="45.9135554" lon="7.1001517">
        <ele>1846.34</ele>
        <time>2019-09-08T08:40:55Z</time>
      </trkpt>
      <trkpt lat="45.9136464" lon="7.1002268">
        <ele>1844.25</ele>
        <time>2019-09-08T08:41:05Z</time>
      </trkpt>
      <trkpt lat="45.9137147" lon="7.1003275">
        <ele>1842.95</ele>
        <time>2019-09-08T08:41:15Z</time>
      </trkpt>
      <trkpt lat="45.9138095" lon="7.1003180">
        <ele>1838.94</ele>
        <time>2019-09-08T08:41:35Z</time>
      </trkpt>
      <trkpt lat="45.9139006" lon="7.1003161">
        <ele>1833.55</ele>
        <time>2019-09-08T08:41:49Z</time>
      </trkpt>
      <trkpt lat="45.9139992" lon="7.1002750">
        <ele>1830.79</ele>
        <time>2019-09-08T08:41:57Z</time>
      </trkpt>
      <trkpt lat="45.9141113" lon="7.1002389">
        <ele>1826.81</ele>
        <time>2019-09-08T08:42:05Z</time>
      </trkpt>
      <trkpt lat="45.9141730" lon="7.1003542">
        <ele>1822.32</ele>
        <time>2019-09-08T08:42:19Z</time>
      </trkpt>
      <trkpt lat="45.9142704" lon="7.1003690">
        <ele>1821.03</ele>
        <time>2019-09-08T08:42:37Z</time>
      </trkpt>
      <trkpt lat="45.9143642" lon="7.1004373">
        <ele>1818.58</ele>
        <time>2019-09-08T08:42:53Z</time>
      </trkpt>
      <trkpt lat="45.9144510" lon="7.1004912">
        <ele>1830.26</ele>
        <time>2019-09-08T08:43:03Z</time>
      </trkpt>
      <trkpt lat="45.9145459" lon="7.1005274">
        <ele>1821.45</ele>
        <time>2019-09-08T08:43:09Z</time>
      </trkpt>
      <trkpt lat="45.9146376" lon="7.1005209">
        <ele>1816.34</ele>
        <time>2019-09-08T08:43:15Z</time>
      </trkpt>
      <trkpt lat="45.9147089" lon="7.1006160">
        <ele>1799.28</ele>
        <time>2019-09-08T08:43:31Z</time>
      </trkpt>
      <trkpt lat="45.9148103" lon="7.1006437">
        <ele>1792.56</ele>
        <time>2019-09-08T08:43:45Z</time>
      </trkpt>
      <trkpt lat="45.9149004" lon="7.1007249">
        <ele>1789.28</ele>
        <time>2019-09-08T08:43:57Z</time>
      </trkpt>
      <trkpt lat="45.9149957" lon="7.1007196">
        <ele>1787.27</ele>
        <time>2019-09-08T08:44:05Z</time>
      </trkpt>
      <trkpt lat="45.9151097" lon="7.1007036">
        <ele>1785.27</ele>
        <time>2019-09-08T08:44:13Z</time>
      </trkpt>
      <trkpt lat="45.9152161" lon="7.1006831">
        <ele>1783.00</ele>
        <time>2019-09-08T08:44:23Z</time>
      </trkpt>
      <trkpt lat="45.9153206" lon="7.1007319">
        <ele>1778.12</ele>
        <time>2019-09-08T08:44:33Z</time>
      </trkpt>
      <trkpt lat="45.9154033" lon="7.1008287">
        <ele>1776.96</ele>
        <time>2019-09-08T08:44:43Z</time>
      </trkpt>
      <trkpt lat="45.9154975" lon="7.1008881">
        <ele>1775.03</ele>
        <time>2019-09-08T08:44:55Z</time>
      </trkpt>
      <trkpt lat="45.9155900" lon="7.1008607">
        <ele>1770.65</ele>
        <time>2019-09-08T08:46:21Z</time>
      </trkpt>
      <trkpt lat="45.9156655" lon="7.1007780">
        <ele>1768.97</ele>
        <time>2019-09-08T08:46:33Z</time>
      </trkpt>
      <trkpt lat="45.9157359" lon="7.1006942">
        <ele>1767.97</ele>
        <time>2019-09-08T08:46:43Z</time>
      </trkpt>
      <trkpt lat="45.9158424" lon="7.1006897">
        <ele>1766.95</ele>
        <time>2019-09-08T08:46:51Z</time>
      </trkpt>
      <trkpt lat="45.9159321" lon="7.1007111">
        <ele>1765.04</ele>
        <time>2019-09-08T08:46:59Z</time>
      </trkpt>
      <trkpt lat="45.9160260" lon="7.1006712">
        <ele>1764.28</ele>
        <time>2019-09-08T08:47:09Z</time>
      </trkpt>
      <trkpt lat="45.9161163" lon="7.1006364">
        <ele>1761.95</ele>
        <time>2019-09-08T08:47:21Z</time>
      </trkpt>
      <trkpt lat="45.9161706" lon="7.1005332">
        <ele>1759.95</ele>
        <time>2019-09-08T08:47:33Z</time>
      </trkpt>
      <trkpt lat="45.9162487" lon="7.1004674">
        <ele>1758.27</ele>
        <time>2019-09-08T08:47:45Z</time>
      </trkpt>
      <trkpt lat="45.9163420" lon="7.1005155">
        <ele>1756.25</ele>
        <time>2019-09-08T08:47:55Z</time>
      </trkpt>
      <trkpt lat="45.9164403" lon="7.1004941">
        <ele>1754.95</ele>
        <time>2019-09-08T08:48:05Z</time>
      </trkpt>
      <trkpt lat="45.9164723" lon="7.1006224">
        <ele>1751.34</ele>
        <time>2019-09-08T08:48:17Z</time>
      </trkpt>
      <trkpt lat="45.9165786" lon="7.1006278">
        <ele>1748.97</ele>
        <time>2019-09-08T08:48:27Z</time>
      </trkpt>
      <trkpt lat="45.9166659" lon="7.1005794">
        <ele>1747.97</ele>
        <time>2019-09-08T08:48:37Z</time>
      </trkpt>
      <trkpt lat="45.9167470" lon="7.1005126">
        <ele>1746.94</ele>
        <time>2019-09-08T08:48:51Z</time>
      </trkpt>
      <trkpt lat="45.9168475" lon="7.1005915">
        <ele>1744.97</ele>
        <time>2019-09-08T08:49:03Z</time>
      </trkpt>
      <trkpt lat="45.9169511" lon="7.1005991">
        <ele>1749.46</ele>
        <time>2019-09-08T08:49:19Z</time>
      </trkpt>
      <trkpt lat="45.9170572" lon="7.1006140">
        <ele>1736.34</ele>
        <time>2019-09-08T08:49:39Z</time>
      </trkpt>
      <trkpt lat="45.9171379" lon="7.1007183">
        <ele>1732.97</ele>
        <time>2019-09-08T08:49:57Z</time>
      </trkpt>
      <trkpt lat="45.9172278" lon="7.1007577">
        <ele>1726.07</ele>
        <time>2019-09-08T08:50:17Z</time>
      </trkpt>
      <trkpt lat="45.9173265" lon="7.1007981">
        <ele>1723.07</ele>
        <time>2019-09-08T08:50:31Z</time>
      </trkpt>
      <trkpt lat="45.9172900" lon="7.1006749">
        <ele>1720.03</ele>
        <time>2019-09-08T08:50:45Z</time>
      </trkpt>
      <trkpt lat="45.9173842" lon="7.1007054">
        <ele>1713.08</ele>
        <time>2019-09-08T08:50:53Z</time>
      </trkpt>
      <trkpt lat="45.9174617" lon="7.1007996">
        <ele>1710.62</ele>
        <time>2019-09-08T08:51:01Z</time>
      </trkpt>
      <trkpt lat="45.9174047" lon="7.1009225">
        <ele>1702.83</ele>
        <time>2019-09-08T08:51:13Z</time>
      </trkpt>
      <trkpt lat="45.9174785" lon="7.1008287">
        <ele>1696.12</ele>
        <time>2019-09-08T08:51:25Z</time>
      </trkpt>
      <trkpt lat="45.9175930" lon="7.1008375">
        <ele>1689.16</ele>
        <time>2019-09-08T08:51:39Z</time>
      </trkpt>
      <trkpt lat="45.9176144" lon="7.1009657">
        <ele>1686.25</ele>
        <time>2019-09-08T08:51:49Z</time>
      </trkpt>
      <trkpt lat="45.9175865" lon="7.1011008">
        <ele>1684.04</ele>
        <time>2019-09-08T08:52:13Z</time>
      </trkpt>
      <trkpt lat="45.9176831" lon="7.1011318">
        <ele>1682.95</ele>
        <time>2019-09-08T08:52:31Z</time>
      </trkpt>
      <trkpt lat="45.9177796" lon="7.1011191">
        <ele>1682.03</ele>
        <time>2019-09-08T08:52:49Z</time>
      </trkpt>
      <trkpt lat="45.9178691" lon="7.1011344">
        <ele>1680.33</ele>
        <time>2019-09-08T08:52:57Z</time>
      </trkpt>
      <trkpt lat="45.9179590" lon="7.1011391">
        <ele>1679.25</ele>
        <time>2019-09-08T08:53:03Z</time>
      </trkpt>
      <trkpt lat="45.9179860" lon="7.1009749">
        <ele>1666.18</ele>
        <time>2019-09-08T08:55:00Z</time>
      </trkpt>
      <trkpt lat="45.9179843" lon="7.1008057">
        <ele>1671.50</ele>
        <time>2019-09-08T08:55:08Z</time>
      </trkpt>
      <trkpt lat="45.9180546" lon="7.1007105">
        <ele>1671.38</ele>
        <time>2019-09-08T08:55:14Z</time>
      </trkpt>
      <trkpt lat="45.9180509" lon="7.1005635">
        <ele>1671.94</ele>
        <time>2019-09-08T08:55:24Z</time>
      </trkpt>
      <trkpt lat="45.9181419" lon="7.1005549">
        <ele>1670.94</ele>
        <time>2019-09-08T08:55:34Z</time>
      </trkpt>
      <trkpt lat="45.9182464" lon="7.1005275">
        <ele>1668.05</ele>
        <time>2019-09-08T08:55:42Z</time>
      </trkpt>
      <trkpt lat="45.9183513" lon="7.1005056">
        <ele>1667.24</ele>
        <time>2019-09-08T08:55:58Z</time>
      </trkpt>
      <trkpt lat="45.9184621" lon="7.1004843">
        <ele>1667.94</ele>
        <time>2019-09-08T08:56:10Z</time>
      </trkpt>
      <trkpt lat="45.9185634" lon="7.1004893">
        <ele>1668.15</ele>
        <time>2019-09-08T08:56:18Z</time>
      </trkpt>
      <trkpt lat="45.9186620" lon="7.1005661">
        <ele>1667.24</ele>
        <time>2019-09-08T08:56:26Z</time>
      </trkpt>
      <trkpt lat="45.9187614" lon="7.1006025">
        <ele>1665.97</ele>
        <time>2019-09-08T08:56:34Z</time>
      </trkpt>
      <trkpt lat="45.9188542" lon="7.1006178">
        <ele>1665.94</ele>
        <time>2019-09-08T08:56:42Z</time>
      </trkpt>
      <trkpt lat="45.9189531" lon="7.1006345">
        <ele>1665.94</ele>
        <time>2019-09-08T08:56:50Z</time>
      </trkpt>
      <trkpt lat="45.9190502" lon="7.1006534">
        <ele>1666.92</ele>
        <time>2019-09-08T08:56:58Z</time>
      </trkpt>
      <trkpt lat="45.9191522" lon="7.1006165">
        <ele>1667.85</ele>
        <time>2019-09-08T08:57:08Z</time>
      </trkpt>
      <trkpt lat="45.9192544" lon="7.1005626">
        <ele>1667.24</ele>
        <time>2019-09-08T08:57:18Z</time>
      </trkpt>
      <trkpt lat="45.9193551" lon="7.1004854">
        <ele>1667.94</ele>
        <time>2019-09-08T08:57:28Z</time>
      </trkpt>
      <trkpt lat="45.9194275" lon="7.1004041">
        <ele>1667.94</ele>
        <time>2019-09-08T08:57:36Z</time>
      </trkpt>
      <trkpt lat="45.9194984" lon="7.1003082">
        <ele>1667.94</ele>
        <time>2019-09-08T08:57:44Z</time>
      </trkpt>
      <trkpt lat="45.9195777" lon="7.1002135">
        <ele>1667.94</ele>
        <time>2019-09-08T08:57:52Z</time>
      </trkpt>
      <trkpt lat="45.9196584" lon="7.1001138">
        <ele>1667.24</ele>
        <time>2019-09-08T08:58:00Z</time>
      </trkpt>
      <trkpt lat="45.9197405" lon="7.1000310">
        <ele>1666.96</ele>
        <time>2019-09-08T08:58:08Z</time>
      </trkpt>
      <trkpt lat="45.9198270" lon="7.0999372">
        <ele>1666.94</ele>
        <time>2019-09-08T08:58:16Z</time>
      </trkpt>
      <trkpt lat="45.9199133" lon="7.0998710">
        <ele>1666.24</ele>
        <time>2019-09-08T08:58:22Z</time>
      </trkpt>
      <trkpt lat="45.9199665" lon="7.0997306">
        <ele>1665.73</ele>
        <time>2019-09-08T08:58:32Z</time>
      </trkpt>
      <trkpt lat="45.9200453" lon="7.0996503">
        <ele>1665.94</ele>
        <time>2019-09-08T08:58:40Z</time>
      </trkpt>
      <trkpt lat="45.9201565" lon="7.0996113">
        <ele>1665.94</ele>
        <time>2019-09-08T08:58:48Z</time>
      </trkpt>
      <trkpt lat="45.9202610" lon="7.0995970">
        <ele>1666.92</ele>
        <time>2019-09-08T08:58:56Z</time>
      </trkpt>
      <trkpt lat="45.9203621" lon="7.0995531">
        <ele>1666.94</ele>
        <time>2019-09-08T08:59:06Z</time>
      </trkpt>
      <trkpt lat="45.9204696" lon="7.0995092">
        <ele>1667.64</ele>
        <time>2019-09-08T08:59:16Z</time>
      </trkpt>
      <trkpt lat="45.9205556" lon="7.0994647">
        <ele>1667.16</ele>
        <time>2019-09-08T08:59:26Z</time>
      </trkpt>
      <trkpt lat="45.9206466" lon="7.0994476">
        <ele>1667.92</ele>
        <time>2019-09-08T08:59:36Z</time>
      </trkpt>
      <trkpt lat="45.9207264" lon="7.0993576">
        <ele>1683.63</ele>
        <time>2019-09-08T08:59:48Z</time>
      </trkpt>
      <trkpt lat="45.9207976" lon="7.0992663">
        <ele>1671.00</ele>
        <time>2019-09-08T09:00:00Z</time>
      </trkpt>
      <trkpt lat="45.9208905" lon="7.0992074">
        <ele>1670.94</ele>
        <time>2019-09-08T09:00:10Z</time>
      </trkpt>
      <trkpt lat="45.9209759" lon="7.0991265">
        <ele>1673.54</ele>
        <time>2019-09-08T09:00:20Z</time>
      </trkpt>
      <trkpt lat="45.9210485" lon="7.0990418">
        <ele>1674.66</ele>
        <time>2019-09-08T09:00:28Z</time>
      </trkpt>
      <trkpt lat="45.9211388" lon="7.0989652">
        <ele>1674.86</ele>
        <time>2019-09-08T09:00:38Z</time>
      </trkpt>
      <trkpt lat="45.9211924" lon="7.0988588">
        <ele>1674.94</ele>
        <time>2019-09-08T09:00:46Z</time>
      </trkpt>
      <trkpt lat="45.9212391" lon="7.0987210">
        <ele>1675.66</ele>
        <time>2019-09-08T09:00:56Z</time>
      </trkpt>
      <trkpt lat="45.9212851" lon="7.0985985">
        <ele>1675.94</ele>
        <time>2019-09-08T09:01:04Z</time>
      </trkpt>
      <trkpt lat="45.9213256" lon="7.0984788">
        <ele>1676.85</ele>
        <time>2019-09-08T09:01:12Z</time>
      </trkpt>
      <trkpt lat="45.9213788" lon="7.0983501">
        <ele>1676.94</ele>
        <time>2019-09-08T09:01:20Z</time>
      </trkpt>
      <trkpt lat="45.9214595" lon="7.0982424">
        <ele>1677.15</ele>
        <time>2019-09-08T09:01:28Z</time>
      </trkpt>
      <trkpt lat="45.9215454" lon="7.0981577">
        <ele>1677.94</ele>
        <time>2019-09-08T09:01:36Z</time>
      </trkpt>
      <trkpt lat="45.9216168" lon="7.0980454">
        <ele>1677.94</ele>
        <time>2019-09-08T09:01:44Z</time>
      </trkpt>
      <trkpt lat="45.9216825" lon="7.0979504">
        <ele>1677.94</ele>
        <time>2019-09-08T09:01:50Z</time>
      </trkpt>
      <trkpt lat="45.9217126" lon="7.0978092">
        <ele>1677.94</ele>
        <time>2019-09-08T09:01:58Z</time>
      </trkpt>
      <trkpt lat="45.9217683" lon="7.0977058">
        <ele>1678.85</ele>
        <time>2019-09-08T09:02:04Z</time>
      </trkpt>
      <trkpt lat="45.9218523" lon="7.0976200">
        <ele>1678.94</ele>
        <time>2019-09-08T09:02:12Z</time>
      </trkpt>
      <trkpt lat="45.9219296" lon="7.0975449">
        <ele>1679.93</ele>
        <time>2019-09-08T09:02:20Z</time>
      </trkpt>
      <trkpt lat="45.9220123" lon="7.0974300">
        <ele>1680.64</ele>
        <time>2019-09-08T09:02:28Z</time>
      </trkpt>
      <trkpt lat="45.9220720" lon="7.0973200">
        <ele>1680.01</ele>
        <time>2019-09-08T09:02:36Z</time>
      </trkpt>
      <trkpt lat="45.9221076" lon="7.0971874">
        <ele>1679.94</ele>
        <time>2019-09-08T09:02:44Z</time>
      </trkpt>
      <trkpt lat="45.9221538" lon="7.0970583">
        <ele>1678.97</ele>
        <time>2019-09-08T09:02:52Z</time>
      </trkpt>
      <trkpt lat="45.9222496" lon="7.0969939">
        <ele>1679.94</ele>
        <time>2019-09-08T09:03:04Z</time>
      </trkpt>
      <trkpt lat="45.9223196" lon="7.0969044">
        <ele>1679.94</ele>
        <time>2019-09-08T09:03:10Z</time>
      </trkpt>
      <trkpt lat="45.9223791" lon="7.0968002">
        <ele>1679.94</ele>
        <time>2019-09-08T09:03:16Z</time>
      </trkpt>
      <trkpt lat="45.9224204" lon="7.0966521">
        <ele>1679.94</ele>
        <time>2019-09-08T09:03:24Z</time>
      </trkpt>
      <trkpt lat="45.9224600" lon="7.0965355">
        <ele>1679.94</ele>
        <time>2019-09-08T09:03:30Z</time>
      </trkpt>
      <trkpt lat="45.9225222" lon="7.0964310">
        <ele>1679.94</ele>
        <time>2019-09-08T09:03:38Z</time>
      </trkpt>
      <trkpt lat="45.9226046" lon="7.0963348">
        <ele>1680.66</ele>
        <time>2019-09-08T09:03:46Z</time>
      </trkpt>
      <trkpt lat="45.9226803" lon="7.0962627">
        <ele>1681.70</ele>
        <time>2019-09-08T09:03:54Z</time>
      </trkpt>
      <trkpt lat="45.9227727" lon="7.0962018">
        <ele>1681.94</ele>
        <time>2019-09-08T09:04:02Z</time>
      </trkpt>
      <trkpt lat="45.9228571" lon="7.0961083">
        <ele>1681.24</ele>
        <time>2019-09-08T09:04:10Z</time>
      </trkpt>
      <trkpt lat="45.9229470" lon="7.0960144">
        <ele>1681.94</ele>
        <time>2019-09-08T09:04:20Z</time>
      </trkpt>
      <trkpt lat="45.9230332" lon="7.0959588">
        <ele>1681.94</ele>
        <time>2019-09-08T09:04:28Z</time>
      </trkpt>
      <trkpt lat="45.9231226" lon="7.0959739">
        <ele>1680.95</ele>
        <time>2019-09-08T09:04:36Z</time>
      </trkpt>
      <trkpt lat="45.9232096" lon="7.0960653">
        <ele>1679.25</ele>
        <time>2019-09-08T09:04:46Z</time>
      </trkpt>
      <trkpt lat="45.9233204" lon="7.0960810">
        <ele>1678.94</ele>
        <time>2019-09-08T09:04:54Z</time>
      </trkpt>
      <trkpt lat="45.9234372" lon="7.0960732">
        <ele>1678.24</ele>
        <time>2019-09-08T09:05:02Z</time>
      </trkpt>
      <trkpt lat="45.9235281" lon="7.0960711">
        <ele>1677.25</ele>
        <time>2019-09-08T09:05:08Z</time>
      </trkpt>
      <trkpt lat="45.9236333" lon="7.0960599">
        <ele>1676.94</ele>
        <time>2019-09-08T09:05:16Z</time>
      </trkpt>
      <trkpt lat="45.9237189" lon="7.0960074">
        <ele>1677.15</ele>
        <time>2019-09-08T09:05:24Z</time>
      </trkpt>
      <trkpt lat="45.9237938" lon="7.0959305">
        <ele>1676.94</ele>
        <time>2019-09-08T09:05:32Z</time>
      </trkpt>
      <trkpt lat="45.9238743" lon="7.0958356">
        <ele>1676.94</ele>
        <time>2019-09-08T09:05:40Z</time>
      </trkpt>
      <trkpt lat="45.9239296" lon="7.0957036">
        <ele>1676.94</ele>
        <time>2019-09-08T09:05:50Z</time>
      </trkpt>
      <trkpt lat="45.9239943" lon="7.0956082">
        <ele>1676.94</ele>
        <time>2019-09-08T09:05:58Z</time>
      </trkpt>
      <trkpt lat="45.9240375" lon="7.0954816">
        <ele>1676.94</ele>
        <time>2019-09-08T09:06:06Z</time>
      </trkpt>
      <trkpt lat="45.9240990" lon="7.0953501">
        <ele>1676.94</ele>
        <time>2019-09-08T09:06:14Z</time>
      </trkpt>
      <trkpt lat="45.9241607" lon="7.0952460">
        <ele>1677.93</ele>
        <time>2019-09-08T09:06:22Z</time>
      </trkpt>
      <trkpt lat="45.9242075" lon="7.0951178">
        <ele>1677.94</ele>
        <time>2019-09-08T09:06:30Z</time>
      </trkpt>
      <trkpt lat="45.9242031" lon="7.0949868">
        <ele>1676.97</ele>
        <time>2019-09-08T09:06:38Z</time>
      </trkpt>
      <trkpt lat="45.9241915" lon="7.0948430">
        <ele>1676.88</ele>
        <time>2019-09-08T09:06:46Z</time>
      </trkpt>
      <trkpt lat="45.9241405" lon="7.0947306">
        <ele>1677.85</ele>
        <time>2019-09-08T09:06:54Z</time>
      </trkpt>
      <trkpt lat="45.9241565" lon="7.0948650">
        <ele>1677.94</ele>
        <time>2019-09-08T09:07:08Z</time>
      </trkpt>
      <trkpt lat="45.9241873" lon="7.0950178">
        <ele>1677.73</ele>
        <time>2019-09-08T09:07:18Z</time>
      </trkpt>
      <trkpt lat="45.9241934" lon="7.0951529">
        <ele>1675.12</ele>
        <time>2019-09-08T09:07:30Z</time>
      </trkpt>
      <trkpt lat="45.9242246" lon="7.0952859">
        <ele>1674.03</ele>
        <time>2019-09-08T09:07:46Z</time>
      </trkpt>
      <trkpt lat="45.9242913" lon="7.0954117">
        <ele>1670.98</ele>
        <time>2019-09-08T09:07:58Z</time>
      </trkpt>
      <trkpt lat="45.9243377" lon="7.0955545">
        <ele>1669.54</ele>
        <time>2019-09-08T09:08:04Z</time>
      </trkpt>
      <trkpt lat="45.9244180" lon="7.0956526">
        <ele>1664.67</ele>
        <time>2019-09-08T09:08:14Z</time>
      </trkpt>
      <trkpt lat="45.9244835" lon="7.0957431">
        <ele>1663.27</ele>
        <time>2019-09-08T09:08:22Z</time>
      </trkpt>
      <trkpt lat="45.9245685" lon="7.0958094">
        <ele>1662.16</ele>
        <time>2019-09-08T09:08:32Z</time>
      </trkpt>
      <trkpt lat="45.9246741" lon="7.0958569">
        <ele>1661.94</ele>
        <time>2019-09-08T09:08:40Z</time>
      </trkpt>
      <trkpt lat="45.9247627" lon="7.0959423">
        <ele>1661.94</ele>
        <time>2019-09-08T09:08:48Z</time>
      </trkpt>
      <trkpt lat="45.9248433" lon="7.0960177">
        <ele>1661.24</ele>
        <time>2019-09-08T09:08:56Z</time>
      </trkpt>
      <trkpt lat="45.9249052" lon="7.0961321">
        <ele>1660.26</ele>
        <time>2019-09-08T09:09:06Z</time>
      </trkpt>
      <trkpt lat="45.9249913" lon="7.0961697">
        <ele>1657.27</ele>
        <time>2019-09-08T09:09:16Z</time>
      </trkpt>
      <trkpt lat="45.9248839" lon="7.0961789">
        <ele>1655.25</ele>
        <time>2019-09-08T09:09:26Z</time>
      </trkpt>
      <trkpt lat="45.9247976" lon="7.0962888">
        <ele>1653.98</ele>
        <time>2019-09-08T09:09:32Z</time>
      </trkpt>
      <trkpt lat="45.9247225" lon="7.0964023">
        <ele>1652.27</ele>
        <time>2019-09-08T09:09:38Z</time>
      </trkpt>
      <trkpt lat="45.9246328" lon="7.0964943">
        <ele>1651.68</ele>
        <time>2019-09-08T09:09:44Z</time>
      </trkpt>
      <trkpt lat="45.9246491" lon="7.0966520">
        <ele>1650.27</ele>
        <time>2019-09-08T09:09:52Z</time>
      </trkpt>
      <trkpt lat="45.9246558" lon="7.0967862">
        <ele>1647.55</ele>
        <time>2019-09-08T09:10:00Z</time>
      </trkpt>
      <trkpt lat="45.9247507" lon="7.0968827">
        <ele>1645.53</ele>
        <time>2019-09-08T09:10:12Z</time>
      </trkpt>
      <trkpt lat="45.9248398" lon="7.0968560">
        <ele>1643.25</ele>
        <time>2019-09-08T09:10:22Z</time>
      </trkpt>
      <trkpt lat="45.9249167" lon="7.0967333">
        <ele>1641.24</ele>
        <time>2019-09-08T09:10:34Z</time>
      </trkpt>
      <trkpt lat="45.9250055" lon="7.0966933">
        <ele>1640.95</ele>
        <time>2019-09-08T09:10:40Z</time>
      </trkpt>
      <trkpt lat="45.9251024" lon="7.0966563">
        <ele>1639.27</ele>
        <time>2019-09-08T09:10:46Z</time>
      </trkpt>
      <trkpt lat="45.9252008" lon="7.0965932">
        <ele>1637.97</ele>
        <time>2019-09-08T09:10:56Z</time>
      </trkpt>
      <trkpt lat="45.9253102" lon="7.0965732">
        <ele>1636.27</ele>
        <time>2019-09-08T09:11:02Z</time>
      </trkpt>
      <trkpt lat="45.9254005" lon="7.0965055">
        <ele>1635.25</ele>
        <time>2019-09-08T09:11:08Z</time>
      </trkpt>
      <trkpt lat="45.9255086" lon="7.0965288">
        <ele>1634.94</ele>
        <time>2019-09-08T09:11:16Z</time>
      </trkpt>
      <trkpt lat="45.9256028" lon="7.0965093">
        <ele>1633.74</ele>
        <time>2019-09-08T09:11:24Z</time>
      </trkpt>
      <trkpt lat="45.9257006" lon="7.0964909">
        <ele>1631.97</ele>
        <time>2019-09-08T09:11:34Z</time>
      </trkpt>
      <trkpt lat="45.9257993" lon="7.0964396">
        <ele>1629.06</ele>
        <time>2019-09-08T09:11:44Z</time>
      </trkpt>
      <trkpt lat="45.9258836" lon="7.0963884">
        <ele>1626.25</ele>
        <time>2019-09-08T09:11:54Z</time>
      </trkpt>
      <trkpt lat="45.9259654" lon="7.0964477">
        <ele>1624.03</ele>
        <time>2019-09-08T09:12:06Z</time>
      </trkpt>
      <trkpt lat="45.9260018" lon="7.0965926">
        <ele>1623.03</ele>
        <time>2019-09-08T09:12:16Z</time>
      </trkpt>
      <trkpt lat="45.9261115" lon="7.0966148">
        <ele>1621.94</ele>
        <time>2019-09-08T09:12:28Z</time>
      </trkpt>
      <trkpt lat="45.9262065" lon="7.0965685">
        <ele>1620.95</ele>
        <time>2019-09-08T09:12:36Z</time>
      </trkpt>
      <trkpt lat="45.9263027" lon="7.0965436">
        <ele>1619.97</ele>
        <time>2019-09-08T09:12:46Z</time>
      </trkpt>
      <trkpt lat="45.9263884" lon="7.0965952">
        <ele>1619.94</ele>
        <time>2019-09-08T09:12:54Z</time>
      </trkpt>
      <trkpt lat="45.9264814" lon="7.0966379">
        <ele>1619.94</ele>
        <time>2019-09-08T09:13:04Z</time>
      </trkpt>
      <trkpt lat="45.9265879" lon="7.0966394">
        <ele>1620.64</ele>
        <time>2019-09-08T09:13:16Z</time>
      </trkpt>
      <trkpt lat="45.9266797" lon="7.0966512">
        <ele>1621.93</ele>
        <time>2019-09-08T09:13:24Z</time>
      </trkpt>
      <trkpt lat="45.9267810" lon="7.0967185">
        <ele>1619.97</ele>
        <time>2019-09-08T09:13:46Z</time>
      </trkpt>
      <trkpt lat="45.9268758" lon="7.0966972">
        <ele>1620.23</ele>
        <time>2019-09-08T09:13:54Z</time>
      </trkpt>
      <trkpt lat="45.9269771" lon="7.0966691">
        <ele>1620.92</ele>
        <time>2019-09-08T09:14:02Z</time>
      </trkpt>
      <trkpt lat="45.9270887" lon="7.0966491">
        <ele>1620.94</ele>
        <time>2019-09-08T09:14:12Z</time>
      </trkpt>
      <trkpt lat="45.9271919" lon="7.0966556">
        <ele>1621.92</ele>
        <time>2019-09-08T09:14:20Z</time>
      </trkpt>
      <trkpt lat="45.9272899" lon="7.0966267">
        <ele>1622.91</ele>
        <time>2019-09-08T09:14:30Z</time>
      </trkpt>
      <trkpt lat="45.9273849" lon="7.0965967">
        <ele>1622.88</ele>
        <time>2019-09-08T09:14:38Z</time>
      </trkpt>
      <trkpt lat="45.9274804" lon="7.0965686">
        <ele>1623.64</ele>
        <time>2019-09-08T09:14:46Z</time>
      </trkpt>
      <trkpt lat="45.9275733" lon="7.0965054">
        <ele>1624.15</ele>
        <time>2019-09-08T09:14:54Z</time>
      </trkpt>
      <trkpt lat="45.9276708" lon="7.0964536">
        <ele>1624.94</ele>
        <time>2019-09-08T09:15:04Z</time>
      </trkpt>
      <trkpt lat="45.9277680" lon="7.0964133">
        <ele>1625.64</ele>
        <time>2019-09-08T09:15:12Z</time>
      </trkpt>
      <trkpt lat="45.9278532" lon="7.0963169">
        <ele>1626.58</ele>
        <time>2019-09-08T09:15:20Z</time>
      </trkpt>
      <trkpt lat="45.9279284" lon="7.0962222">
        <ele>1626.94</ele>
        <time>2019-09-08T09:15:28Z</time>
      </trkpt>
      <trkpt lat="45.9280144" lon="7.0961593">
        <ele>1627.85</ele>
        <time>2019-09-08T09:15:36Z</time>
      </trkpt>
      <trkpt lat="45.9280987" lon="7.0960909">
        <ele>1627.94</ele>
        <time>2019-09-08T09:15:44Z</time>
      </trkpt>
      <trkpt lat="45.9281801" lon="7.0959804">
        <ele>1627.94</ele>
        <time>2019-09-08T09:15:54Z</time>
      </trkpt>
      <trkpt lat="45.9282556" lon="7.0958888">
        <ele>1628.64</ele>
        <time>2019-09-08T09:16:02Z</time>
      </trkpt>
      <trkpt lat="45.9283281" lon="7.0957774">
        <ele>1628.94</ele>
        <time>2019-09-08T09:16:10Z</time>
      </trkpt>
      <trkpt lat="45.9283989" lon="7.0956562">
        <ele>1627.54</ele>
        <time>2019-09-08T09:16:18Z</time>
      </trkpt>
      <trkpt lat="45.9285017" lon="7.0956118">
        <ele>1627.94</ele>
        <time>2019-09-08T09:16:26Z</time>
      </trkpt>
      <trkpt lat="45.9285929" lon="7.0955537">
        <ele>1627.94</ele>
        <time>2019-09-08T09:16:34Z</time>
      </trkpt>
      <trkpt lat="45.9286934" lon="7.0954973">
        <ele>1627.24</ele>
        <time>2019-09-08T09:16:44Z</time>
      </trkpt>
      <trkpt lat="45.9287831" lon="7.0954771">
        <ele>1627.86</ele>
        <time>2019-09-08T09:16:50Z</time>
      </trkpt>
      <trkpt lat="45.9288844" lon="7.0954279">
        <ele>1627.94</ele>
        <time>2019-09-08T09:16:58Z</time>
      </trkpt>
      <trkpt lat="45.9289995" lon="7.0954206">
        <ele>1628.64</ele>
        <time>2019-09-08T09:17:06Z</time>
      </trkpt>
      <trkpt lat="45.9291103" lon="7.0954601">
        <ele>1628.24</ele>
        <time>2019-09-08T09:17:14Z</time>
      </trkpt>
      <trkpt lat="45.9291939" lon="7.0955159">
        <ele>1627.95</ele>
        <time>2019-09-08T09:17:20Z</time>
      </trkpt>
      <trkpt lat="45.9292899" lon="7.0955669">
        <ele>1626.97</ele>
        <time>2019-09-08T09:17:28Z</time>
      </trkpt>
      <trkpt lat="45.9293861" lon="7.0955793">
        <ele>1627.15</ele>
        <time>2019-09-08T09:17:34Z</time>
      </trkpt>
      <trkpt lat="45.9294860" lon="7.0956206">
        <ele>1626.24</ele>
        <time>2019-09-08T09:17:42Z</time>
      </trkpt>
      <trkpt lat="45.9295725" lon="7.0956629">
        <ele>1625.95</ele>
        <time>2019-09-08T09:17:48Z</time>
      </trkpt>
      <trkpt lat="45.9296685" lon="7.0957310">
        <ele>1623.57</ele>
        <time>2019-09-08T09:17:56Z</time>
      </trkpt>
      <trkpt lat="45.9297434" lon="7.0958069">
        <ele>1622.04</ele>
        <time>2019-09-08T09:18:04Z</time>
      </trkpt>
      <trkpt lat="45.9298344" lon="7.0958799">
        <ele>1620.97</ele>
        <time>2019-09-08T09:18:12Z</time>
      </trkpt>
      <trkpt lat="45.9299116" lon="7.0959484">
        <ele>1619.97</ele>
        <time>2019-09-08T09:18:20Z</time>
      </trkpt>
      <trkpt lat="45.9299404" lon="7.0960777">
        <ele>1618.97</ele>
        <time>2019-09-08T09:18:26Z</time>
      </trkpt>
      <trkpt lat="45.9299803" lon="7.0962130">
        <ele>1618.24</ele>
        <time>2019-09-08T09:18:34Z</time>
      </trkpt>
      <trkpt lat="45.9300364" lon="7.0963175">
        <ele>1617.03</ele>
        <time>2019-09-08T09:18:42Z</time>
      </trkpt>
      <trkpt lat="45.9301256" lon="7.0963973">
        <ele>1615.97</ele>
        <time>2019-09-08T09:18:50Z</time>
      </trkpt>
      <trkpt lat="45.9302187" lon="7.0964451">
        <ele>1615.03</ele>
        <time>2019-09-08T09:18:58Z</time>
      </trkpt>
      <trkpt lat="45.9303065" lon="7.0965104">
        <ele>1614.94</ele>
        <time>2019-09-08T09:19:08Z</time>
      </trkpt>
      <trkpt lat="45.9303528" lon="7.0966338">
        <ele>1614.94</ele>
        <time>2019-09-08T09:19:16Z</time>
      </trkpt>
      <trkpt lat="45.9304261" lon="7.0967526">
        <ele>1614.94</ele>
        <time>2019-09-08T09:19:24Z</time>
      </trkpt>
      <trkpt lat="45.9304778" lon="7.0968677">
        <ele>1615.70</ele>
        <time>2019-09-08T09:19:30Z</time>
      </trkpt>
      <trkpt lat="45.9305464" lon="7.0969616">
        <ele>1615.73</ele>
        <time>2019-09-08T09:19:36Z</time>
      </trkpt>
      <trkpt lat="45.9306503" lon="7.0970247">
        <ele>1613.95</ele>
        <time>2019-09-08T09:19:46Z</time>
      </trkpt>
      <trkpt lat="45.9307455" lon="7.0970863">
        <ele>1613.24</ele>
        <time>2019-09-08T09:19:54Z</time>
      </trkpt>
      <trkpt lat="45.9308317" lon="7.0971851">
        <ele>1613.94</ele>
        <time>2019-09-08T09:20:02Z</time>
      </trkpt>
      <trkpt lat="45.9309187" lon="7.0972249">
        <ele>1615.61</ele>
        <time>2019-09-08T09:20:08Z</time>
      </trkpt>
      <trkpt lat="45.9310117" lon="7.0972743">
        <ele>1615.94</ele>
        <time>2019-09-08T09:20:16Z</time>
      </trkpt>
      <trkpt lat="45.9311003" lon="7.0973233">
        <ele>1616.01</ele>
        <time>2019-09-08T09:20:24Z</time>
      </trkpt>
      <trkpt lat="45.9311904" lon="7.0973944">
        <ele>1614.95</ele>
        <time>2019-09-08T09:20:34Z</time>
      </trkpt>
      <trkpt lat="45.9312712" lon="7.0974844">
        <ele>1614.67</ele>
        <time>2019-09-08T09:20:42Z</time>
      </trkpt>
      <trkpt lat="45.9313421" lon="7.0975835">
        <ele>1614.23</ele>
        <time>2019-09-08T09:20:48Z</time>
      </trkpt>
      <trkpt lat="45.9314089" lon="7.0976769">
        <ele>1612.07</ele>
        <time>2019-09-08T09:20:54Z</time>
      </trkpt>
      <trkpt lat="45.9314701" lon="7.0977959">
        <ele>1611.24</ele>
        <time>2019-09-08T09:21:02Z</time>
      </trkpt>
      <trkpt lat="45.9314975" lon="7.0979304">
        <ele>1608.30</ele>
        <time>2019-09-08T09:21:10Z</time>
      </trkpt>
      <trkpt lat="45.9315600" lon="7.0980517">
        <ele>1607.03</ele>
        <time>2019-09-08T09:21:18Z</time>
      </trkpt>
      <trkpt lat="45.9316354" lon="7.0981244">
        <ele>1606.94</ele>
        <time>2019-09-08T09:21:24Z</time>
      </trkpt>
      <trkpt lat="45.9317015" lon="7.0982556">
        <ele>1606.03</ele>
        <time>2019-09-08T09:21:32Z</time>
      </trkpt>
      <trkpt lat="45.9317828" lon="7.0983655">
        <ele>1604.97</ele>
        <time>2019-09-08T09:21:42Z</time>
      </trkpt>
      <trkpt lat="45.9318467" lon="7.0984654">
        <ele>1604.24</ele>
        <time>2019-09-08T09:21:50Z</time>
      </trkpt>
      <trkpt lat="45.9319214" lon="7.0985725">
        <ele>1603.94</ele>
        <time>2019-09-08T09:22:00Z</time>
      </trkpt>
      <trkpt lat="45.9320153" lon="7.0986368">
        <ele>1602.94</ele>
        <time>2019-09-08T09:22:12Z</time>
      </trkpt>
      <trkpt lat="45.9321208" lon="7.0986590">
        <ele>1602.24</ele>
        <time>2019-09-08T09:22:24Z</time>
      </trkpt>
      <trkpt lat="45.9322144" lon="7.0986321">
        <ele>1602.92</ele>
        <time>2019-09-08T09:22:36Z</time>
      </trkpt>
      <trkpt lat="45.9322950" lon="7.0987048">
        <ele>1602.94</ele>
        <time>2019-09-08T09:22:44Z</time>
      </trkpt>
      <trkpt lat="45.9322617" lon="7.0988456">
        <ele>1601.03</ele>
        <time>2019-09-08T09:25:14Z</time>
      </trkpt>
      <trkpt lat="45.9323890" lon="7.0987993">
        <ele>1601.64</ele>
        <time>2019-09-08T09:26:30Z</time>
      </trkpt>
      <trkpt lat="45.9317844" lon="7.0989354">
        <ele>1583.43</ele>
        <time>2019-09-08T09:28:05Z</time>
      </trkpt>
      <trkpt lat="45.9324169" lon="7.0986891">
        <ele>1580.47</ele>
        <time>2019-09-08T09:29:13Z</time>
      </trkpt>
      <trkpt lat="45.9323260" lon="7.0988499">
        <ele>1584.01</ele>
        <time>2019-09-08T09:29:22Z</time>
      </trkpt>
      <trkpt lat="45.9324177" lon="7.0987840">
        <ele>1588.76</ele>
        <time>2019-09-08T09:40:02Z</time>
      </trkpt>
      <trkpt lat="45.9324879" lon="7.0986609">
        <ele>1601.50</ele>
        <time>2019-09-08T10:16:50Z</time>
      </trkpt>
      <trkpt lat="45.9324205" lon="7.0988032">
        <ele>1602.49</ele>
        <time>2019-09-08T10:18:08Z</time>
      </trkpt>
      <trkpt lat="45.9323127" lon="7.0987354">
        <ele>1610.74</ele>
        <time>2019-09-08T10:18:13Z</time>
      </trkpt>
      <trkpt lat="45.9322607" lon="7.0986192">
        <ele>1606.40</ele>
        <time>2019-09-08T10:18:23Z</time>
      </trkpt>
      <trkpt lat="45.9323134" lon="7.0987242">
        <ele>1601.94</ele>
        <time>2019-09-08T10:18:41Z</time>
      </trkpt>
      <trkpt lat="45.9323801" lon="7.0986339">
        <ele>1607.82</ele>
        <time>2019-09-08T10:20:51Z</time>
      </trkpt>
      <trkpt lat="45.9324794" lon="7.0986430">
        <ele>1608.64</ele>
        <time>2019-09-08T10:20:59Z</time>
      </trkpt>
      <trkpt lat="45.9325754" lon="7.0986334">
        <ele>1609.93</ele>
        <time>2019-09-08T10:21:07Z</time>
      </trkpt>
      <trkpt lat="45.9326833" lon="7.0986073">
        <ele>1610.91</ele>
        <time>2019-09-08T10:21:15Z</time>
      </trkpt>
      <trkpt lat="45.9327899" lon="7.0986091">
        <ele>1609.03</ele>
        <time>2019-09-08T10:21:25Z</time>
      </trkpt>
      <trkpt lat="45.9328824" lon="7.0986046">
        <ele>1608.94</ele>
        <time>2019-09-08T10:21:33Z</time>
      </trkpt>
      <trkpt lat="45.9329757" lon="7.0985704">
        <ele>1608.24</ele>
        <time>2019-09-08T10:21:39Z</time>
      </trkpt>
      <trkpt lat="45.9330694" lon="7.0985862">
        <ele>1608.24</ele>
        <time>2019-09-08T10:21:47Z</time>
      </trkpt>
      <trkpt lat="45.9331593" lon="7.0985967">
        <ele>1609.62</ele>
        <time>2019-09-08T10:21:53Z</time>
      </trkpt>
      <trkpt lat="45.9332551" lon="7.0985948">
        <ele>1609.94</ele>
        <time>2019-09-08T10:22:01Z</time>
      </trkpt>
      <trkpt lat="45.9333492" lon="7.0985935">
        <ele>1610.85</ele>
        <time>2019-09-08T10:22:09Z</time>
      </trkpt>
      <trkpt lat="45.9334617" lon="7.0985611">
        <ele>1611.91</ele>
        <time>2019-09-08T10:22:17Z</time>
      </trkpt>
      <trkpt lat="45.9335621" lon="7.0985434">
        <ele>1612.91</ele>
        <time>2019-09-08T10:22:27Z</time>
      </trkpt>
      <trkpt lat="45.9336616" lon="7.0985432">
        <ele>1611.97</ele>
        <time>2019-09-08T10:22:35Z</time>
      </trkpt>
      <trkpt lat="45.9337590" lon="7.0985143">
        <ele>1611.94</ele>
        <time>2019-09-08T10:22:43Z</time>
      </trkpt>
      <trkpt lat="45.9338667" lon="7.0984902">
        <ele>1611.94</ele>
        <time>2019-09-08T10:22:51Z</time>
      </trkpt>
      <trkpt lat="45.9339598" lon="7.0984660">
        <ele>1612.64</ele>
        <time>2019-09-08T10:22:59Z</time>
      </trkpt>
      <trkpt lat="45.9340570" lon="7.0984689">
        <ele>1611.27</ele>
        <time>2019-09-08T10:23:07Z</time>
      </trkpt>
      <trkpt lat="45.9341651" lon="7.0984671">
        <ele>1610.24</ele>
        <time>2019-09-08T10:23:15Z</time>
      </trkpt>
      <trkpt lat="45.9342649" lon="7.0984339">
        <ele>1609.03</ele>
        <time>2019-09-08T10:23:23Z</time>
      </trkpt>
      <trkpt lat="45.9343808" lon="7.0984218">
        <ele>1608.94</ele>
        <time>2019-09-08T10:23:31Z</time>
      </trkpt>
      <trkpt lat="45.9344777" lon="7.0984117">
        <ele>1609.92</ele>
        <time>2019-09-08T10:23:39Z</time>
      </trkpt>
      <trkpt lat="45.9345877" lon="7.0983889">
        <ele>1609.24</ele>
        <time>2019-09-08T10:23:49Z</time>
      </trkpt>
      <trkpt lat="45.9346909" lon="7.0983789">
        <ele>1608.94</ele>
        <time>2019-09-08T10:23:57Z</time>
      </trkpt>
      <trkpt lat="45.9347965" lon="7.0983814">
        <ele>1606.97</ele>
        <time>2019-09-08T10:24:07Z</time>
      </trkpt>
      <trkpt lat="45.9348883" lon="7.0983836">
        <ele>1605.97</ele>
        <time>2019-09-08T10:24:15Z</time>
      </trkpt>
      <trkpt lat="45.9349933" lon="7.0983947">
        <ele>1605.88</ele>
        <time>2019-09-08T10:24:23Z</time>
      </trkpt>
      <trkpt lat="45.9351049" lon="7.0983957">
        <ele>1604.97</ele>
        <time>2019-09-08T10:24:31Z</time>
      </trkpt>
      <trkpt lat="45.9351984" lon="7.0983910">
        <ele>1604.94</ele>
        <time>2019-09-08T10:24:39Z</time>
      </trkpt>
      <trkpt lat="45.9353116" lon="7.0983907">
        <ele>1605.85</ele>
        <time>2019-09-08T10:24:47Z</time>
      </trkpt>
      <trkpt lat="45.9354185" lon="7.0983912">
        <ele>1606.91</ele>
        <time>2019-09-08T10:24:55Z</time>
      </trkpt>
      <trkpt lat="45.9355189" lon="7.0984055">
        <ele>1606.16</ele>
        <time>2019-09-08T10:25:03Z</time>
      </trkpt>
      <trkpt lat="45.9356234" lon="7.0984069">
        <ele>1605.94</ele>
        <time>2019-09-08T10:25:11Z</time>
      </trkpt>
      <trkpt lat="45.9357403" lon="7.0984073">
        <ele>1606.92</ele>
        <time>2019-09-08T10:25:19Z</time>
      </trkpt>
      <trkpt lat="45.9358458" lon="7.0984023">
        <ele>1607.64</ele>
        <time>2019-09-08T10:25:27Z</time>
      </trkpt>
      <trkpt lat="45.9359405" lon="7.0983891">
        <ele>1607.94</ele>
        <time>2019-09-08T10:25:35Z</time>
      </trkpt>
      <trkpt lat="45.9360011" lon="7.0982695">
        <ele>1607.94</ele>
        <time>2019-09-08T10:25:47Z</time>
      </trkpt>
      <trkpt lat="45.9360547" lon="7.0981565">
        <ele>1607.94</ele>
        <time>2019-09-08T10:25:57Z</time>
      </trkpt>
      <trkpt lat="45.9361222" lon="7.0980262">
        <ele>1608.64</ele>
        <time>2019-09-08T10:26:05Z</time>
      </trkpt>
      <trkpt lat="45.9361677" lon="7.0978887">
        <ele>1608.94</ele>
        <time>2019-09-08T10:26:13Z</time>
      </trkpt>
      <trkpt lat="45.9362066" lon="7.0977321">
        <ele>1608.95</ele>
        <time>2019-09-08T10:26:23Z</time>
      </trkpt>
      <trkpt lat="45.9362010" lon="7.0976029">
        <ele>1606.28</ele>
        <time>2019-09-08T10:26:31Z</time>
      </trkpt>
      <trkpt lat="45.9363043" lon="7.0976041">
        <ele>1604.33</ele>
        <time>2019-09-08T10:26:39Z</time>
      </trkpt>
      <trkpt lat="45.9363820" lon="7.0974930">
        <ele>1603.97</ele>
        <time>2019-09-08T10:26:49Z</time>
      </trkpt>
      <trkpt lat="45.9364492" lon="7.0973702">
        <ele>1603.94</ele>
        <time>2019-09-08T10:27:01Z</time>
      </trkpt>
      <trkpt lat="45.9364659" lon="7.0972385">
        <ele>1602.27</ele>
        <time>2019-09-08T10:27:07Z</time>
      </trkpt>
      <trkpt lat="45.9364753" lon="7.0971021">
        <ele>1601.04</ele>
        <time>2019-09-08T10:27:13Z</time>
      </trkpt>
      <trkpt lat="45.9364991" lon="7.0969688">
        <ele>1599.25</ele>
        <time>2019-09-08T10:27:21Z</time>
      </trkpt>
      <trkpt lat="45.9365288" lon="7.0968216">
        <ele>1594.27</ele>
        <time>2019-09-08T10:27:37Z</time>
      </trkpt>
      <trkpt lat="45.9364862" lon="7.0967052">
        <ele>1593.04</ele>
        <time>2019-09-08T10:27:43Z</time>
      </trkpt>
      <trkpt lat="45.9364666" lon="7.0965441">
        <ele>1590.97</ele>
        <time>2019-09-08T10:27:53Z</time>
      </trkpt>
      <trkpt lat="45.9364648" lon="7.0964120">
        <ele>1589.25</ele>
        <time>2019-09-08T10:28:01Z</time>
      </trkpt>
      <trkpt lat="45.9364776" lon="7.0962624">
        <ele>1588.94</ele>
        <time>2019-09-08T10:28:09Z</time>
      </trkpt>
      <trkpt lat="45.9364820" lon="7.0961112">
        <ele>1588.24</ele>
        <time>2019-09-08T10:28:17Z</time>
      </trkpt>
      <trkpt lat="45.9364200" lon="7.0959906">
        <ele>1587.05</ele>
        <time>2019-09-08T10:28:25Z</time>
      </trkpt>
      <trkpt lat="45.9364348" lon="7.0958519">
        <ele>1585.25</ele>
        <time>2019-09-08T10:28:33Z</time>
      </trkpt>
      <trkpt lat="45.9365315" lon="7.0957693">
        <ele>1584.94</ele>
        <time>2019-09-08T10:28:41Z</time>
      </trkpt>
      <trkpt lat="45.9366143" lon="7.0956762">
        <ele>1583.95</ele>
        <time>2019-09-08T10:28:51Z</time>
      </trkpt>
      <trkpt lat="45.9366875" lon="7.0955848">
        <ele>1582.24</ele>
        <time>2019-09-08T10:29:01Z</time>
      </trkpt>
      <trkpt lat="45.9367948" lon="7.0955263">
        <ele>1581.24</ele>
        <time>2019-09-08T10:29:11Z</time>
      </trkpt>
      <trkpt lat="45.9368920" lon="7.0954942">
        <ele>1579.97</ele>
        <time>2019-09-08T10:29:19Z</time>
      </trkpt>
      <trkpt lat="45.9369855" lon="7.0954504">
        <ele>1579.03</ele>
        <time>2019-09-08T10:29:27Z</time>
      </trkpt>
      <trkpt lat="45.9370827" lon="7.0953949">
        <ele>1577.97</ele>
        <time>2019-09-08T10:29:35Z</time>
      </trkpt>
      <trkpt lat="45.9371592" lon="7.0953246">
        <ele>1578.64</ele>
        <time>2019-09-08T10:29:43Z</time>
      </trkpt>
      <trkpt lat="45.9372421" lon="7.0952575">
        <ele>1578.02</ele>
        <time>2019-09-08T10:29:49Z</time>
      </trkpt>
      <trkpt lat="45.9373351" lon="7.0952193">
        <ele>1577.94</ele>
        <time>2019-09-08T10:29:55Z</time>
      </trkpt>
      <trkpt lat="45.9374130" lon="7.0953246">
        <ele>1576.27</ele>
        <time>2019-09-08T10:30:07Z</time>
      </trkpt>
      <trkpt lat="45.9374850" lon="7.0954468">
        <ele>1576.64</ele>
        <time>2019-09-08T10:30:17Z</time>
      </trkpt>
      <trkpt lat="45.9375527" lon="7.0955418">
        <ele>1576.93</ele>
        <time>2019-09-08T10:30:23Z</time>
      </trkpt>
      <trkpt lat="45.9376255" lon="7.0956248">
        <ele>1576.94</ele>
        <time>2019-09-08T10:30:29Z</time>
      </trkpt>
      <trkpt lat="45.9377235" lon="7.0957044">
        <ele>1576.94</ele>
        <time>2019-09-08T10:30:37Z</time>
      </trkpt>
      <trkpt lat="45.9378377" lon="7.0957299">
        <ele>1576.94</ele>
        <time>2019-09-08T10:30:45Z</time>
      </trkpt>
      <trkpt lat="45.9379281" lon="7.0957255">
        <ele>1577.64</ele>
        <time>2019-09-08T10:30:51Z</time>
      </trkpt>
      <trkpt lat="45.9380307" lon="7.0956939">
        <ele>1577.86</ele>
        <time>2019-09-08T10:30:59Z</time>
      </trkpt>
      <trkpt lat="45.9380915" lon="7.0955901">
        <ele>1577.24</ele>
        <time>2019-09-08T10:31:05Z</time>
      </trkpt>
      <trkpt lat="45.9381803" lon="7.0954733">
        <ele>1577.94</ele>
        <time>2019-09-08T10:31:13Z</time>
      </trkpt>
      <trkpt lat="45.9382549" lon="7.0953918">
        <ele>1578.85</ele>
        <time>2019-09-08T10:31:17Z</time>
      </trkpt>
      <trkpt lat="45.9383599" lon="7.0953626">
        <ele>1577.97</ele>
        <time>2019-09-08T10:31:25Z</time>
      </trkpt>
      <trkpt lat="45.9384409" lon="7.0954212">
        <ele>1577.94</ele>
        <time>2019-09-08T10:31:31Z</time>
      </trkpt>
      <trkpt lat="45.9384841" lon="7.0955387">
        <ele>1577.24</ele>
        <time>2019-09-08T10:31:39Z</time>
      </trkpt>
      <trkpt lat="45.9385918" lon="7.0955805">
        <ele>1576.94</ele>
        <time>2019-09-08T10:31:49Z</time>
      </trkpt>
      <trkpt lat="45.9387012" lon="7.0955558">
        <ele>1576.88</ele>
        <time>2019-09-08T10:31:57Z</time>
      </trkpt>
      <trkpt lat="45.9388064" lon="7.0955613">
        <ele>1576.94</ele>
        <time>2019-09-08T10:32:03Z</time>
      </trkpt>
      <trkpt lat="45.9389159" lon="7.0956130">
        <ele>1577.92</ele>
        <time>2019-09-08T10:32:11Z</time>
      </trkpt>
      <trkpt lat="45.9389966" lon="7.0957016">
        <ele>1576.95</ele>
        <time>2019-09-08T10:32:19Z</time>
      </trkpt>
      <trkpt lat="45.9390985" lon="7.0956490">
        <ele>1576.65</ele>
        <time>2019-09-08T10:32:27Z</time>
      </trkpt>
      <trkpt lat="45.9391831" lon="7.0955817">
        <ele>1576.94</ele>
        <time>2019-09-08T10:32:35Z</time>
      </trkpt>
      <trkpt lat="45.9392914" lon="7.0955334">
        <ele>1575.95</ele>
        <time>2019-09-08T10:32:43Z</time>
      </trkpt>
      <trkpt lat="45.9393576" lon="7.0954323">
        <ele>1576.64</ele>
        <time>2019-09-08T10:32:49Z</time>
      </trkpt>
      <trkpt lat="45.9394549" lon="7.0953858">
        <ele>1577.21</ele>
        <time>2019-09-08T10:32:57Z</time>
      </trkpt>
      <trkpt lat="45.9395514" lon="7.0953640">
        <ele>1576.94</ele>
        <time>2019-09-08T10:33:05Z</time>
      </trkpt>
      <trkpt lat="45.9396535" lon="7.0953842">
        <ele>1575.25</ele>
        <time>2019-09-08T10:33:13Z</time>
      </trkpt>
      <trkpt lat="45.9397501" lon="7.0953971">
        <ele>1574.88</ele>
        <time>2019-09-08T10:33:21Z</time>
      </trkpt>
      <trkpt lat="45.9398366" lon="7.0954453">
        <ele>1574.24</ele>
        <time>2019-09-08T10:33:29Z</time>
      </trkpt>
      <trkpt lat="45.9399373" lon="7.0955336">
        <ele>1573.96</ele>
        <time>2019-09-08T10:33:39Z</time>
      </trkpt>
      <trkpt lat="45.9400328" lon="7.0956145">
        <ele>1574.23</ele>
        <time>2019-09-08T10:33:47Z</time>
      </trkpt>
      <trkpt lat="45.9401525" lon="7.0956442">
        <ele>1573.94</ele>
        <time>2019-09-08T10:33:55Z</time>
      </trkpt>
      <trkpt lat="45.9402695" lon="7.0956574">
        <ele>1574.92</ele>
        <time>2019-09-08T10:34:03Z</time>
      </trkpt>
      <trkpt lat="45.9403872" lon="7.0956439">
        <ele>1573.95</ele>
        <time>2019-09-08T10:34:11Z</time>
      </trkpt>
      <trkpt lat="45.9404783" lon="7.0956466">
        <ele>1573.94</ele>
        <time>2019-09-08T10:34:17Z</time>
      </trkpt>
      <trkpt lat="45.9405633" lon="7.0957048">
        <ele>1572.95</ele>
        <time>2019-09-08T10:34:25Z</time>
      </trkpt>
      <trkpt lat="45.9406650" lon="7.0956935">
        <ele>1574.07</ele>
        <time>2019-09-08T10:34:33Z</time>
      </trkpt>
      <trkpt lat="45.9407618" lon="7.0957417">
        <ele>1573.86</ele>
        <time>2019-09-08T10:34:41Z</time>
      </trkpt>
      <trkpt lat="45.9408754" lon="7.0958059">
        <ele>1573.94</ele>
        <time>2019-09-08T10:34:49Z</time>
      </trkpt>
      <trkpt lat="45.9409554" lon="7.0958864">
        <ele>1571.36</ele>
        <time>2019-09-08T10:34:55Z</time>
      </trkpt>
      <trkpt lat="45.9410296" lon="7.0959791">
        <ele>1569.34</ele>
        <time>2019-09-08T10:35:01Z</time>
      </trkpt>
      <trkpt lat="45.9411045" lon="7.0960533">
        <ele>1568.04</ele>
        <time>2019-09-08T10:35:07Z</time>
      </trkpt>
      <trkpt lat="45.9412000" lon="7.0961434">
        <ele>1565.98</ele>
        <time>2019-09-08T10:35:15Z</time>
      </trkpt>
      <trkpt lat="45.9412887" lon="7.0961802">
        <ele>1563.97</ele>
        <time>2019-09-08T10:35:25Z</time>
      </trkpt>
      <trkpt lat="45.9413949" lon="7.0962146">
        <ele>1563.03</ele>
        <time>2019-09-08T10:35:33Z</time>
      </trkpt>
      <trkpt lat="45.9414849" lon="7.0962804">
        <ele>1562.24</ele>
        <time>2019-09-08T10:35:43Z</time>
      </trkpt>
      <trkpt lat="45.9415872" lon="7.0962609">
        <ele>1561.26</ele>
        <time>2019-09-08T10:35:51Z</time>
      </trkpt>
      <trkpt lat="45.9416872" lon="7.0962702">
        <ele>1559.27</ele>
        <time>2019-09-08T10:35:59Z</time>
      </trkpt>
      <trkpt lat="45.9417876" lon="7.0962407">
        <ele>1558.24</ele>
        <time>2019-09-08T10:36:07Z</time>
      </trkpt>
      <trkpt lat="45.9418859" lon="7.0961980">
        <ele>1557.04</ele>
        <time>2019-09-08T10:36:13Z</time>
      </trkpt>
      <trkpt lat="45.9419862" lon="7.0961561">
        <ele>1555.97</ele>
        <time>2019-09-08T10:36:21Z</time>
      </trkpt>
      <trkpt lat="45.9421003" lon="7.0961458">
        <ele>1552.98</ele>
        <time>2019-09-08T10:36:33Z</time>
      </trkpt>
      <trkpt lat="45.9421963" lon="7.0961870">
        <ele>1552.24</ele>
        <time>2019-09-08T10:36:41Z</time>
      </trkpt>
      <trkpt lat="45.9422956" lon="7.0961246">
        <ele>1550.33</ele>
        <time>2019-09-08T10:36:49Z</time>
      </trkpt>
      <trkpt lat="45.9423909" lon="7.0960751">
        <ele>1549.95</ele>
        <time>2019-09-08T10:36:55Z</time>
      </trkpt>
      <trkpt lat="45.9424794" lon="7.0959771">
        <ele>1548.97</ele>
        <time>2019-09-08T10:37:03Z</time>
      </trkpt>
      <trkpt lat="45.9425455" lon="7.0958703">
        <ele>1548.03</ele>
        <time>2019-09-08T10:37:09Z</time>
      </trkpt>
      <trkpt lat="45.9426545" lon="7.0958069">
        <ele>1546.95</ele>
        <time>2019-09-08T10:37:17Z</time>
      </trkpt>
      <trkpt lat="45.9427653" lon="7.0958016">
        <ele>1545.94</ele>
        <time>2019-09-08T10:37:29Z</time>
      </trkpt>
      <trkpt lat="45.9428520" lon="7.0958708">
        <ele>1545.16</ele>
        <time>2019-09-08T10:37:37Z</time>
      </trkpt>
      <trkpt lat="45.9429337" lon="7.0959296">
        <ele>1544.94</ele>
        <time>2019-09-08T10:37:45Z</time>
      </trkpt>
      <trkpt lat="45.9430433" lon="7.0959450">
        <ele>1545.64</ele>
        <time>2019-09-08T10:37:55Z</time>
      </trkpt>
      <trkpt lat="45.9431455" lon="7.0959240">
        <ele>1545.03</ele>
        <time>2019-09-08T10:38:03Z</time>
      </trkpt>
      <trkpt lat="45.9432538" lon="7.0959226">
        <ele>1543.25</ele>
        <time>2019-09-08T10:38:13Z</time>
      </trkpt>
      <trkpt lat="45.9433572" lon="7.0959758">
        <ele>1541.06</ele>
        <time>2019-09-08T10:38:23Z</time>
      </trkpt>
      <trkpt lat="45.9434604" lon="7.0960488">
        <ele>1540.01</ele>
        <time>2019-09-08T10:38:33Z</time>
      </trkpt>
      <trkpt lat="45.9435637" lon="7.0960968">
        <ele>1539.94</ele>
        <time>2019-09-08T10:38:41Z</time>
      </trkpt>
      <trkpt lat="45.9436660" lon="7.0961284">
        <ele>1539.03</ele>
        <time>2019-09-08T10:38:49Z</time>
      </trkpt>
      <trkpt lat="45.9437647" lon="7.0961782">
        <ele>1538.03</ele>
        <time>2019-09-08T10:38:57Z</time>
      </trkpt>
      <trkpt lat="45.9438628" lon="7.0962274">
        <ele>1536.25</ele>
        <time>2019-09-08T10:39:05Z</time>
      </trkpt>
      <trkpt lat="45.9439720" lon="7.0962728">
        <ele>1535.03</ele>
        <time>2019-09-08T10:39:13Z</time>
      </trkpt>
      <trkpt lat="45.9440830" lon="7.0962957">
        <ele>1534.94</ele>
        <time>2019-09-08T10:39:21Z</time>
      </trkpt>
      <trkpt lat="45.9441757" lon="7.0963059">
        <ele>1534.92</ele>
        <time>2019-09-08T10:39:29Z</time>
      </trkpt>
      <trkpt lat="45.9442840" lon="7.0963374">
        <ele>1534.94</ele>
        <time>2019-09-08T10:39:37Z</time>
      </trkpt>
      <trkpt lat="45.9443719" lon="7.0963670">
        <ele>1534.94</ele>
        <time>2019-09-08T10:39:45Z</time>
      </trkpt>
      <trkpt lat="45.9444705" lon="7.0964183">
        <ele>1534.94</ele>
        <time>2019-09-08T10:39:53Z</time>
      </trkpt>
      <trkpt lat="45.9445298" lon="7.0965477">
        <ele>1535.85</ele>
        <time>2019-09-08T10:40:01Z</time>
      </trkpt>
      <trkpt lat="45.9445827" lon="7.0966973">
        <ele>1535.94</ele>
        <time>2019-09-08T10:40:09Z</time>
      </trkpt>
      <trkpt lat="45.9446442" lon="7.0967968">
        <ele>1536.93</ele>
        <time>2019-09-08T10:40:17Z</time>
      </trkpt>
      <trkpt lat="45.9446976" lon="7.0969021">
        <ele>1537.91</ele>
        <time>2019-09-08T10:40:25Z</time>
      </trkpt>
      <trkpt lat="45.9447541" lon="7.0970134">
        <ele>1537.71</ele>
        <time>2019-09-08T10:40:35Z</time>
      </trkpt>
      <trkpt lat="45.9447857" lon="7.0971496">
        <ele>1537.94</ele>
        <time>2019-09-08T10:40:43Z</time>
      </trkpt>
      <trkpt lat="45.9448370" lon="7.0972824">
        <ele>1537.94</ele>
        <time>2019-09-08T10:40:51Z</time>
      </trkpt>
      <trkpt lat="45.9448911" lon="7.0973901">
        <ele>1537.24</ele>
        <time>2019-09-08T10:40:59Z</time>
      </trkpt>
      <trkpt lat="45.9449636" lon="7.0974735">
        <ele>1536.94</ele>
        <time>2019-09-08T10:41:07Z</time>
      </trkpt>
      <trkpt lat="45.9450299" lon="7.0975753">
        <ele>1537.93</ele>
        <time>2019-09-08T10:41:15Z</time>
      </trkpt>
      <trkpt lat="45.9451153" lon="7.0976239">
        <ele>1537.65</ele>
        <time>2019-09-08T10:41:23Z</time>
      </trkpt>
      <trkpt lat="45.9451988" lon="7.0976925">
        <ele>1537.24</ele>
        <time>2019-09-08T10:41:31Z</time>
      </trkpt>
      <trkpt lat="45.9452362" lon="7.0978185">
        <ele>1537.67</ele>
        <time>2019-09-08T10:41:41Z</time>
      </trkpt>
      <trkpt lat="45.9453245" lon="7.0978667">
        <ele>1537.94</ele>
        <time>2019-09-08T10:41:49Z</time>
      </trkpt>
      <trkpt lat="45.9453829" lon="7.0979678">
        <ele>1537.24</ele>
        <time>2019-09-08T10:41:57Z</time>
      </trkpt>
      <trkpt lat="45.9454851" lon="7.0980278">
        <ele>1536.05</ele>
        <time>2019-09-08T10:42:07Z</time>
      </trkpt>
      <trkpt lat="45.9455191" lon="7.0981722">
        <ele>1535.94</ele>
        <time>2019-09-08T10:42:15Z</time>
      </trkpt>
      <trkpt lat="45.9455266" lon="7.0983244">
        <ele>1535.24</ele>
        <time>2019-09-08T10:42:25Z</time>
      </trkpt>
      <trkpt lat="45.9455837" lon="7.0984513">
        <ele>1535.92</ele>
        <time>2019-09-08T10:42:33Z</time>
      </trkpt>
      <trkpt lat="45.9456551" lon="7.0985638">
        <ele>1536.93</ele>
        <time>2019-09-08T10:42:41Z</time>
      </trkpt>
      <trkpt lat="45.9457248" lon="7.0986841">
        <ele>1536.94</ele>
        <time>2019-09-08T10:42:49Z</time>
      </trkpt>
      <trkpt lat="45.9458169" lon="7.0987432">
        <ele>1532.37</ele>
        <time>2019-09-08T10:43:01Z</time>
      </trkpt>
      <trkpt lat="45.9459111" lon="7.0987688">
        <ele>1530.25</ele>
        <time>2019-09-08T10:43:11Z</time>
      </trkpt>
      <trkpt lat="45.9459880" lon="7.0988475">
        <ele>1529.96</ele>
        <time>2019-09-08T10:43:19Z</time>
      </trkpt>
      <trkpt lat="45.9460841" lon="7.0988739">
        <ele>1528.25</ele>
        <time>2019-09-08T10:43:27Z</time>
      </trkpt>
      <trkpt lat="45.9461298" lon="7.0990039">
        <ele>1527.94</ele>
        <time>2019-09-08T10:43:37Z</time>
      </trkpt>
      <trkpt lat="45.9462441" lon="7.0989961">
        <ele>1525.98</ele>
        <time>2019-09-08T10:43:47Z</time>
      </trkpt>
      <trkpt lat="45.9463310" lon="7.0990490">
        <ele>1525.03</ele>
        <time>2019-09-08T10:43:55Z</time>
      </trkpt>
      <trkpt lat="45.9464299" lon="7.0991130">
        <ele>1523.97</ele>
        <time>2019-09-08T10:44:05Z</time>
      </trkpt>
      <trkpt lat="45.9465290" lon="7.0991414">
        <ele>1524.92</ele>
        <time>2019-09-08T10:44:15Z</time>
      </trkpt>
      <trkpt lat="45.9466204" lon="7.0991342">
        <ele>1524.16</ele>
        <time>2019-09-08T10:44:23Z</time>
      </trkpt>
      <trkpt lat="45.9466783" lon="7.0992354">
        <ele>1523.73</ele>
        <time>2019-09-08T10:44:31Z</time>
      </trkpt>
      <trkpt lat="45.9467751" lon="7.0992811">
        <ele>1522.97</ele>
        <time>2019-09-08T10:44:39Z</time>
      </trkpt>
      <trkpt lat="45.9468522" lon="7.0993933">
        <ele>1521.95</ele>
        <time>2019-09-08T10:44:49Z</time>
      </trkpt>
      <trkpt lat="45.9469426" lon="7.0994304">
        <ele>1520.97</ele>
        <time>2019-09-08T10:44:57Z</time>
      </trkpt>
      <trkpt lat="45.9470337" lon="7.0994455">
        <ele>1520.03</ele>
        <time>2019-09-08T10:45:05Z</time>
      </trkpt>
      <trkpt lat="45.9471365" lon="7.0994379">
        <ele>1519.71</ele>
        <time>2019-09-08T10:45:13Z</time>
      </trkpt>
      <trkpt lat="45.9472170" lon="7.0995140">
        <ele>1516.98</ele>
        <time>2019-09-08T10:45:23Z</time>
      </trkpt>
      <trkpt lat="45.9473065" lon="7.0995589">
        <ele>1515.97</ele>
        <time>2019-09-08T10:45:31Z</time>
      </trkpt>
      <trkpt lat="45.9474091" lon="7.0996218">
        <ele>1514.27</ele>
        <time>2019-09-08T10:45:41Z</time>
      </trkpt>
      <trkpt lat="45.9474997" lon="7.0996191">
        <ele>1513.24</ele>
        <time>2019-09-08T10:45:49Z</time>
      </trkpt>
      <trkpt lat="45.9476025" lon="7.0996566">
        <ele>1512.94</ele>
        <time>2019-09-08T10:45:57Z</time>
      </trkpt>
      <trkpt lat="45.9476974" lon="7.0996872">
        <ele>1512.94</ele>
        <time>2019-09-08T10:46:05Z</time>
      </trkpt>
      <trkpt lat="45.9477830" lon="7.0996167">
        <ele>1511.94</ele>
        <time>2019-09-08T10:46:15Z</time>
      </trkpt>
      <trkpt lat="45.9478800" lon="7.0997108">
        <ele>1511.94</ele>
        <time>2019-09-08T10:46:23Z</time>
      </trkpt>
      <trkpt lat="45.9479558" lon="7.0998088">
        <ele>1510.97</ele>
        <time>2019-09-08T10:46:31Z</time>
      </trkpt>
      <trkpt lat="45.9480431" lon="7.0998774">
        <ele>1508.34</ele>
        <time>2019-09-08T10:46:39Z</time>
      </trkpt>
      <trkpt lat="45.9481521" lon="7.0998819">
        <ele>1502.37</ele>
        <time>2019-09-08T10:46:49Z</time>
      </trkpt>
      <trkpt lat="45.9482592" lon="7.0998663">
        <ele>1500.28</ele>
        <time>2019-09-08T10:46:57Z</time>
      </trkpt>
      <trkpt lat="45.9483669" lon="7.0998838">
        <ele>1499.01</ele>
        <time>2019-09-08T10:47:07Z</time>
      </trkpt>
      <trkpt lat="45.9484633" lon="7.0999257">
        <ele>1500.13</ele>
        <time>2019-09-08T10:47:15Z</time>
      </trkpt>
      <trkpt lat="45.9485633" lon="7.0999569">
        <ele>1498.26</ele>
        <time>2019-09-08T10:47:27Z</time>
      </trkpt>
      <trkpt lat="45.9486390" lon="7.1000567">
        <ele>1497.94</ele>
        <time>2019-09-08T10:47:35Z</time>
      </trkpt>
      <trkpt lat="45.9487106" lon="7.1001449">
        <ele>1496.95</ele>
        <time>2019-09-08T10:47:45Z</time>
      </trkpt>
      <trkpt lat="45.9487770" lon="7.1002339">
        <ele>1497.01</ele>
        <time>2019-09-08T10:47:53Z</time>
      </trkpt>
      <trkpt lat="45.9488021" lon="7.1003583">
        <ele>1496.92</ele>
        <time>2019-09-08T10:48:03Z</time>
      </trkpt>
      <trkpt lat="45.9488927" lon="7.1003009">
        <ele>1495.94</ele>
        <time>2019-09-08T10:48:13Z</time>
      </trkpt>
      <trkpt lat="45.9489831" lon="7.1003839">
        <ele>1495.94</ele>
        <time>2019-09-08T10:48:21Z</time>
      </trkpt>
      <trkpt lat="45.9490632" lon="7.1004689">
        <ele>1496.85</ele>
        <time>2019-09-08T10:48:29Z</time>
      </trkpt>
      <trkpt lat="45.9491297" lon="7.1005805">
        <ele>1497.15</ele>
        <time>2019-09-08T10:48:37Z</time>
      </trkpt>
      <trkpt lat="45.9491946" lon="7.1006902">
        <ele>1496.94</ele>
        <time>2019-09-08T10:48:45Z</time>
      </trkpt>
      <trkpt lat="45.9492830" lon="7.1007381">
        <ele>1497.88</ele>
        <time>2019-09-08T10:48:55Z</time>
      </trkpt>
      <trkpt lat="45.9493673" lon="7.1008275">
        <ele>1498.91</ele>
        <time>2019-09-08T10:49:03Z</time>
      </trkpt>
      <trkpt lat="45.9494194" lon="7.1009449">
        <ele>1498.94</ele>
        <time>2019-09-08T10:49:11Z</time>
      </trkpt>
      <trkpt lat="45.9494774" lon="7.1010504">
        <ele>1499.92</ele>
        <time>2019-09-08T10:49:19Z</time>
      </trkpt>
      <trkpt lat="45.9495643" lon="7.1010892">
        <ele>1500.83</ele>
        <time>2019-09-08T10:49:33Z</time>
      </trkpt>
      <trkpt lat="45.9496087" lon="7.1012041">
        <ele>1502.94</ele>
        <time>2019-09-08T10:49:49Z</time>
      </trkpt>
      <trkpt lat="45.9496724" lon="7.1012990">
        <ele>1503.93</ele>
        <time>2019-09-08T10:49:57Z</time>
      </trkpt>
      <trkpt lat="45.9497579" lon="7.1013672">
        <ele>1505.91</ele>
        <time>2019-09-08T10:50:07Z</time>
      </trkpt>
      <trkpt lat="45.9498196" lon="7.1014647">
        <ele>1507.61</ele>
        <time>2019-09-08T10:50:15Z</time>
      </trkpt>
      <trkpt lat="45.9499112" lon="7.1015610">
        <ele>1508.64</ele>
        <time>2019-09-08T10:50:23Z</time>
      </trkpt>
      <trkpt lat="45.9499933" lon="7.1016301">
        <ele>1508.92</ele>
        <time>2019-09-08T10:50:31Z</time>
      </trkpt>
      <trkpt lat="45.9500849" lon="7.1016747">
        <ele>1509.91</ele>
        <time>2019-09-08T10:50:39Z</time>
      </trkpt>
      <trkpt lat="45.9501439" lon="7.1017783">
        <ele>1509.94</ele>
        <time>2019-09-08T10:50:47Z</time>
      </trkpt>
      <trkpt lat="45.9502555" lon="7.1017637">
        <ele>1510.92</ele>
        <time>2019-09-08T10:50:59Z</time>
      </trkpt>
      <trkpt lat="45.9503352" lon="7.1017032">
        <ele>1511.91</ele>
        <time>2019-09-08T10:51:05Z</time>
      </trkpt>
      <trkpt lat="45.9504387" lon="7.1017168">
        <ele>1512.21</ele>
        <time>2019-09-08T10:51:15Z</time>
      </trkpt>
      <trkpt lat="45.9504879" lon="7.1018261">
        <ele>1510.74</ele>
        <time>2019-09-08T10:51:23Z</time>
      </trkpt>
      <trkpt lat="45.9505150" lon="7.1019707">
        <ele>1510.03</ele>
        <time>2019-09-08T10:51:31Z</time>
      </trkpt>
      <trkpt lat="45.9505804" lon="7.1020891">
        <ele>1509.94</ele>
        <time>2019-09-08T10:51:39Z</time>
      </trkpt>
      <trkpt lat="45.9506904" lon="7.1020671">
        <ele>1508.27</ele>
        <time>2019-09-08T10:51:49Z</time>
      </trkpt>
      <trkpt lat="45.9507912" lon="7.1020118">
        <ele>1507.88</ele>
        <time>2019-09-08T10:51:57Z</time>
      </trkpt>
      <trkpt lat="45.9508621" lon="7.1019079">
        <ele>1506.95</ele>
        <time>2019-09-08T10:52:05Z</time>
      </trkpt>
      <trkpt lat="45.9509676" lon="7.1019260">
        <ele>1506.88</ele>
        <time>2019-09-08T10:52:17Z</time>
      </trkpt>
      <trkpt lat="45.9510623" lon="7.1018963">
        <ele>1505.95</ele>
        <time>2019-09-08T10:52:25Z</time>
      </trkpt>
      <trkpt lat="45.9511624" lon="7.1019208">
        <ele>1503.34</ele>
        <time>2019-09-08T10:52:37Z</time>
      </trkpt>
      <trkpt lat="45.9512610" lon="7.1019783">
        <ele>1500.68</ele>
        <time>2019-09-08T10:52:47Z</time>
      </trkpt>
      <trkpt lat="45.9513428" lon="7.1020422">
        <ele>1498.99</ele>
        <time>2019-09-08T10:52:53Z</time>
      </trkpt>
      <trkpt lat="45.9514302" lon="7.1021108">
        <ele>1495.60</ele>
        <time>2019-09-08T10:53:01Z</time>
      </trkpt>
      <trkpt lat="45.9515165" lon="7.1021484">
        <ele>1492.15</ele>
        <time>2019-09-08T10:53:09Z</time>
      </trkpt>
      <trkpt lat="45.9516090" lon="7.1022151">
        <ele>1489.10</ele>
        <time>2019-09-08T10:53:19Z</time>
      </trkpt>
      <trkpt lat="45.9516845" lon="7.1022873">
        <ele>1485.58</ele>
        <time>2019-09-08T10:53:27Z</time>
      </trkpt>
      <trkpt lat="45.9517618" lon="7.1023604">
        <ele>1484.71</ele>
        <time>2019-09-08T10:53:35Z</time>
      </trkpt>
      <trkpt lat="45.9518501" lon="7.1024344">
        <ele>1483.74</ele>
        <time>2019-09-08T10:53:43Z</time>
      </trkpt>
      <trkpt lat="45.9519377" lon="7.1024821">
        <ele>1483.94</ele>
        <time>2019-09-08T10:53:51Z</time>
      </trkpt>
      <trkpt lat="45.9520368" lon="7.1025318">
        <ele>1484.02</ele>
        <time>2019-09-08T10:53:59Z</time>
      </trkpt>
      <trkpt lat="45.9521272" lon="7.1026066">
        <ele>1483.96</ele>
        <time>2019-09-08T10:54:07Z</time>
      </trkpt>
      <trkpt lat="45.9522188" lon="7.1026709">
        <ele>1483.88</ele>
        <time>2019-09-08T10:54:15Z</time>
      </trkpt>
      <trkpt lat="45.9523168" lon="7.1027076">
        <ele>1484.64</ele>
        <time>2019-09-08T10:54:23Z</time>
      </trkpt>
      <trkpt lat="45.9524153" lon="7.1026985">
        <ele>1483.06</ele>
        <time>2019-09-08T10:54:31Z</time>
      </trkpt>
      <trkpt lat="45.9525006" lon="7.1026416">
        <ele>1482.04</ele>
        <time>2019-09-08T10:54:37Z</time>
      </trkpt>
      <trkpt lat="45.9525982" lon="7.1026019">
        <ele>1481.03</ele>
        <time>2019-09-08T10:54:43Z</time>
      </trkpt>
      <trkpt lat="45.9527101" lon="7.1025400">
        <ele>1479.97</ele>
        <time>2019-09-08T10:54:51Z</time>
      </trkpt>
      <trkpt lat="45.9528017" lon="7.1024899">
        <ele>1478.25</ele>
        <time>2019-09-08T10:54:59Z</time>
      </trkpt>
      <trkpt lat="45.9528871" lon="7.1024349">
        <ele>1477.95</ele>
        <time>2019-09-08T10:55:05Z</time>
      </trkpt>
      <trkpt lat="45.9529906" lon="7.1024231">
        <ele>1477.86</ele>
        <time>2019-09-08T10:55:13Z</time>
      </trkpt>
      <trkpt lat="45.9530791" lon="7.1024721">
        <ele>1477.94</ele>
        <time>2019-09-08T10:55:21Z</time>
      </trkpt>
      <trkpt lat="45.9531663" lon="7.1025055">
        <ele>1476.33</ele>
        <time>2019-09-08T10:55:29Z</time>
      </trkpt>
      <trkpt lat="45.9532682" lon="7.1025499">
        <ele>1474.04</ele>
        <time>2019-09-08T10:55:39Z</time>
      </trkpt>
      <trkpt lat="45.9533512" lon="7.1026394">
        <ele>1473.03</ele>
        <time>2019-09-08T10:55:47Z</time>
      </trkpt>
      <trkpt lat="45.9534440" lon="7.1027087">
        <ele>1472.03</ele>
        <time>2019-09-08T10:55:55Z</time>
      </trkpt>
      <trkpt lat="45.9535349" lon="7.1027275">
        <ele>1472.01</ele>
        <time>2019-09-08T10:56:01Z</time>
      </trkpt>
      <trkpt lat="45.9536160" lon="7.1028043">
        <ele>1470.95</ele>
        <time>2019-09-08T10:56:09Z</time>
      </trkpt>
      <trkpt lat="45.9537069" lon="7.1028400">
        <ele>1470.03</ele>
        <time>2019-09-08T10:56:17Z</time>
      </trkpt>
      <trkpt lat="45.9538205" lon="7.1028641">
        <ele>1468.97</ele>
        <time>2019-09-08T10:56:25Z</time>
      </trkpt>
      <trkpt lat="45.9539293" lon="7.1028721">
        <ele>1468.03</ele>
        <time>2019-09-08T10:56:33Z</time>
      </trkpt>
      <trkpt lat="45.9540377" lon="7.1029069">
        <ele>1466.25</ele>
        <time>2019-09-08T10:56:41Z</time>
      </trkpt>
      <trkpt lat="45.9541486" lon="7.1029587">
        <ele>1464.97</ele>
        <time>2019-09-08T10:56:49Z</time>
      </trkpt>
      <trkpt lat="45.9542370" lon="7.1029936">
        <ele>1463.27</ele>
        <time>2019-09-08T10:56:57Z</time>
      </trkpt>
      <trkpt lat="45.9543251" lon="7.1030480">
        <ele>1462.94</ele>
        <time>2019-09-08T10:57:05Z</time>
      </trkpt>
      <trkpt lat="45.9544242" lon="7.1030994">
        <ele>1462.03</ele>
        <time>2019-09-08T10:57:13Z</time>
      </trkpt>
      <trkpt lat="45.9545264" lon="7.1031748">
        <ele>1461.94</ele>
        <time>2019-09-08T10:57:21Z</time>
      </trkpt>
      <trkpt lat="45.9546133" lon="7.1032447">
        <ele>1460.25</ele>
        <time>2019-09-08T10:57:29Z</time>
      </trkpt>
      <trkpt lat="45.9547016" lon="7.1033373">
        <ele>1459.94</ele>
        <time>2019-09-08T10:57:37Z</time>
      </trkpt>
      <trkpt lat="45.9547869" lon="7.1034296">
        <ele>1458.25</ele>
        <time>2019-09-08T10:57:45Z</time>
      </trkpt>
      <trkpt lat="45.9548795" lon="7.1035172">
        <ele>1457.94</ele>
        <time>2019-09-08T10:57:53Z</time>
      </trkpt>
      <trkpt lat="45.9549690" lon="7.1035967">
        <ele>1456.97</ele>
        <time>2019-09-08T10:58:01Z</time>
      </trkpt>
      <trkpt lat="45.9550698" lon="7.1036540">
        <ele>1456.94</ele>
        <time>2019-09-08T10:58:09Z</time>
      </trkpt>
      <trkpt lat="45.9551529" lon="7.1037637">
        <ele>1455.95</ele>
        <time>2019-09-08T10:58:17Z</time>
      </trkpt>
      <trkpt lat="45.9552454" lon="7.1038507">
        <ele>1455.94</ele>
        <time>2019-09-08T10:58:25Z</time>
      </trkpt>
      <trkpt lat="45.9553260" lon="7.1039404">
        <ele>1454.25</ele>
        <time>2019-09-08T10:58:33Z</time>
      </trkpt>
      <trkpt lat="45.9554081" lon="7.1040084">
        <ele>1453.94</ele>
        <time>2019-09-08T10:58:41Z</time>
      </trkpt>
      <trkpt lat="45.9554745" lon="7.1041091">
        <ele>1453.03</ele>
        <time>2019-09-08T10:58:47Z</time>
      </trkpt>
      <trkpt lat="45.9555526" lon="7.1042378">
        <ele>1452.01</ele>
        <time>2019-09-08T10:58:55Z</time>
      </trkpt>
      <trkpt lat="45.9556310" lon="7.1043403">
        <ele>1451.94</ele>
        <time>2019-09-08T10:59:03Z</time>
      </trkpt>
      <trkpt lat="45.9557244" lon="7.1044219">
        <ele>1451.94</ele>
        <time>2019-09-08T10:59:11Z</time>
      </trkpt>
      <trkpt lat="45.9557736" lon="7.1045310">
        <ele>1451.94</ele>
        <time>2019-09-08T10:59:17Z</time>
      </trkpt>
      <trkpt lat="45.9558469" lon="7.1046369">
        <ele>1451.24</ele>
        <time>2019-09-08T10:59:25Z</time>
      </trkpt>
      <trkpt lat="45.9559316" lon="7.1046942">
        <ele>1450.94</ele>
        <time>2019-09-08T10:59:33Z</time>
      </trkpt>
      <trkpt lat="45.9559982" lon="7.1048086">
        <ele>1450.94</ele>
        <time>2019-09-08T10:59:41Z</time>
      </trkpt>
      <trkpt lat="45.9560426" lon="7.1049234">
        <ele>1450.03</ele>
        <time>2019-09-08T10:59:47Z</time>
      </trkpt>
      <trkpt lat="45.9561224" lon="7.1050491">
        <ele>1448.97</ele>
        <time>2019-09-08T10:59:55Z</time>
      </trkpt>
      <trkpt lat="45.9562120" lon="7.1050832">
        <ele>1446.28</ele>
        <time>2019-09-08T11:00:03Z</time>
      </trkpt>
      <trkpt lat="45.9563066" lon="7.1051133">
        <ele>1446.71</ele>
        <time>2019-09-08T11:00:11Z</time>
      </trkpt>
      <trkpt lat="45.9563889" lon="7.1051802">
        <ele>1445.27</ele>
        <time>2019-09-08T11:00:19Z</time>
      </trkpt>
      <trkpt lat="45.9564878" lon="7.1052431">
        <ele>1444.03</ele>
        <time>2019-09-08T11:00:27Z</time>
      </trkpt>
      <trkpt lat="45.9565886" lon="7.1052816">
        <ele>1443.94</ele>
        <time>2019-09-08T11:00:35Z</time>
      </trkpt>
      <trkpt lat="45.9566986" lon="7.1052719">
        <ele>1444.85</ele>
        <time>2019-09-08T11:00:43Z</time>
      </trkpt>
      <trkpt lat="45.9567864" lon="7.1052367">
        <ele>1444.03</ele>
        <time>2019-09-08T11:00:49Z</time>
      </trkpt>
      <trkpt lat="45.9568904" lon="7.1052242">
        <ele>1443.94</ele>
        <time>2019-09-08T11:00:57Z</time>
      </trkpt>
      <trkpt lat="45.9570034" lon="7.1052138">
        <ele>1443.94</ele>
        <time>2019-09-08T11:01:05Z</time>
      </trkpt>
      <trkpt lat="45.9571133" lon="7.1052036">
        <ele>1443.24</ele>
        <time>2019-09-08T11:01:13Z</time>
      </trkpt>
      <trkpt lat="45.9572201" lon="7.1052074">
        <ele>1442.94</ele>
        <time>2019-09-08T11:01:21Z</time>
      </trkpt>
      <trkpt lat="45.9573152" lon="7.1051993">
        <ele>1442.94</ele>
        <time>2019-09-08T11:01:27Z</time>
      </trkpt>
      <trkpt lat="45.9574076" lon="7.1052614">
        <ele>1441.95</ele>
        <time>2019-09-08T11:01:37Z</time>
      </trkpt>
      <trkpt lat="45.9574984" lon="7.1053350">
        <ele>1441.94</ele>
        <time>2019-09-08T11:01:45Z</time>
      </trkpt>
      <trkpt lat="45.9575844" lon="7.1053945">
        <ele>1441.24</ele>
        <time>2019-09-08T11:01:51Z</time>
      </trkpt>
      <trkpt lat="45.9576343" lon="7.1055212">
        <ele>1440.03</ele>
        <time>2019-09-08T11:01:59Z</time>
      </trkpt>
      <trkpt lat="45.9577410" lon="7.1056067">
        <ele>1439.24</ele>
        <time>2019-09-08T11:02:07Z</time>
      </trkpt>
      <trkpt lat="45.9578164" lon="7.1056835">
        <ele>1438.04</ele>
        <time>2019-09-08T11:02:13Z</time>
      </trkpt>
      <trkpt lat="45.9579176" lon="7.1057410">
        <ele>1437.03</ele>
        <time>2019-09-08T11:02:21Z</time>
      </trkpt>
      <trkpt lat="45.9579895" lon="7.1058509">
        <ele>1436.24</ele>
        <time>2019-09-08T11:02:29Z</time>
      </trkpt>
      <trkpt lat="45.9580752" lon="7.1059306">
        <ele>1435.96</ele>
        <time>2019-09-08T11:02:37Z</time>
      </trkpt>
      <trkpt lat="45.9581793" lon="7.1059935">
        <ele>1434.97</ele>
        <time>2019-09-08T11:02:45Z</time>
      </trkpt>
      <trkpt lat="45.9582692" lon="7.1060835">
        <ele>1433.25</ele>
        <time>2019-09-08T11:02:53Z</time>
      </trkpt>
      <trkpt lat="45.9583666" lon="7.1061354">
        <ele>1432.96</ele>
        <time>2019-09-08T11:03:01Z</time>
      </trkpt>
      <trkpt lat="45.9584671" lon="7.1061426">
        <ele>1433.85</ele>
        <time>2019-09-08T11:03:09Z</time>
      </trkpt>
      <trkpt lat="45.9585618" lon="7.1061636">
        <ele>1433.24</ele>
        <time>2019-09-08T11:03:15Z</time>
      </trkpt>
      <trkpt lat="45.9586540" lon="7.1062140">
        <ele>1432.25</ele>
        <time>2019-09-08T11:03:21Z</time>
      </trkpt>
      <trkpt lat="45.9587591" lon="7.1062596">
        <ele>1431.30</ele>
        <time>2019-09-08T11:03:31Z</time>
      </trkpt>
      <trkpt lat="45.9588470" lon="7.1063369">
        <ele>1429.27</ele>
        <time>2019-09-08T11:03:39Z</time>
      </trkpt>
      <trkpt lat="45.9589249" lon="7.1064270">
        <ele>1428.03</ele>
        <time>2019-09-08T11:03:47Z</time>
      </trkpt>
      <trkpt lat="45.9589621" lon="7.1065819">
        <ele>1427.94</ele>
        <time>2019-09-08T11:03:55Z</time>
      </trkpt>
      <trkpt lat="45.9589886" lon="7.1067381">
        <ele>1426.97</ele>
        <time>2019-09-08T11:04:03Z</time>
      </trkpt>
      <trkpt lat="45.9590330" lon="7.1068815">
        <ele>1426.24</ele>
        <time>2019-09-08T11:04:11Z</time>
      </trkpt>
      <trkpt lat="45.9590772" lon="7.1069978">
        <ele>1425.25</ele>
        <time>2019-09-08T11:04:17Z</time>
      </trkpt>
      <trkpt lat="45.9591385" lon="7.1071359">
        <ele>1424.03</ele>
        <time>2019-09-08T11:04:25Z</time>
      </trkpt>
      <trkpt lat="45.9592135" lon="7.1072558">
        <ele>1419.45</ele>
        <time>2019-09-08T11:04:33Z</time>
      </trkpt>
      <trkpt lat="45.9592927" lon="7.1073651">
        <ele>1420.91</ele>
        <time>2019-09-08T11:04:41Z</time>
      </trkpt>
      <trkpt lat="45.9593452" lon="7.1074917">
        <ele>1419.95</ele>
        <time>2019-09-08T11:04:49Z</time>
      </trkpt>
      <trkpt lat="45.9594014" lon="7.1076195">
        <ele>1418.95</ele>
        <time>2019-09-08T11:04:57Z</time>
      </trkpt>
      <trkpt lat="45.9594783" lon="7.1077281">
        <ele>1417.25</ele>
        <time>2019-09-08T11:05:05Z</time>
      </trkpt>
      <trkpt lat="45.9595261" lon="7.1078574">
        <ele>1416.95</ele>
        <time>2019-09-08T11:05:11Z</time>
      </trkpt>
      <trkpt lat="45.9595669" lon="7.1079890">
        <ele>1414.34</ele>
        <time>2019-09-08T11:05:19Z</time>
      </trkpt>
      <trkpt lat="45.9596214" lon="7.1081210">
        <ele>1413.04</ele>
        <time>2019-09-08T11:05:27Z</time>
      </trkpt>
      <trkpt lat="45.9596603" lon="7.1082532">
        <ele>1411.33</ele>
        <time>2019-09-08T11:05:35Z</time>
      </trkpt>
      <trkpt lat="45.9597382" lon="7.1083666">
        <ele>1409.27</ele>
        <time>2019-09-08T11:05:45Z</time>
      </trkpt>
      <trkpt lat="45.9598177" lon="7.1084877">
        <ele>1407.25</ele>
        <time>2019-09-08T11:05:53Z</time>
      </trkpt>
      <trkpt lat="45.9599138" lon="7.1085615">
        <ele>1405.33</ele>
        <time>2019-09-08T11:06:01Z</time>
      </trkpt>
      <trkpt lat="45.9600179" lon="7.1086310">
        <ele>1405.92</ele>
        <time>2019-09-08T11:06:09Z</time>
      </trkpt>
      <trkpt lat="45.9601217" lon="7.1086784">
        <ele>1405.03</ele>
        <time>2019-09-08T11:06:17Z</time>
      </trkpt>
      <trkpt lat="45.9602176" lon="7.1087222">
        <ele>1405.01</ele>
        <time>2019-09-08T11:06:25Z</time>
      </trkpt>
      <trkpt lat="45.9603223" lon="7.1087432">
        <ele>1404.03</ele>
        <time>2019-09-08T11:06:31Z</time>
      </trkpt>
      <trkpt lat="45.9604180" lon="7.1088107">
        <ele>1403.94</ele>
        <time>2019-09-08T11:06:39Z</time>
      </trkpt>
      <trkpt lat="45.9605081" lon="7.1088864">
        <ele>1401.06</ele>
        <time>2019-09-08T11:06:49Z</time>
      </trkpt>
      <trkpt lat="45.9606101" lon="7.1088704">
        <ele>1399.97</ele>
        <time>2019-09-08T11:06:57Z</time>
      </trkpt>
      <trkpt lat="45.9607080" lon="7.1089040">
        <ele>1399.24</ele>
        <time>2019-09-08T11:07:05Z</time>
      </trkpt>
      <trkpt lat="45.9608210" lon="7.1088701">
        <ele>1397.97</ele>
        <time>2019-09-08T11:07:13Z</time>
      </trkpt>
      <trkpt lat="45.9609257" lon="7.1088094">
        <ele>1397.01</ele>
        <time>2019-09-08T11:07:21Z</time>
      </trkpt>
      <trkpt lat="45.9610327" lon="7.1087909">
        <ele>1396.94</ele>
        <time>2019-09-08T11:07:29Z</time>
      </trkpt>
      <trkpt lat="45.9611398" lon="7.1087629">
        <ele>1396.94</ele>
        <time>2019-09-08T11:07:37Z</time>
      </trkpt>
      <trkpt lat="45.9612386" lon="7.1087027">
        <ele>1395.95</ele>
        <time>2019-09-08T11:07:45Z</time>
      </trkpt>
      <trkpt lat="45.9613428" lon="7.1086609">
        <ele>1395.94</ele>
        <time>2019-09-08T11:07:53Z</time>
      </trkpt>
      <trkpt lat="45.9614389" lon="7.1086572">
        <ele>1394.97</ele>
        <time>2019-09-08T11:08:01Z</time>
      </trkpt>
      <trkpt lat="45.9615492" lon="7.1086494">
        <ele>1393.95</ele>
        <time>2019-09-08T11:08:09Z</time>
      </trkpt>
      <trkpt lat="45.9616530" lon="7.1086822">
        <ele>1393.16</ele>
        <time>2019-09-08T11:08:19Z</time>
      </trkpt>
      <trkpt lat="45.9617517" lon="7.1087186">
        <ele>1392.24</ele>
        <time>2019-09-08T11:08:27Z</time>
      </trkpt>
      <trkpt lat="45.9618681" lon="7.1087328">
        <ele>1391.94</ele>
        <time>2019-09-08T11:08:35Z</time>
      </trkpt>
      <trkpt lat="45.9619636" lon="7.1087212">
        <ele>1390.27</ele>
        <time>2019-09-08T11:08:43Z</time>
      </trkpt>
      <trkpt lat="45.9620708" lon="7.1086670">
        <ele>1389.03</ele>
        <time>2019-09-08T11:08:53Z</time>
      </trkpt>
      <trkpt lat="45.9621612" lon="7.1086389">
        <ele>1388.94</ele>
        <time>2019-09-08T11:08:59Z</time>
      </trkpt>
      <trkpt lat="45.9622548" lon="7.1086223">
        <ele>1388.03</ele>
        <time>2019-09-08T11:09:05Z</time>
      </trkpt>
      <trkpt lat="45.9623509" lon="7.1085834">
        <ele>1387.94</ele>
        <time>2019-09-08T11:09:11Z</time>
      </trkpt>
      <trkpt lat="45.9624623" lon="7.1085321">
        <ele>1387.94</ele>
        <time>2019-09-08T11:09:19Z</time>
      </trkpt>
      <trkpt lat="45.9625446" lon="7.1084710">
        <ele>1386.97</ele>
        <time>2019-09-08T11:09:25Z</time>
      </trkpt>
      <trkpt lat="45.9626435" lon="7.1084248">
        <ele>1387.85</ele>
        <time>2019-09-08T11:09:33Z</time>
      </trkpt>
      <trkpt lat="45.9627389" lon="7.1084488">
        <ele>1387.16</ele>
        <time>2019-09-08T11:09:41Z</time>
      </trkpt>
      <trkpt lat="45.9628330" lon="7.1083982">
        <ele>1387.92</ele>
        <time>2019-09-08T11:09:49Z</time>
      </trkpt>
      <trkpt lat="45.9629196" lon="7.1083445">
        <ele>1388.85</ele>
        <time>2019-09-08T11:09:55Z</time>
      </trkpt>
      <trkpt lat="45.9630081" lon="7.1082765">
        <ele>1388.94</ele>
        <time>2019-09-08T11:10:03Z</time>
      </trkpt>
      <trkpt lat="45.9631105" lon="7.1083035">
        <ele>1388.94</ele>
        <time>2019-09-08T11:10:13Z</time>
      </trkpt>
      <trkpt lat="45.9631993" lon="7.1083531">
        <ele>1388.24</ele>
        <time>2019-09-08T11:10:23Z</time>
      </trkpt>
      <trkpt lat="45.9633029" lon="7.1083055">
        <ele>1388.66</ele>
        <time>2019-09-08T11:10:31Z</time>
      </trkpt>
      <trkpt lat="45.9634033" lon="7.1082418">
        <ele>1389.70</ele>
        <time>2019-09-08T11:10:39Z</time>
      </trkpt>
      <trkpt lat="45.9634940" lon="7.1082198">
        <ele>1389.94</ele>
        <time>2019-09-08T11:10:45Z</time>
      </trkpt>
      <trkpt lat="45.9635872" lon="7.1082050">
        <ele>1390.64</ele>
        <time>2019-09-08T11:10:53Z</time>
      </trkpt>
      <trkpt lat="45.9636899" lon="7.1082867">
        <ele>1390.94</ele>
        <time>2019-09-08T11:11:03Z</time>
      </trkpt>
      <trkpt lat="45.9638008" lon="7.1083151">
        <ele>1390.67</ele>
        <time>2019-09-08T11:11:13Z</time>
      </trkpt>
      <trkpt lat="45.9638986" lon="7.1083352">
        <ele>1390.94</ele>
        <time>2019-09-08T11:11:21Z</time>
      </trkpt>
      <trkpt lat="45.9639937" lon="7.1083287">
        <ele>1390.96</ele>
        <time>2019-09-08T11:11:29Z</time>
      </trkpt>
      <trkpt lat="45.9641122" lon="7.1083681">
        <ele>1390.03</ele>
        <time>2019-09-08T11:11:37Z</time>
      </trkpt>
      <trkpt lat="45.9642182" lon="7.1084094">
        <ele>1389.94</ele>
        <time>2019-09-08T11:11:45Z</time>
      </trkpt>
      <trkpt lat="45.9643160" lon="7.1084423">
        <ele>1388.95</ele>
        <time>2019-09-08T11:11:53Z</time>
      </trkpt>
      <trkpt lat="45.9644184" lon="7.1084488">
        <ele>1388.94</ele>
        <time>2019-09-08T11:12:01Z</time>
      </trkpt>
      <trkpt lat="45.9645226" lon="7.1084801">
        <ele>1389.64</ele>
        <time>2019-09-08T11:12:09Z</time>
      </trkpt>
      <trkpt lat="45.9646412" lon="7.1084946">
        <ele>1390.64</ele>
        <time>2019-09-08T11:12:17Z</time>
      </trkpt>
      <trkpt lat="45.9647443" lon="7.1085259">
        <ele>1389.05</ele>
        <time>2019-09-08T11:12:23Z</time>
      </trkpt>
      <trkpt lat="45.9648359" lon="7.1085354">
        <ele>1389.01</ele>
        <time>2019-09-08T11:12:29Z</time>
      </trkpt>
      <trkpt lat="45.9649215" lon="7.1084386">
        <ele>1385.64</ele>
        <time>2019-09-08T11:12:37Z</time>
      </trkpt>
      <trkpt lat="45.9650125" lon="7.1083412">
        <ele>1385.45</ele>
        <time>2019-09-08T11:12:43Z</time>
      </trkpt>
      <trkpt lat="45.9651027" lon="7.1083247">
        <ele>1384.57</ele>
        <time>2019-09-08T11:12:47Z</time>
      </trkpt>
      <trkpt lat="45.9651930" lon="7.1083655">
        <ele>1382.64</ele>
        <time>2019-09-08T11:12:57Z</time>
      </trkpt>
      <trkpt lat="45.9652921" lon="7.1084037">
        <ele>1386.86</ele>
        <time>2019-09-08T11:13:05Z</time>
      </trkpt>
      <trkpt lat="45.9653739" lon="7.1083272">
        <ele>1385.94</ele>
        <time>2019-09-08T11:13:15Z</time>
      </trkpt>
      <trkpt lat="45.9653908" lon="7.1081880">
        <ele>1380.78</ele>
        <time>2019-09-08T11:13:21Z</time>
      </trkpt>
      <trkpt lat="45.9655089" lon="7.1081878">
        <ele>1375.98</ele>
        <time>2019-09-08T11:13:35Z</time>
      </trkpt>
      <trkpt lat="45.9655894" lon="7.1080994">
        <ele>1376.84</ele>
        <time>2019-09-08T11:13:49Z</time>
      </trkpt>
      <trkpt lat="45.9656840" lon="7.1081447">
        <ele>1380.56</ele>
        <time>2019-09-08T11:13:57Z</time>
      </trkpt>
      <trkpt lat="45.9657723" lon="7.1082189">
        <ele>1381.75</ele>
        <time>2019-09-08T11:14:09Z</time>
      </trkpt>
      <trkpt lat="45.9658772" lon="7.1082508">
        <ele>1381.94</ele>
        <time>2019-09-08T11:14:21Z</time>
      </trkpt>
      <trkpt lat="45.9659600" lon="7.1083066">
        <ele>1383.55</ele>
        <time>2019-09-08T11:14:29Z</time>
      </trkpt>
      <trkpt lat="45.9660492" lon="7.1082824">
        <ele>1384.64</ele>
        <time>2019-09-08T11:14:37Z</time>
      </trkpt>
      <trkpt lat="45.9661422" lon="7.1083389">
        <ele>1385.93</ele>
        <time>2019-09-08T11:14:45Z</time>
      </trkpt>
      <trkpt lat="45.9662217" lon="7.1084017">
        <ele>1384.06</ele>
        <time>2019-09-08T11:14:55Z</time>
      </trkpt>
      <trkpt lat="45.9662904" lon="7.1085042">
        <ele>1384.23</ele>
        <time>2019-09-08T11:15:05Z</time>
      </trkpt>
      <trkpt lat="45.9663528" lon="7.1085996">
        <ele>1384.85</ele>
        <time>2019-09-08T11:15:13Z</time>
      </trkpt>
      <trkpt lat="45.9664057" lon="7.1087389">
        <ele>1384.67</ele>
        <time>2019-09-08T11:15:25Z</time>
      </trkpt>
      <trkpt lat="45.9664724" lon="7.1088732">
        <ele>1384.24</ele>
        <time>2019-09-08T11:15:37Z</time>
      </trkpt>
      <trkpt lat="45.9665648" lon="7.1089084">
        <ele>1384.85</ele>
        <time>2019-09-08T11:15:45Z</time>
      </trkpt>
      <trkpt lat="45.9666647" lon="7.1089191">
        <ele>1386.82</ele>
        <time>2019-09-08T11:15:53Z</time>
      </trkpt>
      <trkpt lat="45.9667503" lon="7.1090004">
        <ele>1386.94</ele>
        <time>2019-09-08T11:16:03Z</time>
      </trkpt>
      <trkpt lat="45.9668405" lon="7.1089928">
        <ele>1386.94</ele>
        <time>2019-09-08T11:16:17Z</time>
      </trkpt>
      <trkpt lat="45.9669404" lon="7.1089445">
        <ele>1386.94</ele>
        <time>2019-09-08T11:16:29Z</time>
      </trkpt>
      <trkpt lat="45.9670295" lon="7.1090195">
        <ele>1388.91</ele>
        <time>2019-09-08T11:16:39Z</time>
      </trkpt>
      <trkpt lat="45.9670849" lon="7.1091399">
        <ele>1388.94</ele>
        <time>2019-09-08T11:16:53Z</time>
      </trkpt>
      <trkpt lat="45.9671729" lon="7.1091855">
        <ele>1391.62</ele>
        <time>2019-09-08T11:17:03Z</time>
      </trkpt>
      <trkpt lat="45.9672675" lon="7.1091924">
        <ele>1392.93</ele>
        <time>2019-09-08T11:17:15Z</time>
      </trkpt>
      <trkpt lat="45.9673584" lon="7.1092356">
        <ele>1392.94</ele>
        <time>2019-09-08T11:17:29Z</time>
      </trkpt>
      <trkpt lat="45.9674533" lon="7.1092850">
        <ele>1393.94</ele>
        <time>2019-09-08T11:17:41Z</time>
      </trkpt>
      <trkpt lat="45.9675502" lon="7.1093207">
        <ele>1394.93</ele>
        <time>2019-09-08T11:17:51Z</time>
      </trkpt>
      <trkpt lat="45.9676407" lon="7.1093730">
        <ele>1397.61</ele>
        <time>2019-09-08T11:18:01Z</time>
      </trkpt>
      <trkpt lat="45.9677390" lon="7.1093848">
        <ele>1398.85</ele>
        <time>2019-09-08T11:18:13Z</time>
      </trkpt>
      <trkpt lat="45.9678385" lon="7.1093942">
        <ele>1399.91</ele>
        <time>2019-09-08T11:18:25Z</time>
      </trkpt>
      <trkpt lat="45.9679420" lon="7.1094123">
        <ele>1399.94</ele>
        <time>2019-09-08T11:18:35Z</time>
      </trkpt>
      <trkpt lat="45.9680431" lon="7.1093416">
        <ele>1399.94</ele>
        <time>2019-09-08T11:18:43Z</time>
      </trkpt>
      <trkpt lat="45.9681380" lon="7.1093248">
        <ele>1401.91</ele>
        <time>2019-09-08T11:18:55Z</time>
      </trkpt>
      <trkpt lat="45.9682303" lon="7.1092737">
        <ele>1403.52</ele>
        <time>2019-09-08T11:19:07Z</time>
      </trkpt>
      <trkpt lat="45.9683203" lon="7.1092483">
        <ele>1403.94</ele>
        <time>2019-09-08T11:19:19Z</time>
      </trkpt>
      <trkpt lat="45.9684147" lon="7.1092435">
        <ele>1404.94</ele>
        <time>2019-09-08T11:19:33Z</time>
      </trkpt>
      <trkpt lat="45.9685037" lon="7.1092630">
        <ele>1406.64</ele>
        <time>2019-09-08T11:19:45Z</time>
      </trkpt>
      <trkpt lat="45.9684135" lon="7.1092869">
        <ele>1410.64</ele>
        <time>2019-09-08T11:21:55Z</time>
      </trkpt>
      <trkpt lat="45.9684941" lon="7.1093613">
        <ele>1410.09</ele>
        <time>2019-09-08T11:26:55Z</time>
      </trkpt>
      <trkpt lat="45.9685844" lon="7.1093882">
        <ele>1409.92</ele>
        <time>2019-09-08T11:27:03Z</time>
      </trkpt>
      <trkpt lat="45.9686887" lon="7.1094108">
        <ele>1411.53</ele>
        <time>2019-09-08T11:27:15Z</time>
      </trkpt>
      <trkpt lat="45.9687889" lon="7.1094417">
        <ele>1413.82</ele>
        <time>2019-09-08T11:27:25Z</time>
      </trkpt>
      <trkpt lat="45.9688892" lon="7.1093893">
        <ele>1415.34</ele>
        <time>2019-09-08T11:27:33Z</time>
      </trkpt>
      <trkpt lat="45.9689923" lon="7.1093750">
        <ele>1414.06</ele>
        <time>2019-09-08T11:27:43Z</time>
      </trkpt>
      <trkpt lat="45.9690974" lon="7.1093490">
        <ele>1413.18</ele>
        <time>2019-09-08T11:27:53Z</time>
      </trkpt>
      <trkpt lat="45.9691681" lon="7.1092620">
        <ele>1412.94</ele>
        <time>2019-09-08T11:28:01Z</time>
      </trkpt>
      <trkpt lat="45.9692661" lon="7.1091882">
        <ele>1412.94</ele>
        <time>2019-09-08T11:28:11Z</time>
      </trkpt>
      <trkpt lat="45.9693660" lon="7.1092180">
        <ele>1412.73</ele>
        <time>2019-09-08T11:28:21Z</time>
      </trkpt>
      <trkpt lat="45.9694379" lon="7.1093192">
        <ele>1412.24</ele>
        <time>2019-09-08T11:28:29Z</time>
      </trkpt>
      <trkpt lat="45.9695272" lon="7.1093684">
        <ele>1412.15</ele>
        <time>2019-09-08T11:28:41Z</time>
      </trkpt>
      <trkpt lat="45.9696176" lon="7.1094318">
        <ele>1411.64</ele>
        <time>2019-09-08T11:28:53Z</time>
      </trkpt>
      <trkpt lat="45.9697049" lon="7.1094973">
        <ele>1411.94</ele>
        <time>2019-09-08T11:29:03Z</time>
      </trkpt>
      <trkpt lat="45.9698025" lon="7.1095121">
        <ele>1410.06</ele>
        <time>2019-09-08T11:29:11Z</time>
      </trkpt>
      <trkpt lat="45.9699033" lon="7.1095237">
        <ele>1409.94</ele>
        <time>2019-09-08T11:29:19Z</time>
      </trkpt>
      <trkpt lat="45.9700017" lon="7.1095885">
        <ele>1408.97</ele>
        <time>2019-09-08T11:29:29Z</time>
      </trkpt>
      <trkpt lat="45.9700889" lon="7.1096281">
        <ele>1407.25</ele>
        <time>2019-09-08T11:29:37Z</time>
      </trkpt>
      <trkpt lat="45.9701865" lon="7.1096015">
        <ele>1406.94</ele>
        <time>2019-09-08T11:29:45Z</time>
      </trkpt>
      <trkpt lat="45.9702683" lon="7.1096788">
        <ele>1406.03</ele>
        <time>2019-09-08T11:29:53Z</time>
      </trkpt>
      <trkpt lat="45.9703759" lon="7.1096782">
        <ele>1404.03</ele>
        <time>2019-09-08T11:30:03Z</time>
      </trkpt>
      <trkpt lat="45.9704652" lon="7.1096612">
        <ele>1402.25</ele>
        <time>2019-09-08T11:30:11Z</time>
      </trkpt>
      <trkpt lat="45.9705629" lon="7.1095831">
        <ele>1398.39</ele>
        <time>2019-09-08T11:30:19Z</time>
      </trkpt>
      <trkpt lat="45.9706462" lon="7.1095032">
        <ele>1394.58</ele>
        <time>2019-09-08T11:30:27Z</time>
      </trkpt>
      <trkpt lat="45.9707126" lon="7.1094047">
        <ele>1392.27</ele>
        <time>2019-09-08T11:30:35Z</time>
      </trkpt>
      <trkpt lat="45.9707791" lon="7.1095001">
        <ele>1388.30</ele>
        <time>2019-09-08T11:30:47Z</time>
      </trkpt>
      <trkpt lat="45.9708346" lon="7.1096092">
        <ele>1387.03</ele>
        <time>2019-09-08T11:30:57Z</time>
      </trkpt>
      <trkpt lat="45.9708356" lon="7.1097492">
        <ele>1387.02</ele>
        <time>2019-09-08T11:31:05Z</time>
      </trkpt>
      <trkpt lat="45.9708664" lon="7.1099034">
        <ele>1385.97</ele>
        <time>2019-09-08T11:31:15Z</time>
      </trkpt>
      <trkpt lat="45.9709319" lon="7.1099998">
        <ele>1386.92</ele>
        <time>2019-09-08T11:31:23Z</time>
      </trkpt>
      <trkpt lat="45.9710010" lon="7.1101115">
        <ele>1386.94</ele>
        <time>2019-09-08T11:31:33Z</time>
      </trkpt>
      <trkpt lat="45.9709008" lon="7.1101561">
        <ele>1383.24</ele>
        <time>2019-09-08T11:32:09Z</time>
      </trkpt>
      <trkpt lat="45.9709101" lon="7.1102913">
        <ele>1379.06</ele>
        <time>2019-09-08T11:32:21Z</time>
      </trkpt>
      <trkpt lat="45.9709910" lon="7.1103636">
        <ele>1378.33</ele>
        <time>2019-09-08T11:32:31Z</time>
      </trkpt>
      <trkpt lat="45.9709036" lon="7.1104116">
        <ele>1375.34</ele>
        <time>2019-09-08T11:32:39Z</time>
      </trkpt>
      <trkpt lat="45.9709100" lon="7.1105627">
        <ele>1369.80</ele>
        <time>2019-09-08T11:32:53Z</time>
      </trkpt>
      <trkpt lat="45.9710104" lon="7.1105514">
        <ele>1372.30</ele>
        <time>2019-09-08T11:33:01Z</time>
      </trkpt>
      <trkpt lat="45.9711077" lon="7.1105265">
        <ele>1370.23</ele>
        <time>2019-09-08T11:33:09Z</time>
      </trkpt>
      <trkpt lat="45.9711195" lon="7.1106566">
        <ele>1360.66</ele>
        <time>2019-09-08T11:33:25Z</time>
      </trkpt>
      <trkpt lat="45.9711674" lon="7.1107744">
        <ele>1354.78</ele>
        <time>2019-09-08T11:33:33Z</time>
      </trkpt>
      <trkpt lat="45.9712646" lon="7.1108493">
        <ele>1352.25</ele>
        <time>2019-09-08T11:33:43Z</time>
      </trkpt>
      <trkpt lat="45.9713351" lon="7.1109399">
        <ele>1352.03</ele>
        <time>2019-09-08T11:33:51Z</time>
      </trkpt>
      <trkpt lat="45.9713998" lon="7.1110413">
        <ele>1346.52</ele>
        <time>2019-09-08T11:34:01Z</time>
      </trkpt>
      <trkpt lat="45.9714628" lon="7.1111490">
        <ele>1345.10</ele>
        <time>2019-09-08T11:34:11Z</time>
      </trkpt>
      <trkpt lat="45.9715231" lon="7.1112658">
        <ele>1338.65</ele>
        <time>2019-09-08T11:34:25Z</time>
      </trkpt>
      <trkpt lat="45.9715829" lon="7.1113871">
        <ele>1335.11</ele>
        <time>2019-09-08T11:34:31Z</time>
      </trkpt>
      <trkpt lat="45.9716456" lon="7.1115166">
        <ele>1329.06</ele>
        <time>2019-09-08T11:34:39Z</time>
      </trkpt>
      <trkpt lat="45.9717406" lon="7.1115193">
        <ele>1330.83</ele>
        <time>2019-09-08T11:34:47Z</time>
      </trkpt>
      <trkpt lat="45.9718319" lon="7.1114524">
        <ele>1332.88</ele>
        <time>2019-09-08T11:34:53Z</time>
      </trkpt>
      <trkpt lat="45.9719329" lon="7.1115260">
        <ele>1332.10</ele>
        <time>2019-09-08T11:35:01Z</time>
      </trkpt>
      <trkpt lat="45.9720054" lon="7.1116262">
        <ele>1329.33</ele>
        <time>2019-09-08T11:35:11Z</time>
      </trkpt>
      <trkpt lat="45.9721024" lon="7.1115991">
        <ele>1330.17</ele>
        <time>2019-09-08T11:35:19Z</time>
      </trkpt>
      <trkpt lat="45.9721991" lon="7.1116132">
        <ele>1329.94</ele>
        <time>2019-09-08T11:35:27Z</time>
      </trkpt>
      <trkpt lat="45.9722913" lon="7.1116737">
        <ele>1329.03</ele>
        <time>2019-09-08T11:35:37Z</time>
      </trkpt>
      <trkpt lat="45.9723816" lon="7.1116629">
        <ele>1328.94</ele>
        <time>2019-09-08T11:35:45Z</time>
      </trkpt>
      <trkpt lat="45.9724774" lon="7.1116208">
        <ele>1327.97</ele>
        <time>2019-09-08T11:35:57Z</time>
      </trkpt>
      <trkpt lat="45.9725721" lon="7.1116780">
        <ele>1328.01</ele>
        <time>2019-09-08T11:36:07Z</time>
      </trkpt>
      <trkpt lat="45.9726700" lon="7.1117359">
        <ele>1327.96</ele>
        <time>2019-09-08T11:36:17Z</time>
      </trkpt>
      <trkpt lat="45.9727529" lon="7.1117876">
        <ele>1329.27</ele>
        <time>2019-09-08T11:36:25Z</time>
      </trkpt>
      <trkpt lat="45.9728139" lon="7.1118977">
        <ele>1325.94</ele>
        <time>2019-09-08T11:36:43Z</time>
      </trkpt>
      <trkpt lat="45.9729139" lon="7.1119762">
        <ele>1326.64</ele>
        <time>2019-09-08T11:36:51Z</time>
      </trkpt>
      <trkpt lat="45.9730000" lon="7.1120274">
        <ele>1326.65</ele>
        <time>2019-09-08T11:36:59Z</time>
      </trkpt>
      <trkpt lat="45.9730950" lon="7.1120497">
        <ele>1325.04</ele>
        <time>2019-09-08T11:37:07Z</time>
      </trkpt>
      <trkpt lat="45.9732018" lon="7.1120634">
        <ele>1325.01</ele>
        <time>2019-09-08T11:37:15Z</time>
      </trkpt>
      <trkpt lat="45.9733028" lon="7.1120631">
        <ele>1324.94</ele>
        <time>2019-09-08T11:37:25Z</time>
      </trkpt>
      <trkpt lat="45.9734026" lon="7.1121122">
        <ele>1324.94</ele>
        <time>2019-09-08T11:37:33Z</time>
      </trkpt>
      <trkpt lat="45.9735007" lon="7.1121257">
        <ele>1324.94</ele>
        <time>2019-09-08T11:37:41Z</time>
      </trkpt>
      <trkpt lat="45.9736116" lon="7.1120826">
        <ele>1325.65</ele>
        <time>2019-09-08T11:37:51Z</time>
      </trkpt>
      <trkpt lat="45.9737037" lon="7.1120755">
        <ele>1325.23</ele>
        <time>2019-09-08T11:37:57Z</time>
      </trkpt>
      <trkpt lat="45.9738102" lon="7.1120643">
        <ele>1324.03</ele>
        <time>2019-09-08T11:38:05Z</time>
      </trkpt>
      <trkpt lat="45.9739159" lon="7.1120667">
        <ele>1323.03</ele>
        <time>2019-09-08T11:38:15Z</time>
      </trkpt>
      <trkpt lat="45.9739930" lon="7.1119921">
        <ele>1322.88</ele>
        <time>2019-09-08T11:38:23Z</time>
      </trkpt>
      <trkpt lat="45.9740845" lon="7.1119388">
        <ele>1322.94</ele>
        <time>2019-09-08T11:38:31Z</time>
      </trkpt>
      <trkpt lat="45.9741984" lon="7.1119455">
        <ele>1323.85</ele>
        <time>2019-09-08T11:38:41Z</time>
      </trkpt>
      <trkpt lat="45.9742882" lon="7.1119740">
        <ele>1322.97</ele>
        <time>2019-09-08T11:38:47Z</time>
      </trkpt>
      <trkpt lat="45.9743841" lon="7.1120321">
        <ele>1322.94</ele>
        <time>2019-09-08T11:38:55Z</time>
      </trkpt>
      <trkpt lat="45.9744771" lon="7.1120843">
        <ele>1322.24</ele>
        <time>2019-09-08T11:39:03Z</time>
      </trkpt>
      <trkpt lat="45.9745830" lon="7.1121380">
        <ele>1322.24</ele>
        <time>2019-09-08T11:39:11Z</time>
      </trkpt>
      <trkpt lat="45.9746803" lon="7.1121921">
        <ele>1321.94</ele>
        <time>2019-09-08T11:39:19Z</time>
      </trkpt>
      <trkpt lat="45.9747732" lon="7.1122436">
        <ele>1322.92</ele>
        <time>2019-09-08T11:39:29Z</time>
      </trkpt>
      <trkpt lat="45.9748816" lon="7.1122490">
        <ele>1322.94</ele>
        <time>2019-09-08T11:39:37Z</time>
      </trkpt>
      <trkpt lat="45.9749779" lon="7.1123351">
        <ele>1322.94</ele>
        <time>2019-09-08T11:39:45Z</time>
      </trkpt>
      <trkpt lat="45.9750639" lon="7.1124032">
        <ele>1323.64</ele>
        <time>2019-09-08T11:39:53Z</time>
      </trkpt>
      <trkpt lat="45.9751677" lon="7.1124419">
        <ele>1323.94</ele>
        <time>2019-09-08T11:40:01Z</time>
      </trkpt>
      <trkpt lat="45.9752181" lon="7.1125504">
        <ele>1323.03</ele>
        <time>2019-09-08T11:40:09Z</time>
      </trkpt>
      <trkpt lat="45.9753044" lon="7.1126227">
        <ele>1322.03</ele>
        <time>2019-09-08T11:40:17Z</time>
      </trkpt>
      <trkpt lat="45.9754041" lon="7.1126628">
        <ele>1321.94</ele>
        <time>2019-09-08T11:40:25Z</time>
      </trkpt>
      <trkpt lat="45.9755066" lon="7.1126788">
        <ele>1321.94</ele>
        <time>2019-09-08T11:40:35Z</time>
      </trkpt>
      <trkpt lat="45.9756158" lon="7.1126428">
        <ele>1321.94</ele>
        <time>2019-09-08T11:40:43Z</time>
      </trkpt>
      <trkpt lat="45.9757236" lon="7.1126202">
        <ele>1321.94</ele>
        <time>2019-09-08T11:40:51Z</time>
      </trkpt>
      <trkpt lat="45.9757961" lon="7.1127318">
        <ele>1321.94</ele>
        <time>2019-09-08T11:40:59Z</time>
      </trkpt>
      <trkpt lat="45.9758855" lon="7.1128184">
        <ele>1319.97</ele>
        <time>2019-09-08T11:41:09Z</time>
      </trkpt>
      <trkpt lat="45.9759776" lon="7.1128590">
        <ele>1318.97</ele>
        <time>2019-09-08T11:41:17Z</time>
      </trkpt>
      <trkpt lat="45.9760733" lon="7.1128205">
        <ele>1316.97</ele>
        <time>2019-09-08T11:41:27Z</time>
      </trkpt>
      <trkpt lat="45.9761856" lon="7.1128724">
        <ele>1316.27</ele>
        <time>2019-09-08T11:41:37Z</time>
      </trkpt>
      <trkpt lat="45.9762638" lon="7.1129518">
        <ele>1315.74</ele>
        <time>2019-09-08T11:41:43Z</time>
      </trkpt>
      <trkpt lat="45.9763595" lon="7.1130254">
        <ele>1313.89</ele>
        <time>2019-09-08T11:41:53Z</time>
      </trkpt>
      <trkpt lat="45.9764284" lon="7.1131192">
        <ele>1312.94</ele>
        <time>2019-09-08T11:42:03Z</time>
      </trkpt>
      <trkpt lat="45.9764951" lon="7.1132409">
        <ele>1312.94</ele>
        <time>2019-09-08T11:42:11Z</time>
      </trkpt>
      <trkpt lat="45.9765707" lon="7.1133145">
        <ele>1312.94</ele>
        <time>2019-09-08T11:42:17Z</time>
      </trkpt>
      <trkpt lat="45.9766502" lon="7.1133904">
        <ele>1312.94</ele>
        <time>2019-09-08T11:42:25Z</time>
      </trkpt>
      <trkpt lat="45.9767365" lon="7.1134467">
        <ele>1312.94</ele>
        <time>2019-09-08T11:42:33Z</time>
      </trkpt>
      <trkpt lat="45.9768364" lon="7.1135155">
        <ele>1314.91</ele>
        <time>2019-09-08T11:42:43Z</time>
      </trkpt>
      <trkpt lat="45.9769194" lon="7.1135807">
        <ele>1314.94</ele>
        <time>2019-09-08T11:42:51Z</time>
      </trkpt>
      <trkpt lat="45.9770081" lon="7.1135551">
        <ele>1314.94</ele>
        <time>2019-09-08T11:42:59Z</time>
      </trkpt>
      <trkpt lat="45.9770581" lon="7.1134263">
        <ele>1314.94</ele>
        <time>2019-09-08T11:43:07Z</time>
      </trkpt>
      <trkpt lat="45.9771467" lon="7.1133917">
        <ele>1316.61</ele>
        <time>2019-09-08T11:43:13Z</time>
      </trkpt>
      <trkpt lat="45.9772353" lon="7.1133491">
        <ele>1316.94</ele>
        <time>2019-09-08T11:43:21Z</time>
      </trkpt>
      <trkpt lat="45.9773343" lon="7.1133564">
        <ele>1317.64</ele>
        <time>2019-09-08T11:43:31Z</time>
      </trkpt>
      <trkpt lat="45.9774280" lon="7.1132846">
        <ele>1317.02</ele>
        <time>2019-09-08T11:43:37Z</time>
      </trkpt>
      <trkpt lat="45.9775126" lon="7.1132286">
        <ele>1318.55</ele>
        <time>2019-09-08T11:43:43Z</time>
      </trkpt>
      <trkpt lat="45.9776179" lon="7.1131930">
        <ele>1319.21</ele>
        <time>2019-09-08T11:43:53Z</time>
      </trkpt>
      <trkpt lat="45.9777262" lon="7.1131952">
        <ele>1318.94</ele>
        <time>2019-09-08T11:44:07Z</time>
      </trkpt>
      <trkpt lat="45.9778258" lon="7.1131896">
        <ele>1318.94</ele>
        <time>2019-09-08T11:44:15Z</time>
      </trkpt>
      <trkpt lat="45.9779174" lon="7.1131981">
        <ele>1318.94</ele>
        <time>2019-09-08T11:44:21Z</time>
      </trkpt>
      <trkpt lat="45.9780266" lon="7.1132087">
        <ele>1318.94</ele>
        <time>2019-09-08T11:44:29Z</time>
      </trkpt>
      <trkpt lat="45.9781332" lon="7.1132223">
        <ele>1320.64</ele>
        <time>2019-09-08T11:44:39Z</time>
      </trkpt>
      <trkpt lat="45.9782228" lon="7.1132558">
        <ele>1320.03</ele>
        <time>2019-09-08T11:44:47Z</time>
      </trkpt>
      <trkpt lat="45.9783242" lon="7.1132192">
        <ele>1319.94</ele>
        <time>2019-09-08T11:44:55Z</time>
      </trkpt>
      <trkpt lat="45.9784122" lon="7.1132519">
        <ele>1319.94</ele>
        <time>2019-09-08T11:45:01Z</time>
      </trkpt>
      <trkpt lat="45.9785091" lon="7.1131909">
        <ele>1318.95</ele>
        <time>2019-09-08T11:45:11Z</time>
      </trkpt>
      <trkpt lat="45.9786138" lon="7.1131220">
        <ele>1318.94</ele>
        <time>2019-09-08T11:45:19Z</time>
      </trkpt>
      <trkpt lat="45.9787190" lon="7.1131239">
        <ele>1318.01</ele>
        <time>2019-09-08T11:45:27Z</time>
      </trkpt>
      <trkpt lat="45.9788342" lon="7.1131114">
        <ele>1317.92</ele>
        <time>2019-09-08T11:45:39Z</time>
      </trkpt>
      <trkpt lat="45.9789480" lon="7.1131312">
        <ele>1317.86</ele>
        <time>2019-09-08T11:45:47Z</time>
      </trkpt>
      <trkpt lat="45.9790457" lon="7.1130846">
        <ele>1317.24</ele>
        <time>2019-09-08T11:45:55Z</time>
      </trkpt>
      <trkpt lat="45.9791407" lon="7.1130011">
        <ele>1316.94</ele>
        <time>2019-09-08T11:46:03Z</time>
      </trkpt>
      <trkpt lat="45.9792474" lon="7.1129804">
        <ele>1317.93</ele>
        <time>2019-09-08T11:46:11Z</time>
      </trkpt>
      <trkpt lat="45.9793505" lon="7.1129269">
        <ele>1317.94</ele>
        <time>2019-09-08T11:46:19Z</time>
      </trkpt>
      <trkpt lat="45.9794399" lon="7.1128878">
        <ele>1319.55</ele>
        <time>2019-09-08T11:46:29Z</time>
      </trkpt>
      <trkpt lat="45.9795268" lon="7.1128356">
        <ele>1319.94</ele>
        <time>2019-09-08T11:46:37Z</time>
      </trkpt>
      <trkpt lat="45.9796386" lon="7.1128213">
        <ele>1320.92</ele>
        <time>2019-09-08T11:46:47Z</time>
      </trkpt>
      <trkpt lat="45.9797394" lon="7.1128345">
        <ele>1318.27</ele>
        <time>2019-09-08T11:46:59Z</time>
      </trkpt>
      <trkpt lat="45.9797643" lon="7.1129747">
        <ele>1317.03</ele>
        <time>2019-09-08T11:48:19Z</time>
      </trkpt>
      <trkpt lat="45.9797184" lon="7.1131357">
        <ele>1318.63</ele>
        <time>2019-09-08T11:48:27Z</time>
      </trkpt>
      <trkpt lat="45.9796887" lon="7.1133015">
        <ele>1318.01</ele>
        <time>2019-09-08T11:48:35Z</time>
      </trkpt>
      <trkpt lat="45.9796930" lon="7.1134665">
        <ele>1316.04</ele>
        <time>2019-09-08T11:48:43Z</time>
      </trkpt>
      <trkpt lat="45.9796915" lon="7.1136286">
        <ele>1314.94</ele>
        <time>2019-09-08T11:48:53Z</time>
      </trkpt>
      <trkpt lat="45.9796760" lon="7.1137824">
        <ele>1314.03</ele>
        <time>2019-09-08T11:49:03Z</time>
      </trkpt>
      <trkpt lat="45.9796677" lon="7.1139384">
        <ele>1313.31</ele>
        <time>2019-09-08T11:49:11Z</time>
      </trkpt>
      <trkpt lat="45.9796359" lon="7.1140833">
        <ele>1311.97</ele>
        <time>2019-09-08T11:49:19Z</time>
      </trkpt>
      <trkpt lat="45.9796298" lon="7.1142357">
        <ele>1308.37</ele>
        <time>2019-09-08T11:49:27Z</time>
      </trkpt>
      <trkpt lat="45.9796179" lon="7.1143678">
        <ele>1307.95</ele>
        <time>2019-09-08T11:49:35Z</time>
      </trkpt>
      <trkpt lat="45.9796033" lon="7.1145111">
        <ele>1306.95</ele>
        <time>2019-09-08T11:49:43Z</time>
      </trkpt>
      <trkpt lat="45.9796058" lon="7.1146476">
        <ele>1305.95</ele>
        <time>2019-09-08T11:49:51Z</time>
      </trkpt>
      <trkpt lat="45.9796004" lon="7.1147862">
        <ele>1305.24</ele>
        <time>2019-09-08T11:49:59Z</time>
      </trkpt>
      <trkpt lat="45.9795870" lon="7.1149247">
        <ele>1304.24</ele>
        <time>2019-09-08T11:50:07Z</time>
      </trkpt>
      <trkpt lat="45.9795473" lon="7.1150465">
        <ele>1303.03</ele>
        <time>2019-09-08T11:50:15Z</time>
      </trkpt>
      <trkpt lat="45.9795088" lon="7.1151817">
        <ele>1301.97</ele>
        <time>2019-09-08T11:50:23Z</time>
      </trkpt>
      <trkpt lat="45.9794644" lon="7.1153144">
        <ele>1300.91</ele>
        <time>2019-09-08T11:50:31Z</time>
      </trkpt>
      <trkpt lat="45.9794370" lon="7.1154545">
        <ele>1301.91</ele>
        <time>2019-09-08T11:50:39Z</time>
      </trkpt>
      <trkpt lat="45.9793864" lon="7.1156104">
        <ele>1294.67</ele>
        <time>2019-09-08T11:50:47Z</time>
      </trkpt>
      <trkpt lat="45.9793486" lon="7.1157532">
        <ele>1293.29</ele>
        <time>2019-09-08T11:50:55Z</time>
      </trkpt>
      <trkpt lat="45.9793009" lon="7.1158837">
        <ele>1294.43</ele>
        <time>2019-09-08T11:51:03Z</time>
      </trkpt>
      <trkpt lat="45.9793073" lon="7.1160201">
        <ele>1293.04</ele>
        <time>2019-09-08T11:51:11Z</time>
      </trkpt>
      <trkpt lat="45.9792671" lon="7.1161693">
        <ele>1292.96</ele>
        <time>2019-09-08T11:51:19Z</time>
      </trkpt>
      <trkpt lat="45.9792152" lon="7.1162834">
        <ele>1291.25</ele>
        <time>2019-09-08T11:51:27Z</time>
      </trkpt>
      <trkpt lat="45.9791790" lon="7.1164415">
        <ele>1291.22</ele>
        <time>2019-09-08T11:51:35Z</time>
      </trkpt>
      <trkpt lat="45.9791780" lon="7.1165914">
        <ele>1290.03</ele>
        <time>2019-09-08T11:51:43Z</time>
      </trkpt>
      <trkpt lat="45.9791416" lon="7.1167533">
        <ele>1289.67</ele>
        <time>2019-09-08T11:51:51Z</time>
      </trkpt>
      <trkpt lat="45.9791141" lon="7.1168837">
        <ele>1290.85</ele>
        <time>2019-09-08T11:51:59Z</time>
      </trkpt>
      <trkpt lat="45.9790819" lon="7.1170108">
        <ele>1290.03</ele>
        <time>2019-09-08T11:52:07Z</time>
      </trkpt>
      <trkpt lat="45.9790440" lon="7.1171533">
        <ele>1289.94</ele>
        <time>2019-09-08T11:52:15Z</time>
      </trkpt>
      <trkpt lat="45.9790073" lon="7.1173005">
        <ele>1289.92</ele>
        <time>2019-09-08T11:52:25Z</time>
      </trkpt>
      <trkpt lat="45.9789501" lon="7.1174505">
        <ele>1289.24</ele>
        <time>2019-09-08T11:52:33Z</time>
      </trkpt>
      <trkpt lat="45.9789072" lon="7.1176022">
        <ele>1288.94</ele>
        <time>2019-09-08T11:52:41Z</time>
      </trkpt>
      <trkpt lat="45.9788842" lon="7.1177563">
        <ele>1288.03</ele>
        <time>2019-09-08T11:52:49Z</time>
      </trkpt>
      <trkpt lat="45.9788609" lon="7.1179052">
        <ele>1288.93</ele>
        <time>2019-09-08T11:52:57Z</time>
      </trkpt>
      <trkpt lat="45.9788955" lon="7.1180521">
        <ele>1286.28</ele>
        <time>2019-09-08T11:53:05Z</time>
      </trkpt>
      <trkpt lat="45.9789377" lon="7.1181881">
        <ele>1281.96</ele>
        <time>2019-09-08T11:53:13Z</time>
      </trkpt>
      <trkpt lat="45.9789363" lon="7.1183449">
        <ele>1275.68</ele>
        <time>2019-09-08T11:53:23Z</time>
      </trkpt>
      <trkpt lat="45.9789472" lon="7.1185102">
        <ele>1272.77</ele>
        <time>2019-09-08T11:53:31Z</time>
      </trkpt>
      <trkpt lat="45.9789583" lon="7.1186505">
        <ele>1274.91</ele>
        <time>2019-09-08T11:53:39Z</time>
      </trkpt>
      <trkpt lat="45.9789836" lon="7.1187827">
        <ele>1275.00</ele>
        <time>2019-09-08T11:53:47Z</time>
      </trkpt>
      <trkpt lat="45.9790155" lon="7.1189461">
        <ele>1274.65</ele>
        <time>2019-09-08T11:53:55Z</time>
      </trkpt>
      <trkpt lat="45.9790469" lon="7.1191058">
        <ele>1275.64</ele>
        <time>2019-09-08T11:54:03Z</time>
      </trkpt>
      <trkpt lat="45.9790795" lon="7.1192405">
        <ele>1275.94</ele>
        <time>2019-09-08T11:54:11Z</time>
      </trkpt>
      <trkpt lat="45.9791190" lon="7.1193643">
        <ele>1275.94</ele>
        <time>2019-09-08T11:54:19Z</time>
      </trkpt>
      <trkpt lat="45.9791287" lon="7.1195169">
        <ele>1274.04</ele>
        <time>2019-09-08T11:54:27Z</time>
      </trkpt>
      <trkpt lat="45.9791597" lon="7.1196650">
        <ele>1273.94</ele>
        <time>2019-09-08T11:54:35Z</time>
      </trkpt>
      <trkpt lat="45.9791860" lon="7.1198217">
        <ele>1273.94</ele>
        <time>2019-09-08T11:54:43Z</time>
      </trkpt>
      <trkpt lat="45.9791871" lon="7.1199692">
        <ele>1274.70</ele>
        <time>2019-09-08T11:54:51Z</time>
      </trkpt>
      <trkpt lat="45.9792132" lon="7.1201136">
        <ele>1273.25</ele>
        <time>2019-09-08T11:54:59Z</time>
      </trkpt>
      <trkpt lat="45.9792543" lon="7.1202562">
        <ele>1272.24</ele>
        <time>2019-09-08T11:55:09Z</time>
      </trkpt>
      <trkpt lat="45.9792790" lon="7.1203844">
        <ele>1273.85</ele>
        <time>2019-09-08T11:55:17Z</time>
      </trkpt>
      <trkpt lat="45.9793717" lon="7.1204811">
        <ele>1273.94</ele>
        <time>2019-09-08T11:55:25Z</time>
      </trkpt>
      <trkpt lat="45.9794511" lon="7.1205732">
        <ele>1272.97</ele>
        <time>2019-09-08T11:55:33Z</time>
      </trkpt>
      <trkpt lat="45.9795250" lon="7.1206733">
        <ele>1272.94</ele>
        <time>2019-09-08T11:55:41Z</time>
      </trkpt>
      <trkpt lat="45.9795634" lon="7.1208121">
        <ele>1273.92</ele>
        <time>2019-09-08T11:55:49Z</time>
      </trkpt>
      <trkpt lat="45.9796345" lon="7.1209299">
        <ele>1272.03</ele>
        <time>2019-09-08T11:55:59Z</time>
      </trkpt>
      <trkpt lat="45.9796849" lon="7.1210429">
        <ele>1271.94</ele>
        <time>2019-09-08T11:56:07Z</time>
      </trkpt>
      <trkpt lat="45.9796995" lon="7.1211923">
        <ele>1271.94</ele>
        <time>2019-09-08T11:56:15Z</time>
      </trkpt>
      <trkpt lat="45.9797643" lon="7.1212866">
        <ele>1271.94</ele>
        <time>2019-09-08T11:56:23Z</time>
      </trkpt>
      <trkpt lat="45.9798260" lon="7.1213915">
        <ele>1271.94</ele>
        <time>2019-09-08T11:56:31Z</time>
      </trkpt>
      <trkpt lat="45.9798872" lon="7.1215184">
        <ele>1271.94</ele>
        <time>2019-09-08T11:56:39Z</time>
      </trkpt>
      <trkpt lat="45.9799445" lon="7.1216572">
        <ele>1270.97</ele>
        <time>2019-09-08T11:56:47Z</time>
      </trkpt>
      <trkpt lat="45.9800040" lon="7.1217969">
        <ele>1269.97</ele>
        <time>2019-09-08T11:56:55Z</time>
      </trkpt>
      <trkpt lat="45.9800403" lon="7.1219346">
        <ele>1268.25</ele>
        <time>2019-09-08T11:57:03Z</time>
      </trkpt>
      <trkpt lat="45.9800969" lon="7.1220603">
        <ele>1264.45</ele>
        <time>2019-09-08T11:57:11Z</time>
      </trkpt>
      <trkpt lat="45.9801643" lon="7.1221728">
        <ele>1258.37</ele>
        <time>2019-09-08T11:57:21Z</time>
      </trkpt>
      <trkpt lat="45.9802068" lon="7.1222908">
        <ele>1255.14</ele>
        <time>2019-09-08T11:57:29Z</time>
      </trkpt>
      <trkpt lat="45.9802328" lon="7.1224164">
        <ele>1249.31</ele>
        <time>2019-09-08T11:57:39Z</time>
      </trkpt>
      <trkpt lat="45.9803027" lon="7.1225555">
        <ele>1249.66</ele>
        <time>2019-09-08T11:57:47Z</time>
      </trkpt>
      <trkpt lat="45.9803864" lon="7.1226486">
        <ele>1250.78</ele>
        <time>2019-09-08T11:57:53Z</time>
      </trkpt>
      <trkpt lat="45.9804082" lon="7.1228088">
        <ele>1243.62</ele>
        <time>2019-09-08T11:58:03Z</time>
      </trkpt>
      <trkpt lat="45.9804621" lon="7.1229208">
        <ele>1237.61</ele>
        <time>2019-09-08T11:58:13Z</time>
      </trkpt>
      <trkpt lat="45.9805237" lon="7.1230386">
        <ele>1234.07</ele>
        <time>2019-09-08T11:58:21Z</time>
      </trkpt>
      <trkpt lat="45.9806062" lon="7.1231397">
        <ele>1234.77</ele>
        <time>2019-09-08T11:58:29Z</time>
      </trkpt>
      <trkpt lat="45.9806349" lon="7.1232664">
        <ele>1233.96</ele>
        <time>2019-09-08T11:58:35Z</time>
      </trkpt>
      <trkpt lat="45.9806917" lon="7.1233833">
        <ele>1228.87</ele>
        <time>2019-09-08T11:58:43Z</time>
      </trkpt>
      <trkpt lat="45.9807578" lon="7.1235141">
        <ele>1228.94</ele>
        <time>2019-09-08T11:58:53Z</time>
      </trkpt>
      <trkpt lat="45.9808014" lon="7.1236276">
        <ele>1227.54</ele>
        <time>2019-09-08T11:58:59Z</time>
      </trkpt>
      <trkpt lat="45.9808875" lon="7.1237126">
        <ele>1226.06</ele>
        <time>2019-09-08T11:59:09Z</time>
      </trkpt>
      <trkpt lat="45.9809517" lon="7.1238196">
        <ele>1224.01</ele>
        <time>2019-09-08T11:59:21Z</time>
      </trkpt>
      <trkpt lat="45.9810221" lon="7.1239053">
        <ele>1222.97</ele>
        <time>2019-09-08T11:59:27Z</time>
      </trkpt>
      <trkpt lat="45.9810922" lon="7.1240033">
        <ele>1221.21</ele>
        <time>2019-09-08T11:59:33Z</time>
      </trkpt>
      <trkpt lat="45.9810762" lon="7.1241376">
        <ele>1217.62</ele>
        <time>2019-09-08T11:59:41Z</time>
      </trkpt>
      <trkpt lat="45.9811217" lon="7.1242500">
        <ele>1216.05</ele>
        <time>2019-09-08T11:59:47Z</time>
      </trkpt>
      <trkpt lat="45.9811915" lon="7.1243528">
        <ele>1215.27</ele>
        <time>2019-09-08T11:59:59Z</time>
      </trkpt>
      <trkpt lat="45.9812700" lon="7.1242323">
        <ele>1210.85</ele>
        <time>2019-09-08T12:02:29Z</time>
      </trkpt>
      <trkpt lat="45.9813058" lon="7.1241004">
        <ele>1211.70</ele>
        <time>2019-09-08T12:02:35Z</time>
      </trkpt>
      <trkpt lat="45.9813572" lon="7.1239622">
        <ele>1211.94</ele>
        <time>2019-09-08T12:02:43Z</time>
      </trkpt>
      <trkpt lat="45.9814214" lon="7.1238407">
        <ele>1212.21</ele>
        <time>2019-09-08T12:02:51Z</time>
      </trkpt>
      <trkpt lat="45.9814927" lon="7.1237407">
        <ele>1211.73</ele>
        <time>2019-09-08T12:02:59Z</time>
      </trkpt>
      <trkpt lat="45.9815629" lon="7.1236353">
        <ele>1210.95</ele>
        <time>2019-09-08T12:03:07Z</time>
      </trkpt>
      <trkpt lat="45.9816535" lon="7.1235243">
        <ele>1209.94</ele>
        <time>2019-09-08T12:03:17Z</time>
      </trkpt>
      <trkpt lat="45.9817597" lon="7.1234641">
        <ele>1208.95</ele>
        <time>2019-09-08T12:03:25Z</time>
      </trkpt>
      <trkpt lat="45.9818613" lon="7.1234178">
        <ele>1207.25</ele>
        <time>2019-09-08T12:03:33Z</time>
      </trkpt>
      <trkpt lat="45.9819651" lon="7.1233860">
        <ele>1207.86</ele>
        <time>2019-09-08T12:03:39Z</time>
      </trkpt>
      <trkpt lat="45.9820534" lon="7.1233119">
        <ele>1208.91</ele>
        <time>2019-09-08T12:03:47Z</time>
      </trkpt>
      <trkpt lat="45.9821505" lon="7.1232531">
        <ele>1208.03</ele>
        <time>2019-09-08T12:03:55Z</time>
      </trkpt>
      <trkpt lat="45.9822545" lon="7.1232184">
        <ele>1207.16</ele>
        <time>2019-09-08T12:04:03Z</time>
      </trkpt>
      <trkpt lat="45.9823235" lon="7.1231108">
        <ele>1206.94</ele>
        <time>2019-09-08T12:04:11Z</time>
      </trkpt>
      <trkpt lat="45.9824142" lon="7.1230526">
        <ele>1206.24</ele>
        <time>2019-09-08T12:04:17Z</time>
      </trkpt>
      <trkpt lat="45.9825118" lon="7.1229705">
        <ele>1204.97</ele>
        <time>2019-09-08T12:04:25Z</time>
      </trkpt>
      <trkpt lat="45.9826059" lon="7.1228899">
        <ele>1204.94</ele>
        <time>2019-09-08T12:04:33Z</time>
      </trkpt>
      <trkpt lat="45.9826880" lon="7.1228346">
        <ele>1203.95</ele>
        <time>2019-09-08T12:04:41Z</time>
      </trkpt>
      <trkpt lat="45.9827937" lon="7.1227979">
        <ele>1202.25</ele>
        <time>2019-09-08T12:04:51Z</time>
      </trkpt>
      <trkpt lat="45.9829028" lon="7.1227457">
        <ele>1201.94</ele>
        <time>2019-09-08T12:04:59Z</time>
      </trkpt>
      <trkpt lat="45.9830028" lon="7.1227333">
        <ele>1202.64</ele>
        <time>2019-09-08T12:05:07Z</time>
      </trkpt>
      <trkpt lat="45.9831010" lon="7.1226942">
        <ele>1202.88</ele>
        <time>2019-09-08T12:05:15Z</time>
      </trkpt>
      <trkpt lat="45.9832129" lon="7.1226560">
        <ele>1205.35</ele>
        <time>2019-09-08T12:05:23Z</time>
      </trkpt>
      <trkpt lat="45.9833177" lon="7.1226391">
        <ele>1202.98</ele>
        <time>2019-09-08T12:05:31Z</time>
      </trkpt>
      <trkpt lat="45.9834213" lon="7.1226123">
        <ele>1201.95</ele>
        <time>2019-09-08T12:05:39Z</time>
      </trkpt>
      <trkpt lat="45.9835152" lon="7.1225969">
        <ele>1201.88</ele>
        <time>2019-09-08T12:05:45Z</time>
      </trkpt>
      <trkpt lat="45.9836253" lon="7.1225674">
        <ele>1201.88</ele>
        <time>2019-09-08T12:05:53Z</time>
      </trkpt>
      <trkpt lat="45.9837398" lon="7.1225432">
        <ele>1202.64</ele>
        <time>2019-09-08T12:06:01Z</time>
      </trkpt>
      <trkpt lat="45.9838208" lon="7.1224788">
        <ele>1201.97</ele>
        <time>2019-09-08T12:06:09Z</time>
      </trkpt>
      <trkpt lat="45.9839086" lon="7.1224251">
        <ele>1201.94</ele>
        <time>2019-09-08T12:06:17Z</time>
      </trkpt>
      <trkpt lat="45.9839975" lon="7.1223489">
        <ele>1202.93</ele>
        <time>2019-09-08T12:06:25Z</time>
      </trkpt>
      <trkpt lat="45.9841010" lon="7.1222719">
        <ele>1202.94</ele>
        <time>2019-09-08T12:06:33Z</time>
      </trkpt>
      <trkpt lat="45.9841706" lon="7.1221699">
        <ele>1203.64</ele>
        <time>2019-09-08T12:06:39Z</time>
      </trkpt>
      <trkpt lat="45.9842361" lon="7.1220543">
        <ele>1204.64</ele>
        <time>2019-09-08T12:06:47Z</time>
      </trkpt>
      <trkpt lat="45.9843139" lon="7.1219398">
        <ele>1203.95</ele>
        <time>2019-09-08T12:06:55Z</time>
      </trkpt>
      <trkpt lat="45.9844002" lon="7.1218469">
        <ele>1203.03</ele>
        <time>2019-09-08T12:07:03Z</time>
      </trkpt>
      <trkpt lat="45.9845003" lon="7.1217761">
        <ele>1202.92</ele>
        <time>2019-09-08T12:07:13Z</time>
      </trkpt>
      <trkpt lat="45.9845932" lon="7.1217056">
        <ele>1202.94</ele>
        <time>2019-09-08T12:07:21Z</time>
      </trkpt>
      <trkpt lat="45.9846970" lon="7.1216495">
        <ele>1202.73</ele>
        <time>2019-09-08T12:07:29Z</time>
      </trkpt>
      <trkpt lat="45.9847905" lon="7.1215945">
        <ele>1203.15</ele>
        <time>2019-09-08T12:07:37Z</time>
      </trkpt>
      <trkpt lat="45.9848931" lon="7.1215529">
        <ele>1203.24</ele>
        <time>2019-09-08T12:07:45Z</time>
      </trkpt>
      <trkpt lat="45.9849855" lon="7.1214912">
        <ele>1202.03</ele>
        <time>2019-09-08T12:07:53Z</time>
      </trkpt>
      <trkpt lat="45.9850840" lon="7.1214262">
        <ele>1201.94</ele>
        <time>2019-09-08T12:08:01Z</time>
      </trkpt>
      <trkpt lat="45.9851649" lon="7.1213689">
        <ele>1201.94</ele>
        <time>2019-09-08T12:08:09Z</time>
      </trkpt>
      <trkpt lat="45.9852714" lon="7.1213342">
        <ele>1202.64</ele>
        <time>2019-09-08T12:08:19Z</time>
      </trkpt>
      <trkpt lat="45.9853778" lon="7.1213447">
        <ele>1200.97</ele>
        <time>2019-09-08T12:08:27Z</time>
      </trkpt>
      <trkpt lat="45.9854692" lon="7.1214302">
        <ele>1199.04</ele>
        <time>2019-09-08T12:08:35Z</time>
      </trkpt>
      <trkpt lat="45.9855607" lon="7.1215080">
        <ele>1199.23</ele>
        <time>2019-09-08T12:08:43Z</time>
      </trkpt>
      <trkpt lat="45.9856577" lon="7.1215403">
        <ele>1198.94</ele>
        <time>2019-09-08T12:08:51Z</time>
      </trkpt>
      <trkpt lat="45.9857436" lon="7.1215892">
        <ele>1197.95</ele>
        <time>2019-09-08T12:08:59Z</time>
      </trkpt>
      <trkpt lat="45.9858356" lon="7.1216107">
        <ele>1196.95</ele>
        <time>2019-09-08T12:09:07Z</time>
      </trkpt>
      <trkpt lat="45.9859354" lon="7.1216660">
        <ele>1196.24</ele>
        <time>2019-09-08T12:09:15Z</time>
      </trkpt>
      <trkpt lat="45.9860369" lon="7.1217459">
        <ele>1195.94</ele>
        <time>2019-09-08T12:09:23Z</time>
      </trkpt>
      <trkpt lat="45.9861521" lon="7.1217566">
        <ele>1196.85</ele>
        <time>2019-09-08T12:09:31Z</time>
      </trkpt>
      <trkpt lat="45.9862448" lon="7.1217324">
        <ele>1196.94</ele>
        <time>2019-09-08T12:09:39Z</time>
      </trkpt>
      <trkpt lat="45.9863352" lon="7.1216648">
        <ele>1196.94</ele>
        <time>2019-09-08T12:09:47Z</time>
      </trkpt>
      <trkpt lat="45.9864355" lon="7.1216098">
        <ele>1196.94</ele>
        <time>2019-09-08T12:09:53Z</time>
      </trkpt>
      <trkpt lat="45.9865231" lon="7.1215624">
        <ele>1196.94</ele>
        <time>2019-09-08T12:10:01Z</time>
      </trkpt>
      <trkpt lat="45.9866199" lon="7.1215211">
        <ele>1196.94</ele>
        <time>2019-09-08T12:10:09Z</time>
      </trkpt>
      <trkpt lat="45.9867122" lon="7.1215194">
        <ele>1195.95</ele>
        <time>2019-09-08T12:10:17Z</time>
      </trkpt>
      <trkpt lat="45.9868133" lon="7.1215476">
        <ele>1194.25</ele>
        <time>2019-09-08T12:10:25Z</time>
      </trkpt>
      <trkpt lat="45.9869065" lon="7.1216113">
        <ele>1193.96</ele>
        <time>2019-09-08T12:10:33Z</time>
      </trkpt>
      <trkpt lat="45.9870043" lon="7.1216970">
        <ele>1192.04</ele>
        <time>2019-09-08T12:10:41Z</time>
      </trkpt>
      <trkpt lat="45.9870829" lon="7.1217959">
        <ele>1189.27</ele>
        <time>2019-09-08T12:10:51Z</time>
      </trkpt>
      <trkpt lat="45.9871769" lon="7.1218260">
        <ele>1179.33</ele>
        <time>2019-09-08T12:15:27Z</time>
      </trkpt>
      <trkpt lat="45.9872421" lon="7.1219408">
        <ele>1177.95</ele>
        <time>2019-09-08T12:15:37Z</time>
      </trkpt>
      <trkpt lat="45.9873103" lon="7.1220455">
        <ele>1175.98</ele>
        <time>2019-09-08T12:15:45Z</time>
      </trkpt>
      <trkpt lat="45.9873785" lon="7.1221485">
        <ele>1174.95</ele>
        <time>2019-09-08T12:15:53Z</time>
      </trkpt>
      <trkpt lat="45.9874376" lon="7.1222651">
        <ele>1174.03</ele>
        <time>2019-09-08T12:16:01Z</time>
      </trkpt>
      <trkpt lat="45.9874796" lon="7.1223876">
        <ele>1173.94</ele>
        <time>2019-09-08T12:16:07Z</time>
      </trkpt>
      <trkpt lat="45.9875398" lon="7.1224883">
        <ele>1173.24</ele>
        <time>2019-09-08T12:16:13Z</time>
      </trkpt>
      <trkpt lat="45.9876110" lon="7.1225974">
        <ele>1172.03</ele>
        <time>2019-09-08T12:16:21Z</time>
      </trkpt>
      <trkpt lat="45.9877005" lon="7.1226884">
        <ele>1171.03</ele>
        <time>2019-09-08T12:16:29Z</time>
      </trkpt>
      <trkpt lat="45.9877868" lon="7.1227612">
        <ele>1170.24</ele>
        <time>2019-09-08T12:16:37Z</time>
      </trkpt>
      <trkpt lat="45.9878808" lon="7.1228353">
        <ele>1170.94</ele>
        <time>2019-09-08T12:16:45Z</time>
      </trkpt>
      <trkpt lat="45.9879815" lon="7.1228978">
        <ele>1171.91</ele>
        <time>2019-09-08T12:16:53Z</time>
      </trkpt>
      <trkpt lat="45.9880740" lon="7.1229555">
        <ele>1171.18</ele>
        <time>2019-09-08T12:16:59Z</time>
      </trkpt>
      <trkpt lat="45.9881469" lon="7.1230404">
        <ele>1170.95</ele>
        <time>2019-09-08T12:17:05Z</time>
      </trkpt>
      <trkpt lat="45.9881767" lon="7.1231777">
        <ele>1170.94</ele>
        <time>2019-09-08T12:17:11Z</time>
      </trkpt>
      <trkpt lat="45.9882170" lon="7.1232942">
        <ele>1169.25</ele>
        <time>2019-09-08T12:17:19Z</time>
      </trkpt>
      <trkpt lat="45.9882680" lon="7.1234189">
        <ele>1168.94</ele>
        <time>2019-09-08T12:17:27Z</time>
      </trkpt>
      <trkpt lat="45.9883412" lon="7.1235499">
        <ele>1167.25</ele>
        <time>2019-09-08T12:17:35Z</time>
      </trkpt>
      <trkpt lat="45.9884059" lon="7.1236509">
        <ele>1166.03</ele>
        <time>2019-09-08T12:17:43Z</time>
      </trkpt>
      <trkpt lat="45.9884940" lon="7.1237206">
        <ele>1165.03</ele>
        <time>2019-09-08T12:17:51Z</time>
      </trkpt>
      <trkpt lat="45.9885891" lon="7.1237564">
        <ele>1165.85</ele>
        <time>2019-09-08T12:17:59Z</time>
      </trkpt>
      <trkpt lat="45.9886731" lon="7.1238356">
        <ele>1165.94</ele>
        <time>2019-09-08T12:18:07Z</time>
      </trkpt>
      <trkpt lat="45.9887806" lon="7.1238509">
        <ele>1166.21</ele>
        <time>2019-09-08T12:18:15Z</time>
      </trkpt>
      <trkpt lat="45.9888916" lon="7.1238843">
        <ele>1166.92</ele>
        <time>2019-09-08T12:18:23Z</time>
      </trkpt>
      <trkpt lat="45.9889814" lon="7.1239415">
        <ele>1165.97</ele>
        <time>2019-09-08T12:18:29Z</time>
      </trkpt>
      <trkpt lat="45.9890808" lon="7.1239711">
        <ele>1165.22</ele>
        <time>2019-09-08T12:18:37Z</time>
      </trkpt>
      <trkpt lat="45.9891599" lon="7.1240360">
        <ele>1164.95</ele>
        <time>2019-09-08T12:18:43Z</time>
      </trkpt>
      <trkpt lat="45.9892325" lon="7.1241524">
        <ele>1162.98</ele>
        <time>2019-09-08T12:18:51Z</time>
      </trkpt>
      <trkpt lat="45.9892965" lon="7.1242950">
        <ele>1161.97</ele>
        <time>2019-09-08T12:18:59Z</time>
      </trkpt>
      <trkpt lat="45.9893563" lon="7.1244184">
        <ele>1161.03</ele>
        <time>2019-09-08T12:19:07Z</time>
      </trkpt>
      <trkpt lat="45.9894015" lon="7.1245693">
        <ele>1159.95</ele>
        <time>2019-09-08T12:19:15Z</time>
      </trkpt>
      <trkpt lat="45.9894162" lon="7.1247305">
        <ele>1159.03</ele>
        <time>2019-09-08T12:19:23Z</time>
      </trkpt>
      <trkpt lat="45.9894178" lon="7.1248694">
        <ele>1157.97</ele>
        <time>2019-09-08T12:19:31Z</time>
      </trkpt>
      <trkpt lat="45.9893578" lon="7.1249768">
        <ele>1156.97</ele>
        <time>2019-09-08T12:19:37Z</time>
      </trkpt>
      <trkpt lat="45.9892868" lon="7.1250842">
        <ele>1155.97</ele>
        <time>2019-09-08T12:19:45Z</time>
      </trkpt>
      <trkpt lat="45.9892557" lon="7.1252160">
        <ele>1156.92</ele>
        <time>2019-09-08T12:19:53Z</time>
      </trkpt>
      <trkpt lat="45.9891790" lon="7.1252927">
        <ele>1155.04</ele>
        <time>2019-09-08T12:20:01Z</time>
      </trkpt>
      <trkpt lat="45.9890823" lon="7.1253844">
        <ele>1154.24</ele>
        <time>2019-09-08T12:20:11Z</time>
      </trkpt>
      <trkpt lat="45.9890388" lon="7.1255186">
        <ele>1153.94</ele>
        <time>2019-09-08T12:20:19Z</time>
      </trkpt>
      <trkpt lat="45.9889551" lon="7.1255979">
        <ele>1153.24</ele>
        <time>2019-09-08T12:20:27Z</time>
      </trkpt>
      <trkpt lat="45.9888627" lon="7.1256860">
        <ele>1153.64</ele>
        <time>2019-09-08T12:20:37Z</time>
      </trkpt>
      <trkpt lat="45.9888176" lon="7.1258233">
        <ele>1154.00</ele>
        <time>2019-09-08T12:20:45Z</time>
      </trkpt>
      <trkpt lat="45.9887989" lon="7.1259834">
        <ele>1153.24</ele>
        <time>2019-09-08T12:20:53Z</time>
      </trkpt>
      <trkpt lat="45.9888019" lon="7.1261211">
        <ele>1153.03</ele>
        <time>2019-09-08T12:21:01Z</time>
      </trkpt>
      <trkpt lat="45.9888713" lon="7.1262164">
        <ele>1151.12</ele>
        <time>2019-09-08T12:21:07Z</time>
      </trkpt>
      <trkpt lat="45.9889392" lon="7.1263466">
        <ele>1148.34</ele>
        <time>2019-09-08T12:21:15Z</time>
      </trkpt>
      <trkpt lat="45.9890225" lon="7.1264388">
        <ele>1146.25</ele>
        <time>2019-09-08T12:21:23Z</time>
      </trkpt>
      <trkpt lat="45.9891268" lon="7.1265228">
        <ele>1144.97</ele>
        <time>2019-09-08T12:21:31Z</time>
      </trkpt>
      <trkpt lat="45.9892276" lon="7.1265822">
        <ele>1144.94</ele>
        <time>2019-09-08T12:21:39Z</time>
      </trkpt>
      <trkpt lat="45.9893363" lon="7.1266133">
        <ele>1144.94</ele>
        <time>2019-09-08T12:21:47Z</time>
      </trkpt>
      <trkpt lat="45.9894322" lon="7.1266369">
        <ele>1143.97</ele>
        <time>2019-09-08T12:21:53Z</time>
      </trkpt>
      <trkpt lat="45.9895307" lon="7.1266750">
        <ele>1142.06</ele>
        <time>2019-09-08T12:22:01Z</time>
      </trkpt>
      <trkpt lat="45.9896266" lon="7.1267341">
        <ele>1142.64</ele>
        <time>2019-09-08T12:22:09Z</time>
      </trkpt>
      <trkpt lat="45.9897209" lon="7.1268387">
        <ele>1141.97</ele>
        <time>2019-09-08T12:22:17Z</time>
      </trkpt>
      <trkpt lat="45.9898225" lon="7.1268875">
        <ele>1141.94</ele>
        <time>2019-09-08T12:22:25Z</time>
      </trkpt>
      <trkpt lat="45.9899209" lon="7.1269149">
        <ele>1141.94</ele>
        <time>2019-09-08T12:22:33Z</time>
      </trkpt>
      <trkpt lat="45.9900147" lon="7.1269133">
        <ele>1142.93</ele>
        <time>2019-09-08T12:22:41Z</time>
      </trkpt>
      <trkpt lat="45.9901296" lon="7.1268821">
        <ele>1141.97</ele>
        <time>2019-09-08T12:22:49Z</time>
      </trkpt>
      <trkpt lat="45.9902423" lon="7.1268661">
        <ele>1141.24</ele>
        <time>2019-09-08T12:22:57Z</time>
      </trkpt>
      <trkpt lat="45.9903411" lon="7.1268095">
        <ele>1140.96</ele>
        <time>2019-09-08T12:23:05Z</time>
      </trkpt>
      <trkpt lat="45.9904473" lon="7.1268090">
        <ele>1139.95</ele>
        <time>2019-09-08T12:23:13Z</time>
      </trkpt>
      <trkpt lat="45.9905477" lon="7.1268185">
        <ele>1139.94</ele>
        <time>2019-09-08T12:23:19Z</time>
      </trkpt>
      <trkpt lat="45.9906439" lon="7.1268112">
        <ele>1140.64</ele>
        <time>2019-09-08T12:23:25Z</time>
      </trkpt>
      <trkpt lat="45.9907461" lon="7.1268263">
        <ele>1140.22</ele>
        <time>2019-09-08T12:23:33Z</time>
      </trkpt>
      <trkpt lat="45.9908536" lon="7.1268604">
        <ele>1141.85</ele>
        <time>2019-09-08T12:23:41Z</time>
      </trkpt>
      <trkpt lat="45.9909632" lon="7.1268963">
        <ele>1140.74</ele>
        <time>2019-09-08T12:23:49Z</time>
      </trkpt>
      <trkpt lat="45.9910724" lon="7.1269208">
        <ele>1139.04</ele>
        <time>2019-09-08T12:23:57Z</time>
      </trkpt>
      <trkpt lat="45.9911625" lon="7.1269264">
        <ele>1138.94</ele>
        <time>2019-09-08T12:24:03Z</time>
      </trkpt>
      <trkpt lat="45.9912699" lon="7.1269307">
        <ele>1138.65</ele>
        <time>2019-09-08T12:24:11Z</time>
      </trkpt>
      <trkpt lat="45.9913626" lon="7.1269515">
        <ele>1137.96</ele>
        <time>2019-09-08T12:24:17Z</time>
      </trkpt>
      <trkpt lat="45.9914816" lon="7.1269658">
        <ele>1137.88</ele>
        <time>2019-09-08T12:24:25Z</time>
      </trkpt>
      <trkpt lat="45.9915885" lon="7.1269639">
        <ele>1136.95</ele>
        <time>2019-09-08T12:24:33Z</time>
      </trkpt>
      <trkpt lat="45.9916975" lon="7.1269244">
        <ele>1135.95</ele>
        <time>2019-09-08T12:24:41Z</time>
      </trkpt>
      <trkpt lat="45.9917906" lon="7.1269136">
        <ele>1134.95</ele>
        <time>2019-09-08T12:24:49Z</time>
      </trkpt>
      <trkpt lat="45.9918946" lon="7.1268948">
        <ele>1133.95</ele>
        <time>2019-09-08T12:24:57Z</time>
      </trkpt>
      <trkpt lat="45.9919940" lon="7.1268689">
        <ele>1133.24</ele>
        <time>2019-09-08T12:25:03Z</time>
      </trkpt>
      <trkpt lat="45.9920976" lon="7.1268522">
        <ele>1132.04</ele>
        <time>2019-09-08T12:25:09Z</time>
      </trkpt>
      <trkpt lat="45.9921992" lon="7.1268380">
        <ele>1130.97</ele>
        <time>2019-09-08T12:25:15Z</time>
      </trkpt>
      <trkpt lat="45.9923171" lon="7.1268352">
        <ele>1129.25</ele>
        <time>2019-09-08T12:25:25Z</time>
      </trkpt>
      <trkpt lat="45.9924289" lon="7.1268616">
        <ele>1128.04</ele>
        <time>2019-09-08T12:25:31Z</time>
      </trkpt>
      <trkpt lat="45.9925362" lon="7.1268553">
        <ele>1140.56</ele>
        <time>2019-09-08T12:25:39Z</time>
      </trkpt>
      <trkpt lat="45.9926320" lon="7.1268176">
        <ele>1129.35</ele>
        <time>2019-09-08T12:25:45Z</time>
      </trkpt>
      <trkpt lat="45.9927362" lon="7.1267983">
        <ele>1126.05</ele>
        <time>2019-09-08T12:25:53Z</time>
      </trkpt>
      <trkpt lat="45.9928451" lon="7.1267714">
        <ele>1125.24</ele>
        <time>2019-09-08T12:26:03Z</time>
      </trkpt>
      <trkpt lat="45.9929401" lon="7.1267990">
        <ele>1124.95</ele>
        <time>2019-09-08T12:26:09Z</time>
      </trkpt>
      <trkpt lat="45.9930381" lon="7.1268246">
        <ele>1123.97</ele>
        <time>2019-09-08T12:26:15Z</time>
      </trkpt>
      <trkpt lat="45.9931453" lon="7.1268769">
        <ele>1122.03</ele>
        <time>2019-09-08T12:26:25Z</time>
      </trkpt>
      <trkpt lat="45.9932395" lon="7.1269531">
        <ele>1120.97</ele>
        <time>2019-09-08T12:26:33Z</time>
      </trkpt>
      <trkpt lat="45.9933280" lon="7.1270058">
        <ele>1120.24</ele>
        <time>2019-09-08T12:26:41Z</time>
      </trkpt>
      <trkpt lat="45.9934083" lon="7.1270918">
        <ele>1119.24</ele>
        <time>2019-09-08T12:26:49Z</time>
      </trkpt>
      <trkpt lat="45.9934119" lon="7.1272425">
        <ele>1117.94</ele>
        <time>2019-09-08T12:27:03Z</time>
      </trkpt>
      <trkpt lat="45.9933828" lon="7.1271092">
        <ele>1115.85</ele>
        <time>2019-09-08T12:28:33Z</time>
      </trkpt>
      <trkpt lat="45.9934739" lon="7.1270940">
        <ele>1115.45</ele>
        <time>2019-09-08T12:29:33Z</time>
      </trkpt>
      <trkpt lat="45.9935642" lon="7.1270503">
        <ele>1113.68</ele>
        <time>2019-09-08T12:29:41Z</time>
      </trkpt>
      <trkpt lat="45.9936385" lon="7.1271699">
        <ele>1112.07</ele>
        <time>2019-09-08T12:30:13Z</time>
      </trkpt>
      <trkpt lat="45.9937338" lon="7.1272017">
        <ele>1109.76</ele>
        <time>2019-09-08T12:30:23Z</time>
      </trkpt>
      <trkpt lat="45.9938265" lon="7.1272242">
        <ele>1110.66</ele>
        <time>2019-09-08T12:30:33Z</time>
      </trkpt>
      <trkpt lat="45.9939169" lon="7.1272846">
        <ele>1111.93</ele>
        <time>2019-09-08T12:30:45Z</time>
      </trkpt>
      <trkpt lat="45.9940059" lon="7.1273576">
        <ele>1113.00</ele>
        <time>2019-09-08T12:30:57Z</time>
      </trkpt>
      <trkpt lat="45.9941053" lon="7.1273617">
        <ele>1113.88</ele>
        <time>2019-09-08T12:31:07Z</time>
      </trkpt>
      <trkpt lat="45.9941785" lon="7.1274413">
        <ele>1113.94</ele>
        <time>2019-09-08T12:31:15Z</time>
      </trkpt>
      <trkpt lat="45.9942823" lon="7.1274857">
        <ele>1114.64</ele>
        <time>2019-09-08T12:31:23Z</time>
      </trkpt>
      <trkpt lat="45.9943802" lon="7.1275393">
        <ele>1114.94</ele>
        <time>2019-09-08T12:31:31Z</time>
      </trkpt>
      <trkpt lat="45.9944713" lon="7.1275961">
        <ele>1113.97</ele>
        <time>2019-09-08T12:31:41Z</time>
      </trkpt>
      <trkpt lat="45.9945606" lon="7.1276559">
        <ele>1113.94</ele>
        <time>2019-09-08T12:31:49Z</time>
      </trkpt>
      <trkpt lat="45.9946563" lon="7.1277281">
        <ele>1113.94</ele>
        <time>2019-09-08T12:31:57Z</time>
      </trkpt>
      <trkpt lat="45.9947631" lon="7.1277611">
        <ele>1112.95</ele>
        <time>2019-09-08T12:32:05Z</time>
      </trkpt>
      <trkpt lat="45.9948649" lon="7.1278261">
        <ele>1113.85</ele>
        <time>2019-09-08T12:32:13Z</time>
      </trkpt>
      <trkpt lat="45.9949729" lon="7.1278734">
        <ele>1113.03</ele>
        <time>2019-09-08T12:32:21Z</time>
      </trkpt>
      <trkpt lat="45.9950707" lon="7.1278912">
        <ele>1113.01</ele>
        <time>2019-09-08T12:32:27Z</time>
      </trkpt>
      <trkpt lat="45.9951590" lon="7.1279226">
        <ele>1111.94</ele>
        <time>2019-09-08T12:32:37Z</time>
      </trkpt>
      <trkpt lat="45.9952178" lon="7.1280209">
        <ele>1111.92</ele>
        <time>2019-09-08T12:34:13Z</time>
      </trkpt>
      <trkpt lat="45.9952709" lon="7.1281569">
        <ele>1112.93</ele>
        <time>2019-09-08T12:34:23Z</time>
      </trkpt>
      <trkpt lat="45.9953828" lon="7.1281559">
        <ele>1112.65</ele>
        <time>2019-09-08T12:34:31Z</time>
      </trkpt>
      <trkpt lat="45.9954914" lon="7.1281434">
        <ele>1112.94</ele>
        <time>2019-09-08T12:34:39Z</time>
      </trkpt>
      <trkpt lat="45.9955874" lon="7.1281478">
        <ele>1112.94</ele>
        <time>2019-09-08T12:34:47Z</time>
      </trkpt>
      <trkpt lat="45.9957001" lon="7.1281236">
        <ele>1112.24</ele>
        <time>2019-09-08T12:34:55Z</time>
      </trkpt>
      <trkpt lat="45.9958027" lon="7.1282168">
        <ele>1111.95</ele>
        <time>2019-09-08T12:35:01Z</time>
      </trkpt>
      <trkpt lat="45.9958988" lon="7.1282653">
        <ele>1112.64</ele>
        <time>2019-09-08T12:35:09Z</time>
      </trkpt>
      <trkpt lat="45.9960119" lon="7.1282890">
        <ele>1112.64</ele>
        <time>2019-09-08T12:35:19Z</time>
      </trkpt>
      <trkpt lat="45.9961167" lon="7.1282468">
        <ele>1112.94</ele>
        <time>2019-09-08T12:35:27Z</time>
      </trkpt>
      <trkpt lat="45.9962260" lon="7.1282276">
        <ele>1111.27</ele>
        <time>2019-09-08T12:35:33Z</time>
      </trkpt>
      <trkpt lat="45.9963196" lon="7.1282642">
        <ele>1110.85</ele>
        <time>2019-09-08T12:36:33Z</time>
      </trkpt>
      <trkpt lat="45.9964101" lon="7.1283217">
        <ele>1111.02</ele>
        <time>2019-09-08T12:36:41Z</time>
      </trkpt>
      <trkpt lat="45.9965139" lon="7.1283688">
        <ele>1111.85</ele>
        <time>2019-09-08T12:36:49Z</time>
      </trkpt>
      <trkpt lat="45.9966037" lon="7.1283845">
        <ele>1111.01</ele>
        <time>2019-09-08T12:36:57Z</time>
      </trkpt>
      <trkpt lat="45.9966948" lon="7.1283970">
        <ele>1111.64</ele>
        <time>2019-09-08T12:37:05Z</time>
      </trkpt>
      <trkpt lat="45.9968090" lon="7.1284301">
        <ele>1110.95</ele>
        <time>2019-09-08T12:37:13Z</time>
      </trkpt>
      <trkpt lat="45.9969109" lon="7.1284995">
        <ele>1110.86</ele>
        <time>2019-09-08T12:37:21Z</time>
      </trkpt>
      <trkpt lat="45.9970124" lon="7.1284998">
        <ele>1109.97</ele>
        <time>2019-09-08T12:37:29Z</time>
      </trkpt>
      <trkpt lat="45.9971116" lon="7.1284523">
        <ele>1110.64</ele>
        <time>2019-09-08T12:37:37Z</time>
      </trkpt>
      <trkpt lat="45.9972169" lon="7.1284608">
        <ele>1110.94</ele>
        <time>2019-09-08T12:37:45Z</time>
      </trkpt>
      <trkpt lat="45.9973160" lon="7.1284627">
        <ele>1110.94</ele>
        <time>2019-09-08T12:37:55Z</time>
      </trkpt>
      <trkpt lat="45.9974214" lon="7.1284442">
        <ele>1109.95</ele>
        <time>2019-09-08T12:38:03Z</time>
      </trkpt>
      <trkpt lat="45.9975295" lon="7.1284493">
        <ele>1109.64</ele>
        <time>2019-09-08T12:38:13Z</time>
      </trkpt>
      <trkpt lat="45.9976129" lon="7.1283631">
        <ele>1109.93</ele>
        <time>2019-09-08T12:38:19Z</time>
      </trkpt>
      <trkpt lat="45.9977160" lon="7.1282864">
        <ele>1109.94</ele>
        <time>2019-09-08T12:38:27Z</time>
      </trkpt>
      <trkpt lat="45.9978140" lon="7.1282229">
        <ele>1110.92</ele>
        <time>2019-09-08T12:38:35Z</time>
      </trkpt>
      <trkpt lat="45.9979122" lon="7.1282322">
        <ele>1110.96</ele>
        <time>2019-09-08T12:38:43Z</time>
      </trkpt>
      <trkpt lat="45.9980042" lon="7.1283019">
        <ele>1110.24</ele>
        <time>2019-09-08T12:38:53Z</time>
      </trkpt>
      <trkpt lat="45.9980981" lon="7.1283902">
        <ele>1109.97</ele>
        <time>2019-09-08T12:39:03Z</time>
      </trkpt>
      <trkpt lat="45.9981905" lon="7.1283163">
        <ele>1109.94</ele>
        <time>2019-09-08T12:39:11Z</time>
      </trkpt>
      <trkpt lat="45.9982653" lon="7.1281872">
        <ele>1109.67</ele>
        <time>2019-09-08T12:39:19Z</time>
      </trkpt>
      <trkpt lat="45.9983010" lon="7.1280360">
        <ele>1108.95</ele>
        <time>2019-09-08T12:39:27Z</time>
      </trkpt>
      <trkpt lat="45.9983893" lon="7.1279747">
        <ele>1108.88</ele>
        <time>2019-09-08T12:39:35Z</time>
      </trkpt>
      <trkpt lat="45.9984997" lon="7.1279789">
        <ele>1107.97</ele>
        <time>2019-09-08T12:39:43Z</time>
      </trkpt>
      <trkpt lat="45.9986074" lon="7.1280156">
        <ele>1107.94</ele>
        <time>2019-09-08T12:39:51Z</time>
      </trkpt>
      <trkpt lat="45.9987044" lon="7.1280331">
        <ele>1108.17</ele>
        <time>2019-09-08T12:39:59Z</time>
      </trkpt>
      <trkpt lat="45.9988024" lon="7.1280090">
        <ele>1107.24</ele>
        <time>2019-09-08T12:40:07Z</time>
      </trkpt>
      <trkpt lat="45.9989073" lon="7.1280087">
        <ele>1106.96</ele>
        <time>2019-09-08T12:40:15Z</time>
      </trkpt>
      <trkpt lat="45.9990267" lon="7.1280372">
        <ele>1106.94</ele>
        <time>2019-09-08T12:40:23Z</time>
      </trkpt>
      <trkpt lat="45.9991298" lon="7.1280756">
        <ele>1105.04</ele>
        <time>2019-09-08T12:40:33Z</time>
      </trkpt>
      <trkpt lat="45.9992099" lon="7.1281411">
        <ele>1104.03</ele>
        <time>2019-09-08T12:40:41Z</time>
      </trkpt>
      <trkpt lat="45.9993196" lon="7.1281896">
        <ele>1103.94</ele>
        <time>2019-09-08T12:40:49Z</time>
      </trkpt>
      <trkpt lat="45.9994094" lon="7.1282291">
        <ele>1100.66</ele>
        <time>2019-09-08T12:40:57Z</time>
      </trkpt>
      <trkpt lat="45.9995088" lon="7.1282983">
        <ele>1096.42</ele>
        <time>2019-09-08T12:41:05Z</time>
      </trkpt>
      <trkpt lat="45.9996023" lon="7.1283534">
        <ele>1094.81</ele>
        <time>2019-09-08T12:41:13Z</time>
      </trkpt>
      <trkpt lat="45.9997137" lon="7.1283856">
        <ele>1093.31</ele>
        <time>2019-09-08T12:41:23Z</time>
      </trkpt>
      <trkpt lat="45.9998185" lon="7.1283676">
        <ele>1092.20</ele>
        <time>2019-09-08T12:41:31Z</time>
      </trkpt>
      <trkpt lat="45.9999094" lon="7.1283668">
        <ele>1091.95</ele>
        <time>2019-09-08T12:41:37Z</time>
      </trkpt>
      <trkpt lat="46.0000001" lon="7.1283308">
        <ele>1091.94</ele>
        <time>2019-09-08T12:41:43Z</time>
      </trkpt>
      <trkpt lat="46.0001116" lon="7.1282788">
        <ele>1091.18</ele>
        <time>2019-09-08T12:41:51Z</time>
      </trkpt>
      <trkpt lat="46.0002144" lon="7.1282294">
        <ele>1088.98</ele>
        <time>2019-09-08T12:41:59Z</time>
      </trkpt>
      <trkpt lat="46.0003075" lon="7.1281836">
        <ele>1087.33</ele>
        <time>2019-09-08T12:42:07Z</time>
      </trkpt>
      <trkpt lat="46.0004062" lon="7.1282366">
        <ele>1086.25</ele>
        <time>2019-09-08T12:42:15Z</time>
      </trkpt>
      <trkpt lat="46.0005009" lon="7.1282397">
        <ele>1085.04</ele>
        <time>2019-09-08T12:42:21Z</time>
      </trkpt>
      <trkpt lat="46.0006044" lon="7.1282085">
        <ele>1084.94</ele>
        <time>2019-09-08T12:42:29Z</time>
      </trkpt>
      <trkpt lat="46.0006901" lon="7.1281100">
        <ele>1084.94</ele>
        <time>2019-09-08T12:42:37Z</time>
      </trkpt>
      <trkpt lat="46.0007499" lon="7.1279884">
        <ele>1083.95</ele>
        <time>2019-09-08T12:42:49Z</time>
      </trkpt>
      <trkpt lat="46.0008500" lon="7.1279157">
        <ele>1082.97</ele>
        <time>2019-09-08T12:42:59Z</time>
      </trkpt>
      <trkpt lat="46.0009137" lon="7.1278223">
        <ele>1083.02</ele>
        <time>2019-09-08T12:43:41Z</time>
      </trkpt>
      <trkpt lat="46.0010009" lon="7.1277536">
        <ele>1082.94</ele>
        <time>2019-09-08T12:43:51Z</time>
      </trkpt>
      <trkpt lat="46.0010969" lon="7.1277422">
        <ele>1081.27</ele>
        <time>2019-09-08T12:43:59Z</time>
      </trkpt>
      <trkpt lat="46.0011896" lon="7.1276738">
        <ele>1080.94</ele>
        <time>2019-09-08T12:44:07Z</time>
      </trkpt>
      <trkpt lat="46.0012734" lon="7.1276069">
        <ele>1079.95</ele>
        <time>2019-09-08T12:44:15Z</time>
      </trkpt>
      <trkpt lat="46.0013809" lon="7.1275663">
        <ele>1078.24</ele>
        <time>2019-09-08T12:44:25Z</time>
      </trkpt>
      <trkpt lat="46.0014826" lon="7.1275733">
        <ele>1077.73</ele>
        <time>2019-09-08T12:44:33Z</time>
      </trkpt>
      <trkpt lat="46.0015587" lon="7.1275021">
        <ele>1076.95</ele>
        <time>2019-09-08T12:44:41Z</time>
      </trkpt>
      <trkpt lat="46.0015148" lon="7.1273772">
        <ele>1075.04</ele>
        <time>2019-09-08T12:44:51Z</time>
      </trkpt>
      <trkpt lat="46.0015994" lon="7.1274267">
        <ele>1070.48</ele>
        <time>2019-09-08T12:44:59Z</time>
      </trkpt>
      <trkpt lat="46.0017009" lon="7.1274199">
        <ele>1067.50</ele>
        <time>2019-09-08T12:45:05Z</time>
      </trkpt>
      <trkpt lat="46.0018146" lon="7.1273725">
        <ele>1063.27</ele>
        <time>2019-09-08T12:45:47Z</time>
      </trkpt>
      <trkpt lat="46.0018960" lon="7.1273159">
        <ele>1063.65</ele>
        <time>2019-09-08T12:45:53Z</time>
      </trkpt>
      <trkpt lat="46.0019854" lon="7.1272357">
        <ele>1063.94</ele>
        <time>2019-09-08T12:46:01Z</time>
      </trkpt>
      <trkpt lat="46.0020807" lon="7.1271482">
        <ele>1063.65</ele>
        <time>2019-09-08T12:46:09Z</time>
      </trkpt>
      <trkpt lat="46.0021462" lon="7.1270580">
        <ele>1063.94</ele>
        <time>2019-09-08T12:46:17Z</time>
      </trkpt>
      <trkpt lat="46.0022333" lon="7.1270129">
        <ele>1063.94</ele>
        <time>2019-09-08T12:46:27Z</time>
      </trkpt>
      <trkpt lat="46.0023290" lon="7.1269903">
        <ele>1063.24</ele>
        <time>2019-09-08T12:46:35Z</time>
      </trkpt>
      <trkpt lat="46.0024246" lon="7.1269023">
        <ele>1063.92</ele>
        <time>2019-09-08T12:46:45Z</time>
      </trkpt>
      <trkpt lat="46.0025081" lon="7.1268064">
        <ele>1063.03</ele>
        <time>2019-09-08T12:46:55Z</time>
      </trkpt>
      <trkpt lat="46.0025796" lon="7.1266972">
        <ele>1063.93</ele>
        <time>2019-09-08T12:47:03Z</time>
      </trkpt>
      <trkpt lat="46.0026090" lon="7.1265720">
        <ele>1063.94</ele>
        <time>2019-09-08T12:47:11Z</time>
      </trkpt>
      <trkpt lat="46.0026397" lon="7.1264310">
        <ele>1062.25</ele>
        <time>2019-09-08T12:47:19Z</time>
      </trkpt>
      <trkpt lat="46.0026449" lon="7.1262780">
        <ele>1060.97</ele>
        <time>2019-09-08T12:47:27Z</time>
      </trkpt>
      <trkpt lat="46.0026574" lon="7.1261401">
        <ele>1059.97</ele>
        <time>2019-09-08T12:47:33Z</time>
      </trkpt>
      <trkpt lat="46.0026804" lon="7.1260112">
        <ele>1059.94</ele>
        <time>2019-09-08T12:47:41Z</time>
      </trkpt>
      <trkpt lat="46.0026704" lon="7.1258407">
        <ele>1059.94</ele>
        <time>2019-09-08T12:47:51Z</time>
      </trkpt>
      <trkpt lat="46.0027671" lon="7.1257820">
        <ele>1056.85</ele>
        <time>2019-09-08T12:47:59Z</time>
      </trkpt>
      <trkpt lat="46.0028630" lon="7.1257538">
        <ele>1056.01</ele>
        <time>2019-09-08T12:48:07Z</time>
      </trkpt>
      <trkpt lat="46.0029475" lon="7.1256982">
        <ele>1055.22</ele>
        <time>2019-09-08T12:48:15Z</time>
      </trkpt>
      <trkpt lat="46.0030396" lon="7.1256959">
        <ele>1054.04</ele>
        <time>2019-09-08T12:48:21Z</time>
      </trkpt>
      <trkpt lat="46.0031292" lon="7.1256585">
        <ele>1053.94</ele>
        <time>2019-09-08T12:48:29Z</time>
      </trkpt>
      <trkpt lat="46.0032193" lon="7.1256366">
        <ele>1053.65</ele>
        <time>2019-09-08T12:48:37Z</time>
      </trkpt>
      <trkpt lat="46.0033233" lon="7.1256017">
        <ele>1052.97</ele>
        <time>2019-09-08T12:48:47Z</time>
      </trkpt>
      <trkpt lat="46.0034155" lon="7.1255483">
        <ele>1051.04</ele>
        <time>2019-09-08T12:48:57Z</time>
      </trkpt>
      <trkpt lat="46.0035143" lon="7.1255043">
        <ele>1049.25</ele>
        <time>2019-09-08T12:49:05Z</time>
      </trkpt>
      <trkpt lat="46.0036251" lon="7.1254798">
        <ele>1048.94</ele>
        <time>2019-09-08T12:49:13Z</time>
      </trkpt>
      <trkpt lat="46.0036974" lon="7.1253846">
        <ele>1048.94</ele>
        <time>2019-09-08T12:49:23Z</time>
      </trkpt>
      <trkpt lat="46.0035563" lon="7.1258203">
        <ele>1047.54</ele>
        <time>2019-09-08T12:54:17Z</time>
      </trkpt>
      <trkpt lat="46.0036194" lon="7.1256916">
        <ele>1050.43</ele>
        <time>2019-09-08T12:54:21Z</time>
      </trkpt>
      <trkpt lat="46.0036695" lon="7.1255840">
        <ele>1051.94</ele>
        <time>2019-09-08T13:07:32Z</time>
      </trkpt>
      <trkpt lat="46.0036594" lon="7.1254509">
        <ele>1044.09</ele>
        <time>2019-09-08T13:10:14Z</time>
      </trkpt>
      <trkpt lat="46.0038145" lon="7.1255230">
        <ele>1039.78</ele>
        <time>2019-09-08T13:26:16Z</time>
      </trkpt>
      <trkpt lat="46.0037294" lon="7.1254692">
        <ele>1042.38</ele>
        <time>2019-09-08T13:34:29Z</time>
      </trkpt>
      <trkpt lat="46.0037276" lon="7.1252862">
        <ele>1050.25</ele>
        <time>2019-09-08T13:35:36Z</time>
      </trkpt>
      <trkpt lat="46.0038204" lon="7.1252021">
        <ele>1047.22</ele>
        <time>2019-09-08T13:35:46Z</time>
      </trkpt>
      <trkpt lat="46.0039207" lon="7.1251800">
        <ele>1045.33</ele>
        <time>2019-09-08T13:35:54Z</time>
      </trkpt>
      <trkpt lat="46.0040131" lon="7.1251427">
        <ele>1044.05</ele>
        <time>2019-09-08T13:36:02Z</time>
      </trkpt>
      <trkpt lat="46.0041167" lon="7.1250856">
        <ele>1042.33</ele>
        <time>2019-09-08T13:36:13Z</time>
      </trkpt>
      <trkpt lat="46.0042045" lon="7.1249922">
        <ele>1040.76</ele>
        <time>2019-09-08T13:36:23Z</time>
      </trkpt>
      <trkpt lat="46.0042918" lon="7.1249358">
        <ele>1039.97</ele>
        <time>2019-09-08T13:36:31Z</time>
      </trkpt>
      <trkpt lat="46.0043885" lon="7.1248892">
        <ele>1040.85</ele>
        <time>2019-09-08T13:36:39Z</time>
      </trkpt>
      <trkpt lat="46.0044692" lon="7.1247772">
        <ele>1038.95</ele>
        <time>2019-09-08T13:36:49Z</time>
      </trkpt>
      <trkpt lat="46.0045630" lon="7.1247496">
        <ele>1038.24</ele>
        <time>2019-09-08T13:36:57Z</time>
      </trkpt>
      <trkpt lat="46.0046530" lon="7.1246902">
        <ele>1037.03</ele>
        <time>2019-09-08T13:37:05Z</time>
      </trkpt>
      <trkpt lat="46.0047350" lon="7.1246229">
        <ele>1036.94</ele>
        <time>2019-09-08T13:37:15Z</time>
      </trkpt>
      <trkpt lat="46.0048291" lon="7.1245575">
        <ele>1036.03</ele>
        <time>2019-09-08T13:37:25Z</time>
      </trkpt>
      <trkpt lat="46.0049198" lon="7.1245010">
        <ele>1036.64</ele>
        <time>2019-09-08T13:37:33Z</time>
      </trkpt>
      <trkpt lat="46.0050085" lon="7.1244181">
        <ele>1035.95</ele>
        <time>2019-09-08T13:37:43Z</time>
      </trkpt>
      <trkpt lat="46.0051003" lon="7.1243484">
        <ele>1035.94</ele>
        <time>2019-09-08T13:37:51Z</time>
      </trkpt>
      <trkpt lat="46.0051965" lon="7.1243001">
        <ele>1035.25</ele>
        <time>2019-09-08T13:38:01Z</time>
      </trkpt>
      <trkpt lat="46.0052944" lon="7.1242561">
        <ele>1033.97</ele>
        <time>2019-09-08T13:38:09Z</time>
      </trkpt>
      <trkpt lat="46.0054027" lon="7.1242277">
        <ele>1033.94</ele>
        <time>2019-09-08T13:38:17Z</time>
      </trkpt>
      <trkpt lat="46.0055023" lon="7.1241974">
        <ele>1034.94</ele>
        <time>2019-09-08T13:38:27Z</time>
      </trkpt>
      <trkpt lat="46.0055951" lon="7.1241610">
        <ele>1035.21</ele>
        <time>2019-09-08T13:38:37Z</time>
      </trkpt>
      <trkpt lat="46.0056797" lon="7.1240982">
        <ele>1035.64</ele>
        <time>2019-09-08T13:38:47Z</time>
      </trkpt>
      <trkpt lat="46.0057641" lon="7.1240156">
        <ele>1036.85</ele>
        <time>2019-09-08T13:38:57Z</time>
      </trkpt>
      <trkpt lat="46.0058256" lon="7.1239130">
        <ele>1039.63</ele>
        <time>2019-09-08T13:39:07Z</time>
      </trkpt>
      <trkpt lat="46.0059038" lon="7.1238095">
        <ele>1041.64</ele>
        <time>2019-09-08T13:39:17Z</time>
      </trkpt>
      <trkpt lat="46.0059755" lon="7.1237263">
        <ele>1043.53</ele>
        <time>2019-09-08T13:39:31Z</time>
      </trkpt>
      <trkpt lat="46.0059917" lon="7.1235873">
        <ele>1050.30</ele>
        <time>2019-09-08T13:39:43Z</time>
      </trkpt>
      <trkpt lat="46.0060158" lon="7.1234562">
        <ele>1052.56</ele>
        <time>2019-09-08T13:39:55Z</time>
      </trkpt>
      <trkpt lat="46.0060343" lon="7.1233210">
        <ele>1052.94</ele>
        <time>2019-09-08T13:40:11Z</time>
      </trkpt>
      <trkpt lat="46.0060836" lon="7.1231908">
        <ele>1053.64</ele>
        <time>2019-09-08T13:40:25Z</time>
      </trkpt>
      <trkpt lat="46.0061384" lon="7.1230719">
        <ele>1055.83</ele>
        <time>2019-09-08T13:40:37Z</time>
      </trkpt>
      <trkpt lat="46.0062331" lon="7.1231220">
        <ele>1057.63</ele>
        <time>2019-09-08T13:40:49Z</time>
      </trkpt>
      <trkpt lat="46.0062764" lon="7.1232380">
        <ele>1057.94</ele>
        <time>2019-09-08T13:40:57Z</time>
      </trkpt>
      <trkpt lat="46.0062957" lon="7.1233953">
        <ele>1056.94</ele>
        <time>2019-09-08T13:41:09Z</time>
      </trkpt>
      <trkpt lat="46.0063546" lon="7.1234972">
        <ele>1057.85</ele>
        <time>2019-09-08T13:41:21Z</time>
      </trkpt>
      <trkpt lat="46.0064032" lon="7.1236114">
        <ele>1058.85</ele>
        <time>2019-09-08T13:41:33Z</time>
      </trkpt>
      <trkpt lat="46.0065032" lon="7.1236243">
        <ele>1062.46</ele>
        <time>2019-09-08T13:41:45Z</time>
      </trkpt>
      <trkpt lat="46.0066049" lon="7.1235903">
        <ele>1063.85</ele>
        <time>2019-09-08T13:41:55Z</time>
      </trkpt>
      <trkpt lat="46.0067094" lon="7.1235818">
        <ele>1065.61</ele>
        <time>2019-09-08T13:42:05Z</time>
      </trkpt>
      <trkpt lat="46.0068146" lon="7.1235493">
        <ele>1068.56</ele>
        <time>2019-09-08T13:42:17Z</time>
      </trkpt>
      <trkpt lat="46.0068996" lon="7.1234677">
        <ele>1072.28</ele>
        <time>2019-09-08T13:42:25Z</time>
      </trkpt>
      <trkpt lat="46.0069680" lon="7.1233431">
        <ele>1075.61</ele>
        <time>2019-09-08T13:42:37Z</time>
      </trkpt>
      <trkpt lat="46.0070275" lon="7.1232317">
        <ele>1075.94</ele>
        <time>2019-09-08T13:42:45Z</time>
      </trkpt>
      <trkpt lat="46.0071190" lon="7.1231940">
        <ele>1076.92</ele>
        <time>2019-09-08T13:42:57Z</time>
      </trkpt>
      <trkpt lat="46.0072104" lon="7.1231935">
        <ele>1078.94</ele>
        <time>2019-09-08T13:43:09Z</time>
      </trkpt>
      <trkpt lat="46.0072899" lon="7.1232578">
        <ele>1078.16</ele>
        <time>2019-09-08T13:43:21Z</time>
      </trkpt>
      <trkpt lat="46.0073547" lon="7.1233508">
        <ele>1079.83</ele>
        <time>2019-09-08T13:43:35Z</time>
      </trkpt>
      <trkpt lat="46.0074250" lon="7.1232580">
        <ele>1082.90</ele>
        <time>2019-09-08T13:43:45Z</time>
      </trkpt>
      <trkpt lat="46.0075006" lon="7.1231558">
        <ele>1086.80</ele>
        <time>2019-09-08T13:43:59Z</time>
      </trkpt>
      <trkpt lat="46.0075618" lon="7.1230413">
        <ele>1092.61</ele>
        <time>2019-09-08T13:44:15Z</time>
      </trkpt>
      <trkpt lat="46.0076445" lon="7.1229868">
        <ele>1094.85</ele>
        <time>2019-09-08T13:44:27Z</time>
      </trkpt>
      <trkpt lat="46.0077532" lon="7.1230134">
        <ele>1095.94</ele>
        <time>2019-09-08T13:44:37Z</time>
      </trkpt>
      <trkpt lat="46.0078501" lon="7.1230006">
        <ele>1096.94</ele>
        <time>2019-09-08T13:44:47Z</time>
      </trkpt>
      <trkpt lat="46.0079433" lon="7.1230172">
        <ele>1097.92</ele>
        <time>2019-09-08T13:44:57Z</time>
      </trkpt>
      <trkpt lat="46.0080531" lon="7.1230100">
        <ele>1097.86</ele>
        <time>2019-09-08T13:45:07Z</time>
      </trkpt>
      <trkpt lat="46.0081450" lon="7.1230271">
        <ele>1098.64</ele>
        <time>2019-09-08T13:45:15Z</time>
      </trkpt>
      <trkpt lat="46.0082398" lon="7.1230483">
        <ele>1097.97</ele>
        <time>2019-09-08T13:45:23Z</time>
      </trkpt>
      <trkpt lat="46.0083351" lon="7.1230980">
        <ele>1098.94</ele>
        <time>2019-09-08T13:45:33Z</time>
      </trkpt>
      <trkpt lat="46.0084279" lon="7.1231434">
        <ele>1097.94</ele>
        <time>2019-09-08T13:45:43Z</time>
      </trkpt>
      <trkpt lat="46.0085174" lon="7.1231940">
        <ele>1097.24</ele>
        <time>2019-09-08T13:45:51Z</time>
      </trkpt>
      <trkpt lat="46.0086216" lon="7.1232465">
        <ele>1097.85</ele>
        <time>2019-09-08T13:46:01Z</time>
      </trkpt>
      <trkpt lat="46.0087126" lon="7.1232770">
        <ele>1098.91</ele>
        <time>2019-09-08T13:46:13Z</time>
      </trkpt>
      <trkpt lat="46.0087816" lon="7.1231927">
        <ele>1100.85</ele>
        <time>2019-09-08T13:46:29Z</time>
      </trkpt>
      <trkpt lat="46.0088530" lon="7.1232763">
        <ele>1103.61</ele>
        <time>2019-09-08T13:46:45Z</time>
      </trkpt>
      <trkpt lat="46.0089323" lon="7.1233665">
        <ele>1104.94</ele>
        <time>2019-09-08T13:47:01Z</time>
      </trkpt>
      <trkpt lat="46.0090205" lon="7.1234198">
        <ele>1107.91</ele>
        <time>2019-09-08T13:47:17Z</time>
      </trkpt>
      <trkpt lat="46.0091055" lon="7.1234683">
        <ele>1108.85</ele>
        <time>2019-09-08T13:47:33Z</time>
      </trkpt>
      <trkpt lat="46.0091909" lon="7.1235306">
        <ele>1110.93</ele>
        <time>2019-09-08T13:47:47Z</time>
      </trkpt>
      <trkpt lat="46.0092860" lon="7.1235714">
        <ele>1111.93</ele>
        <time>2019-09-08T13:48:07Z</time>
      </trkpt>
      <trkpt lat="46.0093821" lon="7.1236033">
        <ele>1114.82</ele>
        <time>2019-09-08T13:48:25Z</time>
      </trkpt>
      <trkpt lat="46.0094612" lon="7.1235324">
        <ele>1119.60</ele>
        <time>2019-09-08T13:48:39Z</time>
      </trkpt>
      <trkpt lat="46.0094119" lon="7.1234208">
        <ele>1121.85</ele>
        <time>2019-09-08T13:48:53Z</time>
      </trkpt>
      <trkpt lat="46.0094402" lon="7.1232775">
        <ele>1127.63</ele>
        <time>2019-09-08T13:49:17Z</time>
      </trkpt>
      <trkpt lat="46.0094547" lon="7.1231463">
        <ele>1130.96</ele>
        <time>2019-09-08T13:49:37Z</time>
      </trkpt>
      <trkpt lat="46.0094342" lon="7.1230051">
        <ele>1139.85</ele>
        <time>2019-09-08T13:50:15Z</time>
      </trkpt>
      <trkpt lat="46.0094694" lon="7.1228836">
        <ele>1142.93</ele>
        <time>2019-09-08T13:50:35Z</time>
      </trkpt>
      <trkpt lat="46.0095317" lon="7.1227729">
        <ele>1145.85</ele>
        <time>2019-09-08T13:50:55Z</time>
      </trkpt>
      <trkpt lat="46.0096123" lon="7.1226802">
        <ele>1146.85</ele>
        <time>2019-09-08T13:51:07Z</time>
      </trkpt>
      <trkpt lat="46.0096231" lon="7.1225262">
        <ele>1147.85</ele>
        <time>2019-09-08T13:51:19Z</time>
      </trkpt>
      <trkpt lat="46.0096232" lon="7.1223685">
        <ele>1149.85</ele>
        <time>2019-09-08T13:51:31Z</time>
      </trkpt>
      <trkpt lat="46.0096374" lon="7.1222324">
        <ele>1151.12</ele>
        <time>2019-09-08T13:51:41Z</time>
      </trkpt>
      <trkpt lat="46.0096554" lon="7.1221046">
        <ele>1153.89</ele>
        <time>2019-09-08T13:52:05Z</time>
      </trkpt>
      <trkpt lat="46.0096555" lon="7.1219676">
        <ele>1153.94</ele>
        <time>2019-09-08T13:52:15Z</time>
      </trkpt>
      <trkpt lat="46.0096663" lon="7.1218343">
        <ele>1154.94</ele>
        <time>2019-09-08T13:52:25Z</time>
      </trkpt>
      <trkpt lat="46.0097303" lon="7.1217338">
        <ele>1154.65</ele>
        <time>2019-09-08T13:52:35Z</time>
      </trkpt>
      <trkpt lat="46.0098008" lon="7.1216167">
        <ele>1157.55</ele>
        <time>2019-09-08T13:52:47Z</time>
      </trkpt>
      <trkpt lat="46.0098394" lon="7.1214951">
        <ele>1158.91</ele>
        <time>2019-09-08T13:52:57Z</time>
      </trkpt>
      <trkpt lat="46.0098912" lon="7.1213840">
        <ele>1160.84</ele>
        <time>2019-09-08T13:53:07Z</time>
      </trkpt>
      <trkpt lat="46.0099490" lon="7.1212844">
        <ele>1163.82</ele>
        <time>2019-09-08T13:53:17Z</time>
      </trkpt>
      <trkpt lat="46.0100045" lon="7.1211571">
        <ele>1164.94</ele>
        <time>2019-09-08T13:53:29Z</time>
      </trkpt>
      <trkpt lat="46.0100745" lon="7.1210467">
        <ele>1165.85</ele>
        <time>2019-09-08T13:53:41Z</time>
      </trkpt>
      <trkpt lat="46.0101259" lon="7.1209280">
        <ele>1166.93</ele>
        <time>2019-09-08T13:53:51Z</time>
      </trkpt>
      <trkpt lat="46.0101482" lon="7.1207884">
        <ele>1166.94</ele>
        <time>2019-09-08T13:54:03Z</time>
      </trkpt>
      <trkpt lat="46.0101889" lon="7.1206498">
        <ele>1168.84</ele>
        <time>2019-09-08T13:54:15Z</time>
      </trkpt>
      <trkpt lat="46.0102147" lon="7.1205063">
        <ele>1169.91</ele>
        <time>2019-09-08T13:54:27Z</time>
      </trkpt>
      <trkpt lat="46.0102762" lon="7.1203899">
        <ele>1170.93</ele>
        <time>2019-09-08T13:54:37Z</time>
      </trkpt>
      <trkpt lat="46.0103524" lon="7.1203033">
        <ele>1172.84</ele>
        <time>2019-09-08T13:54:47Z</time>
      </trkpt>
      <trkpt lat="46.0104376" lon="7.1202145">
        <ele>1174.85</ele>
        <time>2019-09-08T13:54:57Z</time>
      </trkpt>
      <trkpt lat="46.0105149" lon="7.1201368">
        <ele>1176.91</ele>
        <time>2019-09-08T13:55:07Z</time>
      </trkpt>
      <trkpt lat="46.0106117" lon="7.1200872">
        <ele>1177.96</ele>
        <time>2019-09-08T13:55:19Z</time>
      </trkpt>
      <trkpt lat="46.0107126" lon="7.1200827">
        <ele>1179.85</ele>
        <time>2019-09-08T13:55:31Z</time>
      </trkpt>
      <trkpt lat="46.0108081" lon="7.1200448">
        <ele>1181.61</ele>
        <time>2019-09-08T13:55:43Z</time>
      </trkpt>
      <trkpt lat="46.0108832" lon="7.1199591">
        <ele>1181.94</ele>
        <time>2019-09-08T13:55:51Z</time>
      </trkpt>
      <trkpt lat="46.0109527" lon="7.1198501">
        <ele>1183.64</ele>
        <time>2019-09-08T13:56:03Z</time>
      </trkpt>
      <trkpt lat="46.0109930" lon="7.1197342">
        <ele>1184.91</ele>
        <time>2019-09-08T13:56:13Z</time>
      </trkpt>
      <trkpt lat="46.0109994" lon="7.1195909">
        <ele>1186.85</ele>
        <time>2019-09-08T13:56:25Z</time>
      </trkpt>
      <trkpt lat="46.0110142" lon="7.1194595">
        <ele>1187.91</ele>
        <time>2019-09-08T13:56:37Z</time>
      </trkpt>
      <trkpt lat="46.0110265" lon="7.1193165">
        <ele>1187.94</ele>
        <time>2019-09-08T13:56:47Z</time>
      </trkpt>
      <trkpt lat="46.0110092" lon="7.1191757">
        <ele>1187.94</ele>
        <time>2019-09-08T13:56:59Z</time>
      </trkpt>
      <trkpt lat="46.0109671" lon="7.1190453">
        <ele>1188.94</ele>
        <time>2019-09-08T13:57:09Z</time>
      </trkpt>
      <trkpt lat="46.0109577" lon="7.1189035">
        <ele>1190.84</ele>
        <time>2019-09-08T13:57:19Z</time>
      </trkpt>
      <trkpt lat="46.0110130" lon="7.1187901">
        <ele>1190.94</ele>
        <time>2019-09-08T13:57:29Z</time>
      </trkpt>
      <trkpt lat="46.0110500" lon="7.1186717">
        <ele>1191.94</ele>
        <time>2019-09-08T13:57:39Z</time>
      </trkpt>
      <trkpt lat="46.0111086" lon="7.1185668">
        <ele>1192.93</ele>
        <time>2019-09-08T13:57:49Z</time>
      </trkpt>
      <trkpt lat="46.0111694" lon="7.1184605">
        <ele>1192.18</ele>
        <time>2019-09-08T13:57:59Z</time>
      </trkpt>
      <trkpt lat="46.0112321" lon="7.1183278">
        <ele>1193.85</ele>
        <time>2019-09-08T13:58:09Z</time>
      </trkpt>
      <trkpt lat="46.0112786" lon="7.1181957">
        <ele>1194.85</ele>
        <time>2019-09-08T13:58:19Z</time>
      </trkpt>
      <trkpt lat="46.0113126" lon="7.1180530">
        <ele>1196.64</ele>
        <time>2019-09-08T13:58:31Z</time>
      </trkpt>
      <trkpt lat="46.0113607" lon="7.1179324">
        <ele>1198.84</ele>
        <time>2019-09-08T13:58:41Z</time>
      </trkpt>
      <trkpt lat="46.0114295" lon="7.1178287">
        <ele>1200.82</ele>
        <time>2019-09-08T13:58:51Z</time>
      </trkpt>
      <trkpt lat="46.0114606" lon="7.1176853">
        <ele>1203.00</ele>
        <time>2019-09-08T13:59:09Z</time>
      </trkpt>
      <trkpt lat="46.0114685" lon="7.1178258">
        <ele>1205.53</ele>
        <time>2019-09-08T14:00:03Z</time>
      </trkpt>
      <trkpt lat="46.0114991" lon="7.1179552">
        <ele>1204.76</ele>
        <time>2019-09-08T14:00:53Z</time>
      </trkpt>
      <trkpt lat="46.0114755" lon="7.1180927">
        <ele>1211.23</ele>
        <time>2019-09-08T14:01:31Z</time>
      </trkpt>
      <trkpt lat="46.0114416" lon="7.1182208">
        <ele>1212.64</ele>
        <time>2019-09-08T14:01:43Z</time>
      </trkpt>
      <trkpt lat="46.0114969" lon="7.1183417">
        <ele>1213.42</ele>
        <time>2019-09-08T14:01:53Z</time>
      </trkpt>
      <trkpt lat="46.0115194" lon="7.1184807">
        <ele>1215.91</ele>
        <time>2019-09-08T14:02:03Z</time>
      </trkpt>
      <trkpt lat="46.0115487" lon="7.1186106">
        <ele>1215.97</ele>
        <time>2019-09-08T14:02:17Z</time>
      </trkpt>
      <trkpt lat="46.0115618" lon="7.1187548">
        <ele>1216.55</ele>
        <time>2019-09-08T14:02:33Z</time>
      </trkpt>
      <trkpt lat="46.0115520" lon="7.1188861">
        <ele>1218.91</ele>
        <time>2019-09-08T14:02:45Z</time>
      </trkpt>
      <trkpt lat="46.0116082" lon="7.1190262">
        <ele>1221.61</ele>
        <time>2019-09-08T14:02:57Z</time>
      </trkpt>
      <trkpt lat="46.0116545" lon="7.1191716">
        <ele>1219.28</ele>
        <time>2019-09-08T14:03:09Z</time>
      </trkpt>
      <trkpt lat="46.0117000" lon="7.1193013">
        <ele>1218.26</ele>
        <time>2019-09-08T14:03:21Z</time>
      </trkpt>
      <trkpt lat="46.0117697" lon="7.1194137">
        <ele>1218.23</ele>
        <time>2019-09-08T14:03:33Z</time>
      </trkpt>
      <trkpt lat="46.0118439" lon="7.1195123">
        <ele>1215.98</ele>
        <time>2019-09-08T14:03:45Z</time>
      </trkpt>
      <trkpt lat="46.0119401" lon="7.1195900">
        <ele>1216.85</ele>
        <time>2019-09-08T14:03:55Z</time>
      </trkpt>
      <trkpt lat="46.0120325" lon="7.1196453">
        <ele>1216.94</ele>
        <time>2019-09-08T14:04:29Z</time>
      </trkpt>
      <trkpt lat="46.0120831" lon="7.1195375">
        <ele>1217.92</ele>
        <time>2019-09-08T14:04:39Z</time>
      </trkpt>
      <trkpt lat="46.0121776" lon="7.1195343">
        <ele>1217.85</ele>
        <time>2019-09-08T14:04:51Z</time>
      </trkpt>
      <trkpt lat="46.0122696" lon="7.1195572">
        <ele>1218.85</ele>
        <time>2019-09-08T14:05:01Z</time>
      </trkpt>
      <trkpt lat="46.0123615" lon="7.1195798">
        <ele>1220.93</ele>
        <time>2019-09-08T14:05:15Z</time>
      </trkpt>
      <trkpt lat="46.0124537" lon="7.1195613">
        <ele>1222.85</ele>
        <time>2019-09-08T14:05:27Z</time>
      </trkpt>
      <trkpt lat="46.0125438" lon="7.1196339">
        <ele>1223.93</ele>
        <time>2019-09-08T14:05:39Z</time>
      </trkpt>
      <trkpt lat="46.0126193" lon="7.1197060">
        <ele>1225.84</ele>
        <time>2019-09-08T14:05:47Z</time>
      </trkpt>
      <trkpt lat="46.0127046" lon="7.1197653">
        <ele>1226.64</ele>
        <time>2019-09-08T14:05:59Z</time>
      </trkpt>
      <trkpt lat="46.0128094" lon="7.1197253">
        <ele>1227.94</ele>
        <time>2019-09-08T14:06:13Z</time>
      </trkpt>
      <trkpt lat="46.0129119" lon="7.1197512">
        <ele>1229.63</ele>
        <time>2019-09-08T14:06:29Z</time>
      </trkpt>
      <trkpt lat="46.0129812" lon="7.1198357">
        <ele>1229.94</ele>
        <time>2019-09-08T14:06:37Z</time>
      </trkpt>
      <trkpt lat="46.0130437" lon="7.1199362">
        <ele>1230.85</ele>
        <time>2019-09-08T14:06:49Z</time>
      </trkpt>
      <trkpt lat="46.0131211" lon="7.1200300">
        <ele>1232.63</ele>
        <time>2019-09-08T14:07:01Z</time>
      </trkpt>
      <trkpt lat="46.0131827" lon="7.1201411">
        <ele>1233.85</ele>
        <time>2019-09-08T14:07:13Z</time>
      </trkpt>
      <trkpt lat="46.0132678" lon="7.1202337">
        <ele>1235.63</ele>
        <time>2019-09-08T14:07:23Z</time>
      </trkpt>
      <trkpt lat="46.0133431" lon="7.1203078">
        <ele>1236.94</ele>
        <time>2019-09-08T14:07:33Z</time>
      </trkpt>
      <trkpt lat="46.0134256" lon="7.1203847">
        <ele>1238.91</ele>
        <time>2019-09-08T14:07:45Z</time>
      </trkpt>
      <trkpt lat="46.0134933" lon="7.1204775">
        <ele>1238.53</ele>
        <time>2019-09-08T14:07:57Z</time>
      </trkpt>
      <trkpt lat="46.0135755" lon="7.1205574">
        <ele>1241.64</ele>
        <time>2019-09-08T14:08:09Z</time>
      </trkpt>
      <trkpt lat="46.0136055" lon="7.1206797">
        <ele>1243.93</ele>
        <time>2019-09-08T14:08:23Z</time>
      </trkpt>
      <trkpt lat="46.0136979" lon="7.1207361">
        <ele>1245.61</ele>
        <time>2019-09-08T14:08:39Z</time>
      </trkpt>
      <trkpt lat="46.0137693" lon="7.1208387">
        <ele>1248.91</ele>
        <time>2019-09-08T14:08:53Z</time>
      </trkpt>
      <trkpt lat="46.0138456" lon="7.1209425">
        <ele>1252.61</ele>
        <time>2019-09-08T14:09:09Z</time>
      </trkpt>
      <trkpt lat="46.0139486" lon="7.1209465">
        <ele>1255.91</ele>
        <time>2019-09-08T14:09:25Z</time>
      </trkpt>
      <trkpt lat="46.0139524" lon="7.1208040">
        <ele>1257.15</ele>
        <time>2019-09-08T14:09:45Z</time>
      </trkpt>
      <trkpt lat="46.0139282" lon="7.1206616">
        <ele>1257.94</ele>
        <time>2019-09-08T14:09:59Z</time>
      </trkpt>
      <trkpt lat="46.0139486" lon="7.1205248">
        <ele>1260.84</ele>
        <time>2019-09-08T14:10:13Z</time>
      </trkpt>
      <trkpt lat="46.0139409" lon="7.1203886">
        <ele>1262.93</ele>
        <time>2019-09-08T14:10:27Z</time>
      </trkpt>
      <trkpt lat="46.0139305" lon="7.1202567">
        <ele>1264.63</ele>
        <time>2019-09-08T14:10:43Z</time>
      </trkpt>
      <trkpt lat="46.0139853" lon="7.1201380">
        <ele>1268.64</ele>
        <time>2019-09-08T14:10:57Z</time>
      </trkpt>
      <trkpt lat="46.0140192" lon="7.1200171">
        <ele>1269.64</ele>
        <time>2019-09-08T14:11:11Z</time>
      </trkpt>
      <trkpt lat="46.0141096" lon="7.1199479">
        <ele>1270.94</ele>
        <time>2019-09-08T14:11:23Z</time>
      </trkpt>
      <trkpt lat="46.0141808" lon="7.1198622">
        <ele>1272.83</ele>
        <time>2019-09-08T14:11:39Z</time>
      </trkpt>
      <trkpt lat="46.0142264" lon="7.1197436">
        <ele>1274.93</ele>
        <time>2019-09-08T14:11:53Z</time>
      </trkpt>
      <trkpt lat="46.0142638" lon="7.1196153">
        <ele>1276.63</ele>
        <time>2019-09-08T14:12:05Z</time>
      </trkpt>
      <trkpt lat="46.0143617" lon="7.1196137">
        <ele>1279.91</ele>
        <time>2019-09-08T14:12:19Z</time>
      </trkpt>
      <trkpt lat="46.0144557" lon="7.1196553">
        <ele>1282.91</ele>
        <time>2019-09-08T14:12:33Z</time>
      </trkpt>
      <trkpt lat="46.0145154" lon="7.1197614">
        <ele>1285.84</ele>
        <time>2019-09-08T14:12:45Z</time>
      </trkpt>
      <trkpt lat="46.0146146" lon="7.1197575">
        <ele>1285.94</ele>
        <time>2019-09-08T14:12:57Z</time>
      </trkpt>
      <trkpt lat="46.0147148" lon="7.1197279">
        <ele>1288.63</ele>
        <time>2019-09-08T14:13:09Z</time>
      </trkpt>
      <trkpt lat="46.0148121" lon="7.1196997">
        <ele>1290.91</ele>
        <time>2019-09-08T14:13:19Z</time>
      </trkpt>
      <trkpt lat="46.0149017" lon="7.1196761">
        <ele>1292.64</ele>
        <time>2019-09-08T14:13:29Z</time>
      </trkpt>
      <trkpt lat="46.0149960" lon="7.1197405">
        <ele>1293.86</ele>
        <time>2019-09-08T14:13:43Z</time>
      </trkpt>
      <trkpt lat="46.0150820" lon="7.1198175">
        <ele>1293.75</ele>
        <time>2019-09-08T14:13:53Z</time>
      </trkpt>
      <trkpt lat="46.0151756" lon="7.1198455">
        <ele>1295.61</ele>
        <time>2019-09-08T14:14:01Z</time>
      </trkpt>
      <trkpt lat="46.0152671" lon="7.1198509">
        <ele>1295.85</ele>
        <time>2019-09-08T14:14:11Z</time>
      </trkpt>
      <trkpt lat="46.0153710" lon="7.1198201">
        <ele>1296.93</ele>
        <time>2019-09-08T14:14:23Z</time>
      </trkpt>
      <trkpt lat="46.0154768" lon="7.1198011">
        <ele>1296.94</ele>
        <time>2019-09-08T14:14:33Z</time>
      </trkpt>
      <trkpt lat="46.0155689" lon="7.1197396">
        <ele>1297.94</ele>
        <time>2019-09-08T14:14:47Z</time>
      </trkpt>
      <trkpt lat="46.0156598" lon="7.1197507">
        <ele>1298.64</ele>
        <time>2019-09-08T14:14:59Z</time>
      </trkpt>
      <trkpt lat="46.0157598" lon="7.1197212">
        <ele>1299.64</ele>
        <time>2019-09-08T14:15:15Z</time>
      </trkpt>
      <trkpt lat="46.0158507" lon="7.1197457">
        <ele>1302.63</ele>
        <time>2019-09-08T14:15:33Z</time>
      </trkpt>
      <trkpt lat="46.0159455" lon="7.1197181">
        <ele>1303.94</ele>
        <time>2019-09-08T14:15:47Z</time>
      </trkpt>
      <trkpt lat="46.0160327" lon="7.1196846">
        <ele>1307.82</ele>
        <time>2019-09-08T14:15:59Z</time>
      </trkpt>
      <trkpt lat="46.0161243" lon="7.1196868">
        <ele>1306.89</ele>
        <time>2019-09-08T14:16:11Z</time>
      </trkpt>
      <trkpt lat="46.0161573" lon="7.1195486">
        <ele>1307.85</ele>
        <time>2019-09-08T14:16:23Z</time>
      </trkpt>
      <trkpt lat="46.0161989" lon="7.1194147">
        <ele>1309.82</ele>
        <time>2019-09-08T14:16:35Z</time>
      </trkpt>
      <trkpt lat="46.0162874" lon="7.1193617">
        <ele>1310.70</ele>
        <time>2019-09-08T14:16:43Z</time>
      </trkpt>
      <trkpt lat="46.0163801" lon="7.1193021">
        <ele>1310.94</ele>
        <time>2019-09-08T14:16:55Z</time>
      </trkpt>
      <trkpt lat="46.0164886" lon="7.1193183">
        <ele>1311.92</ele>
        <time>2019-09-08T14:17:07Z</time>
      </trkpt>
      <trkpt lat="46.0165922" lon="7.1193049">
        <ele>1312.03</ele>
        <time>2019-09-08T14:17:17Z</time>
      </trkpt>
      <trkpt lat="46.0166992" lon="7.1192965">
        <ele>1312.21</ele>
        <time>2019-09-08T14:17:31Z</time>
      </trkpt>
      <trkpt lat="46.0167930" lon="7.1192206">
        <ele>1310.06</ele>
        <time>2019-09-08T14:17:41Z</time>
      </trkpt>
      <trkpt lat="46.0168875" lon="7.1191608">
        <ele>1310.92</ele>
        <time>2019-09-08T14:17:51Z</time>
      </trkpt>
      <trkpt lat="46.0169737" lon="7.1191200">
        <ele>1311.64</ele>
        <time>2019-09-08T14:18:01Z</time>
      </trkpt>
      <trkpt lat="46.0170690" lon="7.1190756">
        <ele>1311.73</ele>
        <time>2019-09-08T14:18:11Z</time>
      </trkpt>
      <trkpt lat="46.0171711" lon="7.1190191">
        <ele>1311.03</ele>
        <time>2019-09-08T14:18:21Z</time>
      </trkpt>
      <trkpt lat="46.0172640" lon="7.1190075">
        <ele>1310.94</ele>
        <time>2019-09-08T14:18:31Z</time>
      </trkpt>
      <trkpt lat="46.0173530" lon="7.1190274">
        <ele>1309.94</ele>
        <time>2019-09-08T14:18:45Z</time>
      </trkpt>
      <trkpt lat="46.0174628" lon="7.1189939">
        <ele>1309.94</ele>
        <time>2019-09-08T14:18:57Z</time>
      </trkpt>
      <trkpt lat="46.0175522" lon="7.1189421">
        <ele>1308.24</ele>
        <time>2019-09-08T14:19:07Z</time>
      </trkpt>
      <trkpt lat="46.0176496" lon="7.1189019">
        <ele>1308.94</ele>
        <time>2019-09-08T14:19:17Z</time>
      </trkpt>
      <trkpt lat="46.0177341" lon="7.1189548">
        <ele>1309.94</ele>
        <time>2019-09-08T14:19:29Z</time>
      </trkpt>
      <trkpt lat="46.0178230" lon="7.1190398">
        <ele>1309.94</ele>
        <time>2019-09-08T14:19:41Z</time>
      </trkpt>
      <trkpt lat="46.0178950" lon="7.1191282">
        <ele>1308.24</ele>
        <time>2019-09-08T14:19:55Z</time>
      </trkpt>
      <trkpt lat="46.0179664" lon="7.1192086">
        <ele>1309.55</ele>
        <time>2019-09-08T14:20:07Z</time>
      </trkpt>
      <trkpt lat="46.0180546" lon="7.1192953">
        <ele>1310.64</ele>
        <time>2019-09-08T14:20:19Z</time>
      </trkpt>
      <trkpt lat="46.0181382" lon="7.1193534">
        <ele>1310.94</ele>
        <time>2019-09-08T14:20:33Z</time>
      </trkpt>
      <trkpt lat="46.0181995" lon="7.1194560">
        <ele>1309.97</ele>
        <time>2019-09-08T14:20:47Z</time>
      </trkpt>
      <trkpt lat="46.0182475" lon="7.1195686">
        <ele>1309.94</ele>
        <time>2019-09-08T14:20:59Z</time>
      </trkpt>
      <trkpt lat="46.0183137" lon="7.1196565">
        <ele>1312.54</ele>
        <time>2019-09-08T14:21:11Z</time>
      </trkpt>
      <trkpt lat="46.0184060" lon="7.1197262">
        <ele>1313.64</ele>
        <time>2019-09-08T14:21:23Z</time>
      </trkpt>
      <trkpt lat="46.0184785" lon="7.1198145">
        <ele>1316.61</ele>
        <time>2019-09-08T14:21:43Z</time>
      </trkpt>
      <trkpt lat="46.0185243" lon="7.1199475">
        <ele>1325.52</ele>
        <time>2019-09-08T14:22:11Z</time>
      </trkpt>
      <trkpt lat="46.0186154" lon="7.1199480">
        <ele>1327.91</ele>
        <time>2019-09-08T14:22:23Z</time>
      </trkpt>
      <trkpt lat="46.0187087" lon="7.1199426">
        <ele>1329.93</ele>
        <time>2019-09-08T14:22:43Z</time>
      </trkpt>
      <trkpt lat="46.0188013" lon="7.1199857">
        <ele>1331.85</ele>
        <time>2019-09-08T14:22:55Z</time>
      </trkpt>
      <trkpt lat="46.0187451" lon="7.1198688">
        <ele>1335.84</ele>
        <time>2019-09-08T14:23:19Z</time>
      </trkpt>
      <trkpt lat="46.0186739" lon="7.1197791">
        <ele>1337.64</ele>
        <time>2019-09-08T14:23:35Z</time>
      </trkpt>
      <trkpt lat="46.0186172" lon="7.1196607">
        <ele>1338.94</ele>
        <time>2019-09-08T14:23:49Z</time>
      </trkpt>
      <trkpt lat="46.0185361" lon="7.1195776">
        <ele>1338.94</ele>
        <time>2019-09-08T14:24:01Z</time>
      </trkpt>
      <trkpt lat="46.0184798" lon="7.1194713">
        <ele>1339.93</ele>
        <time>2019-09-08T14:24:13Z</time>
      </trkpt>
      <trkpt lat="46.0184386" lon="7.1193438">
        <ele>1340.92</ele>
        <time>2019-09-08T14:24:23Z</time>
      </trkpt>
      <trkpt lat="46.0183455" lon="7.1192628">
        <ele>1341.64</ele>
        <time>2019-09-08T14:24:35Z</time>
      </trkpt>
      <trkpt lat="46.0182717" lon="7.1191767">
        <ele>1341.94</ele>
        <time>2019-09-08T14:24:43Z</time>
      </trkpt>
      <trkpt lat="46.0182849" lon="7.1190429">
        <ele>1345.14</ele>
        <time>2019-09-08T14:25:03Z</time>
      </trkpt>
      <trkpt lat="46.0182561" lon="7.1189148">
        <ele>1345.64</ele>
        <time>2019-09-08T14:25:13Z</time>
      </trkpt>
      <trkpt lat="46.0182091" lon="7.1187985">
        <ele>1345.94</ele>
        <time>2019-09-08T14:25:25Z</time>
      </trkpt>
      <trkpt lat="46.0182236" lon="7.1186625">
        <ele>1346.96</ele>
        <time>2019-09-08T14:25:39Z</time>
      </trkpt>
      <trkpt lat="46.0182498" lon="7.1185188">
        <ele>1347.22</ele>
        <time>2019-09-08T14:25:49Z</time>
      </trkpt>
      <trkpt lat="46.0182937" lon="7.1186496">
        <ele>1347.94</ele>
        <time>2019-09-08T14:26:23Z</time>
      </trkpt>
      <trkpt lat="46.0183424" lon="7.1185317">
        <ele>1350.63</ele>
        <time>2019-09-08T14:26:41Z</time>
      </trkpt>
      <trkpt lat="46.0183454" lon="7.1183877">
        <ele>1351.93</ele>
        <time>2019-09-08T14:26:53Z</time>
      </trkpt>
      <trkpt lat="46.0183794" lon="7.1182459">
        <ele>1353.64</ele>
        <time>2019-09-08T14:27:05Z</time>
      </trkpt>
      <trkpt lat="46.0184664" lon="7.1182943">
        <ele>1355.94</ele>
        <time>2019-09-08T14:27:39Z</time>
      </trkpt>
      <trkpt lat="46.0185027" lon="7.1184248">
        <ele>1358.85</ele>
        <time>2019-09-08T14:27:57Z</time>
      </trkpt>
      <trkpt lat="46.0185889" lon="7.1183588">
        <ele>1361.91</ele>
        <time>2019-09-08T14:28:31Z</time>
      </trkpt>
      <trkpt lat="46.0185900" lon="7.1182186">
        <ele>1364.61</ele>
        <time>2019-09-08T14:28:49Z</time>
      </trkpt>
      <trkpt lat="46.0185879" lon="7.1180774">
        <ele>1369.90</ele>
        <time>2019-09-08T14:29:05Z</time>
      </trkpt>
      <trkpt lat="46.0186735" lon="7.1180247">
        <ele>1372.92</ele>
        <time>2019-09-08T14:29:29Z</time>
      </trkpt>
      <trkpt lat="46.0187434" lon="7.1181219">
        <ele>1375.14</ele>
        <time>2019-09-08T14:29:53Z</time>
      </trkpt>
      <trkpt lat="46.0187979" lon="7.1182442">
        <ele>1378.61</ele>
        <time>2019-09-08T14:30:09Z</time>
      </trkpt>
      <trkpt lat="46.0188714" lon="7.1181270">
        <ele>1382.91</ele>
        <time>2019-09-08T14:30:37Z</time>
      </trkpt>
      <trkpt lat="46.0189624" lon="7.1181613">
        <ele>1387.54</ele>
        <time>2019-09-08T14:30:53Z</time>
      </trkpt>
      <trkpt lat="46.0190554" lon="7.1182191">
        <ele>1389.94</ele>
        <time>2019-09-08T14:31:11Z</time>
      </trkpt>
      <trkpt lat="46.0191481" lon="7.1182912">
        <ele>1393.61</ele>
        <time>2019-09-08T14:31:25Z</time>
      </trkpt>
      <trkpt lat="46.0192140" lon="7.1184051">
        <ele>1396.14</ele>
        <time>2019-09-08T14:31:39Z</time>
      </trkpt>
      <trkpt lat="46.0193072" lon="7.1184356">
        <ele>1397.63</ele>
        <time>2019-09-08T14:31:51Z</time>
      </trkpt>
      <trkpt lat="46.0193873" lon="7.1185040">
        <ele>1398.93</ele>
        <time>2019-09-08T14:32:01Z</time>
      </trkpt>
      <trkpt lat="46.0194514" lon="7.1186190">
        <ele>1399.62</ele>
        <time>2019-09-08T14:32:13Z</time>
      </trkpt>
      <trkpt lat="46.0195096" lon="7.1187570">
        <ele>1398.94</ele>
        <time>2019-09-08T14:32:23Z</time>
      </trkpt>
      <trkpt lat="46.0196024" lon="7.1188251">
        <ele>1400.84</ele>
        <time>2019-09-08T14:32:33Z</time>
      </trkpt>
      <trkpt lat="46.0197022" lon="7.1188325">
        <ele>1402.84</ele>
        <time>2019-09-08T14:32:45Z</time>
      </trkpt>
      <trkpt lat="46.0197881" lon="7.1188758">
        <ele>1405.82</ele>
        <time>2019-09-08T14:32:57Z</time>
      </trkpt>
      <trkpt lat="46.0198496" lon="7.1189732">
        <ele>1406.00</ele>
        <time>2019-09-08T14:33:09Z</time>
      </trkpt>
      <trkpt lat="46.0199399" lon="7.1190061">
        <ele>1405.64</ele>
        <time>2019-09-08T14:33:21Z</time>
      </trkpt>
      <trkpt lat="46.0200316" lon="7.1189788">
        <ele>1406.67</ele>
        <time>2019-09-08T14:33:31Z</time>
      </trkpt>
      <trkpt lat="46.0201217" lon="7.1190168">
        <ele>1407.94</ele>
        <time>2019-09-08T14:33:45Z</time>
      </trkpt>
      <trkpt lat="46.0202148" lon="7.1189761">
        <ele>1406.16</ele>
        <time>2019-09-08T14:33:55Z</time>
      </trkpt>
      <trkpt lat="46.0203144" lon="7.1190003">
        <ele>1403.95</ele>
        <time>2019-09-08T14:34:07Z</time>
      </trkpt>
      <trkpt lat="46.0204222" lon="7.1190039">
        <ele>1403.94</ele>
        <time>2019-09-08T14:34:17Z</time>
      </trkpt>
      <trkpt lat="46.0205034" lon="7.1189367">
        <ele>1403.94</ele>
        <time>2019-09-08T14:34:25Z</time>
      </trkpt>
      <trkpt lat="46.0205515" lon="7.1188113">
        <ele>1402.24</ele>
        <time>2019-09-08T14:34:35Z</time>
      </trkpt>
      <trkpt lat="46.0206590" lon="7.1188046">
        <ele>1401.18</ele>
        <time>2019-09-08T14:34:57Z</time>
      </trkpt>
      <trkpt lat="46.0207342" lon="7.1189039">
        <ele>1399.67</ele>
        <time>2019-09-08T14:35:15Z</time>
      </trkpt>
      <trkpt lat="46.0208411" lon="7.1189338">
        <ele>1398.24</ele>
        <time>2019-09-08T14:35:25Z</time>
      </trkpt>
      <trkpt lat="46.0209267" lon="7.1189914">
        <ele>1397.95</ele>
        <time>2019-09-08T14:35:37Z</time>
      </trkpt>
      <trkpt lat="46.0210198" lon="7.1190692">
        <ele>1396.27</ele>
        <time>2019-09-08T14:35:49Z</time>
      </trkpt>
      <trkpt lat="46.0211014" lon="7.1191478">
        <ele>1394.97</ele>
        <time>2019-09-08T14:35:59Z</time>
      </trkpt>
      <trkpt lat="46.0211954" lon="7.1192018">
        <ele>1393.95</ele>
        <time>2019-09-08T14:36:09Z</time>
      </trkpt>
      <trkpt lat="46.0212924" lon="7.1191943">
        <ele>1392.92</ele>
        <time>2019-09-08T14:36:21Z</time>
      </trkpt>
      <trkpt lat="46.0213864" lon="7.1192534">
        <ele>1391.88</ele>
        <time>2019-09-08T14:36:33Z</time>
      </trkpt>
      <trkpt lat="46.0214840" lon="7.1192592">
        <ele>1392.70</ele>
        <time>2019-09-08T14:36:41Z</time>
      </trkpt>
      <trkpt lat="46.0215864" lon="7.1192749">
        <ele>1393.64</ele>
        <time>2019-09-08T14:36:51Z</time>
      </trkpt>
      <trkpt lat="46.0216814" lon="7.1193344">
        <ele>1392.94</ele>
        <time>2019-09-08T14:37:03Z</time>
      </trkpt>
      <trkpt lat="46.0217684" lon="7.1194129">
        <ele>1391.24</ele>
        <time>2019-09-08T14:37:15Z</time>
      </trkpt>
      <trkpt lat="46.0218584" lon="7.1194692">
        <ele>1390.03</ele>
        <time>2019-09-08T14:37:25Z</time>
      </trkpt>
      <trkpt lat="46.0219411" lon="7.1195660">
        <ele>1388.88</ele>
        <time>2019-09-08T14:37:35Z</time>
      </trkpt>
      <trkpt lat="46.0220404" lon="7.1195629">
        <ele>1388.95</ele>
        <time>2019-09-08T14:37:51Z</time>
      </trkpt>
      <trkpt lat="46.0221288" lon="7.1195956">
        <ele>1389.64</ele>
        <time>2019-09-08T14:38:11Z</time>
      </trkpt>
      <trkpt lat="46.0222080" lon="7.1196672">
        <ele>1388.83</ele>
        <time>2019-09-08T14:38:29Z</time>
      </trkpt>
      <trkpt lat="46.0222882" lon="7.1197426">
        <ele>1388.94</ele>
        <time>2019-09-08T14:38:39Z</time>
      </trkpt>
      <trkpt lat="46.0223676" lon="7.1198394">
        <ele>1388.92</ele>
        <time>2019-09-08T14:38:51Z</time>
      </trkpt>
      <trkpt lat="46.0224403" lon="7.1199538">
        <ele>1386.98</ele>
        <time>2019-09-08T14:39:01Z</time>
      </trkpt>
      <trkpt lat="46.0225308" lon="7.1200159">
        <ele>1388.64</ele>
        <time>2019-09-08T14:39:13Z</time>
      </trkpt>
      <trkpt lat="46.0226124" lon="7.1200880">
        <ele>1390.63</ele>
        <time>2019-09-08T14:39:23Z</time>
      </trkpt>
      <trkpt lat="46.0226856" lon="7.1201657">
        <ele>1391.66</ele>
        <time>2019-09-08T14:39:31Z</time>
      </trkpt>
      <trkpt lat="46.0227752" lon="7.1201816">
        <ele>1392.63</ele>
        <time>2019-09-08T14:39:43Z</time>
      </trkpt>
      <trkpt lat="46.0228688" lon="7.1201905">
        <ele>1394.91</ele>
        <time>2019-09-08T14:39:57Z</time>
      </trkpt>
      <trkpt lat="46.0229664" lon="7.1202325">
        <ele>1396.63</ele>
        <time>2019-09-08T14:40:09Z</time>
      </trkpt>
      <trkpt lat="46.0230511" lon="7.1202774">
        <ele>1396.94</ele>
        <time>2019-09-08T14:40:19Z</time>
      </trkpt>
      <trkpt lat="46.0231358" lon="7.1203351">
        <ele>1397.94</ele>
        <time>2019-09-08T14:40:33Z</time>
      </trkpt>
      <trkpt lat="46.0232182" lon="7.1203986">
        <ele>1396.94</ele>
        <time>2019-09-08T14:40:47Z</time>
      </trkpt>
      <trkpt lat="46.0232917" lon="7.1205011">
        <ele>1398.85</ele>
        <time>2019-09-08T14:41:01Z</time>
      </trkpt>
      <trkpt lat="46.0233728" lon="7.1205646">
        <ele>1399.85</ele>
        <time>2019-09-08T14:41:11Z</time>
      </trkpt>
      <trkpt lat="46.0234622" lon="7.1205916">
        <ele>1399.94</ele>
        <time>2019-09-08T14:41:21Z</time>
      </trkpt>
      <trkpt lat="46.0235378" lon="7.1206788">
        <ele>1400.93</ele>
        <time>2019-09-08T14:41:31Z</time>
      </trkpt>
      <trkpt lat="46.0236293" lon="7.1206815">
        <ele>1402.93</ele>
        <time>2019-09-08T14:41:43Z</time>
      </trkpt>
      <trkpt lat="46.0237289" lon="7.1206895">
        <ele>1403.92</ele>
        <time>2019-09-08T14:41:55Z</time>
      </trkpt>
      <trkpt lat="46.0238260" lon="7.1206626">
        <ele>1405.91</ele>
        <time>2019-09-08T14:42:13Z</time>
      </trkpt>
      <trkpt lat="46.0239209" lon="7.1206949">
        <ele>1408.93</ele>
        <time>2019-09-08T14:42:29Z</time>
      </trkpt>
      <trkpt lat="46.0239950" lon="7.1207881">
        <ele>1410.91</ele>
        <time>2019-09-08T14:42:43Z</time>
      </trkpt>
      <trkpt lat="46.0240650" lon="7.1208945">
        <ele>1411.94</ele>
        <time>2019-09-08T14:42:55Z</time>
      </trkpt>
      <trkpt lat="46.0241540" lon="7.1209296">
        <ele>1412.92</ele>
        <time>2019-09-08T14:43:03Z</time>
      </trkpt>
      <trkpt lat="46.0242582" lon="7.1209284">
        <ele>1414.85</ele>
        <time>2019-09-08T14:43:15Z</time>
      </trkpt>
      <trkpt lat="46.0243531" lon="7.1209060">
        <ele>1413.88</ele>
        <time>2019-09-08T14:43:25Z</time>
      </trkpt>
      <trkpt lat="46.0244274" lon="7.1210240">
        <ele>1414.96</ele>
        <time>2019-09-08T14:43:39Z</time>
      </trkpt>
      <trkpt lat="46.0244756" lon="7.1211439">
        <ele>1418.84</ele>
        <time>2019-09-08T14:43:49Z</time>
      </trkpt>
      <trkpt lat="46.0245164" lon="7.1212684">
        <ele>1419.94</ele>
        <time>2019-09-08T14:43:59Z</time>
      </trkpt>
      <trkpt lat="46.0245625" lon="7.1214048">
        <ele>1419.94</ele>
        <time>2019-09-08T14:44:13Z</time>
      </trkpt>
      <trkpt lat="46.0246171" lon="7.1215082">
        <ele>1421.91</ele>
        <time>2019-09-08T14:44:23Z</time>
      </trkpt>
      <trkpt lat="46.0246535" lon="7.1216427">
        <ele>1423.70</ele>
        <time>2019-09-08T14:44:33Z</time>
      </trkpt>
      <trkpt lat="46.0247390" lon="7.1216835">
        <ele>1422.97</ele>
        <time>2019-09-08T14:44:43Z</time>
      </trkpt>
      <trkpt lat="46.0248419" lon="7.1216895">
        <ele>1422.94</ele>
        <time>2019-09-08T14:44:53Z</time>
      </trkpt>
      <trkpt lat="46.0249353" lon="7.1216734">
        <ele>1424.61</ele>
        <time>2019-09-08T14:45:03Z</time>
      </trkpt>
      <trkpt lat="46.0250277" lon="7.1216486">
        <ele>1426.93</ele>
        <time>2019-09-08T14:45:15Z</time>
      </trkpt>
      <trkpt lat="46.0251375" lon="7.1216291">
        <ele>1428.85</ele>
        <time>2019-09-08T14:45:27Z</time>
      </trkpt>
      <trkpt lat="46.0252360" lon="7.1215879">
        <ele>1430.85</ele>
        <time>2019-09-08T14:45:39Z</time>
      </trkpt>
      <trkpt lat="46.0253140" lon="7.1214880">
        <ele>1431.71</ele>
        <time>2019-09-08T14:45:51Z</time>
      </trkpt>
      <trkpt lat="46.0254131" lon="7.1214358">
        <ele>1432.85</ele>
        <time>2019-09-08T14:46:01Z</time>
      </trkpt>
      <trkpt lat="46.0254805" lon="7.1213487">
        <ele>1433.94</ele>
        <time>2019-09-08T14:46:11Z</time>
      </trkpt>
      <trkpt lat="46.0255436" lon="7.1212521">
        <ele>1433.94</ele>
        <time>2019-09-08T14:46:21Z</time>
      </trkpt>
      <trkpt lat="46.0256325" lon="7.1211883">
        <ele>1436.91</ele>
        <time>2019-09-08T14:46:37Z</time>
      </trkpt>
      <trkpt lat="46.0257274" lon="7.1211333">
        <ele>1438.63</ele>
        <time>2019-09-08T14:46:49Z</time>
      </trkpt>
      <trkpt lat="46.0258196" lon="7.1211097">
        <ele>1441.85</ele>
        <time>2019-09-08T14:47:03Z</time>
      </trkpt>
      <trkpt lat="46.0259200" lon="7.1211089">
        <ele>1444.84</ele>
        <time>2019-09-08T14:47:17Z</time>
      </trkpt>
      <trkpt lat="46.0260082" lon="7.1210812">
        <ele>1445.91</ele>
        <time>2019-09-08T14:47:29Z</time>
      </trkpt>
      <trkpt lat="46.0259438" lon="7.1211913">
        <ele>1449.64</ele>
        <time>2019-09-08T14:47:57Z</time>
      </trkpt>
      <trkpt lat="46.0258594" lon="7.1212471">
        <ele>1449.94</ele>
        <time>2019-09-08T14:48:07Z</time>
      </trkpt>
      <trkpt lat="46.0257834" lon="7.1213507">
        <ele>1449.94</ele>
        <time>2019-09-08T14:48:19Z</time>
      </trkpt>
      <trkpt lat="46.0257019" lon="7.1214330">
        <ele>1450.94</ele>
        <time>2019-09-08T14:48:31Z</time>
      </trkpt>
      <trkpt lat="46.0256434" lon="7.1215474">
        <ele>1451.64</ele>
        <time>2019-09-08T14:48:43Z</time>
      </trkpt>
      <trkpt lat="46.0255862" lon="7.1216648">
        <ele>1455.54</ele>
        <time>2019-09-08T14:48:55Z</time>
      </trkpt>
      <trkpt lat="46.0255331" lon="7.1217923">
        <ele>1455.94</ele>
        <time>2019-09-08T14:49:05Z</time>
      </trkpt>
      <trkpt lat="46.0254747" lon="7.1219056">
        <ele>1456.67</ele>
        <time>2019-09-08T14:49:15Z</time>
      </trkpt>
      <trkpt lat="46.0254230" lon="7.1220130">
        <ele>1457.91</ele>
        <time>2019-09-08T14:49:25Z</time>
      </trkpt>
      <trkpt lat="46.0254205" lon="7.1221593">
        <ele>1460.31</ele>
        <time>2019-09-08T14:49:35Z</time>
      </trkpt>
      <trkpt lat="46.0254506" lon="7.1222998">
        <ele>1461.91</ele>
        <time>2019-09-08T14:49:45Z</time>
      </trkpt>
      <trkpt lat="46.0254642" lon="7.1224288">
        <ele>1462.64</ele>
        <time>2019-09-08T14:49:53Z</time>
      </trkpt>
      <trkpt lat="46.0254797" lon="7.1225595">
        <ele>1463.72</ele>
        <time>2019-09-08T14:50:01Z</time>
      </trkpt>
      <trkpt lat="46.0255195" lon="7.1227116">
        <ele>1464.93</ele>
        <time>2019-09-08T14:50:11Z</time>
      </trkpt>
      <trkpt lat="46.0255507" lon="7.1228575">
        <ele>1467.53</ele>
        <time>2019-09-08T14:50:21Z</time>
      </trkpt>
      <trkpt lat="46.0256413" lon="7.1228549">
        <ele>1468.28</ele>
        <time>2019-09-08T14:50:31Z</time>
      </trkpt>
      <trkpt lat="46.0257417" lon="7.1228071">
        <ele>1467.94</ele>
        <time>2019-09-08T14:50:39Z</time>
      </trkpt>
      <trkpt lat="46.0258304" lon="7.1227237">
        <ele>1467.94</ele>
        <time>2019-09-08T14:50:49Z</time>
      </trkpt>
      <trkpt lat="46.0259205" lon="7.1226607">
        <ele>1467.94</ele>
        <time>2019-09-08T14:50:57Z</time>
      </trkpt>
      <trkpt lat="46.0260140" lon="7.1225999">
        <ele>1467.03</ele>
        <time>2019-09-08T14:51:05Z</time>
      </trkpt>
      <trkpt lat="46.0261067" lon="7.1225369">
        <ele>1466.94</ele>
        <time>2019-09-08T14:51:13Z</time>
      </trkpt>
      <trkpt lat="46.0261965" lon="7.1224600">
        <ele>1466.03</ele>
        <time>2019-09-08T14:51:21Z</time>
      </trkpt>
      <trkpt lat="46.0262747" lon="7.1223743">
        <ele>1465.94</ele>
        <time>2019-09-08T14:51:29Z</time>
      </trkpt>
      <trkpt lat="46.0263475" lon="7.1222838">
        <ele>1465.03</ele>
        <time>2019-09-08T14:51:37Z</time>
      </trkpt>
      <trkpt lat="46.0264216" lon="7.1221889">
        <ele>1465.22</ele>
        <time>2019-09-08T14:51:45Z</time>
      </trkpt>
      <trkpt lat="46.0264847" lon="7.1220796">
        <ele>1465.64</ele>
        <time>2019-09-08T14:51:53Z</time>
      </trkpt>
      <trkpt lat="46.0265553" lon="7.1219581">
        <ele>1464.95</ele>
        <time>2019-09-08T14:52:03Z</time>
      </trkpt>
      <trkpt lat="46.0266178" lon="7.1218397">
        <ele>1464.24</ele>
        <time>2019-09-08T14:52:11Z</time>
      </trkpt>
      <trkpt lat="46.0266758" lon="7.1217281">
        <ele>1463.94</ele>
        <time>2019-09-08T14:52:19Z</time>
      </trkpt>
      <trkpt lat="46.0267350" lon="7.1216265">
        <ele>1463.24</ele>
        <time>2019-09-08T14:52:27Z</time>
      </trkpt>
      <trkpt lat="46.0268015" lon="7.1215291">
        <ele>1463.92</ele>
        <time>2019-09-08T14:52:35Z</time>
      </trkpt>
      <trkpt lat="46.0268624" lon="7.1214083">
        <ele>1464.93</ele>
        <time>2019-09-08T14:52:43Z</time>
      </trkpt>
      <trkpt lat="46.0269343" lon="7.1213189">
        <ele>1465.85</ele>
        <time>2019-09-08T14:52:51Z</time>
      </trkpt>
      <trkpt lat="46.0269917" lon="7.1212111">
        <ele>1465.94</ele>
        <time>2019-09-08T14:52:59Z</time>
      </trkpt>
      <trkpt lat="46.0270620" lon="7.1210893">
        <ele>1466.93</ele>
        <time>2019-09-08T14:53:07Z</time>
      </trkpt>
      <trkpt lat="46.0271226" lon="7.1209788">
        <ele>1466.94</ele>
        <time>2019-09-08T14:53:15Z</time>
      </trkpt>
      <trkpt lat="46.0271889" lon="7.1208722">
        <ele>1467.93</ele>
        <time>2019-09-08T14:53:23Z</time>
      </trkpt>
      <trkpt lat="46.0272442" lon="7.1207453">
        <ele>1467.94</ele>
        <time>2019-09-08T14:53:31Z</time>
      </trkpt>
      <trkpt lat="46.0273208" lon="7.1206762">
        <ele>1468.92</ele>
        <time>2019-09-08T14:53:41Z</time>
      </trkpt>
      <trkpt lat="46.0274126" lon="7.1205924">
        <ele>1468.24</ele>
        <time>2019-09-08T14:53:51Z</time>
      </trkpt>
      <trkpt lat="46.0275085" lon="7.1205383">
        <ele>1467.03</ele>
        <time>2019-09-08T14:53:59Z</time>
      </trkpt>
      <trkpt lat="46.0276023" lon="7.1205331">
        <ele>1466.94</ele>
        <time>2019-09-08T14:54:09Z</time>
      </trkpt>
      <trkpt lat="46.0276935" lon="7.1205353">
        <ele>1466.94</ele>
        <time>2019-09-08T14:54:17Z</time>
      </trkpt>
      <trkpt lat="46.0278040" lon="7.1205177">
        <ele>1465.97</ele>
        <time>2019-09-08T14:54:25Z</time>
      </trkpt>
      <trkpt lat="46.0279075" lon="7.1204744">
        <ele>1465.24</ele>
        <time>2019-09-08T14:54:33Z</time>
      </trkpt>
      <trkpt lat="46.0280048" lon="7.1204128">
        <ele>1464.94</ele>
        <time>2019-09-08T14:54:41Z</time>
      </trkpt>
      <trkpt lat="46.0280249" lon="7.1202731">
        <ele>1464.94</ele>
        <time>2019-09-08T14:54:53Z</time>
      </trkpt>
      <trkpt lat="46.0280699" lon="7.1201530">
        <ele>1463.95</ele>
        <time>2019-09-08T14:55:01Z</time>
      </trkpt>
      <trkpt lat="46.0281376" lon="7.1200429">
        <ele>1463.94</ele>
        <time>2019-09-08T14:55:09Z</time>
      </trkpt>
      <trkpt lat="46.0281862" lon="7.1199020">
        <ele>1462.95</ele>
        <time>2019-09-08T14:55:17Z</time>
      </trkpt>
      <trkpt lat="46.0282124" lon="7.1197420">
        <ele>1462.96</ele>
        <time>2019-09-08T14:55:25Z</time>
      </trkpt>
      <trkpt lat="46.0282236" lon="7.1195938">
        <ele>1463.93</ele>
        <time>2019-09-08T14:55:33Z</time>
      </trkpt>
      <trkpt lat="46.0282332" lon="7.1194504">
        <ele>1464.64</ele>
        <time>2019-09-08T14:55:41Z</time>
      </trkpt>
      <trkpt lat="46.0282738" lon="7.1193157">
        <ele>1465.85</ele>
        <time>2019-09-08T14:55:49Z</time>
      </trkpt>
      <trkpt lat="46.0282944" lon="7.1191883">
        <ele>1465.94</ele>
        <time>2019-09-08T14:55:57Z</time>
      </trkpt>
      <trkpt lat="46.0283022" lon="7.1190368">
        <ele>1465.94</ele>
        <time>2019-09-08T14:56:05Z</time>
      </trkpt>
      <trkpt lat="46.0283191" lon="7.1188742">
        <ele>1466.92</ele>
        <time>2019-09-08T14:56:13Z</time>
      </trkpt>
      <trkpt lat="46.0283409" lon="7.1187226">
        <ele>1468.63</ele>
        <time>2019-09-08T14:56:21Z</time>
      </trkpt>
      <trkpt lat="46.0283775" lon="7.1185713">
        <ele>1467.24</ele>
        <time>2019-09-08T14:56:31Z</time>
      </trkpt>
      <trkpt lat="46.0284022" lon="7.1184248">
        <ele>1467.64</ele>
        <time>2019-09-08T14:56:39Z</time>
      </trkpt>
      <trkpt lat="46.0284728" lon="7.1183081">
        <ele>1466.95</ele>
        <time>2019-09-08T14:56:49Z</time>
      </trkpt>
      <trkpt lat="46.0285482" lon="7.1182146">
        <ele>1467.22</ele>
        <time>2019-09-08T14:56:57Z</time>
      </trkpt>
      <trkpt lat="46.0286268" lon="7.1181103">
        <ele>1466.88</ele>
        <time>2019-09-08T14:57:05Z</time>
      </trkpt>
      <trkpt lat="46.0287112" lon="7.1180268">
        <ele>1466.18</ele>
        <time>2019-09-08T14:57:13Z</time>
      </trkpt>
      <trkpt lat="46.0288039" lon="7.1179642">
        <ele>1465.05</ele>
        <time>2019-09-08T14:57:21Z</time>
      </trkpt>
      <trkpt lat="46.0288851" lon="7.1178926">
        <ele>1464.73</ele>
        <time>2019-09-08T14:57:29Z</time>
      </trkpt>
      <trkpt lat="46.0289657" lon="7.1177828">
        <ele>1463.97</ele>
        <time>2019-09-08T14:57:37Z</time>
      </trkpt>
      <trkpt lat="46.0290443" lon="7.1176769">
        <ele>1461.98</ele>
        <time>2019-09-08T14:57:45Z</time>
      </trkpt>
      <trkpt lat="46.0291253" lon="7.1175831">
        <ele>1462.93</ele>
        <time>2019-09-08T14:57:53Z</time>
      </trkpt>
      <trkpt lat="46.0292000" lon="7.1175058">
        <ele>1461.06</ele>
        <time>2019-09-08T14:57:59Z</time>
      </trkpt>
      <trkpt lat="46.0292836" lon="7.1174373">
        <ele>1459.95</ele>
        <time>2019-09-08T14:58:07Z</time>
      </trkpt>
      <trkpt lat="46.0293617" lon="7.1173556">
        <ele>1459.94</ele>
        <time>2019-09-08T14:58:15Z</time>
      </trkpt>
      <trkpt lat="46.0294615" lon="7.1172706">
        <ele>1459.96</ele>
        <time>2019-09-08T14:58:23Z</time>
      </trkpt>
      <trkpt lat="46.0295727" lon="7.1172090">
        <ele>1459.94</ele>
        <time>2019-09-08T14:58:31Z</time>
      </trkpt>
      <trkpt lat="46.0296603" lon="7.1171690">
        <ele>1459.94</ele>
        <time>2019-09-08T14:58:39Z</time>
      </trkpt>
      <trkpt lat="46.0297612" lon="7.1171063">
        <ele>1459.24</ele>
        <time>2019-09-08T14:58:47Z</time>
      </trkpt>
      <trkpt lat="46.0298453" lon="7.1170398">
        <ele>1458.04</ele>
        <time>2019-09-08T14:58:53Z</time>
      </trkpt>
      <trkpt lat="46.0299229" lon="7.1169518">
        <ele>1456.97</ele>
        <time>2019-09-08T14:59:01Z</time>
      </trkpt>
      <trkpt lat="46.0300059" lon="7.1168450">
        <ele>1456.24</ele>
        <time>2019-09-08T14:59:09Z</time>
      </trkpt>
      <trkpt lat="46.0300792" lon="7.1167318">
        <ele>1455.94</ele>
        <time>2019-09-08T14:59:17Z</time>
      </trkpt>
      <trkpt lat="46.0301460" lon="7.1166052">
        <ele>1454.95</ele>
        <time>2019-09-08T14:59:25Z</time>
      </trkpt>
      <trkpt lat="46.0302114" lon="7.1164685">
        <ele>1454.24</ele>
        <time>2019-09-08T14:59:33Z</time>
      </trkpt>
      <trkpt lat="46.0302744" lon="7.1163470">
        <ele>1453.94</ele>
        <time>2019-09-08T14:59:41Z</time>
      </trkpt>
      <trkpt lat="46.0303320" lon="7.1162177">
        <ele>1454.66</ele>
        <time>2019-09-08T14:59:49Z</time>
      </trkpt>
      <trkpt lat="46.0303683" lon="7.1160913">
        <ele>1454.94</ele>
        <time>2019-09-08T14:59:57Z</time>
      </trkpt>
      <trkpt lat="46.0304129" lon="7.1159685">
        <ele>1454.94</ele>
        <time>2019-09-08T15:00:05Z</time>
      </trkpt>
      <trkpt lat="46.0304917" lon="7.1158678">
        <ele>1455.92</ele>
        <time>2019-09-08T15:00:15Z</time>
      </trkpt>
      <trkpt lat="46.0305556" lon="7.1157622">
        <ele>1456.64</ele>
        <time>2019-09-08T15:00:23Z</time>
      </trkpt>
      <trkpt lat="46.0306072" lon="7.1156109">
        <ele>1456.94</ele>
        <time>2019-09-08T15:00:31Z</time>
      </trkpt>
      <trkpt lat="46.0306407" lon="7.1154666">
        <ele>1457.92</ele>
        <time>2019-09-08T15:00:39Z</time>
      </trkpt>
      <trkpt lat="46.0306599" lon="7.1153000">
        <ele>1458.91</ele>
        <time>2019-09-08T15:00:47Z</time>
      </trkpt>
      <trkpt lat="46.0306969" lon="7.1151492">
        <ele>1459.91</ele>
        <time>2019-09-08T15:00:55Z</time>
      </trkpt>
      <trkpt lat="46.0307153" lon="7.1150106">
        <ele>1460.85</ele>
        <time>2019-09-08T15:01:03Z</time>
      </trkpt>
      <trkpt lat="46.0307528" lon="7.1148528">
        <ele>1461.91</ele>
        <time>2019-09-08T15:01:11Z</time>
      </trkpt>
      <trkpt lat="46.0307838" lon="7.1146987">
        <ele>1461.94</ele>
        <time>2019-09-08T15:01:19Z</time>
      </trkpt>
      <trkpt lat="46.0308077" lon="7.1145576">
        <ele>1463.55</ele>
        <time>2019-09-08T15:01:27Z</time>
      </trkpt>
      <trkpt lat="46.0308323" lon="7.1144128">
        <ele>1465.55</ele>
        <time>2019-09-08T15:01:35Z</time>
      </trkpt>
      <trkpt lat="46.0308577" lon="7.1142655">
        <ele>1465.88</ele>
        <time>2019-09-08T15:01:43Z</time>
      </trkpt>
      <trkpt lat="46.0308946" lon="7.1141186">
        <ele>1466.91</ele>
        <time>2019-09-08T15:01:51Z</time>
      </trkpt>
      <trkpt lat="46.0309225" lon="7.1139629">
        <ele>1467.93</ele>
        <time>2019-09-08T15:01:59Z</time>
      </trkpt>
      <trkpt lat="46.0309618" lon="7.1138287">
        <ele>1468.85</ele>
        <time>2019-09-08T15:02:07Z</time>
      </trkpt>
      <trkpt lat="46.0310052" lon="7.1136957">
        <ele>1468.92</ele>
        <time>2019-09-08T15:02:15Z</time>
      </trkpt>
      <trkpt lat="46.0310378" lon="7.1135527">
        <ele>1469.91</ele>
        <time>2019-09-08T15:02:25Z</time>
      </trkpt>
      <trkpt lat="46.0310564" lon="7.1134089">
        <ele>1468.94</ele>
        <time>2019-09-08T15:02:35Z</time>
      </trkpt>
      <trkpt lat="46.0311109" lon="7.1132674">
        <ele>1469.93</ele>
        <time>2019-09-08T15:02:43Z</time>
      </trkpt>
      <trkpt lat="46.0311507" lon="7.1131337">
        <ele>1469.94</ele>
        <time>2019-09-08T15:02:51Z</time>
      </trkpt>
      <trkpt lat="46.0312056" lon="7.1129918">
        <ele>1469.94</ele>
        <time>2019-09-08T15:03:01Z</time>
      </trkpt>
      <trkpt lat="46.0312669" lon="7.1128561">
        <ele>1470.85</ele>
        <time>2019-09-08T15:03:11Z</time>
      </trkpt>
      <trkpt lat="46.0313219" lon="7.1127475">
        <ele>1470.94</ele>
        <time>2019-09-08T15:03:19Z</time>
      </trkpt>
      <trkpt lat="46.0313537" lon="7.1126159">
        <ele>1471.85</ele>
        <time>2019-09-08T15:03:27Z</time>
      </trkpt>
      <trkpt lat="46.0313900" lon="7.1124585">
        <ele>1472.91</ele>
        <time>2019-09-08T15:03:37Z</time>
      </trkpt>
      <trkpt lat="46.0314406" lon="7.1123356">
        <ele>1472.94</ele>
        <time>2019-09-08T15:03:45Z</time>
      </trkpt>
      <trkpt lat="46.0314748" lon="7.1121785">
        <ele>1472.73</ele>
        <time>2019-09-08T15:03:55Z</time>
      </trkpt>
      <trkpt lat="46.0315860" lon="7.1121978">
        <ele>1481.91</ele>
        <time>2019-09-09T05:34:35Z</time>
      </trkpt>
      <trkpt lat="46.0315860" lon="7.1121978">
        <ele>1481.91</ele>
        <time>2019-09-09T05:34:35Z</time>
      </trkpt>
      <trkpt lat="46.0262620" lon="6.9704781">
        <ele>2199.92</ele>
        <time>2019-09-09T14:38:18Z</time>
      </trkpt>
      <trkpt lat="46.0155969" lon="6.9586981">
        <ele>1915.94</ele>
        <time>2019-09-09T15:06:00Z</time>
      </trkpt>
      <trkpt lat="46.0315860" lon="7.1121978">
        <ele>1481.91</ele>
        <time>2019-09-09T05:34:36Z</time>
      </trkpt>
      <trkpt lat="46.0315585" lon="7.1120637">
        <ele>1468.56</ele>
        <time>2019-09-09T05:35:25Z</time>
      </trkpt>
      <trkpt lat="46.0315756" lon="7.1119350">
        <ele>1467.81</ele>
        <time>2019-09-09T05:35:31Z</time>
      </trkpt>
      <trkpt lat="46.0315645" lon="7.1117784">
        <ele>1472.68</ele>
        <time>2019-09-09T05:35:39Z</time>
      </trkpt>
      <trkpt lat="46.0316284" lon="7.1116552">
        <ele>1472.03</ele>
        <time>2019-09-09T05:35:47Z</time>
      </trkpt>
      <trkpt lat="46.0316579" lon="7.1115158">
        <ele>1473.64</ele>
        <time>2019-09-09T05:35:57Z</time>
      </trkpt>
      <trkpt lat="46.0316656" lon="7.1113752">
        <ele>1474.02</ele>
        <time>2019-09-09T05:36:05Z</time>
      </trkpt>
      <trkpt lat="46.0316730" lon="7.1112453">
        <ele>1473.03</ele>
        <time>2019-09-09T05:36:13Z</time>
      </trkpt>
      <trkpt lat="46.0317004" lon="7.1110940">
        <ele>1474.62</ele>
        <time>2019-09-09T05:36:23Z</time>
      </trkpt>
      <trkpt lat="46.0317338" lon="7.1109568">
        <ele>1473.97</ele>
        <time>2019-09-09T05:36:31Z</time>
      </trkpt>
      <trkpt lat="46.0317592" lon="7.1108278">
        <ele>1474.87</ele>
        <time>2019-09-09T05:36:39Z</time>
      </trkpt>
      <trkpt lat="46.0317894" lon="7.1106883">
        <ele>1475.91</ele>
        <time>2019-09-09T05:36:47Z</time>
      </trkpt>
      <trkpt lat="46.0317995" lon="7.1105557">
        <ele>1476.02</ele>
        <time>2019-09-09T05:36:55Z</time>
      </trkpt>
      <trkpt lat="46.0318087" lon="7.1104237">
        <ele>1475.94</ele>
        <time>2019-09-09T05:37:03Z</time>
      </trkpt>
      <trkpt lat="46.0318231" lon="7.1102857">
        <ele>1477.91</ele>
        <time>2019-09-09T05:37:11Z</time>
      </trkpt>
      <trkpt lat="46.0318487" lon="7.1101330">
        <ele>1477.94</ele>
        <time>2019-09-09T05:37:21Z</time>
      </trkpt>
      <trkpt lat="46.0319040" lon="7.1100004">
        <ele>1477.94</ele>
        <time>2019-09-09T05:37:29Z</time>
      </trkpt>
      <trkpt lat="46.0319406" lon="7.1098674">
        <ele>1478.23</ele>
        <time>2019-09-09T05:37:37Z</time>
      </trkpt>
      <trkpt lat="46.0319574" lon="7.1097292">
        <ele>1478.15</ele>
        <time>2019-09-09T05:37:45Z</time>
      </trkpt>
      <trkpt lat="46.0319586" lon="7.1095914">
        <ele>1478.94</ele>
        <time>2019-09-09T05:37:53Z</time>
      </trkpt>
      <trkpt lat="46.0319405" lon="7.1094449">
        <ele>1480.61</ele>
        <time>2019-09-09T05:38:01Z</time>
      </trkpt>
      <trkpt lat="46.0319107" lon="7.1092987">
        <ele>1479.95</ele>
        <time>2019-09-09T05:38:09Z</time>
      </trkpt>
      <trkpt lat="46.0318964" lon="7.1091570">
        <ele>1479.94</ele>
        <time>2019-09-09T05:38:17Z</time>
      </trkpt>
      <trkpt lat="46.0318828" lon="7.1090236">
        <ele>1479.94</ele>
        <time>2019-09-09T05:38:25Z</time>
      </trkpt>
      <trkpt lat="46.0319089" lon="7.1088777">
        <ele>1478.97</ele>
        <time>2019-09-09T05:38:35Z</time>
      </trkpt>
      <trkpt lat="46.0319362" lon="7.1087355">
        <ele>1480.98</ele>
        <time>2019-09-09T05:38:43Z</time>
      </trkpt>
      <trkpt lat="46.0319495" lon="7.1086034">
        <ele>1479.97</ele>
        <time>2019-09-09T05:38:51Z</time>
      </trkpt>
      <trkpt lat="46.0319507" lon="7.1084549">
        <ele>1478.06</ele>
        <time>2019-09-09T05:39:01Z</time>
      </trkpt>
      <trkpt lat="46.0319203" lon="7.1083131">
        <ele>1477.94</ele>
        <time>2019-09-09T05:39:09Z</time>
      </trkpt>
      <trkpt lat="46.0318598" lon="7.1081952">
        <ele>1477.01</ele>
        <time>2019-09-09T05:39:17Z</time>
      </trkpt>
      <trkpt lat="46.0317609" lon="7.1081620">
        <ele>1477.64</ele>
        <time>2019-09-09T05:39:25Z</time>
      </trkpt>
      <trkpt lat="46.0316684" lon="7.1081124">
        <ele>1477.94</ele>
        <time>2019-09-09T05:39:33Z</time>
      </trkpt>
      <trkpt lat="46.0315832" lon="7.1080677">
        <ele>1478.94</ele>
        <time>2019-09-09T05:39:43Z</time>
      </trkpt>
      <trkpt lat="46.0314800" lon="7.1080187">
        <ele>1480.84</ele>
        <time>2019-09-09T05:39:53Z</time>
      </trkpt>
      <trkpt lat="46.0313972" lon="7.1079488">
        <ele>1482.84</ele>
        <time>2019-09-09T05:40:03Z</time>
      </trkpt>
      <trkpt lat="46.0313749" lon="7.1078110">
        <ele>1482.92</ele>
        <time>2019-09-09T05:40:15Z</time>
      </trkpt>
      <trkpt lat="46.0312973" lon="7.1076961">
        <ele>1485.55</ele>
        <time>2019-09-09T05:40:29Z</time>
      </trkpt>
      <trkpt lat="46.0312352" lon="7.1075757">
        <ele>1488.52</ele>
        <time>2019-09-09T05:40:43Z</time>
      </trkpt>
      <trkpt lat="46.0311777" lon="7.1074490">
        <ele>1490.63</ele>
        <time>2019-09-09T05:40:55Z</time>
      </trkpt>
      <trkpt lat="46.0311012" lon="7.1073287">
        <ele>1491.85</ele>
        <time>2019-09-09T05:41:03Z</time>
      </trkpt>
      <trkpt lat="46.0310343" lon="7.1072177">
        <ele>1492.64</ele>
        <time>2019-09-09T05:41:13Z</time>
      </trkpt>
      <trkpt lat="46.0309748" lon="7.1071006">
        <ele>1493.93</ele>
        <time>2019-09-09T05:41:23Z</time>
      </trkpt>
      <trkpt lat="46.0309481" lon="7.1069760">
        <ele>1494.64</ele>
        <time>2019-09-09T05:41:31Z</time>
      </trkpt>
      <trkpt lat="46.0309928" lon="7.1068541">
        <ele>1494.71</ele>
        <time>2019-09-09T05:41:41Z</time>
      </trkpt>
      <trkpt lat="46.0310236" lon="7.1067038">
        <ele>1494.24</ele>
        <time>2019-09-09T05:41:49Z</time>
      </trkpt>
      <trkpt lat="46.0310535" lon="7.1065588">
        <ele>1494.22</ele>
        <time>2019-09-09T05:41:59Z</time>
      </trkpt>
      <trkpt lat="46.0310928" lon="7.1064143">
        <ele>1493.94</ele>
        <time>2019-09-09T05:42:07Z</time>
      </trkpt>
      <trkpt lat="46.0310763" lon="7.1062788">
        <ele>1494.64</ele>
        <time>2019-09-09T05:42:17Z</time>
      </trkpt>
      <trkpt lat="46.0310785" lon="7.1061224">
        <ele>1494.94</ele>
        <time>2019-09-09T05:42:25Z</time>
      </trkpt>
      <trkpt lat="46.0310545" lon="7.1059876">
        <ele>1494.94</ele>
        <time>2019-09-09T05:42:33Z</time>
      </trkpt>
      <trkpt lat="46.0310600" lon="7.1058414">
        <ele>1495.94</ele>
        <time>2019-09-09T05:42:43Z</time>
      </trkpt>
      <trkpt lat="46.0310572" lon="7.1057037">
        <ele>1496.93</ele>
        <time>2019-09-09T05:42:53Z</time>
      </trkpt>
      <trkpt lat="46.0310743" lon="7.1055654">
        <ele>1498.85</ele>
        <time>2019-09-09T05:43:05Z</time>
      </trkpt>
      <trkpt lat="46.0310768" lon="7.1054356">
        <ele>1499.15</ele>
        <time>2019-09-09T05:43:15Z</time>
      </trkpt>
      <trkpt lat="46.0310968" lon="7.1053090">
        <ele>1500.64</ele>
        <time>2019-09-09T05:43:27Z</time>
      </trkpt>
      <trkpt lat="46.0311638" lon="7.1051867">
        <ele>1500.94</ele>
        <time>2019-09-09T05:43:37Z</time>
      </trkpt>
      <trkpt lat="46.0312277" lon="7.1050766">
        <ele>1500.03</ele>
        <time>2019-09-09T05:43:47Z</time>
      </trkpt>
      <trkpt lat="46.0312954" lon="7.1049582">
        <ele>1500.94</ele>
        <time>2019-09-09T05:43:57Z</time>
      </trkpt>
      <trkpt lat="46.0313449" lon="7.1048327">
        <ele>1500.01</ele>
        <time>2019-09-09T05:44:05Z</time>
      </trkpt>
      <trkpt lat="46.0314200" lon="7.1047210">
        <ele>1501.63</ele>
        <time>2019-09-09T05:44:13Z</time>
      </trkpt>
      <trkpt lat="46.0314673" lon="7.1045964">
        <ele>1501.94</ele>
        <time>2019-09-09T05:44:23Z</time>
      </trkpt>
      <trkpt lat="46.0315098" lon="7.1044648">
        <ele>1502.94</ele>
        <time>2019-09-09T05:44:33Z</time>
      </trkpt>
      <trkpt lat="46.0315724" lon="7.1043643">
        <ele>1504.84</ele>
        <time>2019-09-09T05:44:43Z</time>
      </trkpt>
      <trkpt lat="46.0316487" lon="7.1042743">
        <ele>1505.24</ele>
        <time>2019-09-09T05:44:57Z</time>
      </trkpt>
      <trkpt lat="46.0317186" lon="7.1041745">
        <ele>1507.85</ele>
        <time>2019-09-09T05:45:09Z</time>
      </trkpt>
      <trkpt lat="46.0317817" lon="7.1040685">
        <ele>1509.15</ele>
        <time>2019-09-09T05:45:25Z</time>
      </trkpt>
      <trkpt lat="46.0318456" lon="7.1039514">
        <ele>1510.94</ele>
        <time>2019-09-09T05:45:37Z</time>
      </trkpt>
      <trkpt lat="46.0317793" lon="7.1038557">
        <ele>1511.87</ele>
        <time>2019-09-09T05:45:51Z</time>
      </trkpt>
      <trkpt lat="46.0318289" lon="7.1037432">
        <ele>1512.94</ele>
        <time>2019-09-09T05:46:05Z</time>
      </trkpt>
      <trkpt lat="46.0318993" lon="7.1036530">
        <ele>1513.64</ele>
        <time>2019-09-09T05:46:17Z</time>
      </trkpt>
      <trkpt lat="46.0319849" lon="7.1035522">
        <ele>1515.61</ele>
        <time>2019-09-09T05:46:27Z</time>
      </trkpt>
      <trkpt lat="46.0320462" lon="7.1034405">
        <ele>1515.92</ele>
        <time>2019-09-09T05:46:39Z</time>
      </trkpt>
      <trkpt lat="46.0321358" lon="7.1033700">
        <ele>1517.89</ele>
        <time>2019-09-09T05:46:49Z</time>
      </trkpt>
      <trkpt lat="46.0322080" lon="7.1032807">
        <ele>1518.85</ele>
        <time>2019-09-09T05:47:01Z</time>
      </trkpt>
      <trkpt lat="46.0322583" lon="7.1031459">
        <ele>1519.70</ele>
        <time>2019-09-09T05:47:11Z</time>
      </trkpt>
      <trkpt lat="46.0323019" lon="7.1030307">
        <ele>1520.64</ele>
        <time>2019-09-09T05:47:19Z</time>
      </trkpt>
      <trkpt lat="46.0323578" lon="7.1029216">
        <ele>1521.93</ele>
        <time>2019-09-09T05:47:29Z</time>
      </trkpt>
      <trkpt lat="46.0324114" lon="7.1028061">
        <ele>1522.85</ele>
        <time>2019-09-09T05:47:43Z</time>
      </trkpt>
      <trkpt lat="46.0324426" lon="7.1026817">
        <ele>1524.93</ele>
        <time>2019-09-09T05:47:57Z</time>
      </trkpt>
      <trkpt lat="46.0324283" lon="7.1025415">
        <ele>1527.91</ele>
        <time>2019-09-09T05:48:11Z</time>
      </trkpt>
      <trkpt lat="46.0325258" lon="7.1025024">
        <ele>1528.03</ele>
        <time>2019-09-09T05:48:23Z</time>
      </trkpt>
      <trkpt lat="46.0325811" lon="7.1023717">
        <ele>1529.93</ele>
        <time>2019-09-09T05:48:37Z</time>
      </trkpt>
      <trkpt lat="46.0325663" lon="7.1022295">
        <ele>1529.88</ele>
        <time>2019-09-09T05:48:49Z</time>
      </trkpt>
      <trkpt lat="46.0325379" lon="7.1020816">
        <ele>1530.91</ele>
        <time>2019-09-09T05:49:01Z</time>
      </trkpt>
      <trkpt lat="46.0324569" lon="7.1019945">
        <ele>1530.94</ele>
        <time>2019-09-09T05:49:11Z</time>
      </trkpt>
      <trkpt lat="46.0323781" lon="7.1019267">
        <ele>1530.94</ele>
        <time>2019-09-09T05:49:19Z</time>
      </trkpt>
      <trkpt lat="46.0323479" lon="7.1017952">
        <ele>1530.94</ele>
        <time>2019-09-09T05:49:29Z</time>
      </trkpt>
      <trkpt lat="46.0323824" lon="7.1016725">
        <ele>1531.64</ele>
        <time>2019-09-09T05:49:37Z</time>
      </trkpt>
      <trkpt lat="46.0323824" lon="7.1015357">
        <ele>1532.85</ele>
        <time>2019-09-09T05:49:47Z</time>
      </trkpt>
      <trkpt lat="46.0323890" lon="7.1013931">
        <ele>1532.94</ele>
        <time>2019-09-09T05:49:57Z</time>
      </trkpt>
      <trkpt lat="46.0323953" lon="7.1012545">
        <ele>1533.85</ele>
        <time>2019-09-09T05:50:07Z</time>
      </trkpt>
      <trkpt lat="46.0324267" lon="7.1011149">
        <ele>1534.64</ele>
        <time>2019-09-09T05:50:19Z</time>
      </trkpt>
      <trkpt lat="46.0324298" lon="7.1009820">
        <ele>1535.15</ele>
        <time>2019-09-09T05:50:29Z</time>
      </trkpt>
      <trkpt lat="46.0324410" lon="7.1008379">
        <ele>1534.94</ele>
        <time>2019-09-09T05:50:39Z</time>
      </trkpt>
      <trkpt lat="46.0324406" lon="7.1006918">
        <ele>1535.64</ele>
        <time>2019-09-09T05:50:49Z</time>
      </trkpt>
      <trkpt lat="46.0324557" lon="7.1005404">
        <ele>1535.64</ele>
        <time>2019-09-09T05:50:59Z</time>
      </trkpt>
      <trkpt lat="46.0324842" lon="7.1003892">
        <ele>1535.94</ele>
        <time>2019-09-09T05:51:09Z</time>
      </trkpt>
      <trkpt lat="46.0325121" lon="7.1002369">
        <ele>1536.85</ele>
        <time>2019-09-09T05:51:21Z</time>
      </trkpt>
      <trkpt lat="46.0325390" lon="7.1000976">
        <ele>1536.94</ele>
        <time>2019-09-09T05:51:31Z</time>
      </trkpt>
      <trkpt lat="46.0325157" lon="7.0999497">
        <ele>1537.94</ele>
        <time>2019-09-09T05:51:43Z</time>
      </trkpt>
      <trkpt lat="46.0325076" lon="7.0998092">
        <ele>1538.64</ele>
        <time>2019-09-09T05:51:51Z</time>
      </trkpt>
      <trkpt lat="46.0325156" lon="7.0996664">
        <ele>1539.85</ele>
        <time>2019-09-09T05:52:01Z</time>
      </trkpt>
      <trkpt lat="46.0325413" lon="7.0995359">
        <ele>1539.61</ele>
        <time>2019-09-09T05:52:09Z</time>
      </trkpt>
      <trkpt lat="46.0325616" lon="7.0993986">
        <ele>1541.84</ele>
        <time>2019-09-09T05:52:17Z</time>
      </trkpt>
      <trkpt lat="46.0325684" lon="7.0992573">
        <ele>1543.84</ele>
        <time>2019-09-09T05:52:27Z</time>
      </trkpt>
      <trkpt lat="46.0325473" lon="7.0991296">
        <ele>1545.82</ele>
        <time>2019-09-09T05:52:37Z</time>
      </trkpt>
      <trkpt lat="46.0325731" lon="7.0989789">
        <ele>1547.63</ele>
        <time>2019-09-09T05:52:47Z</time>
      </trkpt>
      <trkpt lat="46.0325597" lon="7.0988293">
        <ele>1548.91</ele>
        <time>2019-09-09T05:52:57Z</time>
      </trkpt>
      <trkpt lat="46.0325375" lon="7.0986851">
        <ele>1550.61</ele>
        <time>2019-09-09T05:53:07Z</time>
      </trkpt>
      <trkpt lat="46.0324779" lon="7.0985511">
        <ele>1550.03</ele>
        <time>2019-09-09T05:53:15Z</time>
      </trkpt>
      <trkpt lat="46.0324308" lon="7.0984159">
        <ele>1549.96</ele>
        <time>2019-09-09T05:53:23Z</time>
      </trkpt>
      <trkpt lat="46.0323787" lon="7.0982772">
        <ele>1548.06</ele>
        <time>2019-09-09T05:53:31Z</time>
      </trkpt>
      <trkpt lat="46.0323545" lon="7.0981455">
        <ele>1547.94</ele>
        <time>2019-09-09T05:53:41Z</time>
      </trkpt>
      <trkpt lat="46.0323303" lon="7.0980053">
        <ele>1546.97</ele>
        <time>2019-09-09T05:53:49Z</time>
      </trkpt>
      <trkpt lat="46.0323072" lon="7.0978535">
        <ele>1547.85</ele>
        <time>2019-09-09T05:53:59Z</time>
      </trkpt>
      <trkpt lat="46.0322280" lon="7.0977758">
        <ele>1547.94</ele>
        <time>2019-09-09T05:54:11Z</time>
      </trkpt>
      <trkpt lat="46.0321511" lon="7.0976712">
        <ele>1546.94</ele>
        <time>2019-09-09T05:54:23Z</time>
      </trkpt>
      <trkpt lat="46.0320832" lon="7.0975417">
        <ele>1547.94</ele>
        <time>2019-09-09T05:54:35Z</time>
      </trkpt>
      <trkpt lat="46.0320339" lon="7.0974006">
        <ele>1549.21</ele>
        <time>2019-09-09T05:54:47Z</time>
      </trkpt>
      <trkpt lat="46.0319886" lon="7.0972664">
        <ele>1549.92</ele>
        <time>2019-09-09T05:54:59Z</time>
      </trkpt>
      <trkpt lat="46.0319340" lon="7.0971461">
        <ele>1551.64</ele>
        <time>2019-09-09T05:55:13Z</time>
      </trkpt>
      <trkpt lat="46.0319444" lon="7.0969938">
        <ele>1552.93</ele>
        <time>2019-09-09T05:55:25Z</time>
      </trkpt>
      <trkpt lat="46.0319565" lon="7.0968490">
        <ele>1552.86</ele>
        <time>2019-09-09T05:55:35Z</time>
      </trkpt>
      <trkpt lat="46.0319863" lon="7.0967139">
        <ele>1553.94</ele>
        <time>2019-09-09T05:55:45Z</time>
      </trkpt>
      <trkpt lat="46.0319750" lon="7.0965676">
        <ele>1554.94</ele>
        <time>2019-09-09T05:55:57Z</time>
      </trkpt>
      <trkpt lat="46.0320015" lon="7.0964206">
        <ele>1556.91</ele>
        <time>2019-09-09T05:56:09Z</time>
      </trkpt>
      <trkpt lat="46.0319912" lon="7.0962570">
        <ele>1556.94</ele>
        <time>2019-09-09T05:56:19Z</time>
      </trkpt>
      <trkpt lat="46.0319924" lon="7.0961243">
        <ele>1557.92</ele>
        <time>2019-09-09T05:56:29Z</time>
      </trkpt>
      <trkpt lat="46.0320143" lon="7.0959683">
        <ele>1558.85</ele>
        <time>2019-09-09T05:56:41Z</time>
      </trkpt>
      <trkpt lat="46.0319680" lon="7.0958242">
        <ele>1561.82</ele>
        <time>2019-09-09T05:56:53Z</time>
      </trkpt>
      <trkpt lat="46.0319371" lon="7.0956735">
        <ele>1562.21</ele>
        <time>2019-09-09T05:57:07Z</time>
      </trkpt>
      <trkpt lat="46.0318751" lon="7.0955574">
        <ele>1561.15</ele>
        <time>2019-09-09T05:57:19Z</time>
      </trkpt>
      <trkpt lat="46.0318034" lon="7.0954314">
        <ele>1561.93</ele>
        <time>2019-09-09T05:57:31Z</time>
      </trkpt>
      <trkpt lat="46.0317435" lon="7.0952978">
        <ele>1562.93</ele>
        <time>2019-09-09T05:57:41Z</time>
      </trkpt>
      <trkpt lat="46.0316903" lon="7.0951881">
        <ele>1562.24</ele>
        <time>2019-09-09T05:57:49Z</time>
      </trkpt>
      <trkpt lat="46.0316458" lon="7.0950649">
        <ele>1561.94</ele>
        <time>2019-09-09T05:57:59Z</time>
      </trkpt>
      <trkpt lat="46.0315742" lon="7.0949641">
        <ele>1562.70</ele>
        <time>2019-09-09T05:58:11Z</time>
      </trkpt>
      <trkpt lat="46.0315376" lon="7.0948448">
        <ele>1563.94</ele>
        <time>2019-09-09T05:58:21Z</time>
      </trkpt>
      <trkpt lat="46.0314837" lon="7.0947219">
        <ele>1562.94</ele>
        <time>2019-09-09T05:58:37Z</time>
      </trkpt>
      <trkpt lat="46.0315223" lon="7.0945976">
        <ele>1562.61</ele>
        <time>2019-09-09T05:58:57Z</time>
      </trkpt>
      <trkpt lat="46.0315332" lon="7.0944571">
        <ele>1564.64</ele>
        <time>2019-09-09T05:59:11Z</time>
      </trkpt>
      <trkpt lat="46.0314510" lon="7.0943959">
        <ele>1566.91</ele>
        <time>2019-09-09T05:59:27Z</time>
      </trkpt>
      <trkpt lat="46.0313745" lon="7.0943205">
        <ele>1568.63</ele>
        <time>2019-09-09T05:59:45Z</time>
      </trkpt>
      <trkpt lat="46.0312783" lon="7.0942631">
        <ele>1572.31</ele>
        <time>2019-09-09T06:00:15Z</time>
      </trkpt>
      <trkpt lat="46.0311988" lon="7.0941825">
        <ele>1574.85</ele>
        <time>2019-09-09T06:00:33Z</time>
      </trkpt>
      <trkpt lat="46.0311003" lon="7.0941696">
        <ele>1577.55</ele>
        <time>2019-09-09T06:00:47Z</time>
      </trkpt>
      <trkpt lat="46.0310392" lon="7.0942923">
        <ele>1579.63</ele>
        <time>2019-09-09T06:00:59Z</time>
      </trkpt>
      <trkpt lat="46.0310510" lon="7.0944235">
        <ele>1579.24</ele>
        <time>2019-09-09T06:01:07Z</time>
      </trkpt>
      <trkpt lat="46.0309651" lon="7.0944693">
        <ele>1581.91</ele>
        <time>2019-09-09T06:01:23Z</time>
      </trkpt>
      <trkpt lat="46.0308731" lon="7.0944069">
        <ele>1585.94</ele>
        <time>2019-09-09T06:01:51Z</time>
      </trkpt>
      <trkpt lat="46.0307785" lon="7.0943789">
        <ele>1590.63</ele>
        <time>2019-09-09T06:02:09Z</time>
      </trkpt>
      <trkpt lat="46.0307078" lon="7.0942808">
        <ele>1592.93</ele>
        <time>2019-09-09T06:02:25Z</time>
      </trkpt>
      <trkpt lat="46.0306443" lon="7.0941664">
        <ele>1596.85</ele>
        <time>2019-09-09T06:02:41Z</time>
      </trkpt>
      <trkpt lat="46.0305407" lon="7.0941699">
        <ele>1599.64</ele>
        <time>2019-09-09T06:02:59Z</time>
      </trkpt>
      <trkpt lat="46.0304642" lon="7.0940649">
        <ele>1603.23</ele>
        <time>2019-09-09T06:03:29Z</time>
      </trkpt>
      <trkpt lat="46.0303703" lon="7.0940096">
        <ele>1604.93</ele>
        <time>2019-09-09T06:03:45Z</time>
      </trkpt>
      <trkpt lat="46.0303241" lon="7.0941290">
        <ele>1607.85</ele>
        <time>2019-09-09T06:04:07Z</time>
      </trkpt>
      <trkpt lat="46.0302403" lon="7.0940304">
        <ele>1609.64</ele>
        <time>2019-09-09T06:04:19Z</time>
      </trkpt>
      <trkpt lat="46.0301774" lon="7.0939319">
        <ele>1614.50</ele>
        <time>2019-09-09T06:04:35Z</time>
      </trkpt>
      <trkpt lat="46.0300733" lon="7.0939696">
        <ele>1617.85</ele>
        <time>2019-09-09T06:04:51Z</time>
      </trkpt>
      <trkpt lat="46.0299715" lon="7.0939095">
        <ele>1617.71</ele>
        <time>2019-09-09T06:05:01Z</time>
      </trkpt>
      <trkpt lat="46.0298716" lon="7.0938528">
        <ele>1617.94</ele>
        <time>2019-09-09T06:05:13Z</time>
      </trkpt>
      <trkpt lat="46.0298231" lon="7.0937111">
        <ele>1617.94</ele>
        <time>2019-09-09T06:05:21Z</time>
      </trkpt>
      <trkpt lat="46.0297752" lon="7.0935635">
        <ele>1617.94</ele>
        <time>2019-09-09T06:05:31Z</time>
      </trkpt>
      <trkpt lat="46.0297378" lon="7.0934059">
        <ele>1618.94</ele>
        <time>2019-09-09T06:05:41Z</time>
      </trkpt>
      <trkpt lat="46.0297095" lon="7.0932598">
        <ele>1619.92</ele>
        <time>2019-09-09T06:05:51Z</time>
      </trkpt>
      <trkpt lat="46.0296673" lon="7.0931259">
        <ele>1620.94</ele>
        <time>2019-09-09T06:06:03Z</time>
      </trkpt>
      <trkpt lat="46.0296257" lon="7.0929799">
        <ele>1621.88</ele>
        <time>2019-09-09T06:06:13Z</time>
      </trkpt>
      <trkpt lat="46.0295868" lon="7.0928397">
        <ele>1621.94</ele>
        <time>2019-09-09T06:06:25Z</time>
      </trkpt>
      <trkpt lat="46.0295406" lon="7.0927131">
        <ele>1622.21</ele>
        <time>2019-09-09T06:06:33Z</time>
      </trkpt>
      <trkpt lat="46.0294840" lon="7.0926011">
        <ele>1621.94</ele>
        <time>2019-09-09T06:06:41Z</time>
      </trkpt>
      <trkpt lat="46.0294380" lon="7.0924818">
        <ele>1623.14</ele>
        <time>2019-09-09T06:06:51Z</time>
      </trkpt>
      <trkpt lat="46.0294033" lon="7.0923619">
        <ele>1623.92</ele>
        <time>2019-09-09T06:06:59Z</time>
      </trkpt>
      <trkpt lat="46.0293478" lon="7.0922571">
        <ele>1623.16</ele>
        <time>2019-09-09T06:07:09Z</time>
      </trkpt>
      <trkpt lat="46.0292901" lon="7.0921432">
        <ele>1623.24</ele>
        <time>2019-09-09T06:07:17Z</time>
      </trkpt>
      <trkpt lat="46.0292414" lon="7.0920190">
        <ele>1623.94</ele>
        <time>2019-09-09T06:07:25Z</time>
      </trkpt>
      <trkpt lat="46.0291823" lon="7.0918912">
        <ele>1623.94</ele>
        <time>2019-09-09T06:07:35Z</time>
      </trkpt>
      <trkpt lat="46.0291418" lon="7.0917455">
        <ele>1623.94</ele>
        <time>2019-09-09T06:07:45Z</time>
      </trkpt>
      <trkpt lat="46.0291103" lon="7.0915912">
        <ele>1623.94</ele>
        <time>2019-09-09T06:07:55Z</time>
      </trkpt>
      <trkpt lat="46.0290892" lon="7.0914588">
        <ele>1623.03</ele>
        <time>2019-09-09T06:08:03Z</time>
      </trkpt>
      <trkpt lat="46.0290855" lon="7.0913118">
        <ele>1624.63</ele>
        <time>2019-09-09T06:08:13Z</time>
      </trkpt>
      <trkpt lat="46.0290600" lon="7.0911829">
        <ele>1624.92</ele>
        <time>2019-09-09T06:08:21Z</time>
      </trkpt>
      <trkpt lat="46.0290352" lon="7.0910494">
        <ele>1626.61</ele>
        <time>2019-09-09T06:08:29Z</time>
      </trkpt>
      <trkpt lat="46.0289943" lon="7.0909302">
        <ele>1626.94</ele>
        <time>2019-09-09T06:08:39Z</time>
      </trkpt>
      <trkpt lat="46.0289640" lon="7.0907964">
        <ele>1628.82</ele>
        <time>2019-09-09T06:08:49Z</time>
      </trkpt>
      <trkpt lat="46.0289334" lon="7.0906518">
        <ele>1629.64</ele>
        <time>2019-09-09T06:08:59Z</time>
      </trkpt>
      <trkpt lat="46.0289217" lon="7.0904949">
        <ele>1629.92</ele>
        <time>2019-09-09T06:09:09Z</time>
      </trkpt>
      <trkpt lat="46.0289268" lon="7.0903393">
        <ele>1629.94</ele>
        <time>2019-09-09T06:09:19Z</time>
      </trkpt>
      <trkpt lat="46.0289323" lon="7.0901912">
        <ele>1629.94</ele>
        <time>2019-09-09T06:09:29Z</time>
      </trkpt>
      <trkpt lat="46.0289277" lon="7.0900562">
        <ele>1629.94</ele>
        <time>2019-09-09T06:09:37Z</time>
      </trkpt>
      <trkpt lat="46.0289369" lon="7.0899113">
        <ele>1630.66</ele>
        <time>2019-09-09T06:09:47Z</time>
      </trkpt>
      <trkpt lat="46.0289568" lon="7.0897590">
        <ele>1631.91</ele>
        <time>2019-09-09T06:09:57Z</time>
      </trkpt>
      <trkpt lat="46.0290221" lon="7.0896492">
        <ele>1631.24</ele>
        <time>2019-09-09T06:10:07Z</time>
      </trkpt>
      <trkpt lat="46.0290767" lon="7.0895274">
        <ele>1633.53</ele>
        <time>2019-09-09T06:10:19Z</time>
      </trkpt>
      <trkpt lat="46.0290699" lon="7.0893968">
        <ele>1637.52</ele>
        <time>2019-09-09T06:10:29Z</time>
      </trkpt>
      <trkpt lat="46.0290630" lon="7.0892523">
        <ele>1640.63</ele>
        <time>2019-09-09T06:10:41Z</time>
      </trkpt>
      <trkpt lat="46.0290590" lon="7.0891225">
        <ele>1641.93</ele>
        <time>2019-09-09T06:10:51Z</time>
      </trkpt>
      <trkpt lat="46.0290302" lon="7.0889835">
        <ele>1642.64</ele>
        <time>2019-09-09T06:11:01Z</time>
      </trkpt>
      <trkpt lat="46.0290176" lon="7.0888353">
        <ele>1642.73</ele>
        <time>2019-09-09T06:11:11Z</time>
      </trkpt>
      <trkpt lat="46.0289839" lon="7.0886840">
        <ele>1642.64</ele>
        <time>2019-09-09T06:11:21Z</time>
      </trkpt>
      <trkpt lat="46.0289341" lon="7.0885678">
        <ele>1642.67</ele>
        <time>2019-09-09T06:11:29Z</time>
      </trkpt>
      <trkpt lat="46.0288957" lon="7.0884376">
        <ele>1641.97</ele>
        <time>2019-09-09T06:11:37Z</time>
      </trkpt>
      <trkpt lat="46.0288843" lon="7.0882876">
        <ele>1642.94</ele>
        <time>2019-09-09T06:11:47Z</time>
      </trkpt>
      <trkpt lat="46.0288476" lon="7.0881570">
        <ele>1644.84</ele>
        <time>2019-09-09T06:11:57Z</time>
      </trkpt>
      <trkpt lat="46.0287926" lon="7.0880487">
        <ele>1648.82</ele>
        <time>2019-09-09T06:12:09Z</time>
      </trkpt>
      <trkpt lat="46.0287134" lon="7.0879650">
        <ele>1652.52</ele>
        <time>2019-09-09T06:12:21Z</time>
      </trkpt>
      <trkpt lat="46.0286459" lon="7.0878673">
        <ele>1656.60</ele>
        <time>2019-09-09T06:12:33Z</time>
      </trkpt>
      <trkpt lat="46.0285760" lon="7.0877835">
        <ele>1657.94</ele>
        <time>2019-09-09T06:12:47Z</time>
      </trkpt>
      <trkpt lat="46.0285086" lon="7.0876937">
        <ele>1661.61</ele>
        <time>2019-09-09T06:13:01Z</time>
      </trkpt>
      <trkpt lat="46.0284214" lon="7.0876116">
        <ele>1662.85</ele>
        <time>2019-09-09T06:13:13Z</time>
      </trkpt>
      <trkpt lat="46.0284160" lon="7.0874636">
        <ele>1663.96</ele>
        <time>2019-09-09T06:13:29Z</time>
      </trkpt>
      <trkpt lat="46.0284025" lon="7.0873323">
        <ele>1665.93</ele>
        <time>2019-09-09T06:13:41Z</time>
      </trkpt>
      <trkpt lat="46.0283657" lon="7.0872037">
        <ele>1667.84</ele>
        <time>2019-09-09T06:13:51Z</time>
      </trkpt>
      <trkpt lat="46.0283706" lon="7.0870734">
        <ele>1669.73</ele>
        <time>2019-09-09T06:14:05Z</time>
      </trkpt>
      <trkpt lat="46.0284468" lon="7.0869725">
        <ele>1670.66</ele>
        <time>2019-09-09T06:14:17Z</time>
      </trkpt>
      <trkpt lat="46.0284462" lon="7.0868369">
        <ele>1671.64</ele>
        <time>2019-09-09T06:14:31Z</time>
      </trkpt>
      <trkpt lat="46.0284020" lon="7.0867041">
        <ele>1671.03</ele>
        <time>2019-09-09T06:14:41Z</time>
      </trkpt>
      <trkpt lat="46.0283633" lon="7.0865859">
        <ele>1670.94</ele>
        <time>2019-09-09T06:14:51Z</time>
      </trkpt>
      <trkpt lat="46.0282969" lon="7.0864740">
        <ele>1670.96</ele>
        <time>2019-09-09T06:15:05Z</time>
      </trkpt>
      <trkpt lat="46.0282452" lon="7.0863534">
        <ele>1670.94</ele>
        <time>2019-09-09T06:15:17Z</time>
      </trkpt>
      <trkpt lat="46.0282126" lon="7.0862316">
        <ele>1671.85</ele>
        <time>2019-09-09T06:15:27Z</time>
      </trkpt>
      <trkpt lat="46.0281654" lon="7.0860886">
        <ele>1671.88</ele>
        <time>2019-09-09T06:15:37Z</time>
      </trkpt>
      <trkpt lat="46.0281136" lon="7.0859565">
        <ele>1672.91</ele>
        <time>2019-09-09T06:15:47Z</time>
      </trkpt>
      <trkpt lat="46.0280710" lon="7.0858067">
        <ele>1673.93</ele>
        <time>2019-09-09T06:15:59Z</time>
      </trkpt>
      <trkpt lat="46.0280447" lon="7.0856588">
        <ele>1674.85</ele>
        <time>2019-09-09T06:16:09Z</time>
      </trkpt>
      <trkpt lat="46.0280128" lon="7.0855359">
        <ele>1676.63</ele>
        <time>2019-09-09T06:16:19Z</time>
      </trkpt>
      <trkpt lat="46.0280049" lon="7.0853823">
        <ele>1677.91</ele>
        <time>2019-09-09T06:16:29Z</time>
      </trkpt>
      <trkpt lat="46.0280404" lon="7.0852431">
        <ele>1677.97</ele>
        <time>2019-09-09T06:16:41Z</time>
      </trkpt>
      <trkpt lat="46.0280832" lon="7.0850943">
        <ele>1680.55</ele>
        <time>2019-09-09T06:16:53Z</time>
      </trkpt>
      <trkpt lat="46.0281112" lon="7.0849493">
        <ele>1682.82</ele>
        <time>2019-09-09T06:17:03Z</time>
      </trkpt>
      <trkpt lat="46.0281231" lon="7.0847948">
        <ele>1685.61</ele>
        <time>2019-09-09T06:17:15Z</time>
      </trkpt>
      <trkpt lat="46.0281213" lon="7.0846517">
        <ele>1686.92</ele>
        <time>2019-09-09T06:17:25Z</time>
      </trkpt>
      <trkpt lat="46.0280989" lon="7.0844943">
        <ele>1686.94</ele>
        <time>2019-09-09T06:17:37Z</time>
      </trkpt>
      <trkpt lat="46.0280571" lon="7.0843565">
        <ele>1688.64</ele>
        <time>2019-09-09T06:17:47Z</time>
      </trkpt>
      <trkpt lat="46.0280208" lon="7.0842197">
        <ele>1689.93</ele>
        <time>2019-09-09T06:17:57Z</time>
      </trkpt>
      <trkpt lat="46.0279783" lon="7.0840994">
        <ele>1690.85</ele>
        <time>2019-09-09T06:18:05Z</time>
      </trkpt>
      <trkpt lat="46.0279205" lon="7.0839829">
        <ele>1690.94</ele>
        <time>2019-09-09T06:18:15Z</time>
      </trkpt>
      <trkpt lat="46.0278498" lon="7.0838726">
        <ele>1693.63</ele>
        <time>2019-09-09T06:18:27Z</time>
      </trkpt>
      <trkpt lat="46.0277862" lon="7.0837589">
        <ele>1693.71</ele>
        <time>2019-09-09T06:18:37Z</time>
      </trkpt>
      <trkpt lat="46.0277284" lon="7.0836377">
        <ele>1693.94</ele>
        <time>2019-09-09T06:18:47Z</time>
      </trkpt>
      <trkpt lat="46.0276757" lon="7.0835112">
        <ele>1694.93</ele>
        <time>2019-09-09T06:18:57Z</time>
      </trkpt>
      <trkpt lat="46.0276138" lon="7.0834165">
        <ele>1696.91</ele>
        <time>2019-09-09T06:19:07Z</time>
      </trkpt>
      <trkpt lat="46.0275622" lon="7.0833090">
        <ele>1697.64</ele>
        <time>2019-09-09T06:19:17Z</time>
      </trkpt>
      <trkpt lat="46.0275161" lon="7.0831847">
        <ele>1699.64</ele>
        <time>2019-09-09T06:19:27Z</time>
      </trkpt>
      <trkpt lat="46.0274843" lon="7.0830452">
        <ele>1700.21</ele>
        <time>2019-09-09T06:19:39Z</time>
      </trkpt>
      <trkpt lat="46.0274642" lon="7.0829172">
        <ele>1699.94</ele>
        <time>2019-09-09T06:19:49Z</time>
      </trkpt>
      <trkpt lat="46.0274410" lon="7.0827782">
        <ele>1701.55</ele>
        <time>2019-09-09T06:19:59Z</time>
      </trkpt>
      <trkpt lat="46.0273955" lon="7.0826654">
        <ele>1702.93</ele>
        <time>2019-09-09T06:20:09Z</time>
      </trkpt>
      <trkpt lat="46.0273072" lon="7.0825756">
        <ele>1703.02</ele>
        <time>2019-09-09T06:20:21Z</time>
      </trkpt>
      <trkpt lat="46.0272333" lon="7.0824730">
        <ele>1703.15</ele>
        <time>2019-09-09T06:20:29Z</time>
      </trkpt>
      <trkpt lat="46.0271582" lon="7.0823874">
        <ele>1703.01</ele>
        <time>2019-09-09T06:20:39Z</time>
      </trkpt>
      <trkpt lat="46.0270836" lon="7.0822837">
        <ele>1705.84</ele>
        <time>2019-09-09T06:20:49Z</time>
      </trkpt>
      <trkpt lat="46.0270050" lon="7.0821881">
        <ele>1707.64</ele>
        <time>2019-09-09T06:21:01Z</time>
      </trkpt>
      <trkpt lat="46.0269392" lon="7.0820819">
        <ele>1707.86</ele>
        <time>2019-09-09T06:21:13Z</time>
      </trkpt>
      <trkpt lat="46.0268801" lon="7.0819721">
        <ele>1712.91</ele>
        <time>2019-09-09T06:21:23Z</time>
      </trkpt>
      <trkpt lat="46.0268382" lon="7.0818453">
        <ele>1712.24</ele>
        <time>2019-09-09T06:21:33Z</time>
      </trkpt>
      <trkpt lat="46.0268036" lon="7.0816875">
        <ele>1712.91</ele>
        <time>2019-09-09T06:21:44Z</time>
      </trkpt>
      <trkpt lat="46.0267864" lon="7.0815475">
        <ele>1711.24</ele>
        <time>2019-09-09T06:21:54Z</time>
      </trkpt>
      <trkpt lat="46.0267351" lon="7.0814366">
        <ele>1711.94</ele>
        <time>2019-09-09T06:22:04Z</time>
      </trkpt>
      <trkpt lat="46.0266883" lon="7.0813241">
        <ele>1712.00</ele>
        <time>2019-09-09T06:22:14Z</time>
      </trkpt>
      <trkpt lat="46.0266302" lon="7.0812163">
        <ele>1708.69</ele>
        <time>2019-09-09T06:22:24Z</time>
      </trkpt>
      <trkpt lat="46.0265494" lon="7.0811569">
        <ele>1712.89</ele>
        <time>2019-09-09T06:22:32Z</time>
      </trkpt>
      <trkpt lat="46.0264714" lon="7.0810809">
        <ele>1716.81</ele>
        <time>2019-09-09T06:22:42Z</time>
      </trkpt>
      <trkpt lat="46.0263963" lon="7.0809840">
        <ele>1718.91</ele>
        <time>2019-09-09T06:22:52Z</time>
      </trkpt>
      <trkpt lat="46.0263034" lon="7.0809225">
        <ele>1719.85</ele>
        <time>2019-09-09T06:23:02Z</time>
      </trkpt>
      <trkpt lat="46.0262181" lon="7.0808657">
        <ele>1721.84</ele>
        <time>2019-09-09T06:23:12Z</time>
      </trkpt>
      <trkpt lat="46.0261367" lon="7.0807949">
        <ele>1721.87</ele>
        <time>2019-09-09T06:23:22Z</time>
      </trkpt>
      <trkpt lat="46.0260759" lon="7.0806870">
        <ele>1723.64</ele>
        <time>2019-09-09T06:23:32Z</time>
      </trkpt>
      <trkpt lat="46.0260692" lon="7.0805413">
        <ele>1723.85</ele>
        <time>2019-09-09T06:23:44Z</time>
      </trkpt>
      <trkpt lat="46.0260848" lon="7.0803907">
        <ele>1725.84</ele>
        <time>2019-09-09T06:23:56Z</time>
      </trkpt>
      <trkpt lat="46.0260754" lon="7.0802492">
        <ele>1726.94</ele>
        <time>2019-09-09T06:24:08Z</time>
      </trkpt>
      <trkpt lat="46.0260418" lon="7.0801079">
        <ele>1729.84</ele>
        <time>2019-09-09T06:24:20Z</time>
      </trkpt>
      <trkpt lat="46.0260422" lon="7.0799756">
        <ele>1731.55</ele>
        <time>2019-09-09T06:24:30Z</time>
      </trkpt>
      <trkpt lat="46.0259748" lon="7.0798517">
        <ele>1732.93</ele>
        <time>2019-09-09T06:24:42Z</time>
      </trkpt>
      <trkpt lat="46.0259252" lon="7.0797401">
        <ele>1734.85</ele>
        <time>2019-09-09T06:24:54Z</time>
      </trkpt>
      <trkpt lat="46.0258571" lon="7.0796415">
        <ele>1738.54</ele>
        <time>2019-09-09T06:25:06Z</time>
      </trkpt>
      <trkpt lat="46.0257994" lon="7.0795251">
        <ele>1741.84</ele>
        <time>2019-09-09T06:25:18Z</time>
      </trkpt>
      <trkpt lat="46.0257478" lon="7.0794186">
        <ele>1743.63</ele>
        <time>2019-09-09T06:25:26Z</time>
      </trkpt>
      <trkpt lat="46.0256911" lon="7.0792930">
        <ele>1744.85</ele>
        <time>2019-09-09T06:25:38Z</time>
      </trkpt>
      <trkpt lat="46.0256442" lon="7.0791668">
        <ele>1746.84</ele>
        <time>2019-09-09T06:25:50Z</time>
      </trkpt>
      <trkpt lat="46.0255978" lon="7.0790347">
        <ele>1748.85</ele>
        <time>2019-09-09T06:26:04Z</time>
      </trkpt>
      <trkpt lat="46.0255561" lon="7.0788959">
        <ele>1750.64</ele>
        <time>2019-09-09T06:26:18Z</time>
      </trkpt>
      <trkpt lat="46.0255066" lon="7.0787614">
        <ele>1751.85</ele>
        <time>2019-09-09T06:26:32Z</time>
      </trkpt>
      <trkpt lat="46.0254990" lon="7.0786276">
        <ele>1752.85</ele>
        <time>2019-09-09T06:26:42Z</time>
      </trkpt>
      <trkpt lat="46.0254695" lon="7.0784942">
        <ele>1753.64</ele>
        <time>2019-09-09T06:26:54Z</time>
      </trkpt>
      <trkpt lat="46.0254293" lon="7.0783656">
        <ele>1754.85</ele>
        <time>2019-09-09T06:27:08Z</time>
      </trkpt>
      <trkpt lat="46.0254320" lon="7.0782281">
        <ele>1755.87</ele>
        <time>2019-09-09T06:27:20Z</time>
      </trkpt>
      <trkpt lat="46.0254574" lon="7.0780786">
        <ele>1755.92</ele>
        <time>2019-09-09T06:27:34Z</time>
      </trkpt>
      <trkpt lat="46.0254589" lon="7.0779387">
        <ele>1756.94</ele>
        <time>2019-09-09T06:27:44Z</time>
      </trkpt>
      <trkpt lat="46.0254423" lon="7.0778030">
        <ele>1758.62</ele>
        <time>2019-09-09T06:27:56Z</time>
      </trkpt>
      <trkpt lat="46.0253867" lon="7.0776781">
        <ele>1760.64</ele>
        <time>2019-09-09T06:28:08Z</time>
      </trkpt>
      <trkpt lat="46.0253326" lon="7.0775543">
        <ele>1756.30</ele>
        <time>2019-09-09T06:28:22Z</time>
      </trkpt>
      <trkpt lat="46.0252529" lon="7.0774672">
        <ele>1763.51</ele>
        <time>2019-09-09T06:28:34Z</time>
      </trkpt>
      <trkpt lat="46.0252366" lon="7.0773277">
        <ele>1764.91</ele>
        <time>2019-09-09T06:28:46Z</time>
      </trkpt>
      <trkpt lat="46.0252635" lon="7.0771911">
        <ele>1760.22</ele>
        <time>2019-09-09T06:29:00Z</time>
      </trkpt>
      <trkpt lat="46.0252864" lon="7.0770415">
        <ele>1763.82</ele>
        <time>2019-09-09T06:29:10Z</time>
      </trkpt>
      <trkpt lat="46.0253021" lon="7.0768944">
        <ele>1766.54</ele>
        <time>2019-09-09T06:29:20Z</time>
      </trkpt>
      <trkpt lat="46.0252914" lon="7.0767602">
        <ele>1764.62</ele>
        <time>2019-09-09T06:29:34Z</time>
      </trkpt>
      <trkpt lat="46.0252702" lon="7.0766291">
        <ele>1768.54</ele>
        <time>2019-09-09T06:29:46Z</time>
      </trkpt>
      <trkpt lat="46.0252201" lon="7.0764870">
        <ele>1769.64</ele>
        <time>2019-09-09T06:30:00Z</time>
      </trkpt>
      <trkpt lat="46.0251543" lon="7.0763742">
        <ele>1771.61</ele>
        <time>2019-09-09T06:30:12Z</time>
      </trkpt>
      <trkpt lat="46.0251091" lon="7.0762557">
        <ele>1773.91</ele>
        <time>2019-09-09T06:30:22Z</time>
      </trkpt>
      <trkpt lat="46.0250509" lon="7.0761499">
        <ele>1775.64</ele>
        <time>2019-09-09T06:30:34Z</time>
      </trkpt>
      <trkpt lat="46.0249701" lon="7.0760518">
        <ele>1776.91</ele>
        <time>2019-09-09T06:30:48Z</time>
      </trkpt>
      <trkpt lat="46.0249140" lon="7.0759482">
        <ele>1778.64</ele>
        <time>2019-09-09T06:30:58Z</time>
      </trkpt>
      <trkpt lat="46.0248519" lon="7.0758319">
        <ele>1780.64</ele>
        <time>2019-09-09T06:31:12Z</time>
      </trkpt>
      <trkpt lat="46.0247996" lon="7.0757162">
        <ele>1782.91</ele>
        <time>2019-09-09T06:31:26Z</time>
      </trkpt>
      <trkpt lat="46.0247873" lon="7.0755812">
        <ele>1784.64</ele>
        <time>2019-09-09T06:31:38Z</time>
      </trkpt>
      <trkpt lat="46.0247831" lon="7.0754422">
        <ele>1787.55</ele>
        <time>2019-09-09T06:31:52Z</time>
      </trkpt>
      <trkpt lat="46.0247898" lon="7.0752908">
        <ele>1788.85</ele>
        <time>2019-09-09T06:32:04Z</time>
      </trkpt>
      <trkpt lat="46.0247715" lon="7.0751548">
        <ele>1789.91</ele>
        <time>2019-09-09T06:32:14Z</time>
      </trkpt>
      <trkpt lat="46.0247193" lon="7.0750322">
        <ele>1791.64</ele>
        <time>2019-09-09T06:32:26Z</time>
      </trkpt>
      <trkpt lat="46.0246751" lon="7.0749190">
        <ele>1794.82</ele>
        <time>2019-09-09T06:32:38Z</time>
      </trkpt>
      <trkpt lat="46.0246193" lon="7.0747991">
        <ele>1796.91</ele>
        <time>2019-09-09T06:32:50Z</time>
      </trkpt>
      <trkpt lat="46.0245521" lon="7.0746842">
        <ele>1800.84</ele>
        <time>2019-09-09T06:33:06Z</time>
      </trkpt>
      <trkpt lat="46.0244969" lon="7.0745805">
        <ele>1801.64</ele>
        <time>2019-09-09T06:33:18Z</time>
      </trkpt>
      <trkpt lat="46.0244312" lon="7.0744766">
        <ele>1803.63</ele>
        <time>2019-09-09T06:33:32Z</time>
      </trkpt>
      <trkpt lat="46.0244089" lon="7.0743295">
        <ele>1805.84</ele>
        <time>2019-09-09T06:33:42Z</time>
      </trkpt>
      <trkpt lat="46.0243623" lon="7.0742108">
        <ele>1806.91</ele>
        <time>2019-09-09T06:33:54Z</time>
      </trkpt>
      <trkpt lat="46.0243400" lon="7.0740795">
        <ele>1808.94</ele>
        <time>2019-09-09T06:34:06Z</time>
      </trkpt>
      <trkpt lat="46.0242775" lon="7.0739823">
        <ele>1811.91</ele>
        <time>2019-09-09T06:34:20Z</time>
      </trkpt>
      <trkpt lat="46.0241966" lon="7.0739066">
        <ele>1821.39</ele>
        <time>2019-09-09T06:34:37Z</time>
      </trkpt>
      <trkpt lat="46.0242043" lon="7.0737635">
        <ele>1819.96</ele>
        <time>2019-09-09T06:35:11Z</time>
      </trkpt>
      <trkpt lat="46.0242913" lon="7.0736649">
        <ele>1819.88</ele>
        <time>2019-09-09T06:35:19Z</time>
      </trkpt>
      <trkpt lat="46.0243093" lon="7.0735345">
        <ele>1820.25</ele>
        <time>2019-09-09T06:35:33Z</time>
      </trkpt>
      <trkpt lat="46.0243559" lon="7.0734026">
        <ele>1819.94</ele>
        <time>2019-09-09T06:35:47Z</time>
      </trkpt>
      <trkpt lat="46.0243972" lon="7.0732858">
        <ele>1818.95</ele>
        <time>2019-09-09T06:35:59Z</time>
      </trkpt>
      <trkpt lat="46.0244826" lon="7.0731949">
        <ele>1818.88</ele>
        <time>2019-09-09T06:36:11Z</time>
      </trkpt>
      <trkpt lat="46.0244881" lon="7.0730561">
        <ele>1818.95</ele>
        <time>2019-09-09T06:36:21Z</time>
      </trkpt>
      <trkpt lat="46.0245626" lon="7.0729608">
        <ele>1820.64</ele>
        <time>2019-09-09T06:36:37Z</time>
      </trkpt>
      <trkpt lat="46.0246453" lon="7.0729096">
        <ele>1822.85</ele>
        <time>2019-09-09T06:36:51Z</time>
      </trkpt>
      <trkpt lat="46.0246037" lon="7.0727668">
        <ele>1823.02</ele>
        <time>2019-09-09T06:37:07Z</time>
      </trkpt>
      <trkpt lat="46.0245241" lon="7.0726980">
        <ele>1821.97</ele>
        <time>2019-09-09T06:37:17Z</time>
      </trkpt>
      <trkpt lat="46.0245626" lon="7.0725789">
        <ele>1822.93</ele>
        <time>2019-09-09T06:37:27Z</time>
      </trkpt>
      <trkpt lat="46.0245402" lon="7.0724315">
        <ele>1825.84</ele>
        <time>2019-09-09T06:37:41Z</time>
      </trkpt>
      <trkpt lat="46.0245115" lon="7.0722992">
        <ele>1827.85</ele>
        <time>2019-09-09T06:37:53Z</time>
      </trkpt>
      <trkpt lat="46.0244850" lon="7.0721581">
        <ele>1831.61</ele>
        <time>2019-09-09T06:38:09Z</time>
      </trkpt>
      <trkpt lat="46.0243950" lon="7.0720631">
        <ele>1833.84</ele>
        <time>2019-09-09T06:38:25Z</time>
      </trkpt>
      <trkpt lat="46.0243099" lon="7.0720052">
        <ele>1836.15</ele>
        <time>2019-09-09T06:38:41Z</time>
      </trkpt>
      <trkpt lat="46.0242627" lon="7.0718899">
        <ele>1837.91</ele>
        <time>2019-09-09T06:38:51Z</time>
      </trkpt>
      <trkpt lat="46.0243022" lon="7.0717503">
        <ele>1837.64</ele>
        <time>2019-09-09T06:39:05Z</time>
      </trkpt>
      <trkpt lat="46.0243235" lon="7.0715993">
        <ele>1839.83</ele>
        <time>2019-09-09T06:39:17Z</time>
      </trkpt>
      <trkpt lat="46.0241978" lon="7.0715801">
        <ele>1851.01</ele>
        <time>2019-09-09T06:39:43Z</time>
      </trkpt>
      <trkpt lat="46.0241080" lon="7.0715633">
        <ele>1851.51</ele>
        <time>2019-09-09T06:39:53Z</time>
      </trkpt>
      <trkpt lat="46.0240863" lon="7.0714209">
        <ele>1850.95</ele>
        <time>2019-09-09T06:40:04Z</time>
      </trkpt>
      <trkpt lat="46.0240499" lon="7.0712899">
        <ele>1850.31</ele>
        <time>2019-09-09T06:40:22Z</time>
      </trkpt>
      <trkpt lat="46.0241001" lon="7.0711524">
        <ele>1850.85</ele>
        <time>2019-09-09T06:40:34Z</time>
      </trkpt>
      <trkpt lat="46.0240209" lon="7.0710605">
        <ele>1852.91</ele>
        <time>2019-09-09T06:40:46Z</time>
      </trkpt>
      <trkpt lat="46.0239626" lon="7.0709562">
        <ele>1854.85</ele>
        <time>2019-09-09T06:41:06Z</time>
      </trkpt>
      <trkpt lat="46.0238957" lon="7.0708521">
        <ele>1858.15</ele>
        <time>2019-09-09T06:41:28Z</time>
      </trkpt>
      <trkpt lat="46.0238572" lon="7.0707269">
        <ele>1859.84</ele>
        <time>2019-09-09T06:41:40Z</time>
      </trkpt>
      <trkpt lat="46.0238315" lon="7.0705975">
        <ele>1861.85</ele>
        <time>2019-09-09T06:41:54Z</time>
      </trkpt>
      <trkpt lat="46.0237741" lon="7.0704809">
        <ele>1863.94</ele>
        <time>2019-09-09T06:42:14Z</time>
      </trkpt>
      <trkpt lat="46.0237075" lon="7.0703798">
        <ele>1866.84</ele>
        <time>2019-09-09T06:42:28Z</time>
      </trkpt>
      <trkpt lat="46.0237291" lon="7.0702476">
        <ele>1861.99</ele>
        <time>2019-09-09T06:42:42Z</time>
      </trkpt>
      <trkpt lat="46.0237129" lon="7.0701165">
        <ele>1870.82</ele>
        <time>2019-09-09T06:42:56Z</time>
      </trkpt>
      <trkpt lat="46.0236850" lon="7.0699783">
        <ele>1870.94</ele>
        <time>2019-09-09T06:43:14Z</time>
      </trkpt>
      <trkpt lat="46.0237226" lon="7.0698555">
        <ele>1872.91</ele>
        <time>2019-09-09T06:43:30Z</time>
      </trkpt>
      <trkpt lat="46.0237070" lon="7.0697266">
        <ele>1872.94</ele>
        <time>2019-09-09T06:43:44Z</time>
      </trkpt>
      <trkpt lat="46.0237464" lon="7.0695867">
        <ele>1875.61</ele>
        <time>2019-09-09T06:44:02Z</time>
      </trkpt>
      <trkpt lat="46.0237445" lon="7.0694333">
        <ele>1867.39</ele>
        <time>2019-09-09T06:44:16Z</time>
      </trkpt>
      <trkpt lat="46.0237150" lon="7.0693084">
        <ele>1876.60</ele>
        <time>2019-09-09T06:44:28Z</time>
      </trkpt>
      <trkpt lat="46.0236965" lon="7.0691810">
        <ele>1880.52</ele>
        <time>2019-09-09T06:44:38Z</time>
      </trkpt>
      <trkpt lat="46.0236692" lon="7.0690474">
        <ele>1883.91</ele>
        <time>2019-09-09T06:44:58Z</time>
      </trkpt>
      <trkpt lat="46.0236114" lon="7.0689461">
        <ele>1884.94</ele>
        <time>2019-09-09T06:45:12Z</time>
      </trkpt>
      <trkpt lat="46.0235391" lon="7.0688570">
        <ele>1886.64</ele>
        <time>2019-09-09T06:45:26Z</time>
      </trkpt>
      <trkpt lat="46.0235237" lon="7.0687243">
        <ele>1888.64</ele>
        <time>2019-09-09T06:45:42Z</time>
      </trkpt>
      <trkpt lat="46.0234559" lon="7.0686239">
        <ele>1888.92</ele>
        <time>2019-09-09T06:45:54Z</time>
      </trkpt>
      <trkpt lat="46.0234055" lon="7.0685126">
        <ele>1891.61</ele>
        <time>2019-09-09T06:46:10Z</time>
      </trkpt>
      <trkpt lat="46.0233277" lon="7.0684316">
        <ele>1892.94</ele>
        <time>2019-09-09T06:46:26Z</time>
      </trkpt>
      <trkpt lat="46.0232766" lon="7.0683199">
        <ele>1893.64</ele>
        <time>2019-09-09T06:46:44Z</time>
      </trkpt>
      <trkpt lat="46.0232111" lon="7.0682129">
        <ele>1895.55</ele>
        <time>2019-09-09T06:47:00Z</time>
      </trkpt>
      <trkpt lat="46.0231337" lon="7.0681110">
        <ele>1898.88</ele>
        <time>2019-09-09T06:47:56Z</time>
      </trkpt>
      <trkpt lat="46.0231059" lon="7.0679871">
        <ele>1904.77</ele>
        <time>2019-09-09T06:51:03Z</time>
      </trkpt>
      <trkpt lat="46.0230304" lon="7.0679107">
        <ele>1909.82</ele>
        <time>2019-09-09T06:52:51Z</time>
      </trkpt>
      <trkpt lat="46.0229445" lon="7.0678494">
        <ele>1916.85</ele>
        <time>2019-09-09T06:53:04Z</time>
      </trkpt>
      <trkpt lat="46.0229619" lon="7.0677154">
        <ele>1917.22</ele>
        <time>2019-09-09T06:54:44Z</time>
      </trkpt>
      <trkpt lat="46.0228806" lon="7.0676578">
        <ele>1915.06</ele>
        <time>2019-09-09T06:54:52Z</time>
      </trkpt>
      <trkpt lat="46.0228734" lon="7.0675196">
        <ele>1914.85</ele>
        <time>2019-09-09T06:55:08Z</time>
      </trkpt>
      <trkpt lat="46.0229096" lon="7.0673837">
        <ele>1916.94</ele>
        <time>2019-09-09T06:55:28Z</time>
      </trkpt>
      <trkpt lat="46.0228599" lon="7.0672729">
        <ele>1919.00</ele>
        <time>2019-09-09T06:55:46Z</time>
      </trkpt>
      <trkpt lat="46.0227945" lon="7.0671760">
        <ele>1920.47</ele>
        <time>2019-09-09T06:56:00Z</time>
      </trkpt>
      <trkpt lat="46.0228281" lon="7.0670525">
        <ele>1922.94</ele>
        <time>2019-09-09T06:56:16Z</time>
      </trkpt>
      <trkpt lat="46.0229017" lon="7.0669722">
        <ele>1924.91</ele>
        <time>2019-09-09T06:56:34Z</time>
      </trkpt>
      <trkpt lat="46.0229076" lon="7.0668374">
        <ele>1928.83</ele>
        <time>2019-09-09T06:57:02Z</time>
      </trkpt>
      <trkpt lat="46.0228871" lon="7.0667097">
        <ele>1934.15</ele>
        <time>2019-09-09T06:57:22Z</time>
      </trkpt>
      <trkpt lat="46.0228876" lon="7.0665788">
        <ele>1937.85</ele>
        <time>2019-09-09T06:57:46Z</time>
      </trkpt>
      <trkpt lat="46.0228573" lon="7.0664439">
        <ele>1939.64</ele>
        <time>2019-09-09T06:58:04Z</time>
      </trkpt>
      <trkpt lat="46.0228368" lon="7.0663144">
        <ele>1941.15</ele>
        <time>2019-09-09T06:58:18Z</time>
      </trkpt>
      <trkpt lat="46.0228062" lon="7.0661781">
        <ele>1941.25</ele>
        <time>2019-09-09T06:58:30Z</time>
      </trkpt>
      <trkpt lat="46.0227260" lon="7.0660777">
        <ele>1942.13</ele>
        <time>2019-09-09T06:58:42Z</time>
      </trkpt>
      <trkpt lat="46.0226637" lon="7.0659818">
        <ele>1944.94</ele>
        <time>2019-09-09T06:58:58Z</time>
      </trkpt>
      <trkpt lat="46.0226446" lon="7.0658392">
        <ele>1947.88</ele>
        <time>2019-09-09T06:59:20Z</time>
      </trkpt>
      <trkpt lat="46.0225649" lon="7.0657670">
        <ele>1949.64</ele>
        <time>2019-09-09T06:59:30Z</time>
      </trkpt>
      <trkpt lat="46.0224942" lon="7.0656857">
        <ele>1951.86</ele>
        <time>2019-09-09T06:59:44Z</time>
      </trkpt>
      <trkpt lat="46.0224373" lon="7.0655770">
        <ele>1955.85</ele>
        <time>2019-09-09T07:00:00Z</time>
      </trkpt>
      <trkpt lat="46.0223782" lon="7.0654598">
        <ele>1956.94</ele>
        <time>2019-09-09T07:00:14Z</time>
      </trkpt>
      <trkpt lat="46.0222873" lon="7.0654613">
        <ele>1956.03</ele>
        <time>2019-09-09T07:00:28Z</time>
      </trkpt>
      <trkpt lat="46.0221963" lon="7.0654976">
        <ele>1956.92</ele>
        <time>2019-09-09T07:00:38Z</time>
      </trkpt>
      <trkpt lat="46.0222007" lon="7.0653656">
        <ele>1960.92</ele>
        <time>2019-09-09T07:01:08Z</time>
      </trkpt>
      <trkpt lat="46.0221580" lon="7.0652493">
        <ele>1962.91</ele>
        <time>2019-09-09T07:01:24Z</time>
      </trkpt>
      <trkpt lat="46.0221739" lon="7.0651190">
        <ele>1968.84</ele>
        <time>2019-09-09T07:01:56Z</time>
      </trkpt>
      <trkpt lat="46.0221137" lon="7.0650212">
        <ele>1970.93</ele>
        <time>2019-09-09T07:02:14Z</time>
      </trkpt>
      <trkpt lat="46.0220209" lon="7.0649687">
        <ele>1972.09</ele>
        <time>2019-09-09T07:02:42Z</time>
      </trkpt>
      <trkpt lat="46.0219443" lon="7.0648937">
        <ele>1976.94</ele>
        <time>2019-09-09T07:03:04Z</time>
      </trkpt>
      <trkpt lat="46.0219406" lon="7.0647572">
        <ele>1979.84</ele>
        <time>2019-09-09T07:03:16Z</time>
      </trkpt>
      <trkpt lat="46.0218508" lon="7.0647065">
        <ele>1984.52</ele>
        <time>2019-09-09T07:03:40Z</time>
      </trkpt>
      <trkpt lat="46.0218690" lon="7.0645791">
        <ele>1992.63</ele>
        <time>2019-09-09T07:04:04Z</time>
      </trkpt>
      <trkpt lat="46.0217778" lon="7.0645776">
        <ele>1993.21</ele>
        <time>2019-09-09T07:04:14Z</time>
      </trkpt>
      <trkpt lat="46.0217024" lon="7.0644895">
        <ele>1996.86</ele>
        <time>2019-09-09T07:04:30Z</time>
      </trkpt>
      <trkpt lat="46.0216424" lon="7.0643482">
        <ele>1997.94</ele>
        <time>2019-09-09T07:04:58Z</time>
      </trkpt>
      <trkpt lat="46.0216835" lon="7.0642266">
        <ele>2000.65</ele>
        <time>2019-09-09T07:05:20Z</time>
      </trkpt>
      <trkpt lat="46.0216743" lon="7.0640927">
        <ele>2005.85</ele>
        <time>2019-09-09T07:05:44Z</time>
      </trkpt>
      <trkpt lat="46.0216330" lon="7.0639765">
        <ele>2008.86</ele>
        <time>2019-09-09T07:06:08Z</time>
      </trkpt>
      <trkpt lat="46.0215527" lon="7.0638872">
        <ele>2008.15</ele>
        <time>2019-09-09T07:06:28Z</time>
      </trkpt>
      <trkpt lat="46.0215079" lon="7.0637719">
        <ele>2011.85</ele>
        <time>2019-09-09T07:06:50Z</time>
      </trkpt>
      <trkpt lat="46.0214972" lon="7.0636413">
        <ele>2021.10</ele>
        <time>2019-09-09T07:07:41Z</time>
      </trkpt>
      <trkpt lat="46.0214620" lon="7.0635204">
        <ele>2028.17</ele>
        <time>2019-09-09T07:08:09Z</time>
      </trkpt>
      <trkpt lat="46.0214289" lon="7.0633985">
        <ele>2031.40</ele>
        <time>2019-09-09T07:08:41Z</time>
      </trkpt>
      <trkpt lat="46.0213571" lon="7.0633092">
        <ele>2032.64</ele>
        <time>2019-09-09T07:08:53Z</time>
      </trkpt>
      <trkpt lat="46.0212944" lon="7.0631893">
        <ele>2033.20</ele>
        <time>2019-09-09T07:09:07Z</time>
      </trkpt>
      <trkpt lat="46.0212066" lon="7.0631355">
        <ele>2034.83</ele>
        <time>2019-09-09T07:09:15Z</time>
      </trkpt>
      <trkpt lat="46.0211519" lon="7.0630266">
        <ele>2035.84</ele>
        <time>2019-09-09T07:09:29Z</time>
      </trkpt>
      <trkpt lat="46.0210726" lon="7.0629446">
        <ele>2037.92</ele>
        <time>2019-09-09T07:09:47Z</time>
      </trkpt>
      <trkpt lat="46.0210512" lon="7.0628099">
        <ele>2039.94</ele>
        <time>2019-09-09T07:10:13Z</time>
      </trkpt>
      <trkpt lat="46.0209990" lon="7.0626856">
        <ele>2043.93</ele>
        <time>2019-09-09T07:10:41Z</time>
      </trkpt>
      <trkpt lat="46.0209572" lon="7.0625685">
        <ele>2043.48</ele>
        <time>2019-09-09T07:10:55Z</time>
      </trkpt>
      <trkpt lat="46.0208604" lon="7.0625803">
        <ele>2046.12</ele>
        <time>2019-09-09T07:11:09Z</time>
      </trkpt>
      <trkpt lat="46.0207873" lon="7.0626719">
        <ele>2044.96</ele>
        <time>2019-09-09T07:11:23Z</time>
      </trkpt>
      <trkpt lat="46.0207384" lon="7.0625564">
        <ele>2046.93</ele>
        <time>2019-09-09T07:11:51Z</time>
      </trkpt>
      <trkpt lat="46.0206713" lon="7.0624452">
        <ele>2048.85</ele>
        <time>2019-09-09T07:12:19Z</time>
      </trkpt>
      <trkpt lat="46.0206084" lon="7.0623282">
        <ele>2048.67</ele>
        <time>2019-09-09T07:12:33Z</time>
      </trkpt>
      <trkpt lat="46.0205138" lon="7.0622738">
        <ele>2043.99</ele>
        <time>2019-09-09T07:12:59Z</time>
      </trkpt>
      <trkpt lat="46.0204897" lon="7.0621430">
        <ele>2055.87</ele>
        <time>2019-09-09T07:13:15Z</time>
      </trkpt>
      <trkpt lat="46.0204063" lon="7.0620701">
        <ele>2057.93</ele>
        <time>2019-09-09T07:13:37Z</time>
      </trkpt>
      <trkpt lat="46.0203202" lon="7.0619783">
        <ele>2058.95</ele>
        <time>2019-09-09T07:13:55Z</time>
      </trkpt>
      <trkpt lat="46.0202734" lon="7.0618484">
        <ele>2060.63</ele>
        <time>2019-09-09T07:14:09Z</time>
      </trkpt>
      <trkpt lat="46.0201976" lon="7.0617762">
        <ele>2064.61</ele>
        <time>2019-09-09T07:14:29Z</time>
      </trkpt>
      <trkpt lat="46.0201238" lon="7.0616759">
        <ele>2068.91</ele>
        <time>2019-09-09T07:14:45Z</time>
      </trkpt>
      <trkpt lat="46.0200355" lon="7.0615922">
        <ele>2070.63</ele>
        <time>2019-09-09T07:14:59Z</time>
      </trkpt>
      <trkpt lat="46.0199462" lon="7.0615120">
        <ele>2071.94</ele>
        <time>2019-09-09T07:15:11Z</time>
      </trkpt>
      <trkpt lat="46.0198785" lon="7.0614128">
        <ele>2073.93</ele>
        <time>2019-09-09T07:15:25Z</time>
      </trkpt>
      <trkpt lat="46.0197929" lon="7.0613430">
        <ele>2074.63</ele>
        <time>2019-09-09T07:15:37Z</time>
      </trkpt>
      <trkpt lat="46.0197418" lon="7.0612258">
        <ele>2075.64</ele>
        <time>2019-09-09T07:15:53Z</time>
      </trkpt>
      <trkpt lat="46.0197017" lon="7.0611005">
        <ele>2077.91</ele>
        <time>2019-09-09T07:16:09Z</time>
      </trkpt>
      <trkpt lat="46.0196503" lon="7.0609781">
        <ele>2079.43</ele>
        <time>2019-09-09T07:16:23Z</time>
      </trkpt>
      <trkpt lat="46.0196305" lon="7.0608348">
        <ele>2083.55</ele>
        <time>2019-09-09T07:16:41Z</time>
      </trkpt>
      <trkpt lat="46.0196049" lon="7.0606943">
        <ele>2088.61</ele>
        <time>2019-09-09T07:17:01Z</time>
      </trkpt>
      <trkpt lat="46.0195294" lon="7.0606166">
        <ele>2089.93</ele>
        <time>2019-09-09T07:17:15Z</time>
      </trkpt>
      <trkpt lat="46.0194577" lon="7.0605133">
        <ele>2091.85</ele>
        <time>2019-09-09T07:17:29Z</time>
      </trkpt>
      <trkpt lat="46.0194567" lon="7.0603801">
        <ele>2093.85</ele>
        <time>2019-09-09T07:17:45Z</time>
      </trkpt>
      <trkpt lat="46.0193955" lon="7.0602849">
        <ele>2096.55</ele>
        <time>2019-09-09T07:18:01Z</time>
      </trkpt>
      <trkpt lat="46.0193525" lon="7.0601552">
        <ele>2101.61</ele>
        <time>2019-09-09T07:18:51Z</time>
      </trkpt>
      <trkpt lat="46.0193278" lon="7.0600135">
        <ele>2104.91</ele>
        <time>2019-09-09T07:19:07Z</time>
      </trkpt>
      <trkpt lat="46.0192915" lon="7.0598812">
        <ele>2105.85</ele>
        <time>2019-09-09T07:19:21Z</time>
      </trkpt>
      <trkpt lat="46.0192591" lon="7.0597374">
        <ele>2108.63</ele>
        <time>2019-09-09T07:19:35Z</time>
      </trkpt>
      <trkpt lat="46.0192508" lon="7.0595905">
        <ele>2109.92</ele>
        <time>2019-09-09T07:19:53Z</time>
      </trkpt>
      <trkpt lat="46.0192402" lon="7.0594566">
        <ele>2112.91</ele>
        <time>2019-09-09T07:20:09Z</time>
      </trkpt>
      <trkpt lat="46.0191990" lon="7.0593352">
        <ele>2114.64</ele>
        <time>2019-09-09T07:20:21Z</time>
      </trkpt>
      <trkpt lat="46.0192432" lon="7.0591956">
        <ele>2116.03</ele>
        <time>2019-09-09T07:20:41Z</time>
      </trkpt>
      <trkpt lat="46.0192789" lon="7.0590626">
        <ele>2119.61</ele>
        <time>2019-09-09T07:21:01Z</time>
      </trkpt>
      <trkpt lat="46.0192844" lon="7.0589256">
        <ele>2120.94</ele>
        <time>2019-09-09T07:21:23Z</time>
      </trkpt>
      <trkpt lat="46.0192674" lon="7.0587889">
        <ele>2122.94</ele>
        <time>2019-09-09T07:21:43Z</time>
      </trkpt>
      <trkpt lat="46.0192771" lon="7.0586580">
        <ele>2125.93</ele>
        <time>2019-09-09T07:22:09Z</time>
      </trkpt>
      <trkpt lat="46.0192895" lon="7.0585249">
        <ele>2128.61</ele>
        <time>2019-09-09T07:22:33Z</time>
      </trkpt>
      <trkpt lat="46.0193839" lon="7.0585167">
        <ele>2131.94</ele>
        <time>2019-09-09T07:22:59Z</time>
      </trkpt>
      <trkpt lat="46.0194016" lon="7.0583656">
        <ele>2148.93</ele>
        <time>2019-09-09T07:24:00Z</time>
      </trkpt>
      <trkpt lat="46.0194177" lon="7.0582313">
        <ele>2150.93</ele>
        <time>2019-09-09T07:24:16Z</time>
      </trkpt>
      <trkpt lat="46.0194024" lon="7.0580988">
        <ele>2152.87</ele>
        <time>2019-09-09T07:24:36Z</time>
      </trkpt>
      <trkpt lat="46.0194584" lon="7.0579864">
        <ele>2155.91</ele>
        <time>2019-09-09T07:24:54Z</time>
      </trkpt>
      <trkpt lat="46.0194550" lon="7.0578512">
        <ele>2159.64</ele>
        <time>2019-09-09T07:25:14Z</time>
      </trkpt>
      <trkpt lat="46.0194062" lon="7.0577283">
        <ele>2161.94</ele>
        <time>2019-09-09T07:25:36Z</time>
      </trkpt>
      <trkpt lat="46.0194209" lon="7.0575965">
        <ele>2168.33</ele>
        <time>2019-09-09T07:26:02Z</time>
      </trkpt>
      <trkpt lat="46.0194196" lon="7.0574658">
        <ele>2170.85</ele>
        <time>2019-09-09T07:26:24Z</time>
      </trkpt>
      <trkpt lat="46.0194071" lon="7.0573371">
        <ele>2172.64</ele>
        <time>2019-09-09T07:26:42Z</time>
      </trkpt>
      <trkpt lat="46.0194376" lon="7.0572014">
        <ele>2177.56</ele>
        <time>2019-09-09T07:27:06Z</time>
      </trkpt>
      <trkpt lat="46.0194465" lon="7.0570626">
        <ele>2178.93</ele>
        <time>2019-09-09T07:27:26Z</time>
      </trkpt>
      <trkpt lat="46.0194074" lon="7.0569355">
        <ele>2180.92</ele>
        <time>2019-09-09T07:27:44Z</time>
      </trkpt>
      <trkpt lat="46.0194470" lon="7.0568124">
        <ele>2185.47</ele>
        <time>2019-09-09T07:28:04Z</time>
      </trkpt>
      <trkpt lat="46.0194736" lon="7.0566731">
        <ele>2194.98</ele>
        <time>2019-09-09T07:29:16Z</time>
      </trkpt>
      <trkpt lat="46.0194464" lon="7.0565357">
        <ele>2195.92</ele>
        <time>2019-09-09T07:29:30Z</time>
      </trkpt>
      <trkpt lat="46.0194543" lon="7.0564031">
        <ele>2195.92</ele>
        <time>2019-09-09T07:29:46Z</time>
      </trkpt>
      <trkpt lat="46.0194186" lon="7.0562696">
        <ele>2196.92</ele>
        <time>2019-09-09T07:30:04Z</time>
      </trkpt>
      <trkpt lat="46.0194177" lon="7.0561347">
        <ele>2197.00</ele>
        <time>2019-09-09T07:30:18Z</time>
      </trkpt>
      <trkpt lat="46.0194338" lon="7.0559964">
        <ele>2200.91</ele>
        <time>2019-09-09T07:30:38Z</time>
      </trkpt>
      <trkpt lat="46.0194370" lon="7.0558559">
        <ele>2204.54</ele>
        <time>2019-09-09T07:30:58Z</time>
      </trkpt>
      <trkpt lat="46.0193795" lon="7.0557557">
        <ele>2205.85</ele>
        <time>2019-09-09T07:31:14Z</time>
      </trkpt>
      <trkpt lat="46.0193961" lon="7.0556211">
        <ele>2208.61</ele>
        <time>2019-09-09T07:31:30Z</time>
      </trkpt>
      <trkpt lat="46.0194169" lon="7.0554902">
        <ele>2211.14</ele>
        <time>2019-09-09T07:31:50Z</time>
      </trkpt>
      <trkpt lat="46.0194995" lon="7.0554074">
        <ele>2215.61</ele>
        <time>2019-09-09T07:32:14Z</time>
      </trkpt>
      <trkpt lat="46.0195988" lon="7.0553648">
        <ele>2219.93</ele>
        <time>2019-09-09T07:32:36Z</time>
      </trkpt>
      <trkpt lat="46.0196818" lon="7.0552934">
        <ele>2218.06</ele>
        <time>2019-09-09T07:32:54Z</time>
      </trkpt>
      <trkpt lat="46.0197574" lon="7.0552079">
        <ele>2219.85</ele>
        <time>2019-09-09T07:33:20Z</time>
      </trkpt>
      <trkpt lat="46.0197739" lon="7.0550775">
        <ele>2222.64</ele>
        <time>2019-09-09T07:33:42Z</time>
      </trkpt>
      <trkpt lat="46.0198289" lon="7.0549748">
        <ele>2225.82</ele>
        <time>2019-09-09T07:33:58Z</time>
      </trkpt>
      <trkpt lat="46.0198488" lon="7.0548360">
        <ele>2232.84</ele>
        <time>2019-09-09T07:34:16Z</time>
      </trkpt>
      <trkpt lat="46.0198394" lon="7.0546937">
        <ele>2235.19</ele>
        <time>2019-09-09T07:34:30Z</time>
      </trkpt>
      <trkpt lat="46.0198154" lon="7.0545675">
        <ele>2239.21</ele>
        <time>2019-09-09T07:34:48Z</time>
      </trkpt>
      <trkpt lat="46.0197914" lon="7.0544280">
        <ele>2245.85</ele>
        <time>2019-09-09T07:35:20Z</time>
      </trkpt>
      <trkpt lat="46.0197185" lon="7.0543414">
        <ele>2246.91</ele>
        <time>2019-09-09T07:35:44Z</time>
      </trkpt>
      <trkpt lat="46.0196609" lon="7.0542333">
        <ele>2250.53</ele>
        <time>2019-09-09T07:36:04Z</time>
      </trkpt>
      <trkpt lat="46.0195710" lon="7.0542224">
        <ele>2251.64</ele>
        <time>2019-09-09T07:36:16Z</time>
      </trkpt>
      <trkpt lat="46.0194921" lon="7.0541464">
        <ele>2258.43</ele>
        <time>2019-09-09T07:36:28Z</time>
      </trkpt>
      <trkpt lat="46.0194402" lon="7.0540375">
        <ele>2255.17</ele>
        <time>2019-09-09T07:36:44Z</time>
      </trkpt>
      <trkpt lat="46.0193845" lon="7.0539266">
        <ele>2255.64</ele>
        <time>2019-09-09T07:36:56Z</time>
      </trkpt>
      <trkpt lat="46.0193367" lon="7.0538002">
        <ele>2256.94</ele>
        <time>2019-09-09T07:37:10Z</time>
      </trkpt>
      <trkpt lat="46.0193012" lon="7.0536706">
        <ele>2258.55</ele>
        <time>2019-09-09T07:37:22Z</time>
      </trkpt>
      <trkpt lat="46.0192636" lon="7.0535483">
        <ele>2258.94</ele>
        <time>2019-09-09T07:37:32Z</time>
      </trkpt>
      <trkpt lat="46.0192218" lon="7.0534286">
        <ele>2259.85</ele>
        <time>2019-09-09T07:37:44Z</time>
      </trkpt>
      <trkpt lat="46.0191962" lon="7.0532920">
        <ele>2262.61</ele>
        <time>2019-09-09T07:37:58Z</time>
      </trkpt>
      <trkpt lat="46.0191883" lon="7.0531479">
        <ele>2262.94</ele>
        <time>2019-09-09T07:38:14Z</time>
      </trkpt>
      <trkpt lat="46.0191811" lon="7.0530151">
        <ele>2262.16</ele>
        <time>2019-09-09T07:38:26Z</time>
      </trkpt>
      <trkpt lat="46.0191626" lon="7.0528772">
        <ele>2263.94</ele>
        <time>2019-09-09T07:38:40Z</time>
      </trkpt>
      <trkpt lat="46.0191003" lon="7.0527709">
        <ele>2263.94</ele>
        <time>2019-09-09T07:38:56Z</time>
      </trkpt>
      <trkpt lat="46.0190440" lon="7.0526486">
        <ele>2265.92</ele>
        <time>2019-09-09T07:39:12Z</time>
      </trkpt>
      <trkpt lat="46.0189861" lon="7.0525474">
        <ele>2267.85</ele>
        <time>2019-09-09T07:39:24Z</time>
      </trkpt>
      <trkpt lat="46.0189233" lon="7.0524479">
        <ele>2271.52</ele>
        <time>2019-09-09T07:39:44Z</time>
      </trkpt>
      <trkpt lat="46.0188708" lon="7.0523316">
        <ele>2272.62</ele>
        <time>2019-09-09T07:39:58Z</time>
      </trkpt>
      <trkpt lat="46.0188456" lon="7.0521876">
        <ele>2272.94</ele>
        <time>2019-09-09T07:40:14Z</time>
      </trkpt>
      <trkpt lat="46.0188272" lon="7.0520590">
        <ele>2276.54</ele>
        <time>2019-09-09T07:40:30Z</time>
      </trkpt>
      <trkpt lat="46.0188328" lon="7.0519148">
        <ele>2281.65</ele>
        <time>2019-09-09T07:40:56Z</time>
      </trkpt>
      <trkpt lat="46.0188575" lon="7.0517835">
        <ele>2280.03</ele>
        <time>2019-09-09T07:41:12Z</time>
      </trkpt>
      <trkpt lat="46.0188064" lon="7.0516300">
        <ele>2280.00</ele>
        <time>2019-09-09T07:41:22Z</time>
      </trkpt>
      <trkpt lat="46.0187484" lon="7.0515295">
        <ele>2282.20</ele>
        <time>2019-09-09T07:41:32Z</time>
      </trkpt>
      <trkpt lat="46.0186892" lon="7.0514155">
        <ele>2281.66</ele>
        <time>2019-09-09T07:41:54Z</time>
      </trkpt>
      <trkpt lat="46.0187663" lon="7.0513483">
        <ele>2281.73</ele>
        <time>2019-09-09T07:42:04Z</time>
      </trkpt>
      <trkpt lat="46.0188389" lon="7.0512659">
        <ele>2281.15</ele>
        <time>2019-09-09T07:42:20Z</time>
      </trkpt>
      <trkpt lat="46.0188842" lon="7.0511464">
        <ele>2284.26</ele>
        <time>2019-09-09T07:43:20Z</time>
      </trkpt>
      <trkpt lat="46.0187948" lon="7.0511690">
        <ele>2288.94</ele>
        <time>2019-09-09T07:48:06Z</time>
      </trkpt>
      <trkpt lat="46.0188595" lon="7.0510543">
        <ele>2287.85</ele>
        <time>2019-09-09T07:48:36Z</time>
      </trkpt>
      <trkpt lat="46.0189079" lon="7.0509420">
        <ele>2290.84</ele>
        <time>2019-09-09T07:48:54Z</time>
      </trkpt>
      <trkpt lat="46.0189016" lon="7.0508064">
        <ele>2291.94</ele>
        <time>2019-09-09T07:49:14Z</time>
      </trkpt>
      <trkpt lat="46.0189292" lon="7.0506663">
        <ele>2293.93</ele>
        <time>2019-09-09T07:49:28Z</time>
      </trkpt>
      <trkpt lat="46.0188373" lon="7.0506143">
        <ele>2293.74</ele>
        <time>2019-09-09T07:49:38Z</time>
      </trkpt>
      <trkpt lat="46.0187675" lon="7.0505265">
        <ele>2292.27</ele>
        <time>2019-09-09T07:49:50Z</time>
      </trkpt>
      <trkpt lat="46.0186995" lon="7.0504225">
        <ele>2287.26</ele>
        <time>2019-09-09T07:50:10Z</time>
      </trkpt>
      <trkpt lat="46.0186155" lon="7.0503481">
        <ele>2289.39</ele>
        <time>2019-09-09T07:50:26Z</time>
      </trkpt>
      <trkpt lat="46.0186195" lon="7.0502119">
        <ele>2293.96</ele>
        <time>2019-09-09T07:50:46Z</time>
      </trkpt>
      <trkpt lat="46.0185654" lon="7.0500970">
        <ele>2296.94</ele>
        <time>2019-09-09T07:51:02Z</time>
      </trkpt>
      <trkpt lat="46.0185559" lon="7.0499547">
        <ele>2303.03</ele>
        <time>2019-09-09T07:51:30Z</time>
      </trkpt>
      <trkpt lat="46.0185669" lon="7.0498220">
        <ele>2303.73</ele>
        <time>2019-09-09T07:51:50Z</time>
      </trkpt>
      <trkpt lat="46.0185003" lon="7.0497085">
        <ele>2303.70</ele>
        <time>2019-09-09T07:52:14Z</time>
      </trkpt>
      <trkpt lat="46.0185099" lon="7.0495773">
        <ele>2307.85</ele>
        <time>2019-09-09T07:52:30Z</time>
      </trkpt>
      <trkpt lat="46.0185124" lon="7.0494388">
        <ele>2316.87</ele>
        <time>2019-09-09T07:52:58Z</time>
      </trkpt>
      <trkpt lat="46.0186047" lon="7.0494443">
        <ele>2319.93</ele>
        <time>2019-09-09T07:53:20Z</time>
      </trkpt>
      <trkpt lat="46.0186237" lon="7.0493036">
        <ele>2322.85</ele>
        <time>2019-09-09T07:53:46Z</time>
      </trkpt>
      <trkpt lat="46.0186413" lon="7.0491761">
        <ele>2328.84</ele>
        <time>2019-09-09T07:54:10Z</time>
      </trkpt>
      <trkpt lat="46.0186599" lon="7.0490358">
        <ele>2333.32</ele>
        <time>2019-09-09T07:54:42Z</time>
      </trkpt>
      <trkpt lat="46.0186944" lon="7.0489104">
        <ele>2335.92</ele>
        <time>2019-09-09T07:55:06Z</time>
      </trkpt>
      <trkpt lat="46.0187292" lon="7.0487907">
        <ele>2340.93</ele>
        <time>2019-09-09T07:55:34Z</time>
      </trkpt>
      <trkpt lat="46.0186944" lon="7.0486689">
        <ele>2346.91</ele>
        <time>2019-09-09T07:56:04Z</time>
      </trkpt>
      <trkpt lat="46.0187088" lon="7.0485410">
        <ele>2350.52</ele>
        <time>2019-09-09T07:56:32Z</time>
      </trkpt>
      <trkpt lat="46.0187104" lon="7.0484079">
        <ele>2352.21</ele>
        <time>2019-09-09T07:56:56Z</time>
      </trkpt>
      <trkpt lat="46.0187326" lon="7.0482819">
        <ele>2356.61</ele>
        <time>2019-09-09T07:57:14Z</time>
      </trkpt>
      <trkpt lat="46.0186985" lon="7.0481495">
        <ele>2358.93</ele>
        <time>2019-09-09T07:57:38Z</time>
      </trkpt>
      <trkpt lat="46.0186902" lon="7.0480135">
        <ele>2359.85</ele>
        <time>2019-09-09T07:57:54Z</time>
      </trkpt>
      <trkpt lat="46.0186623" lon="7.0478832">
        <ele>2362.91</ele>
        <time>2019-09-09T07:58:12Z</time>
      </trkpt>
      <trkpt lat="46.0186585" lon="7.0477426">
        <ele>2366.93</ele>
        <time>2019-09-09T07:58:42Z</time>
      </trkpt>
      <trkpt lat="46.0186280" lon="7.0475980">
        <ele>2367.24</ele>
        <time>2019-09-09T07:58:58Z</time>
      </trkpt>
      <trkpt lat="46.0186121" lon="7.0474646">
        <ele>2366.70</ele>
        <time>2019-09-09T07:59:14Z</time>
      </trkpt>
      <trkpt lat="46.0186351" lon="7.0473355">
        <ele>2376.82</ele>
        <time>2019-09-09T07:59:44Z</time>
      </trkpt>
      <trkpt lat="46.0185735" lon="7.0472385">
        <ele>2374.06</ele>
        <time>2019-09-09T07:59:58Z</time>
      </trkpt>
      <trkpt lat="46.0185831" lon="7.0471062">
        <ele>2374.16</ele>
        <time>2019-09-09T08:00:14Z</time>
      </trkpt>
      <trkpt lat="46.0186173" lon="7.0469743">
        <ele>2379.85</ele>
        <time>2019-09-09T08:00:46Z</time>
      </trkpt>
      <trkpt lat="46.0185791" lon="7.0468559">
        <ele>2380.92</ele>
        <time>2019-09-09T08:01:04Z</time>
      </trkpt>
      <trkpt lat="46.0185539" lon="7.0467178">
        <ele>2384.61</ele>
        <time>2019-09-09T08:01:24Z</time>
      </trkpt>
      <trkpt lat="46.0185376" lon="7.0465883">
        <ele>2392.93</ele>
        <time>2019-09-09T08:01:58Z</time>
      </trkpt>
      <trkpt lat="46.0185279" lon="7.0464512">
        <ele>2394.93</ele>
        <time>2019-09-09T08:02:18Z</time>
      </trkpt>
      <trkpt lat="46.0185517" lon="7.0463235">
        <ele>2398.82</ele>
        <time>2019-09-09T08:02:44Z</time>
      </trkpt>
      <trkpt lat="46.0185235" lon="7.0461864">
        <ele>2403.91</ele>
        <time>2019-09-09T08:03:18Z</time>
      </trkpt>
      <trkpt lat="46.0185531" lon="7.0460605">
        <ele>2407.82</ele>
        <time>2019-09-09T08:03:50Z</time>
      </trkpt>
      <trkpt lat="46.0185841" lon="7.0459336">
        <ele>2413.63</ele>
        <time>2019-09-09T08:04:22Z</time>
      </trkpt>
      <trkpt lat="46.0186056" lon="7.0457971">
        <ele>2420.03</ele>
        <time>2019-09-09T08:05:34Z</time>
      </trkpt>
      <trkpt lat="46.0186153" lon="7.0456626">
        <ele>2421.21</ele>
        <time>2019-09-09T08:05:56Z</time>
      </trkpt>
      <trkpt lat="46.0186582" lon="7.0455412">
        <ele>2424.84</ele>
        <time>2019-09-09T08:06:18Z</time>
      </trkpt>
      <trkpt lat="46.0186871" lon="7.0454093">
        <ele>2429.84</ele>
        <time>2019-09-09T08:07:08Z</time>
      </trkpt>
      <trkpt lat="46.0187463" lon="7.0453084">
        <ele>2432.94</ele>
        <time>2019-09-09T08:07:40Z</time>
      </trkpt>
      <trkpt lat="46.0188271" lon="7.0452494">
        <ele>2437.93</ele>
        <time>2019-09-09T08:08:06Z</time>
      </trkpt>
      <trkpt lat="46.0188617" lon="7.0451280">
        <ele>2440.94</ele>
        <time>2019-09-09T08:08:38Z</time>
      </trkpt>
      <trkpt lat="46.0188708" lon="7.0449867">
        <ele>2443.89</ele>
        <time>2019-09-09T08:09:14Z</time>
      </trkpt>
      <trkpt lat="46.0189235" lon="7.0448787">
        <ele>2446.92</ele>
        <time>2019-09-09T08:09:52Z</time>
      </trkpt>
      <trkpt lat="46.0189356" lon="7.0447374">
        <ele>2446.27</ele>
        <time>2019-09-09T08:10:28Z</time>
      </trkpt>
      <trkpt lat="46.0188606" lon="7.0446604">
        <ele>2445.94</ele>
        <time>2019-09-09T08:11:36Z</time>
      </trkpt>
      <trkpt lat="46.0187731" lon="7.0446086">
        <ele>2442.98</ele>
        <time>2019-09-09T08:12:18Z</time>
      </trkpt>
      <trkpt lat="46.0187167" lon="7.0445006">
        <ele>2445.88</ele>
        <time>2019-09-09T08:12:36Z</time>
      </trkpt>
      <trkpt lat="46.0187503" lon="7.0443705">
        <ele>2451.15</ele>
        <time>2019-09-09T08:13:04Z</time>
      </trkpt>
      <trkpt lat="46.0188435" lon="7.0442847">
        <ele>2464.58</ele>
        <time>2019-09-09T08:14:12Z</time>
      </trkpt>
      <trkpt lat="46.0187923" lon="7.0441685">
        <ele>2467.85</ele>
        <time>2019-09-09T08:14:42Z</time>
      </trkpt>
      <trkpt lat="46.0187906" lon="7.0440090">
        <ele>2468.21</ele>
        <time>2019-09-09T08:15:32Z</time>
      </trkpt>
      <trkpt lat="46.0187105" lon="7.0439232">
        <ele>2474.21</ele>
        <time>2019-09-09T08:16:22Z</time>
      </trkpt>
      <trkpt lat="46.0187408" lon="7.0437882">
        <ele>2483.94</ele>
        <time>2019-09-09T08:17:46Z</time>
      </trkpt>
      <trkpt lat="46.0187627" lon="7.0436532">
        <ele>2492.96</ele>
        <time>2019-09-09T08:18:16Z</time>
      </trkpt>
      <trkpt lat="46.0187211" lon="7.0435334">
        <ele>2491.54</ele>
        <time>2019-09-09T08:18:52Z</time>
      </trkpt>
      <trkpt lat="46.0186849" lon="7.0434139">
        <ele>2498.28</ele>
        <time>2019-09-09T08:19:20Z</time>
      </trkpt>
      <trkpt lat="46.0186478" lon="7.0432780">
        <ele>2495.32</ele>
        <time>2019-09-09T08:19:44Z</time>
      </trkpt>
      <trkpt lat="46.0186572" lon="7.0431377">
        <ele>2499.51</ele>
        <time>2019-09-09T08:20:08Z</time>
      </trkpt>
      <trkpt lat="46.0186790" lon="7.0430089">
        <ele>2501.93</ele>
        <time>2019-09-09T08:20:50Z</time>
      </trkpt>
      <trkpt lat="46.0186705" lon="7.0428797">
        <ele>2505.62</ele>
        <time>2019-09-09T08:21:02Z</time>
      </trkpt>
      <trkpt lat="46.0186581" lon="7.0427411">
        <ele>2506.94</ele>
        <time>2019-09-09T08:21:58Z</time>
      </trkpt>
      <trkpt lat="46.0187022" lon="7.0426279">
        <ele>2506.13</ele>
        <time>2019-09-09T08:22:16Z</time>
      </trkpt>
      <trkpt lat="46.0187101" lon="7.0424858">
        <ele>2520.62</ele>
        <time>2019-09-09T08:23:54Z</time>
      </trkpt>
      <trkpt lat="46.0187962" lon="7.0424465">
        <ele>2533.64</ele>
        <time>2019-09-09T08:25:10Z</time>
      </trkpt>
      <trkpt lat="46.0187841" lon="7.0422939">
        <ele>2528.76</ele>
        <time>2019-09-09T08:26:40Z</time>
      </trkpt>
      <trkpt lat="46.0188259" lon="7.0421635">
        <ele>2524.20</ele>
        <time>2019-09-09T08:27:10Z</time>
      </trkpt>
      <trkpt lat="46.0188008" lon="7.0420382">
        <ele>2526.63</ele>
        <time>2019-09-09T08:27:26Z</time>
      </trkpt>
      <trkpt lat="46.0187454" lon="7.0419317">
        <ele>2526.06</ele>
        <time>2019-09-09T08:27:48Z</time>
      </trkpt>
      <trkpt lat="46.0187756" lon="7.0418068">
        <ele>2534.61</ele>
        <time>2019-09-09T08:30:10Z</time>
      </trkpt>
      <trkpt lat="46.0187730" lon="7.0416770">
        <ele>2535.71</ele>
        <time>2019-09-09T08:30:38Z</time>
      </trkpt>
      <trkpt lat="46.0186984" lon="7.0416000">
        <ele>2539.63</ele>
        <time>2019-09-09T08:31:08Z</time>
      </trkpt>
      <trkpt lat="46.0187256" lon="7.0414765">
        <ele>2548.93</ele>
        <time>2019-09-09T08:32:00Z</time>
      </trkpt>
      <trkpt lat="46.0187818" lon="7.0413621">
        <ele>2552.82</ele>
        <time>2019-09-09T08:32:26Z</time>
      </trkpt>
      <trkpt lat="46.0187879" lon="7.0412211">
        <ele>2560.64</ele>
        <time>2019-09-09T08:33:28Z</time>
      </trkpt>
      <trkpt lat="46.0187896" lon="7.0410826">
        <ele>2569.73</ele>
        <time>2019-09-09T08:34:12Z</time>
      </trkpt>
      <trkpt lat="46.0188828" lon="7.0410503">
        <ele>2576.12</ele>
        <time>2019-09-09T08:34:44Z</time>
      </trkpt>
      <trkpt lat="46.0189665" lon="7.0409962">
        <ele>2578.94</ele>
        <time>2019-09-09T08:35:12Z</time>
      </trkpt>
      <trkpt lat="46.0188891" lon="7.0409131">
        <ele>2586.63</ele>
        <time>2019-09-09T08:35:50Z</time>
      </trkpt>
      <trkpt lat="46.0189482" lon="7.0408098">
        <ele>2592.85</ele>
        <time>2019-09-09T08:36:24Z</time>
      </trkpt>
      <trkpt lat="46.0189796" lon="7.0406880">
        <ele>2600.63</ele>
        <time>2019-09-09T08:37:20Z</time>
      </trkpt>
      <trkpt lat="46.0189346" lon="7.0405750">
        <ele>2610.55</ele>
        <time>2019-09-09T08:38:20Z</time>
      </trkpt>
      <trkpt lat="46.0190107" lon="7.0404945">
        <ele>2617.85</ele>
        <time>2019-09-09T08:39:00Z</time>
      </trkpt>
      <trkpt lat="46.0190545" lon="7.0403717">
        <ele>2624.93</ele>
        <time>2019-09-09T08:39:52Z</time>
      </trkpt>
      <trkpt lat="46.0190526" lon="7.0402367">
        <ele>2639.91</ele>
        <time>2019-09-09T08:41:24Z</time>
      </trkpt>
      <trkpt lat="46.0190091" lon="7.0401156">
        <ele>2643.43</ele>
        <time>2019-09-09T08:42:02Z</time>
      </trkpt>
      <trkpt lat="46.0190086" lon="7.0399768">
        <ele>2645.64</ele>
        <time>2019-09-09T08:43:02Z</time>
      </trkpt>
      <trkpt lat="46.0190397" lon="7.0398548">
        <ele>2649.63</ele>
        <time>2019-09-09T08:43:40Z</time>
      </trkpt>
      <trkpt lat="46.0191296" lon="7.0398382">
        <ele>2664.94</ele>
        <time>2019-09-09T08:46:18Z</time>
      </trkpt>
      <trkpt lat="46.0191947" lon="7.0397436">
        <ele>2666.26</ele>
        <time>2019-09-09T09:00:20Z</time>
      </trkpt>
      <trkpt lat="46.0192601" lon="7.0396201">
        <ele>2656.03</ele>
        <time>2019-09-09T09:01:06Z</time>
      </trkpt>
      <trkpt lat="46.0193508" lon="7.0396833">
        <ele>2653.36</ele>
        <time>2019-09-09T09:01:20Z</time>
      </trkpt>
      <trkpt lat="46.0193654" lon="7.0395216">
        <ele>2648.94</ele>
        <time>2019-09-09T09:02:12Z</time>
      </trkpt>
      <trkpt lat="46.0193800" lon="7.0393913">
        <ele>2645.75</ele>
        <time>2019-09-09T09:03:16Z</time>
      </trkpt>
      <trkpt lat="46.0194010" lon="7.0392640">
        <ele>2643.95</ele>
        <time>2019-09-09T09:03:48Z</time>
      </trkpt>
      <trkpt lat="46.0193972" lon="7.0391345">
        <ele>2634.87</ele>
        <time>2019-09-09T09:08:12Z</time>
      </trkpt>
      <trkpt lat="46.0194429" lon="7.0390152">
        <ele>2634.64</ele>
        <time>2019-09-09T09:08:38Z</time>
      </trkpt>
      <trkpt lat="46.0194487" lon="7.0388793">
        <ele>2622.10</ele>
        <time>2019-09-09T09:11:05Z</time>
      </trkpt>
      <trkpt lat="46.0195380" lon="7.0388212">
        <ele>2620.99</ele>
        <time>2019-09-09T09:11:21Z</time>
      </trkpt>
      <trkpt lat="46.0196295" lon="7.0388129">
        <ele>2617.45</ele>
        <time>2019-09-09T09:11:27Z</time>
      </trkpt>
      <trkpt lat="46.0195300" lon="7.0388035">
        <ele>2612.94</ele>
        <time>2019-09-09T09:12:31Z</time>
      </trkpt>
      <trkpt lat="46.0196051" lon="7.0387011">
        <ele>2611.30</ele>
        <time>2019-09-09T09:13:15Z</time>
      </trkpt>
      <trkpt lat="46.0196516" lon="7.0385787">
        <ele>2605.46</ele>
        <time>2019-09-09T09:13:43Z</time>
      </trkpt>
      <trkpt lat="46.0197051" lon="7.0384619">
        <ele>2599.36</ele>
        <time>2019-09-09T09:14:15Z</time>
      </trkpt>
      <trkpt lat="46.0197606" lon="7.0383485">
        <ele>2596.97</ele>
        <time>2019-09-09T09:14:33Z</time>
      </trkpt>
      <trkpt lat="46.0197052" lon="7.0382361">
        <ele>2588.96</ele>
        <time>2019-09-09T09:16:13Z</time>
      </trkpt>
      <trkpt lat="46.0196198" lon="7.0381640">
        <ele>2582.66</ele>
        <time>2019-09-09T09:16:39Z</time>
      </trkpt>
      <trkpt lat="46.0196724" lon="7.0380469">
        <ele>2573.24</ele>
        <time>2019-09-09T09:17:37Z</time>
      </trkpt>
      <trkpt lat="46.0196788" lon="7.0379169">
        <ele>2568.72</ele>
        <time>2019-09-09T09:18:23Z</time>
      </trkpt>
      <trkpt lat="46.0196718" lon="7.0377751">
        <ele>2557.46</ele>
        <time>2019-09-09T09:19:19Z</time>
      </trkpt>
      <trkpt lat="46.0197520" lon="7.0377056">
        <ele>2555.85</ele>
        <time>2019-09-09T09:19:35Z</time>
      </trkpt>
      <trkpt lat="46.0198035" lon="7.0375865">
        <ele>2548.67</ele>
        <time>2019-09-09T09:21:00Z</time>
      </trkpt>
      <trkpt lat="46.0199129" lon="7.0375388">
        <ele>2547.16</ele>
        <time>2019-09-09T09:21:14Z</time>
      </trkpt>
      <trkpt lat="46.0198343" lon="7.0374686">
        <ele>2542.85</ele>
        <time>2019-09-09T09:21:32Z</time>
      </trkpt>
      <trkpt lat="46.0197796" lon="7.0373626">
        <ele>2548.03</ele>
        <time>2019-09-09T09:21:52Z</time>
      </trkpt>
      <trkpt lat="46.0198491" lon="7.0372673">
        <ele>2537.97</ele>
        <time>2019-09-09T09:22:28Z</time>
      </trkpt>
      <trkpt lat="46.0198937" lon="7.0371348">
        <ele>2535.24</ele>
        <time>2019-09-09T09:22:56Z</time>
      </trkpt>
      <trkpt lat="46.0199602" lon="7.0370321">
        <ele>2534.03</ele>
        <time>2019-09-09T09:23:10Z</time>
      </trkpt>
      <trkpt lat="46.0200140" lon="7.0369116">
        <ele>2524.92</ele>
        <time>2019-09-09T09:23:32Z</time>
      </trkpt>
      <trkpt lat="46.0200937" lon="7.0368503">
        <ele>2520.70</ele>
        <time>2019-09-09T09:24:02Z</time>
      </trkpt>
      <trkpt lat="46.0201942" lon="7.0368361">
        <ele>2511.88</ele>
        <time>2019-09-09T09:24:16Z</time>
      </trkpt>
      <trkpt lat="46.0202210" lon="7.0367055">
        <ele>2508.15</ele>
        <time>2019-09-09T09:24:40Z</time>
      </trkpt>
      <trkpt lat="46.0202475" lon="7.0365723">
        <ele>2510.85</ele>
        <time>2019-09-09T09:24:52Z</time>
      </trkpt>
      <trkpt lat="46.0202468" lon="7.0364330">
        <ele>2501.36</ele>
        <time>2019-09-09T09:25:12Z</time>
      </trkpt>
      <trkpt lat="46.0202970" lon="7.0363065">
        <ele>2499.00</ele>
        <time>2019-09-09T09:25:24Z</time>
      </trkpt>
      <trkpt lat="46.0203584" lon="7.0362076">
        <ele>2496.45</ele>
        <time>2019-09-09T09:25:34Z</time>
      </trkpt>
      <trkpt lat="46.0203397" lon="7.0360746">
        <ele>2495.12</ele>
        <time>2019-09-09T09:25:40Z</time>
      </trkpt>
      <trkpt lat="46.0204406" lon="7.0360569">
        <ele>2489.16</ele>
        <time>2019-09-09T09:25:54Z</time>
      </trkpt>
      <trkpt lat="46.0205175" lon="7.0359540">
        <ele>2481.56</ele>
        <time>2019-09-09T09:26:04Z</time>
      </trkpt>
      <trkpt lat="46.0206047" lon="7.0359182">
        <ele>2481.82</ele>
        <time>2019-09-09T09:26:10Z</time>
      </trkpt>
      <trkpt lat="46.0206286" lon="7.0357919">
        <ele>2477.28</ele>
        <time>2019-09-09T09:26:20Z</time>
      </trkpt>
      <trkpt lat="46.0205838" lon="7.0356492">
        <ele>2479.54</ele>
        <time>2019-09-09T09:26:32Z</time>
      </trkpt>
      <trkpt lat="46.0206888" lon="7.0356256">
        <ele>2470.74</ele>
        <time>2019-09-09T09:26:46Z</time>
      </trkpt>
      <trkpt lat="46.0207630" lon="7.0355488">
        <ele>2462.38</ele>
        <time>2019-09-09T09:27:02Z</time>
      </trkpt>
      <trkpt lat="46.0207443" lon="7.0354190">
        <ele>2460.91</ele>
        <time>2019-09-09T09:27:16Z</time>
      </trkpt>
      <trkpt lat="46.0208200" lon="7.0352998">
        <ele>2458.02</ele>
        <time>2019-09-09T09:27:26Z</time>
      </trkpt>
      <trkpt lat="46.0208696" lon="7.0351785">
        <ele>2458.36</ele>
        <time>2019-09-09T09:27:36Z</time>
      </trkpt>
      <trkpt lat="46.0209452" lon="7.0350749">
        <ele>2455.63</ele>
        <time>2019-09-09T09:28:18Z</time>
      </trkpt>
      <trkpt lat="46.0210405" lon="7.0350592">
        <ele>2455.14</ele>
        <time>2019-09-09T09:28:30Z</time>
      </trkpt>
      <trkpt lat="46.0210838" lon="7.0349282">
        <ele>2449.58</ele>
        <time>2019-09-09T09:28:50Z</time>
      </trkpt>
      <trkpt lat="46.0210460" lon="7.0348083">
        <ele>2451.96</ele>
        <time>2019-09-09T09:29:20Z</time>
      </trkpt>
      <trkpt lat="46.0211367" lon="7.0347379">
        <ele>2449.33</ele>
        <time>2019-09-09T09:30:02Z</time>
      </trkpt>
      <trkpt lat="46.0212206" lon="7.0346506">
        <ele>2444.47</ele>
        <time>2019-09-09T09:30:14Z</time>
      </trkpt>
      <trkpt lat="46.0212991" lon="7.0345722">
        <ele>2441.01</ele>
        <time>2019-09-09T09:30:22Z</time>
      </trkpt>
      <trkpt lat="46.0213555" lon="7.0344692">
        <ele>2430.94</ele>
        <time>2019-09-09T09:30:48Z</time>
      </trkpt>
      <trkpt lat="46.0214195" lon="7.0343698">
        <ele>2424.43</ele>
        <time>2019-09-09T09:31:12Z</time>
      </trkpt>
      <trkpt lat="46.0214250" lon="7.0342185">
        <ele>2420.93</ele>
        <time>2019-09-09T09:31:32Z</time>
      </trkpt>
      <trkpt lat="46.0214869" lon="7.0341216">
        <ele>2418.95</ele>
        <time>2019-09-09T09:31:44Z</time>
      </trkpt>
      <trkpt lat="46.0215423" lon="7.0340090">
        <ele>2412.36</ele>
        <time>2019-09-09T09:32:36Z</time>
      </trkpt>
      <trkpt lat="46.0214911" lon="7.0338897">
        <ele>2410.48</ele>
        <time>2019-09-09T09:33:00Z</time>
      </trkpt>
      <trkpt lat="46.0215441" lon="7.0337713">
        <ele>2405.70</ele>
        <time>2019-09-09T09:33:20Z</time>
      </trkpt>
      <trkpt lat="46.0216462" lon="7.0337296">
        <ele>2399.22</ele>
        <time>2019-09-09T09:33:32Z</time>
      </trkpt>
      <trkpt lat="46.0216339" lon="7.0335910">
        <ele>2395.06</ele>
        <time>2019-09-09T09:33:46Z</time>
      </trkpt>
      <trkpt lat="46.0217287" lon="7.0335291">
        <ele>2390.75</ele>
        <time>2019-09-09T09:33:56Z</time>
      </trkpt>
      <trkpt lat="46.0218173" lon="7.0335611">
        <ele>2386.76</ele>
        <time>2019-09-09T09:34:04Z</time>
      </trkpt>
      <trkpt lat="46.0218634" lon="7.0334282">
        <ele>2382.81</ele>
        <time>2019-09-09T09:34:18Z</time>
      </trkpt>
      <trkpt lat="46.0219432" lon="7.0333434">
        <ele>2376.98</ele>
        <time>2019-09-09T09:34:40Z</time>
      </trkpt>
      <trkpt lat="46.0218751" lon="7.0332256">
        <ele>2375.77</ele>
        <time>2019-09-09T09:34:54Z</time>
      </trkpt>
      <trkpt lat="46.0218936" lon="7.0330985">
        <ele>2370.76</ele>
        <time>2019-09-09T09:35:16Z</time>
      </trkpt>
      <trkpt lat="46.0220048" lon="7.0331369">
        <ele>2365.38</ele>
        <time>2019-09-09T09:35:26Z</time>
      </trkpt>
      <trkpt lat="46.0219100" lon="7.0330775">
        <ele>2359.73</ele>
        <time>2019-09-09T09:35:40Z</time>
      </trkpt>
      <trkpt lat="46.0218547" lon="7.0329718">
        <ele>2359.40</ele>
        <time>2019-09-09T09:35:58Z</time>
      </trkpt>
      <trkpt lat="46.0217571" lon="7.0329534">
        <ele>2357.19</ele>
        <time>2019-09-09T09:36:16Z</time>
      </trkpt>
      <trkpt lat="46.0217944" lon="7.0328318">
        <ele>2354.24</ele>
        <time>2019-09-09T09:36:28Z</time>
      </trkpt>
      <trkpt lat="46.0216977" lon="7.0328315">
        <ele>2351.94</ele>
        <time>2019-09-09T09:36:44Z</time>
      </trkpt>
      <trkpt lat="46.0216060" lon="7.0328360">
        <ele>2344.72</ele>
        <time>2019-09-09T09:36:58Z</time>
      </trkpt>
      <trkpt lat="46.0215043" lon="7.0328435">
        <ele>2339.92</ele>
        <time>2019-09-09T09:37:10Z</time>
      </trkpt>
      <trkpt lat="46.0213905" lon="7.0327654">
        <ele>2336.97</ele>
        <time>2019-09-09T09:37:26Z</time>
      </trkpt>
      <trkpt lat="46.0212995" lon="7.0327246">
        <ele>2328.00</ele>
        <time>2019-09-09T09:37:42Z</time>
      </trkpt>
      <trkpt lat="46.0212155" lon="7.0326361">
        <ele>2326.57</ele>
        <time>2019-09-09T09:37:54Z</time>
      </trkpt>
      <trkpt lat="46.0211178" lon="7.0325509">
        <ele>2326.42</ele>
        <time>2019-09-09T09:38:06Z</time>
      </trkpt>
      <trkpt lat="46.0210213" lon="7.0325197">
        <ele>2318.45</ele>
        <time>2019-09-09T09:38:22Z</time>
      </trkpt>
      <trkpt lat="46.0209256" lon="7.0324841">
        <ele>2312.61</ele>
        <time>2019-09-09T09:38:40Z</time>
      </trkpt>
      <trkpt lat="46.0208704" lon="7.0323681">
        <ele>2311.13</ele>
        <time>2019-09-09T09:38:52Z</time>
      </trkpt>
      <trkpt lat="46.0207918" lon="7.0323035">
        <ele>2295.15</ele>
        <time>2019-09-09T09:39:26Z</time>
      </trkpt>
      <trkpt lat="46.0207315" lon="7.0321877">
        <ele>2289.76</ele>
        <time>2019-09-09T09:39:44Z</time>
      </trkpt>
      <trkpt lat="46.0206241" lon="7.0322155">
        <ele>2282.70</ele>
        <time>2019-09-09T09:39:56Z</time>
      </trkpt>
      <trkpt lat="46.0205652" lon="7.0321058">
        <ele>2281.07</ele>
        <time>2019-09-09T09:40:08Z</time>
      </trkpt>
      <trkpt lat="46.0204815" lon="7.0320453">
        <ele>2283.65</ele>
        <time>2019-09-09T09:40:24Z</time>
      </trkpt>
      <trkpt lat="46.0203776" lon="7.0320004">
        <ele>2321.39</ele>
        <time>2019-09-09T09:40:42Z</time>
      </trkpt>
      <trkpt lat="46.0202959" lon="7.0320614">
        <ele>2292.64</ele>
        <time>2019-09-09T09:40:54Z</time>
      </trkpt>
      <trkpt lat="46.0202047" lon="7.0319905">
        <ele>2290.68</ele>
        <time>2019-09-09T09:41:02Z</time>
      </trkpt>
      <trkpt lat="46.0201094" lon="7.0319480">
        <ele>2284.66</ele>
        <time>2019-09-09T09:41:10Z</time>
      </trkpt>
      <trkpt lat="46.0200012" lon="7.0319345">
        <ele>2282.40</ele>
        <time>2019-09-09T09:41:18Z</time>
      </trkpt>
      <trkpt lat="46.0200845" lon="7.0318467">
        <ele>2266.26</ele>
        <time>2019-09-09T09:41:48Z</time>
      </trkpt>
      <trkpt lat="46.0201780" lon="7.0317820">
        <ele>2263.95</ele>
        <time>2019-09-09T09:42:00Z</time>
      </trkpt>
      <trkpt lat="46.0202677" lon="7.0317384">
        <ele>2261.24</ele>
        <time>2019-09-09T09:42:14Z</time>
      </trkpt>
      <trkpt lat="46.0203595" lon="7.0316896">
        <ele>2255.95</ele>
        <time>2019-09-09T09:42:42Z</time>
      </trkpt>
      <trkpt lat="46.0204288" lon="7.0315921">
        <ele>2254.33</ele>
        <time>2019-09-09T09:42:52Z</time>
      </trkpt>
      <trkpt lat="46.0205084" lon="7.0315303">
        <ele>2253.03</ele>
        <time>2019-09-09T09:43:08Z</time>
      </trkpt>
      <trkpt lat="46.0205923" lon="7.0314708">
        <ele>2253.92</ele>
        <time>2019-09-09T09:43:20Z</time>
      </trkpt>
      <trkpt lat="46.0206827" lon="7.0314249">
        <ele>2246.46</ele>
        <time>2019-09-09T09:43:36Z</time>
      </trkpt>
      <trkpt lat="46.0207737" lon="7.0314079">
        <ele>2248.47</ele>
        <time>2019-09-09T09:43:44Z</time>
      </trkpt>
      <trkpt lat="46.0208554" lon="7.0313509">
        <ele>2251.94</ele>
        <time>2019-09-09T09:44:04Z</time>
      </trkpt>
      <trkpt lat="46.0208004" lon="7.0312358">
        <ele>2248.19</ele>
        <time>2019-09-09T09:46:24Z</time>
      </trkpt>
      <trkpt lat="46.0207734" lon="7.0313593">
        <ele>2240.33</ele>
        <time>2019-09-09T09:57:39Z</time>
      </trkpt>
      <trkpt lat="46.0207688" lon="7.0312296">
        <ele>2246.20</ele>
        <time>2019-09-09T10:02:07Z</time>
      </trkpt>
      <trkpt lat="46.0208659" lon="7.0312905">
        <ele>2244.84</ele>
        <time>2019-09-09T10:04:47Z</time>
      </trkpt>
      <trkpt lat="46.0209573" lon="7.0312539">
        <ele>2247.83</ele>
        <time>2019-09-09T10:04:57Z</time>
      </trkpt>
      <trkpt lat="46.0210521" lon="7.0311655">
        <ele>2250.04</ele>
        <time>2019-09-09T10:05:09Z</time>
      </trkpt>
      <trkpt lat="46.0211509" lon="7.0311332">
        <ele>2246.88</ele>
        <time>2019-09-09T10:05:23Z</time>
      </trkpt>
      <trkpt lat="46.0212387" lon="7.0310528">
        <ele>2240.63</ele>
        <time>2019-09-09T10:05:35Z</time>
      </trkpt>
      <trkpt lat="46.0213189" lon="7.0309509">
        <ele>2240.57</ele>
        <time>2019-09-09T10:05:47Z</time>
      </trkpt>
      <trkpt lat="46.0214157" lon="7.0309125">
        <ele>2240.03</ele>
        <time>2019-09-09T10:05:57Z</time>
      </trkpt>
      <trkpt lat="46.0214686" lon="7.0307966">
        <ele>2238.73</ele>
        <time>2019-09-09T10:06:07Z</time>
      </trkpt>
      <trkpt lat="46.0215532" lon="7.0307305">
        <ele>2237.68</ele>
        <time>2019-09-09T10:06:15Z</time>
      </trkpt>
      <trkpt lat="46.0216277" lon="7.0306493">
        <ele>2236.44</ele>
        <time>2019-09-09T10:06:29Z</time>
      </trkpt>
      <trkpt lat="46.0217019" lon="7.0305561">
        <ele>2235.26</ele>
        <time>2019-09-09T10:06:45Z</time>
      </trkpt>
      <trkpt lat="46.0217630" lon="7.0304488">
        <ele>2232.04</ele>
        <time>2019-09-09T10:06:59Z</time>
      </trkpt>
      <trkpt lat="46.0218090" lon="7.0303322">
        <ele>2229.25</ele>
        <time>2019-09-09T10:07:13Z</time>
      </trkpt>
      <trkpt lat="46.0218382" lon="7.0301973">
        <ele>2226.28</ele>
        <time>2019-09-09T10:07:23Z</time>
      </trkpt>
      <trkpt lat="46.0219225" lon="7.0301342">
        <ele>2224.24</ele>
        <time>2019-09-09T10:07:35Z</time>
      </trkpt>
      <trkpt lat="46.0220081" lon="7.0300780">
        <ele>2223.03</ele>
        <time>2019-09-09T10:07:47Z</time>
      </trkpt>
      <trkpt lat="46.0220925" lon="7.0299956">
        <ele>2216.73</ele>
        <time>2019-09-09T10:08:01Z</time>
      </trkpt>
      <trkpt lat="46.0221024" lon="7.0298575">
        <ele>2210.20</ele>
        <time>2019-09-09T10:08:13Z</time>
      </trkpt>
      <trkpt lat="46.0221718" lon="7.0297723">
        <ele>2206.36</ele>
        <time>2019-09-09T10:08:27Z</time>
      </trkpt>
      <trkpt lat="46.0221856" lon="7.0296440">
        <ele>2204.76</ele>
        <time>2019-09-09T10:08:41Z</time>
      </trkpt>
      <trkpt lat="46.0222763" lon="7.0296064">
        <ele>2200.36</ele>
        <time>2019-09-09T10:08:51Z</time>
      </trkpt>
      <trkpt lat="46.0223327" lon="7.0294797">
        <ele>2197.87</ele>
        <time>2019-09-09T10:09:03Z</time>
      </trkpt>
      <trkpt lat="46.0224047" lon="7.0293857">
        <ele>2194.04</ele>
        <time>2019-09-09T10:09:17Z</time>
      </trkpt>
      <trkpt lat="46.0224822" lon="7.0293004">
        <ele>2189.17</ele>
        <time>2019-09-09T10:09:35Z</time>
      </trkpt>
      <trkpt lat="46.0224782" lon="7.0291631">
        <ele>2185.53</ele>
        <time>2019-09-09T10:09:43Z</time>
      </trkpt>
      <trkpt lat="46.0225316" lon="7.0290580">
        <ele>2182.13</ele>
        <time>2019-09-09T10:09:55Z</time>
      </trkpt>
      <trkpt lat="46.0226062" lon="7.0289853">
        <ele>2183.66</ele>
        <time>2019-09-09T10:10:07Z</time>
      </trkpt>
      <trkpt lat="46.0226689" lon="7.0288788">
        <ele>2180.85</ele>
        <time>2019-09-09T10:10:19Z</time>
      </trkpt>
      <trkpt lat="46.0227359" lon="7.0287779">
        <ele>2175.08</ele>
        <time>2019-09-09T10:10:43Z</time>
      </trkpt>
      <trkpt lat="46.0228064" lon="7.0286777">
        <ele>2168.81</ele>
        <time>2019-09-09T10:10:57Z</time>
      </trkpt>
      <trkpt lat="46.0228786" lon="7.0285805">
        <ele>2168.32</ele>
        <time>2019-09-09T10:11:13Z</time>
      </trkpt>
      <trkpt lat="46.0229202" lon="7.0284564">
        <ele>2157.58</ele>
        <time>2019-09-09T10:11:27Z</time>
      </trkpt>
      <trkpt lat="46.0230139" lon="7.0284665">
        <ele>2153.95</ele>
        <time>2019-09-09T10:11:37Z</time>
      </trkpt>
      <trkpt lat="46.0230764" lon="7.0283508">
        <ele>2152.77</ele>
        <time>2019-09-09T10:11:51Z</time>
      </trkpt>
      <trkpt lat="46.0231748" lon="7.0283193">
        <ele>2154.82</ele>
        <time>2019-09-09T10:12:01Z</time>
      </trkpt>
      <trkpt lat="46.0232071" lon="7.0281910">
        <ele>2152.98</ele>
        <time>2019-09-09T10:12:11Z</time>
      </trkpt>
      <trkpt lat="46.0231186" lon="7.0281467">
        <ele>2145.48</ele>
        <time>2019-09-09T10:12:35Z</time>
      </trkpt>
      <trkpt lat="46.0230052" lon="7.0281350">
        <ele>2148.70</ele>
        <time>2019-09-09T10:12:49Z</time>
      </trkpt>
      <trkpt lat="46.0229090" lon="7.0281479">
        <ele>2148.04</ele>
        <time>2019-09-09T10:12:59Z</time>
      </trkpt>
      <trkpt lat="46.0229689" lon="7.0280417">
        <ele>2141.27</ele>
        <time>2019-09-09T10:13:21Z</time>
      </trkpt>
      <trkpt lat="46.0229953" lon="7.0279148">
        <ele>2152.90</ele>
        <time>2019-09-09T10:13:31Z</time>
      </trkpt>
      <trkpt lat="46.0230299" lon="7.0277920">
        <ele>2137.06</ele>
        <time>2019-09-09T10:13:41Z</time>
      </trkpt>
      <trkpt lat="46.0230960" lon="7.0276897">
        <ele>2127.06</ele>
        <time>2019-09-09T10:13:53Z</time>
      </trkpt>
      <trkpt lat="46.0231467" lon="7.0275761">
        <ele>2123.81</ele>
        <time>2019-09-09T10:14:05Z</time>
      </trkpt>
      <trkpt lat="46.0230489" lon="7.0275639">
        <ele>2120.31</ele>
        <time>2019-09-09T10:14:19Z</time>
      </trkpt>
      <trkpt lat="46.0229577" lon="7.0275617">
        <ele>2119.24</ele>
        <time>2019-09-09T10:14:29Z</time>
      </trkpt>
      <trkpt lat="46.0228777" lon="7.0275024">
        <ele>2120.15</ele>
        <time>2019-09-09T10:14:43Z</time>
      </trkpt>
      <trkpt lat="46.0228855" lon="7.0273524">
        <ele>2115.25</ele>
        <time>2019-09-09T10:14:59Z</time>
      </trkpt>
      <trkpt lat="46.0228489" lon="7.0272164">
        <ele>2112.33</ele>
        <time>2019-09-09T10:15:11Z</time>
      </trkpt>
      <trkpt lat="46.0228443" lon="7.0270831">
        <ele>2109.04</ele>
        <time>2019-09-09T10:15:27Z</time>
      </trkpt>
      <trkpt lat="46.0228790" lon="7.0269628">
        <ele>2106.95</ele>
        <time>2019-09-09T10:15:37Z</time>
      </trkpt>
      <trkpt lat="46.0229800" lon="7.0269638">
        <ele>2104.95</ele>
        <time>2019-09-09T10:15:49Z</time>
      </trkpt>
      <trkpt lat="46.0230318" lon="7.0268567">
        <ele>2103.03</ele>
        <time>2019-09-09T10:16:01Z</time>
      </trkpt>
      <trkpt lat="46.0230953" lon="7.0267565">
        <ele>2100.95</ele>
        <time>2019-09-09T10:16:11Z</time>
      </trkpt>
      <trkpt lat="46.0231884" lon="7.0267087">
        <ele>2109.09</ele>
        <time>2019-09-09T10:16:25Z</time>
      </trkpt>
      <trkpt lat="46.0232021" lon="7.0265734">
        <ele>2098.08</ele>
        <time>2019-09-09T10:16:37Z</time>
      </trkpt>
      <trkpt lat="46.0232488" lon="7.0264601">
        <ele>2096.04</ele>
        <time>2019-09-09T10:16:47Z</time>
      </trkpt>
      <trkpt lat="46.0232954" lon="7.0263363">
        <ele>2092.04</ele>
        <time>2019-09-09T10:17:01Z</time>
      </trkpt>
      <trkpt lat="46.0233725" lon="7.0262632">
        <ele>2088.98</ele>
        <time>2019-09-09T10:17:11Z</time>
      </trkpt>
      <trkpt lat="46.0234740" lon="7.0262212">
        <ele>2087.03</ele>
        <time>2019-09-09T10:17:23Z</time>
      </trkpt>
      <trkpt lat="46.0235693" lon="7.0261672">
        <ele>2085.54</ele>
        <time>2019-09-09T10:17:33Z</time>
      </trkpt>
      <trkpt lat="46.0236515" lon="7.0260809">
        <ele>2083.95</ele>
        <time>2019-09-09T10:17:43Z</time>
      </trkpt>
      <trkpt lat="46.0237287" lon="7.0259775">
        <ele>2082.04</ele>
        <time>2019-09-09T10:17:53Z</time>
      </trkpt>
      <trkpt lat="46.0237534" lon="7.0258275">
        <ele>2079.27</ele>
        <time>2019-09-09T10:18:05Z</time>
      </trkpt>
      <trkpt lat="46.0238368" lon="7.0257529">
        <ele>2070.34</ele>
        <time>2019-09-09T10:18:23Z</time>
      </trkpt>
      <trkpt lat="46.0239195" lon="7.0256938">
        <ele>2070.24</ele>
        <time>2019-09-09T10:18:35Z</time>
      </trkpt>
      <trkpt lat="46.0239826" lon="7.0256015">
        <ele>2068.24</ele>
        <time>2019-09-09T10:18:47Z</time>
      </trkpt>
      <trkpt lat="46.0240525" lon="7.0255057">
        <ele>2062.08</ele>
        <time>2019-09-09T10:19:01Z</time>
      </trkpt>
      <trkpt lat="46.0240622" lon="7.0253650">
        <ele>2053.04</ele>
        <time>2019-09-09T10:19:17Z</time>
      </trkpt>
      <trkpt lat="46.0241558" lon="7.0253362">
        <ele>2050.73</ele>
        <time>2019-09-09T10:19:33Z</time>
      </trkpt>
      <trkpt lat="46.0241199" lon="7.0252084">
        <ele>2048.28</ele>
        <time>2019-09-09T10:19:43Z</time>
      </trkpt>
      <trkpt lat="46.0242248" lon="7.0251603">
        <ele>2042.88</ele>
        <time>2019-09-09T10:19:59Z</time>
      </trkpt>
      <trkpt lat="46.0243134" lon="7.0251373">
        <ele>2043.88</ele>
        <time>2019-09-09T10:20:11Z</time>
      </trkpt>
      <trkpt lat="46.0243555" lon="7.0250151">
        <ele>2039.73</ele>
        <time>2019-09-09T10:20:19Z</time>
      </trkpt>
      <trkpt lat="46.0243772" lon="7.0248726">
        <ele>2030.60</ele>
        <time>2019-09-09T10:20:41Z</time>
      </trkpt>
      <trkpt lat="46.0243660" lon="7.0247408">
        <ele>2028.28</ele>
        <time>2019-09-09T10:20:55Z</time>
      </trkpt>
      <trkpt lat="46.0242908" lon="7.0246444">
        <ele>2019.27</ele>
        <time>2019-09-09T10:21:17Z</time>
      </trkpt>
      <trkpt lat="46.0243846" lon="7.0245980">
        <ele>2017.12</ele>
        <time>2019-09-09T10:21:27Z</time>
      </trkpt>
      <trkpt lat="46.0244780" lon="7.0245608">
        <ele>2017.93</ele>
        <time>2019-09-09T10:21:37Z</time>
      </trkpt>
      <trkpt lat="46.0245628" lon="7.0244972">
        <ele>2016.06</ele>
        <time>2019-09-09T10:21:47Z</time>
      </trkpt>
      <trkpt lat="46.0245564" lon="7.0243554">
        <ele>2011.03</ele>
        <time>2019-09-09T10:22:09Z</time>
      </trkpt>
      <trkpt lat="46.0246333" lon="7.0242760">
        <ele>2005.16</ele>
        <time>2019-09-09T10:22:21Z</time>
      </trkpt>
      <trkpt lat="46.0246214" lon="7.0241394">
        <ele>2000.32</ele>
        <time>2019-09-09T10:22:33Z</time>
      </trkpt>
      <trkpt lat="46.0246930" lon="7.0240372">
        <ele>1997.76</ele>
        <time>2019-09-09T10:22:51Z</time>
      </trkpt>
      <trkpt lat="46.0247407" lon="7.0239148">
        <ele>1995.55</ele>
        <time>2019-09-09T10:23:01Z</time>
      </trkpt>
      <trkpt lat="46.0247740" lon="7.0237795">
        <ele>1993.97</ele>
        <time>2019-09-09T10:23:15Z</time>
      </trkpt>
      <trkpt lat="46.0248438" lon="7.0236931">
        <ele>1985.27</ele>
        <time>2019-09-09T10:23:59Z</time>
      </trkpt>
      <trkpt lat="46.0249518" lon="7.0237073">
        <ele>1982.25</ele>
        <time>2019-09-09T10:24:09Z</time>
      </trkpt>
      <trkpt lat="46.0248936" lon="7.0236055">
        <ele>1973.95</ele>
        <time>2019-09-09T10:24:43Z</time>
      </trkpt>
      <trkpt lat="46.0248014" lon="7.0236165">
        <ele>1977.94</ele>
        <time>2019-09-09T10:24:51Z</time>
      </trkpt>
      <trkpt lat="46.0248773" lon="7.0235293">
        <ele>1974.87</ele>
        <time>2019-09-09T10:25:01Z</time>
      </trkpt>
      <trkpt lat="46.0249609" lon="7.0234446">
        <ele>1971.86</ele>
        <time>2019-09-09T10:25:27Z</time>
      </trkpt>
      <trkpt lat="46.0249742" lon="7.0233106">
        <ele>1962.54</ele>
        <time>2019-09-09T10:25:57Z</time>
      </trkpt>
      <trkpt lat="46.0250202" lon="7.0231825">
        <ele>1961.03</ele>
        <time>2019-09-09T10:26:09Z</time>
      </trkpt>
      <trkpt lat="46.0250999" lon="7.0231215">
        <ele>1956.98</ele>
        <time>2019-09-09T10:26:23Z</time>
      </trkpt>
      <trkpt lat="46.0251568" lon="7.0230177">
        <ele>1998.26</ele>
        <time>2019-09-09T10:26:39Z</time>
      </trkpt>
      <trkpt lat="46.0252196" lon="7.0229236">
        <ele>1953.97</ele>
        <time>2019-09-09T10:26:53Z</time>
      </trkpt>
      <trkpt lat="46.0252699" lon="7.0228069">
        <ele>1944.05</ele>
        <time>2019-09-09T10:27:05Z</time>
      </trkpt>
      <trkpt lat="46.0253265" lon="7.0226947">
        <ele>1937.38</ele>
        <time>2019-09-09T10:27:15Z</time>
      </trkpt>
      <trkpt lat="46.0253774" lon="7.0225739">
        <ele>1935.82</ele>
        <time>2019-09-09T10:27:27Z</time>
      </trkpt>
      <trkpt lat="46.0254618" lon="7.0224866">
        <ele>1934.03</ele>
        <time>2019-09-09T10:27:51Z</time>
      </trkpt>
      <trkpt lat="46.0255062" lon="7.0223633">
        <ele>1932.55</ele>
        <time>2019-09-09T10:28:07Z</time>
      </trkpt>
      <trkpt lat="46.0255964" lon="7.0223142">
        <ele>1928.97</ele>
        <time>2019-09-09T10:28:23Z</time>
      </trkpt>
      <trkpt lat="46.0256830" lon="7.0222307">
        <ele>1926.27</ele>
        <time>2019-09-09T10:28:41Z</time>
      </trkpt>
      <trkpt lat="46.0257572" lon="7.0221393">
        <ele>1925.94</ele>
        <time>2019-09-09T10:28:55Z</time>
      </trkpt>
      <trkpt lat="46.0258231" lon="7.0220109">
        <ele>1923.94</ele>
        <time>2019-09-09T10:29:15Z</time>
      </trkpt>
      <trkpt lat="46.0258749" lon="7.0218889">
        <ele>1923.67</ele>
        <time>2019-09-09T10:29:27Z</time>
      </trkpt>
      <trkpt lat="46.0259655" lon="7.0218414">
        <ele>1922.94</ele>
        <time>2019-09-09T10:29:45Z</time>
      </trkpt>
      <trkpt lat="46.0260443" lon="7.0217741">
        <ele>1921.73</ele>
        <time>2019-09-09T10:29:57Z</time>
      </trkpt>
      <trkpt lat="46.0260907" lon="7.0216492">
        <ele>1919.33</ele>
        <time>2019-09-09T10:30:09Z</time>
      </trkpt>
      <trkpt lat="46.0261891" lon="7.0215930">
        <ele>1917.94</ele>
        <time>2019-09-09T10:30:25Z</time>
      </trkpt>
      <trkpt lat="46.0262719" lon="7.0216860">
        <ele>1929.71</ele>
        <time>2019-09-09T10:30:45Z</time>
      </trkpt>
      <trkpt lat="46.0263632" lon="7.0217333">
        <ele>1917.32</ele>
        <time>2019-09-09T10:31:01Z</time>
      </trkpt>
      <trkpt lat="46.0264403" lon="7.0216609">
        <ele>1915.94</ele>
        <time>2019-09-09T10:31:17Z</time>
      </trkpt>
      <trkpt lat="46.0264481" lon="7.0215176">
        <ele>1917.55</ele>
        <time>2019-09-09T10:31:29Z</time>
      </trkpt>
      <trkpt lat="46.0264975" lon="7.0213999">
        <ele>1915.06</ele>
        <time>2019-09-09T10:31:39Z</time>
      </trkpt>
      <trkpt lat="46.0264640" lon="7.0212515">
        <ele>1918.79</ele>
        <time>2019-09-09T10:32:13Z</time>
      </trkpt>
      <trkpt lat="46.0263913" lon="7.0211583">
        <ele>1902.04</ele>
        <time>2019-09-09T10:32:39Z</time>
      </trkpt>
      <trkpt lat="46.0263548" lon="7.0210201">
        <ele>1897.56</ele>
        <time>2019-09-09T10:33:11Z</time>
      </trkpt>
      <trkpt lat="46.0264162" lon="7.0209061">
        <ele>1895.88</ele>
        <time>2019-09-09T10:33:25Z</time>
      </trkpt>
      <trkpt lat="46.0265110" lon="7.0208464">
        <ele>1892.03</ele>
        <time>2019-09-09T10:33:41Z</time>
      </trkpt>
      <trkpt lat="46.0265931" lon="7.0207627">
        <ele>1890.00</ele>
        <time>2019-09-09T10:33:53Z</time>
      </trkpt>
      <trkpt lat="46.0266473" lon="7.0206552">
        <ele>1887.95</ele>
        <time>2019-09-09T10:34:03Z</time>
      </trkpt>
      <trkpt lat="46.0267412" lon="7.0205721">
        <ele>1886.03</ele>
        <time>2019-09-09T10:34:17Z</time>
      </trkpt>
      <trkpt lat="46.0268074" lon="7.0204798">
        <ele>1884.97</ele>
        <time>2019-09-09T10:34:27Z</time>
      </trkpt>
      <trkpt lat="46.0268589" lon="7.0203556">
        <ele>1884.85</ele>
        <time>2019-09-09T10:34:41Z</time>
      </trkpt>
      <trkpt lat="46.0269162" lon="7.0202391">
        <ele>1878.19</ele>
        <time>2019-09-09T10:34:55Z</time>
      </trkpt>
      <trkpt lat="46.0270181" lon="7.0202886">
        <ele>1878.94</ele>
        <time>2019-09-09T10:35:09Z</time>
      </trkpt>
      <trkpt lat="46.0270166" lon="7.0201540">
        <ele>1876.03</ele>
        <time>2019-09-09T10:35:23Z</time>
      </trkpt>
      <trkpt lat="46.0270551" lon="7.0200345">
        <ele>1871.05</ele>
        <time>2019-09-09T10:35:35Z</time>
      </trkpt>
      <trkpt lat="46.0271214" lon="7.0199444">
        <ele>1869.94</ele>
        <time>2019-09-09T10:35:45Z</time>
      </trkpt>
      <trkpt lat="46.0270852" lon="7.0198225">
        <ele>1866.74</ele>
        <time>2019-09-09T10:35:59Z</time>
      </trkpt>
      <trkpt lat="46.0269956" lon="7.0197368">
        <ele>1863.07</ele>
        <time>2019-09-09T10:36:15Z</time>
      </trkpt>
      <trkpt lat="46.0270981" lon="7.0197170">
        <ele>1852.83</ele>
        <time>2019-09-09T10:36:55Z</time>
      </trkpt>
      <trkpt lat="46.0271017" lon="7.0195806">
        <ele>1844.03</ele>
        <time>2019-09-09T10:37:31Z</time>
      </trkpt>
      <trkpt lat="46.0271326" lon="7.0194427">
        <ele>1844.30</ele>
        <time>2019-09-09T10:37:47Z</time>
      </trkpt>
      <trkpt lat="46.0271713" lon="7.0193162">
        <ele>1843.22</ele>
        <time>2019-09-09T10:37:59Z</time>
      </trkpt>
      <trkpt lat="46.0272711" lon="7.0192455">
        <ele>1836.13</ele>
        <time>2019-09-09T10:38:17Z</time>
      </trkpt>
      <trkpt lat="46.0273282" lon="7.0191408">
        <ele>1836.36</ele>
        <time>2019-09-09T10:38:25Z</time>
      </trkpt>
      <trkpt lat="46.0273824" lon="7.0190253">
        <ele>1836.88</ele>
        <time>2019-09-09T10:38:37Z</time>
      </trkpt>
      <trkpt lat="46.0274616" lon="7.0189346">
        <ele>1838.42</ele>
        <time>2019-09-09T10:38:57Z</time>
      </trkpt>
      <trkpt lat="46.0275527" lon="7.0188467">
        <ele>1837.24</ele>
        <time>2019-09-09T10:39:11Z</time>
      </trkpt>
      <trkpt lat="46.0276351" lon="7.0187925">
        <ele>1835.97</ele>
        <time>2019-09-09T10:39:25Z</time>
      </trkpt>
      <trkpt lat="46.0276736" lon="7.0186748">
        <ele>1836.24</ele>
        <time>2019-09-09T10:39:35Z</time>
      </trkpt>
      <trkpt lat="46.0277171" lon="7.0185566">
        <ele>1835.18</ele>
        <time>2019-09-09T10:39:45Z</time>
      </trkpt>
      <trkpt lat="46.0278047" lon="7.0184647">
        <ele>1833.24</ele>
        <time>2019-09-09T10:39:59Z</time>
      </trkpt>
      <trkpt lat="46.0279074" lon="7.0184321">
        <ele>1831.06</ele>
        <time>2019-09-09T10:40:09Z</time>
      </trkpt>
      <trkpt lat="46.0279428" lon="7.0182899">
        <ele>1827.63</ele>
        <time>2019-09-09T10:40:19Z</time>
      </trkpt>
      <trkpt lat="46.0279963" lon="7.0181595">
        <ele>1822.96</ele>
        <time>2019-09-09T10:40:31Z</time>
      </trkpt>
      <trkpt lat="46.0280608" lon="7.0180552">
        <ele>1816.57</ele>
        <time>2019-09-09T10:40:59Z</time>
      </trkpt>
      <trkpt lat="46.0280580" lon="7.0179071">
        <ele>1813.35</ele>
        <time>2019-09-09T10:41:07Z</time>
      </trkpt>
      <trkpt lat="46.0281506" lon="7.0178319">
        <ele>1807.95</ele>
        <time>2019-09-09T10:41:23Z</time>
      </trkpt>
      <trkpt lat="46.0282468" lon="7.0177944">
        <ele>1804.95</ele>
        <time>2019-09-09T10:41:37Z</time>
      </trkpt>
      <trkpt lat="46.0283267" lon="7.0177341">
        <ele>1806.26</ele>
        <time>2019-09-09T10:41:47Z</time>
      </trkpt>
      <trkpt lat="46.0284104" lon="7.0176440">
        <ele>1804.73</ele>
        <time>2019-09-09T10:42:01Z</time>
      </trkpt>
      <trkpt lat="46.0284724" lon="7.0175339">
        <ele>1801.92</ele>
        <time>2019-09-09T10:42:17Z</time>
      </trkpt>
      <trkpt lat="46.0284913" lon="7.0173957">
        <ele>1797.94</ele>
        <time>2019-09-09T10:42:41Z</time>
      </trkpt>
      <trkpt lat="46.0285711" lon="7.0173202">
        <ele>1793.74</ele>
        <time>2019-09-09T10:43:01Z</time>
      </trkpt>
      <trkpt lat="46.0286409" lon="7.0172218">
        <ele>1793.82</ele>
        <time>2019-09-09T10:43:19Z</time>
      </trkpt>
      <trkpt lat="46.0287323" lon="7.0171066">
        <ele>1789.56</ele>
        <time>2019-09-09T10:43:33Z</time>
      </trkpt>
      <trkpt lat="46.0288246" lon="7.0170706">
        <ele>1788.13</ele>
        <time>2019-09-09T10:43:49Z</time>
      </trkpt>
      <trkpt lat="46.0288983" lon="7.0169911">
        <ele>1786.20</ele>
        <time>2019-09-09T10:44:07Z</time>
      </trkpt>
      <trkpt lat="46.0289967" lon="7.0169471">
        <ele>1785.94</ele>
        <time>2019-09-09T10:44:17Z</time>
      </trkpt>
      <trkpt lat="46.0290193" lon="7.0168027">
        <ele>1782.93</ele>
        <time>2019-09-09T10:44:29Z</time>
      </trkpt>
      <trkpt lat="46.0291018" lon="7.0167319">
        <ele>1778.07</ele>
        <time>2019-09-09T10:44:41Z</time>
      </trkpt>
      <trkpt lat="46.0291188" lon="7.0165955">
        <ele>1774.03</ele>
        <time>2019-09-09T10:44:49Z</time>
      </trkpt>
      <trkpt lat="46.0291854" lon="7.0166998">
        <ele>1768.98</ele>
        <time>2019-09-09T10:45:01Z</time>
      </trkpt>
      <trkpt lat="46.0292463" lon="7.0165908">
        <ele>1771.71</ele>
        <time>2019-09-09T10:45:13Z</time>
      </trkpt>
      <trkpt lat="46.0292684" lon="7.0164596">
        <ele>1768.98</ele>
        <time>2019-09-09T10:45:23Z</time>
      </trkpt>
      <trkpt lat="46.0292869" lon="7.0163063">
        <ele>1767.06</ele>
        <time>2019-09-09T10:45:35Z</time>
      </trkpt>
      <trkpt lat="46.0292935" lon="7.0161768">
        <ele>1763.99</ele>
        <time>2019-09-09T10:45:47Z</time>
      </trkpt>
      <trkpt lat="46.0293365" lon="7.0160429">
        <ele>1757.67</ele>
        <time>2019-09-09T10:46:05Z</time>
      </trkpt>
      <trkpt lat="46.0293244" lon="7.0158872">
        <ele>1747.43</ele>
        <time>2019-09-09T10:46:17Z</time>
      </trkpt>
      <trkpt lat="46.0292219" lon="7.0158617">
        <ele>1743.99</ele>
        <time>2019-09-09T10:46:35Z</time>
      </trkpt>
      <trkpt lat="46.0292936" lon="7.0157822">
        <ele>1743.94</ele>
        <time>2019-09-09T10:46:49Z</time>
      </trkpt>
      <trkpt lat="46.0292258" lon="7.0156826">
        <ele>1741.24</ele>
        <time>2019-09-09T10:47:11Z</time>
      </trkpt>
      <trkpt lat="46.0293163" lon="7.0156443">
        <ele>1740.94</ele>
        <time>2019-09-09T10:47:23Z</time>
      </trkpt>
      <trkpt lat="46.0293880" lon="7.0155503">
        <ele>1734.33</ele>
        <time>2019-09-09T10:47:47Z</time>
      </trkpt>
      <trkpt lat="46.0293249" lon="7.0154505">
        <ele>1729.70</ele>
        <time>2019-09-09T10:47:53Z</time>
      </trkpt>
      <trkpt lat="46.0292275" lon="7.0154356">
        <ele>1726.50</ele>
        <time>2019-09-09T10:48:01Z</time>
      </trkpt>
      <trkpt lat="46.0291880" lon="7.0153187">
        <ele>1725.04</ele>
        <time>2019-09-09T10:48:19Z</time>
      </trkpt>
      <trkpt lat="46.0292706" lon="7.0152125">
        <ele>1720.16</ele>
        <time>2019-09-09T10:48:41Z</time>
      </trkpt>
      <trkpt lat="46.0293508" lon="7.0151289">
        <ele>1714.82</ele>
        <time>2019-09-09T10:48:53Z</time>
      </trkpt>
      <trkpt lat="46.0294230" lon="7.0150486">
        <ele>1716.89</ele>
        <time>2019-09-09T10:49:07Z</time>
      </trkpt>
      <trkpt lat="46.0293576" lon="7.0149240">
        <ele>1711.19</ele>
        <time>2019-09-09T10:49:23Z</time>
      </trkpt>
      <trkpt lat="46.0294372" lon="7.0148547">
        <ele>1707.46</ele>
        <time>2019-09-09T10:49:35Z</time>
      </trkpt>
      <trkpt lat="46.0294206" lon="7.0147099">
        <ele>1703.02</ele>
        <time>2019-09-09T10:49:47Z</time>
      </trkpt>
      <trkpt lat="46.0293583" lon="7.0145965">
        <ele>1697.95</ele>
        <time>2019-09-09T10:49:59Z</time>
      </trkpt>
      <trkpt lat="46.0293256" lon="7.0144429">
        <ele>1699.62</ele>
        <time>2019-09-09T10:50:07Z</time>
      </trkpt>
      <trkpt lat="46.0293044" lon="7.0142956">
        <ele>1692.77</ele>
        <time>2019-09-09T10:50:45Z</time>
      </trkpt>
      <trkpt lat="46.0292700" lon="7.0141464">
        <ele>1685.45</ele>
        <time>2019-09-09T10:51:03Z</time>
      </trkpt>
      <trkpt lat="46.0292655" lon="7.0140078">
        <ele>1674.84</ele>
        <time>2019-09-09T10:51:25Z</time>
      </trkpt>
      <trkpt lat="46.0293207" lon="7.0138885">
        <ele>1674.96</ele>
        <time>2019-09-09T10:51:41Z</time>
      </trkpt>
      <trkpt lat="46.0293254" lon="7.0137580">
        <ele>1677.06</ele>
        <time>2019-09-09T10:51:55Z</time>
      </trkpt>
      <trkpt lat="46.0292990" lon="7.0135980">
        <ele>1729.89</ele>
        <time>2019-09-09T10:52:15Z</time>
      </trkpt>
      <trkpt lat="46.0292770" lon="7.0134682">
        <ele>1677.39</ele>
        <time>2019-09-09T10:52:27Z</time>
      </trkpt>
      <trkpt lat="46.0292346" lon="7.0133527">
        <ele>1662.56</ele>
        <time>2019-09-09T10:52:51Z</time>
      </trkpt>
      <trkpt lat="46.0292406" lon="7.0132073">
        <ele>1738.25</ele>
        <time>2019-09-09T10:53:03Z</time>
      </trkpt>
      <trkpt lat="46.0293397" lon="7.0131552">
        <ele>1664.67</ele>
        <time>2019-09-09T10:53:15Z</time>
      </trkpt>
      <trkpt lat="46.0294161" lon="7.0130626">
        <ele>1656.96</ele>
        <time>2019-09-09T10:53:27Z</time>
      </trkpt>
      <trkpt lat="46.0294938" lon="7.0129897">
        <ele>1654.77</ele>
        <time>2019-09-09T10:53:37Z</time>
      </trkpt>
      <trkpt lat="46.0295126" lon="7.0128622">
        <ele>1654.65</ele>
        <time>2019-09-09T10:53:49Z</time>
      </trkpt>
      <trkpt lat="46.0295667" lon="7.0127566">
        <ele>1650.71</ele>
        <time>2019-09-09T10:53:57Z</time>
      </trkpt>
      <trkpt lat="46.0296674" lon="7.0127626">
        <ele>1648.68</ele>
        <time>2019-09-09T10:54:05Z</time>
      </trkpt>
      <trkpt lat="46.0296689" lon="7.0126253">
        <ele>1647.05</ele>
        <time>2019-09-09T10:54:15Z</time>
      </trkpt>
      <trkpt lat="46.0297228" lon="7.0124920">
        <ele>1644.67</ele>
        <time>2019-09-09T10:54:29Z</time>
      </trkpt>
      <trkpt lat="46.0297773" lon="7.0123784">
        <ele>1643.04</ele>
        <time>2019-09-09T10:54:39Z</time>
      </trkpt>
      <trkpt lat="46.0298420" lon="7.0122599">
        <ele>1640.27</ele>
        <time>2019-09-09T10:54:51Z</time>
      </trkpt>
      <trkpt lat="46.0299098" lon="7.0121426">
        <ele>1638.94</ele>
        <time>2019-09-09T10:55:03Z</time>
      </trkpt>
      <trkpt lat="46.0299646" lon="7.0120333">
        <ele>1636.95</ele>
        <time>2019-09-09T10:55:13Z</time>
      </trkpt>
      <trkpt lat="46.0300376" lon="7.0119181">
        <ele>1634.04</ele>
        <time>2019-09-09T10:55:25Z</time>
      </trkpt>
      <trkpt lat="46.0300916" lon="7.0117926">
        <ele>1632.16</ele>
        <time>2019-09-09T10:55:37Z</time>
      </trkpt>
      <trkpt lat="46.0301570" lon="7.0116925">
        <ele>1628.72</ele>
        <time>2019-09-09T10:55:45Z</time>
      </trkpt>
      <trkpt lat="46.0302533" lon="7.0116346">
        <ele>1625.07</ele>
        <time>2019-09-09T10:55:57Z</time>
      </trkpt>
      <trkpt lat="46.0302792" lon="7.0114893">
        <ele>1623.94</ele>
        <time>2019-09-09T10:56:07Z</time>
      </trkpt>
      <trkpt lat="46.0302599" lon="7.0113592">
        <ele>1622.97</ele>
        <time>2019-09-09T10:56:17Z</time>
      </trkpt>
      <trkpt lat="46.0303577" lon="7.0112947">
        <ele>1622.94</ele>
        <time>2019-09-09T10:56:29Z</time>
      </trkpt>
      <trkpt lat="46.0304125" lon="7.0111801">
        <ele>1623.01</ele>
        <time>2019-09-09T10:56:39Z</time>
      </trkpt>
      <trkpt lat="46.0304988" lon="7.0111059">
        <ele>1622.96</ele>
        <time>2019-09-09T10:56:49Z</time>
      </trkpt>
      <trkpt lat="46.0305174" lon="7.0109754">
        <ele>1621.06</ele>
        <time>2019-09-09T10:57:01Z</time>
      </trkpt>
      <trkpt lat="46.0305656" lon="7.0108533">
        <ele>1617.06</ele>
        <time>2019-09-09T10:57:11Z</time>
      </trkpt>
      <trkpt lat="46.0306318" lon="7.0107632">
        <ele>1615.06</ele>
        <time>2019-09-09T10:57:21Z</time>
      </trkpt>
      <trkpt lat="46.0306970" lon="7.0106374">
        <ele>1682.96</ele>
        <time>2019-09-09T10:57:33Z</time>
      </trkpt>
      <trkpt lat="46.0307859" lon="7.0105739">
        <ele>1626.94</ele>
        <time>2019-09-09T10:57:41Z</time>
      </trkpt>
      <trkpt lat="46.0308631" lon="7.0104692">
        <ele>1612.35</ele>
        <time>2019-09-09T10:57:55Z</time>
      </trkpt>
      <trkpt lat="46.0309299" lon="7.0103654">
        <ele>1610.02</ele>
        <time>2019-09-09T10:58:05Z</time>
      </trkpt>
      <trkpt lat="46.0310067" lon="7.0102893">
        <ele>1607.04</ele>
        <time>2019-09-09T10:58:15Z</time>
      </trkpt>
      <trkpt lat="46.0310896" lon="7.0101926">
        <ele>1606.03</ele>
        <time>2019-09-09T10:58:25Z</time>
      </trkpt>
      <trkpt lat="46.0311674" lon="7.0100971">
        <ele>1603.98</ele>
        <time>2019-09-09T10:58:35Z</time>
      </trkpt>
      <trkpt lat="46.0312647" lon="7.0100710">
        <ele>1603.64</ele>
        <time>2019-09-09T10:58:45Z</time>
      </trkpt>
      <trkpt lat="46.0313601" lon="7.0100059">
        <ele>1611.99</ele>
        <time>2019-09-09T10:58:55Z</time>
      </trkpt>
      <trkpt lat="46.0314653" lon="7.0099820">
        <ele>1603.32</ele>
        <time>2019-09-09T10:59:05Z</time>
      </trkpt>
      <trkpt lat="46.0315590" lon="7.0099606">
        <ele>1602.03</ele>
        <time>2019-09-09T10:59:15Z</time>
      </trkpt>
      <trkpt lat="46.0316515" lon="7.0098772">
        <ele>1599.05</ele>
        <time>2019-09-09T10:59:23Z</time>
      </trkpt>
      <trkpt lat="46.0317334" lon="7.0098225">
        <ele>1598.94</ele>
        <time>2019-09-09T10:59:29Z</time>
      </trkpt>
      <trkpt lat="46.0318342" lon="7.0098064">
        <ele>1595.64</ele>
        <time>2019-09-09T10:59:37Z</time>
      </trkpt>
      <trkpt lat="46.0319329" lon="7.0097887">
        <ele>1590.53</ele>
        <time>2019-09-09T10:59:45Z</time>
      </trkpt>
      <trkpt lat="46.0320361" lon="7.0097216">
        <ele>1592.13</ele>
        <time>2019-09-09T10:59:57Z</time>
      </trkpt>
      <trkpt lat="46.0321065" lon="7.0096154">
        <ele>1588.45</ele>
        <time>2019-09-09T11:00:03Z</time>
      </trkpt>
      <trkpt lat="46.0321221" lon="7.0094619">
        <ele>1582.66</ele>
        <time>2019-09-09T11:00:11Z</time>
      </trkpt>
      <trkpt lat="46.0321660" lon="7.0093422">
        <ele>1697.70</ele>
        <time>2019-09-09T11:00:29Z</time>
      </trkpt>
      <trkpt lat="46.0321833" lon="7.0092076">
        <ele>1587.04</ele>
        <time>2019-09-09T11:02:05Z</time>
      </trkpt>
      <trkpt lat="46.0320958" lon="7.0091765">
        <ele>1588.94</ele>
        <time>2019-09-09T11:21:49Z</time>
      </trkpt>
      <trkpt lat="46.0320050" lon="7.0091340">
        <ele>1574.95</ele>
        <time>2019-09-09T11:36:02Z</time>
      </trkpt>
      <trkpt lat="46.0320686" lon="7.0090139">
        <ele>1573.97</ele>
        <time>2019-09-09T11:36:20Z</time>
      </trkpt>
      <trkpt lat="46.0321376" lon="7.0088997">
        <ele>1574.94</ele>
        <time>2019-09-09T11:36:32Z</time>
      </trkpt>
      <trkpt lat="46.0321158" lon="7.0090503">
        <ele>1575.39</ele>
        <time>2019-09-09T11:36:40Z</time>
      </trkpt>
      <trkpt lat="46.0321827" lon="7.0088981">
        <ele>1576.94</ele>
        <time>2019-09-09T11:38:08Z</time>
      </trkpt>
      <trkpt lat="46.0322520" lon="7.0088127">
        <ele>1573.50</ele>
        <time>2019-09-09T11:38:16Z</time>
      </trkpt>
      <trkpt lat="46.0323124" lon="7.0086943">
        <ele>1574.20</ele>
        <time>2019-09-09T11:38:26Z</time>
      </trkpt>
      <trkpt lat="46.0322465" lon="7.0085909">
        <ele>1573.93</ele>
        <time>2019-09-09T11:38:44Z</time>
      </trkpt>
      <trkpt lat="46.0321808" lon="7.0085002">
        <ele>1573.22</ele>
        <time>2019-09-09T11:38:54Z</time>
      </trkpt>
      <trkpt lat="46.0320868" lon="7.0084782">
        <ele>1565.77</ele>
        <time>2019-09-09T11:39:31Z</time>
      </trkpt>
      <trkpt lat="46.0320102" lon="7.0083961">
        <ele>1565.87</ele>
        <time>2019-09-09T11:39:37Z</time>
      </trkpt>
      <trkpt lat="46.0319353" lon="7.0084832">
        <ele>1566.64</ele>
        <time>2019-09-09T11:39:55Z</time>
      </trkpt>
      <trkpt lat="46.0318402" lon="7.0084895">
        <ele>1571.13</ele>
        <time>2019-09-09T11:40:03Z</time>
      </trkpt>
      <trkpt lat="46.0317439" lon="7.0085411">
        <ele>1572.65</ele>
        <time>2019-09-09T11:40:15Z</time>
      </trkpt>
      <trkpt lat="46.0316386" lon="7.0085535">
        <ele>1575.94</ele>
        <time>2019-09-09T11:40:29Z</time>
      </trkpt>
      <trkpt lat="46.0315515" lon="7.0086023">
        <ele>1575.92</ele>
        <time>2019-09-09T11:40:43Z</time>
      </trkpt>
      <trkpt lat="46.0314793" lon="7.0086893">
        <ele>1576.70</ele>
        <time>2019-09-09T11:40:53Z</time>
      </trkpt>
      <trkpt lat="46.0314575" lon="7.0088371">
        <ele>1576.94</ele>
        <time>2019-09-09T11:41:03Z</time>
      </trkpt>
      <trkpt lat="46.0313862" lon="7.0089185">
        <ele>1576.97</ele>
        <time>2019-09-09T11:41:15Z</time>
      </trkpt>
      <trkpt lat="46.0313177" lon="7.0090181">
        <ele>1579.56</ele>
        <time>2019-09-09T11:41:35Z</time>
      </trkpt>
      <trkpt lat="46.0312271" lon="7.0090019">
        <ele>1580.93</ele>
        <time>2019-09-09T11:41:49Z</time>
      </trkpt>
      <trkpt lat="46.0311268" lon="7.0089675">
        <ele>1583.91</ele>
        <time>2019-09-09T11:42:11Z</time>
      </trkpt>
      <trkpt lat="46.0310246" lon="7.0089757">
        <ele>1588.91</ele>
        <time>2019-09-09T11:42:27Z</time>
      </trkpt>
      <trkpt lat="46.0309347" lon="7.0089661">
        <ele>1592.63</ele>
        <time>2019-09-09T11:42:39Z</time>
      </trkpt>
      <trkpt lat="46.0308420" lon="7.0089713">
        <ele>1595.85</ele>
        <time>2019-09-09T11:42:57Z</time>
      </trkpt>
      <trkpt lat="46.0307986" lon="7.0088337">
        <ele>1597.91</ele>
        <time>2019-09-09T11:43:15Z</time>
      </trkpt>
      <trkpt lat="46.0307428" lon="7.0089380">
        <ele>1608.30</ele>
        <time>2019-09-09T11:43:43Z</time>
      </trkpt>
      <trkpt lat="46.0306437" lon="7.0089777">
        <ele>1604.91</ele>
        <time>2019-09-09T11:43:57Z</time>
      </trkpt>
      <trkpt lat="46.0305493" lon="7.0090040">
        <ele>1604.94</ele>
        <time>2019-09-09T11:44:15Z</time>
      </trkpt>
      <trkpt lat="46.0304591" lon="7.0089873">
        <ele>1606.93</ele>
        <time>2019-09-09T11:44:43Z</time>
      </trkpt>
      <trkpt lat="46.0303772" lon="7.0090579">
        <ele>1609.94</ele>
        <time>2019-09-09T11:44:59Z</time>
      </trkpt>
      <trkpt lat="46.0302917" lon="7.0091013">
        <ele>1611.94</ele>
        <time>2019-09-09T11:45:17Z</time>
      </trkpt>
      <trkpt lat="46.0301988" lon="7.0091630">
        <ele>1613.94</ele>
        <time>2019-09-09T11:45:37Z</time>
      </trkpt>
      <trkpt lat="46.0301861" lon="7.0090246">
        <ele>1617.93</ele>
        <time>2019-09-09T11:46:07Z</time>
      </trkpt>
      <trkpt lat="46.0302368" lon="7.0089045">
        <ele>1617.03</ele>
        <time>2019-09-09T11:46:27Z</time>
      </trkpt>
      <trkpt lat="46.0302964" lon="7.0088038">
        <ele>1629.20</ele>
        <time>2019-09-09T11:46:53Z</time>
      </trkpt>
      <trkpt lat="46.0302187" lon="7.0087165">
        <ele>1625.60</ele>
        <time>2019-09-09T11:47:33Z</time>
      </trkpt>
      <trkpt lat="46.0302589" lon="7.0085977">
        <ele>1630.55</ele>
        <time>2019-09-09T11:47:47Z</time>
      </trkpt>
      <trkpt lat="46.0301959" lon="7.0084934">
        <ele>1635.12</ele>
        <time>2019-09-09T11:48:25Z</time>
      </trkpt>
      <trkpt lat="46.0301936" lon="7.0083567">
        <ele>1637.91</ele>
        <time>2019-09-09T11:48:51Z</time>
      </trkpt>
      <trkpt lat="46.0302154" lon="7.0082211">
        <ele>1640.93</ele>
        <time>2019-09-09T11:49:15Z</time>
      </trkpt>
      <trkpt lat="46.0302598" lon="7.0080986">
        <ele>1642.75</ele>
        <time>2019-09-09T11:49:39Z</time>
      </trkpt>
      <trkpt lat="46.0302649" lon="7.0079669">
        <ele>1646.82</ele>
        <time>2019-09-09T11:49:53Z</time>
      </trkpt>
      <trkpt lat="46.0303401" lon="7.0078601">
        <ele>1646.94</ele>
        <time>2019-09-09T11:50:07Z</time>
      </trkpt>
      <trkpt lat="46.0303804" lon="7.0077387">
        <ele>1651.50</ele>
        <time>2019-09-09T11:50:21Z</time>
      </trkpt>
      <trkpt lat="46.0302948" lon="7.0077938">
        <ele>1653.64</ele>
        <time>2019-09-09T11:50:33Z</time>
      </trkpt>
      <trkpt lat="46.0302088" lon="7.0078563">
        <ele>1655.91</ele>
        <time>2019-09-09T11:50:47Z</time>
      </trkpt>
      <trkpt lat="46.0301393" lon="7.0079549">
        <ele>1659.84</ele>
        <time>2019-09-09T11:51:07Z</time>
      </trkpt>
      <trkpt lat="46.0300447" lon="7.0079650">
        <ele>1661.64</ele>
        <time>2019-09-09T11:51:23Z</time>
      </trkpt>
      <trkpt lat="46.0299832" lon="7.0080687">
        <ele>1664.93</ele>
        <time>2019-09-09T11:51:45Z</time>
      </trkpt>
      <trkpt lat="46.0299104" lon="7.0081540">
        <ele>1666.85</ele>
        <time>2019-09-09T11:51:59Z</time>
      </trkpt>
      <trkpt lat="46.0298389" lon="7.0082423">
        <ele>1666.73</ele>
        <time>2019-09-09T11:52:25Z</time>
      </trkpt>
      <trkpt lat="46.0297319" lon="7.0082572">
        <ele>1668.30</ele>
        <time>2019-09-09T11:52:49Z</time>
      </trkpt>
      <trkpt lat="46.0296452" lon="7.0082953">
        <ele>1670.85</ele>
        <time>2019-09-09T11:53:09Z</time>
      </trkpt>
      <trkpt lat="46.0295705" lon="7.0083684">
        <ele>1676.79</ele>
        <time>2019-09-09T11:53:35Z</time>
      </trkpt>
      <trkpt lat="46.0294925" lon="7.0084572">
        <ele>1680.61</ele>
        <time>2019-09-09T11:53:53Z</time>
      </trkpt>
      <trkpt lat="46.0293947" lon="7.0084916">
        <ele>1682.91</ele>
        <time>2019-09-09T11:54:17Z</time>
      </trkpt>
      <trkpt lat="46.0293351" lon="7.0086030">
        <ele>1685.87</ele>
        <time>2019-09-09T11:54:31Z</time>
      </trkpt>
      <trkpt lat="46.0292544" lon="7.0086830">
        <ele>1685.05</ele>
        <time>2019-09-09T11:54:47Z</time>
      </trkpt>
      <trkpt lat="46.0291737" lon="7.0087642">
        <ele>1692.63</ele>
        <time>2019-09-09T11:55:09Z</time>
      </trkpt>
      <trkpt lat="46.0290805" lon="7.0087802">
        <ele>1691.61</ele>
        <time>2019-09-09T11:55:41Z</time>
      </trkpt>
      <trkpt lat="46.0289992" lon="7.0088518">
        <ele>1696.61</ele>
        <time>2019-09-09T11:56:01Z</time>
      </trkpt>
      <trkpt lat="46.0289013" lon="7.0088582">
        <ele>1698.85</ele>
        <time>2019-09-09T11:56:21Z</time>
      </trkpt>
      <trkpt lat="46.0288284" lon="7.0089555">
        <ele>1698.95</ele>
        <time>2019-09-09T11:56:41Z</time>
      </trkpt>
      <trkpt lat="46.0288385" lon="7.0088162">
        <ele>1707.54</ele>
        <time>2019-09-09T11:57:25Z</time>
      </trkpt>
      <trkpt lat="46.0287521" lon="7.0088616">
        <ele>1714.85</ele>
        <time>2019-09-09T11:58:09Z</time>
      </trkpt>
      <trkpt lat="46.0286612" lon="7.0088990">
        <ele>1715.85</ele>
        <time>2019-09-09T11:58:27Z</time>
      </trkpt>
      <trkpt lat="46.0285813" lon="7.0089614">
        <ele>1719.84</ele>
        <time>2019-09-09T11:58:41Z</time>
      </trkpt>
      <trkpt lat="46.0284814" lon="7.0089880">
        <ele>1723.84</ele>
        <time>2019-09-09T11:59:01Z</time>
      </trkpt>
      <trkpt lat="46.0283993" lon="7.0090557">
        <ele>1722.97</ele>
        <time>2019-09-09T11:59:19Z</time>
      </trkpt>
      <trkpt lat="46.0283426" lon="7.0091767">
        <ele>1725.84</ele>
        <time>2019-09-09T11:59:31Z</time>
      </trkpt>
      <trkpt lat="46.0282903" lon="7.0092873">
        <ele>1729.54</ele>
        <time>2019-09-09T11:59:45Z</time>
      </trkpt>
      <trkpt lat="46.0282348" lon="7.0093903">
        <ele>1732.23</ele>
        <time>2019-09-09T12:00:03Z</time>
      </trkpt>
      <trkpt lat="46.0281648" lon="7.0094884">
        <ele>1731.65</ele>
        <time>2019-09-09T12:00:15Z</time>
      </trkpt>
      <trkpt lat="46.0281051" lon="7.0095867">
        <ele>1733.61</ele>
        <time>2019-09-09T12:00:31Z</time>
      </trkpt>
      <trkpt lat="46.0280206" lon="7.0096490">
        <ele>1735.03</ele>
        <time>2019-09-09T12:00:47Z</time>
      </trkpt>
      <trkpt lat="46.0279597" lon="7.0097622">
        <ele>1736.85</ele>
        <time>2019-09-09T12:01:01Z</time>
      </trkpt>
      <trkpt lat="46.0279106" lon="7.0098771">
        <ele>1735.97</ele>
        <time>2019-09-09T12:01:15Z</time>
      </trkpt>
      <trkpt lat="46.0278539" lon="7.0099822">
        <ele>1736.23</ele>
        <time>2019-09-09T12:01:29Z</time>
      </trkpt>
      <trkpt lat="46.0277803" lon="7.0100737">
        <ele>1738.91</ele>
        <time>2019-09-09T12:01:45Z</time>
      </trkpt>
      <trkpt lat="46.0276932" lon="7.0101253">
        <ele>1738.64</ele>
        <time>2019-09-09T12:02:01Z</time>
      </trkpt>
      <trkpt lat="46.0275960" lon="7.0101687">
        <ele>1738.64</ele>
        <time>2019-09-09T12:02:15Z</time>
      </trkpt>
      <trkpt lat="46.0275063" lon="7.0102296">
        <ele>1738.94</ele>
        <time>2019-09-09T12:02:31Z</time>
      </trkpt>
      <trkpt lat="46.0274217" lon="7.0102757">
        <ele>1739.70</ele>
        <time>2019-09-09T12:02:41Z</time>
      </trkpt>
      <trkpt lat="46.0273414" lon="7.0103468">
        <ele>1742.54</ele>
        <time>2019-09-09T12:02:53Z</time>
      </trkpt>
      <trkpt lat="46.0272787" lon="7.0104694">
        <ele>1743.91</ele>
        <time>2019-09-09T12:03:09Z</time>
      </trkpt>
      <trkpt lat="46.0272241" lon="7.0105863">
        <ele>1745.84</ele>
        <time>2019-09-09T12:03:21Z</time>
      </trkpt>
      <trkpt lat="46.0271489" lon="7.0106633">
        <ele>1747.94</ele>
        <time>2019-09-09T12:03:45Z</time>
      </trkpt>
      <trkpt lat="46.0270726" lon="7.0107332">
        <ele>1749.85</ele>
        <time>2019-09-09T12:04:03Z</time>
      </trkpt>
      <trkpt lat="46.0269921" lon="7.0108288">
        <ele>1753.82</ele>
        <time>2019-09-09T12:04:15Z</time>
      </trkpt>
      <trkpt lat="46.0269093" lon="7.0109009">
        <ele>1755.93</ele>
        <time>2019-09-09T12:04:35Z</time>
      </trkpt>
      <trkpt lat="46.0268367" lon="7.0109796">
        <ele>1758.82</ele>
        <time>2019-09-09T12:04:49Z</time>
      </trkpt>
      <trkpt lat="46.0267933" lon="7.0111042">
        <ele>1760.85</ele>
        <time>2019-09-09T12:05:03Z</time>
      </trkpt>
      <trkpt lat="46.0267757" lon="7.0112428">
        <ele>1763.72</ele>
        <time>2019-09-09T12:05:17Z</time>
      </trkpt>
      <trkpt lat="46.0266870" lon="7.0113070">
        <ele>1763.94</ele>
        <time>2019-09-09T12:05:31Z</time>
      </trkpt>
      <trkpt lat="46.0266239" lon="7.0114006">
        <ele>1763.92</ele>
        <time>2019-09-09T12:05:45Z</time>
      </trkpt>
      <trkpt lat="46.0265847" lon="7.0115333">
        <ele>1763.31</ele>
        <time>2019-09-09T12:06:03Z</time>
      </trkpt>
      <trkpt lat="46.0264840" lon="7.0115960">
        <ele>1761.97</ele>
        <time>2019-09-09T12:06:11Z</time>
      </trkpt>
      <trkpt lat="46.0263945" lon="7.0116722">
        <ele>1760.97</ele>
        <time>2019-09-09T12:06:23Z</time>
      </trkpt>
      <trkpt lat="46.0263090" lon="7.0117206">
        <ele>1762.63</ele>
        <time>2019-09-09T12:06:37Z</time>
      </trkpt>
      <trkpt lat="46.0262378" lon="7.0116333">
        <ele>1765.87</ele>
        <time>2019-09-09T12:07:23Z</time>
      </trkpt>
      <trkpt lat="46.0261655" lon="7.0115506">
        <ele>1766.65</ele>
        <time>2019-09-09T12:07:39Z</time>
      </trkpt>
      <trkpt lat="46.0262458" lon="7.0114880">
        <ele>1771.70</ele>
        <time>2019-09-09T12:08:09Z</time>
      </trkpt>
      <trkpt lat="46.0262479" lon="7.0113569">
        <ele>1778.12</ele>
        <time>2019-09-09T12:08:37Z</time>
      </trkpt>
      <trkpt lat="46.0261459" lon="7.0113266">
        <ele>1782.90</ele>
        <time>2019-09-09T12:08:55Z</time>
      </trkpt>
      <trkpt lat="46.0261801" lon="7.0112053">
        <ele>1786.61</ele>
        <time>2019-09-09T12:09:21Z</time>
      </trkpt>
      <trkpt lat="46.0261207" lon="7.0110930">
        <ele>1789.63</ele>
        <time>2019-09-09T12:09:49Z</time>
      </trkpt>
      <trkpt lat="46.0260349" lon="7.0110486">
        <ele>1793.54</ele>
        <time>2019-09-09T12:10:09Z</time>
      </trkpt>
      <trkpt lat="46.0259389" lon="7.0110582">
        <ele>1795.85</ele>
        <time>2019-09-09T12:10:27Z</time>
      </trkpt>
      <trkpt lat="46.0258485" lon="7.0110342">
        <ele>1799.85</ele>
        <time>2019-09-09T12:10:45Z</time>
      </trkpt>
      <trkpt lat="46.0258238" lon="7.0109064">
        <ele>1801.93</ele>
        <time>2019-09-09T12:11:05Z</time>
      </trkpt>
      <trkpt lat="46.0259007" lon="7.0108300">
        <ele>1805.61</ele>
        <time>2019-09-09T12:11:23Z</time>
      </trkpt>
      <trkpt lat="46.0258400" lon="7.0107245">
        <ele>1815.62</ele>
        <time>2019-09-09T12:12:05Z</time>
      </trkpt>
      <trkpt lat="46.0257468" lon="7.0107206">
        <ele>1817.91</ele>
        <time>2019-09-09T12:12:23Z</time>
      </trkpt>
      <trkpt lat="46.0258077" lon="7.0106173">
        <ele>1821.93</ele>
        <time>2019-09-09T12:12:51Z</time>
      </trkpt>
      <trkpt lat="46.0257200" lon="7.0105774">
        <ele>1827.23</ele>
        <time>2019-09-09T12:13:19Z</time>
      </trkpt>
      <trkpt lat="46.0256238" lon="7.0105634">
        <ele>1830.93</ele>
        <time>2019-09-09T12:13:45Z</time>
      </trkpt>
      <trkpt lat="46.0255408" lon="7.0105063">
        <ele>1836.52</ele>
        <time>2019-09-09T12:14:03Z</time>
      </trkpt>
      <trkpt lat="46.0254808" lon="7.0104097">
        <ele>1840.85</ele>
        <time>2019-09-09T12:14:23Z</time>
      </trkpt>
      <trkpt lat="46.0254175" lon="7.0103026">
        <ele>1841.64</ele>
        <time>2019-09-09T12:14:37Z</time>
      </trkpt>
      <trkpt lat="46.0253891" lon="7.0101556">
        <ele>1844.63</ele>
        <time>2019-09-09T12:14:47Z</time>
      </trkpt>
      <trkpt lat="46.0253351" lon="7.0100439">
        <ele>1844.94</ele>
        <time>2019-09-09T12:15:03Z</time>
      </trkpt>
      <trkpt lat="46.0252948" lon="7.0099069">
        <ele>1847.63</ele>
        <time>2019-09-09T12:15:19Z</time>
      </trkpt>
      <trkpt lat="46.0252367" lon="7.0097913">
        <ele>1849.84</ele>
        <time>2019-09-09T12:15:33Z</time>
      </trkpt>
      <trkpt lat="46.0251616" lon="7.0097001">
        <ele>1851.91</ele>
        <time>2019-09-09T12:15:47Z</time>
      </trkpt>
      <trkpt lat="46.0251074" lon="7.0095903">
        <ele>1853.85</ele>
        <time>2019-09-09T12:16:05Z</time>
      </trkpt>
      <trkpt lat="46.0250163" lon="7.0095678">
        <ele>1853.94</ele>
        <time>2019-09-09T12:16:21Z</time>
      </trkpt>
      <trkpt lat="46.0249296" lon="7.0095320">
        <ele>1855.94</ele>
        <time>2019-09-09T12:16:35Z</time>
      </trkpt>
      <trkpt lat="46.0248438" lon="7.0094800">
        <ele>1858.85</ele>
        <time>2019-09-09T12:16:53Z</time>
      </trkpt>
      <trkpt lat="46.0247518" lon="7.0094716">
        <ele>1859.85</ele>
        <time>2019-09-09T12:17:09Z</time>
      </trkpt>
      <trkpt lat="46.0247697" lon="7.0093446">
        <ele>1867.94</ele>
        <time>2019-09-09T12:17:53Z</time>
      </trkpt>
      <trkpt lat="46.0248058" lon="7.0092211">
        <ele>1869.64</ele>
        <time>2019-09-09T12:18:09Z</time>
      </trkpt>
      <trkpt lat="46.0247156" lon="7.0091505">
        <ele>1869.85</ele>
        <time>2019-09-09T12:18:29Z</time>
      </trkpt>
      <trkpt lat="46.0246432" lon="7.0090733">
        <ele>1870.86</ele>
        <time>2019-09-09T12:18:45Z</time>
      </trkpt>
      <trkpt lat="46.0245682" lon="7.0089934">
        <ele>1870.67</ele>
        <time>2019-09-09T12:18:59Z</time>
      </trkpt>
      <trkpt lat="46.0244868" lon="7.0089304">
        <ele>1871.64</ele>
        <time>2019-09-09T12:19:13Z</time>
      </trkpt>
      <trkpt lat="46.0244120" lon="7.0088481">
        <ele>1873.64</ele>
        <time>2019-09-09T12:19:33Z</time>
      </trkpt>
      <trkpt lat="46.0243598" lon="7.0087403">
        <ele>1876.85</ele>
        <time>2019-09-09T12:19:49Z</time>
      </trkpt>
      <trkpt lat="46.0242879" lon="7.0086526">
        <ele>1877.72</ele>
        <time>2019-09-09T12:20:01Z</time>
      </trkpt>
      <trkpt lat="46.0242123" lon="7.0085627">
        <ele>1877.97</ele>
        <time>2019-09-09T12:20:15Z</time>
      </trkpt>
      <trkpt lat="46.0243084" lon="7.0085087">
        <ele>1883.94</ele>
        <time>2019-09-09T12:20:45Z</time>
      </trkpt>
      <trkpt lat="46.0244056" lon="7.0085160">
        <ele>1887.91</ele>
        <time>2019-09-09T12:21:01Z</time>
      </trkpt>
      <trkpt lat="46.0245033" lon="7.0085561">
        <ele>1887.16</ele>
        <time>2019-09-09T12:21:15Z</time>
      </trkpt>
      <trkpt lat="46.0244845" lon="7.0084210">
        <ele>1891.62</ele>
        <time>2019-09-09T12:21:53Z</time>
      </trkpt>
      <trkpt lat="46.0244337" lon="7.0083002">
        <ele>1892.94</ele>
        <time>2019-09-09T12:22:09Z</time>
      </trkpt>
      <trkpt lat="46.0243453" lon="7.0082211">
        <ele>1893.93</ele>
        <time>2019-09-09T12:22:25Z</time>
      </trkpt>
      <trkpt lat="46.0242852" lon="7.0081202">
        <ele>1898.80</ele>
        <time>2019-09-09T12:22:43Z</time>
      </trkpt>
      <trkpt lat="46.0241886" lon="7.0081092">
        <ele>1902.91</ele>
        <time>2019-09-09T12:23:01Z</time>
      </trkpt>
      <trkpt lat="46.0240936" lon="7.0081325">
        <ele>1907.93</ele>
        <time>2019-09-09T12:23:41Z</time>
      </trkpt>
      <trkpt lat="46.0240210" lon="7.0082096">
        <ele>1912.54</ele>
        <time>2019-09-09T12:24:01Z</time>
      </trkpt>
      <trkpt lat="46.0239341" lon="7.0082473">
        <ele>1917.51</ele>
        <time>2019-09-09T12:24:15Z</time>
      </trkpt>
      <trkpt lat="46.0238592" lon="7.0083223">
        <ele>1921.84</ele>
        <time>2019-09-09T12:24:31Z</time>
      </trkpt>
      <trkpt lat="46.0237722" lon="7.0083905">
        <ele>1924.13</ele>
        <time>2019-09-09T12:24:49Z</time>
      </trkpt>
      <trkpt lat="46.0237923" lon="7.0082630">
        <ele>1934.90</ele>
        <time>2019-09-09T12:25:19Z</time>
      </trkpt>
      <trkpt lat="46.0238270" lon="7.0081393">
        <ele>1936.63</ele>
        <time>2019-09-09T12:25:39Z</time>
      </trkpt>
      <trkpt lat="46.0237308" lon="7.0081636">
        <ele>1939.91</ele>
        <time>2019-09-09T12:26:11Z</time>
      </trkpt>
      <trkpt lat="46.0236688" lon="7.0080601">
        <ele>1945.91</ele>
        <time>2019-09-09T12:27:07Z</time>
      </trkpt>
      <trkpt lat="46.0235766" lon="7.0080971">
        <ele>1950.34</ele>
        <time>2019-09-09T12:27:27Z</time>
      </trkpt>
      <trkpt lat="46.0236395" lon="7.0080029">
        <ele>1953.64</ele>
        <time>2019-09-09T12:28:11Z</time>
      </trkpt>
      <trkpt lat="46.0235683" lon="7.0079051">
        <ele>1958.91</ele>
        <time>2019-09-09T12:28:51Z</time>
      </trkpt>
      <trkpt lat="46.0234929" lon="7.0078237">
        <ele>1958.64</ele>
        <time>2019-09-09T12:29:05Z</time>
      </trkpt>
      <trkpt lat="46.0233970" lon="7.0078048">
        <ele>1960.84</ele>
        <time>2019-09-09T12:29:19Z</time>
      </trkpt>
      <trkpt lat="46.0233038" lon="7.0077939">
        <ele>1964.54</ele>
        <time>2019-09-09T12:29:33Z</time>
      </trkpt>
      <trkpt lat="46.0232148" lon="7.0077682">
        <ele>1965.87</ele>
        <time>2019-09-09T12:29:47Z</time>
      </trkpt>
      <trkpt lat="46.0231177" lon="7.0077334">
        <ele>1967.61</ele>
        <time>2019-09-09T12:30:01Z</time>
      </trkpt>
      <trkpt lat="46.0231885" lon="7.0076349">
        <ele>1972.63</ele>
        <time>2019-09-09T12:30:25Z</time>
      </trkpt>
      <trkpt lat="46.0232848" lon="7.0075863">
        <ele>1975.84</ele>
        <time>2019-09-09T12:30:39Z</time>
      </trkpt>
      <trkpt lat="46.0233759" lon="7.0075983">
        <ele>1979.85</ele>
        <time>2019-09-09T12:30:55Z</time>
      </trkpt>
      <trkpt lat="46.0233148" lon="7.0074882">
        <ele>1978.94</ele>
        <time>2019-09-09T12:31:17Z</time>
      </trkpt>
      <trkpt lat="46.0232621" lon="7.0073720">
        <ele>1980.85</ele>
        <time>2019-09-09T12:31:33Z</time>
      </trkpt>
      <trkpt lat="46.0231707" lon="7.0073291">
        <ele>1981.92</ele>
        <time>2019-09-09T12:31:49Z</time>
      </trkpt>
      <trkpt lat="46.0231051" lon="7.0072394">
        <ele>1981.01</ele>
        <time>2019-09-09T12:32:01Z</time>
      </trkpt>
      <trkpt lat="46.0230269" lon="7.0071632">
        <ele>1983.61</ele>
        <time>2019-09-09T12:32:15Z</time>
      </trkpt>
      <trkpt lat="46.0229396" lon="7.0071148">
        <ele>1984.93</ele>
        <time>2019-09-09T12:32:29Z</time>
      </trkpt>
      <trkpt lat="46.0228513" lon="7.0070742">
        <ele>1986.91</ele>
        <time>2019-09-09T12:32:43Z</time>
      </trkpt>
      <trkpt lat="46.0227820" lon="7.0069853">
        <ele>1987.94</ele>
        <time>2019-09-09T12:32:57Z</time>
      </trkpt>
      <trkpt lat="46.0226956" lon="7.0069057">
        <ele>1990.93</ele>
        <time>2019-09-09T12:33:11Z</time>
      </trkpt>
      <trkpt lat="46.0225975" lon="7.0068645">
        <ele>1994.03</ele>
        <time>2019-09-09T12:34:23Z</time>
      </trkpt>
      <trkpt lat="46.0225901" lon="7.0067323">
        <ele>2000.84</ele>
        <time>2019-09-09T12:34:49Z</time>
      </trkpt>
      <trkpt lat="46.0226849" lon="7.0067314">
        <ele>2000.73</ele>
        <time>2019-09-09T12:35:13Z</time>
      </trkpt>
      <trkpt lat="46.0227514" lon="7.0066414">
        <ele>2001.94</ele>
        <time>2019-09-09T12:35:29Z</time>
      </trkpt>
      <trkpt lat="46.0228387" lon="7.0065597">
        <ele>2005.61</ele>
        <time>2019-09-09T12:35:43Z</time>
      </trkpt>
      <trkpt lat="46.0229273" lon="7.0065347">
        <ele>2007.85</ele>
        <time>2019-09-09T12:36:07Z</time>
      </trkpt>
      <trkpt lat="46.0230281" lon="7.0065794">
        <ele>2009.67</ele>
        <time>2019-09-09T12:36:43Z</time>
      </trkpt>
      <trkpt lat="46.0229798" lon="7.0064668">
        <ele>2012.93</ele>
        <time>2019-09-09T12:37:03Z</time>
      </trkpt>
      <trkpt lat="46.0229048" lon="7.0063871">
        <ele>2015.84</ele>
        <time>2019-09-09T12:37:17Z</time>
      </trkpt>
      <trkpt lat="46.0228322" lon="7.0063013">
        <ele>2015.94</ele>
        <time>2019-09-09T12:37:29Z</time>
      </trkpt>
      <trkpt lat="46.0227418" lon="7.0062685">
        <ele>2016.64</ele>
        <time>2019-09-09T12:37:41Z</time>
      </trkpt>
      <trkpt lat="46.0226507" lon="7.0062003">
        <ele>2017.94</ele>
        <time>2019-09-09T12:37:55Z</time>
      </trkpt>
      <trkpt lat="46.0225557" lon="7.0061490">
        <ele>2018.94</ele>
        <time>2019-09-09T12:38:11Z</time>
      </trkpt>
      <trkpt lat="46.0225146" lon="7.0060227">
        <ele>2022.54</ele>
        <time>2019-09-09T12:38:21Z</time>
      </trkpt>
      <trkpt lat="46.0224534" lon="7.0059008">
        <ele>2025.55</ele>
        <time>2019-09-09T12:38:33Z</time>
      </trkpt>
      <trkpt lat="46.0223850" lon="7.0058093">
        <ele>2025.88</ele>
        <time>2019-09-09T12:38:45Z</time>
      </trkpt>
      <trkpt lat="46.0223192" lon="7.0057077">
        <ele>2028.82</ele>
        <time>2019-09-09T12:38:57Z</time>
      </trkpt>
      <trkpt lat="46.0222556" lon="7.0056097">
        <ele>2030.93</ele>
        <time>2019-09-09T12:39:11Z</time>
      </trkpt>
      <trkpt lat="46.0221670" lon="7.0056437">
        <ele>2030.94</ele>
        <time>2019-09-09T12:39:23Z</time>
      </trkpt>
      <trkpt lat="46.0220809" lon="7.0055936">
        <ele>2031.15</ele>
        <time>2019-09-09T12:39:35Z</time>
      </trkpt>
      <trkpt lat="46.0219901" lon="7.0055633">
        <ele>2031.64</ele>
        <time>2019-09-09T12:39:47Z</time>
      </trkpt>
      <trkpt lat="46.0219203" lon="7.0054571">
        <ele>2032.88</ele>
        <time>2019-09-09T12:40:01Z</time>
      </trkpt>
      <trkpt lat="46.0218401" lon="7.0053894">
        <ele>2032.94</ele>
        <time>2019-09-09T12:40:13Z</time>
      </trkpt>
      <trkpt lat="46.0217434" lon="7.0053403">
        <ele>2033.64</ele>
        <time>2019-09-09T12:40:27Z</time>
      </trkpt>
      <trkpt lat="46.0218276" lon="7.0052796">
        <ele>2041.61</ele>
        <time>2019-09-09T12:40:51Z</time>
      </trkpt>
      <trkpt lat="46.0219036" lon="7.0051981">
        <ele>2047.83</ele>
        <time>2019-09-09T12:41:09Z</time>
      </trkpt>
      <trkpt lat="46.0219989" lon="7.0051639">
        <ele>2051.55</ele>
        <time>2019-09-09T12:41:23Z</time>
      </trkpt>
      <trkpt lat="46.0220926" lon="7.0051783">
        <ele>2054.85</ele>
        <time>2019-09-09T12:41:37Z</time>
      </trkpt>
      <trkpt lat="46.0221890" lon="7.0052158">
        <ele>2055.94</ele>
        <time>2019-09-09T12:41:55Z</time>
      </trkpt>
      <trkpt lat="46.0222859" lon="7.0052242">
        <ele>2060.33</ele>
        <time>2019-09-09T12:42:33Z</time>
      </trkpt>
      <trkpt lat="46.0223520" lon="7.0053129">
        <ele>2062.85</ele>
        <time>2019-09-09T12:42:53Z</time>
      </trkpt>
      <trkpt lat="46.0224230" lon="7.0053951">
        <ele>2065.85</ele>
        <time>2019-09-09T12:43:13Z</time>
      </trkpt>
      <trkpt lat="46.0225195" lon="7.0054022">
        <ele>2069.84</ele>
        <time>2019-09-09T12:43:33Z</time>
      </trkpt>
      <trkpt lat="46.0226094" lon="7.0054488">
        <ele>2074.90</ele>
        <time>2019-09-09T12:43:53Z</time>
      </trkpt>
      <trkpt lat="46.0226974" lon="7.0055309">
        <ele>2075.94</ele>
        <time>2019-09-09T12:44:07Z</time>
      </trkpt>
      <trkpt lat="46.0227867" lon="7.0055720">
        <ele>2079.91</ele>
        <time>2019-09-09T12:44:21Z</time>
      </trkpt>
      <trkpt lat="46.0227732" lon="7.0054303">
        <ele>2080.64</ele>
        <time>2019-09-09T12:44:37Z</time>
      </trkpt>
      <trkpt lat="46.0228087" lon="7.0053037">
        <ele>2084.82</ele>
        <time>2019-09-09T12:44:53Z</time>
      </trkpt>
      <trkpt lat="46.0228060" lon="7.0051588">
        <ele>2086.64</ele>
        <time>2019-09-09T12:45:09Z</time>
      </trkpt>
      <trkpt lat="46.0228776" lon="7.0050662">
        <ele>2093.85</ele>
        <time>2019-09-09T12:45:39Z</time>
      </trkpt>
      <trkpt lat="46.0229639" lon="7.0051230">
        <ele>2095.93</ele>
        <time>2019-09-09T12:45:55Z</time>
      </trkpt>
      <trkpt lat="46.0230563" lon="7.0051512">
        <ele>2094.70</ele>
        <time>2019-09-09T12:46:09Z</time>
      </trkpt>
      <trkpt lat="46.0230802" lon="7.0050208">
        <ele>2099.93</ele>
        <time>2019-09-09T12:46:31Z</time>
      </trkpt>
      <trkpt lat="46.0230131" lon="7.0049139">
        <ele>2102.32</ele>
        <time>2019-09-09T12:46:47Z</time>
      </trkpt>
      <trkpt lat="46.0229512" lon="7.0048061">
        <ele>2104.86</ele>
        <time>2019-09-09T12:47:03Z</time>
      </trkpt>
      <trkpt lat="46.0230442" lon="7.0048721">
        <ele>2110.27</ele>
        <time>2019-09-09T13:12:08Z</time>
      </trkpt>
      <trkpt lat="46.0231145" lon="7.0047759">
        <ele>2106.01</ele>
        <time>2019-09-09T13:12:20Z</time>
      </trkpt>
      <trkpt lat="46.0232220" lon="7.0047389">
        <ele>2106.64</ele>
        <time>2019-09-09T13:12:34Z</time>
      </trkpt>
      <trkpt lat="46.0232934" lon="7.0046350">
        <ele>2110.63</ele>
        <time>2019-09-09T13:12:46Z</time>
      </trkpt>
      <trkpt lat="46.0233775" lon="7.0045674">
        <ele>2113.85</ele>
        <time>2019-09-09T13:13:02Z</time>
      </trkpt>
      <trkpt lat="46.0234721" lon="7.0046337">
        <ele>2114.94</ele>
        <time>2019-09-09T13:13:20Z</time>
      </trkpt>
      <trkpt lat="46.0235660" lon="7.0046377">
        <ele>2118.94</ele>
        <time>2019-09-09T13:13:38Z</time>
      </trkpt>
      <trkpt lat="46.0236595" lon="7.0046278">
        <ele>2127.64</ele>
        <time>2019-09-09T13:14:56Z</time>
      </trkpt>
      <trkpt lat="46.0237465" lon="7.0046703">
        <ele>2133.15</ele>
        <time>2019-09-09T13:15:30Z</time>
      </trkpt>
      <trkpt lat="46.0238418" lon="7.0046906">
        <ele>2135.61</ele>
        <time>2019-09-09T13:15:38Z</time>
      </trkpt>
      <trkpt lat="46.0239397" lon="7.0047476">
        <ele>2135.86</ele>
        <time>2019-09-09T13:15:56Z</time>
      </trkpt>
      <trkpt lat="46.0240361" lon="7.0047535">
        <ele>2136.92</ele>
        <time>2019-09-09T13:16:08Z</time>
      </trkpt>
      <trkpt lat="46.0241382" lon="7.0048071">
        <ele>2137.43</ele>
        <time>2019-09-09T13:16:22Z</time>
      </trkpt>
      <trkpt lat="46.0242284" lon="7.0048792">
        <ele>2138.94</ele>
        <time>2019-09-09T13:16:32Z</time>
      </trkpt>
      <trkpt lat="46.0243225" lon="7.0049362">
        <ele>2142.91</ele>
        <time>2019-09-09T13:16:50Z</time>
      </trkpt>
      <trkpt lat="46.0244148" lon="7.0049237">
        <ele>2146.84</ele>
        <time>2019-09-09T13:17:04Z</time>
      </trkpt>
      <trkpt lat="46.0244864" lon="7.0050053">
        <ele>2146.86</ele>
        <time>2019-09-09T13:17:20Z</time>
      </trkpt>
      <trkpt lat="46.0245773" lon="7.0050579">
        <ele>2146.73</ele>
        <time>2019-09-09T13:17:58Z</time>
      </trkpt>
      <trkpt lat="46.0246512" lon="7.0049682">
        <ele>2144.63</ele>
        <time>2019-09-09T13:18:30Z</time>
      </trkpt>
      <trkpt lat="46.0246844" lon="7.0050999">
        <ele>2140.64</ele>
        <time>2019-09-09T13:19:36Z</time>
      </trkpt>
      <trkpt lat="46.0247281" lon="7.0052309">
        <ele>2137.45</ele>
        <time>2019-09-09T13:19:52Z</time>
      </trkpt>
      <trkpt lat="46.0248214" lon="7.0051983">
        <ele>2135.71</ele>
        <time>2019-09-09T13:20:00Z</time>
      </trkpt>
      <trkpt lat="46.0249190" lon="7.0052516">
        <ele>2134.25</ele>
        <time>2019-09-09T13:20:08Z</time>
      </trkpt>
      <trkpt lat="46.0249870" lon="7.0053674">
        <ele>2133.14</ele>
        <time>2019-09-09T13:20:18Z</time>
      </trkpt>
      <trkpt lat="46.0249864" lon="7.0055092">
        <ele>2137.62</ele>
        <time>2019-09-09T13:20:28Z</time>
      </trkpt>
      <trkpt lat="46.0250686" lon="7.0055663">
        <ele>2131.70</ele>
        <time>2019-09-09T13:20:44Z</time>
      </trkpt>
      <trkpt lat="46.0251465" lon="7.0056393">
        <ele>2129.47</ele>
        <time>2019-09-09T13:20:56Z</time>
      </trkpt>
      <trkpt lat="46.0252395" lon="7.0056532">
        <ele>2128.00</ele>
        <time>2019-09-09T13:21:08Z</time>
      </trkpt>
      <trkpt lat="46.0253252" lon="7.0056931">
        <ele>2124.78</ele>
        <time>2019-09-09T13:21:28Z</time>
      </trkpt>
      <trkpt lat="46.0253917" lon="7.0058061">
        <ele>2123.01</ele>
        <time>2019-09-09T13:21:40Z</time>
      </trkpt>
      <trkpt lat="46.0254824" lon="7.0058782">
        <ele>2126.76</ele>
        <time>2019-09-09T13:21:52Z</time>
      </trkpt>
      <trkpt lat="46.0255842" lon="7.0058853">
        <ele>2126.26</ele>
        <time>2019-09-09T13:22:04Z</time>
      </trkpt>
      <trkpt lat="46.0256792" lon="7.0059327">
        <ele>2123.78</ele>
        <time>2019-09-09T13:22:14Z</time>
      </trkpt>
      <trkpt lat="46.0257410" lon="7.0060400">
        <ele>2121.36</ele>
        <time>2019-09-09T13:22:26Z</time>
      </trkpt>
      <trkpt lat="46.0258291" lon="7.0060708">
        <ele>2122.76</ele>
        <time>2019-09-09T13:22:34Z</time>
      </trkpt>
      <trkpt lat="46.0259189" lon="7.0061166">
        <ele>2125.70</ele>
        <time>2019-09-09T13:23:21Z</time>
      </trkpt>
      <trkpt lat="46.0260271" lon="7.0061421">
        <ele>2123.15</ele>
        <time>2019-09-09T13:23:31Z</time>
      </trkpt>
      <trkpt lat="46.0261115" lon="7.0060956">
        <ele>2120.36</ele>
        <time>2019-09-09T13:23:37Z</time>
      </trkpt>
      <trkpt lat="46.0261798" lon="7.0059877">
        <ele>2120.30</ele>
        <time>2019-09-09T13:23:45Z</time>
      </trkpt>
      <trkpt lat="46.0262763" lon="7.0059667">
        <ele>2117.23</ele>
        <time>2019-09-09T13:23:59Z</time>
      </trkpt>
      <trkpt lat="46.0263378" lon="7.0058411">
        <ele>2117.97</ele>
        <time>2019-09-09T13:24:17Z</time>
      </trkpt>
      <trkpt lat="46.0263399" lon="7.0056966">
        <ele>2124.88</ele>
        <time>2019-09-09T13:24:35Z</time>
      </trkpt>
      <trkpt lat="46.0262718" lon="7.0056050">
        <ele>2125.64</ele>
        <time>2019-09-09T13:24:55Z</time>
      </trkpt>
      <trkpt lat="46.0263657" lon="7.0055292">
        <ele>2125.67</ele>
        <time>2019-09-09T13:25:13Z</time>
      </trkpt>
      <trkpt lat="46.0264564" lon="7.0054561">
        <ele>2123.01</ele>
        <time>2019-09-09T13:25:33Z</time>
      </trkpt>
      <trkpt lat="46.0265390" lon="7.0053725">
        <ele>2122.24</ele>
        <time>2019-09-09T13:25:45Z</time>
      </trkpt>
      <trkpt lat="46.0266098" lon="7.0052908">
        <ele>2122.64</ele>
        <time>2019-09-09T13:25:57Z</time>
      </trkpt>
      <trkpt lat="46.0267042" lon="7.0052720">
        <ele>2120.94</ele>
        <time>2019-09-09T13:26:11Z</time>
      </trkpt>
      <trkpt lat="46.0267767" lon="7.0051842">
        <ele>2122.00</ele>
        <time>2019-09-09T13:26:28Z</time>
      </trkpt>
      <trkpt lat="46.0268706" lon="7.0051721">
        <ele>2121.92</ele>
        <time>2019-09-09T13:26:40Z</time>
      </trkpt>
      <trkpt lat="46.0269398" lon="7.0050813">
        <ele>2121.71</ele>
        <time>2019-09-09T13:26:52Z</time>
      </trkpt>
      <trkpt lat="46.0270086" lon="7.0049947">
        <ele>2120.92</ele>
        <time>2019-09-09T13:27:04Z</time>
      </trkpt>
      <trkpt lat="46.0271047" lon="7.0049601">
        <ele>2119.24</ele>
        <time>2019-09-09T13:27:26Z</time>
      </trkpt>
      <trkpt lat="46.0272077" lon="7.0049015">
        <ele>2114.97</ele>
        <time>2019-09-09T13:28:30Z</time>
      </trkpt>
      <trkpt lat="46.0272511" lon="7.0047867">
        <ele>2115.24</ele>
        <time>2019-09-09T13:28:40Z</time>
      </trkpt>
      <trkpt lat="46.0273469" lon="7.0047444">
        <ele>2115.18</ele>
        <time>2019-09-09T13:28:56Z</time>
      </trkpt>
      <trkpt lat="46.0273913" lon="7.0046198">
        <ele>2115.03</ele>
        <time>2019-09-09T13:29:10Z</time>
      </trkpt>
      <trkpt lat="46.0274669" lon="7.0045457">
        <ele>2111.10</ele>
        <time>2019-09-09T13:29:42Z</time>
      </trkpt>
      <trkpt lat="46.0275314" lon="7.0044456">
        <ele>2109.25</ele>
        <time>2019-09-09T13:30:24Z</time>
      </trkpt>
      <trkpt lat="46.0275965" lon="7.0043349">
        <ele>2102.84</ele>
        <time>2019-09-09T13:30:40Z</time>
      </trkpt>
      <trkpt lat="46.0276968" lon="7.0043609">
        <ele>2092.73</ele>
        <time>2019-09-09T13:31:06Z</time>
      </trkpt>
      <trkpt lat="46.0277223" lon="7.0041979">
        <ele>2090.91</ele>
        <time>2019-09-09T13:31:18Z</time>
      </trkpt>
      <trkpt lat="46.0277399" lon="7.0040605">
        <ele>2088.25</ele>
        <time>2019-09-09T13:31:34Z</time>
      </trkpt>
      <trkpt lat="46.0277334" lon="7.0039165">
        <ele>2088.75</ele>
        <time>2019-09-09T13:31:42Z</time>
      </trkpt>
      <trkpt lat="46.0276916" lon="7.0037898">
        <ele>2084.43</ele>
        <time>2019-09-09T13:32:00Z</time>
      </trkpt>
      <trkpt lat="46.0276563" lon="7.0036552">
        <ele>2082.97</ele>
        <time>2019-09-09T13:32:10Z</time>
      </trkpt>
      <trkpt lat="46.0277163" lon="7.0035556">
        <ele>2082.94</ele>
        <time>2019-09-09T13:32:22Z</time>
      </trkpt>
      <trkpt lat="46.0277596" lon="7.0034355">
        <ele>2080.94</ele>
        <time>2019-09-09T13:32:40Z</time>
      </trkpt>
      <trkpt lat="46.0277738" lon="7.0032793">
        <ele>2079.25</ele>
        <time>2019-09-09T13:32:48Z</time>
      </trkpt>
      <trkpt lat="46.0277593" lon="7.0031328">
        <ele>2077.89</ele>
        <time>2019-09-09T13:32:58Z</time>
      </trkpt>
      <trkpt lat="46.0276800" lon="7.0030602">
        <ele>2078.26</ele>
        <time>2019-09-09T13:33:10Z</time>
      </trkpt>
      <trkpt lat="46.0276243" lon="7.0029332">
        <ele>2078.64</ele>
        <time>2019-09-09T13:33:26Z</time>
      </trkpt>
      <trkpt lat="46.0275876" lon="7.0028092">
        <ele>2081.06</ele>
        <time>2019-09-09T13:33:36Z</time>
      </trkpt>
      <trkpt lat="46.0276748" lon="7.0027322">
        <ele>2078.26</ele>
        <time>2019-09-09T13:33:58Z</time>
      </trkpt>
      <trkpt lat="46.0276793" lon="7.0025823">
        <ele>2078.15</ele>
        <time>2019-09-09T13:34:17Z</time>
      </trkpt>
      <trkpt lat="46.0277036" lon="7.0024199">
        <ele>2077.57</ele>
        <time>2019-09-09T13:34:25Z</time>
      </trkpt>
      <trkpt lat="46.0276092" lon="7.0023826">
        <ele>2081.33</ele>
        <time>2019-09-09T13:36:21Z</time>
      </trkpt>
      <trkpt lat="46.0275298" lon="7.0022872">
        <ele>2080.24</ele>
        <time>2019-09-09T13:36:37Z</time>
      </trkpt>
      <trkpt lat="46.0274884" lon="7.0021696">
        <ele>2078.03</ele>
        <time>2019-09-09T13:36:51Z</time>
      </trkpt>
      <trkpt lat="46.0274303" lon="7.0020566">
        <ele>2077.36</ele>
        <time>2019-09-09T13:37:13Z</time>
      </trkpt>
      <trkpt lat="46.0273577" lon="7.0019270">
        <ele>2075.61</ele>
        <time>2019-09-09T13:37:23Z</time>
      </trkpt>
      <trkpt lat="46.0273799" lon="7.0017578">
        <ele>2071.96</ele>
        <time>2019-09-09T13:37:38Z</time>
      </trkpt>
      <trkpt lat="46.0274162" lon="7.0016241">
        <ele>2073.54</ele>
        <time>2019-09-09T13:37:52Z</time>
      </trkpt>
      <trkpt lat="46.0273772" lon="7.0014970">
        <ele>2073.32</ele>
        <time>2019-09-09T13:38:04Z</time>
      </trkpt>
      <trkpt lat="46.0273676" lon="7.0013539">
        <ele>2073.56</ele>
        <time>2019-09-09T13:38:14Z</time>
      </trkpt>
      <trkpt lat="46.0273483" lon="7.0012264">
        <ele>2074.85</ele>
        <time>2019-09-09T13:38:28Z</time>
      </trkpt>
      <trkpt lat="46.0273146" lon="7.0010826">
        <ele>2075.00</ele>
        <time>2019-09-09T13:38:46Z</time>
      </trkpt>
      <trkpt lat="46.0272733" lon="7.0009559">
        <ele>2075.92</ele>
        <time>2019-09-09T13:39:00Z</time>
      </trkpt>
      <trkpt lat="46.0272289" lon="7.0008221">
        <ele>2075.16</ele>
        <time>2019-09-09T13:39:12Z</time>
      </trkpt>
      <trkpt lat="46.0271736" lon="7.0007166">
        <ele>2075.94</ele>
        <time>2019-09-09T13:39:34Z</time>
      </trkpt>
      <trkpt lat="46.0271636" lon="7.0005688">
        <ele>2079.91</ele>
        <time>2019-09-09T13:39:58Z</time>
      </trkpt>
      <trkpt lat="46.0271078" lon="7.0004643">
        <ele>2080.00</ele>
        <time>2019-09-09T13:40:24Z</time>
      </trkpt>
      <trkpt lat="46.0271554" lon="7.0003440">
        <ele>2083.90</ele>
        <time>2019-09-09T13:40:42Z</time>
      </trkpt>
      <trkpt lat="46.0271322" lon="7.0001954">
        <ele>2084.24</ele>
        <time>2019-09-09T13:40:58Z</time>
      </trkpt>
      <trkpt lat="46.0271520" lon="7.0000553">
        <ele>2086.85</ele>
        <time>2019-09-09T13:41:12Z</time>
      </trkpt>
      <trkpt lat="46.0271633" lon="6.9999191">
        <ele>2086.94</ele>
        <time>2019-09-09T13:41:32Z</time>
      </trkpt>
      <trkpt lat="46.0272103" lon="6.9998078">
        <ele>2090.82</ele>
        <time>2019-09-09T13:41:50Z</time>
      </trkpt>
      <trkpt lat="46.0272424" lon="6.9996852">
        <ele>2090.94</ele>
        <time>2019-09-09T13:42:02Z</time>
      </trkpt>
      <trkpt lat="46.0272921" lon="6.9995577">
        <ele>2090.92</ele>
        <time>2019-09-09T13:42:18Z</time>
      </trkpt>
      <trkpt lat="46.0273275" lon="6.9994160">
        <ele>2090.94</ele>
        <time>2019-09-09T13:42:32Z</time>
      </trkpt>
      <trkpt lat="46.0273565" lon="6.9992871">
        <ele>2092.93</ele>
        <time>2019-09-09T13:42:46Z</time>
      </trkpt>
      <trkpt lat="46.0274198" lon="6.9991845">
        <ele>2093.92</ele>
        <time>2019-09-09T13:43:00Z</time>
      </trkpt>
      <trkpt lat="46.0274709" lon="6.9990744">
        <ele>2095.63</ele>
        <time>2019-09-09T13:43:14Z</time>
      </trkpt>
      <trkpt lat="46.0275205" lon="6.9989619">
        <ele>2096.92</ele>
        <time>2019-09-09T13:43:28Z</time>
      </trkpt>
      <trkpt lat="46.0275391" lon="6.9988323">
        <ele>2097.64</ele>
        <time>2019-09-09T13:43:40Z</time>
      </trkpt>
      <trkpt lat="46.0275291" lon="6.9986935">
        <ele>2098.94</ele>
        <time>2019-09-09T13:43:54Z</time>
      </trkpt>
      <trkpt lat="46.0275402" lon="6.9985460">
        <ele>2098.13</ele>
        <time>2019-09-09T13:44:20Z</time>
      </trkpt>
      <trkpt lat="46.0276114" lon="6.9984461">
        <ele>2102.13</ele>
        <time>2019-09-09T13:44:44Z</time>
      </trkpt>
      <trkpt lat="46.0277027" lon="6.9984251">
        <ele>2097.98</ele>
        <time>2019-09-09T13:45:00Z</time>
      </trkpt>
      <trkpt lat="46.0277699" lon="6.9983208">
        <ele>2098.55</ele>
        <time>2019-09-09T13:45:12Z</time>
      </trkpt>
      <trkpt lat="46.0277619" lon="6.9981788">
        <ele>2093.84</ele>
        <time>2019-09-09T13:45:32Z</time>
      </trkpt>
      <trkpt lat="46.0278044" lon="6.9980568">
        <ele>2096.56</ele>
        <time>2019-09-09T13:45:46Z</time>
      </trkpt>
      <trkpt lat="46.0278789" lon="6.9979590">
        <ele>2096.93</ele>
        <time>2019-09-09T13:46:02Z</time>
      </trkpt>
      <trkpt lat="46.0279588" lon="6.9978673">
        <ele>2096.24</ele>
        <time>2019-09-09T13:46:16Z</time>
      </trkpt>
      <trkpt lat="46.0280476" lon="6.9978189">
        <ele>2096.94</ele>
        <time>2019-09-09T13:46:32Z</time>
      </trkpt>
      <trkpt lat="46.0281172" lon="6.9977200">
        <ele>2096.94</ele>
        <time>2019-09-09T13:46:46Z</time>
      </trkpt>
      <trkpt lat="46.0281837" lon="6.9976137">
        <ele>2095.97</ele>
        <time>2019-09-09T13:46:58Z</time>
      </trkpt>
      <trkpt lat="46.0282468" lon="6.9975156">
        <ele>2094.85</ele>
        <time>2019-09-09T13:48:20Z</time>
      </trkpt>
      <trkpt lat="46.0282821" lon="6.9973742">
        <ele>2096.03</ele>
        <time>2019-09-09T13:48:34Z</time>
      </trkpt>
      <trkpt lat="46.0283330" lon="6.9972539">
        <ele>2094.97</ele>
        <time>2019-09-09T13:48:44Z</time>
      </trkpt>
      <trkpt lat="46.0284174" lon="6.9971858">
        <ele>2092.25</ele>
        <time>2019-09-09T13:48:56Z</time>
      </trkpt>
      <trkpt lat="46.0284737" lon="6.9970604">
        <ele>2090.75</ele>
        <time>2019-09-09T13:49:04Z</time>
      </trkpt>
      <trkpt lat="46.0285087" lon="6.9969384">
        <ele>2091.87</ele>
        <time>2019-09-09T13:49:12Z</time>
      </trkpt>
      <trkpt lat="46.0285646" lon="6.9968350">
        <ele>2090.90</ele>
        <time>2019-09-09T13:49:22Z</time>
      </trkpt>
      <trkpt lat="46.0286262" lon="6.9967351">
        <ele>2089.06</ele>
        <time>2019-09-09T13:49:32Z</time>
      </trkpt>
      <trkpt lat="46.0286467" lon="6.9966072">
        <ele>2091.89</ele>
        <time>2019-09-09T13:49:42Z</time>
      </trkpt>
      <trkpt lat="46.0286675" lon="6.9964781">
        <ele>2094.76</ele>
        <time>2019-09-09T13:49:54Z</time>
      </trkpt>
      <trkpt lat="46.0286499" lon="6.9963292">
        <ele>2090.82</ele>
        <time>2019-09-09T13:50:04Z</time>
      </trkpt>
      <trkpt lat="46.0287239" lon="6.9962420">
        <ele>2093.19</ele>
        <time>2019-09-09T13:50:14Z</time>
      </trkpt>
      <trkpt lat="46.0288254" lon="6.9961942">
        <ele>2091.24</ele>
        <time>2019-09-09T13:50:44Z</time>
      </trkpt>
      <trkpt lat="46.0289107" lon="6.9961428">
        <ele>2089.06</ele>
        <time>2019-09-09T13:50:58Z</time>
      </trkpt>
      <trkpt lat="46.0290039" lon="6.9960945">
        <ele>2087.25</ele>
        <time>2019-09-09T13:51:10Z</time>
      </trkpt>
      <trkpt lat="46.0290953" lon="6.9960202">
        <ele>2085.97</ele>
        <time>2019-09-09T13:51:20Z</time>
      </trkpt>
      <trkpt lat="46.0292026" lon="6.9960253">
        <ele>2082.70</ele>
        <time>2019-09-09T13:51:30Z</time>
      </trkpt>
      <trkpt lat="46.0292915" lon="6.9959744">
        <ele>2081.19</ele>
        <time>2019-09-09T13:51:42Z</time>
      </trkpt>
      <trkpt lat="46.0293752" lon="6.9960381">
        <ele>2074.09</ele>
        <time>2019-09-09T13:51:52Z</time>
      </trkpt>
      <trkpt lat="46.0294733" lon="6.9961279">
        <ele>2078.50</ele>
        <time>2019-09-09T13:52:10Z</time>
      </trkpt>
      <trkpt lat="46.0295588" lon="6.9960532">
        <ele>2078.60</ele>
        <time>2019-09-09T13:52:20Z</time>
      </trkpt>
      <trkpt lat="46.0295903" lon="6.9959261">
        <ele>2081.48</ele>
        <time>2019-09-09T13:52:32Z</time>
      </trkpt>
      <trkpt lat="46.0296129" lon="6.9957958">
        <ele>2084.63</ele>
        <time>2019-09-09T13:52:42Z</time>
      </trkpt>
      <trkpt lat="46.0296235" lon="6.9956485">
        <ele>2084.94</ele>
        <time>2019-09-09T13:52:56Z</time>
      </trkpt>
      <trkpt lat="46.0296718" lon="6.9955294">
        <ele>2087.91</ele>
        <time>2019-09-09T13:53:08Z</time>
      </trkpt>
      <trkpt lat="46.0297144" lon="6.9954017">
        <ele>2089.88</ele>
        <time>2019-09-09T13:53:50Z</time>
      </trkpt>
      <trkpt lat="46.0297587" lon="6.9952683">
        <ele>2088.04</ele>
        <time>2019-09-09T13:54:02Z</time>
      </trkpt>
      <trkpt lat="46.0298142" lon="6.9951539">
        <ele>2087.10</ele>
        <time>2019-09-09T13:54:10Z</time>
      </trkpt>
      <trkpt lat="46.0298643" lon="6.9950161">
        <ele>2085.76</ele>
        <time>2019-09-09T13:54:22Z</time>
      </trkpt>
      <trkpt lat="46.0299220" lon="6.9949103">
        <ele>2081.44</ele>
        <time>2019-09-09T13:54:30Z</time>
      </trkpt>
      <trkpt lat="46.0299692" lon="6.9947619">
        <ele>2079.95</ele>
        <time>2019-09-09T13:54:38Z</time>
      </trkpt>
      <trkpt lat="46.0300011" lon="6.9946103">
        <ele>2077.70</ele>
        <time>2019-09-09T13:54:46Z</time>
      </trkpt>
      <trkpt lat="46.0299966" lon="6.9944556">
        <ele>2075.69</ele>
        <time>2019-09-09T13:54:54Z</time>
      </trkpt>
      <trkpt lat="46.0300025" lon="6.9942992">
        <ele>2077.06</ele>
        <time>2019-09-09T13:55:02Z</time>
      </trkpt>
      <trkpt lat="46.0300435" lon="6.9941777">
        <ele>2081.14</ele>
        <time>2019-09-09T13:55:08Z</time>
      </trkpt>
      <trkpt lat="46.0300700" lon="6.9940489">
        <ele>2083.20</ele>
        <time>2019-09-09T13:55:18Z</time>
      </trkpt>
      <trkpt lat="46.0301304" lon="6.9939166">
        <ele>2083.18</ele>
        <time>2019-09-09T13:55:28Z</time>
      </trkpt>
      <trkpt lat="46.0301804" lon="6.9937974">
        <ele>2085.53</ele>
        <time>2019-09-09T13:55:36Z</time>
      </trkpt>
      <trkpt lat="46.0302401" lon="6.9936989">
        <ele>2084.73</ele>
        <time>2019-09-09T13:55:46Z</time>
      </trkpt>
      <trkpt lat="46.0303035" lon="6.9935843">
        <ele>2087.50</ele>
        <time>2019-09-09T13:55:54Z</time>
      </trkpt>
      <trkpt lat="46.0303863" lon="6.9935062">
        <ele>2086.06</ele>
        <time>2019-09-09T13:56:02Z</time>
      </trkpt>
      <trkpt lat="46.0304725" lon="6.9934011">
        <ele>2083.65</ele>
        <time>2019-09-09T13:56:10Z</time>
      </trkpt>
      <trkpt lat="46.0305299" lon="6.9932801">
        <ele>2080.18</ele>
        <time>2019-09-09T13:56:22Z</time>
      </trkpt>
      <trkpt lat="46.0305768" lon="6.9931631">
        <ele>2078.33</ele>
        <time>2019-09-09T13:56:30Z</time>
      </trkpt>
      <trkpt lat="46.0306593" lon="6.9930874">
        <ele>2072.68</ele>
        <time>2019-09-09T13:56:38Z</time>
      </trkpt>
      <trkpt lat="46.0307396" lon="6.9930063">
        <ele>2069.54</ele>
        <time>2019-09-09T13:56:46Z</time>
      </trkpt>
      <trkpt lat="46.0308322" lon="6.9929374">
        <ele>2070.05</ele>
        <time>2019-09-09T13:56:54Z</time>
      </trkpt>
      <trkpt lat="46.0308987" lon="6.9928400">
        <ele>2070.53</ele>
        <time>2019-09-09T13:57:10Z</time>
      </trkpt>
      <trkpt lat="46.0309795" lon="6.9927763">
        <ele>2070.58</ele>
        <time>2019-09-09T13:57:18Z</time>
      </trkpt>
      <trkpt lat="46.0310416" lon="6.9926727">
        <ele>2069.42</ele>
        <time>2019-09-09T13:57:30Z</time>
      </trkpt>
      <trkpt lat="46.0311371" lon="6.9926422">
        <ele>2064.80</ele>
        <time>2019-09-09T13:58:00Z</time>
      </trkpt>
      <trkpt lat="46.0312354" lon="6.9926049">
        <ele>2066.33</ele>
        <time>2019-09-09T13:58:40Z</time>
      </trkpt>
      <trkpt lat="46.0313414" lon="6.9925855">
        <ele>2062.97</ele>
        <time>2019-09-09T13:58:50Z</time>
      </trkpt>
      <trkpt lat="46.0314412" lon="6.9926410">
        <ele>2061.97</ele>
        <time>2019-09-09T13:59:02Z</time>
      </trkpt>
      <trkpt lat="46.0315376" lon="6.9926420">
        <ele>2062.87</ele>
        <time>2019-09-09T13:59:14Z</time>
      </trkpt>
      <trkpt lat="46.0316411" lon="6.9926480">
        <ele>2061.94</ele>
        <time>2019-09-09T13:59:28Z</time>
      </trkpt>
      <trkpt lat="46.0317490" lon="6.9926302">
        <ele>2061.59</ele>
        <time>2019-09-09T13:59:36Z</time>
      </trkpt>
      <trkpt lat="46.0318128" lon="6.9925125">
        <ele>2065.76</ele>
        <time>2019-09-09T13:59:46Z</time>
      </trkpt>
      <trkpt lat="46.0318076" lon="6.9923802">
        <ele>2066.96</ele>
        <time>2019-09-09T14:00:04Z</time>
      </trkpt>
      <trkpt lat="46.0318150" lon="6.9922467">
        <ele>2068.64</ele>
        <time>2019-09-09T14:00:14Z</time>
      </trkpt>
      <trkpt lat="46.0317959" lon="6.9921016">
        <ele>2067.24</ele>
        <time>2019-09-09T14:00:26Z</time>
      </trkpt>
      <trkpt lat="46.0317373" lon="6.9919715">
        <ele>2063.56</ele>
        <time>2019-09-09T14:00:38Z</time>
      </trkpt>
      <trkpt lat="46.0317097" lon="6.9918354">
        <ele>2062.60</ele>
        <time>2019-09-09T14:00:46Z</time>
      </trkpt>
      <trkpt lat="46.0316723" lon="6.9917174">
        <ele>2060.98</ele>
        <time>2019-09-09T14:00:56Z</time>
      </trkpt>
      <trkpt lat="46.0316352" lon="6.9915916">
        <ele>2062.27</ele>
        <time>2019-09-09T14:01:06Z</time>
      </trkpt>
      <trkpt lat="46.0315768" lon="6.9914845">
        <ele>2063.57</ele>
        <time>2019-09-09T14:01:16Z</time>
      </trkpt>
      <trkpt lat="46.0315365" lon="6.9913461">
        <ele>2065.94</ele>
        <time>2019-09-09T14:01:34Z</time>
      </trkpt>
      <trkpt lat="46.0315206" lon="6.9911968">
        <ele>2069.52</ele>
        <time>2019-09-09T14:01:48Z</time>
      </trkpt>
      <trkpt lat="46.0314970" lon="6.9910655">
        <ele>2069.24</ele>
        <time>2019-09-09T14:02:00Z</time>
      </trkpt>
      <trkpt lat="46.0315375" lon="6.9909461">
        <ele>2069.93</ele>
        <time>2019-09-09T14:02:14Z</time>
      </trkpt>
      <trkpt lat="46.0315454" lon="6.9908155">
        <ele>2071.15</ele>
        <time>2019-09-09T14:02:28Z</time>
      </trkpt>
      <trkpt lat="46.0315063" lon="6.9906968">
        <ele>2070.24</ele>
        <time>2019-09-09T14:02:38Z</time>
      </trkpt>
      <trkpt lat="46.0314664" lon="6.9905666">
        <ele>2068.97</ele>
        <time>2019-09-09T14:02:46Z</time>
      </trkpt>
      <trkpt lat="46.0314270" lon="6.9904201">
        <ele>2069.64</ele>
        <time>2019-09-09T14:02:58Z</time>
      </trkpt>
      <trkpt lat="46.0313533" lon="6.9903070">
        <ele>2068.97</ele>
        <time>2019-09-09T14:03:10Z</time>
      </trkpt>
      <trkpt lat="46.0312878" lon="6.9902109">
        <ele>2066.25</ele>
        <time>2019-09-09T14:03:20Z</time>
      </trkpt>
      <trkpt lat="46.0312418" lon="6.9900820">
        <ele>2069.61</ele>
        <time>2019-09-09T14:03:36Z</time>
      </trkpt>
      <trkpt lat="46.0312346" lon="6.9899472">
        <ele>2068.97</ele>
        <time>2019-09-09T14:03:50Z</time>
      </trkpt>
      <trkpt lat="46.0312059" lon="6.9898109">
        <ele>2071.02</ele>
        <time>2019-09-09T14:04:02Z</time>
      </trkpt>
      <trkpt lat="46.0311850" lon="6.9896640">
        <ele>2073.55</ele>
        <time>2019-09-09T14:04:16Z</time>
      </trkpt>
      <trkpt lat="46.0311396" lon="6.9895474">
        <ele>2076.52</ele>
        <time>2019-09-09T14:04:34Z</time>
      </trkpt>
      <trkpt lat="46.0311035" lon="6.9894047">
        <ele>2078.62</ele>
        <time>2019-09-09T14:04:52Z</time>
      </trkpt>
      <trkpt lat="46.0311183" lon="6.9892743">
        <ele>2080.94</ele>
        <time>2019-09-09T14:05:12Z</time>
      </trkpt>
      <trkpt lat="46.0311202" lon="6.9891282">
        <ele>2083.61</ele>
        <time>2019-09-09T14:05:34Z</time>
      </trkpt>
      <trkpt lat="46.0310600" lon="6.9890231">
        <ele>2082.95</ele>
        <time>2019-09-09T14:05:44Z</time>
      </trkpt>
      <trkpt lat="46.0309813" lon="6.9889483">
        <ele>2082.94</ele>
        <time>2019-09-09T14:06:00Z</time>
      </trkpt>
      <trkpt lat="46.0308957" lon="6.9888681">
        <ele>2082.15</ele>
        <time>2019-09-09T14:06:12Z</time>
      </trkpt>
      <trkpt lat="46.0308212" lon="6.9887815">
        <ele>2082.93</ele>
        <time>2019-09-09T14:06:24Z</time>
      </trkpt>
      <trkpt lat="46.0307484" lon="6.9886907">
        <ele>2083.85</ele>
        <time>2019-09-09T14:06:38Z</time>
      </trkpt>
      <trkpt lat="46.0306640" lon="6.9886143">
        <ele>2084.85</ele>
        <time>2019-09-09T14:06:50Z</time>
      </trkpt>
      <trkpt lat="46.0306006" lon="6.9885199">
        <ele>2085.85</ele>
        <time>2019-09-09T14:07:06Z</time>
      </trkpt>
      <trkpt lat="46.0305127" lon="6.9884441">
        <ele>2086.85</ele>
        <time>2019-09-09T14:07:20Z</time>
      </trkpt>
      <trkpt lat="46.0304256" lon="6.9883644">
        <ele>2086.88</ele>
        <time>2019-09-09T14:07:30Z</time>
      </trkpt>
      <trkpt lat="46.0303499" lon="6.9882933">
        <ele>2087.03</ele>
        <time>2019-09-09T14:07:44Z</time>
      </trkpt>
      <trkpt lat="46.0302762" lon="6.9881748">
        <ele>2088.24</ele>
        <time>2019-09-09T14:08:00Z</time>
      </trkpt>
      <trkpt lat="46.0302107" lon="6.9880522">
        <ele>2088.03</ele>
        <time>2019-09-09T14:08:10Z</time>
      </trkpt>
      <trkpt lat="46.0301728" lon="6.9879069">
        <ele>2089.93</ele>
        <time>2019-09-09T14:08:24Z</time>
      </trkpt>
      <trkpt lat="46.0301156" lon="6.9878001">
        <ele>2090.94</ele>
        <time>2019-09-09T14:08:36Z</time>
      </trkpt>
      <trkpt lat="46.0300842" lon="6.9876648">
        <ele>2091.73</ele>
        <time>2019-09-09T14:08:56Z</time>
      </trkpt>
      <trkpt lat="46.0300202" lon="6.9875522">
        <ele>2095.54</ele>
        <time>2019-09-09T14:09:14Z</time>
      </trkpt>
      <trkpt lat="46.0299728" lon="6.9874272">
        <ele>2099.91</ele>
        <time>2019-09-09T14:09:28Z</time>
      </trkpt>
      <trkpt lat="46.0299077" lon="6.9873340">
        <ele>2100.58</ele>
        <time>2019-09-09T14:09:40Z</time>
      </trkpt>
      <trkpt lat="46.0298524" lon="6.9872013">
        <ele>2101.93</ele>
        <time>2019-09-09T14:09:56Z</time>
      </trkpt>
      <trkpt lat="46.0297986" lon="6.9870785">
        <ele>2101.94</ele>
        <time>2019-09-09T14:10:06Z</time>
      </trkpt>
      <trkpt lat="46.0297486" lon="6.9869544">
        <ele>2103.57</ele>
        <time>2019-09-09T14:10:50Z</time>
      </trkpt>
      <trkpt lat="46.0296854" lon="6.9868425">
        <ele>2103.95</ele>
        <time>2019-09-09T14:11:00Z</time>
      </trkpt>
      <trkpt lat="46.0295946" lon="6.9867681">
        <ele>2103.92</ele>
        <time>2019-09-09T14:11:10Z</time>
      </trkpt>
      <trkpt lat="46.0294950" lon="6.9867258">
        <ele>2104.92</ele>
        <time>2019-09-09T14:11:22Z</time>
      </trkpt>
      <trkpt lat="46.0294196" lon="6.9866130">
        <ele>2104.94</ele>
        <time>2019-09-09T14:11:32Z</time>
      </trkpt>
      <trkpt lat="46.0293373" lon="6.9865071">
        <ele>2104.94</ele>
        <time>2019-09-09T14:11:42Z</time>
      </trkpt>
      <trkpt lat="46.0292803" lon="6.9863960">
        <ele>2106.63</ele>
        <time>2019-09-09T14:11:52Z</time>
      </trkpt>
      <trkpt lat="46.0292648" lon="6.9862672">
        <ele>2105.95</ele>
        <time>2019-09-09T14:12:02Z</time>
      </trkpt>
      <trkpt lat="46.0292250" lon="6.9861403">
        <ele>2111.19</ele>
        <time>2019-09-09T14:12:10Z</time>
      </trkpt>
      <trkpt lat="46.0291781" lon="6.9860272">
        <ele>2110.94</ele>
        <time>2019-09-09T14:12:20Z</time>
      </trkpt>
      <trkpt lat="46.0291184" lon="6.9859225">
        <ele>2111.94</ele>
        <time>2019-09-09T14:12:32Z</time>
      </trkpt>
      <trkpt lat="46.0290689" lon="6.9857830">
        <ele>2113.93</ele>
        <time>2019-09-09T14:12:44Z</time>
      </trkpt>
      <trkpt lat="46.0290232" lon="6.9856677">
        <ele>2113.94</ele>
        <time>2019-09-09T14:12:54Z</time>
      </trkpt>
      <trkpt lat="46.0289892" lon="6.9855177">
        <ele>2115.63</ele>
        <time>2019-09-09T14:13:04Z</time>
      </trkpt>
      <trkpt lat="46.0289369" lon="6.9854044">
        <ele>2115.94</ele>
        <time>2019-09-09T14:13:16Z</time>
      </trkpt>
      <trkpt lat="46.0289005" lon="6.9852718">
        <ele>2116.93</ele>
        <time>2019-09-09T14:13:26Z</time>
      </trkpt>
      <trkpt lat="46.0288237" lon="6.9851671">
        <ele>2115.97</ele>
        <time>2019-09-09T14:13:36Z</time>
      </trkpt>
      <trkpt lat="46.0287517" lon="6.9850835">
        <ele>2115.94</ele>
        <time>2019-09-09T14:13:46Z</time>
      </trkpt>
      <trkpt lat="46.0286739" lon="6.9849785">
        <ele>2116.02</ele>
        <time>2019-09-09T14:13:56Z</time>
      </trkpt>
      <trkpt lat="46.0286174" lon="6.9848605">
        <ele>2116.85</ele>
        <time>2019-09-09T14:14:04Z</time>
      </trkpt>
      <trkpt lat="46.0285905" lon="6.9847218">
        <ele>2115.95</ele>
        <time>2019-09-09T14:14:18Z</time>
      </trkpt>
      <trkpt lat="46.0285422" lon="6.9845986">
        <ele>2116.64</ele>
        <time>2019-09-09T14:14:30Z</time>
      </trkpt>
      <trkpt lat="46.0285180" lon="6.9844353">
        <ele>2117.70</ele>
        <time>2019-09-09T14:14:42Z</time>
      </trkpt>
      <trkpt lat="46.0284684" lon="6.9843165">
        <ele>2117.64</ele>
        <time>2019-09-09T14:14:54Z</time>
      </trkpt>
      <trkpt lat="46.0284239" lon="6.9841956">
        <ele>2118.85</ele>
        <time>2019-09-09T14:15:04Z</time>
      </trkpt>
      <trkpt lat="46.0283900" lon="6.9840645">
        <ele>2118.00</ele>
        <time>2019-09-09T14:15:28Z</time>
      </trkpt>
      <trkpt lat="46.0283139" lon="6.9839733">
        <ele>2116.04</ele>
        <time>2019-09-09T14:15:40Z</time>
      </trkpt>
      <trkpt lat="46.0282444" lon="6.9838756">
        <ele>2116.24</ele>
        <time>2019-09-09T14:15:50Z</time>
      </trkpt>
      <trkpt lat="46.0281598" lon="6.9837917">
        <ele>2116.94</ele>
        <time>2019-09-09T14:16:02Z</time>
      </trkpt>
      <trkpt lat="46.0281377" lon="6.9836624">
        <ele>2117.92</ele>
        <time>2019-09-09T14:16:10Z</time>
      </trkpt>
      <trkpt lat="46.0281022" lon="6.9835247">
        <ele>2116.88</ele>
        <time>2019-09-09T14:16:24Z</time>
      </trkpt>
      <trkpt lat="46.0280718" lon="6.9834006">
        <ele>2116.86</ele>
        <time>2019-09-09T14:16:38Z</time>
      </trkpt>
      <trkpt lat="46.0280522" lon="6.9832695">
        <ele>2112.18</ele>
        <time>2019-09-09T14:16:48Z</time>
      </trkpt>
      <trkpt lat="46.0280223" lon="6.9831233">
        <ele>2110.37</ele>
        <time>2019-09-09T14:17:02Z</time>
      </trkpt>
      <trkpt lat="46.0280186" lon="6.9829890">
        <ele>2116.81</ele>
        <time>2019-09-09T14:17:14Z</time>
      </trkpt>
      <trkpt lat="46.0279935" lon="6.9828441">
        <ele>2113.75</ele>
        <time>2019-09-09T14:17:24Z</time>
      </trkpt>
      <trkpt lat="46.0279873" lon="6.9827066">
        <ele>2114.94</ele>
        <time>2019-09-09T14:17:36Z</time>
      </trkpt>
      <trkpt lat="46.0279892" lon="6.9825561">
        <ele>2115.85</ele>
        <time>2019-09-09T14:17:46Z</time>
      </trkpt>
      <trkpt lat="46.0279785" lon="6.9824092">
        <ele>2114.73</ele>
        <time>2019-09-09T14:17:58Z</time>
      </trkpt>
      <trkpt lat="46.0279785" lon="6.9822683">
        <ele>2115.64</ele>
        <time>2019-09-09T14:18:08Z</time>
      </trkpt>
      <trkpt lat="46.0279918" lon="6.9821358">
        <ele>2115.94</ele>
        <time>2019-09-09T14:18:18Z</time>
      </trkpt>
      <trkpt lat="46.0279918" lon="6.9819812">
        <ele>2114.94</ele>
        <time>2019-09-09T14:18:30Z</time>
      </trkpt>
      <trkpt lat="46.0279804" lon="6.9818466">
        <ele>2114.03</ele>
        <time>2019-09-09T14:18:40Z</time>
      </trkpt>
      <trkpt lat="46.0280030" lon="6.9816960">
        <ele>2113.94</ele>
        <time>2019-09-09T14:18:50Z</time>
      </trkpt>
      <trkpt lat="46.0279930" lon="6.9815523">
        <ele>2111.95</ele>
        <time>2019-09-09T14:19:04Z</time>
      </trkpt>
      <trkpt lat="46.0280293" lon="6.9814098">
        <ele>2113.34</ele>
        <time>2019-09-09T14:19:12Z</time>
      </trkpt>
      <trkpt lat="46.0280367" lon="6.9812686">
        <ele>2112.64</ele>
        <time>2019-09-09T14:19:24Z</time>
      </trkpt>
      <trkpt lat="46.0280749" lon="6.9811253">
        <ele>2113.93</ele>
        <time>2019-09-09T14:19:36Z</time>
      </trkpt>
      <trkpt lat="46.0280860" lon="6.9809806">
        <ele>2115.64</ele>
        <time>2019-09-09T14:19:48Z</time>
      </trkpt>
      <trkpt lat="46.0280823" lon="6.9808424">
        <ele>2115.94</ele>
        <time>2019-09-09T14:19:58Z</time>
      </trkpt>
      <trkpt lat="46.0280938" lon="6.9807131">
        <ele>2118.93</ele>
        <time>2019-09-09T14:20:12Z</time>
      </trkpt>
      <trkpt lat="46.0280983" lon="6.9805556">
        <ele>2120.55</ele>
        <time>2019-09-09T14:20:26Z</time>
      </trkpt>
      <trkpt lat="46.0281313" lon="6.9804231">
        <ele>2120.93</ele>
        <time>2019-09-09T14:20:40Z</time>
      </trkpt>
      <trkpt lat="46.0280968" lon="6.9802955">
        <ele>2121.94</ele>
        <time>2019-09-09T14:20:54Z</time>
      </trkpt>
      <trkpt lat="46.0280310" lon="6.9801822">
        <ele>2122.94</ele>
        <time>2019-09-09T14:21:12Z</time>
      </trkpt>
      <trkpt lat="46.0279487" lon="6.9800976">
        <ele>2121.94</ele>
        <time>2019-09-09T14:21:24Z</time>
      </trkpt>
      <trkpt lat="46.0278657" lon="6.9799912">
        <ele>2122.64</ele>
        <time>2019-09-09T14:21:36Z</time>
      </trkpt>
      <trkpt lat="46.0278067" lon="6.9798901">
        <ele>2122.24</ele>
        <time>2019-09-09T14:21:46Z</time>
      </trkpt>
      <trkpt lat="46.0277395" lon="6.9798008">
        <ele>2121.94</ele>
        <time>2019-09-09T14:21:56Z</time>
      </trkpt>
      <trkpt lat="46.0276776" lon="6.9797047">
        <ele>2121.18</ele>
        <time>2019-09-09T14:22:06Z</time>
      </trkpt>
      <trkpt lat="46.0276313" lon="6.9795857">
        <ele>2121.94</ele>
        <time>2019-09-09T14:22:16Z</time>
      </trkpt>
      <trkpt lat="46.0275855" lon="6.9794673">
        <ele>2121.94</ele>
        <time>2019-09-09T14:22:26Z</time>
      </trkpt>
      <trkpt lat="46.0275276" lon="6.9793457">
        <ele>2122.71</ele>
        <time>2019-09-09T14:22:36Z</time>
      </trkpt>
      <trkpt lat="46.0274417" lon="6.9792766">
        <ele>2123.92</ele>
        <time>2019-09-09T14:22:54Z</time>
      </trkpt>
      <trkpt lat="46.0273982" lon="6.9791513">
        <ele>2122.31</ele>
        <time>2019-09-09T14:23:10Z</time>
      </trkpt>
      <trkpt lat="46.0273365" lon="6.9790185">
        <ele>2124.85</ele>
        <time>2019-09-09T14:23:22Z</time>
      </trkpt>
      <trkpt lat="46.0272763" lon="6.9788982">
        <ele>2129.33</ele>
        <time>2019-09-09T14:23:36Z</time>
      </trkpt>
      <trkpt lat="46.0273091" lon="6.9787615">
        <ele>2129.94</ele>
        <time>2019-09-09T14:23:52Z</time>
      </trkpt>
      <trkpt lat="46.0272809" lon="6.9786328">
        <ele>2135.63</ele>
        <time>2019-09-09T14:24:16Z</time>
      </trkpt>
      <trkpt lat="46.0272248" lon="6.9785050">
        <ele>2135.94</ele>
        <time>2019-09-09T14:24:30Z</time>
      </trkpt>
      <trkpt lat="46.0272009" lon="6.9783703">
        <ele>2135.94</ele>
        <time>2019-09-09T14:24:38Z</time>
      </trkpt>
      <trkpt lat="46.0271801" lon="6.9782299">
        <ele>2136.64</ele>
        <time>2019-09-09T14:24:48Z</time>
      </trkpt>
      <trkpt lat="46.0271286" lon="6.9780987">
        <ele>2137.85</ele>
        <time>2019-09-09T14:24:58Z</time>
      </trkpt>
      <trkpt lat="46.0270958" lon="6.9779612">
        <ele>2138.70</ele>
        <time>2019-09-09T14:25:08Z</time>
      </trkpt>
      <trkpt lat="46.0270671" lon="6.9778194">
        <ele>2140.62</ele>
        <time>2019-09-09T14:25:22Z</time>
      </trkpt>
      <trkpt lat="46.0270647" lon="6.9776746">
        <ele>2143.82</ele>
        <time>2019-09-09T14:25:34Z</time>
      </trkpt>
      <trkpt lat="46.0270514" lon="6.9775425">
        <ele>2144.85</ele>
        <time>2019-09-09T14:25:46Z</time>
      </trkpt>
      <trkpt lat="46.0269998" lon="6.9774333">
        <ele>2145.15</ele>
        <time>2019-09-09T14:26:02Z</time>
      </trkpt>
      <trkpt lat="46.0269499" lon="6.9773220">
        <ele>2146.94</ele>
        <time>2019-09-09T14:26:14Z</time>
      </trkpt>
      <trkpt lat="46.0269057" lon="6.9771829">
        <ele>2148.64</ele>
        <time>2019-09-09T14:26:26Z</time>
      </trkpt>
      <trkpt lat="46.0268711" lon="6.9770625">
        <ele>2150.62</ele>
        <time>2019-09-09T14:26:40Z</time>
      </trkpt>
      <trkpt lat="46.0268588" lon="6.9769214">
        <ele>2151.93</ele>
        <time>2019-09-09T14:26:54Z</time>
      </trkpt>
      <trkpt lat="46.0268443" lon="6.9767813">
        <ele>2152.94</ele>
        <time>2019-09-09T14:27:06Z</time>
      </trkpt>
      <trkpt lat="46.0268054" lon="6.9766427">
        <ele>2154.93</ele>
        <time>2019-09-09T14:27:20Z</time>
      </trkpt>
      <trkpt lat="46.0267482" lon="6.9765381">
        <ele>2156.84</ele>
        <time>2019-09-09T14:27:32Z</time>
      </trkpt>
      <trkpt lat="46.0266914" lon="6.9764303">
        <ele>2158.84</ele>
        <time>2019-09-09T14:27:46Z</time>
      </trkpt>
      <trkpt lat="46.0266333" lon="6.9763248">
        <ele>2159.94</ele>
        <time>2019-09-09T14:28:00Z</time>
      </trkpt>
      <trkpt lat="46.0265731" lon="6.9762230">
        <ele>2161.93</ele>
        <time>2019-09-09T14:28:16Z</time>
      </trkpt>
      <trkpt lat="46.0265068" lon="6.9761314">
        <ele>2162.93</ele>
        <time>2019-09-09T14:28:34Z</time>
      </trkpt>
      <trkpt lat="46.0264455" lon="6.9760344">
        <ele>2165.63</ele>
        <time>2019-09-09T14:28:52Z</time>
      </trkpt>
      <trkpt lat="46.0264155" lon="6.9758958">
        <ele>2167.85</ele>
        <time>2019-09-09T14:29:06Z</time>
      </trkpt>
      <trkpt lat="46.0263647" lon="6.9757844">
        <ele>2169.93</ele>
        <time>2019-09-09T14:29:20Z</time>
      </trkpt>
      <trkpt lat="46.0263735" lon="6.9756347">
        <ele>2170.92</ele>
        <time>2019-09-09T14:29:32Z</time>
      </trkpt>
      <trkpt lat="46.0263723" lon="6.9754905">
        <ele>2170.94</ele>
        <time>2019-09-09T14:29:44Z</time>
      </trkpt>
      <trkpt lat="46.0263678" lon="6.9753424">
        <ele>2170.94</ele>
        <time>2019-09-09T14:29:56Z</time>
      </trkpt>
      <trkpt lat="46.0263719" lon="6.9752086">
        <ele>2171.87</ele>
        <time>2019-09-09T14:30:06Z</time>
      </trkpt>
      <trkpt lat="46.0263438" lon="6.9750786">
        <ele>2174.92</ele>
        <time>2019-09-09T14:30:20Z</time>
      </trkpt>
      <trkpt lat="46.0262784" lon="6.9749783">
        <ele>2177.94</ele>
        <time>2019-09-09T14:30:36Z</time>
      </trkpt>
      <trkpt lat="46.0262421" lon="6.9748557">
        <ele>2181.52</ele>
        <time>2019-09-09T14:30:50Z</time>
      </trkpt>
      <trkpt lat="46.0262925" lon="6.9747420">
        <ele>2185.12</ele>
        <time>2019-09-09T14:31:04Z</time>
      </trkpt>
      <trkpt lat="46.0263753" lon="6.9746645">
        <ele>2184.81</ele>
        <time>2019-09-09T14:31:18Z</time>
      </trkpt>
      <trkpt lat="46.0264389" lon="6.9745674">
        <ele>2194.97</ele>
        <time>2019-09-09T14:31:44Z</time>
      </trkpt>
      <trkpt lat="46.0264911" lon="6.9744521">
        <ele>2199.85</ele>
        <time>2019-09-09T14:32:02Z</time>
      </trkpt>
      <trkpt lat="46.0264601" lon="6.9743213">
        <ele>2202.93</ele>
        <time>2019-09-09T14:32:18Z</time>
      </trkpt>
      <trkpt lat="46.0263842" lon="6.9742270">
        <ele>2202.85</ele>
        <time>2019-09-09T14:32:30Z</time>
      </trkpt>
      <trkpt lat="46.0263197" lon="6.9741078">
        <ele>2201.94</ele>
        <time>2019-09-09T14:32:40Z</time>
      </trkpt>
      <trkpt lat="46.0262699" lon="6.9739713">
        <ele>2201.27</ele>
        <time>2019-09-09T14:32:50Z</time>
      </trkpt>
      <trkpt lat="46.0262322" lon="6.9738427">
        <ele>2202.45</ele>
        <time>2019-09-09T14:33:00Z</time>
      </trkpt>
      <trkpt lat="46.0262383" lon="6.9736842">
        <ele>2201.88</ele>
        <time>2019-09-09T14:33:08Z</time>
      </trkpt>
      <trkpt lat="46.0262380" lon="6.9735167">
        <ele>2200.25</ele>
        <time>2019-09-09T14:33:16Z</time>
      </trkpt>
      <trkpt lat="46.0262435" lon="6.9733749">
        <ele>2194.43</ele>
        <time>2019-09-09T14:33:28Z</time>
      </trkpt>
      <trkpt lat="46.0262231" lon="6.9732365">
        <ele>2193.61</ele>
        <time>2019-09-09T14:33:36Z</time>
      </trkpt>
      <trkpt lat="46.0262385" lon="6.9730763">
        <ele>2188.38</ele>
        <time>2019-09-09T14:33:46Z</time>
      </trkpt>
      <trkpt lat="46.0262116" lon="6.9729301">
        <ele>2185.25</ele>
        <time>2019-09-09T14:33:56Z</time>
      </trkpt>
      <trkpt lat="46.0262249" lon="6.9727698">
        <ele>2189.27</ele>
        <time>2019-09-09T14:34:06Z</time>
      </trkpt>
      <trkpt lat="46.0262000" lon="6.9726329">
        <ele>2187.68</ele>
        <time>2019-09-09T14:34:16Z</time>
      </trkpt>
      <trkpt lat="46.0261964" lon="6.9724863">
        <ele>2187.24</ele>
        <time>2019-09-09T14:34:26Z</time>
      </trkpt>
      <trkpt lat="46.0261866" lon="6.9723366">
        <ele>2187.39</ele>
        <time>2019-09-09T14:34:34Z</time>
      </trkpt>
      <trkpt lat="46.0261750" lon="6.9721870">
        <ele>2188.02</ele>
        <time>2019-09-09T14:34:42Z</time>
      </trkpt>
      <trkpt lat="46.0261786" lon="6.9720350">
        <ele>2188.93</ele>
        <time>2019-09-09T14:34:54Z</time>
      </trkpt>
      <trkpt lat="46.0261957" lon="6.9718902">
        <ele>2190.72</ele>
        <time>2019-09-09T14:35:04Z</time>
      </trkpt>
      <trkpt lat="46.0262156" lon="6.9717291">
        <ele>2190.73</ele>
        <time>2019-09-09T14:35:14Z</time>
      </trkpt>
      <trkpt lat="46.0262695" lon="6.9715820">
        <ele>2190.94</ele>
        <time>2019-09-09T14:35:24Z</time>
      </trkpt>
      <trkpt lat="46.0262685" lon="6.9714511">
        <ele>2191.92</ele>
        <time>2019-09-09T14:35:34Z</time>
      </trkpt>
      <trkpt lat="46.0262705" lon="6.9713133">
        <ele>2195.81</ele>
        <time>2019-09-09T14:35:44Z</time>
      </trkpt>
      <trkpt lat="46.0262638" lon="6.9711773">
        <ele>2198.73</ele>
        <time>2019-09-09T14:35:52Z</time>
      </trkpt>
      <trkpt lat="46.0262820" lon="6.9710277">
        <ele>2199.94</ele>
        <time>2019-09-09T14:36:06Z</time>
      </trkpt>
      <trkpt lat="46.0262864" lon="6.9708943">
        <ele>2200.88</ele>
        <time>2019-09-09T14:36:16Z</time>
      </trkpt>
      <trkpt lat="46.0262705" lon="6.9707575">
        <ele>2198.97</ele>
        <time>2019-09-09T14:36:26Z</time>
      </trkpt>
      <trkpt lat="46.0262489" lon="6.9706145">
        <ele>2198.94</ele>
        <time>2019-09-09T14:36:36Z</time>
      </trkpt>
      <trkpt lat="46.0262620" lon="6.9704781">
        <ele>2199.92</ele>
        <time>2019-09-09T14:36:46Z</time>
      </trkpt>
      <trkpt lat="46.0263403" lon="6.9704184">
        <ele>2204.94</ele>
        <time>2019-09-09T14:38:35Z</time>
      </trkpt>
      <trkpt lat="46.0262834" lon="6.9703095">
        <ele>2202.72</ele>
        <time>2019-09-09T14:39:35Z</time>
      </trkpt>
      <trkpt lat="46.0262056" lon="6.9702193">
        <ele>2200.94</ele>
        <time>2019-09-09T14:39:48Z</time>
      </trkpt>
      <trkpt lat="46.0261053" lon="6.9701593">
        <ele>2201.64</ele>
        <time>2019-09-09T14:39:58Z</time>
      </trkpt>
      <trkpt lat="46.0260202" lon="6.9700584">
        <ele>2201.24</ele>
        <time>2019-09-09T14:40:28Z</time>
      </trkpt>
      <trkpt lat="46.0259243" lon="6.9700257">
        <ele>2200.96</ele>
        <time>2019-09-09T14:40:38Z</time>
      </trkpt>
      <trkpt lat="46.0258311" lon="6.9699825">
        <ele>2199.95</ele>
        <time>2019-09-09T14:40:46Z</time>
      </trkpt>
      <trkpt lat="46.0257368" lon="6.9699430">
        <ele>2199.24</ele>
        <time>2019-09-09T14:40:56Z</time>
      </trkpt>
      <trkpt lat="46.0256275" lon="6.9699237">
        <ele>2198.03</ele>
        <time>2019-09-09T14:41:04Z</time>
      </trkpt>
      <trkpt lat="46.0255405" lon="6.9698906">
        <ele>2197.94</ele>
        <time>2019-09-09T14:41:12Z</time>
      </trkpt>
      <trkpt lat="46.0254584" lon="6.9698187">
        <ele>2196.95</ele>
        <time>2019-09-09T14:41:20Z</time>
      </trkpt>
      <trkpt lat="46.0253619" lon="6.9697621">
        <ele>2196.03</ele>
        <time>2019-09-09T14:41:28Z</time>
      </trkpt>
      <trkpt lat="46.0254455" lon="6.9696650">
        <ele>2191.06</ele>
        <time>2019-09-09T14:41:46Z</time>
      </trkpt>
      <trkpt lat="46.0255389" lon="6.9696411">
        <ele>2189.27</ele>
        <time>2019-09-09T14:41:54Z</time>
      </trkpt>
      <trkpt lat="46.0256416" lon="6.9696309">
        <ele>2188.03</ele>
        <time>2019-09-09T14:42:02Z</time>
      </trkpt>
      <trkpt lat="46.0255616" lon="6.9695608">
        <ele>2186.04</ele>
        <time>2019-09-09T14:42:10Z</time>
      </trkpt>
      <trkpt lat="46.0254677" lon="6.9695280">
        <ele>2184.97</ele>
        <time>2019-09-09T14:42:18Z</time>
      </trkpt>
      <trkpt lat="46.0253731" lon="6.9694948">
        <ele>2183.04</ele>
        <time>2019-09-09T14:42:26Z</time>
      </trkpt>
      <trkpt lat="46.0252760" lon="6.9694658">
        <ele>2181.97</ele>
        <time>2019-09-09T14:42:34Z</time>
      </trkpt>
      <trkpt lat="46.0251682" lon="6.9694264">
        <ele>2180.06</ele>
        <time>2019-09-09T14:42:44Z</time>
      </trkpt>
      <trkpt lat="46.0250744" lon="6.9694029">
        <ele>2178.97</ele>
        <time>2019-09-09T14:42:52Z</time>
      </trkpt>
      <trkpt lat="46.0249952" lon="6.9693101">
        <ele>2177.97</ele>
        <time>2019-09-09T14:43:00Z</time>
      </trkpt>
      <trkpt lat="46.0249096" lon="6.9692494">
        <ele>2175.97</ele>
        <time>2019-09-09T14:43:10Z</time>
      </trkpt>
      <trkpt lat="46.0248260" lon="6.9691793">
        <ele>2174.04</ele>
        <time>2019-09-09T14:43:18Z</time>
      </trkpt>
      <trkpt lat="46.0247416" lon="6.9691130">
        <ele>2173.03</ele>
        <time>2019-09-09T14:43:26Z</time>
      </trkpt>
      <trkpt lat="46.0246556" lon="6.9690435">
        <ele>2171.97</ele>
        <time>2019-09-09T14:43:36Z</time>
      </trkpt>
      <trkpt lat="46.0245574" lon="6.9690105">
        <ele>2169.18</ele>
        <time>2019-09-09T14:43:46Z</time>
      </trkpt>
      <trkpt lat="46.0246470" lon="6.9689195">
        <ele>2163.28</ele>
        <time>2019-09-09T14:44:00Z</time>
      </trkpt>
      <trkpt lat="46.0247359" lon="6.9688359">
        <ele>2161.06</ele>
        <time>2019-09-09T14:44:08Z</time>
      </trkpt>
      <trkpt lat="46.0246526" lon="6.9687663">
        <ele>2159.25</ele>
        <time>2019-09-09T14:44:16Z</time>
      </trkpt>
      <trkpt lat="46.0245864" lon="6.9686751">
        <ele>2158.24</ele>
        <time>2019-09-09T14:44:24Z</time>
      </trkpt>
      <trkpt lat="46.0244965" lon="6.9686152">
        <ele>2156.97</ele>
        <time>2019-09-09T14:44:32Z</time>
      </trkpt>
      <trkpt lat="46.0244261" lon="6.9685269">
        <ele>2153.34</ele>
        <time>2019-09-09T14:44:44Z</time>
      </trkpt>
      <trkpt lat="46.0243402" lon="6.9684845">
        <ele>2150.58</ele>
        <time>2019-09-09T14:44:50Z</time>
      </trkpt>
      <trkpt lat="46.0242938" lon="6.9683631">
        <ele>2144.01</ele>
        <time>2019-09-09T14:45:02Z</time>
      </trkpt>
      <trkpt lat="46.0242030" lon="6.9682641">
        <ele>2136.87</ele>
        <time>2019-09-09T14:45:14Z</time>
      </trkpt>
      <trkpt lat="46.0241287" lon="6.9681679">
        <ele>2130.55</ele>
        <time>2019-09-09T14:45:28Z</time>
      </trkpt>
      <trkpt lat="46.0240588" lon="6.9680722">
        <ele>2129.15</ele>
        <time>2019-09-09T14:45:38Z</time>
      </trkpt>
      <trkpt lat="46.0239800" lon="6.9679875">
        <ele>2128.94</ele>
        <time>2019-09-09T14:45:48Z</time>
      </trkpt>
      <trkpt lat="46.0238768" lon="6.9679519">
        <ele>2128.94</ele>
        <time>2019-09-09T14:45:58Z</time>
      </trkpt>
      <trkpt lat="46.0238179" lon="6.9678299">
        <ele>2128.94</ele>
        <time>2019-09-09T14:46:08Z</time>
      </trkpt>
      <trkpt lat="46.0237563" lon="6.9677352">
        <ele>2140.84</ele>
        <time>2019-09-09T14:46:20Z</time>
      </trkpt>
      <trkpt lat="46.0236998" lon="6.9676322">
        <ele>2130.64</ele>
        <time>2019-09-09T14:46:28Z</time>
      </trkpt>
      <trkpt lat="46.0236232" lon="6.9675168">
        <ele>2127.27</ele>
        <time>2019-09-09T14:46:40Z</time>
      </trkpt>
      <trkpt lat="46.0235848" lon="6.9673891">
        <ele>2124.95</ele>
        <time>2019-09-09T14:46:50Z</time>
      </trkpt>
      <trkpt lat="46.0235124" lon="6.9672958">
        <ele>2123.54</ele>
        <time>2019-09-09T14:46:58Z</time>
      </trkpt>
      <trkpt lat="46.0234139" lon="6.9673021">
        <ele>2119.26</ele>
        <time>2019-09-09T14:47:08Z</time>
      </trkpt>
      <trkpt lat="46.0233209" lon="6.9672572">
        <ele>2118.94</ele>
        <time>2019-09-09T14:47:16Z</time>
      </trkpt>
      <trkpt lat="46.0232422" lon="6.9671883">
        <ele>2118.01</ele>
        <time>2019-09-09T14:47:24Z</time>
      </trkpt>
      <trkpt lat="46.0231630" lon="6.9671244">
        <ele>2117.94</ele>
        <time>2019-09-09T14:47:32Z</time>
      </trkpt>
      <trkpt lat="46.0230982" lon="6.9670313">
        <ele>2115.27</ele>
        <time>2019-09-09T14:47:46Z</time>
      </trkpt>
      <trkpt lat="46.0230012" lon="6.9670153">
        <ele>2114.95</ele>
        <time>2019-09-09T14:47:52Z</time>
      </trkpt>
      <trkpt lat="46.0229122" lon="6.9669802">
        <ele>2113.27</ele>
        <time>2019-09-09T14:47:58Z</time>
      </trkpt>
      <trkpt lat="46.0228357" lon="6.9669042">
        <ele>2112.94</ele>
        <time>2019-09-09T14:48:06Z</time>
      </trkpt>
      <trkpt lat="46.0229215" lon="6.9668365">
        <ele>2109.29</ele>
        <time>2019-09-09T14:48:14Z</time>
      </trkpt>
      <trkpt lat="46.0230135" lon="6.9667864">
        <ele>2106.07</ele>
        <time>2019-09-09T14:48:22Z</time>
      </trkpt>
      <trkpt lat="46.0230869" lon="6.9667108">
        <ele>2104.33</ele>
        <time>2019-09-09T14:48:30Z</time>
      </trkpt>
      <trkpt lat="46.0230240" lon="6.9665870">
        <ele>2100.27</ele>
        <time>2019-09-09T14:48:50Z</time>
      </trkpt>
      <trkpt lat="46.0229513" lon="6.9664952">
        <ele>2099.03</ele>
        <time>2019-09-09T14:48:58Z</time>
      </trkpt>
      <trkpt lat="46.0228636" lon="6.9664303">
        <ele>2098.03</ele>
        <time>2019-09-09T14:49:06Z</time>
      </trkpt>
      <trkpt lat="46.0227942" lon="6.9663462">
        <ele>2097.03</ele>
        <time>2019-09-09T14:49:16Z</time>
      </trkpt>
      <trkpt lat="46.0226999" lon="6.9663344">
        <ele>2094.28</ele>
        <time>2019-09-09T14:49:24Z</time>
      </trkpt>
      <trkpt lat="46.0226109" lon="6.9662516">
        <ele>2092.04</ele>
        <time>2019-09-09T14:49:34Z</time>
      </trkpt>
      <trkpt lat="46.0225230" lon="6.9662097">
        <ele>2091.94</ele>
        <time>2019-09-09T14:49:42Z</time>
      </trkpt>
      <trkpt lat="46.0224141" lon="6.9661810">
        <ele>2090.25</ele>
        <time>2019-09-09T14:49:50Z</time>
      </trkpt>
      <trkpt lat="46.0223275" lon="6.9661291">
        <ele>2089.94</ele>
        <time>2019-09-09T14:49:58Z</time>
      </trkpt>
      <trkpt lat="46.0222293" lon="6.9661058">
        <ele>2088.97</ele>
        <time>2019-09-09T14:50:08Z</time>
      </trkpt>
      <trkpt lat="46.0221966" lon="6.9659612">
        <ele>2087.55</ele>
        <time>2019-09-09T14:50:18Z</time>
      </trkpt>
      <trkpt lat="46.0221305" lon="6.9658620">
        <ele>2086.95</ele>
        <time>2019-09-09T14:50:26Z</time>
      </trkpt>
      <trkpt lat="46.0220425" lon="6.9658054">
        <ele>2085.03</ele>
        <time>2019-09-09T14:50:36Z</time>
      </trkpt>
      <trkpt lat="46.0219987" lon="6.9656851">
        <ele>2084.03</ele>
        <time>2019-09-09T14:50:44Z</time>
      </trkpt>
      <trkpt lat="46.0219697" lon="6.9655606">
        <ele>2085.23</ele>
        <time>2019-09-09T14:50:52Z</time>
      </trkpt>
      <trkpt lat="46.0219086" lon="6.9654537">
        <ele>2079.97</ele>
        <time>2019-09-09T14:51:04Z</time>
      </trkpt>
      <trkpt lat="46.0218658" lon="6.9653156">
        <ele>2078.04</ele>
        <time>2019-09-09T14:51:14Z</time>
      </trkpt>
      <trkpt lat="46.0218833" lon="6.9651872">
        <ele>2075.37</ele>
        <time>2019-09-09T14:51:24Z</time>
      </trkpt>
      <trkpt lat="46.0218234" lon="6.9650494">
        <ele>2073.31</ele>
        <time>2019-09-09T14:51:36Z</time>
      </trkpt>
      <trkpt lat="46.0217664" lon="6.9649160">
        <ele>2071.34</ele>
        <time>2019-09-09T14:51:46Z</time>
      </trkpt>
      <trkpt lat="46.0217000" lon="6.9648110">
        <ele>2069.76</ele>
        <time>2019-09-09T14:51:56Z</time>
      </trkpt>
      <trkpt lat="46.0216487" lon="6.9646857">
        <ele>2066.97</ele>
        <time>2019-09-09T14:52:08Z</time>
      </trkpt>
      <trkpt lat="46.0215957" lon="6.9645660">
        <ele>2062.58</ele>
        <time>2019-09-09T14:52:20Z</time>
      </trkpt>
      <trkpt lat="46.0215247" lon="6.9644809">
        <ele>2061.04</ele>
        <time>2019-09-09T14:52:28Z</time>
      </trkpt>
      <trkpt lat="46.0214464" lon="6.9643937">
        <ele>2059.97</ele>
        <time>2019-09-09T14:52:36Z</time>
      </trkpt>
      <trkpt lat="46.0213773" lon="6.9642988">
        <ele>2061.48</ele>
        <time>2019-09-09T14:52:44Z</time>
      </trkpt>
      <trkpt lat="46.0213394" lon="6.9641591">
        <ele>2058.06</ele>
        <time>2019-09-09T14:52:54Z</time>
      </trkpt>
      <trkpt lat="46.0212776" lon="6.9640254">
        <ele>2055.25</ele>
        <time>2019-09-09T14:53:08Z</time>
      </trkpt>
      <trkpt lat="46.0212109" lon="6.9639111">
        <ele>2053.04</ele>
        <time>2019-09-09T14:53:16Z</time>
      </trkpt>
      <trkpt lat="46.0211352" lon="6.9638322">
        <ele>2052.03</ele>
        <time>2019-09-09T14:53:24Z</time>
      </trkpt>
      <trkpt lat="46.0210666" lon="6.9637450">
        <ele>2050.95</ele>
        <time>2019-09-09T14:53:32Z</time>
      </trkpt>
      <trkpt lat="46.0209959" lon="6.9636257">
        <ele>2050.24</ele>
        <time>2019-09-09T14:53:42Z</time>
      </trkpt>
      <trkpt lat="46.0209339" lon="6.9635044">
        <ele>2048.27</ele>
        <time>2019-09-09T14:53:52Z</time>
      </trkpt>
      <trkpt lat="46.0209105" lon="6.9633701">
        <ele>2046.06</ele>
        <time>2019-09-09T14:54:00Z</time>
      </trkpt>
      <trkpt lat="46.0208470" lon="6.9632471">
        <ele>2040.07</ele>
        <time>2019-09-09T14:54:14Z</time>
      </trkpt>
      <trkpt lat="46.0207949" lon="6.9631364">
        <ele>2039.24</ele>
        <time>2019-09-09T14:54:22Z</time>
      </trkpt>
      <trkpt lat="46.0207422" lon="6.9630205">
        <ele>2037.05</ele>
        <time>2019-09-09T14:54:38Z</time>
      </trkpt>
      <trkpt lat="46.0206815" lon="6.9628941">
        <ele>2035.27</ele>
        <time>2019-09-09T14:54:46Z</time>
      </trkpt>
      <trkpt lat="46.0205991" lon="6.9628410">
        <ele>2033.40</ele>
        <time>2019-09-09T14:54:54Z</time>
      </trkpt>
      <trkpt lat="46.0205103" lon="6.9627520">
        <ele>2031.04</ele>
        <time>2019-09-09T14:55:04Z</time>
      </trkpt>
      <trkpt lat="46.0204524" lon="6.9626240">
        <ele>2029.04</ele>
        <time>2019-09-09T14:55:12Z</time>
      </trkpt>
      <trkpt lat="46.0203950" lon="6.9624967">
        <ele>2027.27</ele>
        <time>2019-09-09T14:55:20Z</time>
      </trkpt>
      <trkpt lat="46.0203534" lon="6.9623655">
        <ele>2025.27</ele>
        <time>2019-09-09T14:55:28Z</time>
      </trkpt>
      <trkpt lat="46.0203141" lon="6.9622393">
        <ele>2024.03</ele>
        <time>2019-09-09T14:55:36Z</time>
      </trkpt>
      <trkpt lat="46.0202228" lon="6.9621909">
        <ele>2021.06</ele>
        <time>2019-09-09T14:55:46Z</time>
      </trkpt>
      <trkpt lat="46.0201506" lon="6.9620890">
        <ele>2018.95</ele>
        <time>2019-09-09T14:55:56Z</time>
      </trkpt>
      <trkpt lat="46.0201218" lon="6.9619432">
        <ele>2014.95</ele>
        <time>2019-09-09T14:56:10Z</time>
      </trkpt>
      <trkpt lat="46.0200689" lon="6.9618001">
        <ele>2013.97</ele>
        <time>2019-09-09T14:56:18Z</time>
      </trkpt>
      <trkpt lat="46.0200173" lon="6.9616828">
        <ele>2014.01</ele>
        <time>2019-09-09T14:56:26Z</time>
      </trkpt>
      <trkpt lat="46.0199516" lon="6.9615668">
        <ele>2010.07</ele>
        <time>2019-09-09T14:56:38Z</time>
      </trkpt>
      <trkpt lat="46.0199018" lon="6.9614382">
        <ele>2008.25</ele>
        <time>2019-09-09T14:56:46Z</time>
      </trkpt>
      <trkpt lat="46.0198299" lon="6.9613275">
        <ele>2007.03</ele>
        <time>2019-09-09T14:56:54Z</time>
      </trkpt>
      <trkpt lat="46.0197554" lon="6.9612202">
        <ele>2005.27</ele>
        <time>2019-09-09T14:57:02Z</time>
      </trkpt>
      <trkpt lat="46.0196943" lon="6.9611013">
        <ele>2003.04</ele>
        <time>2019-09-09T14:57:10Z</time>
      </trkpt>
      <trkpt lat="46.0196516" lon="6.9609564">
        <ele>2000.28</ele>
        <time>2019-09-09T14:57:20Z</time>
      </trkpt>
      <trkpt lat="46.0195825" lon="6.9608455">
        <ele>1998.95</ele>
        <time>2019-09-09T14:57:30Z</time>
      </trkpt>
      <trkpt lat="46.0195284" lon="6.9607398">
        <ele>1997.27</ele>
        <time>2019-09-09T14:57:38Z</time>
      </trkpt>
      <trkpt lat="46.0194484" lon="6.9606568">
        <ele>1994.97</ele>
        <time>2019-09-09T14:57:48Z</time>
      </trkpt>
      <trkpt lat="46.0193942" lon="6.9605193">
        <ele>1992.27</ele>
        <time>2019-09-09T14:57:58Z</time>
      </trkpt>
      <trkpt lat="46.0193140" lon="6.9604324">
        <ele>1990.27</ele>
        <time>2019-09-09T14:58:06Z</time>
      </trkpt>
      <trkpt lat="46.0192246" lon="6.9603571">
        <ele>1986.34</ele>
        <time>2019-09-09T14:58:16Z</time>
      </trkpt>
      <trkpt lat="46.0191552" lon="6.9602437">
        <ele>1986.22</ele>
        <time>2019-09-09T14:58:26Z</time>
      </trkpt>
      <trkpt lat="46.0190994" lon="6.9601155">
        <ele>1983.28</ele>
        <time>2019-09-09T14:58:34Z</time>
      </trkpt>
      <trkpt lat="46.0190354" lon="6.9600050">
        <ele>1982.03</ele>
        <time>2019-09-09T14:58:42Z</time>
      </trkpt>
      <trkpt lat="46.0189637" lon="6.9599029">
        <ele>1981.94</ele>
        <time>2019-09-09T14:58:50Z</time>
      </trkpt>
      <trkpt lat="46.0188809" lon="6.9598003">
        <ele>1979.34</ele>
        <time>2019-09-09T14:58:58Z</time>
      </trkpt>
      <trkpt lat="46.0187993" lon="6.9597046">
        <ele>1977.04</ele>
        <time>2019-09-09T14:59:08Z</time>
      </trkpt>
      <trkpt lat="46.0187206" lon="6.9596380">
        <ele>1975.95</ele>
        <time>2019-09-09T14:59:16Z</time>
      </trkpt>
      <trkpt lat="46.0186645" lon="6.9595241">
        <ele>1960.37</ele>
        <time>2019-09-09T14:59:40Z</time>
      </trkpt>
      <trkpt lat="46.0185807" lon="6.9594287">
        <ele>1957.98</ele>
        <time>2019-09-09T14:59:48Z</time>
      </trkpt>
      <trkpt lat="46.0185165" lon="6.9593207">
        <ele>1956.97</ele>
        <time>2019-09-09T14:59:56Z</time>
      </trkpt>
      <trkpt lat="46.0184319" lon="6.9592504">
        <ele>1956.24</ele>
        <time>2019-09-09T15:00:04Z</time>
      </trkpt>
      <trkpt lat="46.0183435" lon="6.9592175">
        <ele>1968.28</ele>
        <time>2019-09-09T15:00:10Z</time>
      </trkpt>
      <trkpt lat="46.0182755" lon="6.9590925">
        <ele>1953.46</ele>
        <time>2019-09-09T15:00:22Z</time>
      </trkpt>
      <trkpt lat="46.0181872" lon="6.9589922">
        <ele>1949.77</ele>
        <time>2019-09-09T15:00:32Z</time>
      </trkpt>
      <trkpt lat="46.0180976" lon="6.9589057">
        <ele>1948.04</ele>
        <time>2019-09-09T15:00:40Z</time>
      </trkpt>
      <trkpt lat="46.0180138" lon="6.9588451">
        <ele>1946.33</ele>
        <time>2019-09-09T15:00:48Z</time>
      </trkpt>
      <trkpt lat="46.0179129" lon="6.9587770">
        <ele>1943.04</ele>
        <time>2019-09-09T15:00:58Z</time>
      </trkpt>
      <trkpt lat="46.0178300" lon="6.9587075">
        <ele>1941.04</ele>
        <time>2019-09-09T15:01:08Z</time>
      </trkpt>
      <trkpt lat="46.0177398" lon="6.9585986">
        <ele>1940.03</ele>
        <time>2019-09-09T15:01:18Z</time>
      </trkpt>
      <trkpt lat="46.0176560" lon="6.9585378">
        <ele>1937.34</ele>
        <time>2019-09-09T15:01:26Z</time>
      </trkpt>
      <trkpt lat="46.0175621" lon="6.9585001">
        <ele>1935.04</ele>
        <time>2019-09-09T15:01:36Z</time>
      </trkpt>
      <trkpt lat="46.0174650" lon="6.9584810">
        <ele>1934.03</ele>
        <time>2019-09-09T15:01:44Z</time>
      </trkpt>
      <trkpt lat="46.0173631" lon="6.9584960">
        <ele>1931.06</ele>
        <time>2019-09-09T15:01:56Z</time>
      </trkpt>
      <trkpt lat="46.0172713" lon="6.9584810">
        <ele>1928.97</ele>
        <time>2019-09-09T15:02:06Z</time>
      </trkpt>
      <trkpt lat="46.0171859" lon="6.9585426">
        <ele>1927.95</ele>
        <time>2019-09-09T15:02:16Z</time>
      </trkpt>
      <trkpt lat="46.0171313" lon="6.9586477">
        <ele>1926.95</ele>
        <time>2019-09-09T15:02:24Z</time>
      </trkpt>
      <trkpt lat="46.0170819" lon="6.9587759">
        <ele>1925.04</ele>
        <time>2019-09-09T15:02:34Z</time>
      </trkpt>
      <trkpt lat="46.0170002" lon="6.9588410">
        <ele>1924.03</ele>
        <time>2019-09-09T15:02:46Z</time>
      </trkpt>
      <trkpt lat="46.0169235" lon="6.9587573">
        <ele>1923.92</ele>
        <time>2019-09-09T15:02:56Z</time>
      </trkpt>
      <trkpt lat="46.0168237" lon="6.9587860">
        <ele>1924.24</ele>
        <time>2019-09-09T15:03:10Z</time>
      </trkpt>
      <trkpt lat="46.0167253" lon="6.9588625">
        <ele>1923.67</ele>
        <time>2019-09-09T15:03:20Z</time>
      </trkpt>
      <trkpt lat="46.0166317" lon="6.9589041">
        <ele>1922.94</ele>
        <time>2019-09-09T15:03:30Z</time>
      </trkpt>
      <trkpt lat="46.0165541" lon="6.9590141">
        <ele>1921.94</ele>
        <time>2019-09-09T15:03:40Z</time>
      </trkpt>
      <trkpt lat="46.0164965" lon="6.9591174">
        <ele>1921.94</ele>
        <time>2019-09-09T15:03:50Z</time>
      </trkpt>
      <trkpt lat="46.0164401" lon="6.9589899">
        <ele>1920.94</ele>
        <time>2019-09-09T15:04:04Z</time>
      </trkpt>
      <trkpt lat="46.0163412" lon="6.9589630">
        <ele>1919.74</ele>
        <time>2019-09-09T15:04:14Z</time>
      </trkpt>
      <trkpt lat="46.0162492" lon="6.9589414">
        <ele>1919.16</ele>
        <time>2019-09-09T15:04:22Z</time>
      </trkpt>
      <trkpt lat="46.0161645" lon="6.9588972">
        <ele>1918.94</ele>
        <time>2019-09-09T15:04:30Z</time>
      </trkpt>
      <trkpt lat="46.0160708" lon="6.9588619">
        <ele>1918.94</ele>
        <time>2019-09-09T15:04:38Z</time>
      </trkpt>
      <trkpt lat="46.0159776" lon="6.9588170">
        <ele>1918.96</ele>
        <time>2019-09-09T15:04:46Z</time>
      </trkpt>
      <trkpt lat="46.0158689" lon="6.9587863">
        <ele>1918.03</ele>
        <time>2019-09-09T15:04:56Z</time>
      </trkpt>
      <trkpt lat="46.0157782" lon="6.9587206">
        <ele>1917.67</ele>
        <time>2019-09-09T15:05:06Z</time>
      </trkpt>
      <trkpt lat="46.0156891" lon="6.9587031">
        <ele>1915.94</ele>
        <time>2019-09-09T15:05:20Z</time>
      </trkpt>
      <trkpt lat="46.0155969" lon="6.9586981">
        <ele>1915.94</ele>
        <time>2019-09-09T15:05:28Z</time>
      </trkpt>
      <trkpt lat="46.0155046" lon="6.9586068">
        <ele>1909.94</ele>
        <time>2019-09-10T05:57:59Z</time>
      </trkpt>
      <trkpt lat="45.9282038" lon="6.8686821">
        <ele>1050.95</ele>
        <time>2019-09-10T10:52:06Z</time>
      </trkpt>
      <trkpt lat="46.0155046" lon="6.9586068">
        <ele>1909.94</ele>
        <time>2019-09-10T05:57:59Z</time>
      </trkpt>
      <trkpt lat="46.0155699" lon="6.9585041">
        <ele>1923.24</ele>
        <time>2019-09-10T05:58:02Z</time>
      </trkpt>
      <trkpt lat="46.0155764" lon="6.9586380">
        <ele>1909.91</ele>
        <time>2019-09-10T05:59:04Z</time>
      </trkpt>
      <trkpt lat="46.0154749" lon="6.9585552">
        <ele>1915.74</ele>
        <time>2019-09-10T05:59:30Z</time>
      </trkpt>
      <trkpt lat="46.0153687" lon="6.9585949">
        <ele>1911.17</ele>
        <time>2019-09-10T05:59:38Z</time>
      </trkpt>
      <trkpt lat="46.0152783" lon="6.9586177">
        <ele>1910.25</ele>
        <time>2019-09-10T05:59:44Z</time>
      </trkpt>
      <trkpt lat="46.0151894" lon="6.9585807">
        <ele>1909.31</ele>
        <time>2019-09-10T05:59:54Z</time>
      </trkpt>
      <trkpt lat="46.0151063" lon="6.9585025">
        <ele>1906.25</ele>
        <time>2019-09-10T06:00:08Z</time>
      </trkpt>
      <trkpt lat="46.0150168" lon="6.9585342">
        <ele>1906.94</ele>
        <time>2019-09-10T06:00:18Z</time>
      </trkpt>
      <trkpt lat="46.0149125" lon="6.9585124">
        <ele>1906.94</ele>
        <time>2019-09-10T06:00:28Z</time>
      </trkpt>
      <trkpt lat="46.0148098" lon="6.9585201">
        <ele>1905.24</ele>
        <time>2019-09-10T06:00:38Z</time>
      </trkpt>
      <trkpt lat="46.0147258" lon="6.9584659">
        <ele>1905.24</ele>
        <time>2019-09-10T06:00:48Z</time>
      </trkpt>
      <trkpt lat="46.0146666" lon="6.9583520">
        <ele>1904.03</ele>
        <time>2019-09-10T06:00:56Z</time>
      </trkpt>
      <trkpt lat="46.0145807" lon="6.9582768">
        <ele>1903.94</ele>
        <time>2019-09-10T06:01:06Z</time>
      </trkpt>
      <trkpt lat="46.0144748" lon="6.9582718">
        <ele>1902.95</ele>
        <time>2019-09-10T06:01:22Z</time>
      </trkpt>
      <trkpt lat="46.0144229" lon="6.9581449">
        <ele>1900.04</ele>
        <time>2019-09-10T06:01:34Z</time>
      </trkpt>
      <trkpt lat="46.0143431" lon="6.9580439">
        <ele>1899.94</ele>
        <time>2019-09-10T06:01:44Z</time>
      </trkpt>
      <trkpt lat="46.0142648" lon="6.9579696">
        <ele>1898.25</ele>
        <time>2019-09-10T06:01:54Z</time>
      </trkpt>
      <trkpt lat="46.0143559" lon="6.9579245">
        <ele>1889.76</ele>
        <time>2019-09-10T06:02:20Z</time>
      </trkpt>
      <trkpt lat="46.0143935" lon="6.9578043">
        <ele>1886.97</ele>
        <time>2019-09-10T06:02:30Z</time>
      </trkpt>
      <trkpt lat="46.0144422" lon="6.9576865">
        <ele>1886.94</ele>
        <time>2019-09-10T06:02:38Z</time>
      </trkpt>
      <trkpt lat="46.0145102" lon="6.9575931">
        <ele>1883.06</ele>
        <time>2019-09-10T06:02:52Z</time>
      </trkpt>
      <trkpt lat="46.0145992" lon="6.9575385">
        <ele>1883.15</ele>
        <time>2019-09-10T06:03:02Z</time>
      </trkpt>
      <trkpt lat="46.0146836" lon="6.9574894">
        <ele>1882.94</ele>
        <time>2019-09-10T06:03:12Z</time>
      </trkpt>
      <trkpt lat="46.0147545" lon="6.9573742">
        <ele>1880.94</ele>
        <time>2019-09-10T06:03:26Z</time>
      </trkpt>
      <trkpt lat="46.0148018" lon="6.9572390">
        <ele>1879.33</ele>
        <time>2019-09-10T06:03:38Z</time>
      </trkpt>
      <trkpt lat="46.0147783" lon="6.9571109">
        <ele>1876.27</ele>
        <time>2019-09-10T06:03:48Z</time>
      </trkpt>
      <trkpt lat="46.0147621" lon="6.9569807">
        <ele>1874.25</ele>
        <time>2019-09-10T06:04:00Z</time>
      </trkpt>
      <trkpt lat="46.0146959" lon="6.9568652">
        <ele>1872.04</ele>
        <time>2019-09-10T06:04:10Z</time>
      </trkpt>
      <trkpt lat="46.0146524" lon="6.9567413">
        <ele>1868.28</ele>
        <time>2019-09-10T06:04:22Z</time>
      </trkpt>
      <trkpt lat="46.0146224" lon="6.9565949">
        <ele>1866.27</ele>
        <time>2019-09-10T06:04:32Z</time>
      </trkpt>
      <trkpt lat="46.0145921" lon="6.9564464">
        <ele>1865.01</ele>
        <time>2019-09-10T06:04:42Z</time>
      </trkpt>
      <trkpt lat="46.0145466" lon="6.9563214">
        <ele>1862.04</ele>
        <time>2019-09-10T06:04:52Z</time>
      </trkpt>
      <trkpt lat="46.0145128" lon="6.9561828">
        <ele>1859.28</ele>
        <time>2019-09-10T06:05:02Z</time>
      </trkpt>
      <trkpt lat="46.0144239" lon="6.9561077">
        <ele>1857.25</ele>
        <time>2019-09-10T06:05:20Z</time>
      </trkpt>
      <trkpt lat="46.0143400" lon="6.9560197">
        <ele>1854.97</ele>
        <time>2019-09-10T06:05:30Z</time>
      </trkpt>
      <trkpt lat="46.0142496" lon="6.9559875">
        <ele>1853.95</ele>
        <time>2019-09-10T06:05:38Z</time>
      </trkpt>
      <trkpt lat="46.0141593" lon="6.9559669">
        <ele>1853.18</ele>
        <time>2019-09-10T06:05:48Z</time>
      </trkpt>
      <trkpt lat="46.0140694" lon="6.9560376">
        <ele>1853.64</ele>
        <time>2019-09-10T06:05:58Z</time>
      </trkpt>
      <trkpt lat="46.0139697" lon="6.9560773">
        <ele>1853.03</ele>
        <time>2019-09-10T06:06:06Z</time>
      </trkpt>
      <trkpt lat="46.0138845" lon="6.9560310">
        <ele>1851.97</ele>
        <time>2019-09-10T06:06:14Z</time>
      </trkpt>
      <trkpt lat="46.0138483" lon="6.9559113">
        <ele>1851.94</ele>
        <time>2019-09-10T06:06:22Z</time>
      </trkpt>
      <trkpt lat="46.0137787" lon="6.9558048">
        <ele>1850.97</ele>
        <time>2019-09-10T06:06:32Z</time>
      </trkpt>
      <trkpt lat="46.0136967" lon="6.9557306">
        <ele>1850.01</ele>
        <time>2019-09-10T06:06:42Z</time>
      </trkpt>
      <trkpt lat="46.0136074" lon="6.9557050">
        <ele>1849.94</ele>
        <time>2019-09-10T06:06:54Z</time>
      </trkpt>
      <trkpt lat="46.0135058" lon="6.9556893">
        <ele>1848.03</ele>
        <time>2019-09-10T06:07:06Z</time>
      </trkpt>
      <trkpt lat="46.0134012" lon="6.9556692">
        <ele>1846.97</ele>
        <time>2019-09-10T06:07:16Z</time>
      </trkpt>
      <trkpt lat="46.0133135" lon="6.9556108">
        <ele>1846.03</ele>
        <time>2019-09-10T06:07:24Z</time>
      </trkpt>
      <trkpt lat="46.0132313" lon="6.9555332">
        <ele>1844.97</ele>
        <time>2019-09-10T06:07:36Z</time>
      </trkpt>
      <trkpt lat="46.0131361" lon="6.9555160">
        <ele>1843.94</ele>
        <time>2019-09-10T06:07:48Z</time>
      </trkpt>
      <trkpt lat="46.0132469" lon="6.9554703">
        <ele>1838.69</ele>
        <time>2019-09-10T06:08:00Z</time>
      </trkpt>
      <trkpt lat="46.0133544" lon="6.9554359">
        <ele>1832.36</ele>
        <time>2019-09-10T06:08:22Z</time>
      </trkpt>
      <trkpt lat="46.0134455" lon="6.9554231">
        <ele>1831.74</ele>
        <time>2019-09-10T06:08:28Z</time>
      </trkpt>
      <trkpt lat="46.0134062" lon="6.9552873">
        <ele>1828.95</ele>
        <time>2019-09-10T06:08:46Z</time>
      </trkpt>
      <trkpt lat="46.0133133" lon="6.9552595">
        <ele>1826.04</ele>
        <time>2019-09-10T06:08:58Z</time>
      </trkpt>
      <trkpt lat="46.0132315" lon="6.9551876">
        <ele>1823.27</ele>
        <time>2019-09-10T06:09:12Z</time>
      </trkpt>
      <trkpt lat="46.0131384" lon="6.9552209">
        <ele>1821.97</ele>
        <time>2019-09-10T06:09:22Z</time>
      </trkpt>
      <trkpt lat="46.0130817" lon="6.9550932">
        <ele>1816.98</ele>
        <time>2019-09-10T06:09:44Z</time>
      </trkpt>
      <trkpt lat="46.0130052" lon="6.9550061">
        <ele>1815.04</ele>
        <time>2019-09-10T06:09:54Z</time>
      </trkpt>
      <trkpt lat="46.0129152" lon="6.9549753">
        <ele>1814.71</ele>
        <time>2019-09-10T06:10:06Z</time>
      </trkpt>
      <trkpt lat="46.0128070" lon="6.9549529">
        <ele>1811.07</ele>
        <time>2019-09-10T06:10:18Z</time>
      </trkpt>
      <trkpt lat="46.0127050" lon="6.9549593">
        <ele>1809.95</ele>
        <time>2019-09-10T06:10:28Z</time>
      </trkpt>
      <trkpt lat="46.0126141" lon="6.9549941">
        <ele>1808.04</ele>
        <time>2019-09-10T06:10:36Z</time>
      </trkpt>
      <trkpt lat="46.0125110" lon="6.9549808">
        <ele>1806.97</ele>
        <time>2019-09-10T06:10:44Z</time>
      </trkpt>
      <trkpt lat="46.0124118" lon="6.9549313">
        <ele>1805.95</ele>
        <time>2019-09-10T06:10:52Z</time>
      </trkpt>
      <trkpt lat="46.0123197" lon="6.9548664">
        <ele>1804.25</ele>
        <time>2019-09-10T06:11:02Z</time>
      </trkpt>
      <trkpt lat="46.0122375" lon="6.9548112">
        <ele>1802.97</ele>
        <time>2019-09-10T06:11:12Z</time>
      </trkpt>
      <trkpt lat="46.0121398" lon="6.9547706">
        <ele>1802.01</ele>
        <time>2019-09-10T06:11:22Z</time>
      </trkpt>
      <trkpt lat="46.0120683" lon="6.9546692">
        <ele>1801.94</ele>
        <time>2019-09-10T06:11:30Z</time>
      </trkpt>
      <trkpt lat="46.0119870" lon="6.9546028">
        <ele>1800.27</ele>
        <time>2019-09-10T06:11:42Z</time>
      </trkpt>
      <trkpt lat="46.0118939" lon="6.9546681">
        <ele>1797.97</ele>
        <time>2019-09-10T06:11:52Z</time>
      </trkpt>
      <trkpt lat="46.0117843" lon="6.9546776">
        <ele>1795.95</ele>
        <time>2019-09-10T06:12:04Z</time>
      </trkpt>
      <trkpt lat="46.0116911" lon="6.9546511">
        <ele>1793.97</ele>
        <time>2019-09-10T06:12:14Z</time>
      </trkpt>
      <trkpt lat="46.0116169" lon="6.9545531">
        <ele>1793.03</ele>
        <time>2019-09-10T06:12:24Z</time>
      </trkpt>
      <trkpt lat="46.0116730" lon="6.9544478">
        <ele>1791.27</ele>
        <time>2019-09-10T06:12:34Z</time>
      </trkpt>
      <trkpt lat="46.0117402" lon="6.9543593">
        <ele>1789.24</ele>
        <time>2019-09-10T06:12:48Z</time>
      </trkpt>
      <trkpt lat="46.0118410" lon="6.9543089">
        <ele>1787.33</ele>
        <time>2019-09-10T06:12:58Z</time>
      </trkpt>
      <trkpt lat="46.0119446" lon="6.9542935">
        <ele>1785.97</ele>
        <time>2019-09-10T06:13:08Z</time>
      </trkpt>
      <trkpt lat="46.0120349" lon="6.9543005">
        <ele>1784.94</ele>
        <time>2019-09-10T06:13:18Z</time>
      </trkpt>
      <trkpt lat="46.0120253" lon="6.9541469">
        <ele>1782.04</ele>
        <time>2019-09-10T06:13:34Z</time>
      </trkpt>
      <trkpt lat="46.0119831" lon="6.9540053">
        <ele>1780.04</ele>
        <time>2019-09-10T06:13:44Z</time>
      </trkpt>
      <trkpt lat="46.0119087" lon="6.9539009">
        <ele>1776.34</ele>
        <time>2019-09-10T06:13:56Z</time>
      </trkpt>
      <trkpt lat="46.0118118" lon="6.9538346">
        <ele>1773.04</ele>
        <time>2019-09-10T06:14:08Z</time>
      </trkpt>
      <trkpt lat="46.0117502" lon="6.9537183">
        <ele>1770.27</ele>
        <time>2019-09-10T06:14:20Z</time>
      </trkpt>
      <trkpt lat="46.0116767" lon="6.9536328">
        <ele>1768.03</ele>
        <time>2019-09-10T06:14:32Z</time>
      </trkpt>
      <trkpt lat="46.0115692" lon="6.9536326">
        <ele>1766.94</ele>
        <time>2019-09-10T06:14:42Z</time>
      </trkpt>
      <trkpt lat="46.0114682" lon="6.9536477">
        <ele>1766.01</ele>
        <time>2019-09-10T06:14:52Z</time>
      </trkpt>
      <trkpt lat="46.0113742" lon="6.9535734">
        <ele>1763.32</ele>
        <time>2019-09-10T06:15:02Z</time>
      </trkpt>
      <trkpt lat="46.0113559" lon="6.9534313">
        <ele>1761.06</ele>
        <time>2019-09-10T06:15:12Z</time>
      </trkpt>
      <trkpt lat="46.0114249" lon="6.9533126">
        <ele>1758.27</ele>
        <time>2019-09-10T06:15:24Z</time>
      </trkpt>
      <trkpt lat="46.0114578" lon="6.9531670">
        <ele>1755.94</ele>
        <time>2019-09-10T06:15:38Z</time>
      </trkpt>
      <trkpt lat="46.0114787" lon="6.9530093">
        <ele>1752.97</ele>
        <time>2019-09-10T06:15:50Z</time>
      </trkpt>
      <trkpt lat="46.0113989" lon="6.9529283">
        <ele>1747.27</ele>
        <time>2019-09-10T06:16:10Z</time>
      </trkpt>
      <trkpt lat="46.0113068" lon="6.9529549">
        <ele>1746.94</ele>
        <time>2019-09-10T06:16:18Z</time>
      </trkpt>
      <trkpt lat="46.0112136" lon="6.9529977">
        <ele>1745.03</ele>
        <time>2019-09-10T06:16:28Z</time>
      </trkpt>
      <trkpt lat="46.0112611" lon="6.9528702">
        <ele>1741.03</ele>
        <time>2019-09-10T06:16:52Z</time>
      </trkpt>
      <trkpt lat="46.0111595" lon="6.9528529">
        <ele>1739.94</ele>
        <time>2019-09-10T06:17:02Z</time>
      </trkpt>
      <trkpt lat="46.0110593" lon="6.9528099">
        <ele>1740.01</ele>
        <time>2019-09-10T06:17:12Z</time>
      </trkpt>
      <trkpt lat="46.0109623" lon="6.9527813">
        <ele>1736.07</ele>
        <time>2019-09-10T06:17:24Z</time>
      </trkpt>
      <trkpt lat="46.0108611" lon="6.9527377">
        <ele>1733.01</ele>
        <time>2019-09-10T06:17:38Z</time>
      </trkpt>
      <trkpt lat="46.0107633" lon="6.9527305">
        <ele>1731.04</ele>
        <time>2019-09-10T06:17:48Z</time>
      </trkpt>
      <trkpt lat="46.0106633" lon="6.9527454">
        <ele>1729.03</ele>
        <time>2019-09-10T06:17:58Z</time>
      </trkpt>
      <trkpt lat="46.0105583" lon="6.9527169">
        <ele>1727.94</ele>
        <time>2019-09-10T06:18:08Z</time>
      </trkpt>
      <trkpt lat="46.0104641" lon="6.9526641">
        <ele>1726.94</ele>
        <time>2019-09-10T06:18:18Z</time>
      </trkpt>
      <trkpt lat="46.0103745" lon="6.9526012">
        <ele>1725.18</ele>
        <time>2019-09-10T06:18:30Z</time>
      </trkpt>
      <trkpt lat="46.0102969" lon="6.9525354">
        <ele>1723.24</ele>
        <time>2019-09-10T06:18:42Z</time>
      </trkpt>
      <trkpt lat="46.0102042" lon="6.9524942">
        <ele>1721.94</ele>
        <time>2019-09-10T06:18:54Z</time>
      </trkpt>
      <trkpt lat="46.0101078" lon="6.9524540">
        <ele>1785.84</ele>
        <time>2019-09-10T06:19:04Z</time>
      </trkpt>
      <trkpt lat="46.0100024" lon="6.9524193">
        <ele>1732.71</ele>
        <time>2019-09-10T06:19:14Z</time>
      </trkpt>
      <trkpt lat="46.0098953" lon="6.9523944">
        <ele>1720.00</ele>
        <time>2019-09-10T06:19:24Z</time>
      </trkpt>
      <trkpt lat="46.0097992" lon="6.9523992">
        <ele>1714.38</ele>
        <time>2019-09-10T06:19:32Z</time>
      </trkpt>
      <trkpt lat="46.0096977" lon="6.9523955">
        <ele>1710.37</ele>
        <time>2019-09-10T06:19:42Z</time>
      </trkpt>
      <trkpt lat="46.0096024" lon="6.9523285">
        <ele>1708.27</ele>
        <time>2019-09-10T06:19:52Z</time>
      </trkpt>
      <trkpt lat="46.0095054" lon="6.9523436">
        <ele>1705.33</ele>
        <time>2019-09-10T06:20:04Z</time>
      </trkpt>
      <trkpt lat="46.0094472" lon="6.9522350">
        <ele>1707.34</ele>
        <time>2019-09-10T06:20:12Z</time>
      </trkpt>
      <trkpt lat="46.0093769" lon="6.9521317">
        <ele>1705.93</ele>
        <time>2019-09-10T06:20:20Z</time>
      </trkpt>
      <trkpt lat="46.0092989" lon="6.9520341">
        <ele>1705.94</ele>
        <time>2019-09-10T06:20:26Z</time>
      </trkpt>
      <trkpt lat="46.0092208" lon="6.9519658">
        <ele>1705.94</ele>
        <time>2019-09-10T06:20:34Z</time>
      </trkpt>
      <trkpt lat="46.0091307" lon="6.9518734">
        <ele>1704.95</ele>
        <time>2019-09-10T06:20:42Z</time>
      </trkpt>
      <trkpt lat="46.0090291" lon="6.9518579">
        <ele>1704.65</ele>
        <time>2019-09-10T06:20:52Z</time>
      </trkpt>
      <trkpt lat="46.0089264" lon="6.9518164">
        <ele>1703.94</ele>
        <time>2019-09-10T06:21:02Z</time>
      </trkpt>
      <trkpt lat="46.0088308" lon="6.9517892">
        <ele>1703.24</ele>
        <time>2019-09-10T06:21:12Z</time>
      </trkpt>
      <trkpt lat="46.0087317" lon="6.9517876">
        <ele>1701.97</ele>
        <time>2019-09-10T06:21:22Z</time>
      </trkpt>
      <trkpt lat="46.0086589" lon="6.9517093">
        <ele>1699.13</ele>
        <time>2019-09-10T06:21:38Z</time>
      </trkpt>
      <trkpt lat="46.0085475" lon="6.9516646">
        <ele>1697.04</ele>
        <time>2019-09-10T06:21:46Z</time>
      </trkpt>
      <trkpt lat="46.0084377" lon="6.9516341">
        <ele>1697.34</ele>
        <time>2019-09-10T06:21:54Z</time>
      </trkpt>
      <trkpt lat="46.0083317" lon="6.9516603">
        <ele>1693.45</ele>
        <time>2019-09-10T06:22:02Z</time>
      </trkpt>
      <trkpt lat="46.0082644" lon="6.9518056">
        <ele>1687.61</ele>
        <time>2019-09-10T06:22:10Z</time>
      </trkpt>
      <trkpt lat="46.0082232" lon="6.9519299">
        <ele>1683.37</ele>
        <time>2019-09-10T06:22:18Z</time>
      </trkpt>
      <trkpt lat="46.0082447" lon="6.9517843">
        <ele>1675.95</ele>
        <time>2019-09-10T06:22:48Z</time>
      </trkpt>
      <trkpt lat="46.0083276" lon="6.9516879">
        <ele>1673.04</ele>
        <time>2019-09-10T06:23:00Z</time>
      </trkpt>
      <trkpt lat="46.0083949" lon="6.9515882">
        <ele>1672.24</ele>
        <time>2019-09-10T06:23:10Z</time>
      </trkpt>
      <trkpt lat="46.0084101" lon="6.9514409">
        <ele>1670.97</ele>
        <time>2019-09-10T06:23:20Z</time>
      </trkpt>
      <trkpt lat="46.0084118" lon="6.9513080">
        <ele>1669.95</ele>
        <time>2019-09-10T06:23:28Z</time>
      </trkpt>
      <trkpt lat="46.0084115" lon="6.9511662">
        <ele>1669.94</ele>
        <time>2019-09-10T06:23:36Z</time>
      </trkpt>
      <trkpt lat="46.0083478" lon="6.9510707">
        <ele>1671.88</ele>
        <time>2019-09-10T06:23:50Z</time>
      </trkpt>
      <trkpt lat="46.0082911" lon="6.9511792">
        <ele>1665.97</ele>
        <time>2019-09-10T06:23:58Z</time>
      </trkpt>
      <trkpt lat="46.0082284" lon="6.9512945">
        <ele>1663.04</ele>
        <time>2019-09-10T06:24:08Z</time>
      </trkpt>
      <trkpt lat="46.0081308" lon="6.9513019">
        <ele>1661.24</ele>
        <time>2019-09-10T06:24:20Z</time>
      </trkpt>
      <trkpt lat="46.0081243" lon="6.9511696">
        <ele>1655.34</ele>
        <time>2019-09-10T06:24:46Z</time>
      </trkpt>
      <trkpt lat="46.0081722" lon="6.9510528">
        <ele>1645.28</ele>
        <time>2019-09-10T06:25:04Z</time>
      </trkpt>
      <trkpt lat="46.0080734" lon="6.9510464">
        <ele>1637.27</ele>
        <time>2019-09-10T06:25:24Z</time>
      </trkpt>
      <trkpt lat="46.0080148" lon="6.9509455">
        <ele>1631.07</ele>
        <time>2019-09-10T06:25:46Z</time>
      </trkpt>
      <trkpt lat="46.0080979" lon="6.9508741">
        <ele>1628.97</ele>
        <time>2019-09-10T06:25:58Z</time>
      </trkpt>
      <trkpt lat="46.0081893" lon="6.9508119">
        <ele>1627.03</ele>
        <time>2019-09-10T06:26:08Z</time>
      </trkpt>
      <trkpt lat="46.0082709" lon="6.9507209">
        <ele>1626.03</ele>
        <time>2019-09-10T06:26:18Z</time>
      </trkpt>
      <trkpt lat="46.0082421" lon="6.9505732">
        <ele>1624.97</ele>
        <time>2019-09-10T06:26:26Z</time>
      </trkpt>
      <trkpt lat="46.0082101" lon="6.9504495">
        <ele>1622.00</ele>
        <time>2019-09-10T06:26:36Z</time>
      </trkpt>
      <trkpt lat="46.0082436" lon="6.9503199">
        <ele>1615.28</ele>
        <time>2019-09-10T06:26:54Z</time>
      </trkpt>
      <trkpt lat="46.0082732" lon="6.9501903">
        <ele>1612.27</ele>
        <time>2019-09-10T06:27:06Z</time>
      </trkpt>
      <trkpt lat="46.0082706" lon="6.9500545">
        <ele>1610.95</ele>
        <time>2019-09-10T06:27:16Z</time>
      </trkpt>
      <trkpt lat="46.0083039" lon="6.9499270">
        <ele>1608.27</ele>
        <time>2019-09-10T06:27:26Z</time>
      </trkpt>
      <trkpt lat="46.0083313" lon="6.9498028">
        <ele>1604.07</ele>
        <time>2019-09-10T06:27:36Z</time>
      </trkpt>
      <trkpt lat="46.0082373" lon="6.9498070">
        <ele>1603.03</ele>
        <time>2019-09-10T06:27:48Z</time>
      </trkpt>
      <trkpt lat="46.0081426" lon="6.9498196">
        <ele>1607.92</ele>
        <time>2019-09-10T06:27:58Z</time>
      </trkpt>
      <trkpt lat="46.0080446" lon="6.9498454">
        <ele>1594.25</ele>
        <time>2019-09-10T06:28:24Z</time>
      </trkpt>
      <trkpt lat="46.0079537" lon="6.9498578">
        <ele>1589.28</ele>
        <time>2019-09-10T06:28:40Z</time>
      </trkpt>
      <trkpt lat="46.0079197" lon="6.9497292">
        <ele>1585.28</ele>
        <time>2019-09-10T06:28:52Z</time>
      </trkpt>
      <trkpt lat="46.0079266" lon="6.9495997">
        <ele>1584.03</ele>
        <time>2019-09-10T06:29:02Z</time>
      </trkpt>
      <trkpt lat="46.0079147" lon="6.9494551">
        <ele>1582.24</ele>
        <time>2019-09-10T06:29:14Z</time>
      </trkpt>
      <trkpt lat="46.0079143" lon="6.9493211">
        <ele>1579.27</ele>
        <time>2019-09-10T06:29:28Z</time>
      </trkpt>
      <trkpt lat="46.0079445" lon="6.9491802">
        <ele>1577.06</ele>
        <time>2019-09-10T06:29:38Z</time>
      </trkpt>
      <trkpt lat="46.0079944" lon="6.9490553">
        <ele>1575.95</ele>
        <time>2019-09-10T06:29:46Z</time>
      </trkpt>
      <trkpt lat="46.0080513" lon="6.9489296">
        <ele>1574.25</ele>
        <time>2019-09-10T06:29:54Z</time>
      </trkpt>
      <trkpt lat="46.0081444" lon="6.9488785">
        <ele>1572.97</ele>
        <time>2019-09-10T06:30:04Z</time>
      </trkpt>
      <trkpt lat="46.0082258" lon="6.9488227">
        <ele>1572.03</ele>
        <time>2019-09-10T06:30:14Z</time>
      </trkpt>
      <trkpt lat="46.0081681" lon="6.9487161">
        <ele>1571.94</ele>
        <time>2019-09-10T06:30:22Z</time>
      </trkpt>
      <trkpt lat="46.0080953" lon="6.9486338">
        <ele>1570.97</ele>
        <time>2019-09-10T06:30:30Z</time>
      </trkpt>
      <trkpt lat="46.0080110" lon="6.9485880">
        <ele>1569.27</ele>
        <time>2019-09-10T06:30:38Z</time>
      </trkpt>
      <trkpt lat="46.0079186" lon="6.9485510">
        <ele>1568.03</ele>
        <time>2019-09-10T06:30:46Z</time>
      </trkpt>
      <trkpt lat="46.0078161" lon="6.9485363">
        <ele>1566.03</ele>
        <time>2019-09-10T06:30:58Z</time>
      </trkpt>
      <trkpt lat="46.0077218" lon="6.9485334">
        <ele>1565.94</ele>
        <time>2019-09-10T06:31:06Z</time>
      </trkpt>
      <trkpt lat="46.0076277" lon="6.9485119">
        <ele>1565.16</ele>
        <time>2019-09-10T06:31:14Z</time>
      </trkpt>
      <trkpt lat="46.0075212" lon="6.9485412">
        <ele>1561.43</ele>
        <time>2019-09-10T06:31:24Z</time>
      </trkpt>
      <trkpt lat="46.0074858" lon="6.9486866">
        <ele>1555.73</ele>
        <time>2019-09-10T06:31:30Z</time>
      </trkpt>
      <trkpt lat="46.0074159" lon="6.9487764">
        <ele>1552.28</ele>
        <time>2019-09-10T06:31:38Z</time>
      </trkpt>
      <trkpt lat="46.0073390" lon="6.9488630">
        <ele>1549.28</ele>
        <time>2019-09-10T06:31:46Z</time>
      </trkpt>
      <trkpt lat="46.0072477" lon="6.9489281">
        <ele>1538.37</ele>
        <time>2019-09-10T06:35:34Z</time>
      </trkpt>
      <trkpt lat="46.0071469" lon="6.9489080">
        <ele>1535.32</ele>
        <time>2019-09-10T06:35:44Z</time>
      </trkpt>
      <trkpt lat="46.0070380" lon="6.9489110">
        <ele>1532.97</ele>
        <time>2019-09-10T06:35:54Z</time>
      </trkpt>
      <trkpt lat="46.0069412" lon="6.9489350">
        <ele>1532.03</ele>
        <time>2019-09-10T06:36:02Z</time>
      </trkpt>
      <trkpt lat="46.0068489" lon="6.9489626">
        <ele>1529.95</ele>
        <time>2019-09-10T06:36:12Z</time>
      </trkpt>
      <trkpt lat="46.0067375" lon="6.9489745">
        <ele>1525.31</ele>
        <time>2019-09-10T06:36:22Z</time>
      </trkpt>
      <trkpt lat="46.0066405" lon="6.9489267">
        <ele>1549.10</ele>
        <time>2019-09-10T06:36:30Z</time>
      </trkpt>
      <trkpt lat="46.0065420" lon="6.9489626">
        <ele>1531.27</ele>
        <time>2019-09-10T06:36:40Z</time>
      </trkpt>
      <trkpt lat="46.0064525" lon="6.9489970">
        <ele>1560.67</ele>
        <time>2019-09-10T06:36:46Z</time>
      </trkpt>
      <trkpt lat="46.0063736" lon="6.9489334">
        <ele>1525.08</ele>
        <time>2019-09-10T06:36:58Z</time>
      </trkpt>
      <trkpt lat="46.0062695" lon="6.9488781">
        <ele>1509.35</ele>
        <time>2019-09-10T06:37:08Z</time>
      </trkpt>
      <trkpt lat="46.0061649" lon="6.9488882">
        <ele>1509.38</ele>
        <time>2019-09-10T06:37:18Z</time>
      </trkpt>
      <trkpt lat="46.0060587" lon="6.9488203">
        <ele>1506.92</ele>
        <time>2019-09-10T06:37:32Z</time>
      </trkpt>
      <trkpt lat="46.0059708" lon="6.9487786">
        <ele>1504.89</ele>
        <time>2019-09-10T06:37:40Z</time>
      </trkpt>
      <trkpt lat="46.0058878" lon="6.9487190">
        <ele>1505.76</ele>
        <time>2019-09-10T06:37:50Z</time>
      </trkpt>
      <trkpt lat="46.0057881" lon="6.9486458">
        <ele>1504.95</ele>
        <time>2019-09-10T06:38:00Z</time>
      </trkpt>
      <trkpt lat="46.0057054" lon="6.9485805">
        <ele>1503.97</ele>
        <time>2019-09-10T06:38:08Z</time>
      </trkpt>
      <trkpt lat="46.0056210" lon="6.9485236">
        <ele>1505.97</ele>
        <time>2019-09-10T06:38:42Z</time>
      </trkpt>
      <trkpt lat="46.0055457" lon="6.9484293">
        <ele>1505.31</ele>
        <time>2019-09-10T06:39:08Z</time>
      </trkpt>
      <trkpt lat="46.0054441" lon="6.9483648">
        <ele>1504.24</ele>
        <time>2019-09-10T06:39:16Z</time>
      </trkpt>
      <trkpt lat="46.0053333" lon="6.9483303">
        <ele>1503.03</ele>
        <time>2019-09-10T06:39:26Z</time>
      </trkpt>
      <trkpt lat="46.0052293" lon="6.9483429">
        <ele>1503.07</ele>
        <time>2019-09-10T06:39:34Z</time>
      </trkpt>
      <trkpt lat="46.0051467" lon="6.9482909">
        <ele>1498.38</ele>
        <time>2019-09-10T06:39:42Z</time>
      </trkpt>
      <trkpt lat="46.0050655" lon="6.9482212">
        <ele>1497.20</ele>
        <time>2019-09-10T06:39:48Z</time>
      </trkpt>
      <trkpt lat="46.0049638" lon="6.9482150">
        <ele>1494.56</ele>
        <time>2019-09-10T06:39:56Z</time>
      </trkpt>
      <trkpt lat="46.0048654" lon="6.9482002">
        <ele>1493.82</ele>
        <time>2019-09-10T06:40:06Z</time>
      </trkpt>
      <trkpt lat="46.0047717" lon="6.9481156">
        <ele>1494.38</ele>
        <time>2019-09-10T06:40:16Z</time>
      </trkpt>
      <trkpt lat="46.0046669" lon="6.9480690">
        <ele>1494.03</ele>
        <time>2019-09-10T06:40:24Z</time>
      </trkpt>
      <trkpt lat="46.0045779" lon="6.9480257">
        <ele>1492.95</ele>
        <time>2019-09-10T06:40:32Z</time>
      </trkpt>
      <trkpt lat="46.0044829" lon="6.9479523">
        <ele>1492.94</ele>
        <time>2019-09-10T06:40:42Z</time>
      </trkpt>
      <trkpt lat="46.0043941" lon="6.9478506">
        <ele>1492.94</ele>
        <time>2019-09-10T06:40:52Z</time>
      </trkpt>
      <trkpt lat="46.0043115" lon="6.9477509">
        <ele>1491.95</ele>
        <time>2019-09-10T06:41:00Z</time>
      </trkpt>
      <trkpt lat="46.0042330" lon="6.9476774">
        <ele>1491.15</ele>
        <time>2019-09-10T06:41:10Z</time>
      </trkpt>
      <trkpt lat="46.0041700" lon="6.9475764">
        <ele>1491.85</ele>
        <time>2019-09-10T06:41:20Z</time>
      </trkpt>
      <trkpt lat="46.0040771" lon="6.9475024">
        <ele>1493.00</ele>
        <time>2019-09-10T06:41:30Z</time>
      </trkpt>
      <trkpt lat="46.0040343" lon="6.9473775">
        <ele>1492.24</ele>
        <time>2019-09-10T06:41:42Z</time>
      </trkpt>
      <trkpt lat="46.0039327" lon="6.9473467">
        <ele>1491.94</ele>
        <time>2019-09-10T06:41:50Z</time>
      </trkpt>
      <trkpt lat="46.0038424" lon="6.9472885">
        <ele>1491.03</ele>
        <time>2019-09-10T06:41:58Z</time>
      </trkpt>
      <trkpt lat="46.0038182" lon="6.9471377">
        <ele>1490.18</ele>
        <time>2019-09-10T06:42:06Z</time>
      </trkpt>
      <trkpt lat="46.0038703" lon="6.9470158">
        <ele>1489.67</ele>
        <time>2019-09-10T06:42:14Z</time>
      </trkpt>
      <trkpt lat="46.0038174" lon="6.9469025">
        <ele>1488.25</ele>
        <time>2019-09-10T06:42:22Z</time>
      </trkpt>
      <trkpt lat="46.0038237" lon="6.9467529">
        <ele>1486.95</ele>
        <time>2019-09-10T06:42:40Z</time>
      </trkpt>
      <trkpt lat="46.0038894" lon="6.9466444">
        <ele>1485.97</ele>
        <time>2019-09-10T06:42:50Z</time>
      </trkpt>
      <trkpt lat="46.0039286" lon="6.9465263">
        <ele>1484.97</ele>
        <time>2019-09-10T06:42:58Z</time>
      </trkpt>
      <trkpt lat="46.0039089" lon="6.9463732">
        <ele>1484.26</ele>
        <time>2019-09-10T06:43:06Z</time>
      </trkpt>
      <trkpt lat="46.0038941" lon="6.9462315">
        <ele>1482.97</ele>
        <time>2019-09-10T06:43:14Z</time>
      </trkpt>
      <trkpt lat="46.0039228" lon="6.9460628">
        <ele>1474.25</ele>
        <time>2019-09-10T06:43:23Z</time>
      </trkpt>
      <trkpt lat="46.0039314" lon="6.9459168">
        <ele>1475.73</ele>
        <time>2019-09-10T06:43:31Z</time>
      </trkpt>
      <trkpt lat="46.0038799" lon="6.9457655">
        <ele>1474.04</ele>
        <time>2019-09-10T06:43:39Z</time>
      </trkpt>
      <trkpt lat="46.0038358" lon="6.9456387">
        <ele>1470.01</ele>
        <time>2019-09-10T06:43:49Z</time>
      </trkpt>
      <trkpt lat="46.0038739" lon="6.9455120">
        <ele>1469.94</ele>
        <time>2019-09-10T06:43:59Z</time>
      </trkpt>
      <trkpt lat="46.0038984" lon="6.9453804">
        <ele>1468.94</ele>
        <time>2019-09-10T06:44:11Z</time>
      </trkpt>
      <trkpt lat="46.0039404" lon="6.9452539">
        <ele>1471.55</ele>
        <time>2019-09-10T06:44:23Z</time>
      </trkpt>
      <trkpt lat="46.0039795" lon="6.9451210">
        <ele>1472.24</ele>
        <time>2019-09-10T06:44:35Z</time>
      </trkpt>
      <trkpt lat="46.0040086" lon="6.9449815">
        <ele>1472.93</ele>
        <time>2019-09-10T06:44:45Z</time>
      </trkpt>
      <trkpt lat="46.0040086" lon="6.9448233">
        <ele>1472.94</ele>
        <time>2019-09-10T06:44:57Z</time>
      </trkpt>
      <trkpt lat="46.0040101" lon="6.9446844">
        <ele>1472.94</ele>
        <time>2019-09-10T06:45:07Z</time>
      </trkpt>
      <trkpt lat="46.0040286" lon="6.9445523">
        <ele>1474.85</ele>
        <time>2019-09-10T06:45:17Z</time>
      </trkpt>
      <trkpt lat="46.0039870" lon="6.9444103">
        <ele>1484.20</ele>
        <time>2019-09-10T06:45:33Z</time>
      </trkpt>
      <trkpt lat="46.0039257" lon="6.9443155">
        <ele>1483.12</ele>
        <time>2019-09-10T06:45:41Z</time>
      </trkpt>
      <trkpt lat="46.0039754" lon="6.9441874">
        <ele>1480.06</ele>
        <time>2019-09-10T06:45:52Z</time>
      </trkpt>
      <trkpt lat="46.0040560" lon="6.9441041">
        <ele>1480.64</ele>
        <time>2019-09-10T06:46:02Z</time>
      </trkpt>
      <trkpt lat="46.0040723" lon="6.9439714">
        <ele>1482.82</ele>
        <time>2019-09-10T06:46:10Z</time>
      </trkpt>
      <trkpt lat="46.0040698" lon="6.9438353">
        <ele>1484.63</ele>
        <time>2019-09-10T06:46:20Z</time>
      </trkpt>
      <trkpt lat="46.0041012" lon="6.9436878">
        <ele>1484.92</ele>
        <time>2019-09-10T06:46:30Z</time>
      </trkpt>
      <trkpt lat="46.0041041" lon="6.9435430">
        <ele>1484.94</ele>
        <time>2019-09-10T06:46:40Z</time>
      </trkpt>
      <trkpt lat="46.0040856" lon="6.9434135">
        <ele>1487.61</ele>
        <time>2019-09-10T06:46:50Z</time>
      </trkpt>
      <trkpt lat="46.0040380" lon="6.9432899">
        <ele>1486.94</ele>
        <time>2019-09-10T06:47:02Z</time>
      </trkpt>
      <trkpt lat="46.0040077" lon="6.9431466">
        <ele>1486.94</ele>
        <time>2019-09-10T06:47:14Z</time>
      </trkpt>
      <trkpt lat="46.0039406" lon="6.9430299">
        <ele>1485.91</ele>
        <time>2019-09-10T06:47:22Z</time>
      </trkpt>
      <trkpt lat="46.0038536" lon="6.9429618">
        <ele>1486.93</ele>
        <time>2019-09-10T06:47:32Z</time>
      </trkpt>
      <trkpt lat="46.0037567" lon="6.9429231">
        <ele>1487.02</ele>
        <time>2019-09-10T06:47:40Z</time>
      </trkpt>
      <trkpt lat="46.0037439" lon="6.9427871">
        <ele>1488.55</ele>
        <time>2019-09-10T06:47:52Z</time>
      </trkpt>
      <trkpt lat="46.0036871" lon="6.9426807">
        <ele>1489.85</ele>
        <time>2019-09-10T06:48:00Z</time>
      </trkpt>
      <trkpt lat="46.0036519" lon="6.9425371">
        <ele>1490.85</ele>
        <time>2019-09-10T06:48:10Z</time>
      </trkpt>
      <trkpt lat="46.0036376" lon="6.9423819">
        <ele>1492.91</ele>
        <time>2019-09-10T06:48:24Z</time>
      </trkpt>
      <trkpt lat="46.0035807" lon="6.9422629">
        <ele>1494.84</ele>
        <time>2019-09-10T06:48:34Z</time>
      </trkpt>
      <trkpt lat="46.0035435" lon="6.9421230">
        <ele>1495.94</ele>
        <time>2019-09-10T06:48:44Z</time>
      </trkpt>
      <trkpt lat="46.0035265" lon="6.9419793">
        <ele>1496.64</ele>
        <time>2019-09-10T06:48:54Z</time>
      </trkpt>
      <trkpt lat="46.0035144" lon="6.9418499">
        <ele>1495.95</ele>
        <time>2019-09-10T06:49:02Z</time>
      </trkpt>
      <trkpt lat="46.0035084" lon="6.9417092">
        <ele>1496.93</ele>
        <time>2019-09-10T06:49:12Z</time>
      </trkpt>
      <trkpt lat="46.0034835" lon="6.9415737">
        <ele>1497.93</ele>
        <time>2019-09-10T06:49:22Z</time>
      </trkpt>
      <trkpt lat="46.0034712" lon="6.9414371">
        <ele>1497.94</ele>
        <time>2019-09-10T06:49:32Z</time>
      </trkpt>
      <trkpt lat="46.0034429" lon="6.9412978">
        <ele>1498.15</ele>
        <time>2019-09-10T06:49:40Z</time>
      </trkpt>
      <trkpt lat="46.0034233" lon="6.9411600">
        <ele>1498.94</ele>
        <time>2019-09-10T06:49:48Z</time>
      </trkpt>
      <trkpt lat="46.0033566" lon="6.9410376">
        <ele>1498.94</ele>
        <time>2019-09-10T06:50:00Z</time>
      </trkpt>
      <trkpt lat="46.0032773" lon="6.9409213">
        <ele>1498.94</ele>
        <time>2019-09-10T06:50:10Z</time>
      </trkpt>
      <trkpt lat="46.0032295" lon="6.9407707">
        <ele>1498.94</ele>
        <time>2019-09-10T06:50:18Z</time>
      </trkpt>
      <trkpt lat="46.0032071" lon="6.9406147">
        <ele>1498.94</ele>
        <time>2019-09-10T06:50:26Z</time>
      </trkpt>
      <trkpt lat="46.0031516" lon="6.9404755">
        <ele>1498.03</ele>
        <time>2019-09-10T06:50:34Z</time>
      </trkpt>
      <trkpt lat="46.0030747" lon="6.9404080">
        <ele>1497.03</ele>
        <time>2019-09-10T06:50:40Z</time>
      </trkpt>
      <trkpt lat="46.0029877" lon="6.9403344">
        <ele>1495.04</ele>
        <time>2019-09-10T06:50:48Z</time>
      </trkpt>
      <trkpt lat="46.0030391" lon="6.9402196">
        <ele>1495.92</ele>
        <time>2019-09-10T06:51:02Z</time>
      </trkpt>
      <trkpt lat="46.0030509" lon="6.9400697">
        <ele>1495.97</ele>
        <time>2019-09-10T06:51:18Z</time>
      </trkpt>
      <trkpt lat="46.0029807" lon="6.9399683">
        <ele>1496.00</ele>
        <time>2019-09-10T06:51:32Z</time>
      </trkpt>
      <trkpt lat="46.0029647" lon="6.9398210">
        <ele>1494.97</ele>
        <time>2019-09-10T06:51:40Z</time>
      </trkpt>
      <trkpt lat="46.0029578" lon="6.9396832">
        <ele>1493.03</ele>
        <time>2019-09-10T06:51:50Z</time>
      </trkpt>
      <trkpt lat="46.0029293" lon="6.9395499">
        <ele>1494.63</ele>
        <time>2019-09-10T06:52:02Z</time>
      </trkpt>
      <trkpt lat="46.0028846" lon="6.9394366">
        <ele>1497.61</ele>
        <time>2019-09-10T06:52:12Z</time>
      </trkpt>
      <trkpt lat="46.0028682" lon="6.9392846">
        <ele>1501.31</ele>
        <time>2019-09-10T06:52:24Z</time>
      </trkpt>
      <trkpt lat="46.0028038" lon="6.9391897">
        <ele>1502.64</ele>
        <time>2019-09-10T06:52:36Z</time>
      </trkpt>
      <trkpt lat="46.0027589" lon="6.9390385">
        <ele>1502.94</ele>
        <time>2019-09-10T06:52:44Z</time>
      </trkpt>
      <trkpt lat="46.0026976" lon="6.9389236">
        <ele>1503.01</ele>
        <time>2019-09-10T06:52:54Z</time>
      </trkpt>
      <trkpt lat="46.0026519" lon="6.9387987">
        <ele>1501.25</ele>
        <time>2019-09-10T06:53:02Z</time>
      </trkpt>
      <trkpt lat="46.0026177" lon="6.9386788">
        <ele>1501.94</ele>
        <time>2019-09-10T06:53:10Z</time>
      </trkpt>
      <trkpt lat="46.0025675" lon="6.9385487">
        <ele>1501.16</ele>
        <time>2019-09-10T06:53:20Z</time>
      </trkpt>
      <trkpt lat="46.0025649" lon="6.9384024">
        <ele>1501.03</ele>
        <time>2019-09-10T06:53:30Z</time>
      </trkpt>
      <trkpt lat="46.0025816" lon="6.9382724">
        <ele>1501.85</ele>
        <time>2019-09-10T06:53:40Z</time>
      </trkpt>
      <trkpt lat="46.0025475" lon="6.9381321">
        <ele>1500.94</ele>
        <time>2019-09-10T06:53:50Z</time>
      </trkpt>
      <trkpt lat="46.0025359" lon="6.9379988">
        <ele>1501.85</ele>
        <time>2019-09-10T06:53:58Z</time>
      </trkpt>
      <trkpt lat="46.0024699" lon="6.9378626">
        <ele>1500.97</ele>
        <time>2019-09-10T06:54:06Z</time>
      </trkpt>
      <trkpt lat="46.0024127" lon="6.9377529">
        <ele>1500.92</ele>
        <time>2019-09-10T06:54:14Z</time>
      </trkpt>
      <trkpt lat="46.0023631" lon="6.9376342">
        <ele>1499.95</ele>
        <time>2019-09-10T06:54:22Z</time>
      </trkpt>
      <trkpt lat="46.0023334" lon="6.9374811">
        <ele>1500.01</ele>
        <time>2019-09-10T06:54:32Z</time>
      </trkpt>
      <trkpt lat="46.0022469" lon="6.9373694">
        <ele>1499.94</ele>
        <time>2019-09-10T06:54:40Z</time>
      </trkpt>
      <trkpt lat="46.0021958" lon="6.9372593">
        <ele>1501.61</ele>
        <time>2019-09-10T06:54:48Z</time>
      </trkpt>
      <trkpt lat="46.0021176" lon="6.9371527">
        <ele>1500.95</ele>
        <time>2019-09-10T06:54:58Z</time>
      </trkpt>
      <trkpt lat="46.0020320" lon="6.9370563">
        <ele>1502.63</ele>
        <time>2019-09-10T06:55:08Z</time>
      </trkpt>
      <trkpt lat="46.0019558" lon="6.9369789">
        <ele>1502.87</ele>
        <time>2019-09-10T06:55:14Z</time>
      </trkpt>
      <trkpt lat="46.0019074" lon="6.9368656">
        <ele>1502.94</ele>
        <time>2019-09-10T06:55:22Z</time>
      </trkpt>
      <trkpt lat="46.0018438" lon="6.9367495">
        <ele>1503.24</ele>
        <time>2019-09-10T06:55:34Z</time>
      </trkpt>
      <trkpt lat="46.0017688" lon="6.9366296">
        <ele>1502.94</ele>
        <time>2019-09-10T06:55:42Z</time>
      </trkpt>
      <trkpt lat="46.0017035" lon="6.9365123">
        <ele>1502.94</ele>
        <time>2019-09-10T06:55:50Z</time>
      </trkpt>
      <trkpt lat="46.0016341" lon="6.9364051">
        <ele>1503.85</ele>
        <time>2019-09-10T06:56:00Z</time>
      </trkpt>
      <trkpt lat="46.0015600" lon="6.9363097">
        <ele>1503.94</ele>
        <time>2019-09-10T06:56:08Z</time>
      </trkpt>
      <trkpt lat="46.0014730" lon="6.9362082">
        <ele>1503.94</ele>
        <time>2019-09-10T06:56:16Z</time>
      </trkpt>
      <trkpt lat="46.0014107" lon="6.9361067">
        <ele>1504.15</ele>
        <time>2019-09-10T06:56:24Z</time>
      </trkpt>
      <trkpt lat="46.0013306" lon="6.9360261">
        <ele>1501.98</ele>
        <time>2019-09-10T06:56:32Z</time>
      </trkpt>
      <trkpt lat="46.0012359" lon="6.9359476">
        <ele>1502.92</ele>
        <time>2019-09-10T06:56:42Z</time>
      </trkpt>
      <trkpt lat="46.0011612" lon="6.9358540">
        <ele>1502.24</ele>
        <time>2019-09-10T06:56:52Z</time>
      </trkpt>
      <trkpt lat="46.0010822" lon="6.9357455">
        <ele>1501.24</ele>
        <time>2019-09-10T06:59:28Z</time>
      </trkpt>
      <trkpt lat="46.0010738" lon="6.9356017">
        <ele>1500.94</ele>
        <time>2019-09-10T06:59:36Z</time>
      </trkpt>
      <trkpt lat="46.0009869" lon="6.9355193">
        <ele>1497.38</ele>
        <time>2019-09-10T06:59:48Z</time>
      </trkpt>
      <trkpt lat="46.0009648" lon="6.9353883">
        <ele>1495.27</ele>
        <time>2019-09-10T06:59:56Z</time>
      </trkpt>
      <trkpt lat="46.0010022" lon="6.9352558">
        <ele>1494.94</ele>
        <time>2019-09-10T07:00:08Z</time>
      </trkpt>
      <trkpt lat="46.0009088" lon="6.9351564">
        <ele>1493.03</ele>
        <time>2019-09-10T07:00:18Z</time>
      </trkpt>
      <trkpt lat="46.0008136" lon="6.9351454">
        <ele>1492.94</ele>
        <time>2019-09-10T07:00:26Z</time>
      </trkpt>
      <trkpt lat="46.0007104" lon="6.9351489">
        <ele>1492.24</ele>
        <time>2019-09-10T07:00:36Z</time>
      </trkpt>
      <trkpt lat="46.0006020" lon="6.9351401">
        <ele>1491.03</ele>
        <time>2019-09-10T07:00:46Z</time>
      </trkpt>
      <trkpt lat="46.0006376" lon="6.9350207">
        <ele>1488.98</ele>
        <time>2019-09-10T07:00:56Z</time>
      </trkpt>
      <trkpt lat="46.0006340" lon="6.9348717">
        <ele>1488.94</ele>
        <time>2019-09-10T07:01:08Z</time>
      </trkpt>
      <trkpt lat="46.0006216" lon="6.9347292">
        <ele>1489.02</ele>
        <time>2019-09-10T07:01:18Z</time>
      </trkpt>
      <trkpt lat="46.0006236" lon="6.9345792">
        <ele>1489.15</ele>
        <time>2019-09-10T07:01:28Z</time>
      </trkpt>
      <trkpt lat="46.0006443" lon="6.9344375">
        <ele>1490.02</ele>
        <time>2019-09-10T07:01:40Z</time>
      </trkpt>
      <trkpt lat="46.0005875" lon="6.9343185">
        <ele>1491.93</ele>
        <time>2019-09-10T07:01:54Z</time>
      </trkpt>
      <trkpt lat="46.0005012" lon="6.9342777">
        <ele>1491.65</ele>
        <time>2019-09-10T07:02:04Z</time>
      </trkpt>
      <trkpt lat="46.0005145" lon="6.9341457">
        <ele>1494.56</ele>
        <time>2019-09-10T07:02:28Z</time>
      </trkpt>
      <trkpt lat="46.0004177" lon="6.9341240">
        <ele>1495.91</ele>
        <time>2019-09-10T07:02:44Z</time>
      </trkpt>
      <trkpt lat="46.0003164" lon="6.9341562">
        <ele>1502.90</ele>
        <time>2019-09-10T07:03:12Z</time>
      </trkpt>
      <trkpt lat="46.0002256" lon="6.9340802">
        <ele>1509.52</ele>
        <time>2019-09-10T07:03:26Z</time>
      </trkpt>
      <trkpt lat="46.0002181" lon="6.9339474">
        <ele>1513.61</ele>
        <time>2019-09-10T07:03:38Z</time>
      </trkpt>
      <trkpt lat="46.0001885" lon="6.9338161">
        <ele>1515.55</ele>
        <time>2019-09-10T07:03:50Z</time>
      </trkpt>
      <trkpt lat="46.0001541" lon="6.9336873">
        <ele>1519.61</ele>
        <time>2019-09-10T07:04:04Z</time>
      </trkpt>
      <trkpt lat="46.0001365" lon="6.9335588">
        <ele>1521.63</ele>
        <time>2019-09-10T07:04:16Z</time>
      </trkpt>
      <trkpt lat="46.0001098" lon="6.9334185">
        <ele>1522.00</ele>
        <time>2019-09-10T07:04:26Z</time>
      </trkpt>
      <trkpt lat="46.0000851" lon="6.9332800">
        <ele>1525.63</ele>
        <time>2019-09-10T07:04:40Z</time>
      </trkpt>
      <trkpt lat="46.0000438" lon="6.9331622">
        <ele>1526.91</ele>
        <time>2019-09-10T07:04:50Z</time>
      </trkpt>
      <trkpt lat="46.0000252" lon="6.9330337">
        <ele>1528.21</ele>
        <time>2019-09-10T07:05:08Z</time>
      </trkpt>
      <trkpt lat="45.9999654" lon="6.9329153">
        <ele>1527.24</ele>
        <time>2019-09-10T07:05:38Z</time>
      </trkpt>
      <trkpt lat="45.9998946" lon="6.9328041">
        <ele>1529.61</ele>
        <time>2019-09-10T07:05:46Z</time>
      </trkpt>
      <trkpt lat="45.9998249" lon="6.9327143">
        <ele>1532.64</ele>
        <time>2019-09-10T07:06:08Z</time>
      </trkpt>
      <trkpt lat="45.9997738" lon="6.9325859">
        <ele>1533.91</ele>
        <time>2019-09-10T07:06:18Z</time>
      </trkpt>
      <trkpt lat="45.9997365" lon="6.9324423">
        <ele>1533.03</ele>
        <time>2019-09-10T07:06:28Z</time>
      </trkpt>
      <trkpt lat="45.9996894" lon="6.9323052">
        <ele>1532.65</ele>
        <time>2019-09-10T07:06:40Z</time>
      </trkpt>
      <trkpt lat="45.9996861" lon="6.9321577">
        <ele>1532.85</ele>
        <time>2019-09-10T07:07:02Z</time>
      </trkpt>
      <trkpt lat="45.9996367" lon="6.9320264">
        <ele>1532.94</ele>
        <time>2019-09-10T07:07:12Z</time>
      </trkpt>
      <trkpt lat="45.9995488" lon="6.9319707">
        <ele>1534.82</ele>
        <time>2019-09-10T07:07:18Z</time>
      </trkpt>
      <trkpt lat="45.9994560" lon="6.9319243">
        <ele>1533.90</ele>
        <time>2019-09-10T07:07:24Z</time>
      </trkpt>
      <trkpt lat="45.9994293" lon="6.9317864">
        <ele>1534.98</ele>
        <time>2019-09-10T07:07:30Z</time>
      </trkpt>
      <trkpt lat="45.9993753" lon="6.9316698">
        <ele>1535.91</ele>
        <time>2019-09-10T07:07:40Z</time>
      </trkpt>
      <trkpt lat="45.9993110" lon="6.9315717">
        <ele>1538.85</ele>
        <time>2019-09-10T07:07:50Z</time>
      </trkpt>
      <trkpt lat="45.9992091" lon="6.9315056">
        <ele>1543.00</ele>
        <time>2019-09-10T07:07:58Z</time>
      </trkpt>
      <trkpt lat="45.9991350" lon="6.9314190">
        <ele>1536.12</ele>
        <time>2019-09-10T07:08:06Z</time>
      </trkpt>
      <trkpt lat="45.9990729" lon="6.9313165">
        <ele>1534.66</ele>
        <time>2019-09-10T07:08:20Z</time>
      </trkpt>
      <trkpt lat="45.9989976" lon="6.9312375">
        <ele>1533.33</ele>
        <time>2019-09-10T07:08:28Z</time>
      </trkpt>
      <trkpt lat="45.9989798" lon="6.9311067">
        <ele>1529.98</ele>
        <time>2019-09-10T07:08:44Z</time>
      </trkpt>
      <trkpt lat="45.9988890" lon="6.9310592">
        <ele>1529.94</ele>
        <time>2019-09-10T07:08:52Z</time>
      </trkpt>
      <trkpt lat="45.9988002" lon="6.9310338">
        <ele>1529.24</ele>
        <time>2019-09-10T07:09:00Z</time>
      </trkpt>
      <trkpt lat="45.9987081" lon="6.9310577">
        <ele>1525.36</ele>
        <time>2019-09-10T07:09:14Z</time>
      </trkpt>
      <trkpt lat="45.9986704" lon="6.9311840">
        <ele>1522.27</ele>
        <time>2019-09-10T07:09:30Z</time>
      </trkpt>
      <trkpt lat="45.9985824" lon="6.9311276">
        <ele>1519.12</ele>
        <time>2019-09-10T07:09:42Z</time>
      </trkpt>
      <trkpt lat="45.9985210" lon="6.9310319">
        <ele>1516.96</ele>
        <time>2019-09-10T07:09:50Z</time>
      </trkpt>
      <trkpt lat="45.9984773" lon="6.9311608">
        <ele>1515.99</ele>
        <time>2019-09-10T07:09:58Z</time>
      </trkpt>
      <trkpt lat="45.9984698" lon="6.9313220">
        <ele>1514.81</ele>
        <time>2019-09-10T07:10:06Z</time>
      </trkpt>
      <trkpt lat="45.9984781" lon="6.9314635">
        <ele>1514.73</ele>
        <time>2019-09-10T07:10:16Z</time>
      </trkpt>
      <trkpt lat="45.9985048" lon="6.9316044">
        <ele>1514.32</ele>
        <time>2019-09-10T07:10:26Z</time>
      </trkpt>
      <trkpt lat="45.9985578" lon="6.9317172">
        <ele>1508.11</ele>
        <time>2019-09-10T07:10:38Z</time>
      </trkpt>
      <trkpt lat="45.9985296" lon="6.9318521">
        <ele>1504.62</ele>
        <time>2019-09-10T07:10:48Z</time>
      </trkpt>
      <trkpt lat="45.9985615" lon="6.9320165">
        <ele>1499.97</ele>
        <time>2019-09-10T07:11:04Z</time>
      </trkpt>
      <trkpt lat="45.9984704" lon="6.9319654">
        <ele>1497.97</ele>
        <time>2019-09-10T07:11:22Z</time>
      </trkpt>
      <trkpt lat="45.9983961" lon="6.9318588">
        <ele>1498.94</ele>
        <time>2019-09-10T07:11:34Z</time>
      </trkpt>
      <trkpt lat="45.9983017" lon="6.9317681">
        <ele>1497.97</ele>
        <time>2019-09-10T07:11:42Z</time>
      </trkpt>
      <trkpt lat="45.9982200" lon="6.9317043">
        <ele>1496.25</ele>
        <time>2019-09-10T07:11:50Z</time>
      </trkpt>
      <trkpt lat="45.9981446" lon="6.9316134">
        <ele>1495.03</ele>
        <time>2019-09-10T07:12:00Z</time>
      </trkpt>
      <trkpt lat="45.9980872" lon="6.9314988">
        <ele>1495.85</ele>
        <time>2019-09-10T07:12:08Z</time>
      </trkpt>
      <trkpt lat="45.9980272" lon="6.9313860">
        <ele>1495.05</ele>
        <time>2019-09-10T07:12:16Z</time>
      </trkpt>
      <trkpt lat="45.9979531" lon="6.9312837">
        <ele>1491.58</ele>
        <time>2019-09-10T07:12:26Z</time>
      </trkpt>
      <trkpt lat="45.9978865" lon="6.9311927">
        <ele>1490.78</ele>
        <time>2019-09-10T07:12:34Z</time>
      </trkpt>
      <trkpt lat="45.9978396" lon="6.9310603">
        <ele>1489.54</ele>
        <time>2019-09-10T07:12:40Z</time>
      </trkpt>
      <trkpt lat="45.9977669" lon="6.9309497">
        <ele>1488.25</ele>
        <time>2019-09-10T07:12:48Z</time>
      </trkpt>
      <trkpt lat="45.9976837" lon="6.9308709">
        <ele>1485.32</ele>
        <time>2019-09-10T07:12:58Z</time>
      </trkpt>
      <trkpt lat="45.9976264" lon="6.9307634">
        <ele>1484.24</ele>
        <time>2019-09-10T07:13:08Z</time>
      </trkpt>
      <trkpt lat="45.9975752" lon="6.9306490">
        <ele>1482.06</ele>
        <time>2019-09-10T07:13:18Z</time>
      </trkpt>
      <trkpt lat="45.9975134" lon="6.9305291">
        <ele>1481.94</ele>
        <time>2019-09-10T07:13:28Z</time>
      </trkpt>
      <trkpt lat="45.9974135" lon="6.9305060">
        <ele>1479.07</ele>
        <time>2019-09-10T07:13:36Z</time>
      </trkpt>
      <trkpt lat="45.9973078" lon="6.9305018">
        <ele>1477.04</ele>
        <time>2019-09-10T07:13:44Z</time>
      </trkpt>
      <trkpt lat="45.9972198" lon="6.9304583">
        <ele>1474.07</ele>
        <time>2019-09-10T07:13:52Z</time>
      </trkpt>
      <trkpt lat="45.9971564" lon="6.9303652">
        <ele>1471.07</ele>
        <time>2019-09-10T07:14:00Z</time>
      </trkpt>
      <trkpt lat="45.9970602" lon="6.9302962">
        <ele>1469.18</ele>
        <time>2019-09-10T07:14:12Z</time>
      </trkpt>
      <trkpt lat="45.9969834" lon="6.9301904">
        <ele>1467.97</ele>
        <time>2019-09-10T07:14:22Z</time>
      </trkpt>
      <trkpt lat="45.9968932" lon="6.9301500">
        <ele>1466.04</ele>
        <time>2019-09-10T07:14:32Z</time>
      </trkpt>
      <trkpt lat="45.9967961" lon="6.9301437">
        <ele>1452.90</ele>
        <time>2019-09-10T07:14:54Z</time>
      </trkpt>
      <trkpt lat="45.9967477" lon="6.9300100">
        <ele>1451.48</ele>
        <time>2019-09-10T07:15:00Z</time>
      </trkpt>
      <trkpt lat="45.9966947" lon="6.9299036">
        <ele>1449.27</ele>
        <time>2019-09-10T07:15:08Z</time>
      </trkpt>
      <trkpt lat="45.9966253" lon="6.9298157">
        <ele>1447.54</ele>
        <time>2019-09-10T07:15:18Z</time>
      </trkpt>
      <trkpt lat="45.9965141" lon="6.9297834">
        <ele>1439.09</ele>
        <time>2019-09-10T07:15:30Z</time>
      </trkpt>
      <trkpt lat="45.9964308" lon="6.9297185">
        <ele>1433.65</ele>
        <time>2019-09-10T07:15:42Z</time>
      </trkpt>
      <trkpt lat="45.9963681" lon="6.9295987">
        <ele>1430.51</ele>
        <time>2019-09-10T07:15:50Z</time>
      </trkpt>
      <trkpt lat="45.9963006" lon="6.9294993">
        <ele>1428.43</ele>
        <time>2019-09-10T07:16:06Z</time>
      </trkpt>
      <trkpt lat="45.9962484" lon="6.9293798">
        <ele>1430.68</ele>
        <time>2019-09-10T07:16:14Z</time>
      </trkpt>
      <trkpt lat="45.9961904" lon="6.9292493">
        <ele>1425.55</ele>
        <time>2019-09-10T07:16:26Z</time>
      </trkpt>
      <trkpt lat="45.9960959" lon="6.9292700">
        <ele>1425.22</ele>
        <time>2019-09-10T07:16:44Z</time>
      </trkpt>
      <trkpt lat="45.9960152" lon="6.9291963">
        <ele>1421.28</ele>
        <time>2019-09-10T07:16:56Z</time>
      </trkpt>
      <trkpt lat="45.9959504" lon="6.9290979">
        <ele>1418.98</ele>
        <time>2019-09-10T07:17:08Z</time>
      </trkpt>
      <trkpt lat="45.9958639" lon="6.9290466">
        <ele>1417.97</ele>
        <time>2019-09-10T07:17:16Z</time>
      </trkpt>
      <trkpt lat="45.9957704" lon="6.9290871">
        <ele>1413.26</ele>
        <time>2019-09-10T07:17:40Z</time>
      </trkpt>
      <trkpt lat="45.9956865" lon="6.9291686">
        <ele>1412.94</ele>
        <time>2019-09-10T07:17:50Z</time>
      </trkpt>
      <trkpt lat="45.9956170" lon="6.9290684">
        <ele>1411.95</ele>
        <time>2019-09-10T07:18:02Z</time>
      </trkpt>
      <trkpt lat="45.9955274" lon="6.9289848">
        <ele>1410.27</ele>
        <time>2019-09-10T07:18:12Z</time>
      </trkpt>
      <trkpt lat="45.9954488" lon="6.9288909">
        <ele>1410.15</ele>
        <time>2019-09-10T07:18:22Z</time>
      </trkpt>
      <trkpt lat="45.9953896" lon="6.9287716">
        <ele>1408.03</ele>
        <time>2019-09-10T07:18:32Z</time>
      </trkpt>
      <trkpt lat="45.9953633" lon="6.9286406">
        <ele>1406.06</ele>
        <time>2019-09-10T07:18:40Z</time>
      </trkpt>
      <trkpt lat="45.9953723" lon="6.9284833">
        <ele>1402.36</ele>
        <time>2019-09-10T07:18:50Z</time>
      </trkpt>
      <trkpt lat="45.9953566" lon="6.9283521">
        <ele>1400.74</ele>
        <time>2019-09-10T07:18:58Z</time>
      </trkpt>
      <trkpt lat="45.9953050" lon="6.9282446">
        <ele>1399.73</ele>
        <time>2019-09-10T07:19:08Z</time>
      </trkpt>
      <trkpt lat="45.9952182" lon="6.9281787">
        <ele>1399.18</ele>
        <time>2019-09-10T07:19:16Z</time>
      </trkpt>
      <trkpt lat="45.9951928" lon="6.9280340">
        <ele>1398.24</ele>
        <time>2019-09-10T07:19:26Z</time>
      </trkpt>
      <trkpt lat="45.9952412" lon="6.9279247">
        <ele>1397.24</ele>
        <time>2019-09-10T07:19:34Z</time>
      </trkpt>
      <trkpt lat="45.9952585" lon="6.9277854">
        <ele>1396.94</ele>
        <time>2019-09-10T07:19:42Z</time>
      </trkpt>
      <trkpt lat="45.9951853" lon="6.9276787">
        <ele>1397.85</ele>
        <time>2019-09-10T07:19:52Z</time>
      </trkpt>
      <trkpt lat="45.9951707" lon="6.9275475">
        <ele>1398.64</ele>
        <time>2019-09-10T07:20:02Z</time>
      </trkpt>
      <trkpt lat="45.9951577" lon="6.9274175">
        <ele>1398.94</ele>
        <time>2019-09-10T07:20:10Z</time>
      </trkpt>
      <trkpt lat="45.9951153" lon="6.9272978">
        <ele>1399.92</ele>
        <time>2019-09-10T07:20:18Z</time>
      </trkpt>
      <trkpt lat="45.9950412" lon="6.9271799">
        <ele>1400.85</ele>
        <time>2019-09-10T07:20:26Z</time>
      </trkpt>
      <trkpt lat="45.9949635" lon="6.9271103">
        <ele>1401.00</ele>
        <time>2019-09-10T07:20:34Z</time>
      </trkpt>
      <trkpt lat="45.9948732" lon="6.9270603">
        <ele>1400.96</ele>
        <time>2019-09-10T07:20:46Z</time>
      </trkpt>
      <trkpt lat="45.9947757" lon="6.9270444">
        <ele>1401.85</ele>
        <time>2019-09-10T07:20:56Z</time>
      </trkpt>
      <trkpt lat="45.9946784" lon="6.9270760">
        <ele>1400.95</ele>
        <time>2019-09-10T07:21:04Z</time>
      </trkpt>
      <trkpt lat="45.9945757" lon="6.9271012">
        <ele>1400.67</ele>
        <time>2019-09-10T07:21:12Z</time>
      </trkpt>
      <trkpt lat="45.9944721" lon="6.9270754">
        <ele>1400.94</ele>
        <time>2019-09-10T07:21:20Z</time>
      </trkpt>
      <trkpt lat="45.9943784" lon="6.9270680">
        <ele>1401.93</ele>
        <time>2019-09-10T07:21:28Z</time>
      </trkpt>
      <trkpt lat="45.9942907" lon="6.9270252">
        <ele>1403.84</ele>
        <time>2019-09-10T07:21:36Z</time>
      </trkpt>
      <trkpt lat="45.9942016" lon="6.9269557">
        <ele>1403.88</ele>
        <time>2019-09-10T07:21:46Z</time>
      </trkpt>
      <trkpt lat="45.9940963" lon="6.9269003">
        <ele>1404.93</ele>
        <time>2019-09-10T07:21:56Z</time>
      </trkpt>
      <trkpt lat="45.9940051" lon="6.9268458">
        <ele>1404.94</ele>
        <time>2019-09-10T07:22:04Z</time>
      </trkpt>
      <trkpt lat="45.9938986" lon="6.9268632">
        <ele>1404.94</ele>
        <time>2019-09-10T07:22:12Z</time>
      </trkpt>
      <trkpt lat="45.9937928" lon="6.9268644">
        <ele>1404.96</ele>
        <time>2019-09-10T07:22:20Z</time>
      </trkpt>
      <trkpt lat="45.9936939" lon="6.9268450">
        <ele>1405.64</ele>
        <time>2019-09-10T07:22:28Z</time>
      </trkpt>
      <trkpt lat="45.9936018" lon="6.9268507">
        <ele>1405.87</ele>
        <time>2019-09-10T07:22:34Z</time>
      </trkpt>
      <trkpt lat="45.9935034" lon="6.9268508">
        <ele>1406.91</ele>
        <time>2019-09-10T07:22:42Z</time>
      </trkpt>
      <trkpt lat="45.9933993" lon="6.9268742">
        <ele>1406.94</ele>
        <time>2019-09-10T07:22:50Z</time>
      </trkpt>
      <trkpt lat="45.9932923" lon="6.9268593">
        <ele>1406.94</ele>
        <time>2019-09-10T07:22:58Z</time>
      </trkpt>
      <trkpt lat="45.9931970" lon="6.9268820">
        <ele>1405.95</ele>
        <time>2019-09-10T07:23:06Z</time>
      </trkpt>
      <trkpt lat="45.9930903" lon="6.9268226">
        <ele>1406.94</ele>
        <time>2019-09-10T07:23:16Z</time>
      </trkpt>
      <trkpt lat="45.9929790" lon="6.9268329">
        <ele>1406.94</ele>
        <time>2019-09-10T07:23:24Z</time>
      </trkpt>
      <trkpt lat="45.9928658" lon="6.9268005">
        <ele>1407.01</ele>
        <time>2019-09-10T07:23:32Z</time>
      </trkpt>
      <trkpt lat="45.9927618" lon="6.9267772">
        <ele>1407.15</ele>
        <time>2019-09-10T07:23:40Z</time>
      </trkpt>
      <trkpt lat="45.9926609" lon="6.9267808">
        <ele>1406.94</ele>
        <time>2019-09-10T07:23:48Z</time>
      </trkpt>
      <trkpt lat="45.9925653" lon="6.9268019">
        <ele>1405.03</ele>
        <time>2019-09-10T07:24:00Z</time>
      </trkpt>
      <trkpt lat="45.9924797" lon="6.9267530">
        <ele>1404.94</ele>
        <time>2019-09-10T07:24:10Z</time>
      </trkpt>
      <trkpt lat="45.9923825" lon="6.9267581">
        <ele>1405.64</ele>
        <time>2019-09-10T07:24:22Z</time>
      </trkpt>
      <trkpt lat="45.9922750" lon="6.9267480">
        <ele>1406.73</ele>
        <time>2019-09-10T07:24:40Z</time>
      </trkpt>
      <trkpt lat="45.9921811" lon="6.9267148">
        <ele>1406.01</ele>
        <time>2019-09-10T07:24:52Z</time>
      </trkpt>
      <trkpt lat="45.9921105" lon="6.9266008">
        <ele>1406.73</ele>
        <time>2019-09-10T07:25:02Z</time>
      </trkpt>
      <trkpt lat="45.9920450" lon="6.9264914">
        <ele>1408.85</ele>
        <time>2019-09-10T07:25:14Z</time>
      </trkpt>
      <trkpt lat="45.9919652" lon="6.9263826">
        <ele>1409.91</ele>
        <time>2019-09-10T07:25:26Z</time>
      </trkpt>
      <trkpt lat="45.9919177" lon="6.9262374">
        <ele>1408.94</ele>
        <time>2019-09-10T07:25:36Z</time>
      </trkpt>
      <trkpt lat="45.9918294" lon="6.9262763">
        <ele>1408.94</ele>
        <time>2019-09-10T07:25:44Z</time>
      </trkpt>
      <trkpt lat="45.9917535" lon="6.9263493">
        <ele>1408.88</ele>
        <time>2019-09-10T07:25:52Z</time>
      </trkpt>
      <trkpt lat="45.9916618" lon="6.9263331">
        <ele>1408.85</ele>
        <time>2019-09-10T07:26:04Z</time>
      </trkpt>
      <trkpt lat="45.9915688" lon="6.9262840">
        <ele>1409.91</ele>
        <time>2019-09-10T07:26:14Z</time>
      </trkpt>
      <trkpt lat="45.9914747" lon="6.9262601">
        <ele>1410.93</ele>
        <time>2019-09-10T07:26:22Z</time>
      </trkpt>
      <trkpt lat="45.9913950" lon="6.9261806">
        <ele>1411.93</ele>
        <time>2019-09-10T07:26:30Z</time>
      </trkpt>
      <trkpt lat="45.9913203" lon="6.9260994">
        <ele>1411.96</ele>
        <time>2019-09-10T07:26:38Z</time>
      </trkpt>
      <trkpt lat="45.9912323" lon="6.9260176">
        <ele>1411.97</ele>
        <time>2019-09-10T07:26:48Z</time>
      </trkpt>
      <trkpt lat="45.9911352" lon="6.9259695">
        <ele>1412.15</ele>
        <time>2019-09-10T07:26:58Z</time>
      </trkpt>
      <trkpt lat="45.9910656" lon="6.9258639">
        <ele>1412.64</ele>
        <time>2019-09-10T07:27:08Z</time>
      </trkpt>
      <trkpt lat="45.9909707" lon="6.9258606">
        <ele>1411.97</ele>
        <time>2019-09-10T07:27:16Z</time>
      </trkpt>
      <trkpt lat="45.9908819" lon="6.9258101">
        <ele>1412.92</ele>
        <time>2019-09-10T07:27:24Z</time>
      </trkpt>
      <trkpt lat="45.9907851" lon="6.9257351">
        <ele>1412.92</ele>
        <time>2019-09-10T07:27:36Z</time>
      </trkpt>
      <trkpt lat="45.9906996" lon="6.9256920">
        <ele>1414.84</ele>
        <time>2019-09-10T07:27:46Z</time>
      </trkpt>
      <trkpt lat="45.9906025" lon="6.9256488">
        <ele>1414.95</ele>
        <time>2019-09-10T07:27:58Z</time>
      </trkpt>
      <trkpt lat="45.9905063" lon="6.9255814">
        <ele>1414.94</ele>
        <time>2019-09-10T07:28:08Z</time>
      </trkpt>
      <trkpt lat="45.9904166" lon="6.9255506">
        <ele>1416.63</ele>
        <time>2019-09-10T07:28:16Z</time>
      </trkpt>
      <trkpt lat="45.9903296" lon="6.9255875">
        <ele>1416.94</ele>
        <time>2019-09-10T07:28:24Z</time>
      </trkpt>
      <trkpt lat="45.9902293" lon="6.9255410">
        <ele>1416.94</ele>
        <time>2019-09-10T07:28:34Z</time>
      </trkpt>
      <trkpt lat="45.9901505" lon="6.9254744">
        <ele>1418.00</ele>
        <time>2019-09-10T07:28:42Z</time>
      </trkpt>
      <trkpt lat="45.9900532" lon="6.9254482">
        <ele>1418.93</ele>
        <time>2019-09-10T07:28:50Z</time>
      </trkpt>
      <trkpt lat="45.9899447" lon="6.9253989">
        <ele>1418.94</ele>
        <time>2019-09-10T07:29:00Z</time>
      </trkpt>
      <trkpt lat="45.9898500" lon="6.9254036">
        <ele>1419.64</ele>
        <time>2019-09-10T07:29:10Z</time>
      </trkpt>
      <trkpt lat="45.9897504" lon="6.9253927">
        <ele>1421.64</ele>
        <time>2019-09-10T07:29:22Z</time>
      </trkpt>
      <trkpt lat="45.9896466" lon="6.9253690">
        <ele>1422.64</ele>
        <time>2019-09-10T07:29:32Z</time>
      </trkpt>
      <trkpt lat="45.9895792" lon="6.9252764">
        <ele>1422.94</ele>
        <time>2019-09-10T07:29:44Z</time>
      </trkpt>
      <trkpt lat="45.9894762" lon="6.9252285">
        <ele>1423.93</ele>
        <time>2019-09-10T07:29:54Z</time>
      </trkpt>
      <trkpt lat="45.9893775" lon="6.9251963">
        <ele>1424.93</ele>
        <time>2019-09-10T07:30:04Z</time>
      </trkpt>
      <trkpt lat="45.9892666" lon="6.9252123">
        <ele>1425.93</ele>
        <time>2019-09-10T07:30:14Z</time>
      </trkpt>
      <trkpt lat="45.9891617" lon="6.9252296">
        <ele>1426.85</ele>
        <time>2019-09-10T07:30:24Z</time>
      </trkpt>
      <trkpt lat="45.9890626" lon="6.9252291">
        <ele>1426.94</ele>
        <time>2019-09-10T07:30:32Z</time>
      </trkpt>
      <trkpt lat="45.9889574" lon="6.9252218">
        <ele>1427.85</ele>
        <time>2019-09-10T07:30:42Z</time>
      </trkpt>
      <trkpt lat="45.9888514" lon="6.9252188">
        <ele>1428.64</ele>
        <time>2019-09-10T07:30:52Z</time>
      </trkpt>
      <trkpt lat="45.9887486" lon="6.9251912">
        <ele>1428.92</ele>
        <time>2019-09-10T07:31:00Z</time>
      </trkpt>
      <trkpt lat="45.9886526" lon="6.9252147">
        <ele>1428.94</ele>
        <time>2019-09-10T07:31:08Z</time>
      </trkpt>
      <trkpt lat="45.9885549" lon="6.9252345">
        <ele>1428.94</ele>
        <time>2019-09-10T07:31:16Z</time>
      </trkpt>
      <trkpt lat="45.9884775" lon="6.9251431">
        <ele>1428.94</ele>
        <time>2019-09-10T07:31:28Z</time>
      </trkpt>
      <trkpt lat="45.9884086" lon="6.9250418">
        <ele>1428.88</ele>
        <time>2019-09-10T07:31:42Z</time>
      </trkpt>
      <trkpt lat="45.9883151" lon="6.9250568">
        <ele>1429.64</ele>
        <time>2019-09-10T07:31:50Z</time>
      </trkpt>
      <trkpt lat="45.9882194" lon="6.9250354">
        <ele>1430.85</ele>
        <time>2019-09-10T07:32:00Z</time>
      </trkpt>
      <trkpt lat="45.9881167" lon="6.9249660">
        <ele>1432.91</ele>
        <time>2019-09-10T07:32:12Z</time>
      </trkpt>
      <trkpt lat="45.9880383" lon="6.9249006">
        <ele>1433.91</ele>
        <time>2019-09-10T07:32:20Z</time>
      </trkpt>
      <trkpt lat="45.9879565" lon="6.9248453">
        <ele>1434.94</ele>
        <time>2019-09-10T07:32:30Z</time>
      </trkpt>
      <trkpt lat="45.9878459" lon="6.9248018">
        <ele>1436.87</ele>
        <time>2019-09-10T07:32:42Z</time>
      </trkpt>
      <trkpt lat="45.9877516" lon="6.9247266">
        <ele>1437.93</ele>
        <time>2019-09-10T07:32:54Z</time>
      </trkpt>
      <trkpt lat="45.9876634" lon="6.9246734">
        <ele>1438.64</ele>
        <time>2019-09-10T07:33:02Z</time>
      </trkpt>
      <trkpt lat="45.9875708" lon="6.9246378">
        <ele>1438.94</ele>
        <time>2019-09-10T07:33:10Z</time>
      </trkpt>
      <trkpt lat="45.9874835" lon="6.9245922">
        <ele>1440.84</ele>
        <time>2019-09-10T07:33:18Z</time>
      </trkpt>
      <trkpt lat="45.9873845" lon="6.9245404">
        <ele>1440.94</ele>
        <time>2019-09-10T07:33:28Z</time>
      </trkpt>
      <trkpt lat="45.9873051" lon="6.9244759">
        <ele>1441.87</ele>
        <time>2019-09-10T07:33:38Z</time>
      </trkpt>
      <trkpt lat="45.9872263" lon="6.9244094">
        <ele>1441.95</ele>
        <time>2019-09-10T07:33:48Z</time>
      </trkpt>
      <trkpt lat="45.9871237" lon="6.9243543">
        <ele>1441.92</ele>
        <time>2019-09-10T07:33:58Z</time>
      </trkpt>
      <trkpt lat="45.9870282" lon="6.9243195">
        <ele>1442.93</ele>
        <time>2019-09-10T07:34:10Z</time>
      </trkpt>
      <trkpt lat="45.9869331" lon="6.9242602">
        <ele>1443.62</ele>
        <time>2019-09-10T07:34:22Z</time>
      </trkpt>
      <trkpt lat="45.9868495" lon="6.9241880">
        <ele>1447.82</ele>
        <time>2019-09-10T07:34:36Z</time>
      </trkpt>
      <trkpt lat="45.9867556" lon="6.9241517">
        <ele>1448.64</ele>
        <time>2019-09-10T07:34:44Z</time>
      </trkpt>
      <trkpt lat="45.9866623" lon="6.9240708">
        <ele>1449.85</ele>
        <time>2019-09-10T07:34:54Z</time>
      </trkpt>
      <trkpt lat="45.9865710" lon="6.9239889">
        <ele>1450.91</ele>
        <time>2019-09-10T07:35:04Z</time>
      </trkpt>
      <trkpt lat="45.9864783" lon="6.9239223">
        <ele>1452.15</ele>
        <time>2019-09-10T07:35:14Z</time>
      </trkpt>
      <trkpt lat="45.9863739" lon="6.9238478">
        <ele>1453.62</ele>
        <time>2019-09-10T07:35:24Z</time>
      </trkpt>
      <trkpt lat="45.9862920" lon="6.9237765">
        <ele>1454.64</ele>
        <time>2019-09-10T07:35:32Z</time>
      </trkpt>
      <trkpt lat="45.9861968" lon="6.9237648">
        <ele>1455.93</ele>
        <time>2019-09-10T07:35:40Z</time>
      </trkpt>
      <trkpt lat="45.9861070" lon="6.9237193">
        <ele>1455.94</ele>
        <time>2019-09-10T07:35:50Z</time>
      </trkpt>
      <trkpt lat="45.9860041" lon="6.9236671">
        <ele>1456.94</ele>
        <time>2019-09-10T07:36:00Z</time>
      </trkpt>
      <trkpt lat="45.9859059" lon="6.9236385">
        <ele>1456.94</ele>
        <time>2019-09-10T07:36:08Z</time>
      </trkpt>
      <trkpt lat="45.9858267" lon="6.9235298">
        <ele>1457.93</ele>
        <time>2019-09-10T07:36:18Z</time>
      </trkpt>
      <trkpt lat="45.9857210" lon="6.9234646">
        <ele>1458.03</ele>
        <time>2019-09-10T07:36:30Z</time>
      </trkpt>
      <trkpt lat="45.9856314" lon="6.9233623">
        <ele>1458.94</ele>
        <time>2019-09-10T07:36:40Z</time>
      </trkpt>
      <trkpt lat="45.9855669" lon="6.9232567">
        <ele>1459.93</ele>
        <time>2019-09-10T07:36:52Z</time>
      </trkpt>
      <trkpt lat="45.9854752" lon="6.9231988">
        <ele>1459.67</ele>
        <time>2019-09-10T07:37:02Z</time>
      </trkpt>
      <trkpt lat="45.9853923" lon="6.9231426">
        <ele>1460.73</ele>
        <time>2019-09-10T07:37:16Z</time>
      </trkpt>
      <trkpt lat="45.9853275" lon="6.9230232">
        <ele>1464.82</ele>
        <time>2019-09-10T07:37:28Z</time>
      </trkpt>
      <trkpt lat="45.9852401" lon="6.9229597">
        <ele>1464.94</ele>
        <time>2019-09-10T07:37:40Z</time>
      </trkpt>
      <trkpt lat="45.9851546" lon="6.9229080">
        <ele>1466.85</ele>
        <time>2019-09-10T07:37:52Z</time>
      </trkpt>
      <trkpt lat="45.9850473" lon="6.9228767">
        <ele>1466.88</ele>
        <time>2019-09-10T07:38:02Z</time>
      </trkpt>
      <trkpt lat="45.9849508" lon="6.9228660">
        <ele>1467.93</ele>
        <time>2019-09-10T07:38:10Z</time>
      </trkpt>
      <trkpt lat="45.9848549" lon="6.9228134">
        <ele>1468.92</ele>
        <time>2019-09-10T07:38:22Z</time>
      </trkpt>
      <trkpt lat="45.9847612" lon="6.9228051">
        <ele>1468.94</ele>
        <time>2019-09-10T07:38:30Z</time>
      </trkpt>
      <trkpt lat="45.9846606" lon="6.9227620">
        <ele>1469.93</ele>
        <time>2019-09-10T07:38:42Z</time>
      </trkpt>
      <trkpt lat="45.9846456" lon="6.9226251">
        <ele>1472.63</ele>
        <time>2019-09-10T07:39:04Z</time>
      </trkpt>
      <trkpt lat="45.9845645" lon="6.9225558">
        <ele>1473.93</ele>
        <time>2019-09-10T07:39:14Z</time>
      </trkpt>
      <trkpt lat="45.9844667" lon="6.9225081">
        <ele>1473.33</ele>
        <time>2019-09-10T07:39:24Z</time>
      </trkpt>
      <trkpt lat="45.9843974" lon="6.9224244">
        <ele>1474.56</ele>
        <time>2019-09-10T07:39:32Z</time>
      </trkpt>
      <trkpt lat="45.9843054" lon="6.9223952">
        <ele>1475.64</ele>
        <time>2019-09-10T07:39:40Z</time>
      </trkpt>
      <trkpt lat="45.9842214" lon="6.9223000">
        <ele>1476.93</ele>
        <time>2019-09-10T07:39:50Z</time>
      </trkpt>
      <trkpt lat="45.9841254" lon="6.9222363">
        <ele>1477.87</ele>
        <time>2019-09-10T07:40:00Z</time>
      </trkpt>
      <trkpt lat="45.9840569" lon="6.9221202">
        <ele>1480.91</ele>
        <time>2019-09-10T07:40:12Z</time>
      </trkpt>
      <trkpt lat="45.9840195" lon="6.9219968">
        <ele>1480.94</ele>
        <time>2019-09-10T07:40:20Z</time>
      </trkpt>
      <trkpt lat="45.9839609" lon="6.9218965">
        <ele>1481.93</ele>
        <time>2019-09-10T07:40:28Z</time>
      </trkpt>
      <trkpt lat="45.9838744" lon="6.9217978">
        <ele>1483.85</ele>
        <time>2019-09-10T07:40:38Z</time>
      </trkpt>
      <trkpt lat="45.9837847" lon="6.9217025">
        <ele>1496.84</ele>
        <time>2019-09-10T07:40:57Z</time>
      </trkpt>
      <trkpt lat="45.9836988" lon="6.9216163">
        <ele>1497.10</ele>
        <time>2019-09-10T07:41:06Z</time>
      </trkpt>
      <trkpt lat="45.9835964" lon="6.9215488">
        <ele>1499.13</ele>
        <time>2019-09-10T07:41:19Z</time>
      </trkpt>
      <trkpt lat="45.9835509" lon="6.9214327">
        <ele>1497.40</ele>
        <time>2019-09-10T07:41:25Z</time>
      </trkpt>
      <trkpt lat="45.9834867" lon="6.9213299">
        <ele>1497.03</ele>
        <time>2019-09-10T07:41:33Z</time>
      </trkpt>
      <trkpt lat="45.9834235" lon="6.9212098">
        <ele>1496.95</ele>
        <time>2019-09-10T07:41:43Z</time>
      </trkpt>
      <trkpt lat="45.9833338" lon="6.9211332">
        <ele>1498.55</ele>
        <time>2019-09-10T07:41:57Z</time>
      </trkpt>
      <trkpt lat="45.9832709" lon="6.9210326">
        <ele>1500.61</ele>
        <time>2019-09-10T07:42:07Z</time>
      </trkpt>
      <trkpt lat="45.9831981" lon="6.9209295">
        <ele>1500.94</ele>
        <time>2019-09-10T07:42:17Z</time>
      </trkpt>
      <trkpt lat="45.9831361" lon="6.9208355">
        <ele>1500.64</ele>
        <time>2019-09-10T07:42:27Z</time>
      </trkpt>
      <trkpt lat="45.9830709" lon="6.9207342">
        <ele>1500.71</ele>
        <time>2019-09-10T07:42:37Z</time>
      </trkpt>
      <trkpt lat="45.9830093" lon="6.9206148">
        <ele>1500.73</ele>
        <time>2019-09-10T07:42:47Z</time>
      </trkpt>
      <trkpt lat="45.9829377" lon="6.9205309">
        <ele>1501.21</ele>
        <time>2019-09-10T07:42:57Z</time>
      </trkpt>
      <trkpt lat="45.9828562" lon="6.9204576">
        <ele>1500.94</ele>
        <time>2019-09-10T07:43:07Z</time>
      </trkpt>
      <trkpt lat="45.9828277" lon="6.9203029">
        <ele>1500.94</ele>
        <time>2019-09-10T07:43:17Z</time>
      </trkpt>
      <trkpt lat="45.9827483" lon="6.9202276">
        <ele>1501.92</ele>
        <time>2019-09-10T07:43:25Z</time>
      </trkpt>
      <trkpt lat="45.9826457" lon="6.9201876">
        <ele>1502.85</ele>
        <time>2019-09-10T07:43:37Z</time>
      </trkpt>
      <trkpt lat="45.9825551" lon="6.9201368">
        <ele>1503.85</ele>
        <time>2019-09-10T07:43:45Z</time>
      </trkpt>
      <trkpt lat="45.9825064" lon="6.9200256">
        <ele>1504.93</ele>
        <time>2019-09-10T07:43:55Z</time>
      </trkpt>
      <trkpt lat="45.9824206" lon="6.9199741">
        <ele>1503.97</ele>
        <time>2019-09-10T07:44:05Z</time>
      </trkpt>
      <trkpt lat="45.9823456" lon="6.9198792">
        <ele>1504.64</ele>
        <time>2019-09-10T07:44:17Z</time>
      </trkpt>
      <trkpt lat="45.9822579" lon="6.9198374">
        <ele>1504.94</ele>
        <time>2019-09-10T07:44:27Z</time>
      </trkpt>
      <trkpt lat="45.9821947" lon="6.9197257">
        <ele>1507.84</ele>
        <time>2019-09-10T07:44:39Z</time>
      </trkpt>
      <trkpt lat="45.9821115" lon="6.9196576">
        <ele>1509.84</ele>
        <time>2019-09-10T07:44:49Z</time>
      </trkpt>
      <trkpt lat="45.9820354" lon="6.9195665">
        <ele>1510.67</ele>
        <time>2019-09-10T07:45:01Z</time>
      </trkpt>
      <trkpt lat="45.9819486" lon="6.9194821">
        <ele>1512.82</ele>
        <time>2019-09-10T07:45:09Z</time>
      </trkpt>
      <trkpt lat="45.9818711" lon="6.9193845">
        <ele>1513.85</ele>
        <time>2019-09-10T07:45:17Z</time>
      </trkpt>
      <trkpt lat="45.9817937" lon="6.9193021">
        <ele>1513.94</ele>
        <time>2019-09-10T07:45:27Z</time>
      </trkpt>
      <trkpt lat="45.9817090" lon="6.9192171">
        <ele>1515.84</ele>
        <time>2019-09-10T07:45:37Z</time>
      </trkpt>
      <trkpt lat="45.9816237" lon="6.9191732">
        <ele>1515.94</ele>
        <time>2019-09-10T07:45:45Z</time>
      </trkpt>
      <trkpt lat="45.9815462" lon="6.9191021">
        <ele>1515.94</ele>
        <time>2019-09-10T07:45:53Z</time>
      </trkpt>
      <trkpt lat="45.9814620" lon="6.9190085">
        <ele>1515.94</ele>
        <time>2019-09-10T07:46:03Z</time>
      </trkpt>
      <trkpt lat="45.9813930" lon="6.9188844">
        <ele>1515.03</ele>
        <time>2019-09-10T07:46:15Z</time>
      </trkpt>
      <trkpt lat="45.9812871" lon="6.9188373">
        <ele>1514.24</ele>
        <time>2019-09-10T07:46:25Z</time>
      </trkpt>
      <trkpt lat="45.9812217" lon="6.9187359">
        <ele>1512.31</ele>
        <time>2019-09-10T07:46:37Z</time>
      </trkpt>
      <trkpt lat="45.9812520" lon="6.9185797">
        <ele>1512.03</ele>
        <time>2019-09-10T07:46:55Z</time>
      </trkpt>
      <trkpt lat="45.9812035" lon="6.9184602">
        <ele>1511.96</ele>
        <time>2019-09-10T07:47:05Z</time>
      </trkpt>
      <trkpt lat="45.9811162" lon="6.9183879">
        <ele>1511.03</ele>
        <time>2019-09-10T07:47:15Z</time>
      </trkpt>
      <trkpt lat="45.9810356" lon="6.9183275">
        <ele>1511.64</ele>
        <time>2019-09-10T07:47:23Z</time>
      </trkpt>
      <trkpt lat="45.9809240" lon="6.9183080">
        <ele>1510.31</ele>
        <time>2019-09-10T07:47:31Z</time>
      </trkpt>
      <trkpt lat="45.9808466" lon="6.9182274">
        <ele>1505.09</ele>
        <time>2019-09-10T07:47:41Z</time>
      </trkpt>
      <trkpt lat="45.9807977" lon="6.9180881">
        <ele>1504.94</ele>
        <time>2019-09-10T07:47:51Z</time>
      </trkpt>
      <trkpt lat="45.9807395" lon="6.9179632">
        <ele>1502.95</ele>
        <time>2019-09-10T07:48:03Z</time>
      </trkpt>
      <trkpt lat="45.9806995" lon="6.9178391">
        <ele>1505.93</ele>
        <time>2019-09-10T07:48:17Z</time>
      </trkpt>
      <trkpt lat="45.9806153" lon="6.9177530">
        <ele>1506.92</ele>
        <time>2019-09-10T07:48:33Z</time>
      </trkpt>
      <trkpt lat="45.9805408" lon="6.9176655">
        <ele>1505.94</ele>
        <time>2019-09-10T07:48:47Z</time>
      </trkpt>
      <trkpt lat="45.9804506" lon="6.9176413">
        <ele>1506.62</ele>
        <time>2019-09-10T07:48:59Z</time>
      </trkpt>
      <trkpt lat="45.9803959" lon="6.9175325">
        <ele>1508.64</ele>
        <time>2019-09-10T07:49:17Z</time>
      </trkpt>
      <trkpt lat="45.9802998" lon="6.9174683">
        <ele>1508.88</ele>
        <time>2019-09-10T07:49:31Z</time>
      </trkpt>
      <trkpt lat="45.9802538" lon="6.9173504">
        <ele>1506.97</ele>
        <time>2019-09-10T07:49:41Z</time>
      </trkpt>
      <trkpt lat="45.9801796" lon="6.9172603">
        <ele>1504.97</ele>
        <time>2019-09-10T07:49:51Z</time>
      </trkpt>
      <trkpt lat="45.9801018" lon="6.9171782">
        <ele>1504.94</ele>
        <time>2019-09-10T07:50:01Z</time>
      </trkpt>
      <trkpt lat="45.9800419" lon="6.9170815">
        <ele>1504.94</ele>
        <time>2019-09-10T07:50:11Z</time>
      </trkpt>
      <trkpt lat="45.9799678" lon="6.9169691">
        <ele>1504.02</ele>
        <time>2019-09-10T07:50:23Z</time>
      </trkpt>
      <trkpt lat="45.9798970" lon="6.9168726">
        <ele>1503.94</ele>
        <time>2019-09-10T07:50:35Z</time>
      </trkpt>
      <trkpt lat="45.9798466" lon="6.9167608">
        <ele>1504.85</ele>
        <time>2019-09-10T07:50:47Z</time>
      </trkpt>
      <trkpt lat="45.9797492" lon="6.9166804">
        <ele>1503.94</ele>
        <time>2019-09-10T07:50:59Z</time>
      </trkpt>
      <trkpt lat="45.9796577" lon="6.9166775">
        <ele>1503.67</ele>
        <time>2019-09-10T07:51:07Z</time>
      </trkpt>
      <trkpt lat="45.9795926" lon="6.9165851">
        <ele>1502.95</ele>
        <time>2019-09-10T07:51:23Z</time>
      </trkpt>
      <trkpt lat="45.9795318" lon="6.9164883">
        <ele>1502.97</ele>
        <time>2019-09-10T07:51:37Z</time>
      </trkpt>
      <trkpt lat="45.9794772" lon="6.9163665">
        <ele>1502.94</ele>
        <time>2019-09-10T07:51:47Z</time>
      </trkpt>
      <trkpt lat="45.9794835" lon="6.9162152">
        <ele>1499.43</ele>
        <time>2019-09-10T07:52:03Z</time>
      </trkpt>
      <trkpt lat="45.9794812" lon="6.9160825">
        <ele>1497.01</ele>
        <time>2019-09-10T07:52:09Z</time>
      </trkpt>
      <trkpt lat="45.9794775" lon="6.9159477">
        <ele>1492.42</ele>
        <time>2019-09-10T07:52:29Z</time>
      </trkpt>
      <trkpt lat="45.9794126" lon="6.9158502">
        <ele>1491.03</ele>
        <time>2019-09-10T07:52:57Z</time>
      </trkpt>
      <trkpt lat="45.9793261" lon="6.9158065">
        <ele>1491.15</ele>
        <time>2019-09-10T07:53:05Z</time>
      </trkpt>
      <trkpt lat="45.9792334" lon="6.9157651">
        <ele>1489.96</ele>
        <time>2019-09-10T07:53:17Z</time>
      </trkpt>
      <trkpt lat="45.9791206" lon="6.9157728">
        <ele>1486.31</ele>
        <time>2019-09-10T07:53:31Z</time>
      </trkpt>
      <trkpt lat="45.9790359" lon="6.9158194">
        <ele>1482.37</ele>
        <time>2019-09-10T07:53:39Z</time>
      </trkpt>
      <trkpt lat="45.9789532" lon="6.9158750">
        <ele>1478.28</ele>
        <time>2019-09-10T07:53:51Z</time>
      </trkpt>
      <trkpt lat="45.9788495" lon="6.9158372">
        <ele>1476.97</ele>
        <time>2019-09-10T07:54:03Z</time>
      </trkpt>
      <trkpt lat="45.9787473" lon="6.9158198">
        <ele>1479.03</ele>
        <time>2019-09-10T07:54:45Z</time>
      </trkpt>
      <trkpt lat="45.9786560" lon="6.9158607">
        <ele>1476.97</ele>
        <time>2019-09-10T07:54:57Z</time>
      </trkpt>
      <trkpt lat="45.9785545" lon="6.9158553">
        <ele>1475.27</ele>
        <time>2019-09-10T07:55:07Z</time>
      </trkpt>
      <trkpt lat="45.9785106" lon="6.9157339">
        <ele>1473.24</ele>
        <time>2019-09-10T07:55:27Z</time>
      </trkpt>
      <trkpt lat="45.9785436" lon="6.9156104">
        <ele>1471.94</ele>
        <time>2019-09-10T07:55:39Z</time>
      </trkpt>
      <trkpt lat="45.9784802" lon="6.9154950">
        <ele>1469.97</ele>
        <time>2019-09-10T07:55:49Z</time>
      </trkpt>
      <trkpt lat="45.9784033" lon="6.9153957">
        <ele>1468.24</ele>
        <time>2019-09-10T07:55:59Z</time>
      </trkpt>
      <trkpt lat="45.9783404" lon="6.9152835">
        <ele>1466.74</ele>
        <time>2019-09-10T07:56:09Z</time>
      </trkpt>
      <trkpt lat="45.9782494" lon="6.9151970">
        <ele>1464.95</ele>
        <time>2019-09-10T07:56:21Z</time>
      </trkpt>
      <trkpt lat="45.9781887" lon="6.9150769">
        <ele>1463.97</ele>
        <time>2019-09-10T07:56:31Z</time>
      </trkpt>
      <trkpt lat="45.9781351" lon="6.9149692">
        <ele>1462.31</ele>
        <time>2019-09-10T07:56:59Z</time>
      </trkpt>
      <trkpt lat="45.9780809" lon="6.9148477">
        <ele>1461.95</ele>
        <time>2019-09-10T07:57:13Z</time>
      </trkpt>
      <trkpt lat="45.9780405" lon="6.9147223">
        <ele>1462.85</ele>
        <time>2019-09-10T07:57:27Z</time>
      </trkpt>
      <trkpt lat="45.9780119" lon="6.9145981">
        <ele>1462.94</ele>
        <time>2019-09-10T07:57:41Z</time>
      </trkpt>
      <trkpt lat="45.9779809" lon="6.9144670">
        <ele>1461.97</ele>
        <time>2019-09-10T07:57:53Z</time>
      </trkpt>
      <trkpt lat="45.9779268" lon="6.9143527">
        <ele>1460.94</ele>
        <time>2019-09-10T07:58:05Z</time>
      </trkpt>
      <trkpt lat="45.9778524" lon="6.9142436">
        <ele>1461.64</ele>
        <time>2019-09-10T07:58:19Z</time>
      </trkpt>
      <trkpt lat="45.9778343" lon="6.9140947">
        <ele>1461.94</ele>
        <time>2019-09-10T07:58:33Z</time>
      </trkpt>
      <trkpt lat="45.9777646" lon="6.9140112">
        <ele>1462.64</ele>
        <time>2019-09-10T07:58:43Z</time>
      </trkpt>
      <trkpt lat="45.9777113" lon="6.9139024">
        <ele>1464.82</ele>
        <time>2019-09-10T07:59:29Z</time>
      </trkpt>
      <trkpt lat="45.9776734" lon="6.9137709">
        <ele>1467.82</ele>
        <time>2019-09-10T07:59:41Z</time>
      </trkpt>
      <trkpt lat="45.9775983" lon="6.9136693">
        <ele>1468.01</ele>
        <time>2019-09-10T07:59:53Z</time>
      </trkpt>
      <trkpt lat="45.9775521" lon="6.9135283">
        <ele>1471.55</ele>
        <time>2019-09-10T08:00:05Z</time>
      </trkpt>
      <trkpt lat="45.9774939" lon="6.9134013">
        <ele>1471.94</ele>
        <time>2019-09-10T08:00:15Z</time>
      </trkpt>
      <trkpt lat="45.9774588" lon="6.9132573">
        <ele>1472.70</ele>
        <time>2019-09-10T08:00:27Z</time>
      </trkpt>
      <trkpt lat="45.9774064" lon="6.9131415">
        <ele>1472.94</ele>
        <time>2019-09-10T08:00:37Z</time>
      </trkpt>
      <trkpt lat="45.9773373" lon="6.9130406">
        <ele>1472.94</ele>
        <time>2019-09-10T08:00:47Z</time>
      </trkpt>
      <trkpt lat="45.9772547" lon="6.9129438">
        <ele>1473.67</ele>
        <time>2019-09-10T08:00:59Z</time>
      </trkpt>
      <trkpt lat="45.9771870" lon="6.9128576">
        <ele>1475.64</ele>
        <time>2019-09-10T08:01:09Z</time>
      </trkpt>
      <trkpt lat="45.9771562" lon="6.9127181">
        <ele>1476.92</ele>
        <time>2019-09-10T08:01:21Z</time>
      </trkpt>
      <trkpt lat="45.9770859" lon="6.9126217">
        <ele>1478.85</ele>
        <time>2019-09-10T08:01:33Z</time>
      </trkpt>
      <trkpt lat="45.9770203" lon="6.9125285">
        <ele>1479.92</ele>
        <time>2019-09-10T08:01:45Z</time>
      </trkpt>
      <trkpt lat="45.9769778" lon="6.9124090">
        <ele>1481.64</ele>
        <time>2019-09-10T08:01:55Z</time>
      </trkpt>
      <trkpt lat="45.9769144" lon="6.9122928">
        <ele>1482.91</ele>
        <time>2019-09-10T08:02:09Z</time>
      </trkpt>
      <trkpt lat="45.9768510" lon="6.9121842">
        <ele>1483.92</ele>
        <time>2019-09-10T08:02:21Z</time>
      </trkpt>
      <trkpt lat="45.9768288" lon="6.9120516">
        <ele>1484.00</ele>
        <time>2019-09-10T08:02:35Z</time>
      </trkpt>
      <trkpt lat="45.9767819" lon="6.9119211">
        <ele>1485.14</ele>
        <time>2019-09-10T08:02:45Z</time>
      </trkpt>
      <trkpt lat="45.9767015" lon="6.9118425">
        <ele>1485.64</ele>
        <time>2019-09-10T08:02:59Z</time>
      </trkpt>
      <trkpt lat="45.9766411" lon="6.9117407">
        <ele>1485.85</ele>
        <time>2019-09-10T08:03:11Z</time>
      </trkpt>
      <trkpt lat="45.9766143" lon="6.9115959">
        <ele>1487.82</ele>
        <time>2019-09-10T08:03:23Z</time>
      </trkpt>
      <trkpt lat="45.9765310" lon="6.9115185">
        <ele>1491.61</ele>
        <time>2019-09-10T08:03:39Z</time>
      </trkpt>
      <trkpt lat="45.9764358" lon="6.9114916">
        <ele>1493.85</ele>
        <time>2019-09-10T08:03:53Z</time>
      </trkpt>
      <trkpt lat="45.9763498" lon="6.9114530">
        <ele>1496.83</ele>
        <time>2019-09-10T08:04:21Z</time>
      </trkpt>
      <trkpt lat="45.9762918" lon="6.9113438">
        <ele>1495.94</ele>
        <time>2019-09-10T08:04:39Z</time>
      </trkpt>
      <trkpt lat="45.9761970" lon="6.9113216">
        <ele>1495.94</ele>
        <time>2019-09-10T08:04:59Z</time>
      </trkpt>
      <trkpt lat="45.9761223" lon="6.9112028">
        <ele>1499.55</ele>
        <time>2019-09-10T08:05:17Z</time>
      </trkpt>
      <trkpt lat="45.9761499" lon="6.9110698">
        <ele>1500.91</ele>
        <time>2019-09-10T08:05:27Z</time>
      </trkpt>
      <trkpt lat="45.9761258" lon="6.9109416">
        <ele>1506.54</ele>
        <time>2019-09-10T08:05:43Z</time>
      </trkpt>
      <trkpt lat="45.9760813" lon="6.9108134">
        <ele>1508.91</ele>
        <time>2019-09-10T08:05:55Z</time>
      </trkpt>
      <trkpt lat="45.9760386" lon="6.9106923">
        <ele>1514.73</ele>
        <time>2019-09-10T08:06:39Z</time>
      </trkpt>
      <trkpt lat="45.9759500" lon="6.9106474">
        <ele>1516.84</ele>
        <time>2019-09-10T08:06:53Z</time>
      </trkpt>
      <trkpt lat="45.9758729" lon="6.9105551">
        <ele>1515.87</ele>
        <time>2019-09-10T08:07:03Z</time>
      </trkpt>
      <trkpt lat="45.9757713" lon="6.9104867">
        <ele>1514.74</ele>
        <time>2019-09-10T08:07:13Z</time>
      </trkpt>
      <trkpt lat="45.9756872" lon="6.9104079">
        <ele>1512.97</ele>
        <time>2019-09-10T08:07:25Z</time>
      </trkpt>
      <trkpt lat="45.9756143" lon="6.9103092">
        <ele>1514.84</ele>
        <time>2019-09-10T08:07:35Z</time>
      </trkpt>
      <trkpt lat="45.9755299" lon="6.9102231">
        <ele>1515.93</ele>
        <time>2019-09-10T08:07:45Z</time>
      </trkpt>
      <trkpt lat="45.9754494" lon="6.9101573">
        <ele>1515.96</ele>
        <time>2019-09-10T08:07:53Z</time>
      </trkpt>
      <trkpt lat="45.9753502" lon="6.9101444">
        <ele>1515.94</ele>
        <time>2019-09-10T08:08:03Z</time>
      </trkpt>
      <trkpt lat="45.9752464" lon="6.9101030">
        <ele>1516.85</ele>
        <time>2019-09-10T08:08:13Z</time>
      </trkpt>
      <trkpt lat="45.9751828" lon="6.9099803">
        <ele>1516.18</ele>
        <time>2019-09-10T08:08:23Z</time>
      </trkpt>
      <trkpt lat="45.9751494" lon="6.9098288">
        <ele>1514.96</ele>
        <time>2019-09-10T08:08:33Z</time>
      </trkpt>
      <trkpt lat="45.9750793" lon="6.9097265">
        <ele>1514.94</ele>
        <time>2019-09-10T08:08:43Z</time>
      </trkpt>
      <trkpt lat="45.9749950" lon="6.9096671">
        <ele>1515.85</ele>
        <time>2019-09-10T08:08:53Z</time>
      </trkpt>
      <trkpt lat="45.9748971" lon="6.9096485">
        <ele>1515.94</ele>
        <time>2019-09-10T08:09:05Z</time>
      </trkpt>
      <trkpt lat="45.9747952" lon="6.9096427">
        <ele>1515.03</ele>
        <time>2019-09-10T08:09:13Z</time>
      </trkpt>
      <trkpt lat="45.9747019" lon="6.9096113">
        <ele>1515.02</ele>
        <time>2019-09-10T08:09:21Z</time>
      </trkpt>
      <trkpt lat="45.9746027" lon="6.9095939">
        <ele>1515.15</ele>
        <time>2019-09-10T08:09:29Z</time>
      </trkpt>
      <trkpt lat="45.9745167" lon="6.9095357">
        <ele>1515.85</ele>
        <time>2019-09-10T08:09:39Z</time>
      </trkpt>
      <trkpt lat="45.9744574" lon="6.9094355">
        <ele>1515.94</ele>
        <time>2019-09-10T08:09:49Z</time>
      </trkpt>
      <trkpt lat="45.9744098" lon="6.9093174">
        <ele>1515.94</ele>
        <time>2019-09-10T08:09:59Z</time>
      </trkpt>
      <trkpt lat="45.9743315" lon="6.9092230">
        <ele>1515.24</ele>
        <time>2019-09-10T08:10:07Z</time>
      </trkpt>
      <trkpt lat="45.9742696" lon="6.9091264">
        <ele>1515.94</ele>
        <time>2019-09-10T08:10:15Z</time>
      </trkpt>
      <trkpt lat="45.9741838" lon="6.9090293">
        <ele>1515.64</ele>
        <time>2019-09-10T08:10:25Z</time>
      </trkpt>
      <trkpt lat="45.9740731" lon="6.9090180">
        <ele>1514.76</ele>
        <time>2019-09-10T08:10:35Z</time>
      </trkpt>
      <trkpt lat="45.9740018" lon="6.9089000">
        <ele>1514.94</ele>
        <time>2019-09-10T08:10:49Z</time>
      </trkpt>
      <trkpt lat="45.9739130" lon="6.9088285">
        <ele>1514.94</ele>
        <time>2019-09-10T08:10:59Z</time>
      </trkpt>
      <trkpt lat="45.9738374" lon="6.9087203">
        <ele>1515.01</ele>
        <time>2019-09-10T08:11:09Z</time>
      </trkpt>
      <trkpt lat="45.9737871" lon="6.9085955">
        <ele>1515.72</ele>
        <time>2019-09-10T08:11:19Z</time>
      </trkpt>
      <trkpt lat="45.9737344" lon="6.9084779">
        <ele>1513.06</ele>
        <time>2019-09-10T08:11:31Z</time>
      </trkpt>
      <trkpt lat="45.9737047" lon="6.9083514">
        <ele>1512.03</ele>
        <time>2019-09-10T08:11:43Z</time>
      </trkpt>
      <trkpt lat="45.9736324" lon="6.9082725">
        <ele>1512.92</ele>
        <time>2019-09-10T08:11:53Z</time>
      </trkpt>
      <trkpt lat="45.9735560" lon="6.9081764">
        <ele>1512.24</ele>
        <time>2019-09-10T08:12:03Z</time>
      </trkpt>
      <trkpt lat="45.9734864" lon="6.9080691">
        <ele>1511.95</ele>
        <time>2019-09-10T08:12:13Z</time>
      </trkpt>
      <trkpt lat="45.9734058" lon="6.9079905">
        <ele>1513.91</ele>
        <time>2019-09-10T08:12:21Z</time>
      </trkpt>
      <trkpt lat="45.9733277" lon="6.9079209">
        <ele>1513.94</ele>
        <time>2019-09-10T08:12:29Z</time>
      </trkpt>
      <trkpt lat="45.9732415" lon="6.9078394">
        <ele>1513.94</ele>
        <time>2019-09-10T08:12:37Z</time>
      </trkpt>
      <trkpt lat="45.9731370" lon="6.9078022">
        <ele>1513.94</ele>
        <time>2019-09-10T08:12:47Z</time>
      </trkpt>
      <trkpt lat="45.9730528" lon="6.9077367">
        <ele>1512.76</ele>
        <time>2019-09-10T08:12:55Z</time>
      </trkpt>
      <trkpt lat="45.9729951" lon="6.9076270">
        <ele>1514.82</ele>
        <time>2019-09-10T08:13:07Z</time>
      </trkpt>
      <trkpt lat="45.9729337" lon="6.9075194">
        <ele>1513.97</ele>
        <time>2019-09-10T08:13:17Z</time>
      </trkpt>
      <trkpt lat="45.9728706" lon="6.9074079">
        <ele>1513.92</ele>
        <time>2019-09-10T08:13:27Z</time>
      </trkpt>
      <trkpt lat="45.9727785" lon="6.9073609">
        <ele>1514.91</ele>
        <time>2019-09-10T08:13:37Z</time>
      </trkpt>
      <trkpt lat="45.9726864" lon="6.9073407">
        <ele>1514.67</ele>
        <time>2019-09-10T08:13:47Z</time>
      </trkpt>
      <trkpt lat="45.9726083" lon="6.9072600">
        <ele>1514.94</ele>
        <time>2019-09-10T08:13:57Z</time>
      </trkpt>
      <trkpt lat="45.9725254" lon="6.9071856">
        <ele>1515.92</ele>
        <time>2019-09-10T08:14:07Z</time>
      </trkpt>
      <trkpt lat="45.9724428" lon="6.9071334">
        <ele>1515.94</ele>
        <time>2019-09-10T08:14:15Z</time>
      </trkpt>
      <trkpt lat="45.9723377" lon="6.9071093">
        <ele>1516.94</ele>
        <time>2019-09-10T08:14:25Z</time>
      </trkpt>
      <trkpt lat="45.9722659" lon="6.9070050">
        <ele>1516.31</ele>
        <time>2019-09-10T08:14:35Z</time>
      </trkpt>
      <trkpt lat="45.9722142" lon="6.9068889">
        <ele>1516.03</ele>
        <time>2019-09-10T08:14:47Z</time>
      </trkpt>
      <trkpt lat="45.9722618" lon="6.9067535">
        <ele>1516.94</ele>
        <time>2019-09-10T08:14:59Z</time>
      </trkpt>
      <trkpt lat="45.9722194" lon="6.9066138">
        <ele>1515.95</ele>
        <time>2019-09-10T08:15:11Z</time>
      </trkpt>
      <trkpt lat="45.9721663" lon="6.9065088">
        <ele>1517.84</ele>
        <time>2019-09-10T08:15:19Z</time>
      </trkpt>
      <trkpt lat="45.9721286" lon="6.9063908">
        <ele>1520.61</ele>
        <time>2019-09-10T08:15:29Z</time>
      </trkpt>
      <trkpt lat="45.9720799" lon="6.9062815">
        <ele>1521.94</ele>
        <time>2019-09-10T08:15:41Z</time>
      </trkpt>
      <trkpt lat="45.9720204" lon="6.9061685">
        <ele>1523.14</ele>
        <time>2019-09-10T08:15:51Z</time>
      </trkpt>
      <trkpt lat="45.9719213" lon="6.9061357">
        <ele>1524.64</ele>
        <time>2019-09-10T08:17:17Z</time>
      </trkpt>
      <trkpt lat="45.9718281" lon="6.9061920">
        <ele>1523.86</ele>
        <time>2019-09-10T08:17:29Z</time>
      </trkpt>
      <trkpt lat="45.9717356" lon="6.9062119">
        <ele>1524.96</ele>
        <time>2019-09-10T08:17:43Z</time>
      </trkpt>
      <trkpt lat="45.9716354" lon="6.9062315">
        <ele>1525.97</ele>
        <time>2019-09-10T08:17:59Z</time>
      </trkpt>
      <trkpt lat="45.9715395" lon="6.9062253">
        <ele>1524.03</ele>
        <time>2019-09-10T08:18:13Z</time>
      </trkpt>
      <trkpt lat="45.9714543" lon="6.9061726">
        <ele>1524.83</ele>
        <time>2019-09-10T08:18:29Z</time>
      </trkpt>
      <trkpt lat="45.9713659" lon="6.9061328">
        <ele>1522.27</ele>
        <time>2019-09-10T08:18:47Z</time>
      </trkpt>
      <trkpt lat="45.9713427" lon="6.9059925">
        <ele>1524.82</ele>
        <time>2019-09-10T08:18:55Z</time>
      </trkpt>
      <trkpt lat="45.9713155" lon="6.9058366">
        <ele>1521.76</ele>
        <time>2019-09-10T08:19:11Z</time>
      </trkpt>
      <trkpt lat="45.9712908" lon="6.9056944">
        <ele>1526.61</ele>
        <time>2019-09-10T08:19:27Z</time>
      </trkpt>
      <trkpt lat="45.9712346" lon="6.9055856">
        <ele>1528.84</ele>
        <time>2019-09-10T08:19:37Z</time>
      </trkpt>
      <trkpt lat="45.9711540" lon="6.9055102">
        <ele>1529.64</ele>
        <time>2019-09-10T08:19:47Z</time>
      </trkpt>
      <trkpt lat="45.9710937" lon="6.9054074">
        <ele>1530.74</ele>
        <time>2019-09-10T08:20:05Z</time>
      </trkpt>
      <trkpt lat="45.9709873" lon="6.9053803">
        <ele>1541.70</ele>
        <time>2019-09-10T08:20:23Z</time>
      </trkpt>
      <trkpt lat="45.9709765" lon="6.9052439">
        <ele>1539.54</ele>
        <time>2019-09-10T08:20:29Z</time>
      </trkpt>
      <trkpt lat="45.9709413" lon="6.9051237">
        <ele>1539.86</ele>
        <time>2019-09-10T08:20:41Z</time>
      </trkpt>
      <trkpt lat="45.9708769" lon="6.9050216">
        <ele>1535.04</ele>
        <time>2019-09-10T08:20:57Z</time>
      </trkpt>
      <trkpt lat="45.9708170" lon="6.9049177">
        <ele>1540.62</ele>
        <time>2019-09-10T08:21:07Z</time>
      </trkpt>
      <trkpt lat="45.9707327" lon="6.9048516">
        <ele>1538.57</ele>
        <time>2019-09-10T08:21:15Z</time>
      </trkpt>
      <trkpt lat="45.9706523" lon="6.9047492">
        <ele>1538.94</ele>
        <time>2019-09-10T08:21:25Z</time>
      </trkpt>
      <trkpt lat="45.9705579" lon="6.9047336">
        <ele>1540.93</ele>
        <time>2019-09-10T08:21:35Z</time>
      </trkpt>
      <trkpt lat="45.9705132" lon="6.9046185">
        <ele>1544.59</ele>
        <time>2019-09-10T08:21:53Z</time>
      </trkpt>
      <trkpt lat="45.9704277" lon="6.9045424">
        <ele>1544.25</ele>
        <time>2019-09-10T08:22:03Z</time>
      </trkpt>
      <trkpt lat="45.9703337" lon="6.9044645">
        <ele>1543.18</ele>
        <time>2019-09-10T08:22:13Z</time>
      </trkpt>
      <trkpt lat="45.9702583" lon="6.9043839">
        <ele>1543.64</ele>
        <time>2019-09-10T08:22:21Z</time>
      </trkpt>
      <trkpt lat="45.9701718" lon="6.9043068">
        <ele>1545.85</ele>
        <time>2019-09-10T08:22:31Z</time>
      </trkpt>
      <trkpt lat="45.9700992" lon="6.9041911">
        <ele>1547.61</ele>
        <time>2019-09-10T08:22:43Z</time>
      </trkpt>
      <trkpt lat="45.9700453" lon="6.9040778">
        <ele>1548.91</ele>
        <time>2019-09-10T08:22:53Z</time>
      </trkpt>
      <trkpt lat="45.9700140" lon="6.9039319">
        <ele>1548.64</ele>
        <time>2019-09-10T08:23:05Z</time>
      </trkpt>
      <trkpt lat="45.9699323" lon="6.9038488">
        <ele>1550.61</ele>
        <time>2019-09-10T08:23:15Z</time>
      </trkpt>
      <trkpt lat="45.9698420" lon="6.9038085">
        <ele>1550.86</ele>
        <time>2019-09-10T08:23:23Z</time>
      </trkpt>
      <trkpt lat="45.9697622" lon="6.9037448">
        <ele>1551.85</ele>
        <time>2019-09-10T08:23:31Z</time>
      </trkpt>
      <trkpt lat="45.9697155" lon="6.9036280">
        <ele>1550.95</ele>
        <time>2019-09-10T08:23:39Z</time>
      </trkpt>
      <trkpt lat="45.9696288" lon="6.9035532">
        <ele>1552.93</ele>
        <time>2019-09-10T08:23:51Z</time>
      </trkpt>
      <trkpt lat="45.9695745" lon="6.9034448">
        <ele>1552.73</ele>
        <time>2019-09-10T08:23:59Z</time>
      </trkpt>
      <trkpt lat="45.9695050" lon="6.9033431">
        <ele>1553.64</ele>
        <time>2019-09-10T08:24:11Z</time>
      </trkpt>
      <trkpt lat="45.9694287" lon="6.9032393">
        <ele>1553.94</ele>
        <time>2019-09-10T08:24:23Z</time>
      </trkpt>
      <trkpt lat="45.9693521" lon="6.9031610">
        <ele>1553.94</ele>
        <time>2019-09-10T08:24:33Z</time>
      </trkpt>
      <trkpt lat="45.9692804" lon="6.9030616">
        <ele>1554.94</ele>
        <time>2019-09-10T08:24:45Z</time>
      </trkpt>
      <trkpt lat="45.9691988" lon="6.9030059">
        <ele>1556.62</ele>
        <time>2019-09-10T08:24:57Z</time>
      </trkpt>
      <trkpt lat="45.9691170" lon="6.9029314">
        <ele>1558.70</ele>
        <time>2019-09-10T08:25:09Z</time>
      </trkpt>
      <trkpt lat="45.9690430" lon="6.9028416">
        <ele>1559.85</ele>
        <time>2019-09-10T08:25:21Z</time>
      </trkpt>
      <trkpt lat="45.9689512" lon="6.9027856">
        <ele>1560.85</ele>
        <time>2019-09-10T08:25:31Z</time>
      </trkpt>
      <trkpt lat="45.9688700" lon="6.9027050">
        <ele>1562.61</ele>
        <time>2019-09-10T08:25:43Z</time>
      </trkpt>
      <trkpt lat="45.9688031" lon="6.9026109">
        <ele>1563.70</ele>
        <time>2019-09-10T08:25:53Z</time>
      </trkpt>
      <trkpt lat="45.9687081" lon="6.9025807">
        <ele>1564.93</ele>
        <time>2019-09-10T08:26:03Z</time>
      </trkpt>
      <trkpt lat="45.9686176" lon="6.9024880">
        <ele>1565.92</ele>
        <time>2019-09-10T08:26:13Z</time>
      </trkpt>
      <trkpt lat="45.9685330" lon="6.9024146">
        <ele>1566.93</ele>
        <time>2019-09-10T08:26:23Z</time>
      </trkpt>
      <trkpt lat="45.9684563" lon="6.9023195">
        <ele>1566.03</ele>
        <time>2019-09-10T08:26:33Z</time>
      </trkpt>
      <trkpt lat="45.9683762" lon="6.9022274">
        <ele>1565.94</ele>
        <time>2019-09-10T08:26:43Z</time>
      </trkpt>
      <trkpt lat="45.9682963" lon="6.9021508">
        <ele>1566.93</ele>
        <time>2019-09-10T08:26:53Z</time>
      </trkpt>
      <trkpt lat="45.9682260" lon="6.9020372">
        <ele>1568.84</ele>
        <time>2019-09-10T08:27:03Z</time>
      </trkpt>
      <trkpt lat="45.9681443" lon="6.9019356">
        <ele>1569.64</ele>
        <time>2019-09-10T08:27:13Z</time>
      </trkpt>
      <trkpt lat="45.9680672" lon="6.9018471">
        <ele>1570.83</ele>
        <time>2019-09-10T08:27:21Z</time>
      </trkpt>
      <trkpt lat="45.9679877" lon="6.9017421">
        <ele>1571.85</ele>
        <time>2019-09-10T08:27:29Z</time>
      </trkpt>
      <trkpt lat="45.9678956" lon="6.9016834">
        <ele>1573.12</ele>
        <time>2019-09-10T08:27:35Z</time>
      </trkpt>
      <trkpt lat="45.9678119" lon="6.9016219">
        <ele>1567.91</ele>
        <time>2019-09-10T08:27:47Z</time>
      </trkpt>
      <trkpt lat="45.9677223" lon="6.9015833">
        <ele>1566.91</ele>
        <time>2019-09-10T08:27:53Z</time>
      </trkpt>
      <trkpt lat="45.9676356" lon="6.9015422">
        <ele>1567.30</ele>
        <time>2019-09-10T08:28:01Z</time>
      </trkpt>
      <trkpt lat="45.9675500" lon="6.9014871">
        <ele>1566.02</ele>
        <time>2019-09-10T08:28:09Z</time>
      </trkpt>
      <trkpt lat="45.9674587" lon="6.9014334">
        <ele>1567.55</ele>
        <time>2019-09-10T08:28:17Z</time>
      </trkpt>
      <trkpt lat="45.9673691" lon="6.9013586">
        <ele>1568.64</ele>
        <time>2019-09-10T08:28:29Z</time>
      </trkpt>
      <trkpt lat="45.9672903" lon="6.9012953">
        <ele>1568.63</ele>
        <time>2019-09-10T08:30:53Z</time>
      </trkpt>
      <trkpt lat="45.9672162" lon="6.9012212">
        <ele>1569.16</ele>
        <time>2019-09-10T08:31:05Z</time>
      </trkpt>
      <trkpt lat="45.9671579" lon="6.9010960">
        <ele>1573.54</ele>
        <time>2019-09-10T08:31:19Z</time>
      </trkpt>
      <trkpt lat="45.9670491" lon="6.9010640">
        <ele>1572.76</ele>
        <time>2019-09-10T08:31:29Z</time>
      </trkpt>
      <trkpt lat="45.9669512" lon="6.9010066">
        <ele>1574.84</ele>
        <time>2019-09-10T08:31:41Z</time>
      </trkpt>
      <trkpt lat="45.9668431" lon="6.9009701">
        <ele>1575.85</ele>
        <time>2019-09-10T08:31:51Z</time>
      </trkpt>
      <trkpt lat="45.9667359" lon="6.9009531">
        <ele>1572.26</ele>
        <time>2019-09-10T08:32:01Z</time>
      </trkpt>
      <trkpt lat="45.9666407" lon="6.9009091">
        <ele>1570.96</ele>
        <time>2019-09-10T08:32:11Z</time>
      </trkpt>
      <trkpt lat="45.9665641" lon="6.9008075">
        <ele>1570.67</ele>
        <time>2019-09-10T08:32:21Z</time>
      </trkpt>
      <trkpt lat="45.9664688" lon="6.9007423">
        <ele>1570.94</ele>
        <time>2019-09-10T08:32:31Z</time>
      </trkpt>
      <trkpt lat="45.9663965" lon="6.9008242">
        <ele>1574.34</ele>
        <time>2019-09-10T08:47:14Z</time>
      </trkpt>
      <trkpt lat="45.9664225" lon="6.9007003">
        <ele>1563.33</ele>
        <time>2019-09-10T08:49:16Z</time>
      </trkpt>
      <trkpt lat="45.9664231" lon="6.9008407">
        <ele>1579.59</ele>
        <time>2019-09-10T08:50:38Z</time>
      </trkpt>
      <trkpt lat="45.9664118" lon="6.9009765">
        <ele>1580.63</ele>
        <time>2019-09-10T08:51:17Z</time>
      </trkpt>
      <trkpt lat="45.9664379" lon="6.9011215">
        <ele>1575.95</ele>
        <time>2019-09-10T08:51:39Z</time>
      </trkpt>
      <trkpt lat="45.9664086" lon="6.9012585">
        <ele>1573.97</ele>
        <time>2019-09-10T08:51:51Z</time>
      </trkpt>
      <trkpt lat="45.9664230" lon="6.9013872">
        <ele>1571.03</ele>
        <time>2019-09-10T08:52:07Z</time>
      </trkpt>
      <trkpt lat="45.9663246" lon="6.9013841">
        <ele>1568.06</ele>
        <time>2019-09-10T08:52:23Z</time>
      </trkpt>
      <trkpt lat="45.9662353" lon="6.9014085">
        <ele>1566.03</ele>
        <time>2019-09-10T08:52:37Z</time>
      </trkpt>
      <trkpt lat="45.9661333" lon="6.9014016">
        <ele>1564.27</ele>
        <time>2019-09-10T08:52:47Z</time>
      </trkpt>
      <trkpt lat="45.9661694" lon="6.9015298">
        <ele>1562.95</ele>
        <time>2019-09-10T08:52:57Z</time>
      </trkpt>
      <trkpt lat="45.9662403" lon="6.9016155">
        <ele>1559.27</ele>
        <time>2019-09-10T08:53:09Z</time>
      </trkpt>
      <trkpt lat="45.9663341" lon="6.9016744">
        <ele>1557.25</ele>
        <time>2019-09-10T08:53:19Z</time>
      </trkpt>
      <trkpt lat="45.9664175" lon="6.9017613">
        <ele>1555.25</ele>
        <time>2019-09-10T08:53:27Z</time>
      </trkpt>
      <trkpt lat="45.9663143" lon="6.9017276">
        <ele>1549.82</ele>
        <time>2019-09-10T08:53:37Z</time>
      </trkpt>
      <trkpt lat="45.9662715" lon="6.9018504">
        <ele>1545.00</ele>
        <time>2019-09-10T08:53:49Z</time>
      </trkpt>
      <trkpt lat="45.9663457" lon="6.9019517">
        <ele>1544.20</ele>
        <time>2019-09-10T08:53:57Z</time>
      </trkpt>
      <trkpt lat="45.9662408" lon="6.9019692">
        <ele>1540.88</ele>
        <time>2019-09-10T08:54:13Z</time>
      </trkpt>
      <trkpt lat="45.9661282" lon="6.9019741">
        <ele>1545.17</ele>
        <time>2019-09-10T08:54:25Z</time>
      </trkpt>
      <trkpt lat="45.9661997" lon="6.9020692">
        <ele>1539.04</ele>
        <time>2019-09-10T08:54:47Z</time>
      </trkpt>
      <trkpt lat="45.9663029" lon="6.9020920">
        <ele>1536.04</ele>
        <time>2019-09-10T08:54:59Z</time>
      </trkpt>
      <trkpt lat="45.9664099" lon="6.9021152">
        <ele>1533.33</ele>
        <time>2019-09-10T08:55:09Z</time>
      </trkpt>
      <trkpt lat="45.9663785" lon="6.9022418">
        <ele>1525.72</ele>
        <time>2019-09-10T08:55:25Z</time>
      </trkpt>
      <trkpt lat="45.9663882" lon="6.9023823">
        <ele>1512.64</ele>
        <time>2019-09-10T08:55:55Z</time>
      </trkpt>
      <trkpt lat="45.9663399" lon="6.9025104">
        <ele>1503.69</ele>
        <time>2019-09-10T08:56:27Z</time>
      </trkpt>
      <trkpt lat="45.9663874" lon="6.9026512">
        <ele>1501.60</ele>
        <time>2019-09-10T08:56:39Z</time>
      </trkpt>
      <trkpt lat="45.9662688" lon="6.9026415">
        <ele>1501.24</ele>
        <time>2019-09-10T08:56:51Z</time>
      </trkpt>
      <trkpt lat="45.9661724" lon="6.9026379">
        <ele>1495.98</ele>
        <time>2019-09-10T08:57:05Z</time>
      </trkpt>
      <trkpt lat="45.9661208" lon="6.9027827">
        <ele>1496.71</ele>
        <time>2019-09-10T08:57:11Z</time>
      </trkpt>
      <trkpt lat="45.9661975" lon="6.9028733">
        <ele>1490.39</ele>
        <time>2019-09-10T08:57:19Z</time>
      </trkpt>
      <trkpt lat="45.9663115" lon="6.9028333">
        <ele>1487.30</ele>
        <time>2019-09-10T08:57:27Z</time>
      </trkpt>
      <trkpt lat="45.9664052" lon="6.9028263">
        <ele>1485.50</ele>
        <time>2019-09-10T08:57:33Z</time>
      </trkpt>
      <trkpt lat="45.9665108" lon="6.9028280">
        <ele>1477.57</ele>
        <time>2019-09-10T08:57:49Z</time>
      </trkpt>
      <trkpt lat="45.9666027" lon="6.9028328">
        <ele>1484.57</ele>
        <time>2019-09-10T08:57:59Z</time>
      </trkpt>
      <trkpt lat="45.9666689" lon="6.9029536">
        <ele>1481.96</ele>
        <time>2019-09-10T08:58:21Z</time>
      </trkpt>
      <trkpt lat="45.9666848" lon="6.9031061">
        <ele>1483.71</ele>
        <time>2019-09-10T08:58:33Z</time>
      </trkpt>
      <trkpt lat="45.9665550" lon="6.9031318">
        <ele>1484.29</ele>
        <time>2019-09-10T08:59:03Z</time>
      </trkpt>
      <trkpt lat="45.9664454" lon="6.9031931">
        <ele>1479.64</ele>
        <time>2019-09-10T08:59:11Z</time>
      </trkpt>
      <trkpt lat="45.9663581" lon="6.9031598">
        <ele>1469.77</ele>
        <time>2019-09-10T08:59:45Z</time>
      </trkpt>
      <trkpt lat="45.9664059" lon="6.9033149">
        <ele>1463.34</ele>
        <time>2019-09-10T08:59:55Z</time>
      </trkpt>
      <trkpt lat="45.9664339" lon="6.9034594">
        <ele>1457.65</ele>
        <time>2019-09-10T09:00:11Z</time>
      </trkpt>
      <trkpt lat="45.9665307" lon="6.9035102">
        <ele>1455.97</ele>
        <time>2019-09-10T09:00:27Z</time>
      </trkpt>
      <trkpt lat="45.9666171" lon="6.9035536">
        <ele>1454.25</ele>
        <time>2019-09-10T09:00:35Z</time>
      </trkpt>
      <trkpt lat="45.9666210" lon="6.9036990">
        <ele>1445.77</ele>
        <time>2019-09-10T09:00:47Z</time>
      </trkpt>
      <trkpt lat="45.9666357" lon="6.9038554">
        <ele>1440.13</ele>
        <time>2019-09-10T09:00:59Z</time>
      </trkpt>
      <trkpt lat="45.9666569" lon="6.9040127">
        <ele>1436.98</ele>
        <time>2019-09-10T09:01:09Z</time>
      </trkpt>
      <trkpt lat="45.9667386" lon="6.9040729">
        <ele>1425.84</ele>
        <time>2019-09-10T09:01:17Z</time>
      </trkpt>
      <trkpt lat="45.9668239" lon="6.9041273">
        <ele>1426.93</ele>
        <time>2019-09-10T09:01:29Z</time>
      </trkpt>
      <trkpt lat="45.9668997" lon="6.9042127">
        <ele>1426.94</ele>
        <time>2019-09-10T09:01:37Z</time>
      </trkpt>
      <trkpt lat="45.9669464" lon="6.9043295">
        <ele>1428.61</ele>
        <time>2019-09-10T09:01:49Z</time>
      </trkpt>
      <trkpt lat="45.9669909" lon="6.9044604">
        <ele>1427.25</ele>
        <time>2019-09-10T09:02:05Z</time>
      </trkpt>
      <trkpt lat="45.9670263" lon="6.9045830">
        <ele>1425.25</ele>
        <time>2019-09-10T09:02:19Z</time>
      </trkpt>
      <trkpt lat="45.9670885" lon="6.9047075">
        <ele>1422.27</ele>
        <time>2019-09-10T09:02:31Z</time>
      </trkpt>
      <trkpt lat="45.9671149" lon="6.9048650">
        <ele>1416.63</ele>
        <time>2019-09-10T09:02:39Z</time>
      </trkpt>
      <trkpt lat="45.9670145" lon="6.9048789">
        <ele>1409.95</ele>
        <time>2019-09-10T09:03:13Z</time>
      </trkpt>
      <trkpt lat="45.9669250" lon="6.9049052">
        <ele>1406.97</ele>
        <time>2019-09-10T09:03:43Z</time>
      </trkpt>
      <trkpt lat="45.9669830" lon="6.9050294">
        <ele>1400.78</ele>
        <time>2019-09-10T09:03:57Z</time>
      </trkpt>
      <trkpt lat="45.9670394" lon="6.9051522">
        <ele>1391.84</ele>
        <time>2019-09-10T09:04:07Z</time>
      </trkpt>
      <trkpt lat="45.9671146" lon="6.9052339">
        <ele>1385.17</ele>
        <time>2019-09-10T09:04:17Z</time>
      </trkpt>
      <trkpt lat="45.9671616" lon="6.9053663">
        <ele>1381.51</ele>
        <time>2019-09-10T09:04:27Z</time>
      </trkpt>
      <trkpt lat="45.9672146" lon="6.9054745">
        <ele>1378.22</ele>
        <time>2019-09-10T09:04:35Z</time>
      </trkpt>
      <trkpt lat="45.9671135" lon="6.9054847">
        <ele>1375.22</ele>
        <time>2019-09-10T09:04:41Z</time>
      </trkpt>
      <trkpt lat="45.9671046" lon="6.9056190">
        <ele>1370.93</ele>
        <time>2019-09-10T09:04:59Z</time>
      </trkpt>
      <trkpt lat="45.9670521" lon="6.9057278">
        <ele>1368.54</ele>
        <time>2019-09-10T09:05:17Z</time>
      </trkpt>
      <trkpt lat="45.9671171" lon="6.9058280">
        <ele>1364.26</ele>
        <time>2019-09-10T09:05:23Z</time>
      </trkpt>
      <trkpt lat="45.9671763" lon="6.9059309">
        <ele>1366.67</ele>
        <time>2019-09-10T09:05:31Z</time>
      </trkpt>
      <trkpt lat="45.9672393" lon="6.9060397">
        <ele>1364.06</ele>
        <time>2019-09-10T09:05:55Z</time>
      </trkpt>
      <trkpt lat="45.9672525" lon="6.9062004">
        <ele>1357.50</ele>
        <time>2019-09-10T09:06:13Z</time>
      </trkpt>
      <trkpt lat="45.9672421" lon="6.9063535">
        <ele>1352.18</ele>
        <time>2019-09-10T09:06:29Z</time>
      </trkpt>
      <trkpt lat="45.9672012" lon="6.9064822">
        <ele>1349.77</ele>
        <time>2019-09-10T09:06:43Z</time>
      </trkpt>
      <trkpt lat="45.9672627" lon="6.9065987">
        <ele>1344.84</ele>
        <time>2019-09-10T09:06:57Z</time>
      </trkpt>
      <trkpt lat="45.9673711" lon="6.9066758">
        <ele>1343.02</ele>
        <time>2019-09-10T09:07:13Z</time>
      </trkpt>
      <trkpt lat="45.9674088" lon="6.9068313">
        <ele>1342.84</ele>
        <time>2019-09-10T09:07:23Z</time>
      </trkpt>
      <trkpt lat="45.9674798" lon="6.9069302">
        <ele>1337.43</ele>
        <time>2019-09-10T09:07:47Z</time>
      </trkpt>
      <trkpt lat="45.9675613" lon="6.9070298">
        <ele>1334.95</ele>
        <time>2019-09-10T09:07:57Z</time>
      </trkpt>
      <trkpt lat="45.9676261" lon="6.9071267">
        <ele>1334.73</ele>
        <time>2019-09-10T09:08:05Z</time>
      </trkpt>
      <trkpt lat="45.9676538" lon="6.9072733">
        <ele>1334.67</ele>
        <time>2019-09-10T09:08:17Z</time>
      </trkpt>
      <trkpt lat="45.9677389" lon="6.9073617">
        <ele>1333.95</ele>
        <time>2019-09-10T09:08:27Z</time>
      </trkpt>
      <trkpt lat="45.9678220" lon="6.9074613">
        <ele>1331.97</ele>
        <time>2019-09-10T09:08:37Z</time>
      </trkpt>
      <trkpt lat="45.9678820" lon="6.9075577">
        <ele>1330.06</ele>
        <time>2019-09-10T09:08:45Z</time>
      </trkpt>
      <trkpt lat="45.9679769" lon="6.9076089">
        <ele>1329.03</ele>
        <time>2019-09-10T09:08:55Z</time>
      </trkpt>
      <trkpt lat="45.9680680" lon="6.9075848">
        <ele>1327.27</ele>
        <time>2019-09-10T09:09:03Z</time>
      </trkpt>
      <trkpt lat="45.9681618" lon="6.9076083">
        <ele>1333.13</ele>
        <time>2019-09-10T09:09:13Z</time>
      </trkpt>
      <trkpt lat="45.9682374" lon="6.9076815">
        <ele>1327.68</ele>
        <time>2019-09-10T09:09:27Z</time>
      </trkpt>
      <trkpt lat="45.9683182" lon="6.9077474">
        <ele>1322.25</ele>
        <time>2019-09-10T09:09:39Z</time>
      </trkpt>
      <trkpt lat="45.9682623" lon="6.9078506">
        <ele>1320.33</ele>
        <time>2019-09-10T09:09:49Z</time>
      </trkpt>
      <trkpt lat="45.9681667" lon="6.9078666">
        <ele>1307.90</ele>
        <time>2019-09-10T09:10:29Z</time>
      </trkpt>
      <trkpt lat="45.9680670" lon="6.9078408">
        <ele>1313.40</ele>
        <time>2019-09-10T09:10:37Z</time>
      </trkpt>
      <trkpt lat="45.9681093" lon="6.9080073">
        <ele>1303.79</ele>
        <time>2019-09-10T09:10:47Z</time>
      </trkpt>
      <trkpt lat="45.9680500" lon="6.9081291">
        <ele>1303.09</ele>
        <time>2019-09-10T09:10:55Z</time>
      </trkpt>
      <trkpt lat="45.9680928" lon="6.9082903">
        <ele>1289.81</ele>
        <time>2019-09-10T09:11:19Z</time>
      </trkpt>
      <trkpt lat="45.9681506" lon="6.9084029">
        <ele>1287.95</ele>
        <time>2019-09-10T09:11:29Z</time>
      </trkpt>
      <trkpt lat="45.9682380" lon="6.9084583">
        <ele>1281.37</ele>
        <time>2019-09-10T09:11:47Z</time>
      </trkpt>
      <trkpt lat="45.9682968" lon="6.9085698">
        <ele>1279.80</ele>
        <time>2019-09-10T09:11:57Z</time>
      </trkpt>
      <trkpt lat="45.9682845" lon="6.9087072">
        <ele>1278.75</ele>
        <time>2019-09-10T09:12:07Z</time>
      </trkpt>
      <trkpt lat="45.9683223" lon="6.9088274">
        <ele>1277.22</ele>
        <time>2019-09-10T09:12:21Z</time>
      </trkpt>
      <trkpt lat="45.9683500" lon="6.9089710">
        <ele>1272.19</ele>
        <time>2019-09-10T09:12:31Z</time>
      </trkpt>
      <trkpt lat="45.9683377" lon="6.9088316">
        <ele>1270.26</ele>
        <time>2019-09-10T09:12:51Z</time>
      </trkpt>
      <trkpt lat="45.9682316" lon="6.9088228">
        <ele>1267.39</ele>
        <time>2019-09-10T09:13:05Z</time>
      </trkpt>
      <trkpt lat="45.9681242" lon="6.9088031">
        <ele>1264.07</ele>
        <time>2019-09-10T09:13:17Z</time>
      </trkpt>
      <trkpt lat="45.9680422" lon="6.9088607">
        <ele>1263.01</ele>
        <time>2019-09-10T09:13:31Z</time>
      </trkpt>
      <trkpt lat="45.9679492" lon="6.9088530">
        <ele>1262.24</ele>
        <time>2019-09-10T09:13:41Z</time>
      </trkpt>
      <trkpt lat="45.9678529" lon="6.9088216">
        <ele>1261.03</ele>
        <time>2019-09-10T09:13:53Z</time>
      </trkpt>
      <trkpt lat="45.9677629" lon="6.9088384">
        <ele>1259.25</ele>
        <time>2019-09-10T09:14:01Z</time>
      </trkpt>
      <trkpt lat="45.9676683" lon="6.9088816">
        <ele>1257.95</ele>
        <time>2019-09-10T09:14:11Z</time>
      </trkpt>
      <trkpt lat="45.9675931" lon="6.9089744">
        <ele>1255.83</ele>
        <time>2019-09-10T09:15:10Z</time>
      </trkpt>
      <trkpt lat="45.9675368" lon="6.9088712">
        <ele>1250.05</ele>
        <time>2019-09-10T09:16:05Z</time>
      </trkpt>
      <trkpt lat="45.9674319" lon="6.9088521">
        <ele>1250.15</ele>
        <time>2019-09-10T09:16:11Z</time>
      </trkpt>
      <trkpt lat="45.9673699" lon="6.9087448">
        <ele>1247.36</ele>
        <time>2019-09-10T09:16:21Z</time>
      </trkpt>
      <trkpt lat="45.9672745" lon="6.9086953">
        <ele>1244.98</ele>
        <time>2019-09-10T09:16:29Z</time>
      </trkpt>
      <trkpt lat="45.9671964" lon="6.9085962">
        <ele>1245.92</ele>
        <time>2019-09-10T09:16:37Z</time>
      </trkpt>
      <trkpt lat="45.9671066" lon="6.9086180">
        <ele>1243.95</ele>
        <time>2019-09-10T09:16:47Z</time>
      </trkpt>
      <trkpt lat="45.9670090" lon="6.9086173">
        <ele>1241.27</ele>
        <time>2019-09-10T09:16:57Z</time>
      </trkpt>
      <trkpt lat="45.9669184" lon="6.9085702">
        <ele>1240.94</ele>
        <time>2019-09-10T09:17:05Z</time>
      </trkpt>
      <trkpt lat="45.9668276" lon="6.9084998">
        <ele>1241.01</ele>
        <time>2019-09-10T09:17:17Z</time>
      </trkpt>
      <trkpt lat="45.9667411" lon="6.9083915">
        <ele>1238.04</ele>
        <time>2019-09-10T09:17:29Z</time>
      </trkpt>
      <trkpt lat="45.9666429" lon="6.9083389">
        <ele>1237.03</ele>
        <time>2019-09-10T09:17:35Z</time>
      </trkpt>
      <trkpt lat="45.9665704" lon="6.9082554">
        <ele>1236.94</ele>
        <time>2019-09-10T09:17:41Z</time>
      </trkpt>
      <trkpt lat="45.9665172" lon="6.9081488">
        <ele>1236.03</ele>
        <time>2019-09-10T09:17:51Z</time>
      </trkpt>
      <trkpt lat="45.9664754" lon="6.9080310">
        <ele>1235.94</ele>
        <time>2019-09-10T09:18:01Z</time>
      </trkpt>
      <trkpt lat="45.9664517" lon="6.9078656">
        <ele>1235.94</ele>
        <time>2019-09-10T09:18:11Z</time>
      </trkpt>
      <trkpt lat="45.9663875" lon="6.9077658">
        <ele>1236.64</ele>
        <time>2019-09-10T09:18:17Z</time>
      </trkpt>
      <trkpt lat="45.9663180" lon="6.9076800">
        <ele>1236.94</ele>
        <time>2019-09-10T09:18:25Z</time>
      </trkpt>
      <trkpt lat="45.9662190" lon="6.9076005">
        <ele>1237.94</ele>
        <time>2019-09-10T09:18:35Z</time>
      </trkpt>
      <trkpt lat="45.9661155" lon="6.9075335">
        <ele>1237.24</ele>
        <time>2019-09-10T09:18:43Z</time>
      </trkpt>
      <trkpt lat="45.9660123" lon="6.9075357">
        <ele>1237.94</ele>
        <time>2019-09-10T09:18:51Z</time>
      </trkpt>
      <trkpt lat="45.9659272" lon="6.9074937">
        <ele>1238.64</ele>
        <time>2019-09-10T09:18:59Z</time>
      </trkpt>
      <trkpt lat="45.9658345" lon="6.9074976">
        <ele>1238.94</ele>
        <time>2019-09-10T09:19:11Z</time>
      </trkpt>
      <trkpt lat="45.9657557" lon="6.9074284">
        <ele>1239.21</ele>
        <time>2019-09-10T09:19:19Z</time>
      </trkpt>
      <trkpt lat="45.9656698" lon="6.9073291">
        <ele>1239.94</ele>
        <time>2019-09-10T09:19:29Z</time>
      </trkpt>
      <trkpt lat="45.9656006" lon="6.9072146">
        <ele>1238.25</ele>
        <time>2019-09-10T09:19:39Z</time>
      </trkpt>
      <trkpt lat="45.9655299" lon="6.9070906">
        <ele>1238.64</ele>
        <time>2019-09-10T09:19:49Z</time>
      </trkpt>
      <trkpt lat="45.9654435" lon="6.9069961">
        <ele>1238.94</ele>
        <time>2019-09-10T09:19:57Z</time>
      </trkpt>
      <trkpt lat="45.9653459" lon="6.9069947">
        <ele>1238.24</ele>
        <time>2019-09-10T09:20:05Z</time>
      </trkpt>
      <trkpt lat="45.9652618" lon="6.9069214">
        <ele>1238.94</ele>
        <time>2019-09-10T09:20:13Z</time>
      </trkpt>
      <trkpt lat="45.9651699" lon="6.9068564">
        <ele>1237.97</ele>
        <time>2019-09-10T09:20:21Z</time>
      </trkpt>
      <trkpt lat="45.9650970" lon="6.9067692">
        <ele>1237.94</ele>
        <time>2019-09-10T09:20:29Z</time>
      </trkpt>
      <trkpt lat="45.9650123" lon="6.9066750">
        <ele>1236.97</ele>
        <time>2019-09-10T09:20:37Z</time>
      </trkpt>
      <trkpt lat="45.9649522" lon="6.9065577">
        <ele>1237.93</ele>
        <time>2019-09-10T09:20:45Z</time>
      </trkpt>
      <trkpt lat="45.9648700" lon="6.9064964">
        <ele>1236.95</ele>
        <time>2019-09-10T09:20:53Z</time>
      </trkpt>
      <trkpt lat="45.9647661" lon="6.9064457">
        <ele>1236.94</ele>
        <time>2019-09-10T09:21:01Z</time>
      </trkpt>
      <trkpt lat="45.9646610" lon="6.9064267">
        <ele>1236.94</ele>
        <time>2019-09-10T09:21:09Z</time>
      </trkpt>
      <trkpt lat="45.9645558" lon="6.9064187">
        <ele>1236.94</ele>
        <time>2019-09-10T09:21:17Z</time>
      </trkpt>
      <trkpt lat="45.9644498" lon="6.9064321">
        <ele>1236.24</ele>
        <time>2019-09-10T09:21:25Z</time>
      </trkpt>
      <trkpt lat="45.9643477" lon="6.9063447">
        <ele>1235.94</ele>
        <time>2019-09-10T09:21:33Z</time>
      </trkpt>
      <trkpt lat="45.9642417" lon="6.9062875">
        <ele>1235.94</ele>
        <time>2019-09-10T09:21:41Z</time>
      </trkpt>
      <trkpt lat="45.9641463" lon="6.9062418">
        <ele>1236.85</ele>
        <time>2019-09-10T09:21:49Z</time>
      </trkpt>
      <trkpt lat="45.9640526" lon="6.9062004">
        <ele>1236.94</ele>
        <time>2019-09-10T09:21:57Z</time>
      </trkpt>
      <trkpt lat="45.9639462" lon="6.9061572">
        <ele>1238.63</ele>
        <time>2019-09-10T09:22:05Z</time>
      </trkpt>
      <trkpt lat="45.9638451" lon="6.9061475">
        <ele>1237.94</ele>
        <time>2019-09-10T09:22:15Z</time>
      </trkpt>
      <trkpt lat="45.9637568" lon="6.9060710">
        <ele>1237.94</ele>
        <time>2019-09-10T09:22:25Z</time>
      </trkpt>
      <trkpt lat="45.9636909" lon="6.9059765">
        <ele>1237.24</ele>
        <time>2019-09-10T09:22:31Z</time>
      </trkpt>
      <trkpt lat="45.9636392" lon="6.9058665">
        <ele>1237.64</ele>
        <time>2019-09-10T09:22:39Z</time>
      </trkpt>
      <trkpt lat="45.9635843" lon="6.9057567">
        <ele>1238.91</ele>
        <time>2019-09-10T09:22:47Z</time>
      </trkpt>
      <trkpt lat="45.9635185" lon="6.9056478">
        <ele>1239.15</ele>
        <time>2019-09-10T09:22:57Z</time>
      </trkpt>
      <trkpt lat="45.9634207" lon="6.9056150">
        <ele>1238.97</ele>
        <time>2019-09-10T09:23:09Z</time>
      </trkpt>
      <trkpt lat="45.9633471" lon="6.9055100">
        <ele>1238.94</ele>
        <time>2019-09-10T09:23:17Z</time>
      </trkpt>
      <trkpt lat="45.9632487" lon="6.9054691">
        <ele>1237.97</ele>
        <time>2019-09-10T09:23:25Z</time>
      </trkpt>
      <trkpt lat="45.9631532" lon="6.9054160">
        <ele>1237.94</ele>
        <time>2019-09-10T09:23:33Z</time>
      </trkpt>
      <trkpt lat="45.9630528" lon="6.9054099">
        <ele>1236.94</ele>
        <time>2019-09-10T09:23:45Z</time>
      </trkpt>
      <trkpt lat="45.9629646" lon="6.9053616">
        <ele>1235.97</ele>
        <time>2019-09-10T09:23:53Z</time>
      </trkpt>
      <trkpt lat="45.9628792" lon="6.9053038">
        <ele>1236.71</ele>
        <time>2019-09-10T09:24:01Z</time>
      </trkpt>
      <trkpt lat="45.9627930" lon="6.9052080">
        <ele>1233.95</ele>
        <time>2019-09-10T09:24:19Z</time>
      </trkpt>
      <trkpt lat="45.9627047" lon="6.9051350">
        <ele>1232.94</ele>
        <time>2019-09-10T09:24:29Z</time>
      </trkpt>
      <trkpt lat="45.9626305" lon="6.9050197">
        <ele>1232.94</ele>
        <time>2019-09-10T09:24:39Z</time>
      </trkpt>
      <trkpt lat="45.9625328" lon="6.9049207">
        <ele>1233.23</ele>
        <time>2019-09-10T09:24:47Z</time>
      </trkpt>
      <trkpt lat="45.9624625" lon="6.9048286">
        <ele>1233.92</ele>
        <time>2019-09-10T09:24:53Z</time>
      </trkpt>
      <trkpt lat="45.9624308" lon="6.9047042">
        <ele>1233.24</ele>
        <time>2019-09-10T09:25:05Z</time>
      </trkpt>
      <trkpt lat="45.9623322" lon="6.9047192">
        <ele>1231.91</ele>
        <time>2019-09-10T09:25:13Z</time>
      </trkpt>
      <trkpt lat="45.9622895" lon="6.9045803">
        <ele>1232.90</ele>
        <time>2019-09-10T09:25:21Z</time>
      </trkpt>
      <trkpt lat="45.9621985" lon="6.9045333">
        <ele>1231.40</ele>
        <time>2019-09-10T09:25:29Z</time>
      </trkpt>
      <trkpt lat="45.9621147" lon="6.9046288">
        <ele>1234.37</ele>
        <time>2019-09-10T09:25:37Z</time>
      </trkpt>
      <trkpt lat="45.9620340" lon="6.9047253">
        <ele>1228.67</ele>
        <time>2019-09-10T09:25:51Z</time>
      </trkpt>
      <trkpt lat="45.9619136" lon="6.9047068">
        <ele>1225.67</ele>
        <time>2019-09-10T09:26:01Z</time>
      </trkpt>
      <trkpt lat="45.9618357" lon="6.9046382">
        <ele>1225.09</ele>
        <time>2019-09-10T09:26:07Z</time>
      </trkpt>
      <trkpt lat="45.9617431" lon="6.9046080">
        <ele>1223.29</ele>
        <time>2019-09-10T09:26:15Z</time>
      </trkpt>
      <trkpt lat="45.9616738" lon="6.9044776">
        <ele>1218.33</ele>
        <time>2019-09-10T09:26:23Z</time>
      </trkpt>
      <trkpt lat="45.9615833" lon="6.9044311">
        <ele>1219.71</ele>
        <time>2019-09-10T09:26:29Z</time>
      </trkpt>
      <trkpt lat="45.9615263" lon="6.9043260">
        <ele>1214.38</ele>
        <time>2019-09-10T09:26:41Z</time>
      </trkpt>
      <trkpt lat="45.9614620" lon="6.9042060">
        <ele>1211.97</ele>
        <time>2019-09-10T09:26:55Z</time>
      </trkpt>
      <trkpt lat="45.9613858" lon="6.9041184">
        <ele>1211.24</ele>
        <time>2019-09-10T09:27:03Z</time>
      </trkpt>
      <trkpt lat="45.9612847" lon="6.9040957">
        <ele>1210.24</ele>
        <time>2019-09-10T09:27:11Z</time>
      </trkpt>
      <trkpt lat="45.9611887" lon="6.9040586">
        <ele>1208.97</ele>
        <time>2019-09-10T09:27:19Z</time>
      </trkpt>
      <trkpt lat="45.9611027" lon="6.9039635">
        <ele>1208.24</ele>
        <time>2019-09-10T09:27:27Z</time>
      </trkpt>
      <trkpt lat="45.9610033" lon="6.9039876">
        <ele>1208.64</ele>
        <time>2019-09-10T09:27:35Z</time>
      </trkpt>
      <trkpt lat="45.9609117" lon="6.9039942">
        <ele>1207.95</ele>
        <time>2019-09-10T09:27:43Z</time>
      </trkpt>
      <trkpt lat="45.9608161" lon="6.9040193">
        <ele>1206.25</ele>
        <time>2019-09-10T09:27:51Z</time>
      </trkpt>
      <trkpt lat="45.9607260" lon="6.9040207">
        <ele>1205.03</ele>
        <time>2019-09-10T09:27:59Z</time>
      </trkpt>
      <trkpt lat="45.9606467" lon="6.9039567">
        <ele>1203.27</ele>
        <time>2019-09-10T09:28:07Z</time>
      </trkpt>
      <trkpt lat="45.9605479" lon="6.9039137">
        <ele>1201.27</ele>
        <time>2019-09-10T09:28:15Z</time>
      </trkpt>
      <trkpt lat="45.9604502" lon="6.9039174">
        <ele>1200.24</ele>
        <time>2019-09-10T09:28:25Z</time>
      </trkpt>
      <trkpt lat="45.9604342" lon="6.9040459">
        <ele>1199.24</ele>
        <time>2019-09-10T09:28:33Z</time>
      </trkpt>
      <trkpt lat="45.9603828" lon="6.9041552">
        <ele>1190.27</ele>
        <time>2019-09-10T09:29:09Z</time>
      </trkpt>
      <trkpt lat="45.9603157" lon="6.9040241">
        <ele>1189.95</ele>
        <time>2019-09-10T09:29:15Z</time>
      </trkpt>
      <trkpt lat="45.9603408" lon="6.9038779">
        <ele>1189.94</ele>
        <time>2019-09-10T09:29:21Z</time>
      </trkpt>
      <trkpt lat="45.9604039" lon="6.9037729">
        <ele>1189.94</ele>
        <time>2019-09-10T09:29:27Z</time>
      </trkpt>
      <trkpt lat="45.9603613" lon="6.9036063">
        <ele>1189.94</ele>
        <time>2019-09-10T09:29:35Z</time>
      </trkpt>
      <trkpt lat="45.9602769" lon="6.9035610">
        <ele>1189.03</ele>
        <time>2019-09-10T09:29:39Z</time>
      </trkpt>
      <trkpt lat="45.9601627" lon="6.9035610">
        <ele>1188.24</ele>
        <time>2019-09-10T09:29:45Z</time>
      </trkpt>
      <trkpt lat="45.9600654" lon="6.9035348">
        <ele>1189.55</ele>
        <time>2019-09-10T09:29:53Z</time>
      </trkpt>
      <trkpt lat="45.9599924" lon="6.9034263">
        <ele>1189.07</ele>
        <time>2019-09-10T09:30:01Z</time>
      </trkpt>
      <trkpt lat="45.9599390" lon="6.9032962">
        <ele>1186.07</ele>
        <time>2019-09-10T09:30:11Z</time>
      </trkpt>
      <trkpt lat="45.9598821" lon="6.9031731">
        <ele>1185.11</ele>
        <time>2019-09-10T09:30:21Z</time>
      </trkpt>
      <trkpt lat="45.9598267" lon="6.9030500">
        <ele>1184.03</ele>
        <time>2019-09-10T09:30:31Z</time>
      </trkpt>
      <trkpt lat="45.9597482" lon="6.9029857">
        <ele>1180.99</ele>
        <time>2019-09-10T09:30:39Z</time>
      </trkpt>
      <trkpt lat="45.9596726" lon="6.9028677">
        <ele>1180.94</ele>
        <time>2019-09-10T09:30:47Z</time>
      </trkpt>
      <trkpt lat="45.9595817" lon="6.9028588">
        <ele>1179.27</ele>
        <time>2019-09-10T09:30:55Z</time>
      </trkpt>
      <trkpt lat="45.9594852" lon="6.9028290">
        <ele>1177.27</ele>
        <time>2019-09-10T09:31:03Z</time>
      </trkpt>
      <trkpt lat="45.9593840" lon="6.9027709">
        <ele>1176.94</ele>
        <time>2019-09-10T09:31:11Z</time>
      </trkpt>
      <trkpt lat="45.9592783" lon="6.9027209">
        <ele>1176.94</ele>
        <time>2019-09-10T09:31:19Z</time>
      </trkpt>
      <trkpt lat="45.9592143" lon="6.9026125">
        <ele>1176.24</ele>
        <time>2019-09-10T09:31:27Z</time>
      </trkpt>
      <trkpt lat="45.9591538" lon="6.9025064">
        <ele>1174.97</ele>
        <time>2019-09-10T09:31:35Z</time>
      </trkpt>
      <trkpt lat="45.9591079" lon="6.9023698">
        <ele>1174.24</ele>
        <time>2019-09-10T09:31:43Z</time>
      </trkpt>
      <trkpt lat="45.9590235" lon="6.9023032">
        <ele>1172.97</ele>
        <time>2019-09-10T09:31:51Z</time>
      </trkpt>
      <trkpt lat="45.9589289" lon="6.9022134">
        <ele>1172.24</ele>
        <time>2019-09-10T09:31:59Z</time>
      </trkpt>
      <trkpt lat="45.9588308" lon="6.9021927">
        <ele>1171.94</ele>
        <time>2019-09-10T09:32:07Z</time>
      </trkpt>
      <trkpt lat="45.9587228" lon="6.9021978">
        <ele>1171.03</ele>
        <time>2019-09-10T09:32:15Z</time>
      </trkpt>
      <trkpt lat="45.9586233" lon="6.9021653">
        <ele>1169.97</ele>
        <time>2019-09-10T09:32:23Z</time>
      </trkpt>
      <trkpt lat="45.9585330" lon="6.9021009">
        <ele>1168.95</ele>
        <time>2019-09-10T09:32:31Z</time>
      </trkpt>
      <trkpt lat="45.9584318" lon="6.9021054">
        <ele>1168.03</ele>
        <time>2019-09-10T09:32:39Z</time>
      </trkpt>
      <trkpt lat="45.9583340" lon="6.9020393">
        <ele>1167.94</ele>
        <time>2019-09-10T09:32:47Z</time>
      </trkpt>
      <trkpt lat="45.9582278" lon="6.9020204">
        <ele>1168.92</ele>
        <time>2019-09-10T09:32:55Z</time>
      </trkpt>
      <trkpt lat="45.9581476" lon="6.9019223">
        <ele>1168.03</ele>
        <time>2019-09-10T09:33:03Z</time>
      </trkpt>
      <trkpt lat="45.9581215" lon="6.9017683">
        <ele>1166.33</ele>
        <time>2019-09-10T09:33:11Z</time>
      </trkpt>
      <trkpt lat="45.9580193" lon="6.9016894">
        <ele>1165.03</ele>
        <time>2019-09-10T09:33:21Z</time>
      </trkpt>
      <trkpt lat="45.9579393" lon="6.9016113">
        <ele>1164.22</ele>
        <time>2019-09-10T09:33:29Z</time>
      </trkpt>
      <trkpt lat="45.9578481" lon="6.9015317">
        <ele>1162.27</ele>
        <time>2019-09-10T09:33:41Z</time>
      </trkpt>
      <trkpt lat="45.9577844" lon="6.9013568">
        <ele>1156.21</ele>
        <time>2019-09-10T09:33:49Z</time>
      </trkpt>
      <trkpt lat="45.9576863" lon="6.9013055">
        <ele>1155.86</ele>
        <time>2019-09-10T09:33:57Z</time>
      </trkpt>
      <trkpt lat="45.9575827" lon="6.9012303">
        <ele>1153.26</ele>
        <time>2019-09-10T09:34:05Z</time>
      </trkpt>
      <trkpt lat="45.9574692" lon="6.9011843">
        <ele>1151.97</ele>
        <time>2019-09-10T09:34:13Z</time>
      </trkpt>
      <trkpt lat="45.9573752" lon="6.9011343">
        <ele>1159.94</ele>
        <time>2019-09-10T09:34:21Z</time>
      </trkpt>
      <trkpt lat="45.9572698" lon="6.9011753">
        <ele>1152.10</ele>
        <time>2019-09-10T09:34:31Z</time>
      </trkpt>
      <trkpt lat="45.9571747" lon="6.9010777">
        <ele>1146.04</ele>
        <time>2019-09-10T09:34:51Z</time>
      </trkpt>
      <trkpt lat="45.9570616" lon="6.9011371">
        <ele>1145.24</ele>
        <time>2019-09-10T09:34:57Z</time>
      </trkpt>
      <trkpt lat="45.9569521" lon="6.9012124">
        <ele>1143.34</ele>
        <time>2019-09-10T09:35:03Z</time>
      </trkpt>
      <trkpt lat="45.9568462" lon="6.9012357">
        <ele>1142.04</ele>
        <time>2019-09-10T09:35:09Z</time>
      </trkpt>
      <trkpt lat="45.9567372" lon="6.9012527">
        <ele>1141.03</ele>
        <time>2019-09-10T09:35:15Z</time>
      </trkpt>
      <trkpt lat="45.9566459" lon="6.9012669">
        <ele>1139.97</ele>
        <time>2019-09-10T09:35:21Z</time>
      </trkpt>
      <trkpt lat="45.9565353" lon="6.9012588">
        <ele>1139.24</ele>
        <time>2019-09-10T09:35:31Z</time>
      </trkpt>
      <trkpt lat="45.9564416" lon="6.9012585">
        <ele>1138.95</ele>
        <time>2019-09-10T09:35:37Z</time>
      </trkpt>
      <trkpt lat="45.9563412" lon="6.9012158">
        <ele>1138.94</ele>
        <time>2019-09-10T09:35:45Z</time>
      </trkpt>
      <trkpt lat="45.9562534" lon="6.9011635">
        <ele>1137.95</ele>
        <time>2019-09-10T09:35:53Z</time>
      </trkpt>
      <trkpt lat="45.9561648" lon="6.9011420">
        <ele>1135.25</ele>
        <time>2019-09-10T09:36:03Z</time>
      </trkpt>
      <trkpt lat="45.9560567" lon="6.9011240">
        <ele>1132.31</ele>
        <time>2019-09-10T09:36:25Z</time>
      </trkpt>
      <trkpt lat="45.9560585" lon="6.9012606">
        <ele>1124.66</ele>
        <time>2019-09-10T09:36:37Z</time>
      </trkpt>
      <trkpt lat="45.9561344" lon="6.9013515">
        <ele>1120.13</ele>
        <time>2019-09-10T09:36:47Z</time>
      </trkpt>
      <trkpt lat="45.9560403" lon="6.9013166">
        <ele>1116.98</ele>
        <time>2019-09-10T09:36:57Z</time>
      </trkpt>
      <trkpt lat="45.9559446" lon="6.9013159">
        <ele>1114.94</ele>
        <time>2019-09-10T09:37:11Z</time>
      </trkpt>
      <trkpt lat="45.9558312" lon="6.9012873">
        <ele>1113.45</ele>
        <time>2019-09-10T09:37:27Z</time>
      </trkpt>
      <trkpt lat="45.9557384" lon="6.9012711">
        <ele>1111.04</ele>
        <time>2019-09-10T09:37:35Z</time>
      </trkpt>
      <trkpt lat="45.9556527" lon="6.9013165">
        <ele>1112.00</ele>
        <time>2019-09-10T09:37:43Z</time>
      </trkpt>
      <trkpt lat="45.9555666" lon="6.9012770">
        <ele>1107.97</ele>
        <time>2019-09-10T09:38:07Z</time>
      </trkpt>
      <trkpt lat="45.9554553" lon="6.9012236">
        <ele>1104.45</ele>
        <time>2019-09-10T09:38:13Z</time>
      </trkpt>
      <trkpt lat="45.9554255" lon="6.9010813">
        <ele>1099.91</ele>
        <time>2019-09-10T09:38:25Z</time>
      </trkpt>
      <trkpt lat="45.9554199" lon="6.9009245">
        <ele>1099.16</ele>
        <time>2019-09-10T09:38:37Z</time>
      </trkpt>
      <trkpt lat="45.9553403" lon="6.9008297">
        <ele>1097.06</ele>
        <time>2019-09-10T09:38:45Z</time>
      </trkpt>
      <trkpt lat="45.9553186" lon="6.9006851">
        <ele>1096.94</ele>
        <time>2019-09-10T09:38:55Z</time>
      </trkpt>
      <trkpt lat="45.9552600" lon="6.9005532">
        <ele>1095.97</ele>
        <time>2019-09-10T09:39:03Z</time>
      </trkpt>
      <trkpt lat="45.9552000" lon="6.9004157">
        <ele>1094.97</ele>
        <time>2019-09-10T09:39:11Z</time>
      </trkpt>
      <trkpt lat="45.9551505" lon="6.9002804">
        <ele>1094.96</ele>
        <time>2019-09-10T09:39:21Z</time>
      </trkpt>
      <trkpt lat="45.9551194" lon="6.9001257">
        <ele>1094.24</ele>
        <time>2019-09-10T09:39:31Z</time>
      </trkpt>
      <trkpt lat="45.9551117" lon="6.8999676">
        <ele>1094.94</ele>
        <time>2019-09-10T09:39:41Z</time>
      </trkpt>
      <trkpt lat="45.9550839" lon="6.8998267">
        <ele>1094.86</ele>
        <time>2019-09-10T09:39:51Z</time>
      </trkpt>
      <trkpt lat="45.9550141" lon="6.8997233">
        <ele>1092.97</ele>
        <time>2019-09-10T09:40:01Z</time>
      </trkpt>
      <trkpt lat="45.9549586" lon="6.8995902">
        <ele>1090.82</ele>
        <time>2019-09-10T09:40:11Z</time>
      </trkpt>
      <trkpt lat="45.9548849" lon="6.8995157">
        <ele>1085.47</ele>
        <time>2019-09-10T09:43:05Z</time>
      </trkpt>
      <trkpt lat="45.9548066" lon="6.8994001">
        <ele>1085.22</ele>
        <time>2019-09-10T09:43:13Z</time>
      </trkpt>
      <trkpt lat="45.9547198" lon="6.8993051">
        <ele>1084.23</ele>
        <time>2019-09-10T09:43:21Z</time>
      </trkpt>
      <trkpt lat="45.9546324" lon="6.8992208">
        <ele>1083.95</ele>
        <time>2019-09-10T09:43:27Z</time>
      </trkpt>
      <trkpt lat="45.9545653" lon="6.8991316">
        <ele>1084.15</ele>
        <time>2019-09-10T09:43:33Z</time>
      </trkpt>
      <trkpt lat="45.9544756" lon="6.8990348">
        <ele>1085.64</ele>
        <time>2019-09-10T09:43:41Z</time>
      </trkpt>
      <trkpt lat="45.9543933" lon="6.8989429">
        <ele>1085.01</ele>
        <time>2019-09-10T09:43:51Z</time>
      </trkpt>
      <trkpt lat="45.9543101" lon="6.8988435">
        <ele>1084.01</ele>
        <time>2019-09-10T09:44:01Z</time>
      </trkpt>
      <trkpt lat="45.9542185" lon="6.8987753">
        <ele>1084.85</ele>
        <time>2019-09-10T09:44:09Z</time>
      </trkpt>
      <trkpt lat="45.9541430" lon="6.8986764">
        <ele>1084.67</ele>
        <time>2019-09-10T09:44:17Z</time>
      </trkpt>
      <trkpt lat="45.9540484" lon="6.8986062">
        <ele>1083.95</ele>
        <time>2019-09-10T09:44:25Z</time>
      </trkpt>
      <trkpt lat="45.9539452" lon="6.8985580">
        <ele>1083.24</ele>
        <time>2019-09-10T09:44:33Z</time>
      </trkpt>
      <trkpt lat="45.9538900" lon="6.8984222">
        <ele>1083.64</ele>
        <time>2019-09-10T09:44:41Z</time>
      </trkpt>
      <trkpt lat="45.9537863" lon="6.8983762">
        <ele>1083.03</ele>
        <time>2019-09-10T09:44:49Z</time>
      </trkpt>
      <trkpt lat="45.9536892" lon="6.8983155">
        <ele>1082.94</ele>
        <time>2019-09-10T09:44:57Z</time>
      </trkpt>
      <trkpt lat="45.9535689" lon="6.8982981">
        <ele>1084.84</ele>
        <time>2019-09-10T09:45:07Z</time>
      </trkpt>
      <trkpt lat="45.9535019" lon="6.8982068">
        <ele>1085.85</ele>
        <time>2019-09-10T09:45:15Z</time>
      </trkpt>
      <trkpt lat="45.9534064" lon="6.8981206">
        <ele>1085.94</ele>
        <time>2019-09-10T09:45:23Z</time>
      </trkpt>
      <trkpt lat="45.9533157" lon="6.8980711">
        <ele>1084.97</ele>
        <time>2019-09-10T09:45:29Z</time>
      </trkpt>
      <trkpt lat="45.9532133" lon="6.8980376">
        <ele>1084.94</ele>
        <time>2019-09-10T09:45:37Z</time>
      </trkpt>
      <trkpt lat="45.9531576" lon="6.8979164">
        <ele>1085.85</ele>
        <time>2019-09-10T09:45:45Z</time>
      </trkpt>
      <trkpt lat="45.9530593" lon="6.8978607">
        <ele>1085.94</ele>
        <time>2019-09-10T09:45:53Z</time>
      </trkpt>
      <trkpt lat="45.9530104" lon="6.8977454">
        <ele>1085.03</ele>
        <time>2019-09-10T09:45:59Z</time>
      </trkpt>
      <trkpt lat="45.9529802" lon="6.8976177">
        <ele>1085.02</ele>
        <time>2019-09-10T09:46:07Z</time>
      </trkpt>
      <trkpt lat="45.9529178" lon="6.8974952">
        <ele>1083.33</ele>
        <time>2019-09-10T09:46:15Z</time>
      </trkpt>
      <trkpt lat="45.9528619" lon="6.8973775">
        <ele>1082.04</ele>
        <time>2019-09-10T09:46:23Z</time>
      </trkpt>
      <trkpt lat="45.9527855" lon="6.8972648">
        <ele>1080.95</ele>
        <time>2019-09-10T09:46:31Z</time>
      </trkpt>
      <trkpt lat="45.9527260" lon="6.8971517">
        <ele>1081.93</ele>
        <time>2019-09-10T09:46:39Z</time>
      </trkpt>
      <trkpt lat="45.9527088" lon="6.8970205">
        <ele>1082.17</ele>
        <time>2019-09-10T09:46:47Z</time>
      </trkpt>
      <trkpt lat="45.9526749" lon="6.8968940">
        <ele>1081.94</ele>
        <time>2019-09-10T09:46:55Z</time>
      </trkpt>
      <trkpt lat="45.9526386" lon="6.8967441">
        <ele>1082.85</ele>
        <time>2019-09-10T09:47:03Z</time>
      </trkpt>
      <trkpt lat="45.9525713" lon="6.8966193">
        <ele>1082.03</ele>
        <time>2019-09-10T09:47:11Z</time>
      </trkpt>
      <trkpt lat="45.9525244" lon="6.8964781">
        <ele>1081.94</ele>
        <time>2019-09-10T09:47:19Z</time>
      </trkpt>
      <trkpt lat="45.9524570" lon="6.8963502">
        <ele>1081.94</ele>
        <time>2019-09-10T09:47:25Z</time>
      </trkpt>
      <trkpt lat="45.9523977" lon="6.8962212">
        <ele>1080.27</ele>
        <time>2019-09-10T09:47:33Z</time>
      </trkpt>
      <trkpt lat="45.9522886" lon="6.8961573">
        <ele>1081.85</ele>
        <time>2019-09-10T09:47:41Z</time>
      </trkpt>
      <trkpt lat="45.9521945" lon="6.8960774">
        <ele>1081.94</ele>
        <time>2019-09-10T09:47:49Z</time>
      </trkpt>
      <trkpt lat="45.9521436" lon="6.8959607">
        <ele>1081.94</ele>
        <time>2019-09-10T09:47:57Z</time>
      </trkpt>
      <trkpt lat="45.9520694" lon="6.8958650">
        <ele>1082.02</ele>
        <time>2019-09-10T09:48:09Z</time>
      </trkpt>
      <trkpt lat="45.9520537" lon="6.8957350">
        <ele>1082.71</ele>
        <time>2019-09-10T09:48:19Z</time>
      </trkpt>
      <trkpt lat="45.9520128" lon="6.8956074">
        <ele>1081.95</ele>
        <time>2019-09-10T09:48:33Z</time>
      </trkpt>
      <trkpt lat="45.9519926" lon="6.8954583">
        <ele>1081.94</ele>
        <time>2019-09-10T09:48:47Z</time>
      </trkpt>
      <trkpt lat="45.9519606" lon="6.8953220">
        <ele>1081.94</ele>
        <time>2019-09-10T09:48:59Z</time>
      </trkpt>
      <trkpt lat="45.9519860" lon="6.8951827">
        <ele>1082.93</ele>
        <time>2019-09-10T09:49:15Z</time>
      </trkpt>
      <trkpt lat="45.9519442" lon="6.8950592">
        <ele>1083.85</ele>
        <time>2019-09-10T09:49:27Z</time>
      </trkpt>
      <trkpt lat="45.9518875" lon="6.8949532">
        <ele>1084.83</ele>
        <time>2019-09-10T09:49:41Z</time>
      </trkpt>
      <trkpt lat="45.9518999" lon="6.8948149">
        <ele>1086.85</ele>
        <time>2019-09-10T09:49:51Z</time>
      </trkpt>
      <trkpt lat="45.9518807" lon="6.8946819">
        <ele>1089.63</ele>
        <time>2019-09-10T09:50:05Z</time>
      </trkpt>
      <trkpt lat="45.9518381" lon="6.8945442">
        <ele>1090.64</ele>
        <time>2019-09-10T09:50:17Z</time>
      </trkpt>
      <trkpt lat="45.9517750" lon="6.8944202">
        <ele>1092.72</ele>
        <time>2019-09-10T09:50:29Z</time>
      </trkpt>
      <trkpt lat="45.9517724" lon="6.8942667">
        <ele>1094.85</ele>
        <time>2019-09-10T09:50:41Z</time>
      </trkpt>
      <trkpt lat="45.9517799" lon="6.8941227">
        <ele>1096.91</ele>
        <time>2019-09-10T09:50:51Z</time>
      </trkpt>
      <trkpt lat="45.9517127" lon="6.8940290">
        <ele>1098.91</ele>
        <time>2019-09-10T09:51:05Z</time>
      </trkpt>
      <trkpt lat="45.9517078" lon="6.8938726">
        <ele>1100.91</ele>
        <time>2019-09-10T09:51:17Z</time>
      </trkpt>
      <trkpt lat="45.9517210" lon="6.8937184">
        <ele>1101.91</ele>
        <time>2019-09-10T09:51:27Z</time>
      </trkpt>
      <trkpt lat="45.9517351" lon="6.8935885">
        <ele>1102.93</ele>
        <time>2019-09-10T09:51:35Z</time>
      </trkpt>
      <trkpt lat="45.9517245" lon="6.8934438">
        <ele>1103.92</ele>
        <time>2019-09-10T09:51:47Z</time>
      </trkpt>
      <trkpt lat="45.9516357" lon="6.8933879">
        <ele>1110.13</ele>
        <time>2019-09-10T09:55:35Z</time>
      </trkpt>
      <trkpt lat="45.9516193" lon="6.8932604">
        <ele>1113.81</ele>
        <time>2019-09-10T09:55:43Z</time>
      </trkpt>
      <trkpt lat="45.9515881" lon="6.8931281">
        <ele>1116.55</ele>
        <time>2019-09-10T09:55:53Z</time>
      </trkpt>
      <trkpt lat="45.9515711" lon="6.8929935">
        <ele>1117.93</ele>
        <time>2019-09-10T09:56:03Z</time>
      </trkpt>
      <trkpt lat="45.9515750" lon="6.8928606">
        <ele>1119.84</ele>
        <time>2019-09-10T09:56:11Z</time>
      </trkpt>
      <trkpt lat="45.9515145" lon="6.8927263">
        <ele>1121.64</ele>
        <time>2019-09-10T09:56:23Z</time>
      </trkpt>
      <trkpt lat="45.9515120" lon="6.8925947">
        <ele>1122.85</ele>
        <time>2019-09-10T09:56:33Z</time>
      </trkpt>
      <trkpt lat="45.9514658" lon="6.8924730">
        <ele>1123.66</ele>
        <time>2019-09-10T09:56:47Z</time>
      </trkpt>
      <trkpt lat="45.9514302" lon="6.8923530">
        <ele>1124.85</ele>
        <time>2019-09-10T09:56:57Z</time>
      </trkpt>
      <trkpt lat="45.9513855" lon="6.8922329">
        <ele>1126.63</ele>
        <time>2019-09-10T09:57:09Z</time>
      </trkpt>
      <trkpt lat="45.9513966" lon="6.8920920">
        <ele>1128.63</ele>
        <time>2019-09-10T09:57:19Z</time>
      </trkpt>
      <trkpt lat="45.9513442" lon="6.8919512">
        <ele>1129.91</ele>
        <time>2019-09-10T09:57:31Z</time>
      </trkpt>
      <trkpt lat="45.9513126" lon="6.8918146">
        <ele>1131.91</ele>
        <time>2019-09-10T09:57:43Z</time>
      </trkpt>
      <trkpt lat="45.9512681" lon="6.8916749">
        <ele>1135.61</ele>
        <time>2019-09-10T09:58:07Z</time>
      </trkpt>
      <trkpt lat="45.9512567" lon="6.8915453">
        <ele>1136.91</ele>
        <time>2019-09-10T09:58:15Z</time>
      </trkpt>
      <trkpt lat="45.9512378" lon="6.8914145">
        <ele>1137.87</ele>
        <time>2019-09-10T09:58:25Z</time>
      </trkpt>
      <trkpt lat="45.9511947" lon="6.8912977">
        <ele>1138.91</ele>
        <time>2019-09-10T09:58:35Z</time>
      </trkpt>
      <trkpt lat="45.9511547" lon="6.8911755">
        <ele>1141.82</ele>
        <time>2019-09-10T09:58:45Z</time>
      </trkpt>
      <trkpt lat="45.9511129" lon="6.8910489">
        <ele>1143.85</ele>
        <time>2019-09-10T09:58:57Z</time>
      </trkpt>
      <trkpt lat="45.9510595" lon="6.8909291">
        <ele>1144.15</ele>
        <time>2019-09-10T09:59:07Z</time>
      </trkpt>
      <trkpt lat="45.9509689" lon="6.8908308">
        <ele>1144.92</ele>
        <time>2019-09-10T09:59:17Z</time>
      </trkpt>
      <trkpt lat="45.9509398" lon="6.8906956">
        <ele>1144.94</ele>
        <time>2019-09-10T09:59:27Z</time>
      </trkpt>
      <trkpt lat="45.9508991" lon="6.8905525">
        <ele>1145.93</ele>
        <time>2019-09-10T09:59:37Z</time>
      </trkpt>
      <trkpt lat="45.9508260" lon="6.8904271">
        <ele>1146.94</ele>
        <time>2019-09-10T09:59:47Z</time>
      </trkpt>
      <trkpt lat="45.9507539" lon="6.8903451">
        <ele>1146.94</ele>
        <time>2019-09-10T09:59:55Z</time>
      </trkpt>
      <trkpt lat="45.9506782" lon="6.8902666">
        <ele>1147.93</ele>
        <time>2019-09-10T10:00:03Z</time>
      </trkpt>
      <trkpt lat="45.9506000" lon="6.8901684">
        <ele>1149.64</ele>
        <time>2019-09-10T10:00:13Z</time>
      </trkpt>
      <trkpt lat="45.9505874" lon="6.8900108">
        <ele>1149.92</ele>
        <time>2019-09-10T10:00:21Z</time>
      </trkpt>
      <trkpt lat="45.9505585" lon="6.8898610">
        <ele>1148.95</ele>
        <time>2019-09-10T10:00:29Z</time>
      </trkpt>
      <trkpt lat="45.9505085" lon="6.8897457">
        <ele>1148.95</ele>
        <time>2019-09-10T10:00:39Z</time>
      </trkpt>
      <trkpt lat="45.9504252" lon="6.8896557">
        <ele>1149.85</ele>
        <time>2019-09-10T10:00:47Z</time>
      </trkpt>
      <trkpt lat="45.9503727" lon="6.8895457">
        <ele>1151.14</ele>
        <time>2019-09-10T10:00:57Z</time>
      </trkpt>
      <trkpt lat="45.9503242" lon="6.8894078">
        <ele>1150.94</ele>
        <time>2019-09-10T10:01:07Z</time>
      </trkpt>
      <trkpt lat="45.9502657" lon="6.8892900">
        <ele>1155.94</ele>
        <time>2019-09-10T10:03:51Z</time>
      </trkpt>
      <trkpt lat="45.9502225" lon="6.8891608">
        <ele>1157.93</ele>
        <time>2019-09-10T10:03:59Z</time>
      </trkpt>
      <trkpt lat="45.9501724" lon="6.8890316">
        <ele>1157.94</ele>
        <time>2019-09-10T10:04:09Z</time>
      </trkpt>
      <trkpt lat="45.9500796" lon="6.8889646">
        <ele>1158.64</ele>
        <time>2019-09-10T10:04:17Z</time>
      </trkpt>
      <trkpt lat="45.9500076" lon="6.8888721">
        <ele>1158.94</ele>
        <time>2019-09-10T10:04:25Z</time>
      </trkpt>
      <trkpt lat="45.9499704" lon="6.8887329">
        <ele>1160.63</ele>
        <time>2019-09-10T10:04:33Z</time>
      </trkpt>
      <trkpt lat="45.9499168" lon="6.8885998">
        <ele>1161.85</ele>
        <time>2019-09-10T10:04:43Z</time>
      </trkpt>
      <trkpt lat="45.9498785" lon="6.8884776">
        <ele>1162.93</ele>
        <time>2019-09-10T10:04:51Z</time>
      </trkpt>
      <trkpt lat="45.9498228" lon="6.8883422">
        <ele>1162.24</ele>
        <time>2019-09-10T10:05:01Z</time>
      </trkpt>
      <trkpt lat="45.9497849" lon="6.8882041">
        <ele>1161.94</ele>
        <time>2019-09-10T10:05:11Z</time>
      </trkpt>
      <trkpt lat="45.9497507" lon="6.8880734">
        <ele>1161.94</ele>
        <time>2019-09-10T10:05:19Z</time>
      </trkpt>
      <trkpt lat="45.9497171" lon="6.8879399">
        <ele>1161.94</ele>
        <time>2019-09-10T10:05:29Z</time>
      </trkpt>
      <trkpt lat="45.9496684" lon="6.8878125">
        <ele>1161.88</ele>
        <time>2019-09-10T10:05:39Z</time>
      </trkpt>
      <trkpt lat="45.9496194" lon="6.8876896">
        <ele>1160.97</ele>
        <time>2019-09-10T10:05:49Z</time>
      </trkpt>
      <trkpt lat="45.9495675" lon="6.8875571">
        <ele>1160.92</ele>
        <time>2019-09-10T10:05:57Z</time>
      </trkpt>
      <trkpt lat="45.9495541" lon="6.8874246">
        <ele>1163.54</ele>
        <time>2019-09-10T10:06:05Z</time>
      </trkpt>
      <trkpt lat="45.9495351" lon="6.8872932">
        <ele>1163.03</ele>
        <time>2019-09-10T10:06:17Z</time>
      </trkpt>
      <trkpt lat="45.9495309" lon="6.8871635">
        <ele>1162.94</ele>
        <time>2019-09-10T10:06:29Z</time>
      </trkpt>
      <trkpt lat="45.9495015" lon="6.8870208">
        <ele>1164.61</ele>
        <time>2019-09-10T10:06:39Z</time>
      </trkpt>
      <trkpt lat="45.9494510" lon="6.8869078">
        <ele>1166.63</ele>
        <time>2019-09-10T10:06:51Z</time>
      </trkpt>
      <trkpt lat="45.9493785" lon="6.8868102">
        <ele>1166.92</ele>
        <time>2019-09-10T10:06:59Z</time>
      </trkpt>
      <trkpt lat="45.9493144" lon="6.8867138">
        <ele>1167.93</ele>
        <time>2019-09-10T10:07:07Z</time>
      </trkpt>
      <trkpt lat="45.9492454" lon="6.8865884">
        <ele>1167.96</ele>
        <time>2019-09-10T10:07:17Z</time>
      </trkpt>
      <trkpt lat="45.9492167" lon="6.8864582">
        <ele>1167.24</ele>
        <time>2019-09-10T10:07:25Z</time>
      </trkpt>
      <trkpt lat="45.9491658" lon="6.8863382">
        <ele>1167.94</ele>
        <time>2019-09-10T10:07:35Z</time>
      </trkpt>
      <trkpt lat="45.9491463" lon="6.8861939">
        <ele>1170.63</ele>
        <time>2019-09-10T10:07:45Z</time>
      </trkpt>
      <trkpt lat="45.9490643" lon="6.8861109">
        <ele>1172.85</ele>
        <time>2019-09-10T10:07:57Z</time>
      </trkpt>
      <trkpt lat="45.9489835" lon="6.8860192">
        <ele>1172.92</ele>
        <time>2019-09-10T10:08:09Z</time>
      </trkpt>
      <trkpt lat="45.9488862" lon="6.8859358">
        <ele>1173.64</ele>
        <time>2019-09-10T10:08:21Z</time>
      </trkpt>
      <trkpt lat="45.9488162" lon="6.8858231">
        <ele>1174.93</ele>
        <time>2019-09-10T10:08:41Z</time>
      </trkpt>
      <trkpt lat="45.9487445" lon="6.8857391">
        <ele>1175.21</ele>
        <time>2019-09-10T10:08:53Z</time>
      </trkpt>
      <trkpt lat="45.9487010" lon="6.8856158">
        <ele>1175.94</ele>
        <time>2019-09-10T10:09:17Z</time>
      </trkpt>
      <trkpt lat="45.9486447" lon="6.8854931">
        <ele>1178.61</ele>
        <time>2019-09-10T10:09:27Z</time>
      </trkpt>
      <trkpt lat="45.9485688" lon="6.8854139">
        <ele>1178.94</ele>
        <time>2019-09-10T10:09:37Z</time>
      </trkpt>
      <trkpt lat="45.9485009" lon="6.8853266">
        <ele>1180.85</ele>
        <time>2019-09-10T10:09:51Z</time>
      </trkpt>
      <trkpt lat="45.9484071" lon="6.8852506">
        <ele>1182.93</ele>
        <time>2019-09-10T10:10:03Z</time>
      </trkpt>
      <trkpt lat="45.9483267" lon="6.8851613">
        <ele>1183.85</ele>
        <time>2019-09-10T10:10:15Z</time>
      </trkpt>
      <trkpt lat="45.9482703" lon="6.8850341">
        <ele>1184.94</ele>
        <time>2019-09-10T10:10:25Z</time>
      </trkpt>
      <trkpt lat="45.9482175" lon="6.8849130">
        <ele>1185.64</ele>
        <time>2019-09-10T10:10:35Z</time>
      </trkpt>
      <trkpt lat="45.9481639" lon="6.8848055">
        <ele>1188.61</ele>
        <time>2019-09-10T10:10:52Z</time>
      </trkpt>
      <trkpt lat="45.9481047" lon="6.8846875">
        <ele>1189.63</ele>
        <time>2019-09-10T10:10:58Z</time>
      </trkpt>
      <trkpt lat="45.9480682" lon="6.8845417">
        <ele>1192.28</ele>
        <time>2019-09-10T10:11:16Z</time>
      </trkpt>
      <trkpt lat="45.9480160" lon="6.8843942">
        <ele>1191.89</ele>
        <time>2019-09-10T10:11:22Z</time>
      </trkpt>
      <trkpt lat="45.9479338" lon="6.8843165">
        <ele>1191.92</ele>
        <time>2019-09-10T10:11:30Z</time>
      </trkpt>
      <trkpt lat="45.9478698" lon="6.8841920">
        <ele>1190.97</ele>
        <time>2019-09-10T10:11:40Z</time>
      </trkpt>
      <trkpt lat="45.9477941" lon="6.8841167">
        <ele>1191.64</ele>
        <time>2019-09-10T10:11:48Z</time>
      </trkpt>
      <trkpt lat="45.9477104" lon="6.8840421">
        <ele>1192.21</ele>
        <time>2019-09-10T10:11:56Z</time>
      </trkpt>
      <trkpt lat="45.9476592" lon="6.8839351">
        <ele>1192.85</ele>
        <time>2019-09-10T10:12:04Z</time>
      </trkpt>
      <trkpt lat="45.9476236" lon="6.8837953">
        <ele>1191.95</ele>
        <time>2019-09-10T10:12:12Z</time>
      </trkpt>
      <trkpt lat="45.9475926" lon="6.8836702">
        <ele>1191.24</ele>
        <time>2019-09-10T10:12:20Z</time>
      </trkpt>
      <trkpt lat="45.9475377" lon="6.8835601">
        <ele>1190.94</ele>
        <time>2019-09-10T10:12:28Z</time>
      </trkpt>
      <trkpt lat="45.9474897" lon="6.8834248">
        <ele>1190.94</ele>
        <time>2019-09-10T10:12:36Z</time>
      </trkpt>
      <trkpt lat="45.9474524" lon="6.8832953">
        <ele>1190.94</ele>
        <time>2019-09-10T10:12:44Z</time>
      </trkpt>
      <trkpt lat="45.9474144" lon="6.8831490">
        <ele>1191.64</ele>
        <time>2019-09-10T10:12:52Z</time>
      </trkpt>
      <trkpt lat="45.9473436" lon="6.8830507">
        <ele>1191.94</ele>
        <time>2019-09-10T10:13:02Z</time>
      </trkpt>
      <trkpt lat="45.9472759" lon="6.8829219">
        <ele>1191.94</ele>
        <time>2019-09-10T10:13:14Z</time>
      </trkpt>
      <trkpt lat="45.9472257" lon="6.8827851">
        <ele>1192.92</ele>
        <time>2019-09-10T10:13:24Z</time>
      </trkpt>
      <trkpt lat="45.9471454" lon="6.8827083">
        <ele>1193.85</ele>
        <time>2019-09-10T10:13:32Z</time>
      </trkpt>
      <trkpt lat="45.9470698" lon="6.8826084">
        <ele>1194.15</ele>
        <time>2019-09-10T10:13:42Z</time>
      </trkpt>
      <trkpt lat="45.9470096" lon="6.8825041">
        <ele>1194.85</ele>
        <time>2019-09-10T10:13:50Z</time>
      </trkpt>
      <trkpt lat="45.9469663" lon="6.8823741">
        <ele>1194.94</ele>
        <time>2019-09-10T10:13:58Z</time>
      </trkpt>
      <trkpt lat="45.9469122" lon="6.8822532">
        <ele>1194.94</ele>
        <time>2019-09-10T10:14:08Z</time>
      </trkpt>
      <trkpt lat="45.9468577" lon="6.8821472">
        <ele>1194.88</ele>
        <time>2019-09-10T10:14:18Z</time>
      </trkpt>
      <trkpt lat="45.9467982" lon="6.8820067">
        <ele>1194.92</ele>
        <time>2019-09-10T10:14:28Z</time>
      </trkpt>
      <trkpt lat="45.9467465" lon="6.8818776">
        <ele>1194.94</ele>
        <time>2019-09-10T10:14:36Z</time>
      </trkpt>
      <trkpt lat="45.9466608" lon="6.8817693">
        <ele>1195.65</ele>
        <time>2019-09-10T10:14:46Z</time>
      </trkpt>
      <trkpt lat="45.9465983" lon="6.8816434">
        <ele>1195.94</ele>
        <time>2019-09-10T10:14:54Z</time>
      </trkpt>
      <trkpt lat="45.9465221" lon="6.8815473">
        <ele>1195.94</ele>
        <time>2019-09-10T10:15:02Z</time>
      </trkpt>
      <trkpt lat="45.9464406" lon="6.8814384">
        <ele>1195.92</ele>
        <time>2019-09-10T10:15:12Z</time>
      </trkpt>
      <trkpt lat="45.9463425" lon="6.8813584">
        <ele>1194.25</ele>
        <time>2019-09-10T10:15:20Z</time>
      </trkpt>
      <trkpt lat="45.9462555" lon="6.8813076">
        <ele>1193.94</ele>
        <time>2019-09-10T10:15:28Z</time>
      </trkpt>
      <trkpt lat="45.9461869" lon="6.8812089">
        <ele>1193.94</ele>
        <time>2019-09-10T10:15:36Z</time>
      </trkpt>
      <trkpt lat="45.9461291" lon="6.8811027">
        <ele>1194.17</ele>
        <time>2019-09-10T10:15:44Z</time>
      </trkpt>
      <trkpt lat="45.9460324" lon="6.8810347">
        <ele>1193.97</ele>
        <time>2019-09-10T10:15:54Z</time>
      </trkpt>
      <trkpt lat="45.9459413" lon="6.8810391">
        <ele>1192.95</ele>
        <time>2019-09-10T10:16:02Z</time>
      </trkpt>
      <trkpt lat="45.9458580" lon="6.8809625">
        <ele>1193.85</ele>
        <time>2019-09-10T10:16:10Z</time>
      </trkpt>
      <trkpt lat="45.9457809" lon="6.8808435">
        <ele>1193.94</ele>
        <time>2019-09-10T10:16:20Z</time>
      </trkpt>
      <trkpt lat="45.9457129" lon="6.8807467">
        <ele>1194.02</ele>
        <time>2019-09-10T10:16:28Z</time>
      </trkpt>
      <trkpt lat="45.9456324" lon="6.8806721">
        <ele>1194.93</ele>
        <time>2019-09-10T10:16:36Z</time>
      </trkpt>
      <trkpt lat="45.9455896" lon="6.8805522">
        <ele>1195.85</ele>
        <time>2019-09-10T10:16:44Z</time>
      </trkpt>
      <trkpt lat="45.9455253" lon="6.8804563">
        <ele>1195.94</ele>
        <time>2019-09-10T10:16:52Z</time>
      </trkpt>
      <trkpt lat="45.9454556" lon="6.8803509">
        <ele>1196.64</ele>
        <time>2019-09-10T10:17:00Z</time>
      </trkpt>
      <trkpt lat="45.9454067" lon="6.8802057">
        <ele>1196.94</ele>
        <time>2019-09-10T10:17:08Z</time>
      </trkpt>
      <trkpt lat="45.9453657" lon="6.8800589">
        <ele>1197.93</ele>
        <time>2019-09-10T10:17:16Z</time>
      </trkpt>
      <trkpt lat="45.9453079" lon="6.8799361">
        <ele>1197.94</ele>
        <time>2019-09-10T10:17:24Z</time>
      </trkpt>
      <trkpt lat="45.9452154" lon="6.8798299">
        <ele>1198.03</ele>
        <time>2019-09-10T10:17:34Z</time>
      </trkpt>
      <trkpt lat="45.9451228" lon="6.8797355">
        <ele>1198.01</ele>
        <time>2019-09-10T10:17:42Z</time>
      </trkpt>
      <trkpt lat="45.9450432" lon="6.8796693">
        <ele>1197.03</ele>
        <time>2019-09-10T10:17:50Z</time>
      </trkpt>
      <trkpt lat="45.9450135" lon="6.8795205">
        <ele>1196.94</ele>
        <time>2019-09-10T10:18:02Z</time>
      </trkpt>
      <trkpt lat="45.9450168" lon="6.8793900">
        <ele>1196.94</ele>
        <time>2019-09-10T10:18:08Z</time>
      </trkpt>
      <trkpt lat="45.9449673" lon="6.8792662">
        <ele>1196.24</ele>
        <time>2019-09-10T10:18:16Z</time>
      </trkpt>
      <trkpt lat="45.9448574" lon="6.8792556">
        <ele>1196.94</ele>
        <time>2019-09-10T10:18:24Z</time>
      </trkpt>
      <trkpt lat="45.9447512" lon="6.8792641">
        <ele>1197.64</ele>
        <time>2019-09-10T10:18:32Z</time>
      </trkpt>
      <trkpt lat="45.9446526" lon="6.8792105">
        <ele>1196.95</ele>
        <time>2019-09-10T10:18:40Z</time>
      </trkpt>
      <trkpt lat="45.9445473" lon="6.8791790">
        <ele>1195.45</ele>
        <time>2019-09-10T10:18:52Z</time>
      </trkpt>
      <trkpt lat="45.9444800" lon="6.8790753">
        <ele>1194.26</ele>
        <time>2019-09-10T10:18:58Z</time>
      </trkpt>
      <trkpt lat="45.9444582" lon="6.8789440">
        <ele>1200.29</ele>
        <time>2019-09-10T10:19:08Z</time>
      </trkpt>
      <trkpt lat="45.9443688" lon="6.8788746">
        <ele>1200.82</ele>
        <time>2019-09-10T10:19:18Z</time>
      </trkpt>
      <trkpt lat="45.9442964" lon="6.8787711">
        <ele>1193.02</ele>
        <time>2019-09-10T10:19:28Z</time>
      </trkpt>
      <trkpt lat="45.9442099" lon="6.8787082">
        <ele>1191.27</ele>
        <time>2019-09-10T10:19:34Z</time>
      </trkpt>
      <trkpt lat="45.9441180" lon="6.8786824">
        <ele>1193.53</ele>
        <time>2019-09-10T10:19:40Z</time>
      </trkpt>
      <trkpt lat="45.9440215" lon="6.8786155">
        <ele>1193.94</ele>
        <time>2019-09-10T10:19:48Z</time>
      </trkpt>
      <trkpt lat="45.9439372" lon="6.8785391">
        <ele>1193.32</ele>
        <time>2019-09-10T10:19:56Z</time>
      </trkpt>
      <trkpt lat="45.9438464" lon="6.8784725">
        <ele>1192.74</ele>
        <time>2019-09-10T10:20:04Z</time>
      </trkpt>
      <trkpt lat="45.9437392" lon="6.8784491">
        <ele>1194.85</ele>
        <time>2019-09-10T10:20:14Z</time>
      </trkpt>
      <trkpt lat="45.9436342" lon="6.8783645">
        <ele>1193.96</ele>
        <time>2019-09-10T10:20:24Z</time>
      </trkpt>
      <trkpt lat="45.9435415" lon="6.8782792">
        <ele>1194.85</ele>
        <time>2019-09-10T10:20:32Z</time>
      </trkpt>
      <trkpt lat="45.9434591" lon="6.8781972">
        <ele>1193.95</ele>
        <time>2019-09-10T10:20:42Z</time>
      </trkpt>
      <trkpt lat="45.9433916" lon="6.8781111">
        <ele>1192.97</ele>
        <time>2019-09-10T10:20:52Z</time>
      </trkpt>
      <trkpt lat="45.9432863" lon="6.8780380">
        <ele>1192.24</ele>
        <time>2019-09-10T10:21:02Z</time>
      </trkpt>
      <trkpt lat="45.9431971" lon="6.8779997">
        <ele>1192.92</ele>
        <time>2019-09-10T10:21:10Z</time>
      </trkpt>
      <trkpt lat="45.9431104" lon="6.8779103">
        <ele>1191.95</ele>
        <time>2019-09-10T10:21:18Z</time>
      </trkpt>
      <trkpt lat="45.9430371" lon="6.8778208">
        <ele>1191.94</ele>
        <time>2019-09-10T10:21:26Z</time>
      </trkpt>
      <trkpt lat="45.9430100" lon="6.8776724">
        <ele>1192.93</ele>
        <time>2019-09-10T10:21:34Z</time>
      </trkpt>
      <trkpt lat="45.9429638" lon="6.8775308">
        <ele>1193.23</ele>
        <time>2019-09-10T10:21:42Z</time>
      </trkpt>
      <trkpt lat="45.9429102" lon="6.8774098">
        <ele>1192.94</ele>
        <time>2019-09-10T10:21:50Z</time>
      </trkpt>
      <trkpt lat="45.9428302" lon="6.8773200">
        <ele>1191.94</ele>
        <time>2019-09-10T10:22:00Z</time>
      </trkpt>
      <trkpt lat="45.9427854" lon="6.8771853">
        <ele>1191.01</ele>
        <time>2019-09-10T10:22:08Z</time>
      </trkpt>
      <trkpt lat="45.9427049" lon="6.8771118">
        <ele>1191.87</ele>
        <time>2019-09-10T10:22:16Z</time>
      </trkpt>
      <trkpt lat="45.9426086" lon="6.8770410">
        <ele>1190.95</ele>
        <time>2019-09-10T10:22:24Z</time>
      </trkpt>
      <trkpt lat="45.9425273" lon="6.8769344">
        <ele>1190.92</ele>
        <time>2019-09-10T10:22:32Z</time>
      </trkpt>
      <trkpt lat="45.9424317" lon="6.8768935">
        <ele>1190.92</ele>
        <time>2019-09-10T10:22:40Z</time>
      </trkpt>
      <trkpt lat="45.9423500" lon="6.8768262">
        <ele>1190.94</ele>
        <time>2019-09-10T10:22:48Z</time>
      </trkpt>
      <trkpt lat="45.9423035" lon="6.8767115">
        <ele>1191.94</ele>
        <time>2019-09-10T10:22:58Z</time>
      </trkpt>
      <trkpt lat="45.9422429" lon="6.8765916">
        <ele>1191.94</ele>
        <time>2019-09-10T10:23:10Z</time>
      </trkpt>
      <trkpt lat="45.9421808" lon="6.8764653">
        <ele>1190.27</ele>
        <time>2019-09-10T10:23:56Z</time>
      </trkpt>
      <trkpt lat="45.9420999" lon="6.8763995">
        <ele>1189.27</ele>
        <time>2019-09-10T10:24:06Z</time>
      </trkpt>
      <trkpt lat="45.9420465" lon="6.8762717">
        <ele>1192.84</ele>
        <time>2019-09-10T10:24:16Z</time>
      </trkpt>
      <trkpt lat="45.9419845" lon="6.8761393">
        <ele>1193.87</ele>
        <time>2019-09-10T10:24:24Z</time>
      </trkpt>
      <trkpt lat="45.9419165" lon="6.8760132">
        <ele>1193.86</ele>
        <time>2019-09-10T10:24:32Z</time>
      </trkpt>
      <trkpt lat="45.9418415" lon="6.8759264">
        <ele>1194.94</ele>
        <time>2019-09-10T10:24:42Z</time>
      </trkpt>
      <trkpt lat="45.9417792" lon="6.8758290">
        <ele>1195.93</ele>
        <time>2019-09-10T10:24:52Z</time>
      </trkpt>
      <trkpt lat="45.9417146" lon="6.8757293">
        <ele>1196.88</ele>
        <time>2019-09-10T10:25:04Z</time>
      </trkpt>
      <trkpt lat="45.9415994" lon="6.8757233">
        <ele>1197.93</ele>
        <time>2019-09-10T10:25:12Z</time>
      </trkpt>
      <trkpt lat="45.9415162" lon="6.8756588">
        <ele>1195.84</ele>
        <time>2019-09-10T10:25:18Z</time>
      </trkpt>
      <trkpt lat="45.9414310" lon="6.8755587">
        <ele>1197.70</ele>
        <time>2019-09-10T10:25:26Z</time>
      </trkpt>
      <trkpt lat="45.9413297" lon="6.8754981">
        <ele>1196.97</ele>
        <time>2019-09-10T10:25:34Z</time>
      </trkpt>
      <trkpt lat="45.9412612" lon="6.8753955">
        <ele>1197.15</ele>
        <time>2019-09-10T10:25:42Z</time>
      </trkpt>
      <trkpt lat="45.9411757" lon="6.8753423">
        <ele>1197.94</ele>
        <time>2019-09-10T10:25:50Z</time>
      </trkpt>
      <trkpt lat="45.9410701" lon="6.8752999">
        <ele>1197.03</ele>
        <time>2019-09-10T10:26:00Z</time>
      </trkpt>
      <trkpt lat="45.9409980" lon="6.8751972">
        <ele>1197.92</ele>
        <time>2019-09-10T10:26:08Z</time>
      </trkpt>
      <trkpt lat="45.9409326" lon="6.8750750">
        <ele>1197.94</ele>
        <time>2019-09-10T10:26:18Z</time>
      </trkpt>
      <trkpt lat="45.9408910" lon="6.8749255">
        <ele>1198.15</ele>
        <time>2019-09-10T10:26:26Z</time>
      </trkpt>
      <trkpt lat="45.9408209" lon="6.8748078">
        <ele>1196.94</ele>
        <time>2019-09-10T10:26:36Z</time>
      </trkpt>
      <trkpt lat="45.9407348" lon="6.8747604">
        <ele>1198.08</ele>
        <time>2019-09-10T10:26:44Z</time>
      </trkpt>
      <trkpt lat="45.9406611" lon="6.8746715">
        <ele>1198.92</ele>
        <time>2019-09-10T10:26:52Z</time>
      </trkpt>
      <trkpt lat="45.9405816" lon="6.8745866">
        <ele>1199.00</ele>
        <time>2019-09-10T10:27:02Z</time>
      </trkpt>
      <trkpt lat="45.9405141" lon="6.8744661">
        <ele>1199.64</ele>
        <time>2019-09-10T10:27:10Z</time>
      </trkpt>
      <trkpt lat="45.9404248" lon="6.8744043">
        <ele>1199.94</ele>
        <time>2019-09-10T10:27:20Z</time>
      </trkpt>
      <trkpt lat="45.9403389" lon="6.8743224">
        <ele>1200.94</ele>
        <time>2019-09-10T10:27:30Z</time>
      </trkpt>
      <trkpt lat="45.9402642" lon="6.8742488">
        <ele>1201.64</ele>
        <time>2019-09-10T10:27:36Z</time>
      </trkpt>
      <trkpt lat="45.9401893" lon="6.8741752">
        <ele>1201.93</ele>
        <time>2019-09-10T10:27:42Z</time>
      </trkpt>
      <trkpt lat="45.9401147" lon="6.8740947">
        <ele>1201.03</ele>
        <time>2019-09-10T10:27:48Z</time>
      </trkpt>
      <trkpt lat="45.9400151" lon="6.8740310">
        <ele>1200.94</ele>
        <time>2019-09-10T10:27:56Z</time>
      </trkpt>
      <trkpt lat="45.9399312" lon="6.8739666">
        <ele>1200.94</ele>
        <time>2019-09-10T10:28:04Z</time>
      </trkpt>
      <trkpt lat="45.9398600" lon="6.8738498">
        <ele>1199.03</ele>
        <time>2019-09-10T10:28:14Z</time>
      </trkpt>
      <trkpt lat="45.9398044" lon="6.8737210">
        <ele>1198.24</ele>
        <time>2019-09-10T10:28:22Z</time>
      </trkpt>
      <trkpt lat="45.9397222" lon="6.8736114">
        <ele>1197.94</ele>
        <time>2019-09-10T10:28:32Z</time>
      </trkpt>
      <trkpt lat="45.9396366" lon="6.8735424">
        <ele>1196.97</ele>
        <time>2019-09-10T10:28:40Z</time>
      </trkpt>
      <trkpt lat="45.9395428" lon="6.8734494">
        <ele>1197.93</ele>
        <time>2019-09-10T10:28:50Z</time>
      </trkpt>
      <trkpt lat="45.9394565" lon="6.8733572">
        <ele>1197.24</ele>
        <time>2019-09-10T10:28:58Z</time>
      </trkpt>
      <trkpt lat="45.9393965" lon="6.8732455">
        <ele>1196.94</ele>
        <time>2019-09-10T10:29:06Z</time>
      </trkpt>
      <trkpt lat="45.9393339" lon="6.8731267">
        <ele>1196.94</ele>
        <time>2019-09-10T10:29:14Z</time>
      </trkpt>
      <trkpt lat="45.9392575" lon="6.8730183">
        <ele>1197.15</ele>
        <time>2019-09-10T10:29:22Z</time>
      </trkpt>
      <trkpt lat="45.9391686" lon="6.8729614">
        <ele>1196.94</ele>
        <time>2019-09-10T10:29:30Z</time>
      </trkpt>
      <trkpt lat="45.9390837" lon="6.8729070">
        <ele>1196.94</ele>
        <time>2019-09-10T10:29:38Z</time>
      </trkpt>
      <trkpt lat="45.9390165" lon="6.8727894">
        <ele>1196.94</ele>
        <time>2019-09-10T10:29:46Z</time>
      </trkpt>
      <trkpt lat="45.9389302" lon="6.8727157">
        <ele>1196.94</ele>
        <time>2019-09-10T10:29:54Z</time>
      </trkpt>
      <trkpt lat="45.9388295" lon="6.8726423">
        <ele>1196.88</ele>
        <time>2019-09-10T10:30:02Z</time>
      </trkpt>
      <trkpt lat="45.9387397" lon="6.8725369">
        <ele>1196.03</ele>
        <time>2019-09-10T10:30:10Z</time>
      </trkpt>
      <trkpt lat="45.9386740" lon="6.8723945">
        <ele>1194.76</ele>
        <time>2019-09-10T10:30:18Z</time>
      </trkpt>
      <trkpt lat="45.9386206" lon="6.8722629">
        <ele>1193.04</ele>
        <time>2019-09-10T10:30:26Z</time>
      </trkpt>
      <trkpt lat="45.9385880" lon="6.8721234">
        <ele>1195.88</ele>
        <time>2019-09-10T10:31:28Z</time>
      </trkpt>
      <trkpt lat="45.9385029" lon="6.8720658">
        <ele>1194.06</ele>
        <time>2019-09-10T10:31:34Z</time>
      </trkpt>
      <trkpt lat="45.9384352" lon="6.8719743">
        <ele>1195.36</ele>
        <time>2019-09-10T10:31:46Z</time>
      </trkpt>
      <trkpt lat="45.9383463" lon="6.8719475">
        <ele>1195.93</ele>
        <time>2019-09-10T10:31:52Z</time>
      </trkpt>
      <trkpt lat="45.9382338" lon="6.8719149">
        <ele>1195.24</ele>
        <time>2019-09-10T10:32:00Z</time>
      </trkpt>
      <trkpt lat="45.9381334" lon="6.8718934">
        <ele>1195.85</ele>
        <time>2019-09-10T10:32:08Z</time>
      </trkpt>
      <trkpt lat="45.9380324" lon="6.8718739">
        <ele>1196.93</ele>
        <time>2019-09-10T10:32:16Z</time>
      </trkpt>
      <trkpt lat="45.9379493" lon="6.8718210">
        <ele>1197.93</ele>
        <time>2019-09-10T10:32:24Z</time>
      </trkpt>
      <trkpt lat="45.9378478" lon="6.8718673">
        <ele>1198.91</ele>
        <time>2019-09-10T10:32:32Z</time>
      </trkpt>
      <trkpt lat="45.9378132" lon="6.8720019">
        <ele>1198.24</ele>
        <time>2019-09-10T10:32:38Z</time>
      </trkpt>
      <trkpt lat="45.9377386" lon="6.8720788">
        <ele>1197.97</ele>
        <time>2019-09-10T10:32:42Z</time>
      </trkpt>
      <trkpt lat="45.9376298" lon="6.8721186">
        <ele>1198.01</ele>
        <time>2019-09-10T10:32:50Z</time>
      </trkpt>
      <trkpt lat="45.9375420" lon="6.8721831">
        <ele>1197.94</ele>
        <time>2019-09-10T10:32:58Z</time>
      </trkpt>
      <trkpt lat="45.9374469" lon="6.8721997">
        <ele>1197.24</ele>
        <time>2019-09-10T10:33:06Z</time>
      </trkpt>
      <trkpt lat="45.9373359" lon="6.8721084">
        <ele>1193.98</ele>
        <time>2019-09-10T10:33:16Z</time>
      </trkpt>
      <trkpt lat="45.9372295" lon="6.8721309">
        <ele>1193.03</ele>
        <time>2019-09-10T10:33:22Z</time>
      </trkpt>
      <trkpt lat="45.9372806" lon="6.8722596">
        <ele>1190.04</ele>
        <time>2019-09-10T10:33:34Z</time>
      </trkpt>
      <trkpt lat="45.9373540" lon="6.8723504">
        <ele>1188.06</ele>
        <time>2019-09-10T10:33:40Z</time>
      </trkpt>
      <trkpt lat="45.9374411" lon="6.8723901">
        <ele>1185.07</ele>
        <time>2019-09-10T10:33:48Z</time>
      </trkpt>
      <trkpt lat="45.9375282" lon="6.8724436">
        <ele>1184.24</ele>
        <time>2019-09-10T10:33:56Z</time>
      </trkpt>
      <trkpt lat="45.9375813" lon="6.8725803">
        <ele>1183.03</ele>
        <time>2019-09-10T10:34:04Z</time>
      </trkpt>
      <trkpt lat="45.9375114" lon="6.8727068">
        <ele>1180.98</ele>
        <time>2019-09-10T10:34:12Z</time>
      </trkpt>
      <trkpt lat="45.9374110" lon="6.8726837">
        <ele>1178.98</ele>
        <time>2019-09-10T10:34:20Z</time>
      </trkpt>
      <trkpt lat="45.9373107" lon="6.8727114">
        <ele>1177.97</ele>
        <time>2019-09-10T10:34:26Z</time>
      </trkpt>
      <trkpt lat="45.9372079" lon="6.8727778">
        <ele>1176.04</ele>
        <time>2019-09-10T10:34:34Z</time>
      </trkpt>
      <trkpt lat="45.9370950" lon="6.8727572">
        <ele>1175.94</ele>
        <time>2019-09-10T10:34:42Z</time>
      </trkpt>
      <trkpt lat="45.9369994" lon="6.8727310">
        <ele>1174.97</ele>
        <time>2019-09-10T10:34:50Z</time>
      </trkpt>
      <trkpt lat="45.9369018" lon="6.8726749">
        <ele>1173.27</ele>
        <time>2019-09-10T10:34:58Z</time>
      </trkpt>
      <trkpt lat="45.9367938" lon="6.8726149">
        <ele>1172.24</ele>
        <time>2019-09-10T10:35:08Z</time>
      </trkpt>
      <trkpt lat="45.9367067" lon="6.8725727">
        <ele>1171.25</ele>
        <time>2019-09-10T10:35:14Z</time>
      </trkpt>
      <trkpt lat="45.9366068" lon="6.8725275">
        <ele>1165.73</ele>
        <time>2019-09-10T10:35:26Z</time>
      </trkpt>
      <trkpt lat="45.9365219" lon="6.8724495">
        <ele>1161.37</ele>
        <time>2019-09-10T10:35:36Z</time>
      </trkpt>
      <trkpt lat="45.9364208" lon="6.8723939">
        <ele>1158.01</ele>
        <time>2019-09-10T10:35:44Z</time>
      </trkpt>
      <trkpt lat="45.9363277" lon="6.8723497">
        <ele>1157.24</ele>
        <time>2019-09-10T10:35:50Z</time>
      </trkpt>
      <trkpt lat="45.9362391" lon="6.8722688">
        <ele>1155.06</ele>
        <time>2019-09-10T10:35:58Z</time>
      </trkpt>
      <trkpt lat="45.9361450" lon="6.8721788">
        <ele>1154.03</ele>
        <time>2019-09-10T10:36:06Z</time>
      </trkpt>
      <trkpt lat="45.9360412" lon="6.8720970">
        <ele>1161.37</ele>
        <time>2019-09-10T10:36:14Z</time>
      </trkpt>
      <trkpt lat="45.9359654" lon="6.8719886">
        <ele>1155.39</ele>
        <time>2019-09-10T10:36:22Z</time>
      </trkpt>
      <trkpt lat="45.9358988" lon="6.8718603">
        <ele>1153.95</ele>
        <time>2019-09-10T10:36:30Z</time>
      </trkpt>
      <trkpt lat="45.9358397" lon="6.8717241">
        <ele>1152.97</ele>
        <time>2019-09-10T10:36:40Z</time>
      </trkpt>
      <trkpt lat="45.9357724" lon="6.8716257">
        <ele>1149.34</ele>
        <time>2019-09-10T10:36:50Z</time>
      </trkpt>
      <trkpt lat="45.9356857" lon="6.8715776">
        <ele>1149.65</ele>
        <time>2019-09-10T10:36:58Z</time>
      </trkpt>
      <trkpt lat="45.9355886" lon="6.8715180">
        <ele>1148.97</ele>
        <time>2019-09-10T10:37:06Z</time>
      </trkpt>
      <trkpt lat="45.9355013" lon="6.8714763">
        <ele>1148.03</ele>
        <time>2019-09-10T10:37:14Z</time>
      </trkpt>
      <trkpt lat="45.9354007" lon="6.8714437">
        <ele>1145.25</ele>
        <time>2019-09-10T10:37:24Z</time>
      </trkpt>
      <trkpt lat="45.9353067" lon="6.8714186">
        <ele>1144.94</ele>
        <time>2019-09-10T10:37:32Z</time>
      </trkpt>
      <trkpt lat="45.9352341" lon="6.8713144">
        <ele>1144.94</ele>
        <time>2019-09-10T10:37:42Z</time>
      </trkpt>
      <trkpt lat="45.9351510" lon="6.8712597">
        <ele>1144.94</ele>
        <time>2019-09-10T10:37:48Z</time>
      </trkpt>
      <trkpt lat="45.9350648" lon="6.8712106">
        <ele>1144.03</ele>
        <time>2019-09-10T10:37:54Z</time>
      </trkpt>
      <trkpt lat="45.9349889" lon="6.8711358">
        <ele>1142.27</ele>
        <time>2019-09-10T10:38:00Z</time>
      </trkpt>
      <trkpt lat="45.9348945" lon="6.8710595">
        <ele>1140.25</ele>
        <time>2019-09-10T10:38:10Z</time>
      </trkpt>
      <trkpt lat="45.9347954" lon="6.8710335">
        <ele>1139.94</ele>
        <time>2019-09-10T10:38:18Z</time>
      </trkpt>
      <trkpt lat="45.9346904" lon="6.8709970">
        <ele>1140.09</ele>
        <time>2019-09-10T10:38:24Z</time>
      </trkpt>
      <trkpt lat="45.9345890" lon="6.8709508">
        <ele>1139.04</ele>
        <time>2019-09-10T10:38:30Z</time>
      </trkpt>
      <trkpt lat="45.9344926" lon="6.8708697">
        <ele>1137.73</ele>
        <time>2019-09-10T10:38:40Z</time>
      </trkpt>
      <trkpt lat="45.9344209" lon="6.8707858">
        <ele>1136.95</ele>
        <time>2019-09-10T10:38:48Z</time>
      </trkpt>
      <trkpt lat="45.9343328" lon="6.8707212">
        <ele>1136.24</ele>
        <time>2019-09-10T10:38:56Z</time>
      </trkpt>
      <trkpt lat="45.9342188" lon="6.8706714">
        <ele>1136.94</ele>
        <time>2019-09-10T10:39:04Z</time>
      </trkpt>
      <trkpt lat="45.9341319" lon="6.8707196">
        <ele>1136.94</ele>
        <time>2019-09-10T10:39:12Z</time>
      </trkpt>
      <trkpt lat="45.9340371" lon="6.8707398">
        <ele>1136.94</ele>
        <time>2019-09-10T10:39:20Z</time>
      </trkpt>
      <trkpt lat="45.9339303" lon="6.8707590">
        <ele>1137.01</ele>
        <time>2019-09-10T10:39:28Z</time>
      </trkpt>
      <trkpt lat="45.9338271" lon="6.8707085">
        <ele>1136.03</ele>
        <time>2019-09-10T10:39:34Z</time>
      </trkpt>
      <trkpt lat="45.9337205" lon="6.8706846">
        <ele>1135.96</ele>
        <time>2019-09-10T10:39:42Z</time>
      </trkpt>
      <trkpt lat="45.9336097" lon="6.8707148">
        <ele>1135.96</ele>
        <time>2019-09-10T10:39:50Z</time>
      </trkpt>
      <trkpt lat="45.9335077" lon="6.8707865">
        <ele>1135.03</ele>
        <time>2019-09-10T10:40:00Z</time>
      </trkpt>
      <trkpt lat="45.9333990" lon="6.8707761">
        <ele>1134.94</ele>
        <time>2019-09-10T10:40:08Z</time>
      </trkpt>
      <trkpt lat="45.9333003" lon="6.8707674">
        <ele>1134.01</ele>
        <time>2019-09-10T10:40:20Z</time>
      </trkpt>
      <trkpt lat="45.9331871" lon="6.8707785">
        <ele>1133.15</ele>
        <time>2019-09-10T10:40:30Z</time>
      </trkpt>
      <trkpt lat="45.9330995" lon="6.8707471">
        <ele>1132.94</ele>
        <time>2019-09-10T10:40:38Z</time>
      </trkpt>
      <trkpt lat="45.9330032" lon="6.8707092">
        <ele>1132.01</ele>
        <time>2019-09-10T10:40:46Z</time>
      </trkpt>
      <trkpt lat="45.9329149" lon="6.8707437">
        <ele>1127.06</ele>
        <time>2019-09-10T10:41:01Z</time>
      </trkpt>
      <trkpt lat="45.9327889" lon="6.8707838">
        <ele>1127.75</ele>
        <time>2019-09-10T10:41:13Z</time>
      </trkpt>
      <trkpt lat="45.9326785" lon="6.8708032">
        <ele>1125.82</ele>
        <time>2019-09-10T10:41:17Z</time>
      </trkpt>
      <trkpt lat="45.9325989" lon="6.8707372">
        <ele>1123.24</ele>
        <time>2019-09-10T10:41:34Z</time>
      </trkpt>
      <trkpt lat="45.9325089" lon="6.8707627">
        <ele>1122.04</ele>
        <time>2019-09-10T10:41:40Z</time>
      </trkpt>
      <trkpt lat="45.9324013" lon="6.8707472">
        <ele>1120.27</ele>
        <time>2019-09-10T10:41:46Z</time>
      </trkpt>
      <trkpt lat="45.9322989" lon="6.8708009">
        <ele>1119.94</ele>
        <time>2019-09-10T10:41:56Z</time>
      </trkpt>
      <trkpt lat="45.9322020" lon="6.8707797">
        <ele>1117.97</ele>
        <time>2019-09-10T10:42:08Z</time>
      </trkpt>
      <trkpt lat="45.9321086" lon="6.8707529">
        <ele>1115.27</ele>
        <time>2019-09-10T10:42:18Z</time>
      </trkpt>
      <trkpt lat="45.9320156" lon="6.8706789">
        <ele>1111.25</ele>
        <time>2019-09-10T10:42:44Z</time>
      </trkpt>
      <trkpt lat="45.9314282" lon="6.8708831">
        <ele>1091.75</ele>
        <time>2019-09-10T10:43:00Z</time>
      </trkpt>
      <trkpt lat="45.9313545" lon="6.8709642">
        <ele>1092.87</ele>
        <time>2019-09-10T10:43:30Z</time>
      </trkpt>
      <trkpt lat="45.9312613" lon="6.8708865">
        <ele>1087.01</ele>
        <time>2019-09-10T10:43:46Z</time>
      </trkpt>
      <trkpt lat="45.9311717" lon="6.8708314">
        <ele>1084.63</ele>
        <time>2019-09-10T10:43:54Z</time>
      </trkpt>
      <trkpt lat="45.9310743" lon="6.8707504">
        <ele>1082.99</ele>
        <time>2019-09-10T10:44:00Z</time>
      </trkpt>
      <trkpt lat="45.9309804" lon="6.8707100">
        <ele>1081.06</ele>
        <time>2019-09-10T10:44:10Z</time>
      </trkpt>
      <trkpt lat="45.9308843" lon="6.8706621">
        <ele>1080.03</ele>
        <time>2019-09-10T10:44:20Z</time>
      </trkpt>
      <trkpt lat="45.9307987" lon="6.8705752">
        <ele>1078.97</ele>
        <time>2019-09-10T10:44:30Z</time>
      </trkpt>
      <trkpt lat="45.9307138" lon="6.8705163">
        <ele>1074.99</ele>
        <time>2019-09-10T10:44:38Z</time>
      </trkpt>
      <trkpt lat="45.9306214" lon="6.8704707">
        <ele>1075.02</ele>
        <time>2019-09-10T10:44:46Z</time>
      </trkpt>
      <trkpt lat="45.9305281" lon="6.8704215">
        <ele>1073.27</ele>
        <time>2019-09-10T10:44:54Z</time>
      </trkpt>
      <trkpt lat="45.9304417" lon="6.8703350">
        <ele>1071.97</ele>
        <time>2019-09-10T10:45:02Z</time>
      </trkpt>
      <trkpt lat="45.9303581" lon="6.8702474">
        <ele>1071.94</ele>
        <time>2019-09-10T10:45:10Z</time>
      </trkpt>
      <trkpt lat="45.9302851" lon="6.8701663">
        <ele>1069.30</ele>
        <time>2019-09-10T10:45:18Z</time>
      </trkpt>
      <trkpt lat="45.9302153" lon="6.8700839">
        <ele>1068.24</ele>
        <time>2019-09-10T10:45:26Z</time>
      </trkpt>
      <trkpt lat="45.9301309" lon="6.8700096">
        <ele>1066.95</ele>
        <time>2019-09-10T10:45:34Z</time>
      </trkpt>
      <trkpt lat="45.9300355" lon="6.8699419">
        <ele>1065.04</ele>
        <time>2019-09-10T10:45:42Z</time>
      </trkpt>
      <trkpt lat="45.9300391" lon="6.8700753">
        <ele>1063.94</ele>
        <time>2019-09-10T10:45:56Z</time>
      </trkpt>
      <trkpt lat="45.9299959" lon="6.8699525">
        <ele>1062.97</ele>
        <time>2019-09-10T10:46:10Z</time>
      </trkpt>
      <trkpt lat="45.9299277" lon="6.8698485">
        <ele>1062.94</ele>
        <time>2019-09-10T10:46:18Z</time>
      </trkpt>
      <trkpt lat="45.9300038" lon="6.8699377">
        <ele>1062.94</ele>
        <time>2019-09-10T10:46:46Z</time>
      </trkpt>
      <trkpt lat="45.9299421" lon="6.8698059">
        <ele>1060.67</ele>
        <time>2019-09-10T10:47:48Z</time>
      </trkpt>
      <trkpt lat="45.9298854" lon="6.8696947">
        <ele>1059.24</ele>
        <time>2019-09-10T10:48:26Z</time>
      </trkpt>
      <trkpt lat="45.9297936" lon="6.8696254">
        <ele>1058.94</ele>
        <time>2019-09-10T10:48:36Z</time>
      </trkpt>
      <trkpt lat="45.9297152" lon="6.8695486">
        <ele>1057.95</ele>
        <time>2019-09-10T10:48:46Z</time>
      </trkpt>
      <trkpt lat="45.9296590" lon="6.8694315">
        <ele>1058.71</ele>
        <time>2019-09-10T10:48:54Z</time>
      </trkpt>
      <trkpt lat="45.9295855" lon="6.8693567">
        <ele>1058.53</ele>
        <time>2019-09-10T10:49:02Z</time>
      </trkpt>
      <trkpt lat="45.9294873" lon="6.8692810">
        <ele>1058.05</ele>
        <time>2019-09-10T10:49:13Z</time>
      </trkpt>
      <trkpt lat="45.9293988" lon="6.8692089">
        <ele>1058.86</ele>
        <time>2019-09-10T10:49:18Z</time>
      </trkpt>
      <trkpt lat="45.9293186" lon="6.8691296">
        <ele>1058.05</ele>
        <time>2019-09-10T10:49:26Z</time>
      </trkpt>
      <trkpt lat="45.9292532" lon="6.8690145">
        <ele>1057.01</ele>
        <time>2019-09-10T10:49:36Z</time>
      </trkpt>
      <trkpt lat="45.9291716" lon="6.8688965">
        <ele>1056.91</ele>
        <time>2019-09-10T10:49:48Z</time>
      </trkpt>
      <trkpt lat="45.9290827" lon="6.8688237">
        <ele>1056.86</ele>
        <time>2019-09-10T10:49:56Z</time>
      </trkpt>
      <trkpt lat="45.9290040" lon="6.8687235">
        <ele>1055.33</ele>
        <time>2019-09-10T10:50:04Z</time>
      </trkpt>
      <trkpt lat="45.9289481" lon="6.8686122">
        <ele>1056.50</ele>
        <time>2019-09-10T10:50:18Z</time>
      </trkpt>
      <trkpt lat="45.9288601" lon="6.8684885">
        <ele>1057.91</ele>
        <time>2019-09-10T10:50:26Z</time>
      </trkpt>
      <trkpt lat="45.9288144" lon="6.8683411">
        <ele>1054.53</ele>
        <time>2019-09-10T10:50:32Z</time>
      </trkpt>
      <trkpt lat="45.9287150" lon="6.8682549">
        <ele>1055.68</ele>
        <time>2019-09-10T10:50:42Z</time>
      </trkpt>
      <trkpt lat="45.9286345" lon="6.8681960">
        <ele>1053.99</ele>
        <time>2019-09-10T10:50:48Z</time>
      </trkpt>
      <trkpt lat="45.9285440" lon="6.8681504">
        <ele>1054.17</ele>
        <time>2019-09-10T10:50:57Z</time>
      </trkpt>
      <trkpt lat="45.9285087" lon="6.8682697">
        <ele>1051.06</ele>
        <time>2019-09-10T10:51:09Z</time>
      </trkpt>
      <trkpt lat="45.9284588" lon="6.8683941">
        <ele>1051.66</ele>
        <time>2019-09-10T10:51:17Z</time>
      </trkpt>
      <trkpt lat="45.9283755" lon="6.8684989">
        <ele>1053.54</ele>
        <time>2019-09-10T10:51:23Z</time>
      </trkpt>
      <trkpt lat="45.9282799" lon="6.8686033">
        <ele>1051.82</ele>
        <time>2019-09-10T10:51:34Z</time>
      </trkpt>
      <trkpt lat="45.9282038" lon="6.8686821">
        <ele>1050.95</ele>
        <time>2019-09-10T10:51:42Z</time>
      </trkpt>
    </trkseg>
  </trk>
</gpx>
